<?xml version='1.0' encoding='UTF-8'?><gpx version="1.1" creator="JPX - https://github.com/jenetics/jpx" xmlns="http://www.topografix.com/GPX/1/1"><trk><trkseg><trkpt lat="40.01219162233633" lon="18.17788773294944"><ele>144.0</ele><time>2026-04-04T12:44:07.999Z</time></trkpt><trkpt lat="40.01216792921058" lon="18.17777826948899"><ele>144.0</ele><time>2026-04-04T12:44:10.999Z</time></trkpt><trkpt lat="40.012113636051" lon="18.17765113538583"><ele>144.0</ele><time>2026-04-04T12:44:12.999Z</time></trkpt><trkpt lat="40.012085942422935" lon="18.17754173224366"><ele>144.0</ele><time>2026-04-04T12:44:14.999Z</time></trkpt><trkpt lat="40.01215773067115" lon="18.177453562587132"><ele>144.0</ele><time>2026-04-04T12:44:17.999Z</time></trkpt><trkpt lat="40.01221944024844" lon="18.177429023521523"><ele>144.0</ele><time>2026-04-04T12:44:18.999Z</time></trkpt><trkpt lat="40.01230165908476" lon="18.177396647671994"><ele>144.0</ele><time>2026-04-04T12:44:19.999Z</time></trkpt><trkpt lat="40.01240066913892" lon="18.177365877152564"><ele>144.0</ele><time>2026-04-04T12:44:20.999Z</time></trkpt><trkpt lat="40.01248172148508" lon="18.17733791413951"><ele>144.0</ele><time>2026-04-04T12:44:21.999Z</time></trkpt><trkpt lat="40.012559133652104" lon="18.177379868192215"><ele>144.0</ele><time>2026-04-04T12:44:26.998Z</time></trkpt><trkpt lat="40.01258677603408" lon="18.17746276439919"><ele>144.0</ele><time>2026-04-04T12:44:27.998Z</time></trkpt><trkpt lat="40.012615120418786" lon="18.1775580548349"><ele>143.8</ele><time>2026-04-04T12:44:28.998Z</time></trkpt><trkpt lat="40.01265210843003" lon="18.177647046312917"><ele>143.60000000000002</ele><time>2026-04-04T12:44:29.998Z</time></trkpt><trkpt lat="40.01268126115797" lon="18.177750092607102"><ele>143.4</ele><time>2026-04-04T12:44:30.998Z</time></trkpt><trkpt lat="40.01271764076009" lon="18.177867916638036"><ele>143.20000000000002</ele><time>2026-04-04T12:44:31.998Z</time></trkpt><trkpt lat="40.012763990330726" lon="18.177996457892984"><ele>143.0</ele><time>2026-04-04T12:44:32.998Z</time></trkpt><trkpt lat="40.012805961454085" lon="18.178138663808905"><ele>142.75</ele><time>2026-04-04T12:44:33.998Z</time></trkpt><trkpt lat="40.01285115967739" lon="18.1782761020873"><ele>142.5</ele><time>2026-04-04T12:44:34.998Z</time></trkpt><trkpt lat="40.01289184258524" lon="18.178416613024893"><ele>142.25</ele><time>2026-04-04T12:44:35.998Z</time></trkpt><trkpt lat="40.012936081282" lon="18.17856243180249"><ele>142.0</ele><time>2026-04-04T12:44:36.998Z</time></trkpt><trkpt lat="40.01298514422109" lon="18.178711163400322"><ele>142.0</ele><time>2026-04-04T12:44:37.998Z</time></trkpt><trkpt lat="40.013037280875096" lon="18.178865090929005"><ele>142.0</ele><time>2026-04-04T12:44:38.998Z</time></trkpt><trkpt lat="40.013086699697006" lon="18.179031154382223"><ele>142.0</ele><time>2026-04-04T12:44:39.998Z</time></trkpt><trkpt lat="40.0131337448802" lon="18.179197391155004"><ele>142.0</ele><time>2026-04-04T12:44:40.998Z</time></trkpt><trkpt lat="40.013180187147555" lon="18.179367423433774"><ele>141.79999999999998</ele><time>2026-04-04T12:44:41.998Z</time></trkpt><trkpt lat="40.01322674320292" lon="18.179539495572122"><ele>141.6</ele><time>2026-04-04T12:44:42.998Z</time></trkpt><trkpt lat="40.013266475704086" lon="18.179688388245637"><ele>141.39999999999998</ele><time>2026-04-04T12:44:43.998Z</time></trkpt><trkpt lat="40.01330846957518" lon="18.1798052683152"><ele>141.2</ele><time>2026-04-04T12:44:44.998Z</time></trkpt><trkpt lat="40.01333518618331" lon="18.17989452970695"><ele>141.0</ele><time>2026-04-04T12:44:45.998Z</time></trkpt><trkpt lat="40.013380271508595" lon="18.17999693794439"><ele>141.0</ele><time>2026-04-04T12:44:47.998Z</time></trkpt><trkpt lat="40.01348569129737" lon="18.179957305595188"><ele>141.0</ele><time>2026-04-04T12:44:49.998Z</time></trkpt><trkpt lat="40.01356559458753" lon="18.179883463780158"><ele>141.0</ele><time>2026-04-04T12:44:50.998Z</time></trkpt><trkpt lat="40.01365798843984" lon="18.179790220335136"><ele>141.0</ele><time>2026-04-04T12:44:51.998Z</time></trkpt><trkpt lat="40.013766927988875" lon="18.179686403482087"><ele>140.75</ele><time>2026-04-04T12:44:52.998Z</time></trkpt><trkpt lat="40.01388938180693" lon="18.179590082905403"><ele>140.5</ele><time>2026-04-04T12:44:53.998Z</time></trkpt><trkpt lat="40.01401574853463" lon="18.17949447403946"><ele>140.25</ele><time>2026-04-04T12:44:54.998Z</time></trkpt><trkpt lat="40.01415455969114" lon="18.179390587839375"><ele>140.0</ele><time>2026-04-04T12:44:55.998Z</time></trkpt><trkpt lat="40.01429115393819" lon="18.179284646210377"><ele>139.66666666666666</ele><time>2026-04-04T12:44:56.998Z</time></trkpt><trkpt lat="40.01442619035194" lon="18.17917846467055"><ele>139.33333333333334</ele><time>2026-04-04T12:44:57.998Z</time></trkpt><trkpt lat="40.014565727625765" lon="18.179071740207455"><ele>139.0</ele><time>2026-04-04T12:44:58.998Z</time></trkpt><trkpt lat="40.01470346778578" lon="18.17896000718803"><ele>138.66666666666669</ele><time>2026-04-04T12:44:59.998Z</time></trkpt><trkpt lat="40.01484509547698" lon="18.178851016118895"><ele>138.33333333333334</ele><time>2026-04-04T12:45:00.998Z</time></trkpt><trkpt lat="40.014987894549485" lon="18.178742819568093"><ele>138.0</ele><time>2026-04-04T12:45:01.998Z</time></trkpt><trkpt lat="40.015142459615625" lon="18.17863917218932"><ele>139.33333333333334</ele><time>2026-04-04T12:45:02.998Z</time></trkpt><trkpt lat="40.01528944718521" lon="18.178525749154534"><ele>140.66666666666669</ele><time>2026-04-04T12:45:03.998Z</time></trkpt><trkpt lat="40.01543396923566" lon="18.178414139392153"><ele>142.0</ele><time>2026-04-04T12:45:04.998Z</time></trkpt><trkpt lat="40.01557645748493" lon="18.17830474125243"><ele>142.0</ele><time>2026-04-04T12:45:05.998Z</time></trkpt><trkpt lat="40.01572399191204" lon="18.178194707224733"><ele>142.0</ele><time>2026-04-04T12:45:06.998Z</time></trkpt><trkpt lat="40.01587557040103" lon="18.178081805374394"><ele>142.0</ele><time>2026-04-04T12:45:07.998Z</time></trkpt><trkpt lat="40.01603244104551" lon="18.177972476881905"><ele>142.33333333333334</ele><time>2026-04-04T12:45:08.998Z</time></trkpt><trkpt lat="40.016187271114845" lon="18.177862009843373"><ele>142.66666666666666</ele><time>2026-04-04T12:45:09.998Z</time></trkpt><trkpt lat="40.016341907390974" lon="18.177744812049742"><ele>143.0</ele><time>2026-04-04T12:45:10.998Z</time></trkpt><trkpt lat="40.01650417865552" lon="18.177630327917058"><ele>144.0</ele><time>2026-04-04T12:45:11.998Z</time></trkpt><trkpt lat="40.016662592061" lon="18.17751355804354"><ele>145.0</ele><time>2026-04-04T12:45:12.998Z</time></trkpt><trkpt lat="40.0168242617483" lon="18.177395643258773"><ele>146.0</ele><time>2026-04-04T12:45:13.998Z</time></trkpt><trkpt lat="40.01698644069339" lon="18.17728159592534"><ele>146.66666666666666</ele><time>2026-04-04T12:45:14.998Z</time></trkpt><trkpt lat="40.01714856180008" lon="18.177164488538473"><ele>147.33333333333334</ele><time>2026-04-04T12:45:15.998Z</time></trkpt><trkpt lat="40.01730980450526" lon="18.177047039620096"><ele>148.0</ele><time>2026-04-04T12:45:16.998Z</time></trkpt><trkpt lat="40.017462087122766" lon="18.17693264746539"><ele>147.66666666666669</ele><time>2026-04-04T12:45:17.998Z</time></trkpt><trkpt lat="40.017618481965854" lon="18.176816286796353"><ele>147.33333333333334</ele><time>2026-04-04T12:45:18.998Z</time></trkpt><trkpt lat="40.01777858487756" lon="18.176703060902582"><ele>147.0</ele><time>2026-04-04T12:45:19.998Z</time></trkpt><trkpt lat="40.01793659676041" lon="18.176587010310524"><ele>147.33333333333334</ele><time>2026-04-04T12:45:20.998Z</time></trkpt><trkpt lat="40.018094873321274" lon="18.176470629599194"><ele>147.66666666666669</ele><time>2026-04-04T12:45:21.998Z</time></trkpt><trkpt lat="40.0182510430075" lon="18.17635603106538"><ele>148.0</ele><time>2026-04-04T12:45:22.998Z</time></trkpt><trkpt lat="40.01840606215486" lon="18.17624362467739"><ele>148.0</ele><time>2026-04-04T12:45:23.998Z</time></trkpt><trkpt lat="40.0185430998115" lon="18.17614209971254"><ele>148.0</ele><time>2026-04-04T12:45:24.998Z</time></trkpt><trkpt lat="40.018666846554474" lon="18.17604972468428"><ele>148.0</ele><time>2026-04-04T12:45:25.998Z</time></trkpt><trkpt lat="40.01877882903101" lon="18.175960943439655"><ele>148.0</ele><time>2026-04-04T12:45:26.998Z</time></trkpt><trkpt lat="40.01889255467765" lon="18.175877920203153"><ele>148.0</ele><time>2026-04-04T12:45:27.998Z</time></trkpt><trkpt lat="40.01901290520661" lon="18.175788993469926"><ele>148.0</ele><time>2026-04-04T12:45:28.998Z</time></trkpt><trkpt lat="40.01915123760771" lon="18.17568761056265"><ele>148.0</ele><time>2026-04-04T12:45:29.998Z</time></trkpt><trkpt lat="40.019301541199624" lon="18.175588346879284"><ele>148.0</ele><time>2026-04-04T12:45:30.998Z</time></trkpt><trkpt lat="40.01945599557837" lon="18.175471536190372"><ele>148.0</ele><time>2026-04-04T12:45:31.998Z</time></trkpt><trkpt lat="40.01960373204742" lon="18.175345624084272"><ele>148.0</ele><time>2026-04-04T12:45:32.998Z</time></trkpt><trkpt lat="40.01975546348886" lon="18.175209889978685"><ele>148.0</ele><time>2026-04-04T12:45:33.998Z</time></trkpt><trkpt lat="40.01991101522633" lon="18.175064622759415"><ele>148.0</ele><time>2026-04-04T12:45:34.998Z</time></trkpt><trkpt lat="40.02005066703503" lon="18.17491113349341"><ele>148.0</ele><time>2026-04-04T12:45:35.998Z</time></trkpt><trkpt lat="40.020198726934964" lon="18.174743574026568"><ele>148.66666666666669</ele><time>2026-04-04T12:45:36.998Z</time></trkpt><trkpt lat="40.020349211083804" lon="18.17457166521811"><ele>149.33333333333334</ele><time>2026-04-04T12:45:37.998Z</time></trkpt><trkpt lat="40.02049829356776" lon="18.174384681141493"><ele>150.0</ele><time>2026-04-04T12:45:38.998Z</time></trkpt><trkpt lat="40.02065487289321" lon="18.174203106600736"><ele>150.0</ele><time>2026-04-04T12:45:39.998Z</time></trkpt><trkpt lat="40.020807574813304" lon="18.174040056871778"><ele>150.0</ele><time>2026-04-04T12:45:40.998Z</time></trkpt><trkpt lat="40.020981854921885" lon="18.173868473271646"><ele>150.0</ele><time>2026-04-04T12:45:41.998Z</time></trkpt><trkpt lat="40.021192354522306" lon="18.173695913582296"><ele>150.33333333333334</ele><time>2026-04-04T12:45:42.998Z</time></trkpt><trkpt lat="40.02136580250431" lon="18.173517004033616"><ele>150.66666666666669</ele><time>2026-04-04T12:45:43.998Z</time></trkpt><trkpt lat="40.0215322726" lon="18.17334013200683"><ele>151.0</ele><time>2026-04-04T12:45:44.998Z</time></trkpt><trkpt lat="40.02169547639507" lon="18.173158364496047"><ele>151.0</ele><time>2026-04-04T12:45:45.998Z</time></trkpt><trkpt lat="40.02184739607592" lon="18.172974932139688"><ele>151.0</ele><time>2026-04-04T12:45:46.998Z</time></trkpt><trkpt lat="40.02200738230299" lon="18.17278835365395"><ele>151.0</ele><time>2026-04-04T12:45:47.998Z</time></trkpt><trkpt lat="40.02216650086599" lon="18.172601390422166"><ele>151.0</ele><time>2026-04-04T12:45:48.998Z</time></trkpt><trkpt lat="40.02233329925798" lon="18.172416310031977"><ele>151.0</ele><time>2026-04-04T12:45:49.998Z</time></trkpt><trkpt lat="40.022502736355094" lon="18.17223167040743"><ele>151.0</ele><time>2026-04-04T12:45:50.998Z</time></trkpt><trkpt lat="40.022668221731934" lon="18.172045903684886"><ele>151.0</ele><time>2026-04-04T12:45:51.998Z</time></trkpt><trkpt lat="40.022820468355455" lon="18.171862801017287"><ele>151.0</ele><time>2026-04-04T12:45:52.998Z</time></trkpt><trkpt lat="40.02297929233051" lon="18.171680013194397"><ele>151.0</ele><time>2026-04-04T12:45:53.998Z</time></trkpt><trkpt lat="40.023141566874756" lon="18.171497594967185"><ele>151.0</ele><time>2026-04-04T12:45:54.998Z</time></trkpt><trkpt lat="40.02330182023102" lon="18.171314690278074"><ele>151.0</ele><time>2026-04-04T12:45:55.998Z</time></trkpt><trkpt lat="40.02345955964358" lon="18.17113535450918"><ele>151.0</ele><time>2026-04-04T12:45:56.998Z</time></trkpt><trkpt lat="40.023620342194576" lon="18.170954481791306"><ele>151.0</ele><time>2026-04-04T12:45:57.998Z</time></trkpt><trkpt lat="40.023784492293444" lon="18.170770096257737"><ele>151.0</ele><time>2026-04-04T12:45:58.998Z</time></trkpt><trkpt lat="40.02393474623052" lon="18.170597805166608"><ele>151.0</ele><time>2026-04-04T12:45:59.998Z</time></trkpt><trkpt lat="40.02406437982268" lon="18.170447742447777"><ele>150.33333333333334</ele><time>2026-04-04T12:46:00.998Z</time></trkpt><trkpt lat="40.02418686449108" lon="18.170305785827626"><ele>149.66666666666666</ele><time>2026-04-04T12:46:01.998Z</time></trkpt><trkpt lat="40.02429954021792" lon="18.17017991340703"><ele>149.0</ele><time>2026-04-04T12:46:02.998Z</time></trkpt><trkpt lat="40.02440492025909" lon="18.170057729818534"><ele>149.0</ele><time>2026-04-04T12:46:03.998Z</time></trkpt><trkpt lat="40.02451573941454" lon="18.169933103129846"><ele>149.0</ele><time>2026-04-04T12:46:04.998Z</time></trkpt><trkpt lat="40.0246370543405" lon="18.169795990830316"><ele>149.0</ele><time>2026-04-04T12:46:05.998Z</time></trkpt><trkpt lat="40.02476962801426" lon="18.169650097928606"><ele>149.0</ele><time>2026-04-04T12:46:06.998Z</time></trkpt><trkpt lat="40.024909347368244" lon="18.1694949507069"><ele>149.0</ele><time>2026-04-04T12:46:07.998Z</time></trkpt><trkpt lat="40.02505502482042" lon="18.169331714756023"><ele>149.0</ele><time>2026-04-04T12:46:08.998Z</time></trkpt><trkpt lat="40.0251998790143" lon="18.169164302776366"><ele>148.0</ele><time>2026-04-04T12:46:09.998Z</time></trkpt><trkpt lat="40.02534858839996" lon="18.168996478378983"><ele>147.0</ele><time>2026-04-04T12:46:10.998Z</time></trkpt><trkpt lat="40.025501893978394" lon="18.168825486074436"><ele>146.0</ele><time>2026-04-04T12:46:11.998Z</time></trkpt><trkpt lat="40.02565631160962" lon="18.16864832338898"><ele>146.0</ele><time>2026-04-04T12:46:12.998Z</time></trkpt><trkpt lat="40.02581622347524" lon="18.168466362718533"><ele>146.0</ele><time>2026-04-04T12:46:13.998Z</time></trkpt><trkpt lat="40.02597629101165" lon="18.16828113733444"><ele>146.0</ele><time>2026-04-04T12:46:14.998Z</time></trkpt><trkpt lat="40.02614622840107" lon="18.16808724942462"><ele>146.0</ele><time>2026-04-04T12:46:15.998Z</time></trkpt><trkpt lat="40.02630899907049" lon="18.167904584172444"><ele>146.0</ele><time>2026-04-04T12:46:16.998Z</time></trkpt><trkpt lat="40.02647224990349" lon="18.167720294514982"><ele>146.0</ele><time>2026-04-04T12:46:17.998Z</time></trkpt><trkpt lat="40.02662738153097" lon="18.16754847893239"><ele>146.0</ele><time>2026-04-04T12:46:18.998Z</time></trkpt><trkpt lat="40.02676661818289" lon="18.1673944796402"><ele>146.0</ele><time>2026-04-04T12:46:19.998Z</time></trkpt><trkpt lat="40.026889819298354" lon="18.167263373487955"><ele>146.0</ele><time>2026-04-04T12:46:20.998Z</time></trkpt><trkpt lat="40.027000332385775" lon="18.167138052578643"><ele>146.0</ele><time>2026-04-04T12:46:21.998Z</time></trkpt><trkpt lat="40.027098166459034" lon="18.167028717626124"><ele>146.0</ele><time>2026-04-04T12:46:22.998Z</time></trkpt><trkpt lat="40.02718243334418" lon="18.166950709073404"><ele>146.0</ele><time>2026-04-04T12:46:23.998Z</time></trkpt><trkpt lat="40.02726189893946" lon="18.16690346796682"><ele>146.0</ele><time>2026-04-04T12:46:24.998Z</time></trkpt><trkpt lat="40.02734311780408" lon="18.166884635780498"><ele>146.0</ele><time>2026-04-04T12:46:25.998Z</time></trkpt><trkpt lat="40.02743172405876" lon="18.166886907511163"><ele>146.0</ele><time>2026-04-04T12:46:26.998Z</time></trkpt><trkpt lat="40.02752852698109" lon="18.1669217091074"><ele>146.0</ele><time>2026-04-04T12:46:27.998Z</time></trkpt><trkpt lat="40.027626096561185" lon="18.16698704360417"><ele>146.0</ele><time>2026-04-04T12:46:28.998Z</time></trkpt><trkpt lat="40.02773848643438" lon="18.167078729264546"><ele>146.0</ele><time>2026-04-04T12:46:29.998Z</time></trkpt><trkpt lat="40.02786248564799" lon="18.16717091998734"><ele>146.0</ele><time>2026-04-04T12:46:30.998Z</time></trkpt><trkpt lat="40.027997353129905" lon="18.16727419749813"><ele>146.0</ele><time>2026-04-04T12:46:31.998Z</time></trkpt><trkpt lat="40.02814693406176" lon="18.16737300256953"><ele>146.0</ele><time>2026-04-04T12:46:32.998Z</time></trkpt><trkpt lat="40.0282948466528" lon="18.167472727535234"><ele>146.66666666666666</ele><time>2026-04-04T12:46:33.998Z</time></trkpt><trkpt lat="40.02845376008417" lon="18.167576774421182"><ele>147.33333333333334</ele><time>2026-04-04T12:46:34.998Z</time></trkpt><trkpt lat="40.028619245523934" lon="18.167685524819145"><ele>148.0</ele><time>2026-04-04T12:46:35.998Z</time></trkpt><trkpt lat="40.02879310702588" lon="18.167798854927632"><ele>148.0</ele><time>2026-04-04T12:46:36.998Z</time></trkpt><trkpt lat="40.02896358045649" lon="18.167913264473206"><ele>148.0</ele><time>2026-04-04T12:46:37.998Z</time></trkpt><trkpt lat="40.02913939503299" lon="18.168018579527825"><ele>148.0</ele><time>2026-04-04T12:46:38.998Z</time></trkpt><trkpt lat="40.029314241303595" lon="18.16809952252747"><ele>148.66666666666669</ele><time>2026-04-04T12:46:39.998Z</time></trkpt><trkpt lat="40.0295058934244" lon="18.16816155787009"><ele>149.33333333333334</ele><time>2026-04-04T12:46:40.998Z</time></trkpt><trkpt lat="40.02970095175778" lon="18.168215508314812"><ele>150.0</ele><time>2026-04-04T12:46:41.998Z</time></trkpt><trkpt lat="40.02990586873278" lon="18.168265476825926"><ele>150.66666666666666</ele><time>2026-04-04T12:46:42.998Z</time></trkpt><trkpt lat="40.03010801124496" lon="18.1683246650212"><ele>151.33333333333331</ele><time>2026-04-04T12:46:43.998Z</time></trkpt><trkpt lat="40.03030653464521" lon="18.168393250290812"><ele>152.0</ele><time>2026-04-04T12:46:44.998Z</time></trkpt><trkpt lat="40.03049289663892" lon="18.168466654636667"><ele>152.0</ele><time>2026-04-04T12:46:45.998Z</time></trkpt><trkpt lat="40.03064557085341" lon="18.168518761496706"><ele>152.0</ele><time>2026-04-04T12:46:46.998Z</time></trkpt><trkpt lat="40.03076457314992" lon="18.16856240896638"><ele>152.0</ele><time>2026-04-04T12:46:47.998Z</time></trkpt><trkpt lat="40.03086417817216" lon="18.168597139716685"><ele>152.0</ele><time>2026-04-04T12:46:48.998Z</time></trkpt><trkpt lat="40.03094449290265" lon="18.168652135232442"><ele>152.33333333333331</ele><time>2026-04-04T12:46:49.998Z</time></trkpt><trkpt lat="40.03100202557751" lon="18.16873160899792"><ele>152.66666666666666</ele><time>2026-04-04T12:46:50.998Z</time></trkpt><trkpt lat="40.03104961078592" lon="18.168812377737126"><ele>153.0</ele><time>2026-04-04T12:46:51.997Z</time></trkpt><trkpt lat="40.03111248935267" lon="18.16884134785485"><ele>153.33333333333334</ele><time>2026-04-04T12:46:52.997Z</time></trkpt><trkpt lat="40.031183023965504" lon="18.16883190555606"><ele>153.66666666666669</ele><time>2026-04-04T12:46:53.997Z</time></trkpt><trkpt lat="40.03126927734004" lon="18.168783679555943"><ele>154.0</ele><time>2026-04-04T12:46:54.997Z</time></trkpt><trkpt lat="40.03135606587395" lon="18.168711298889484"><ele>154.0</ele><time>2026-04-04T12:46:55.997Z</time></trkpt><trkpt lat="40.03145416179152" lon="18.168646707013444"><ele>154.0</ele><time>2026-04-04T12:46:56.997Z</time></trkpt><trkpt lat="40.03157475280488" lon="18.16861315785291"><ele>154.0</ele><time>2026-04-04T12:46:57.997Z</time></trkpt><trkpt lat="40.03172658208212" lon="18.16860662244571"><ele>154.0</ele><time>2026-04-04T12:46:58.997Z</time></trkpt><trkpt lat="40.03189388408923" lon="18.16861840896371"><ele>155.0</ele><time>2026-04-04T12:46:59.997Z</time></trkpt><trkpt lat="40.032076288944985" lon="18.168645009955863"><ele>156.0</ele><time>2026-04-04T12:47:00.997Z</time></trkpt><trkpt lat="40.032264335624475" lon="18.168676765796587"><ele>157.0</ele><time>2026-04-04T12:47:01.997Z</time></trkpt><trkpt lat="40.03245885745075" lon="18.16871030513963"><ele>157.0</ele><time>2026-04-04T12:47:02.997Z</time></trkpt><trkpt lat="40.03266545297854" lon="18.168750116192736"><ele>157.0</ele><time>2026-04-04T12:47:03.997Z</time></trkpt><trkpt lat="40.03288268341312" lon="18.168781629139964"><ele>157.0</ele><time>2026-04-04T12:47:04.997Z</time></trkpt><trkpt lat="40.03309895921734" lon="18.168808568071775"><ele>159.0</ele><time>2026-04-04T12:47:05.997Z</time></trkpt><trkpt lat="40.033324997015626" lon="18.168850088740182"><ele>161.0</ele><time>2026-04-04T12:47:06.997Z</time></trkpt><trkpt lat="40.03355764961795" lon="18.16888868299318"><ele>161.0</ele><time>2026-04-04T12:47:07.997Z</time></trkpt><trkpt lat="40.03378860715282" lon="18.168940203086695"><ele>161.0</ele><time>2026-04-04T12:47:08.997Z</time></trkpt><trkpt lat="40.03402391163991" lon="18.16900768870251"><ele>160.5</ele><time>2026-04-04T12:47:09.997Z</time></trkpt><trkpt lat="40.03425663525484" lon="18.169089926953028"><ele>160.0</ele><time>2026-04-04T12:47:10.997Z</time></trkpt><trkpt lat="40.03448850822154" lon="18.169177664617965"><ele>160.0</ele><time>2026-04-04T12:47:11.997Z</time></trkpt><trkpt lat="40.034713658796534" lon="18.16923617022566"><ele>160.0</ele><time>2026-04-04T12:47:12.997Z</time></trkpt><trkpt lat="40.03493550757474" lon="18.169270279999367"><ele>160.66666666666669</ele><time>2026-04-04T12:47:13.997Z</time></trkpt><trkpt lat="40.03514879792641" lon="18.169289167548964"><ele>161.33333333333334</ele><time>2026-04-04T12:47:14.997Z</time></trkpt><trkpt lat="40.0353453063057" lon="18.169297794085846"><ele>162.0</ele><time>2026-04-04T12:47:15.997Z</time></trkpt><trkpt lat="40.03552797219561" lon="18.169287854784574"><ele>162.0</ele><time>2026-04-04T12:47:16.997Z</time></trkpt><trkpt lat="40.03570147823916" lon="18.169290857040902"><ele>162.0</ele><time>2026-04-04T12:47:17.997Z</time></trkpt><trkpt lat="40.035880874473214" lon="18.16931181066882"><ele>162.0</ele><time>2026-04-04T12:47:18.997Z</time></trkpt><trkpt lat="40.03606503927653" lon="18.16934071429219"><ele>162.33333333333334</ele><time>2026-04-04T12:47:19.997Z</time></trkpt><trkpt lat="40.03625391084898" lon="18.16936896879179"><ele>162.66666666666669</ele><time>2026-04-04T12:47:20.997Z</time></trkpt><trkpt lat="40.03644950018245" lon="18.1693913852565"><ele>163.0</ele><time>2026-04-04T12:47:21.997Z</time></trkpt><trkpt lat="40.03665365350384" lon="18.169414934198848"><ele>163.66666666666669</ele><time>2026-04-04T12:47:22.997Z</time></trkpt><trkpt lat="40.03686352572768" lon="18.16947306442319"><ele>164.33333333333334</ele><time>2026-04-04T12:47:23.997Z</time></trkpt><trkpt lat="40.03708028581378" lon="18.169548353391928"><ele>165.0</ele><time>2026-04-04T12:47:24.997Z</time></trkpt><trkpt lat="40.03729946115383" lon="18.1696248969107"><ele>164.5</ele><time>2026-04-04T12:47:25.997Z</time></trkpt><trkpt lat="40.03752539526627" lon="18.16968780730618"><ele>164.0</ele><time>2026-04-04T12:47:26.997Z</time></trkpt><trkpt lat="40.03775534767401" lon="18.169733067577983"><ele>164.0</ele><time>2026-04-04T12:47:27.997Z</time></trkpt><trkpt lat="40.0379889575679" lon="18.169765732339986"><ele>164.0</ele><time>2026-04-04T12:47:28.997Z</time></trkpt><trkpt lat="40.038220535635475" lon="18.169795013820465"><ele>164.0</ele><time>2026-04-04T12:47:29.997Z</time></trkpt><trkpt lat="40.038441844061865" lon="18.169829202879477"><ele>164.0</ele><time>2026-04-04T12:47:30.997Z</time></trkpt><trkpt lat="40.03866531988235" lon="18.169879291328815"><ele>164.66666666666666</ele><time>2026-04-04T12:47:31.997Z</time></trkpt><trkpt lat="40.038873351612644" lon="18.169955542906358"><ele>165.33333333333334</ele><time>2026-04-04T12:47:32.997Z</time></trkpt><trkpt lat="40.03907932699778" lon="18.170053283307194"><ele>166.0</ele><time>2026-04-04T12:47:33.997Z</time></trkpt><trkpt lat="40.039283303968" lon="18.170177489861114"><ele>166.0</ele><time>2026-04-04T12:47:34.997Z</time></trkpt><trkpt lat="40.03949037095773" lon="18.170299407372994"><ele>166.0</ele><time>2026-04-04T12:47:35.997Z</time></trkpt><trkpt lat="40.03970201443808" lon="18.170420291035352"><ele>166.0</ele><time>2026-04-04T12:47:36.997Z</time></trkpt><trkpt lat="40.03992135075761" lon="18.170538947936542"><ele>166.0</ele><time>2026-04-04T12:47:37.997Z</time></trkpt><trkpt lat="40.04013925322515" lon="18.170662086226184"><ele>164.0</ele><time>2026-04-04T12:47:38.997Z</time></trkpt><trkpt lat="40.04036081266651" lon="18.170783946177597"><ele>162.0</ele><time>2026-04-04T12:47:39.997Z</time></trkpt><trkpt lat="40.04057468129449" lon="18.17090951285382"><ele>162.0</ele><time>2026-04-04T12:47:40.997Z</time></trkpt><trkpt lat="40.04079678318185" lon="18.171030055971592"><ele>162.0</ele><time>2026-04-04T12:47:41.997Z</time></trkpt><trkpt lat="40.041016266627004" lon="18.171155173742857"><ele>160.5</ele><time>2026-04-04T12:47:42.997Z</time></trkpt><trkpt lat="40.04123168065579" lon="18.1712746438736"><ele>159.0</ele><time>2026-04-04T12:47:43.997Z</time></trkpt><trkpt lat="40.04144075473518" lon="18.171384950844367"><ele>158.66666666666666</ele><time>2026-04-04T12:47:44.997Z</time></trkpt><trkpt lat="40.04164119115552" lon="18.171479335046346"><ele>158.33333333333331</ele><time>2026-04-04T12:47:45.997Z</time></trkpt><trkpt lat="40.0418561933124" lon="18.171532954882693"><ele>158.0</ele><time>2026-04-04T12:47:46.997Z</time></trkpt><trkpt lat="40.04207523608222" lon="18.1715642806085"><ele>158.0</ele><time>2026-04-04T12:47:47.997Z</time></trkpt><trkpt lat="40.04229625735495" lon="18.171583934143644"><ele>158.0</ele><time>2026-04-04T12:47:48.997Z</time></trkpt><trkpt lat="40.04252130627191" lon="18.171598210327616"><ele>158.0</ele><time>2026-04-04T12:47:49.997Z</time></trkpt><trkpt lat="40.04274418685828" lon="18.17160690735437"><ele>157.5</ele><time>2026-04-04T12:47:50.997Z</time></trkpt><trkpt lat="40.04297462256091" lon="18.17161330747277"><ele>157.0</ele><time>2026-04-04T12:47:51.997Z</time></trkpt><trkpt lat="40.04320816508379" lon="18.171616945457444"><ele>156.5</ele><time>2026-04-04T12:47:52.997Z</time></trkpt><trkpt lat="40.04343754444418" lon="18.17162592620964"><ele>156.0</ele><time>2026-04-04T12:47:53.997Z</time></trkpt><trkpt lat="40.043667041703635" lon="18.171639880934222"><ele>156.0</ele><time>2026-04-04T12:47:54.997Z</time></trkpt><trkpt lat="40.04389959913946" lon="18.17166047752783"><ele>156.0</ele><time>2026-04-04T12:47:55.997Z</time></trkpt><trkpt lat="40.04412858813361" lon="18.171679329275044"><ele>157.5</ele><time>2026-04-04T12:47:56.997Z</time></trkpt><trkpt lat="40.04436454615623" lon="18.171691919343985"><ele>159.0</ele><time>2026-04-04T12:47:57.997Z</time></trkpt><trkpt lat="40.04460216797688" lon="18.171709069766198"><ele>159.0</ele><time>2026-04-04T12:47:58.997Z</time></trkpt><trkpt lat="40.044837779422274" lon="18.171717176442726"><ele>159.0</ele><time>2026-04-04T12:47:59.997Z</time></trkpt><trkpt lat="40.045070583969185" lon="18.17171200374381"><ele>157.5</ele><time>2026-04-04T12:48:00.997Z</time></trkpt><trkpt lat="40.04530350902844" lon="18.171680890262447"><ele>156.0</ele><time>2026-04-04T12:48:01.997Z</time></trkpt><trkpt lat="40.04553299983758" lon="18.171626456554616"><ele>156.0</ele><time>2026-04-04T12:48:02.997Z</time></trkpt><trkpt lat="40.04576251882575" lon="18.171551322041136"><ele>156.0</ele><time>2026-04-04T12:48:03.997Z</time></trkpt><trkpt lat="40.04599015023464" lon="18.17146226927147"><ele>157.5</ele><time>2026-04-04T12:48:04.997Z</time></trkpt><trkpt lat="40.046215791511266" lon="18.17136456051026"><ele>159.0</ele><time>2026-04-04T12:48:05.997Z</time></trkpt><trkpt lat="40.04644158756609" lon="18.171262795255455"><ele>158.0</ele><time>2026-04-04T12:48:06.997Z</time></trkpt><trkpt lat="40.04667539994404" lon="18.171160190661883"><ele>157.0</ele><time>2026-04-04T12:48:07.997Z</time></trkpt><trkpt lat="40.04690736826331" lon="18.17105513544272"><ele>157.0</ele><time>2026-04-04T12:48:08.997Z</time></trkpt><trkpt lat="40.04713662941092" lon="18.170941108872597"><ele>157.0</ele><time>2026-04-04T12:48:09.997Z</time></trkpt><trkpt lat="40.047364692006305" lon="18.170810539732777"><ele>157.0</ele><time>2026-04-04T12:48:10.997Z</time></trkpt><trkpt lat="40.04759312275043" lon="18.17067292064101"><ele>157.0</ele><time>2026-04-04T12:48:11.997Z</time></trkpt><trkpt lat="40.04781737014419" lon="18.170534526101726"><ele>157.0</ele><time>2026-04-04T12:48:12.997Z</time></trkpt><trkpt lat="40.04804342923398" lon="18.170395892003334"><ele>157.0</ele><time>2026-04-04T12:48:13.997Z</time></trkpt><trkpt lat="40.0482697020899" lon="18.170255552454012"><ele>155.5</ele><time>2026-04-04T12:48:14.997Z</time></trkpt><trkpt lat="40.0484989116932" lon="18.17011255914392"><ele>154.0</ele><time>2026-04-04T12:48:15.997Z</time></trkpt><trkpt lat="40.04872728000903" lon="18.169973132879484"><ele>155.0</ele><time>2026-04-04T12:48:16.997Z</time></trkpt><trkpt lat="40.048954477488394" lon="18.169829275998445"><ele>156.0</ele><time>2026-04-04T12:48:17.997Z</time></trkpt><trkpt lat="40.049187746977196" lon="18.169688211938613"><ele>156.0</ele><time>2026-04-04T12:48:18.997Z</time></trkpt><trkpt lat="40.04941801626038" lon="18.169555481144712"><ele>156.0</ele><time>2026-04-04T12:48:19.997Z</time></trkpt><trkpt lat="40.049646743248466" lon="18.169431817095973"><ele>156.0</ele><time>2026-04-04T12:48:20.997Z</time></trkpt><trkpt lat="40.049878402369536" lon="18.169313577150852"><ele>156.0</ele><time>2026-04-04T12:48:21.997Z</time></trkpt><trkpt lat="40.05011627285046" lon="18.169210397388124"><ele>153.5</ele><time>2026-04-04T12:48:22.997Z</time></trkpt><trkpt lat="40.050360239222734" lon="18.169121375671992"><ele>151.0</ele><time>2026-04-04T12:48:23.997Z</time></trkpt><trkpt lat="40.05061001180133" lon="18.169052399316023"><ele>152.0</ele><time>2026-04-04T12:48:24.997Z</time></trkpt><trkpt lat="40.05086709097163" lon="18.168988890919245"><ele>153.0</ele><time>2026-04-04T12:48:25.997Z</time></trkpt><trkpt lat="40.05112192188838" lon="18.16892564862034"><ele>153.0</ele><time>2026-04-04T12:48:26.997Z</time></trkpt><trkpt lat="40.05137866999679" lon="18.168852617273977"><ele>153.0</ele><time>2026-04-04T12:48:27.997Z</time></trkpt><trkpt lat="40.05163497619117" lon="18.16878666644992"><ele>152.0</ele><time>2026-04-04T12:48:28.997Z</time></trkpt><trkpt lat="40.051889888119184" lon="18.168715201550235"><ele>151.0</ele><time>2026-04-04T12:48:29.997Z</time></trkpt><trkpt lat="40.05214437621846" lon="18.16864532492345"><ele>151.0</ele><time>2026-04-04T12:48:30.997Z</time></trkpt><trkpt lat="40.05240509801827" lon="18.168576801195314"><ele>151.0</ele><time>2026-04-04T12:48:31.997Z</time></trkpt><trkpt lat="40.05265802744102" lon="18.1685189946907"><ele>149.0</ele><time>2026-04-04T12:48:32.997Z</time></trkpt><trkpt lat="40.052912906650484" lon="18.16847466744464"><ele>147.0</ele><time>2026-04-04T12:48:33.997Z</time></trkpt><trkpt lat="40.053173666194446" lon="18.16844873214159"><ele>144.5</ele><time>2026-04-04T12:48:34.997Z</time></trkpt><trkpt lat="40.05343479549513" lon="18.168442701414083"><ele>142.0</ele><time>2026-04-04T12:48:35.997Z</time></trkpt><trkpt lat="40.053698891934566" lon="18.168450348578244"><ele>142.0</ele><time>2026-04-04T12:48:36.997Z</time></trkpt><trkpt lat="40.05395841060743" lon="18.168460984601563"><ele>142.0</ele><time>2026-04-04T12:48:37.997Z</time></trkpt><trkpt lat="40.05421858959381" lon="18.168473627834203"><ele>139.5</ele><time>2026-04-04T12:48:38.997Z</time></trkpt><trkpt lat="40.05447362967618" lon="18.168481952713883"><ele>137.0</ele><time>2026-04-04T12:48:39.997Z</time></trkpt><trkpt lat="40.054732496495554" lon="18.168490916175767"><ele>135.5</ele><time>2026-04-04T12:48:40.997Z</time></trkpt><trkpt lat="40.054987401358936" lon="18.168499883314166"><ele>134.0</ele><time>2026-04-04T12:48:41.997Z</time></trkpt><trkpt lat="40.05524267785573" lon="18.168509242026605"><ele>134.0</ele><time>2026-04-04T12:48:42.997Z</time></trkpt><trkpt lat="40.05549758799734" lon="18.16852005161327"><ele>134.0</ele><time>2026-04-04T12:48:43.997Z</time></trkpt><trkpt lat="40.05575590424743" lon="18.16852923814667"><ele>132.0</ele><time>2026-04-04T12:48:44.997Z</time></trkpt><trkpt lat="40.05600977381268" lon="18.168528095679378"><ele>130.0</ele><time>2026-04-04T12:48:45.997Z</time></trkpt><trkpt lat="40.05626867764292" lon="18.16851071235823"><ele>130.0</ele><time>2026-04-04T12:48:46.997Z</time></trkpt><trkpt lat="40.05652457309688" lon="18.168483979423957"><ele>130.0</ele><time>2026-04-04T12:48:47.997Z</time></trkpt><trkpt lat="40.05677367517232" lon="18.168432197665226"><ele>129.0</ele><time>2026-04-04T12:48:48.997Z</time></trkpt><trkpt lat="40.05702129785105" lon="18.16837046316357"><ele>128.0</ele><time>2026-04-04T12:48:49.997Z</time></trkpt><trkpt lat="40.05726950111784" lon="18.168311291347084"><ele>127.5</ele><time>2026-04-04T12:48:50.997Z</time></trkpt><trkpt lat="40.05751524739511" lon="18.168243895018673"><ele>127.0</ele><time>2026-04-04T12:48:51.997Z</time></trkpt><trkpt lat="40.057758731661856" lon="18.16818461303724"><ele>128.0</ele><time>2026-04-04T12:48:52.997Z</time></trkpt><trkpt lat="40.05800036408172" lon="18.16812545492439"><ele>129.0</ele><time>2026-04-04T12:48:53.997Z</time></trkpt><trkpt lat="40.058242514791324" lon="18.168067128341978"><ele>128.0</ele><time>2026-04-04T12:48:54.997Z</time></trkpt><trkpt lat="40.058480420048106" lon="18.168011549103003"><ele>127.0</ele><time>2026-04-04T12:48:55.997Z</time></trkpt><trkpt lat="40.05872040018903" lon="18.167948782945906"><ele>127.0</ele><time>2026-04-04T12:48:56.997Z</time></trkpt><trkpt lat="40.05895968980574" lon="18.167885706150045"><ele>127.0</ele><time>2026-04-04T12:48:57.997Z</time></trkpt><trkpt lat="40.05919680471684" lon="18.16783162291105"><ele>126.5</ele><time>2026-04-04T12:48:58.997Z</time></trkpt><trkpt lat="40.05943302948442" lon="18.167770261892304"><ele>126.0</ele><time>2026-04-04T12:48:59.997Z</time></trkpt><trkpt lat="40.05967224499346" lon="18.1677044092016"><ele>126.0</ele><time>2026-04-04T12:49:00.997Z</time></trkpt><trkpt lat="40.05990789476136" lon="18.167635784543823"><ele>126.0</ele><time>2026-04-04T12:49:01.997Z</time></trkpt><trkpt lat="40.06014030582336" lon="18.167563754338566"><ele>125.5</ele><time>2026-04-04T12:49:02.997Z</time></trkpt><trkpt lat="40.06037485844547" lon="18.167491928019892"><ele>125.0</ele><time>2026-04-04T12:49:03.997Z</time></trkpt><trkpt lat="40.060608741251116" lon="18.167426262000873"><ele>126.5</ele><time>2026-04-04T12:49:04.997Z</time></trkpt><trkpt lat="40.06084242876075" lon="18.16736035088973"><ele>128.0</ele><time>2026-04-04T12:49:05.997Z</time></trkpt><trkpt lat="40.06107885163691" lon="18.16729324012496"><ele>128.0</ele><time>2026-04-04T12:49:06.997Z</time></trkpt><trkpt lat="40.06131528244293" lon="18.167220292096523"><ele>128.0</ele><time>2026-04-04T12:49:07.997Z</time></trkpt><trkpt lat="40.06154575154539" lon="18.167146930633468"><ele>127.66666666666666</ele><time>2026-04-04T12:49:08.997Z</time></trkpt><trkpt lat="40.06176770166745" lon="18.167088588274613"><ele>127.33333333333334</ele><time>2026-04-04T12:49:09.997Z</time></trkpt><trkpt lat="40.061975094277976" lon="18.167025614670106"><ele>127.0</ele><time>2026-04-04T12:49:10.997Z</time></trkpt><trkpt lat="40.06216832402594" lon="18.166934914234528"><ele>127.0</ele><time>2026-04-04T12:49:11.997Z</time></trkpt><trkpt lat="40.06235835545468" lon="18.166829346971472"><ele>127.0</ele><time>2026-04-04T12:49:12.997Z</time></trkpt><trkpt lat="40.062545900297316" lon="18.16670354567787"><ele>127.0</ele><time>2026-04-04T12:49:13.997Z</time></trkpt><trkpt lat="40.06274042377963" lon="18.16656124244412"><ele>126.66666666666667</ele><time>2026-04-04T12:49:14.997Z</time></trkpt><trkpt lat="40.062953805653045" lon="18.166364086754317"><ele>126.33333333333334</ele><time>2026-04-04T12:49:15.997Z</time></trkpt><trkpt lat="40.06305756188486" lon="18.166259836029866"><ele>126.0</ele><time>2026-04-04T12:49:16.996Z</time></trkpt><trkpt lat="40.06321755182076" lon="18.1660776826241"><ele>125.33333333333334</ele><time>2026-04-04T12:49:17.996Z</time></trkpt><trkpt lat="40.06337680187438" lon="18.165895670757276"><ele>124.66666666666667</ele><time>2026-04-04T12:49:18.996Z</time></trkpt><trkpt lat="40.06354056403821" lon="18.1657220476572"><ele>124.0</ele><time>2026-04-04T12:49:19.996Z</time></trkpt><trkpt lat="40.06370909234986" lon="18.16556949912423"><ele>124.0</ele><time>2026-04-04T12:49:20.996Z</time></trkpt><trkpt lat="40.06388732052548" lon="18.16543496673102"><ele>124.0</ele><time>2026-04-04T12:49:21.996Z</time></trkpt><trkpt lat="40.06406842511886" lon="18.165318299651158"><ele>124.0</ele><time>2026-04-04T12:49:22.996Z</time></trkpt><trkpt lat="40.06423858171782" lon="18.165226670560912"><ele>124.0</ele><time>2026-04-04T12:49:23.996Z</time></trkpt><trkpt lat="40.06441259202173" lon="18.165154844186954"><ele>124.0</ele><time>2026-04-04T12:49:24.996Z</time></trkpt><trkpt lat="40.064595515775224" lon="18.16509855265163"><ele>124.0</ele><time>2026-04-04T12:49:25.996Z</time></trkpt><trkpt lat="40.06478240919164" lon="18.16506218340185"><ele>124.0</ele><time>2026-04-04T12:49:26.996Z</time></trkpt><trkpt lat="40.0649712958001" lon="18.165043450103504"><ele>124.0</ele><time>2026-04-04T12:49:27.996Z</time></trkpt><trkpt lat="40.065155748653204" lon="18.165045986714365"><ele>124.0</ele><time>2026-04-04T12:49:28.996Z</time></trkpt><trkpt lat="40.06533651015955" lon="18.16506102024875"><ele>124.0</ele><time>2026-04-04T12:49:29.996Z</time></trkpt><trkpt lat="40.06551728121625" lon="18.165105010757102"><ele>124.0</ele><time>2026-04-04T12:49:30.996Z</time></trkpt><trkpt lat="40.06569956031666" lon="18.16512428500601"><ele>124.0</ele><time>2026-04-04T12:49:31.996Z</time></trkpt><trkpt lat="40.06587971511141" lon="18.165104128287627"><ele>123.66666666666667</ele><time>2026-04-04T12:49:32.996Z</time></trkpt><trkpt lat="40.066060752586054" lon="18.165040522497293"><ele>123.33333333333334</ele><time>2026-04-04T12:49:33.996Z</time></trkpt><trkpt lat="40.06624181581039" lon="18.16496700390825"><ele>123.0</ele><time>2026-04-04T12:49:34.996Z</time></trkpt><trkpt lat="40.06642423740016" lon="18.164897597758912"><ele>123.0</ele><time>2026-04-04T12:49:35.996Z</time></trkpt><trkpt lat="40.06659190558307" lon="18.164832688018677"><ele>123.0</ele><time>2026-04-04T12:49:36.996Z</time></trkpt><trkpt lat="40.066735016718226" lon="18.164764223842504"><ele>123.0</ele><time>2026-04-04T12:49:37.996Z</time></trkpt><trkpt lat="40.06684279371094" lon="18.164711177469687"><ele>123.0</ele><time>2026-04-04T12:49:38.996Z</time></trkpt><trkpt lat="40.06692810368817" lon="18.16466930228304"><ele>123.0</ele><time>2026-04-04T12:49:39.996Z</time></trkpt><trkpt lat="40.066996021484975" lon="18.164597423524523"><ele>123.0</ele><time>2026-04-04T12:49:43.996Z</time></trkpt><trkpt lat="40.06705536681467" lon="18.164553567223916"><ele>123.0</ele><time>2026-04-04T12:49:44.996Z</time></trkpt><trkpt lat="40.06713152100077" lon="18.164503062158687"><ele>123.0</ele><time>2026-04-04T12:49:45.996Z</time></trkpt><trkpt lat="40.067210500461286" lon="18.164445175134528"><ele>123.0</ele><time>2026-04-04T12:49:46.996Z</time></trkpt><trkpt lat="40.067307637812256" lon="18.164387149727617"><ele>123.0</ele><time>2026-04-04T12:49:47.996Z</time></trkpt><trkpt lat="40.06741190180099" lon="18.164319177485837"><ele>123.0</ele><time>2026-04-04T12:49:48.996Z</time></trkpt><trkpt lat="40.067537871895254" lon="18.164238606378785"><ele>123.0</ele><time>2026-04-04T12:49:49.996Z</time></trkpt><trkpt lat="40.06767812703473" lon="18.16416012287426"><ele>123.0</ele><time>2026-04-04T12:49:50.996Z</time></trkpt><trkpt lat="40.06783266837167" lon="18.164072105840958"><ele>123.0</ele><time>2026-04-04T12:49:51.996Z</time></trkpt><trkpt lat="40.06799249728542" lon="18.163978481645103"><ele>123.0</ele><time>2026-04-04T12:49:52.996Z</time></trkpt><trkpt lat="40.06816046864372" lon="18.163893166384252"><ele>123.0</ele><time>2026-04-04T12:49:53.996Z</time></trkpt><trkpt lat="40.06831229316377" lon="18.163818035593323"><ele>123.0</ele><time>2026-04-04T12:49:54.996Z</time></trkpt><trkpt lat="40.0684434053454" lon="18.163762291142344"><ele>123.00000000000001</ele><time>2026-04-04T12:49:55.996Z</time></trkpt><trkpt lat="40.068557079241145" lon="18.163717529508144"><ele>123.00000000000001</ele><time>2026-04-04T12:49:56.996Z</time></trkpt><trkpt lat="40.068655892779525" lon="18.16367124481323"><ele>123.0</ele><time>2026-04-04T12:49:57.996Z</time></trkpt><trkpt lat="40.068735156324614" lon="18.163625761494423"><ele>123.0</ele><time>2026-04-04T12:49:58.996Z</time></trkpt><trkpt lat="40.068806483816054" lon="18.16358979592644"><ele>123.0</ele><time>2026-04-04T12:50:00.996Z</time></trkpt><trkpt lat="40.068861887948124" lon="18.163630669200504"><ele>123.00000000000001</ele><time>2026-04-04T12:50:04.996Z</time></trkpt><trkpt lat="40.06891389108371" lon="18.16374287135745"><ele>123.00000000000001</ele><time>2026-04-04T12:50:05.996Z</time></trkpt><trkpt lat="40.06897034307822" lon="18.163863539011285"><ele>123.0</ele><time>2026-04-04T12:50:06.996Z</time></trkpt><trkpt lat="40.06903276226961" lon="18.163982811131984"><ele>123.0</ele><time>2026-04-04T12:50:07.996Z</time></trkpt><trkpt lat="40.06910870428064" lon="18.164119411535307"><ele>122.83333333333333</ele><time>2026-04-04T12:50:08.996Z</time></trkpt><trkpt lat="40.06918238678077" lon="18.16425846750105"><ele>122.66666666666666</ele><time>2026-04-04T12:50:09.996Z</time></trkpt><trkpt lat="40.06923521951626" lon="18.16437797539479"><ele>122.5</ele><time>2026-04-04T12:50:10.996Z</time></trkpt><trkpt lat="40.06927757521762" lon="18.164448376747593"><ele>122.33333333333333</ele><time>2026-04-04T12:50:11.996Z</time></trkpt><trkpt lat="40.06932740790579" lon="18.164511162843368"><ele>122.16666666666666</ele><time>2026-04-04T12:50:13.996Z</time></trkpt><trkpt lat="40.06939033367858" lon="18.16448769537783"><ele>122.0</ele><time>2026-04-04T12:50:15.996Z</time></trkpt><trkpt lat="40.06945866598358" lon="18.16442329896307"><ele>122.0</ele><time>2026-04-04T12:50:16.996Z</time></trkpt><trkpt lat="40.069539940520386" lon="18.164336686360016"><ele>122.0</ele><time>2026-04-04T12:50:17.996Z</time></trkpt><trkpt lat="40.06962949202282" lon="18.164255265425876"><ele>122.0</ele><time>2026-04-04T12:50:18.996Z</time></trkpt><trkpt lat="40.06972559026783" lon="18.164159309337432"><ele>122.0</ele><time>2026-04-04T12:50:19.996Z</time></trkpt><trkpt lat="40.06984009846289" lon="18.164042114906863"><ele>121.75</ele><time>2026-04-04T12:50:20.996Z</time></trkpt><trkpt lat="40.06996543431869" lon="18.163928275212193"><ele>121.5</ele><time>2026-04-04T12:50:21.996Z</time></trkpt><trkpt lat="40.070077525163356" lon="18.163828099552326"><ele>121.25</ele><time>2026-04-04T12:50:22.996Z</time></trkpt><trkpt lat="40.07016405925402" lon="18.1637446097165"><ele>121.0</ele><time>2026-04-04T12:50:23.996Z</time></trkpt><trkpt lat="40.070247358946155" lon="18.16367729858489"><ele>121.0</ele><time>2026-04-04T12:50:24.996Z</time></trkpt><trkpt lat="40.07032255340366" lon="18.163606182557366"><ele>121.0</ele><time>2026-04-04T12:50:25.996Z</time></trkpt><trkpt lat="40.07040144452263" lon="18.163524126817446"><ele>121.0</ele><time>2026-04-04T12:50:26.996Z</time></trkpt><trkpt lat="40.07048164015393" lon="18.1634436253017"><ele>121.0</ele><time>2026-04-04T12:50:27.996Z</time></trkpt><trkpt lat="40.070557276224704" lon="18.163373270956512"><ele>121.0</ele><time>2026-04-04T12:50:28.996Z</time></trkpt><trkpt lat="40.07062854801488" lon="18.163311746545343"><ele>121.0</ele><time>2026-04-04T12:50:29.996Z</time></trkpt><trkpt lat="40.070712546871334" lon="18.163217897835064"><ele>121.0</ele><time>2026-04-04T12:50:31.996Z</time></trkpt><trkpt lat="40.07081719373825" lon="18.163118145677362"><ele>121.0</ele><time>2026-04-04T12:50:33.996Z</time></trkpt><trkpt lat="40.07087000514989" lon="18.163064856575925"><ele>121.0</ele><time>2026-04-04T12:50:34.996Z</time></trkpt><trkpt lat="40.070942742433736" lon="18.162996359996626"><ele>121.0</ele><time>2026-04-04T12:50:36.996Z</time></trkpt><trkpt lat="40.07103792570202" lon="18.162893282056068"><ele>121.0</ele><time>2026-04-04T12:50:39.996Z</time></trkpt><trkpt lat="40.07111660671391" lon="18.162803618102807"><ele>121.0</ele><time>2026-04-04T12:50:40.996Z</time></trkpt><trkpt lat="40.07120696079741" lon="18.162711060211223"><ele>121.0</ele><time>2026-04-04T12:50:41.996Z</time></trkpt><trkpt lat="40.071311229599374" lon="18.16260590454007"><ele>121.0</ele><time>2026-04-04T12:50:42.996Z</time></trkpt><trkpt lat="40.07140276833888" lon="18.162526302596696"><ele>121.0</ele><time>2026-04-04T12:50:43.996Z</time></trkpt><trkpt lat="40.07146243495738" lon="18.16247957806099"><ele>121.0</ele><time>2026-04-04T12:50:44.996Z</time></trkpt><trkpt lat="40.0715183255624" lon="18.16243032298108"><ele>121.0</ele><time>2026-04-04T12:50:48.996Z</time></trkpt><trkpt lat="40.07163076241089" lon="18.16233363670634"><ele>121.0</ele><time>2026-04-04T12:50:50.996Z</time></trkpt><trkpt lat="40.07170577410922" lon="18.162270278841625"><ele>121.0</ele><time>2026-04-04T12:50:51.996Z</time></trkpt><trkpt lat="40.07178090388684" lon="18.162199092362783"><ele>121.0</ele><time>2026-04-04T12:50:52.996Z</time></trkpt><trkpt lat="40.07185909279185" lon="18.162126308815214"><ele>121.0</ele><time>2026-04-04T12:50:53.996Z</time></trkpt><trkpt lat="40.07191605698848" lon="18.162069586354104"><ele>121.0</ele><time>2026-04-04T12:50:54.996Z</time></trkpt><trkpt lat="40.07197255403323" lon="18.162022924718457"><ele>121.0</ele><time>2026-04-04T12:50:56.996Z</time></trkpt><trkpt lat="40.07198124867492" lon="18.16191681547215"><ele>121.0</ele><time>2026-04-04T12:51:01.996Z</time></trkpt><trkpt lat="40.0719002966229" lon="18.161769295558713"><ele>121.0</ele><time>2026-04-04T12:51:03.996Z</time></trkpt><trkpt lat="40.07180848173305" lon="18.161634424044067"><ele>121.0</ele><time>2026-04-04T12:51:04.996Z</time></trkpt><trkpt lat="40.071721138772276" lon="18.161502722004673"><ele>121.0</ele><time>2026-04-04T12:51:05.996Z</time></trkpt><trkpt lat="40.07165478349706" lon="18.161389609413725"><ele>121.0</ele><time>2026-04-04T12:51:06.996Z</time></trkpt><trkpt lat="40.07160836001693" lon="18.161310785513905"><ele>121.14285714285714</ele><time>2026-04-04T12:51:07.996Z</time></trkpt><trkpt lat="40.07157042724637" lon="18.161243149748692"><ele>121.28571428571428</ele><time>2026-04-04T12:51:18.996Z</time></trkpt><trkpt lat="40.07152477942802" lon="18.161175226250883"><ele>121.42857142857142</ele><time>2026-04-04T13:00:39.992Z</time></trkpt><trkpt lat="40.071485603498914" lon="18.16109550800127"><ele>121.57142857142856</ele><time>2026-04-04T13:00:42.992Z</time></trkpt><trkpt lat="40.071432578151814" lon="18.16101177000561"><ele>121.71428571428571</ele><time>2026-04-04T13:00:45.992Z</time></trkpt><trkpt lat="40.07139214161392" lon="18.160935956421497"><ele>121.85714285714283</ele><time>2026-04-04T13:00:48.992Z</time></trkpt><trkpt lat="40.07134668421235" lon="18.16085644195993"><ele>121.99999999999999</ele><time>2026-04-04T13:00:53.992Z</time></trkpt><trkpt lat="40.071275222651884" lon="18.16073728667062"><ele>121.99999999999999</ele><time>2026-04-04T13:00:55.992Z</time></trkpt><trkpt lat="40.071231137069425" lon="18.160660410084745"><ele>122.0</ele><time>2026-04-04T13:00:56.992Z</time></trkpt><trkpt lat="40.07118279974182" lon="18.16057291071251"><ele>122.0</ele><time>2026-04-04T13:00:57.992Z</time></trkpt><trkpt lat="40.071127808201325" lon="18.160478632882192"><ele>122.0</ele><time>2026-04-04T13:00:58.992Z</time></trkpt><trkpt lat="40.07108070344904" lon="18.160383825335284"><ele>121.99999999999999</ele><time>2026-04-04T13:00:59.992Z</time></trkpt><trkpt lat="40.071037914162" lon="18.160311093202054"><ele>122.0</ele><time>2026-04-04T13:01:00.992Z</time></trkpt><trkpt lat="40.070973256327484" lon="18.160229650381496"><ele>122.0</ele><time>2026-04-04T13:01:02.992Z</time></trkpt><trkpt lat="40.0709490307499" lon="18.160130395991676"><ele>121.99999999999999</ele><time>2026-04-04T13:01:06.992Z</time></trkpt><trkpt lat="40.07104326299708" lon="18.16003450988725"><ele>121.99999999999999</ele><time>2026-04-04T13:01:08.992Z</time></trkpt><trkpt lat="40.071109178433304" lon="18.159957903121082"><ele>122.0</ele><time>2026-04-04T13:01:09.992Z</time></trkpt><trkpt lat="40.07118124161735" lon="18.15990570000292"><ele>122.0</ele><time>2026-04-04T13:01:10.992Z</time></trkpt><trkpt lat="40.0712472418393" lon="18.159839674527102"><ele>121.99999999999999</ele><time>2026-04-04T13:01:11.992Z</time></trkpt><trkpt lat="40.071304167933974" lon="18.159757127339233"><ele>122.0</ele><time>2026-04-04T13:01:12.992Z</time></trkpt><trkpt lat="40.07137257549227" lon="18.15970276206445"><ele>122.0</ele><time>2026-04-04T13:01:13.992Z</time></trkpt><trkpt lat="40.07142588975054" lon="18.159647528749588"><ele>122.0</ele><time>2026-04-04T13:01:14.992Z</time></trkpt><trkpt lat="40.071478162253285" lon="18.159581916043486"><ele>121.99999999999999</ele><time>2026-04-04T13:01:15.992Z</time></trkpt><trkpt lat="40.07154684032825" lon="18.159503311180387"><ele>122.0</ele><time>2026-04-04T13:01:17.992Z</time></trkpt><trkpt lat="40.07160905792548" lon="18.1594703309271"><ele>121.66666666666666</ele><time>2026-04-04T13:01:20.992Z</time></trkpt><trkpt lat="40.07166213612214" lon="18.159520761394734"><ele>121.33333333333333</ele><time>2026-04-04T13:01:22.992Z</time></trkpt><trkpt lat="40.071713950068826" lon="18.15958308251887"><ele>121.0</ele><time>2026-04-04T13:01:23.992Z</time></trkpt><trkpt lat="40.071768981468786" lon="18.159649301960002"><ele>120.66666666666666</ele><time>2026-04-04T13:01:24.991Z</time></trkpt><trkpt lat="40.07182230560321" lon="18.159718190119037"><ele>120.33333333333333</ele><time>2026-04-04T13:01:25.991Z</time></trkpt><trkpt lat="40.07188496217083" lon="18.15978939201279"><ele>120.0</ele><time>2026-04-04T13:01:26.991Z</time></trkpt><trkpt lat="40.07195085815732" lon="18.159871104004097"><ele>120.0</ele><time>2026-04-04T13:01:27.991Z</time></trkpt><trkpt lat="40.072015108471305" lon="18.159965075783962"><ele>120.0</ele><time>2026-04-04T13:01:28.991Z</time></trkpt><trkpt lat="40.07208313600825" lon="18.160037170291428"><ele>120.0</ele><time>2026-04-04T13:01:29.991Z</time></trkpt><trkpt lat="40.07213651970473" lon="18.160099972072345"><ele>120.0</ele><time>2026-04-04T13:01:30.991Z</time></trkpt><trkpt lat="40.072187298139035" lon="18.160150401660555"><ele>120.0</ele><time>2026-04-04T13:01:31.991Z</time></trkpt><trkpt lat="40.072259229693984" lon="18.16026409201403"><ele>120.0</ele><time>2026-04-04T13:01:33.991Z</time></trkpt><trkpt lat="40.07229703982856" lon="18.16041351881698"><ele>120.0</ele><time>2026-04-04T13:01:35.991Z</time></trkpt><trkpt lat="40.07233691869627" lon="18.160554301559735"><ele>120.0</ele><time>2026-04-04T13:01:37.991Z</time></trkpt><trkpt lat="40.0723762489083" lon="18.160625551026232"><ele>120.0</ele><time>2026-04-04T13:01:39.997Z</time></trkpt><trkpt lat="40.07246031273322" lon="18.16064590030842"><ele>120.0</ele><time>2026-04-04T13:01:42.997Z</time></trkpt><trkpt lat="40.072523865587065" lon="18.16060851587384"><ele>120.0</ele><time>2026-04-04T13:01:43.997Z</time></trkpt><trkpt lat="40.07258347128193" lon="18.16057159536191"><ele>120.0</ele><time>2026-04-04T13:01:44.997Z</time></trkpt><trkpt lat="40.07269287986023" lon="18.160526930874166"><ele>119.83333333333333</ele><time>2026-04-04T13:01:46.997Z</time></trkpt><trkpt lat="40.07277564648589" lon="18.160487142941168"><ele>119.66666666666666</ele><time>2026-04-04T13:01:48.997Z</time></trkpt><trkpt lat="40.07285371736361" lon="18.160486144169646"><ele>119.5</ele><time>2026-04-04T13:01:50.997Z</time></trkpt><trkpt lat="40.072911643063655" lon="18.16045361734647"><ele>119.33333333333333</ele><time>2026-04-04T13:01:52.997Z</time></trkpt><trkpt lat="40.07298703462043" lon="18.1605107723121"><ele>119.16666666666666</ele><time>2026-04-04T13:01:54.997Z</time></trkpt><trkpt lat="40.07304193732769" lon="18.16056237372168"><ele>119.0</ele><time>2026-04-04T13:01:55.997Z</time></trkpt><trkpt lat="40.07310819473614" lon="18.160617250984302"><ele>118.99999999999999</ele><time>2026-04-04T13:01:56.997Z</time></trkpt><trkpt lat="40.07317422538362" lon="18.1606836448679"><ele>119.0</ele><time>2026-04-04T13:01:57.997Z</time></trkpt><trkpt lat="40.073235508681734" lon="18.160776633757973"><ele>119.0</ele><time>2026-04-04T13:01:58.997Z</time></trkpt><trkpt lat="40.07329870553307" lon="18.160856899978373"><ele>119.0</ele><time>2026-04-04T13:01:59.997Z</time></trkpt><trkpt lat="40.07336015563476" lon="18.16090697541186"><ele>118.99999999999999</ele><time>2026-04-04T13:02:00.997Z</time></trkpt><trkpt lat="40.073426064474134" lon="18.160998510741884"><ele>119.0</ele><time>2026-04-04T13:02:02.997Z</time></trkpt><trkpt lat="40.0734940206628" lon="18.161094830254193"><ele>119.2</ele><time>2026-04-04T13:02:04.997Z</time></trkpt><trkpt lat="40.07354486814152" lon="18.161168859901075"><ele>119.4</ele><time>2026-04-04T13:02:05.997Z</time></trkpt><trkpt lat="40.07361327059744" lon="18.161257917755282"><ele>119.6</ele><time>2026-04-04T13:02:06.997Z</time></trkpt><trkpt lat="40.073685417678156" lon="18.161352524422163"><ele>119.8</ele><time>2026-04-04T13:02:07.997Z</time></trkpt><trkpt lat="40.073769733880006" lon="18.16145185835879"><ele>120.0</ele><time>2026-04-04T13:02:08.997Z</time></trkpt><trkpt lat="40.073848029937054" lon="18.161559087236473"><ele>120.0</ele><time>2026-04-04T13:02:09.997Z</time></trkpt><trkpt lat="40.07392282594822" lon="18.161642124636945"><ele>120.0</ele><time>2026-04-04T13:02:10.997Z</time></trkpt><trkpt lat="40.07398482082584" lon="18.16170679319546"><ele>120.0</ele><time>2026-04-04T13:02:11.997Z</time></trkpt><trkpt lat="40.07404850079184" lon="18.16176287934752"><ele>120.0</ele><time>2026-04-04T13:02:12.997Z</time></trkpt><trkpt lat="40.07410642964057" lon="18.161819914775272"><ele>120.0</ele><time>2026-04-04T13:02:13.997Z</time></trkpt><trkpt lat="40.07416655697199" lon="18.161883004892015"><ele>120.0</ele><time>2026-04-04T13:02:14.997Z</time></trkpt><trkpt lat="40.07424188388204" lon="18.16195906406532"><ele>120.0</ele><time>2026-04-04T13:02:15.997Z</time></trkpt><trkpt lat="40.074315393714144" lon="18.16204734826899"><ele>120.0</ele><time>2026-04-04T13:02:16.997Z</time></trkpt><trkpt lat="40.07439559306903" lon="18.162130045803487"><ele>120.0</ele><time>2026-04-04T13:02:17.997Z</time></trkpt><trkpt lat="40.07447686169529" lon="18.162208854899013"><ele>120.0</ele><time>2026-04-04T13:02:18.997Z</time></trkpt><trkpt lat="40.07454866232373" lon="18.16228056998473"><ele>120.0</ele><time>2026-04-04T13:02:19.997Z</time></trkpt><trkpt lat="40.07461421269618" lon="18.16235051551316"><ele>120.0</ele><time>2026-04-04T13:02:20.997Z</time></trkpt><trkpt lat="40.074678319777064" lon="18.16241585759351"><ele>120.0</ele><time>2026-04-04T13:02:21.997Z</time></trkpt><trkpt lat="40.07474132205693" lon="18.16247274442547"><ele>120.0</ele><time>2026-04-04T13:02:22.997Z</time></trkpt><trkpt lat="40.07480731076811" lon="18.162535775125303"><ele>120.0</ele><time>2026-04-04T13:02:23.997Z</time></trkpt><trkpt lat="40.07487307786252" lon="18.162596002331842"><ele>120.0</ele><time>2026-04-04T13:02:24.997Z</time></trkpt><trkpt lat="40.07493266708379" lon="18.1626584334042"><ele>120.0</ele><time>2026-04-04T13:02:25.997Z</time></trkpt><trkpt lat="40.0749961556949" lon="18.162725170190445"><ele>119.5</ele><time>2026-04-04T13:02:26.997Z</time></trkpt><trkpt lat="40.07505544997063" lon="18.16278814490214"><ele>119.0</ele><time>2026-04-04T13:02:27.997Z</time></trkpt><trkpt lat="40.07512114814532" lon="18.162848096260646"><ele>118.5</ele><time>2026-04-04T13:02:28.997Z</time></trkpt><trkpt lat="40.07517205402351" lon="18.162901241870795"><ele>118.0</ele><time>2026-04-04T13:02:29.997Z</time></trkpt><trkpt lat="40.07527956356133" lon="18.162998175758506"><ele>117.5</ele><time>2026-04-04T13:02:31.997Z</time></trkpt><trkpt lat="40.07535086391717" lon="18.1629899861402"><ele>117.0</ele><time>2026-04-04T13:02:32.997Z</time></trkpt><trkpt lat="40.075441522181954" lon="18.162986447270658"><ele>117.0</ele><time>2026-04-04T13:02:33.996Z</time></trkpt><trkpt lat="40.07555485179314" lon="18.162983271345997"><ele>117.0</ele><time>2026-04-04T13:02:34.996Z</time></trkpt><trkpt lat="40.07567187814259" lon="18.162990155136185"><ele>117.0</ele><time>2026-04-04T13:02:35.996Z</time></trkpt><trkpt lat="40.075784232611795" lon="18.162995525101024"><ele>117.0</ele><time>2026-04-04T13:02:36.996Z</time></trkpt><trkpt lat="40.07590604498345" lon="18.1629955964664"><ele>116.0</ele><time>2026-04-04T13:02:37.996Z</time></trkpt><trkpt lat="40.07603681119085" lon="18.16299690533482"><ele>115.0</ele><time>2026-04-04T13:02:38.996Z</time></trkpt><trkpt lat="40.076171197726815" lon="18.162998888849184"><ele>114.0</ele><time>2026-04-04T13:02:39.996Z</time></trkpt><trkpt lat="40.07630365594326" lon="18.16300121490613"><ele>113.0</ele><time>2026-04-04T13:02:40.996Z</time></trkpt><trkpt lat="40.07644183426876" lon="18.163003716228303"><ele>113.0</ele><time>2026-04-04T13:02:41.996Z</time></trkpt><trkpt lat="40.0765808296541" lon="18.163010363974646"><ele>113.0</ele><time>2026-04-04T13:02:42.996Z</time></trkpt><trkpt lat="40.07672155202487" lon="18.163029363068635"><ele>113.0</ele><time>2026-04-04T13:02:43.996Z</time></trkpt><trkpt lat="40.07687284591136" lon="18.163044727880877"><ele>113.0</ele><time>2026-04-04T13:02:44.996Z</time></trkpt><trkpt lat="40.07702376111279" lon="18.163050904239398"><ele>111.66666666666666</ele><time>2026-04-04T13:02:45.996Z</time></trkpt><trkpt lat="40.077176452161645" lon="18.163055717106648"><ele>110.33333333333334</ele><time>2026-04-04T13:02:46.996Z</time></trkpt><trkpt lat="40.07733351286139" lon="18.163063672983878"><ele>109.0</ele><time>2026-04-04T13:02:47.996Z</time></trkpt><trkpt lat="40.07750082727292" lon="18.163072537003266"><ele>109.0</ele><time>2026-04-04T13:02:48.996Z</time></trkpt><trkpt lat="40.077661955127645" lon="18.16308517309856"><ele>109.0</ele><time>2026-04-04T13:02:49.996Z</time></trkpt><trkpt lat="40.07782102782975" lon="18.163104194419354"><ele>109.0</ele><time>2026-04-04T13:02:50.996Z</time></trkpt><trkpt lat="40.077980575003345" lon="18.16311008361163"><ele>109.0</ele><time>2026-04-04T13:02:51.996Z</time></trkpt><trkpt lat="40.078145135615394" lon="18.163111546545792"><ele>109.0</ele><time>2026-04-04T13:02:52.996Z</time></trkpt><trkpt lat="40.078305545834624" lon="18.163114161474912"><ele>109.0</ele><time>2026-04-04T13:02:53.996Z</time></trkpt><trkpt lat="40.07847087250706" lon="18.163116854864246"><ele>109.33333333333334</ele><time>2026-04-04T13:02:54.996Z</time></trkpt><trkpt lat="40.07863869331026" lon="18.163121833434495"><ele>109.66666666666666</ele><time>2026-04-04T13:02:55.996Z</time></trkpt><trkpt lat="40.078812049103966" lon="18.163130221931205"><ele>110.0</ele><time>2026-04-04T13:02:56.996Z</time></trkpt><trkpt lat="40.07898875971593" lon="18.163129728502987"><ele>110.33333333333333</ele><time>2026-04-04T13:02:57.996Z</time></trkpt><trkpt lat="40.07916248451513" lon="18.16313100112926"><ele>110.66666666666666</ele><time>2026-04-04T13:02:58.996Z</time></trkpt><trkpt lat="40.0793432772092" lon="18.163135842955995"><ele>111.0</ele><time>2026-04-04T13:02:59.996Z</time></trkpt><trkpt lat="40.07952926128966" lon="18.163151406984507"><ele>111.0</ele><time>2026-04-04T13:03:00.996Z</time></trkpt><trkpt lat="40.079710312531454" lon="18.163158514859465"><ele>111.0</ele><time>2026-04-04T13:03:01.996Z</time></trkpt><trkpt lat="40.079890086950535" lon="18.163178192504503"><ele>111.0</ele><time>2026-04-04T13:03:02.996Z</time></trkpt><trkpt lat="40.080068879649666" lon="18.163191564846695"><ele>111.33333333333334</ele><time>2026-04-04T13:03:03.996Z</time></trkpt><trkpt lat="40.08025696532875" lon="18.163193190669404"><ele>111.66666666666667</ele><time>2026-04-04T13:03:04.996Z</time></trkpt><trkpt lat="40.08044212148795" lon="18.163248039537635"><ele>112.0</ele><time>2026-04-04T13:03:05.996Z</time></trkpt><trkpt lat="40.08063221111785" lon="18.16325687974352"><ele>113.33333333333334</ele><time>2026-04-04T13:03:06.996Z</time></trkpt><trkpt lat="40.0808204043297" lon="18.163271224352055"><ele>114.66666666666666</ele><time>2026-04-04T13:03:07.996Z</time></trkpt><trkpt lat="40.08100909845378" lon="18.16328337376385"><ele>116.0</ele><time>2026-04-04T13:03:08.996Z</time></trkpt><trkpt lat="40.08119660204381" lon="18.163293653833644"><ele>116.0</ele><time>2026-04-04T13:03:09.996Z</time></trkpt><trkpt lat="40.08138379363229" lon="18.16329920590331"><ele>116.0</ele><time>2026-04-04T13:03:10.996Z</time></trkpt><trkpt lat="40.08157499461602" lon="18.16330906337031"><ele>116.0</ele><time>2026-04-04T13:03:11.996Z</time></trkpt><trkpt lat="40.0817592314882" lon="18.163314009139693"><ele>116.0</ele><time>2026-04-04T13:03:12.996Z</time></trkpt><trkpt lat="40.081941734084616" lon="18.16332640746942"><ele>116.0</ele><time>2026-04-04T13:03:13.996Z</time></trkpt><trkpt lat="40.082123884785354" lon="18.163341482568317"><ele>116.0</ele><time>2026-04-04T13:03:14.996Z</time></trkpt><trkpt lat="40.08230364134466" lon="18.163357133828022"><ele>115.33333333333333</ele><time>2026-04-04T13:03:15.996Z</time></trkpt><trkpt lat="40.08248162164441" lon="18.163368705264872"><ele>114.66666666666666</ele><time>2026-04-04T13:03:16.996Z</time></trkpt><trkpt lat="40.08266097590599" lon="18.16337754628683"><ele>114.0</ele><time>2026-04-04T13:03:17.996Z</time></trkpt><trkpt lat="40.08284063192306" lon="18.163390286665056"><ele>114.0</ele><time>2026-04-04T13:03:18.996Z</time></trkpt><trkpt lat="40.08302278361017" lon="18.163396907652377"><ele>114.0</ele><time>2026-04-04T13:03:19.996Z</time></trkpt><trkpt lat="40.08320307769958" lon="18.16340836657052"><ele>114.0</ele><time>2026-04-04T13:03:20.996Z</time></trkpt><trkpt lat="40.083386598407294" lon="18.163420875141643"><ele>113.66666666666666</ele><time>2026-04-04T13:03:21.996Z</time></trkpt><trkpt lat="40.083572875231496" lon="18.16343301641886"><ele>113.33333333333333</ele><time>2026-04-04T13:03:22.996Z</time></trkpt><trkpt lat="40.083754874310664" lon="18.163444803055608"><ele>113.0</ele><time>2026-04-04T13:03:23.996Z</time></trkpt><trkpt lat="40.08394022410382" lon="18.163458202819122"><ele>112.66666666666666</ele><time>2026-04-04T13:03:24.996Z</time></trkpt><trkpt lat="40.0841257844432" lon="18.16346506363742"><ele>112.33333333333334</ele><time>2026-04-04T13:03:25.996Z</time></trkpt><trkpt lat="40.08430968135001" lon="18.163480314990128"><ele>112.0</ele><time>2026-04-04T13:03:26.996Z</time></trkpt><trkpt lat="40.08449443503735" lon="18.1634947462029"><ele>112.0</ele><time>2026-04-04T13:03:27.996Z</time></trkpt><trkpt lat="40.084681685038795" lon="18.163510543114704"><ele>112.0</ele><time>2026-04-04T13:03:28.996Z</time></trkpt><trkpt lat="40.08485960289255" lon="18.163518172191523"><ele>112.0</ele><time>2026-04-04T13:03:29.996Z</time></trkpt><trkpt lat="40.085023051535735" lon="18.16352205312804"><ele>112.25</ele><time>2026-04-04T13:03:30.996Z</time></trkpt><trkpt lat="40.08516665355194" lon="18.163534887024277"><ele>112.5</ele><time>2026-04-04T13:03:31.996Z</time></trkpt><trkpt lat="40.08530832317345" lon="18.163550680899"><ele>112.75</ele><time>2026-04-04T13:03:32.996Z</time></trkpt><trkpt lat="40.08544999104287" lon="18.16355939646173"><ele>113.0</ele><time>2026-04-04T13:03:33.996Z</time></trkpt><trkpt lat="40.08557372888934" lon="18.163567726817174"><ele>113.0</ele><time>2026-04-04T13:03:34.996Z</time></trkpt><trkpt lat="40.08568344215991" lon="18.163556366589123"><ele>113.00000000000001</ele><time>2026-04-04T13:03:35.996Z</time></trkpt><trkpt lat="40.08576011653126" lon="18.163539941286032"><ele>113.00000000000001</ele><time>2026-04-04T13:03:36.996Z</time></trkpt><trkpt lat="40.08588031454329" lon="18.16351580925778"><ele>113.0</ele><time>2026-04-04T13:03:38.996Z</time></trkpt><trkpt lat="40.085951081285394" lon="18.163535376886795"><ele>113.0</ele><time>2026-04-04T13:03:39.996Z</time></trkpt><trkpt lat="40.08602784248957" lon="18.163552874879937"><ele>112.66666666666666</ele><time>2026-04-04T13:03:40.996Z</time></trkpt><trkpt lat="40.08611261021856" lon="18.163548006683254"><ele>112.33333333333333</ele><time>2026-04-04T13:03:41.996Z</time></trkpt><trkpt lat="40.086193895726076" lon="18.163519059547404"><ele>112.0</ele><time>2026-04-04T13:03:42.996Z</time></trkpt><trkpt lat="40.086273161961586" lon="18.163497378867433"><ele>111.66666666666666</ele><time>2026-04-04T13:03:43.996Z</time></trkpt><trkpt lat="40.086344959163746" lon="18.163502326273104"><ele>111.33333333333333</ele><time>2026-04-04T13:03:44.996Z</time></trkpt><trkpt lat="40.08643024423939" lon="18.16353884584092"><ele>111.0</ele><time>2026-04-04T13:03:45.996Z</time></trkpt><trkpt lat="40.0865102978938" lon="18.16358099421395"><ele>111.0</ele><time>2026-04-04T13:03:46.996Z</time></trkpt><trkpt lat="40.086593742260725" lon="18.163619293946393"><ele>111.0</ele><time>2026-04-04T13:03:47.996Z</time></trkpt><trkpt lat="40.0866846869144" lon="18.163643920293097"><ele>111.0</ele><time>2026-04-04T13:03:48.996Z</time></trkpt><trkpt lat="40.086780020082024" lon="18.163648492867406"><ele>111.0</ele><time>2026-04-04T13:03:49.996Z</time></trkpt><trkpt lat="40.08688193411523" lon="18.16364803118553"><ele>111.0</ele><time>2026-04-04T13:03:50.996Z</time></trkpt><trkpt lat="40.08699273372686" lon="18.163652963467335"><ele>111.0</ele><time>2026-04-04T13:03:51.996Z</time></trkpt><trkpt lat="40.08711086578766" lon="18.163664523598186"><ele>111.0</ele><time>2026-04-04T13:03:52.996Z</time></trkpt><trkpt lat="40.08723724604786" lon="18.163671265977072"><ele>111.0</ele><time>2026-04-04T13:03:53.996Z</time></trkpt><trkpt lat="40.087362532683294" lon="18.163678155553693"><ele>111.0</ele><time>2026-04-04T13:03:54.996Z</time></trkpt><trkpt lat="40.08748608550157" lon="18.163683534491472"><ele>111.0</ele><time>2026-04-04T13:03:55.996Z</time></trkpt><trkpt lat="40.08761559239478" lon="18.16368948750933"><ele>111.0</ele><time>2026-04-04T13:03:56.996Z</time></trkpt><trkpt lat="40.08774736516117" lon="18.163698439228025"><ele>111.0</ele><time>2026-04-04T13:03:57.996Z</time></trkpt><trkpt lat="40.0878794741668" lon="18.163707332705744"><ele>111.0</ele><time>2026-04-04T13:03:58.996Z</time></trkpt><trkpt lat="40.08801606273272" lon="18.163713687424266"><ele>111.0</ele><time>2026-04-04T13:03:59.996Z</time></trkpt><trkpt lat="40.08815818850331" lon="18.163720448596195"><ele>111.0</ele><time>2026-04-04T13:04:00.996Z</time></trkpt><trkpt lat="40.088302111310476" lon="18.16372636749033"><ele>111.0</ele><time>2026-04-04T13:04:01.996Z</time></trkpt><trkpt lat="40.088445683491976" lon="18.16372966680075"><ele>111.0</ele><time>2026-04-04T13:04:02.996Z</time></trkpt><trkpt lat="40.08859157974628" lon="18.163733039649138"><ele>110.66666666666666</ele><time>2026-04-04T13:04:03.996Z</time></trkpt><trkpt lat="40.08874191722091" lon="18.16374213682466"><ele>110.33333333333333</ele><time>2026-04-04T13:04:04.996Z</time></trkpt><trkpt lat="40.08889323472903" lon="18.16375322243056"><ele>110.0</ele><time>2026-04-04T13:04:05.996Z</time></trkpt><trkpt lat="40.08904684491994" lon="18.163764411551995"><ele>110.0</ele><time>2026-04-04T13:04:06.996Z</time></trkpt><trkpt lat="40.08920582351188" lon="18.163772207463584"><ele>110.0</ele><time>2026-04-04T13:04:07.996Z</time></trkpt><trkpt lat="40.08936731553715" lon="18.163784680011617"><ele>110.0</ele><time>2026-04-04T13:04:08.996Z</time></trkpt><trkpt lat="40.08953402880697" lon="18.163800107518068"><ele>110.0</ele><time>2026-04-04T13:04:09.996Z</time></trkpt><trkpt lat="40.089698989637114" lon="18.16381584576791"><ele>110.0</ele><time>2026-04-04T13:04:10.996Z</time></trkpt><trkpt lat="40.089863146252156" lon="18.163824541378165"><ele>110.0</ele><time>2026-04-04T13:04:11.996Z</time></trkpt><trkpt lat="40.0900289686747" lon="18.16383533702641"><ele>108.66666666666666</ele><time>2026-04-04T13:04:12.996Z</time></trkpt><trkpt lat="40.090196247616994" lon="18.163847367846536"><ele>107.33333333333334</ele><time>2026-04-04T13:04:13.996Z</time></trkpt><trkpt lat="40.090370418893826" lon="18.163854895093472"><ele>106.0</ele><time>2026-04-04T13:04:14.996Z</time></trkpt><trkpt lat="40.090548144863924" lon="18.163869683912193"><ele>106.0</ele><time>2026-04-04T13:04:15.996Z</time></trkpt><trkpt lat="40.09072254500384" lon="18.16388803237782"><ele>106.0</ele><time>2026-04-04T13:04:16.996Z</time></trkpt><trkpt lat="40.09089837743267" lon="18.163901862361143"><ele>106.0</ele><time>2026-04-04T13:04:17.996Z</time></trkpt><trkpt lat="40.091072356505606" lon="18.16391508080421"><ele>106.0</ele><time>2026-04-04T13:04:18.996Z</time></trkpt><trkpt lat="40.09125185223166" lon="18.163922374915455"><ele>106.0</ele><time>2026-04-04T13:04:19.996Z</time></trkpt><trkpt lat="40.09142953782143" lon="18.163936277058504"><ele>106.0</ele><time>2026-04-04T13:04:20.996Z</time></trkpt><trkpt lat="40.091606719226995" lon="18.163954445062963"><ele>105.33333333333334</ele><time>2026-04-04T13:04:21.996Z</time></trkpt><trkpt lat="40.09179009993409" lon="18.16396677830103"><ele>104.66666666666666</ele><time>2026-04-04T13:04:22.996Z</time></trkpt><trkpt lat="40.091969823027135" lon="18.16397772003962"><ele>104.0</ele><time>2026-04-04T13:04:23.996Z</time></trkpt><trkpt lat="40.09215487259028" lon="18.163990079314548"><ele>104.0</ele><time>2026-04-04T13:04:24.996Z</time></trkpt><trkpt lat="40.092344466747264" lon="18.16400237968887"><ele>104.0</ele><time>2026-04-04T13:04:25.996Z</time></trkpt><trkpt lat="40.092531522571804" lon="18.16401204651274"><ele>104.0</ele><time>2026-04-04T13:04:26.996Z</time></trkpt><trkpt lat="40.09272174267214" lon="18.164014372498222"><ele>103.66666666666666</ele><time>2026-04-04T13:04:27.996Z</time></trkpt><trkpt lat="40.0929072671778" lon="18.16402298708501"><ele>103.33333333333334</ele><time>2026-04-04T13:04:28.996Z</time></trkpt><trkpt lat="40.09309347598463" lon="18.16403758920709"><ele>103.0</ele><time>2026-04-04T13:04:29.996Z</time></trkpt><trkpt lat="40.093281464267115" lon="18.164052714941565"><ele>103.0</ele><time>2026-04-04T13:04:30.996Z</time></trkpt><trkpt lat="40.093465331399436" lon="18.164065649933033"><ele>103.0</ele><time>2026-04-04T13:04:31.995Z</time></trkpt><trkpt lat="40.093658412664446" lon="18.164072386024856"><ele>103.0</ele><time>2026-04-04T13:04:32.995Z</time></trkpt><trkpt lat="40.093863368485145" lon="18.16406703561399"><ele>103.0</ele><time>2026-04-04T13:04:33.995Z</time></trkpt><trkpt lat="40.09407744388438" lon="18.164069636008737"><ele>103.0</ele><time>2026-04-04T13:04:34.996Z</time></trkpt><trkpt lat="40.09431853716918" lon="18.1640723785613"><ele>103.5</ele><time>2026-04-04T13:04:35.996Z</time></trkpt><trkpt lat="40.094567714833744" lon="18.16408887991618"><ele>104.0</ele><time>2026-04-04T13:04:36.995Z</time></trkpt><trkpt lat="40.09483329012376" lon="18.164113186038122"><ele>104.0</ele><time>2026-04-04T13:04:37.995Z</time></trkpt><trkpt lat="40.09511391887062" lon="18.16414274594652"><ele>104.0</ele><time>2026-04-04T13:04:38.995Z</time></trkpt><trkpt lat="40.095383994813005" lon="18.16416858521933"><ele>104.0</ele><time>2026-04-04T13:04:39.995Z</time></trkpt><trkpt lat="40.09565432886976" lon="18.16418534897971"><ele>104.0</ele><time>2026-04-04T13:04:40.995Z</time></trkpt><trkpt lat="40.09592174660884" lon="18.164197578757936"><ele>103.5</ele><time>2026-04-04T13:04:41.995Z</time></trkpt><trkpt lat="40.09618524745549" lon="18.164211695318038"><ele>103.0</ele><time>2026-04-04T13:04:42.995Z</time></trkpt><trkpt lat="40.096444169825155" lon="18.16422040532231"><ele>102.0</ele><time>2026-04-04T13:04:43.995Z</time></trkpt><trkpt lat="40.09670031049883" lon="18.1642367240079"><ele>101.0</ele><time>2026-04-04T13:04:44.995Z</time></trkpt><trkpt lat="40.09694209194821" lon="18.16425153272177"><ele>101.0</ele><time>2026-04-04T13:04:45.995Z</time></trkpt><trkpt lat="40.097171220164235" lon="18.164265957205547"><ele>101.0</ele><time>2026-04-04T13:04:46.995Z</time></trkpt><trkpt lat="40.09739068433902" lon="18.164285331176306"><ele>101.0</ele><time>2026-04-04T13:04:47.995Z</time></trkpt><trkpt lat="40.097608312586445" lon="18.164295015500418"><ele>100.66666666666666</ele><time>2026-04-04T13:04:48.995Z</time></trkpt><trkpt lat="40.097825764395324" lon="18.164307010653598"><ele>100.33333333333334</ele><time>2026-04-04T13:04:49.995Z</time></trkpt><trkpt lat="40.098041221140804" lon="18.164321387775747"><ele>100.0</ele><time>2026-04-04T13:04:50.995Z</time></trkpt><trkpt lat="40.09825080205122" lon="18.16433285200494"><ele>99.33333333333334</ele><time>2026-04-04T13:04:51.995Z</time></trkpt><trkpt lat="40.09846565656347" lon="18.164348471142382"><ele>98.66666666666666</ele><time>2026-04-04T13:04:52.995Z</time></trkpt><trkpt lat="40.09867765835837" lon="18.164365832597618"><ele>98.0</ele><time>2026-04-04T13:04:53.995Z</time></trkpt><trkpt lat="40.09888916392193" lon="18.164385434179547"><ele>98.33333333333333</ele><time>2026-04-04T13:04:54.995Z</time></trkpt><trkpt lat="40.09909906393376" lon="18.164404289687646"><ele>98.66666666666666</ele><time>2026-04-04T13:04:55.995Z</time></trkpt><trkpt lat="40.09931369208988" lon="18.16441758972702"><ele>99.0</ele><time>2026-04-04T13:04:56.995Z</time></trkpt><trkpt lat="40.099530366643926" lon="18.164423977313845"><ele>99.0</ele><time>2026-04-04T13:04:57.995Z</time></trkpt><trkpt lat="40.09974422205055" lon="18.164424472800903"><ele>99.0</ele><time>2026-04-04T13:04:58.995Z</time></trkpt><trkpt lat="40.09995902914007" lon="18.164444145760207"><ele>99.0</ele><time>2026-04-04T13:04:59.995Z</time></trkpt><trkpt lat="40.100172756969904" lon="18.164462630112432"><ele>99.0</ele><time>2026-04-04T13:05:00.995Z</time></trkpt><trkpt lat="40.100380156817955" lon="18.164477930901082"><ele>99.0</ele><time>2026-04-04T13:05:01.995Z</time></trkpt><trkpt lat="40.100586687491315" lon="18.164507554889585"><ele>99.0</ele><time>2026-04-04T13:05:02.995Z</time></trkpt><trkpt lat="40.10078950132618" lon="18.164517660574752"><ele>98.0</ele><time>2026-04-04T13:05:03.995Z</time></trkpt><trkpt lat="40.10099260120825" lon="18.164526482502282"><ele>97.0</ele><time>2026-04-04T13:05:04.995Z</time></trkpt><trkpt lat="40.10119992100591" lon="18.164535717973898"><ele>96.0</ele><time>2026-04-04T13:05:05.995Z</time></trkpt><trkpt lat="40.10140831499435" lon="18.164547540020216"><ele>95.66666666666667</ele><time>2026-04-04T13:05:06.995Z</time></trkpt><trkpt lat="40.1016184688157" lon="18.164570410248132"><ele>95.33333333333334</ele><time>2026-04-04T13:05:07.995Z</time></trkpt><trkpt lat="40.10182786846777" lon="18.16460276425423"><ele>95.0</ele><time>2026-04-04T13:05:08.995Z</time></trkpt><trkpt lat="40.10204491819351" lon="18.164642034427942"><ele>95.0</ele><time>2026-04-04T13:05:09.995Z</time></trkpt><trkpt lat="40.102250250917365" lon="18.164631417335173"><ele>95.0</ele><time>2026-04-04T13:05:10.995Z</time></trkpt><trkpt lat="40.10245455146191" lon="18.1646261743131"><ele>95.0</ele><time>2026-04-04T13:05:11.995Z</time></trkpt><trkpt lat="40.10266182213163" lon="18.16463409442762"><ele>95.0</ele><time>2026-04-04T13:05:12.995Z</time></trkpt><trkpt lat="40.10287262832779" lon="18.16465119088207"><ele>95.0</ele><time>2026-04-04T13:05:13.995Z</time></trkpt><trkpt lat="40.10309955559116" lon="18.164672462600436"><ele>95.0</ele><time>2026-04-04T13:05:14.995Z</time></trkpt><trkpt lat="40.10331890703094" lon="18.16468286354143"><ele>96.0</ele><time>2026-04-04T13:05:15.995Z</time></trkpt><trkpt lat="40.10354267772805" lon="18.16470540510712"><ele>97.0</ele><time>2026-04-04T13:05:16.995Z</time></trkpt><trkpt lat="40.1037689758937" lon="18.16472081781361"><ele>97.0</ele><time>2026-04-04T13:05:17.995Z</time></trkpt><trkpt lat="40.103994634136626" lon="18.164737148465516"><ele>97.0</ele><time>2026-04-04T13:05:18.995Z</time></trkpt><trkpt lat="40.10422398482767" lon="18.164755578929146"><ele>96.0</ele><time>2026-04-04T13:05:19.995Z</time></trkpt><trkpt lat="40.10445489391597" lon="18.16477350633652"><ele>95.0</ele><time>2026-04-04T13:05:20.995Z</time></trkpt><trkpt lat="40.104692161051275" lon="18.16479112045022"><ele>94.0</ele><time>2026-04-04T13:05:21.995Z</time></trkpt><trkpt lat="40.1049311633865" lon="18.164810005742634"><ele>93.0</ele><time>2026-04-04T13:05:22.995Z</time></trkpt><trkpt lat="40.10517610340348" lon="18.164828759783088"><ele>93.0</ele><time>2026-04-04T13:05:23.995Z</time></trkpt><trkpt lat="40.1054299640585" lon="18.16483770808643"><ele>93.0</ele><time>2026-04-04T13:05:24.995Z</time></trkpt><trkpt lat="40.105683013770346" lon="18.164853261667353"><ele>92.5</ele><time>2026-04-04T13:05:25.995Z</time></trkpt><trkpt lat="40.105936595355296" lon="18.164873721182985"><ele>92.0</ele><time>2026-04-04T13:05:26.995Z</time></trkpt><trkpt lat="40.10619437275227" lon="18.164887842915334"><ele>92.0</ele><time>2026-04-04T13:05:27.995Z</time></trkpt><trkpt lat="40.10645120822765" lon="18.16490269025796"><ele>92.0</ele><time>2026-04-04T13:05:28.995Z</time></trkpt><trkpt lat="40.10669793726218" lon="18.16491214299969"><ele>92.0</ele><time>2026-04-04T13:05:29.995Z</time></trkpt><trkpt lat="40.10694470311206" lon="18.16492529156922"><ele>92.0</ele><time>2026-04-04T13:05:30.995Z</time></trkpt><trkpt lat="40.10718766880026" lon="18.164940822286614"><ele>92.5</ele><time>2026-04-04T13:05:31.995Z</time></trkpt><trkpt lat="40.107429567575075" lon="18.164957684236178"><ele>93.0</ele><time>2026-04-04T13:05:32.995Z</time></trkpt><trkpt lat="40.10766926501167" lon="18.164974648504327"><ele>93.0</ele><time>2026-04-04T13:05:33.995Z</time></trkpt><trkpt lat="40.10790664371271" lon="18.164990132393783"><ele>93.0</ele><time>2026-04-04T13:05:34.995Z</time></trkpt><trkpt lat="40.108148134847404" lon="18.165006976714725"><ele>92.5</ele><time>2026-04-04T13:05:35.995Z</time></trkpt><trkpt lat="40.10838767426948" lon="18.16502092833031"><ele>92.0</ele><time>2026-04-04T13:05:36.995Z</time></trkpt><trkpt lat="40.10862759394672" lon="18.165035425990396"><ele>92.0</ele><time>2026-04-04T13:05:37.995Z</time></trkpt><trkpt lat="40.10887495350827" lon="18.16505506483679"><ele>92.0</ele><time>2026-04-04T13:05:38.995Z</time></trkpt><trkpt lat="40.10911497966885" lon="18.165068020498023"><ele>91.0</ele><time>2026-04-04T13:05:39.995Z</time></trkpt><trkpt lat="40.10935821737766" lon="18.16508267976067"><ele>90.0</ele><time>2026-04-04T13:05:40.995Z</time></trkpt><trkpt lat="40.109599583055626" lon="18.165096445224037"><ele>90.0</ele><time>2026-04-04T13:05:41.995Z</time></trkpt><trkpt lat="40.10984213403506" lon="18.165112597454332"><ele>90.0</ele><time>2026-04-04T13:05:42.995Z</time></trkpt><trkpt lat="40.11008249549301" lon="18.16512771973569"><ele>90.5</ele><time>2026-04-04T13:05:43.995Z</time></trkpt><trkpt lat="40.11032014332607" lon="18.165143611121785"><ele>91.0</ele><time>2026-04-04T13:05:44.995Z</time></trkpt><trkpt lat="40.110563505301585" lon="18.165153131493412"><ele>90.0</ele><time>2026-04-04T13:05:45.995Z</time></trkpt><trkpt lat="40.110802687054196" lon="18.165173501733545"><ele>89.0</ele><time>2026-04-04T13:05:46.995Z</time></trkpt><trkpt lat="40.11104627817173" lon="18.165187389540087"><ele>89.0</ele><time>2026-04-04T13:05:47.995Z</time></trkpt><trkpt lat="40.11129175599515" lon="18.165206102200255"><ele>89.0</ele><time>2026-04-04T13:05:48.995Z</time></trkpt><trkpt lat="40.11153736802683" lon="18.165224034749347"><ele>89.0</ele><time>2026-04-04T13:05:49.995Z</time></trkpt><trkpt lat="40.11178012165663" lon="18.16523881085478"><ele>89.0</ele><time>2026-04-04T13:05:50.995Z</time></trkpt><trkpt lat="40.112026653146614" lon="18.165249980052465"><ele>89.0</ele><time>2026-04-04T13:05:51.995Z</time></trkpt><trkpt lat="40.1122753359082" lon="18.16526341086581"><ele>89.0</ele><time>2026-04-04T13:05:52.994Z</time></trkpt><trkpt lat="40.11252317435188" lon="18.165276842709442"><ele>89.0</ele><time>2026-04-04T13:05:53.994Z</time></trkpt><trkpt lat="40.112771459711695" lon="18.165291578106405"><ele>89.0</ele><time>2026-04-04T13:05:54.994Z</time></trkpt><trkpt lat="40.113018015410624" lon="18.16530700660409"><ele>88.5</ele><time>2026-04-04T13:05:55.994Z</time></trkpt><trkpt lat="40.11326238671884" lon="18.165322490949528"><ele>88.0</ele><time>2026-04-04T13:05:56.994Z</time></trkpt><trkpt lat="40.11350738511028" lon="18.16533937064056"><ele>88.0</ele><time>2026-04-04T13:05:57.994Z</time></trkpt><trkpt lat="40.113752645650735" lon="18.165354340806147"><ele>88.0</ele><time>2026-04-04T13:05:58.994Z</time></trkpt><trkpt lat="40.11399497597767" lon="18.165372750498964"><ele>87.0</ele><time>2026-04-04T13:05:59.994Z</time></trkpt><trkpt lat="40.11423812294821" lon="18.165387808006873"><ele>86.0</ele><time>2026-04-04T13:06:00.994Z</time></trkpt><trkpt lat="40.114482269158" lon="18.165408772024712"><ele>86.0</ele><time>2026-04-04T13:06:01.994Z</time></trkpt><trkpt lat="40.11472852316658" lon="18.16542741492007"><ele>86.0</ele><time>2026-04-04T13:06:02.994Z</time></trkpt><trkpt lat="40.1149725658754" lon="18.165445575257305"><ele>86.5</ele><time>2026-04-04T13:06:03.994Z</time></trkpt><trkpt lat="40.115219031490824" lon="18.165462429236815"><ele>87.0</ele><time>2026-04-04T13:06:04.994Z</time></trkpt><trkpt lat="40.115459460669264" lon="18.16547843823141"><ele>87.0</ele><time>2026-04-04T13:06:05.994Z</time></trkpt><trkpt lat="40.11570631584811" lon="18.165488289932075"><ele>87.0</ele><time>2026-04-04T13:06:06.994Z</time></trkpt><trkpt lat="40.11595375152457" lon="18.16549942833465"><ele>87.0</ele><time>2026-04-04T13:06:07.994Z</time></trkpt><trkpt lat="40.11619709194441" lon="18.165513088296755"><ele>87.0</ele><time>2026-04-04T13:06:08.994Z</time></trkpt><trkpt lat="40.11643682251636" lon="18.165527117183178"><ele>87.0</ele><time>2026-04-04T13:06:09.994Z</time></trkpt><trkpt lat="40.116675017724674" lon="18.16554396829041"><ele>87.0</ele><time>2026-04-04T13:06:10.994Z</time></trkpt><trkpt lat="40.11690045959997" lon="18.165555078798725"><ele>87.0</ele><time>2026-04-04T13:06:11.994Z</time></trkpt><trkpt lat="40.11712083402368" lon="18.165566531058758"><ele>87.0</ele><time>2026-04-04T13:06:12.994Z</time></trkpt><trkpt lat="40.11732762333418" lon="18.165577881146238"><ele>87.0</ele><time>2026-04-04T13:06:13.994Z</time></trkpt><trkpt lat="40.117524308752486" lon="18.16560113756733"><ele>86.33333333333333</ele><time>2026-04-04T13:06:14.994Z</time></trkpt><trkpt lat="40.11772066138217" lon="18.165620164596803"><ele>85.66666666666666</ele><time>2026-04-04T13:06:15.994Z</time></trkpt><trkpt lat="40.11792437532757" lon="18.165643220928757"><ele>85.0</ele><time>2026-04-04T13:06:16.994Z</time></trkpt><trkpt lat="40.11813764098953" lon="18.165666584777128"><ele>85.0</ele><time>2026-04-04T13:06:17.994Z</time></trkpt><trkpt lat="40.11836222801581" lon="18.16568896756082"><ele>85.0</ele><time>2026-04-04T13:06:18.994Z</time></trkpt><trkpt lat="40.118585690989725" lon="18.165699282382114"><ele>85.0</ele><time>2026-04-04T13:06:19.994Z</time></trkpt><trkpt lat="40.118822849598914" lon="18.165713502865216"><ele>85.0</ele><time>2026-04-04T13:06:20.994Z</time></trkpt><trkpt lat="40.11905667075309" lon="18.165746123658085"><ele>85.0</ele><time>2026-04-04T13:06:21.994Z</time></trkpt><trkpt lat="40.11931507332704" lon="18.16581160939786"><ele>84.66666666666666</ele><time>2026-04-04T13:06:22.994Z</time></trkpt><trkpt lat="40.11944136382808" lon="18.165711427813896"><ele>84.33333333333333</ele><time>2026-04-04T13:06:23.994Z</time></trkpt><trkpt lat="40.119652399738015" lon="18.165729833993332"><ele>84.0</ele><time>2026-04-04T13:06:24.994Z</time></trkpt><trkpt lat="40.1198733150694" lon="18.165742525847698"><ele>84.33333333333333</ele><time>2026-04-04T13:06:25.994Z</time></trkpt><trkpt lat="40.12009709455792" lon="18.165755324498186"><ele>84.66666666666666</ele><time>2026-04-04T13:06:26.994Z</time></trkpt><trkpt lat="40.12031760304643" lon="18.16577034470171"><ele>85.0</ele><time>2026-04-04T13:06:27.994Z</time></trkpt><trkpt lat="40.120536368466276" lon="18.165782709255833"><ele>84.33333333333333</ele><time>2026-04-04T13:06:28.994Z</time></trkpt><trkpt lat="40.12075718573669" lon="18.165797950407953"><ele>83.66666666666667</ele><time>2026-04-04T13:06:29.994Z</time></trkpt><trkpt lat="40.12098156088777" lon="18.16581082146586"><ele>83.0</ele><time>2026-04-04T13:06:30.994Z</time></trkpt><trkpt lat="40.12120554049603" lon="18.165820683845197"><ele>83.0</ele><time>2026-04-04T13:06:31.994Z</time></trkpt><trkpt lat="40.121430145112356" lon="18.165839292678637"><ele>83.0</ele><time>2026-04-04T13:06:32.994Z</time></trkpt><trkpt lat="40.12164770874541" lon="18.165851659467833"><ele>83.0</ele><time>2026-04-04T13:06:33.995Z</time></trkpt><trkpt lat="40.12185758070829" lon="18.165864558142204"><ele>83.33333333333334</ele><time>2026-04-04T13:06:34.994Z</time></trkpt><trkpt lat="40.12206717039409" lon="18.165874092123833"><ele>83.66666666666667</ele><time>2026-04-04T13:06:35.994Z</time></trkpt><trkpt lat="40.12227826654381" lon="18.16588557350625"><ele>84.0</ele><time>2026-04-04T13:06:36.994Z</time></trkpt><trkpt lat="40.12248875183243" lon="18.16589744986521"><ele>84.0</ele><time>2026-04-04T13:06:37.994Z</time></trkpt><trkpt lat="40.12269837340297" lon="18.16591240534122"><ele>84.0</ele><time>2026-04-04T13:06:38.994Z</time></trkpt><trkpt lat="40.12291199049461" lon="18.16592556971352"><ele>84.0</ele><time>2026-04-04T13:06:39.994Z</time></trkpt><trkpt lat="40.12312473939092" lon="18.165939806668263"><ele>83.33333333333333</ele><time>2026-04-04T13:06:40.994Z</time></trkpt><trkpt lat="40.1233345488408" lon="18.16595262615143"><ele>82.66666666666666</ele><time>2026-04-04T13:06:41.994Z</time></trkpt><trkpt lat="40.12353365478953" lon="18.165965311852894"><ele>82.0</ele><time>2026-04-04T13:06:42.994Z</time></trkpt><trkpt lat="40.12372975847831" lon="18.165977243832824"><ele>82.0</ele><time>2026-04-04T13:06:43.994Z</time></trkpt><trkpt lat="40.12393304828113" lon="18.165993736002136"><ele>82.0</ele><time>2026-04-04T13:06:44.994Z</time></trkpt><trkpt lat="40.1241332928107" lon="18.166009909197093"><ele>82.0</ele><time>2026-04-04T13:06:45.994Z</time></trkpt><trkpt lat="40.124333759147994" lon="18.166021214385736"><ele>81.66666666666666</ele><time>2026-04-04T13:06:46.994Z</time></trkpt><trkpt lat="40.124533583535346" lon="18.166031275099495"><ele>81.33333333333333</ele><time>2026-04-04T13:06:47.994Z</time></trkpt><trkpt lat="40.12472944392121" lon="18.166042134458408"><ele>81.0</ele><time>2026-04-04T13:06:48.994Z</time></trkpt><trkpt lat="40.1249244483171" lon="18.166056318982978"><ele>80.66666666666667</ele><time>2026-04-04T13:06:49.994Z</time></trkpt><trkpt lat="40.12512306648205" lon="18.166071888967338"><ele>80.33333333333334</ele><time>2026-04-04T13:06:50.994Z</time></trkpt><trkpt lat="40.12532610385639" lon="18.166085386809133"><ele>80.0</ele><time>2026-04-04T13:06:51.994Z</time></trkpt><trkpt lat="40.12553961360703" lon="18.166093060862796"><ele>80.0</ele><time>2026-04-04T13:06:52.994Z</time></trkpt><trkpt lat="40.125750602650385" lon="18.166108256758235"><ele>80.0</ele><time>2026-04-04T13:06:53.994Z</time></trkpt><trkpt lat="40.12595772816189" lon="18.166119518312986"><ele>80.0</ele><time>2026-04-04T13:06:54.994Z</time></trkpt><trkpt lat="40.12615771328186" lon="18.166131323415147"><ele>80.0</ele><time>2026-04-04T13:06:55.994Z</time></trkpt><trkpt lat="40.12633907297929" lon="18.166133332069506"><ele>80.0</ele><time>2026-04-04T13:06:56.994Z</time></trkpt><trkpt lat="40.12649888941846" lon="18.166142914745283"><ele>80.0</ele><time>2026-04-04T13:06:57.994Z</time></trkpt><trkpt lat="40.12664690868774" lon="18.16615385172154"><ele>80.5</ele><time>2026-04-04T13:06:58.994Z</time></trkpt><trkpt lat="40.126790272935374" lon="18.166163965555597"><ele>81.0</ele><time>2026-04-04T13:06:59.994Z</time></trkpt><trkpt lat="40.12692661534493" lon="18.166172891818228"><ele>81.5</ele><time>2026-04-04T13:07:00.994Z</time></trkpt><trkpt lat="40.127047021576566" lon="18.166188599362762"><ele>82.0</ele><time>2026-04-04T13:07:01.994Z</time></trkpt><trkpt lat="40.12715800250629" lon="18.166199246258156"><ele>82.0</ele><time>2026-04-04T13:07:02.994Z</time></trkpt><trkpt lat="40.12725875174512" lon="18.16621122486736"><ele>82.0</ele><time>2026-04-04T13:07:03.994Z</time></trkpt><trkpt lat="40.12733150732276" lon="18.166255641699223"><ele>82.0</ele><time>2026-04-04T13:07:04.994Z</time></trkpt><trkpt lat="40.12740726295017" lon="18.166318509008097"><ele>82.0</ele><time>2026-04-04T13:07:05.994Z</time></trkpt><trkpt lat="40.127485270089615" lon="18.166398214619413"><ele>82.0</ele><time>2026-04-04T13:07:06.994Z</time></trkpt><trkpt lat="40.127563439106765" lon="18.166463854368637"><ele>81.8</ele><time>2026-04-04T13:07:07.994Z</time></trkpt><trkpt lat="40.1276482097844" lon="18.16650104937966"><ele>81.6</ele><time>2026-04-04T13:07:08.994Z</time></trkpt><trkpt lat="40.127732844528815" lon="18.166497452060735"><ele>81.39999999999999</ele><time>2026-04-04T13:07:09.994Z</time></trkpt><trkpt lat="40.1278200211726" lon="18.166462179920526"><ele>81.19999999999999</ele><time>2026-04-04T13:07:10.994Z</time></trkpt><trkpt lat="40.127915737865244" lon="18.166402337916395"><ele>81.0</ele><time>2026-04-04T13:07:11.994Z</time></trkpt><trkpt lat="40.12802153782102" lon="18.166342723696616"><ele>81.0</ele><time>2026-04-04T13:07:12.994Z</time></trkpt><trkpt lat="40.128150849791886" lon="18.166296572797236"><ele>81.0</ele><time>2026-04-04T13:07:13.994Z</time></trkpt><trkpt lat="40.12830797239744" lon="18.166281448528405"><ele>81.0</ele><time>2026-04-04T13:07:14.994Z</time></trkpt><trkpt lat="40.12846393417231" lon="18.16627550703803"><ele>81.0</ele><time>2026-04-04T13:07:15.994Z</time></trkpt><trkpt lat="40.12862876338649" lon="18.166278783084707"><ele>79.0</ele><time>2026-04-04T13:07:16.994Z</time></trkpt><trkpt lat="40.12879923594764" lon="18.166294911205412"><ele>77.0</ele><time>2026-04-04T13:07:17.994Z</time></trkpt><trkpt lat="40.1289745609834" lon="18.16630891415531"><ele>75.0</ele><time>2026-04-04T13:07:18.994Z</time></trkpt><trkpt lat="40.12915947921839" lon="18.166315054599774"><ele>74.66666666666667</ele><time>2026-04-04T13:07:19.994Z</time></trkpt><trkpt lat="40.12935044592159" lon="18.166325377495316"><ele>74.33333333333334</ele><time>2026-04-04T13:07:20.994Z</time></trkpt><trkpt lat="40.12953790281275" lon="18.1663400657686"><ele>74.0</ele><time>2026-04-04T13:07:21.994Z</time></trkpt><trkpt lat="40.12972235391254" lon="18.166355205068196"><ele>74.0</ele><time>2026-04-04T13:07:22.994Z</time></trkpt><trkpt lat="40.12990683968084" lon="18.166363339313662"><ele>74.0</ele><time>2026-04-04T13:07:23.994Z</time></trkpt><trkpt lat="40.13008504713545" lon="18.166383022156303"><ele>74.0</ele><time>2026-04-04T13:07:24.994Z</time></trkpt><trkpt lat="40.130264003733714" lon="18.16639985729372"><ele>74.0</ele><time>2026-04-04T13:07:25.994Z</time></trkpt><trkpt lat="40.1304449175789" lon="18.166401498749106"><ele>74.0</ele><time>2026-04-04T13:07:26.994Z</time></trkpt><trkpt lat="40.13062788990393" lon="18.166417075607704"><ele>74.0</ele><time>2026-04-04T13:07:27.994Z</time></trkpt><trkpt lat="40.130819705060794" lon="18.166424836299175"><ele>74.0</ele><time>2026-04-04T13:07:28.994Z</time></trkpt><trkpt lat="40.13102001861329" lon="18.166436430376535"><ele>74.0</ele><time>2026-04-04T13:07:29.994Z</time></trkpt><trkpt lat="40.13123610869267" lon="18.166448520402263"><ele>74.0</ele><time>2026-04-04T13:07:30.994Z</time></trkpt><trkpt lat="40.131472668624696" lon="18.166464948702195"><ele>73.5</ele><time>2026-04-04T13:07:31.994Z</time></trkpt><trkpt lat="40.1317176754581" lon="18.166479961317894"><ele>73.0</ele><time>2026-04-04T13:07:32.994Z</time></trkpt><trkpt lat="40.13197336741761" lon="18.166502180449495"><ele>73.0</ele><time>2026-04-04T13:07:33.994Z</time></trkpt><trkpt lat="40.13223614496175" lon="18.166516637959777"><ele>73.0</ele><time>2026-04-04T13:07:34.994Z</time></trkpt><trkpt lat="40.13251115190431" lon="18.16653404866303"><ele>72.5</ele><time>2026-04-04T13:07:35.994Z</time></trkpt><trkpt lat="40.13278178649838" lon="18.16654552907595"><ele>72.0</ele><time>2026-04-04T13:07:36.994Z</time></trkpt><trkpt lat="40.133048656066734" lon="18.1665589689393"><ele>73.0</ele><time>2026-04-04T13:07:37.994Z</time></trkpt><trkpt lat="40.133308620251185" lon="18.16657750273273"><ele>74.0</ele><time>2026-04-04T13:07:38.994Z</time></trkpt><trkpt lat="40.13357019271483" lon="18.166586179388325"><ele>74.0</ele><time>2026-04-04T13:07:39.994Z</time></trkpt><trkpt lat="40.13382996383694" lon="18.16659867064916"><ele>74.0</ele><time>2026-04-04T13:07:40.994Z</time></trkpt><trkpt lat="40.13409289503799" lon="18.166630742428865"><ele>73.5</ele><time>2026-04-04T13:07:41.994Z</time></trkpt><trkpt lat="40.1343530386435" lon="18.166650050770315"><ele>73.0</ele><time>2026-04-04T13:07:42.994Z</time></trkpt><trkpt lat="40.13461253900046" lon="18.166660579477977"><ele>73.0</ele><time>2026-04-04T13:07:43.994Z</time></trkpt><trkpt lat="40.13487239523428" lon="18.1666793753958"><ele>73.0</ele><time>2026-04-04T13:07:44.994Z</time></trkpt><trkpt lat="40.13512384586859" lon="18.166695329826762"><ele>73.5</ele><time>2026-04-04T13:07:45.994Z</time></trkpt><trkpt lat="40.135377172280535" lon="18.16671524369501"><ele>74.0</ele><time>2026-04-04T13:07:46.994Z</time></trkpt><trkpt lat="40.135619889929224" lon="18.16672465841052"><ele>73.0</ele><time>2026-04-04T13:07:47.994Z</time></trkpt><trkpt lat="40.1358532783073" lon="18.16673384017874"><ele>72.0</ele><time>2026-04-04T13:07:48.994Z</time></trkpt><trkpt lat="40.13607020158187" lon="18.16675036675734"><ele>72.0</ele><time>2026-04-04T13:07:49.994Z</time></trkpt><trkpt lat="40.1362764026593" lon="18.166767681469334"><ele>72.0</ele><time>2026-04-04T13:07:50.994Z</time></trkpt><trkpt lat="40.136478944535135" lon="18.166777851966227"><ele>72.0</ele><time>2026-04-04T13:07:51.994Z</time></trkpt><trkpt lat="40.136687032114594" lon="18.166785999935975"><ele>72.33333333333333</ele><time>2026-04-04T13:07:52.994Z</time></trkpt><trkpt lat="40.13688718983251" lon="18.166795259525454"><ele>72.66666666666666</ele><time>2026-04-04T13:07:53.994Z</time></trkpt><trkpt lat="40.1370714428073" lon="18.166808645982293"><ele>73.0</ele><time>2026-04-04T13:07:54.993Z</time></trkpt><trkpt lat="40.1372373352928" lon="18.16682270233963"><ele>72.25</ele><time>2026-04-04T13:07:55.993Z</time></trkpt><trkpt lat="40.13739821460177" lon="18.16682717693778"><ele>71.5</ele><time>2026-04-04T13:07:56.993Z</time></trkpt><trkpt lat="40.13754810060664" lon="18.166839938156865"><ele>70.75</ele><time>2026-04-04T13:07:57.993Z</time></trkpt><trkpt lat="40.137680563268034" lon="18.166847748697723"><ele>70.0</ele><time>2026-04-04T13:07:58.993Z</time></trkpt><trkpt lat="40.13779436195925" lon="18.166846907677137"><ele>70.0</ele><time>2026-04-04T13:07:59.993Z</time></trkpt><trkpt lat="40.13791779726808" lon="18.166856565677268"><ele>70.0</ele><time>2026-04-04T13:08:00.993Z</time></trkpt><trkpt lat="40.138039377831895" lon="18.166861703723786"><ele>70.0</ele><time>2026-04-04T13:08:01.993Z</time></trkpt><trkpt lat="40.13816404339823" lon="18.166870470169204"><ele>70.0</ele><time>2026-04-04T13:08:02.993Z</time></trkpt><trkpt lat="40.13829360731642" lon="18.166881359256738"><ele>69.8</ele><time>2026-04-04T13:08:03.993Z</time></trkpt><trkpt lat="40.1384156217874" lon="18.16689252898369"><ele>69.6</ele><time>2026-04-04T13:08:04.993Z</time></trkpt><trkpt lat="40.13853059069982" lon="18.166899003876544"><ele>69.4</ele><time>2026-04-04T13:08:05.993Z</time></trkpt><trkpt lat="40.13863313261979" lon="18.166908368676832"><ele>69.2</ele><time>2026-04-04T13:08:06.993Z</time></trkpt><trkpt lat="40.13872380011814" lon="18.16691117908956"><ele>69.0</ele><time>2026-04-04T13:08:07.993Z</time></trkpt><trkpt lat="40.138814797037995" lon="18.166916223576393"><ele>69.0</ele><time>2026-04-04T13:08:08.993Z</time></trkpt><trkpt lat="40.138888262843146" lon="18.166931100986403"><ele>69.0</ele><time>2026-04-04T13:08:09.993Z</time></trkpt><trkpt lat="40.13896008398882" lon="18.166971442061897"><ele>69.0</ele><time>2026-04-04T13:08:10.993Z</time></trkpt><trkpt lat="40.13902658878092" lon="18.167046861264513"><ele>69.0</ele><time>2026-04-04T13:08:11.993Z</time></trkpt><trkpt lat="40.13910017274059" lon="18.16715377786036"><ele>69.0</ele><time>2026-04-04T13:08:12.993Z</time></trkpt><trkpt lat="40.13919040579733" lon="18.167256365952852"><ele>69.0</ele><time>2026-04-04T13:08:13.993Z</time></trkpt><trkpt lat="40.13928412664813" lon="18.16735584693705"><ele>69.0</ele><time>2026-04-04T13:08:14.993Z</time></trkpt><trkpt lat="40.13938096628209" lon="18.167462166963546"><ele>69.0</ele><time>2026-04-04T13:08:15.993Z</time></trkpt><trkpt lat="40.13948130496288" lon="18.167575723595313"><ele>69.0</ele><time>2026-04-04T13:08:16.993Z</time></trkpt><trkpt lat="40.13958528609906" lon="18.167695820586694"><ele>69.0</ele><time>2026-04-04T13:08:17.993Z</time></trkpt><trkpt lat="40.13968701265418" lon="18.167821794049562"><ele>69.0</ele><time>2026-04-04T13:08:18.993Z</time></trkpt><trkpt lat="40.13978979741347" lon="18.167945683522074"><ele>69.0</ele><time>2026-04-04T13:08:19.993Z</time></trkpt><trkpt lat="40.13989959274363" lon="18.1680805173407"><ele>69.0</ele><time>2026-04-04T13:08:20.993Z</time></trkpt><trkpt lat="40.14001771545143" lon="18.168221452365444"><ele>69.0</ele><time>2026-04-04T13:08:21.993Z</time></trkpt><trkpt lat="40.1401368692228" lon="18.16836740689543"><ele>69.0</ele><time>2026-04-04T13:08:22.993Z</time></trkpt><trkpt lat="40.14026132608352" lon="18.168513059400123"><ele>69.0</ele><time>2026-04-04T13:08:23.993Z</time></trkpt><trkpt lat="40.14038581926172" lon="18.16866097133777"><ele>69.0</ele><time>2026-04-04T13:08:24.993Z</time></trkpt><trkpt lat="40.14051015767589" lon="18.168812521380488"><ele>69.0</ele><time>2026-04-04T13:08:25.993Z</time></trkpt><trkpt lat="40.140635925965555" lon="18.168966592670397"><ele>69.0</ele><time>2026-04-04T13:08:26.993Z</time></trkpt><trkpt lat="40.14076443584379" lon="18.169122883182183"><ele>69.33333333333333</ele><time>2026-04-04T13:08:27.993Z</time></trkpt><trkpt lat="40.14089123083841" lon="18.169276571062447"><ele>69.66666666666666</ele><time>2026-04-04T13:08:28.993Z</time></trkpt><trkpt lat="40.1410237081803" lon="18.169428446264703"><ele>70.0</ele><time>2026-04-04T13:08:29.993Z</time></trkpt><trkpt lat="40.141151696321366" lon="18.169581708297613"><ele>70.0</ele><time>2026-04-04T13:08:30.993Z</time></trkpt><trkpt lat="40.141281286442" lon="18.169740053502508"><ele>70.0</ele><time>2026-04-04T13:08:31.993Z</time></trkpt><trkpt lat="40.14141137436259" lon="18.169899582036443"><ele>70.0</ele><time>2026-04-04T13:08:32.993Z</time></trkpt><trkpt lat="40.14154702911896" lon="18.17006055489092"><ele>69.66666666666666</ele><time>2026-04-04T13:08:33.993Z</time></trkpt><trkpt lat="40.14167873971386" lon="18.17021965172227"><ele>69.33333333333333</ele><time>2026-04-04T13:08:34.993Z</time></trkpt><trkpt lat="40.14181590234793" lon="18.170380394878702"><ele>69.0</ele><time>2026-04-04T13:08:35.993Z</time></trkpt><trkpt lat="40.14195531550471" lon="18.17054306274747"><ele>69.0</ele><time>2026-04-04T13:08:36.993Z</time></trkpt><trkpt lat="40.142092215288585" lon="18.170707020346402"><ele>69.0</ele><time>2026-04-04T13:08:37.993Z</time></trkpt><trkpt lat="40.14222650348362" lon="18.17086552386309"><ele>69.0</ele><time>2026-04-04T13:08:38.993Z</time></trkpt><trkpt lat="40.14236343209933" lon="18.17102390368538"><ele>69.0</ele><time>2026-04-04T13:08:39.993Z</time></trkpt><trkpt lat="40.14249406059655" lon="18.171185420665083"><ele>69.0</ele><time>2026-04-04T13:08:40.993Z</time></trkpt><trkpt lat="40.14263185536926" lon="18.171352857882194"><ele>69.0</ele><time>2026-04-04T13:08:41.993Z</time></trkpt><trkpt lat="40.14276280466478" lon="18.17151580160863"><ele>69.33333333333333</ele><time>2026-04-04T13:08:42.993Z</time></trkpt><trkpt lat="40.14290222684909" lon="18.17167480293779"><ele>69.66666666666666</ele><time>2026-04-04T13:08:43.993Z</time></trkpt><trkpt lat="40.14304370755786" lon="18.17183458757225"><ele>70.0</ele><time>2026-04-04T13:08:44.993Z</time></trkpt><trkpt lat="40.143185150153755" lon="18.17200149803942"><ele>69.33333333333333</ele><time>2026-04-04T13:08:45.994Z</time></trkpt><trkpt lat="40.14331699795763" lon="18.172165530094617"><ele>68.66666666666667</ele><time>2026-04-04T13:08:46.994Z</time></trkpt><trkpt lat="40.1434493151439" lon="18.172332223615943"><ele>68.0</ele><time>2026-04-04T13:08:47.994Z</time></trkpt><trkpt lat="40.14358209166152" lon="18.172489716305336"><ele>68.0</ele><time>2026-04-04T13:08:48.994Z</time></trkpt><trkpt lat="40.14371613489736" lon="18.172650712471675"><ele>68.0</ele><time>2026-04-04T13:08:49.994Z</time></trkpt><trkpt lat="40.14385286740472" lon="18.172812327033313"><ele>68.0</ele><time>2026-04-04T13:08:50.994Z</time></trkpt><trkpt lat="40.1439840176852" lon="18.17298220762066"><ele>68.33333333333334</ele><time>2026-04-04T13:08:51.994Z</time></trkpt><trkpt lat="40.14411865736781" lon="18.17314474701648"><ele>68.66666666666667</ele><time>2026-04-04T13:08:52.993Z</time></trkpt><trkpt lat="40.14425842455789" lon="18.173309309344617"><ele>69.0</ele><time>2026-04-04T13:08:53.993Z</time></trkpt><trkpt lat="40.144395340250135" lon="18.17346810376116"><ele>69.0</ele><time>2026-04-04T13:08:54.993Z</time></trkpt><trkpt lat="40.144538531740515" lon="18.173623917367195"><ele>69.0</ele><time>2026-04-04T13:08:55.993Z</time></trkpt><trkpt lat="40.144684701137564" lon="18.173769792546388"><ele>69.0</ele><time>2026-04-04T13:08:56.993Z</time></trkpt><trkpt lat="40.14483474032336" lon="18.17391715185696"><ele>69.66666666666667</ele><time>2026-04-04T13:08:57.993Z</time></trkpt><trkpt lat="40.14499062173311" lon="18.17405787887014"><ele>70.33333333333334</ele><time>2026-04-04T13:08:58.993Z</time></trkpt><trkpt lat="40.145146664279586" lon="18.174192276410597"><ele>71.0</ele><time>2026-04-04T13:08:59.993Z</time></trkpt><trkpt lat="40.14530582172816" lon="18.174324617490377"><ele>71.0</ele><time>2026-04-04T13:09:00.993Z</time></trkpt><trkpt lat="40.14546597644286" lon="18.174455198818148"><ele>71.0</ele><time>2026-04-04T13:09:01.993Z</time></trkpt><trkpt lat="40.145631536669235" lon="18.174581723762174"><ele>71.0</ele><time>2026-04-04T13:09:02.993Z</time></trkpt><trkpt lat="40.145792872989425" lon="18.174708262706552"><ele>70.66666666666667</ele><time>2026-04-04T13:09:03.993Z</time></trkpt><trkpt lat="40.14595934732804" lon="18.17483291280479"><ele>70.33333333333333</ele><time>2026-04-04T13:09:04.993Z</time></trkpt><trkpt lat="40.1461187758793" lon="18.17495912573569"><ele>70.0</ele><time>2026-04-04T13:09:05.993Z</time></trkpt><trkpt lat="40.14627998686633" lon="18.175081789273033"><ele>69.66666666666666</ele><time>2026-04-04T13:09:06.993Z</time></trkpt><trkpt lat="40.14643889354105" lon="18.17521031994715"><ele>69.33333333333333</ele><time>2026-04-04T13:09:07.993Z</time></trkpt><trkpt lat="40.14659970173946" lon="18.17533534879206"><ele>69.0</ele><time>2026-04-04T13:09:08.993Z</time></trkpt><trkpt lat="40.14675691319978" lon="18.175456313910626"><ele>68.66666666666667</ele><time>2026-04-04T13:09:09.993Z</time></trkpt><trkpt lat="40.14691359007776" lon="18.175579158401447"><ele>68.33333333333334</ele><time>2026-04-04T13:09:10.993Z</time></trkpt><trkpt lat="40.14707253981688" lon="18.175701349809163"><ele>68.0</ele><time>2026-04-04T13:09:11.993Z</time></trkpt><trkpt lat="40.14723031987444" lon="18.175819864264046"><ele>68.0</ele><time>2026-04-04T13:09:12.993Z</time></trkpt><trkpt lat="40.14738681323568" lon="18.175940662483125"><ele>68.0</ele><time>2026-04-04T13:09:13.993Z</time></trkpt><trkpt lat="40.147544816064595" lon="18.17606223847793"><ele>68.0</ele><time>2026-04-04T13:09:14.993Z</time></trkpt><trkpt lat="40.147701454348145" lon="18.176183477704853"><ele>68.0</ele><time>2026-04-04T13:09:15.993Z</time></trkpt><trkpt lat="40.147856486656366" lon="18.176304642169363"><ele>68.0</ele><time>2026-04-04T13:09:16.993Z</time></trkpt><trkpt lat="40.14800974634036" lon="18.176425305621407"><ele>68.0</ele><time>2026-04-04T13:09:17.993Z</time></trkpt><trkpt lat="40.14815848117549" lon="18.176552342627588"><ele>68.33333333333334</ele><time>2026-04-04T13:09:18.993Z</time></trkpt><trkpt lat="40.148302369327844" lon="18.176689459591945"><ele>68.66666666666667</ele><time>2026-04-04T13:09:19.993Z</time></trkpt><trkpt lat="40.14844804708559" lon="18.176836194296087"><ele>69.0</ele><time>2026-04-04T13:09:20.993Z</time></trkpt><trkpt lat="40.14859201444276" lon="18.176985295178202"><ele>69.0</ele><time>2026-04-04T13:09:21.993Z</time></trkpt><trkpt lat="40.14873316560633" lon="18.17713664585743"><ele>69.0</ele><time>2026-04-04T13:09:22.993Z</time></trkpt><trkpt lat="40.14886968991221" lon="18.177290158678705"><ele>69.0</ele><time>2026-04-04T13:09:23.993Z</time></trkpt><trkpt lat="40.14900559585844" lon="18.177447775059097"><ele>68.66666666666667</ele><time>2026-04-04T13:09:24.993Z</time></trkpt><trkpt lat="40.149140418565445" lon="18.177609859572726"><ele>68.33333333333334</ele><time>2026-04-04T13:09:25.993Z</time></trkpt><trkpt lat="40.14927890550412" lon="18.177776929977"><ele>68.0</ele><time>2026-04-04T13:09:26.993Z</time></trkpt><trkpt lat="40.14941818884462" lon="18.177936065471144"><ele>68.0</ele><time>2026-04-04T13:09:27.993Z</time></trkpt><trkpt lat="40.14955740713722" lon="18.178094711557097"><ele>68.0</ele><time>2026-04-04T13:09:28.993Z</time></trkpt><trkpt lat="40.14969437744914" lon="18.17824928997573"><ele>68.0</ele><time>2026-04-04T13:09:29.993Z</time></trkpt><trkpt lat="40.14983418600833" lon="18.1784078704193"><ele>68.0</ele><time>2026-04-04T13:09:30.993Z</time></trkpt><trkpt lat="40.14997559370436" lon="18.178571160421434"><ele>68.0</ele><time>2026-04-04T13:09:31.993Z</time></trkpt><trkpt lat="40.15011676698606" lon="18.17873535782948"><ele>68.0</ele><time>2026-04-04T13:09:32.993Z</time></trkpt><trkpt lat="40.15025823854159" lon="18.17889798620633"><ele>68.33333333333334</ele><time>2026-04-04T13:09:33.993Z</time></trkpt><trkpt lat="40.1503985284238" lon="18.17906027118504"><ele>68.66666666666667</ele><time>2026-04-04T13:09:34.993Z</time></trkpt><trkpt lat="40.15053321225099" lon="18.179209317334433"><ele>69.0</ele><time>2026-04-04T13:09:35.993Z</time></trkpt><trkpt lat="40.150664915195236" lon="18.179346550404773"><ele>69.5</ele><time>2026-04-04T13:09:36.993Z</time></trkpt><trkpt lat="40.150774718676864" lon="18.17946585330281"><ele>70.0</ele><time>2026-04-04T13:09:37.993Z</time></trkpt><trkpt lat="40.15086658085238" lon="18.17957780764401"><ele>70.5</ele><time>2026-04-04T13:09:38.993Z</time></trkpt><trkpt lat="40.150987882508744" lon="18.179709118162258"><ele>71.0</ele><time>2026-04-04T13:09:39.993Z</time></trkpt><trkpt lat="40.1510489508569" lon="18.179791673603955"><ele>71.16666666666667</ele><time>2026-04-04T13:09:40.993Z</time></trkpt><trkpt lat="40.15108791313259" lon="18.179879792186416"><ele>71.33333333333334</ele><time>2026-04-04T13:09:41.993Z</time></trkpt><trkpt lat="40.15110398566175" lon="18.179992629135004"><ele>71.5</ele><time>2026-04-04T13:09:42.993Z</time></trkpt><trkpt lat="40.15111004481288" lon="18.180120883464284"><ele>71.66666666666667</ele><time>2026-04-04T13:09:43.993Z</time></trkpt><trkpt lat="40.15112308045912" lon="18.18024283294968"><ele>71.83333333333333</ele><time>2026-04-04T13:09:44.993Z</time></trkpt><trkpt lat="40.15116248627545" lon="18.180343458531013"><ele>72.0</ele><time>2026-04-04T13:09:45.993Z</time></trkpt><trkpt lat="40.151230341644975" lon="18.180427724606417"><ele>72.0</ele><time>2026-04-04T13:09:46.993Z</time></trkpt><trkpt lat="40.15131803495186" lon="18.180495171536563"><ele>72.0</ele><time>2026-04-04T13:09:47.993Z</time></trkpt><trkpt lat="40.15143230442834" lon="18.180575527789397"><ele>72.0</ele><time>2026-04-04T13:09:48.993Z</time></trkpt><trkpt lat="40.15154378233506" lon="18.18069508364269"><ele>72.0</ele><time>2026-04-04T13:09:49.993Z</time></trkpt><trkpt lat="40.15164758411851" lon="18.180873681252724"><ele>72.0</ele><time>2026-04-04T13:09:50.993Z</time></trkpt><trkpt lat="40.151744433919866" lon="18.181076545163975"><ele>72.0</ele><time>2026-04-04T13:09:51.993Z</time></trkpt><trkpt lat="40.15184694481204" lon="18.181303495948033"><ele>72.0</ele><time>2026-04-04T13:09:52.993Z</time></trkpt><trkpt lat="40.15196771716518" lon="18.181537901315934"><ele>72.0</ele><time>2026-04-04T13:09:53.993Z</time></trkpt><trkpt lat="40.15210335976151" lon="18.18179441900238"><ele>72.0</ele><time>2026-04-04T13:09:54.993Z</time></trkpt><trkpt lat="40.15224903073826" lon="18.182069583862997"><ele>70.5</ele><time>2026-04-04T13:09:55.993Z</time></trkpt><trkpt lat="40.152400399228846" lon="18.18235573866888"><ele>69.0</ele><time>2026-04-04T13:09:56.993Z</time></trkpt><trkpt lat="40.152559974246145" lon="18.182639513855563"><ele>69.0</ele><time>2026-04-04T13:09:57.993Z</time></trkpt><trkpt lat="40.152727227785235" lon="18.182911422467846"><ele>69.0</ele><time>2026-04-04T13:09:58.993Z</time></trkpt><trkpt lat="40.152898213136055" lon="18.183170191026278"><ele>69.0</ele><time>2026-04-04T13:09:59.993Z</time></trkpt><trkpt lat="40.15309096474826" lon="18.183423224675153"><ele>69.0</ele><time>2026-04-04T13:10:00.993Z</time></trkpt><trkpt lat="40.15329044677726" lon="18.18366038810523"><ele>69.5</ele><time>2026-04-04T13:10:01.993Z</time></trkpt><trkpt lat="40.153552803885106" lon="18.18386430308489"><ele>70.0</ele><time>2026-04-04T13:10:02.993Z</time></trkpt><trkpt lat="40.153769383115055" lon="18.184067142250722"><ele>70.0</ele><time>2026-04-04T13:10:03.993Z</time></trkpt><trkpt lat="40.153988420088325" lon="18.18425223314536"><ele>70.0</ele><time>2026-04-04T13:10:04.992Z</time></trkpt><trkpt lat="40.154209319482234" lon="18.18442425972857"><ele>69.0</ele><time>2026-04-04T13:10:05.992Z</time></trkpt><trkpt lat="40.154441539467946" lon="18.184585639502334"><ele>68.0</ele><time>2026-04-04T13:10:06.992Z</time></trkpt><trkpt lat="40.15467811092219" lon="18.184734973087345"><ele>68.0</ele><time>2026-04-04T13:10:07.992Z</time></trkpt><trkpt lat="40.15492457393497" lon="18.1848621515288"><ele>68.0</ele><time>2026-04-04T13:10:08.992Z</time></trkpt><trkpt lat="40.15517010238991" lon="18.18497580970887"><ele>68.0</ele><time>2026-04-04T13:10:09.992Z</time></trkpt><trkpt lat="40.155424839476304" lon="18.185079920759026"><ele>68.0</ele><time>2026-04-04T13:10:10.992Z</time></trkpt><trkpt lat="40.15568502503873" lon="18.185170401168556"><ele>68.0</ele><time>2026-04-04T13:10:11.992Z</time></trkpt><trkpt lat="40.15595449048808" lon="18.185233406324897"><ele>68.0</ele><time>2026-04-04T13:10:12.992Z</time></trkpt><trkpt lat="40.156218734909146" lon="18.1852841885976"><ele>68.0</ele><time>2026-04-04T13:10:13.992Z</time></trkpt><trkpt lat="40.156481982823045" lon="18.18529605084057"><ele>68.0</ele><time>2026-04-04T13:10:14.992Z</time></trkpt><trkpt lat="40.15674681398641" lon="18.185301325667897"><ele>68.5</ele><time>2026-04-04T13:10:15.992Z</time></trkpt><trkpt lat="40.15701549372911" lon="18.185281870903882"><ele>69.0</ele><time>2026-04-04T13:10:16.992Z</time></trkpt><trkpt lat="40.15728736908136" lon="18.18525680603109"><ele>69.0</ele><time>2026-04-04T13:10:17.992Z</time></trkpt><trkpt lat="40.15754889741269" lon="18.185217616662214"><ele>69.0</ele><time>2026-04-04T13:10:18.992Z</time></trkpt><trkpt lat="40.15778019800754" lon="18.185195711023006"><ele>69.0</ele><time>2026-04-04T13:10:19.992Z</time></trkpt><trkpt lat="40.15799317828836" lon="18.185176813208713"><ele>69.0</ele><time>2026-04-04T13:10:20.992Z</time></trkpt><trkpt lat="40.15820158756259" lon="18.185166261952084"><ele>69.0</ele><time>2026-04-04T13:10:21.992Z</time></trkpt><trkpt lat="40.15840961068395" lon="18.185166524027654"><ele>68.66666666666667</ele><time>2026-04-04T13:10:22.992Z</time></trkpt><trkpt lat="40.15861759399043" lon="18.185177572173586"><ele>68.33333333333334</ele><time>2026-04-04T13:10:23.992Z</time></trkpt><trkpt lat="40.15883302670109" lon="18.185199419457025"><ele>68.0</ele><time>2026-04-04T13:10:24.992Z</time></trkpt><trkpt lat="40.15906002768501" lon="18.18522796637522"><ele>67.0</ele><time>2026-04-04T13:10:25.992Z</time></trkpt><trkpt lat="40.15929081171107" lon="18.185258644922058"><ele>66.0</ele><time>2026-04-04T13:10:26.992Z</time></trkpt><trkpt lat="40.159523923729054" lon="18.185308681505862"><ele>66.0</ele><time>2026-04-04T13:10:27.992Z</time></trkpt><trkpt lat="40.15975914280605" lon="18.18537726392691"><ele>66.0</ele><time>2026-04-04T13:10:28.992Z</time></trkpt><trkpt lat="40.159996884001565" lon="18.18544553732346"><ele>66.0</ele><time>2026-04-04T13:10:29.992Z</time></trkpt><trkpt lat="40.16023925544692" lon="18.185510473498045"><ele>66.0</ele><time>2026-04-04T13:10:30.992Z</time></trkpt><trkpt lat="40.16048377519943" lon="18.185573312429067"><ele>66.5</ele><time>2026-04-04T13:10:31.992Z</time></trkpt><trkpt lat="40.160727787436954" lon="18.18563890247789"><ele>67.0</ele><time>2026-04-04T13:10:32.992Z</time></trkpt><trkpt lat="40.16097774724513" lon="18.185703576231845"><ele>67.0</ele><time>2026-04-04T13:10:33.992Z</time></trkpt><trkpt lat="40.161222253283896" lon="18.18576580674451"><ele>67.0</ele><time>2026-04-04T13:10:34.992Z</time></trkpt><trkpt lat="40.16147237378626" lon="18.185828983892854"><ele>66.5</ele><time>2026-04-04T13:10:35.992Z</time></trkpt><trkpt lat="40.16172056325399" lon="18.185890033867366"><ele>66.0</ele><time>2026-04-04T13:10:36.992Z</time></trkpt><trkpt lat="40.16196963064656" lon="18.185954558342623"><ele>66.0</ele><time>2026-04-04T13:10:37.992Z</time></trkpt><trkpt lat="40.16221788776196" lon="18.18601734157168"><ele>66.0</ele><time>2026-04-04T13:10:38.992Z</time></trkpt><trkpt lat="40.162466744619216" lon="18.18607777892484"><ele>66.0</ele><time>2026-04-04T13:10:39.992Z</time></trkpt><trkpt lat="40.16271076757056" lon="18.186139931018797"><ele>66.0</ele><time>2026-04-04T13:10:40.992Z</time></trkpt><trkpt lat="40.16295584010932" lon="18.186204777023676"><ele>66.5</ele><time>2026-04-04T13:10:41.992Z</time></trkpt><trkpt lat="40.16320538675331" lon="18.18627393590049"><ele>67.0</ele><time>2026-04-04T13:10:42.992Z</time></trkpt><trkpt lat="40.16345099576389" lon="18.18634069201147"><ele>67.0</ele><time>2026-04-04T13:10:43.992Z</time></trkpt><trkpt lat="40.16369195418333" lon="18.186417430161896"><ele>67.0</ele><time>2026-04-04T13:10:44.992Z</time></trkpt><trkpt lat="40.16393682674479" lon="18.186500766223315"><ele>67.0</ele><time>2026-04-04T13:10:45.993Z</time></trkpt><trkpt lat="40.16417272084278" lon="18.186610246345968"><ele>67.0</ele><time>2026-04-04T13:10:46.993Z</time></trkpt><trkpt lat="40.16439910698108" lon="18.186735215145315"><ele>67.0</ele><time>2026-04-04T13:10:47.993Z</time></trkpt><trkpt lat="40.16461775037602" lon="18.18688287415747"><ele>67.0</ele><time>2026-04-04T13:10:48.993Z</time></trkpt><trkpt lat="40.164824685912635" lon="18.187044984683258"><ele>66.5</ele><time>2026-04-04T13:10:49.993Z</time></trkpt><trkpt lat="40.16501652944972" lon="18.187232342447455"><ele>66.0</ele><time>2026-04-04T13:10:50.993Z</time></trkpt><trkpt lat="40.165200440614925" lon="18.187431073009783"><ele>66.0</ele><time>2026-04-04T13:10:51.993Z</time></trkpt><trkpt lat="40.16538086328214" lon="18.187643331865395"><ele>66.0</ele><time>2026-04-04T13:10:52.993Z</time></trkpt><trkpt lat="40.165542167113664" lon="18.187875975899022"><ele>66.0</ele><time>2026-04-04T13:10:53.993Z</time></trkpt><trkpt lat="40.16569375465078" lon="18.188124007556844"><ele>66.0</ele><time>2026-04-04T13:10:54.993Z</time></trkpt><trkpt lat="40.16583303548663" lon="18.188386144531155"><ele>66.0</ele><time>2026-04-04T13:10:55.993Z</time></trkpt><trkpt lat="40.16596627076275" lon="18.188637539897687"><ele>66.0</ele><time>2026-04-04T13:10:56.993Z</time></trkpt><trkpt lat="40.16611018408055" lon="18.188896397337633"><ele>66.0</ele><time>2026-04-04T13:10:57.993Z</time></trkpt><trkpt lat="40.16625510882756" lon="18.189150089083803"><ele>66.0</ele><time>2026-04-04T13:10:58.992Z</time></trkpt><trkpt lat="40.16640167681431" lon="18.18939490635831"><ele>65.5</ele><time>2026-04-04T13:10:59.992Z</time></trkpt><trkpt lat="40.16656100539463" lon="18.189642812175528"><ele>65.0</ele><time>2026-04-04T13:11:00.992Z</time></trkpt><trkpt lat="40.166727461173345" lon="18.189884534312768"><ele>64.0</ele><time>2026-04-04T13:11:01.992Z</time></trkpt><trkpt lat="40.166903878169435" lon="18.19011433999484"><ele>63.0</ele><time>2026-04-04T13:11:02.992Z</time></trkpt><trkpt lat="40.167093041545556" lon="18.19033556030476"><ele>63.0</ele><time>2026-04-04T13:11:03.992Z</time></trkpt><trkpt lat="40.167289451045725" lon="18.190543829099546"><ele>63.0</ele><time>2026-04-04T13:11:04.992Z</time></trkpt><trkpt lat="40.167498204623946" lon="18.1907348684923"><ele>64.5</ele><time>2026-04-04T13:11:05.992Z</time></trkpt><trkpt lat="40.1677126700949" lon="18.190912760491013"><ele>66.0</ele><time>2026-04-04T13:11:06.992Z</time></trkpt><trkpt lat="40.16793146107528" lon="18.191078830812916"><ele>66.0</ele><time>2026-04-04T13:11:07.992Z</time></trkpt><trkpt lat="40.16815406273288" lon="18.191229376529794"><ele>66.0</ele><time>2026-04-04T13:11:08.992Z</time></trkpt><trkpt lat="40.1683742608511" lon="18.191367948613344"><ele>67.0</ele><time>2026-04-04T13:11:09.992Z</time></trkpt><trkpt lat="40.1685940073827" lon="18.191498365700244"><ele>68.0</ele><time>2026-04-04T13:11:10.992Z</time></trkpt><trkpt lat="40.16881041359266" lon="18.191620458222943"><ele>68.33333333333334</ele><time>2026-04-04T13:11:11.992Z</time></trkpt><trkpt lat="40.16902708519696" lon="18.191739463948178"><ele>68.66666666666667</ele><time>2026-04-04T13:11:12.992Z</time></trkpt><trkpt lat="40.16921993415777" lon="18.191847825601865"><ele>69.0</ele><time>2026-04-04T13:11:13.992Z</time></trkpt><trkpt lat="40.16940277840838" lon="18.19194681538985"><ele>69.0</ele><time>2026-04-04T13:11:14.992Z</time></trkpt><trkpt lat="40.16957152242154" lon="18.192039301107556"><ele>69.0</ele><time>2026-04-04T13:11:15.992Z</time></trkpt><trkpt lat="40.16972384387908" lon="18.192128317075024"><ele>69.0</ele><time>2026-04-04T13:11:16.992Z</time></trkpt><trkpt lat="40.16986745195738" lon="18.192209428893044"><ele>69.2</ele><time>2026-04-04T13:11:17.992Z</time></trkpt><trkpt lat="40.169988116803246" lon="18.19227930423958"><ele>69.4</ele><time>2026-04-04T13:11:18.992Z</time></trkpt><trkpt lat="40.170091401874075" lon="18.192342802101866"><ele>69.6</ele><time>2026-04-04T13:11:19.992Z</time></trkpt><trkpt lat="40.17017702910668" lon="18.19240014255935"><ele>69.8</ele><time>2026-04-04T13:11:20.992Z</time></trkpt><trkpt lat="40.1702400335339" lon="18.19244351049344"><ele>70.0</ele><time>2026-04-04T13:11:21.992Z</time></trkpt><trkpt lat="40.170304756522334" lon="18.19251631340674"><ele>70.0</ele><time>2026-04-04T13:11:23.992Z</time></trkpt><trkpt lat="40.17035504248248" lon="18.19256910048199"><ele>70.0</ele><time>2026-04-04T13:11:25.992Z</time></trkpt><trkpt lat="40.170441107973524" lon="18.192710772537307"><ele>70.0</ele><time>2026-04-04T13:11:27.992Z</time></trkpt><trkpt lat="40.17049014590023" lon="18.192789297413917"><ele>70.0</ele><time>2026-04-04T13:11:28.992Z</time></trkpt><trkpt lat="40.170553863044" lon="18.192851070788166"><ele>70.0</ele><time>2026-04-04T13:11:29.992Z</time></trkpt><trkpt lat="40.170626498518" lon="18.19289031383758"><ele>70.0</ele><time>2026-04-04T13:11:30.992Z</time></trkpt><trkpt lat="40.17070174410798" lon="18.19290488144551"><ele>70.0</ele><time>2026-04-04T13:11:31.992Z</time></trkpt><trkpt lat="40.17079204415581" lon="18.19289971730969"><ele>70.0</ele><time>2026-04-04T13:11:32.992Z</time></trkpt><trkpt lat="40.17088854529421" lon="18.19287319063609"><ele>70.0</ele><time>2026-04-04T13:11:33.992Z</time></trkpt><trkpt lat="40.17098796629311" lon="18.192842596894074"><ele>70.0</ele><time>2026-04-04T13:11:34.992Z</time></trkpt><trkpt lat="40.17109340965604" lon="18.19283444606793"><ele>70.0</ele><time>2026-04-04T13:11:35.992Z</time></trkpt><trkpt lat="40.17119722105932" lon="18.192856445941825"><ele>70.0</ele><time>2026-04-04T13:11:36.992Z</time></trkpt><trkpt lat="40.17130742023199" lon="18.192914179581837"><ele>70.0</ele><time>2026-04-04T13:11:37.992Z</time></trkpt><trkpt lat="40.17141191807901" lon="18.192984471346396"><ele>70.0</ele><time>2026-04-04T13:11:38.992Z</time></trkpt><trkpt lat="40.1715249737215" lon="18.193078186009018"><ele>70.0</ele><time>2026-04-04T13:11:39.992Z</time></trkpt><trkpt lat="40.1716483349888" lon="18.193168291187877"><ele>69.5</ele><time>2026-04-04T13:11:40.992Z</time></trkpt><trkpt lat="40.171778589112" lon="18.193256922504304"><ele>69.0</ele><time>2026-04-04T13:11:41.992Z</time></trkpt><trkpt lat="40.17189842991885" lon="18.193350163424736"><ele>68.5</ele><time>2026-04-04T13:11:42.992Z</time></trkpt><trkpt lat="40.172011463286026" lon="18.193436049946182"><ele>68.0</ele><time>2026-04-04T13:11:43.992Z</time></trkpt><trkpt lat="40.17211953558649" lon="18.193514151022743"><ele>68.0</ele><time>2026-04-04T13:11:44.992Z</time></trkpt><trkpt lat="40.172231886422395" lon="18.19358604829642"><ele>68.0</ele><time>2026-04-04T13:11:45.992Z</time></trkpt><trkpt lat="40.17234890493549" lon="18.19366016823668"><ele>68.0</ele><time>2026-04-04T13:11:46.992Z</time></trkpt><trkpt lat="40.172466772800334" lon="18.193726403030443"><ele>68.0</ele><time>2026-04-04T13:11:47.992Z</time></trkpt><trkpt lat="40.1725925100127" lon="18.193792013171443"><ele>68.0</ele><time>2026-04-04T13:11:48.992Z</time></trkpt><trkpt lat="40.1727292161273" lon="18.193854524871924"><ele>68.0</ele><time>2026-04-04T13:11:49.992Z</time></trkpt><trkpt lat="40.17287393599681" lon="18.19391373357185"><ele>68.0</ele><time>2026-04-04T13:11:50.992Z</time></trkpt><trkpt lat="40.17301692927662" lon="18.19396553634673"><ele>68.0</ele><time>2026-04-04T13:11:51.992Z</time></trkpt><trkpt lat="40.17316879742148" lon="18.1940062283025"><ele>69.33333333333334</ele><time>2026-04-04T13:11:52.992Z</time></trkpt><trkpt lat="40.173318931376976" lon="18.194035530357926"><ele>70.66666666666667</ele><time>2026-04-04T13:11:53.992Z</time></trkpt><trkpt lat="40.17347261614049" lon="18.194061180706974"><ele>72.0</ele><time>2026-04-04T13:11:54.992Z</time></trkpt><trkpt lat="40.173637715551884" lon="18.194079257118545"><ele>72.0</ele><time>2026-04-04T13:11:55.992Z</time></trkpt><trkpt lat="40.173808951811374" lon="18.19409523144209"><ele>72.0</ele><time>2026-04-04T13:11:56.992Z</time></trkpt><trkpt lat="40.173974497361485" lon="18.194092791186588"><ele>72.0</ele><time>2026-04-04T13:11:57.992Z</time></trkpt><trkpt lat="40.17413290199918" lon="18.194078544215074"><ele>72.33333333333333</ele><time>2026-04-04T13:11:58.992Z</time></trkpt><trkpt lat="40.174289404497706" lon="18.1940531589041"><ele>72.66666666666666</ele><time>2026-04-04T13:11:59.992Z</time></trkpt><trkpt lat="40.17444638753186" lon="18.194026428781406"><ele>73.0</ele><time>2026-04-04T13:12:00.992Z</time></trkpt><trkpt lat="40.174605472594294" lon="18.193994371054337"><ele>72.33333333333333</ele><time>2026-04-04T13:12:01.992Z</time></trkpt><trkpt lat="40.174766399681275" lon="18.193955967068472"><ele>71.66666666666667</ele><time>2026-04-04T13:12:02.992Z</time></trkpt><trkpt lat="40.17493438996432" lon="18.193917872039815"><ele>71.0</ele><time>2026-04-04T13:12:03.992Z</time></trkpt><trkpt lat="40.17511069433674" lon="18.193876226523784"><ele>71.0</ele><time>2026-04-04T13:12:04.992Z</time></trkpt><trkpt lat="40.17528901227028" lon="18.193833308319665"><ele>71.0</ele><time>2026-04-04T13:12:05.992Z</time></trkpt><trkpt lat="40.17546998080254" lon="18.193793107030576"><ele>71.0</ele><time>2026-04-04T13:12:06.992Z</time></trkpt><trkpt lat="40.17565052888603" lon="18.19375361995515"><ele>71.33333333333334</ele><time>2026-04-04T13:12:07.992Z</time></trkpt><trkpt lat="40.17583647336141" lon="18.19371233498461"><ele>71.66666666666667</ele><time>2026-04-04T13:12:08.992Z</time></trkpt><trkpt lat="40.17602439204014" lon="18.193677097890326"><ele>72.0</ele><time>2026-04-04T13:12:09.992Z</time></trkpt><trkpt lat="40.17621295967809" lon="18.19363222040245"><ele>72.0</ele><time>2026-04-04T13:12:10.992Z</time></trkpt><trkpt lat="40.17640338461009" lon="18.193586390005432"><ele>72.0</ele><time>2026-04-04T13:12:11.992Z</time></trkpt><trkpt lat="40.17659339626626" lon="18.1935535553562"><ele>72.0</ele><time>2026-04-04T13:12:12.992Z</time></trkpt><trkpt lat="40.1767904754576" lon="18.193504738437408"><ele>72.0</ele><time>2026-04-04T13:12:13.992Z</time></trkpt><trkpt lat="40.17698959649425" lon="18.193455316477795"><ele>72.0</ele><time>2026-04-04T13:12:14.992Z</time></trkpt><trkpt lat="40.17719017345492" lon="18.19340563407809"><ele>72.0</ele><time>2026-04-04T13:12:15.992Z</time></trkpt><trkpt lat="40.1773934622527" lon="18.193345280344232"><ele>72.0</ele><time>2026-04-04T13:12:16.992Z</time></trkpt><trkpt lat="40.17760120082488" lon="18.19325926586238"><ele>72.0</ele><time>2026-04-04T13:12:17.992Z</time></trkpt><trkpt lat="40.17780978109394" lon="18.193170116696518"><ele>72.0</ele><time>2026-04-04T13:12:18.992Z</time></trkpt><trkpt lat="40.178018524151625" lon="18.19306414685906"><ele>73.5</ele><time>2026-04-04T13:12:19.992Z</time></trkpt><trkpt lat="40.17823042068871" lon="18.192942341572493"><ele>75.0</ele><time>2026-04-04T13:12:20.992Z</time></trkpt><trkpt lat="40.178441507917015" lon="18.192805087863253"><ele>75.0</ele><time>2026-04-04T13:12:21.992Z</time></trkpt><trkpt lat="40.17864894650048" lon="18.192660128124732"><ele>75.0</ele><time>2026-04-04T13:12:22.992Z</time></trkpt><trkpt lat="40.178838727119356" lon="18.192506808883145"><ele>75.0</ele><time>2026-04-04T13:12:23.992Z</time></trkpt><trkpt lat="40.17901367144935" lon="18.19235732182152"><ele>75.0</ele><time>2026-04-04T13:12:24.992Z</time></trkpt><trkpt lat="40.17918862974346" lon="18.192204189035365"><ele>75.0</ele><time>2026-04-04T13:12:25.992Z</time></trkpt><trkpt lat="40.17937179389312" lon="18.192049045861165"><ele>74.0</ele><time>2026-04-04T13:12:26.992Z</time></trkpt><trkpt lat="40.17955928605201" lon="18.191898799441248"><ele>73.0</ele><time>2026-04-04T13:12:27.992Z</time></trkpt><trkpt lat="40.179752380058254" lon="18.191742513556548"><ele>72.0</ele><time>2026-04-04T13:12:28.992Z</time></trkpt><trkpt lat="40.17994906913926" lon="18.19157865930413"><ele>72.0</ele><time>2026-04-04T13:12:29.992Z</time></trkpt><trkpt lat="40.18014746679006" lon="18.191414107834685"><ele>72.0</ele><time>2026-04-04T13:12:30.992Z</time></trkpt><trkpt lat="40.180352212063234" lon="18.191247868249032"><ele>72.0</ele><time>2026-04-04T13:12:31.992Z</time></trkpt><trkpt lat="40.180567132719844" lon="18.191082096204667"><ele>72.0</ele><time>2026-04-04T13:12:32.992Z</time></trkpt><trkpt lat="40.18078451266899" lon="18.190912127333913"><ele>71.5</ele><time>2026-04-04T13:12:33.992Z</time></trkpt><trkpt lat="40.18100570530525" lon="18.190731334636784"><ele>71.0</ele><time>2026-04-04T13:12:34.992Z</time></trkpt><trkpt lat="40.18123785500813" lon="18.190528136606027"><ele>71.0</ele><time>2026-04-04T13:12:35.992Z</time></trkpt><trkpt lat="40.18146732544711" lon="18.190334481310057"><ele>71.0</ele><time>2026-04-04T13:12:36.992Z</time></trkpt><trkpt lat="40.18170342073977" lon="18.19014564027147"><ele>70.5</ele><time>2026-04-04T13:12:37.992Z</time></trkpt><trkpt lat="40.18194079387782" lon="18.189953951817643"><ele>70.0</ele><time>2026-04-04T13:12:38.992Z</time></trkpt><trkpt lat="40.18217272320551" lon="18.189769469439277"><ele>70.0</ele><time>2026-04-04T13:12:39.992Z</time></trkpt><trkpt lat="40.182393599007696" lon="18.1895766831703"><ele>70.0</ele><time>2026-04-04T13:12:40.992Z</time></trkpt><trkpt lat="40.182626522891454" lon="18.18938992449677"><ele>70.0</ele><time>2026-04-04T13:12:41.992Z</time></trkpt><trkpt lat="40.182854554705884" lon="18.189204626989483"><ele>70.0</ele><time>2026-04-04T13:12:42.992Z</time></trkpt><trkpt lat="40.18307909583332" lon="18.189021884332952"><ele>71.5</ele><time>2026-04-04T13:12:43.992Z</time></trkpt><trkpt lat="40.183294320784825" lon="18.188834930678503"><ele>73.0</ele><time>2026-04-04T13:12:44.992Z</time></trkpt><trkpt lat="40.183515565422525" lon="18.188651471993072"><ele>73.0</ele><time>2026-04-04T13:12:45.992Z</time></trkpt><trkpt lat="40.18373309847548" lon="18.188471783238946"><ele>73.0</ele><time>2026-04-04T13:12:46.991Z</time></trkpt><trkpt lat="40.18394761101196" lon="18.188300738862754"><ele>73.0</ele><time>2026-04-04T13:12:47.991Z</time></trkpt><trkpt lat="40.18415775948466" lon="18.18812180702343"><ele>73.0</ele><time>2026-04-04T13:12:48.991Z</time></trkpt><trkpt lat="40.18436973516838" lon="18.187936723568722"><ele>73.0</ele><time>2026-04-04T13:12:49.991Z</time></trkpt><trkpt lat="40.18457490210062" lon="18.18773428214688"><ele>73.0</ele><time>2026-04-04T13:12:50.992Z</time></trkpt><trkpt lat="40.18478494039655" lon="18.18752431210936"><ele>71.5</ele><time>2026-04-04T13:12:51.993Z</time></trkpt><trkpt lat="40.18498907898758" lon="18.187306040191796"><ele>70.0</ele><time>2026-04-04T13:12:52.993Z</time></trkpt><trkpt lat="40.18519066256828" lon="18.18707758456569"><ele>70.0</ele><time>2026-04-04T13:12:53.993Z</time></trkpt><trkpt lat="40.185394256669674" lon="18.186859045577048"><ele>70.0</ele><time>2026-04-04T13:12:54.992Z</time></trkpt><trkpt lat="40.185602341935635" lon="18.186636194157398"><ele>69.5</ele><time>2026-04-04T13:12:55.992Z</time></trkpt><trkpt lat="40.18581404616726" lon="18.186405093800726"><ele>69.0</ele><time>2026-04-04T13:12:56.992Z</time></trkpt><trkpt lat="40.18603227332294" lon="18.186185998557857"><ele>69.0</ele><time>2026-04-04T13:12:57.992Z</time></trkpt><trkpt lat="40.186228516321755" lon="18.185975348353743"><ele>69.0</ele><time>2026-04-04T13:12:58.992Z</time></trkpt><trkpt lat="40.18640791359965" lon="18.18577252920326"><ele>69.0</ele><time>2026-04-04T13:12:59.993Z</time></trkpt><trkpt lat="40.18656977379599" lon="18.18558759221366"><ele>69.0</ele><time>2026-04-04T13:13:00.992Z</time></trkpt><trkpt lat="40.186726001377075" lon="18.185419119774533"><ele>69.0</ele><time>2026-04-04T13:13:01.992Z</time></trkpt><trkpt lat="40.18687069673671" lon="18.18525827174187"><ele>69.0</ele><time>2026-04-04T13:13:02.992Z</time></trkpt><trkpt lat="40.187012689908926" lon="18.185106496986783"><ele>69.0</ele><time>2026-04-04T13:13:03.992Z</time></trkpt><trkpt lat="40.1871426536926" lon="18.184963469741003"><ele>69.0</ele><time>2026-04-04T13:13:04.992Z</time></trkpt><trkpt lat="40.187262585512244" lon="18.18483482692589"><ele>68.5</ele><time>2026-04-04T13:13:05.992Z</time></trkpt><trkpt lat="40.187376461969706" lon="18.184722533228868"><ele>68.0</ele><time>2026-04-04T13:13:06.992Z</time></trkpt><trkpt lat="40.187482485207575" lon="18.184624213159097"><ele>67.5</ele><time>2026-04-04T13:13:07.992Z</time></trkpt><trkpt lat="40.18757239527641" lon="18.184562108832928"><ele>67.0</ele><time>2026-04-04T13:13:08.992Z</time></trkpt><trkpt lat="40.18765792900506" lon="18.184537495604502"><ele>67.0</ele><time>2026-04-04T13:13:09.992Z</time></trkpt><trkpt lat="40.187756952438285" lon="18.18455173752041"><ele>67.0</ele><time>2026-04-04T13:13:10.992Z</time></trkpt><trkpt lat="40.18786750772742" lon="18.18458618547544"><ele>67.0</ele><time>2026-04-04T13:13:11.992Z</time></trkpt><trkpt lat="40.18798156844594" lon="18.18459465190637"><ele>67.0</ele><time>2026-04-04T13:13:12.992Z</time></trkpt><trkpt lat="40.18808530172846" lon="18.184544365528573"><ele>67.0</ele><time>2026-04-04T13:13:13.992Z</time></trkpt><trkpt lat="40.18817754950254" lon="18.184459546981618"><ele>67.5</ele><time>2026-04-04T13:13:14.992Z</time></trkpt><trkpt lat="40.18825554380953" lon="18.184330306335184"><ele>68.0</ele><time>2026-04-04T13:13:15.992Z</time></trkpt><trkpt lat="40.18833538046597" lon="18.18418354505825"><ele>68.5</ele><time>2026-04-04T13:13:16.992Z</time></trkpt><trkpt lat="40.18842786917284" lon="18.184052720415913"><ele>69.0</ele><time>2026-04-04T13:13:17.992Z</time></trkpt><trkpt lat="40.18856619745677" lon="18.183942669622244"><ele>69.0</ele><time>2026-04-04T13:13:18.992Z</time></trkpt><trkpt lat="40.18874098192244" lon="18.183850979587262"><ele>69.0</ele><time>2026-04-04T13:13:19.992Z</time></trkpt><trkpt lat="40.18894013636989" lon="18.183773695059045"><ele>69.0</ele><time>2026-04-04T13:13:20.992Z</time></trkpt><trkpt lat="40.18915557274299" lon="18.183691077588705"><ele>69.0</ele><time>2026-04-04T13:13:21.992Z</time></trkpt><trkpt lat="40.18938612636062" lon="18.183595873236733"><ele>69.0</ele><time>2026-04-04T13:13:22.992Z</time></trkpt><trkpt lat="40.189625485386316" lon="18.18349545034186"><ele>68.0</ele><time>2026-04-04T13:13:23.992Z</time></trkpt><trkpt lat="40.18986989706732" lon="18.18339060280461"><ele>67.0</ele><time>2026-04-04T13:13:24.992Z</time></trkpt><trkpt lat="40.19012363621332" lon="18.18328330346587"><ele>67.0</ele><time>2026-04-04T13:13:25.992Z</time></trkpt><trkpt lat="40.19037854796867" lon="18.183170940142674"><ele>67.0</ele><time>2026-04-04T13:13:26.992Z</time></trkpt><trkpt lat="40.190615308161405" lon="18.183071998051926"><ele>67.66666666666666</ele><time>2026-04-04T13:13:27.992Z</time></trkpt><trkpt lat="40.190819593483276" lon="18.18297855203584"><ele>68.33333333333333</ele><time>2026-04-04T13:13:28.992Z</time></trkpt><trkpt lat="40.19101727983965" lon="18.18288602705838"><ele>69.0</ele><time>2026-04-04T13:13:29.992Z</time></trkpt><trkpt lat="40.191209222476736" lon="18.18279549032394"><ele>69.0</ele><time>2026-04-04T13:13:30.992Z</time></trkpt><trkpt lat="40.19139495797079" lon="18.182712759030736"><ele>69.0</ele><time>2026-04-04T13:13:31.992Z</time></trkpt><trkpt lat="40.191567897279576" lon="18.182638248677684"><ele>69.0</ele><time>2026-04-04T13:13:32.992Z</time></trkpt><trkpt lat="40.191733125810515" lon="18.182567325714114"><ele>69.0</ele><time>2026-04-04T13:13:33.992Z</time></trkpt><trkpt lat="40.19189792733063" lon="18.182489732903086"><ele>69.0</ele><time>2026-04-04T13:13:34.992Z</time></trkpt><trkpt lat="40.19206153124376" lon="18.18241291061054"><ele>69.0</ele><time>2026-04-04T13:13:35.992Z</time></trkpt><trkpt lat="40.19222339568517" lon="18.18233566803667"><ele>69.66666666666667</ele><time>2026-04-04T13:13:36.992Z</time></trkpt><trkpt lat="40.19237286054907" lon="18.182264429639655"><ele>70.33333333333334</ele><time>2026-04-04T13:13:37.992Z</time></trkpt><trkpt lat="40.19251647836026" lon="18.18219698125361"><ele>71.0</ele><time>2026-04-04T13:13:38.992Z</time></trkpt><trkpt lat="40.192653611169305" lon="18.182140000751055"><ele>71.0</ele><time>2026-04-04T13:13:39.992Z</time></trkpt><trkpt lat="40.192778942998665" lon="18.182084937935123"><ele>71.0</ele><time>2026-04-04T13:13:40.992Z</time></trkpt><trkpt lat="40.19289649597597" lon="18.182033452494892"><ele>71.0</ele><time>2026-04-04T13:13:41.992Z</time></trkpt><trkpt lat="40.193002219151104" lon="18.181988130215075"><ele>71.0</ele><time>2026-04-04T13:13:42.992Z</time></trkpt><trkpt lat="40.19310241406343" lon="18.181950999604457"><ele>70.6</ele><time>2026-04-04T13:13:43.991Z</time></trkpt><trkpt lat="40.19319720920212" lon="18.181918936374533"><ele>70.19999999999999</ele><time>2026-04-04T13:13:44.991Z</time></trkpt><trkpt lat="40.19328931715886" lon="18.181906744325772"><ele>69.80000000000001</ele><time>2026-04-04T13:13:45.991Z</time></trkpt><trkpt lat="40.1933775545381" lon="18.181910690371282"><ele>69.4</ele><time>2026-04-04T13:13:46.991Z</time></trkpt><trkpt lat="40.193474943959565" lon="18.181937353997544"><ele>69.0</ele><time>2026-04-04T13:13:47.991Z</time></trkpt><trkpt lat="40.19357098787583" lon="18.18196370292765"><ele>69.0</ele><time>2026-04-04T13:13:48.991Z</time></trkpt><trkpt lat="40.193666818574464" lon="18.181970974755092"><ele>69.0</ele><time>2026-04-04T13:13:49.991Z</time></trkpt><trkpt lat="40.19376095652584" lon="18.181934249814677"><ele>69.0</ele><time>2026-04-04T13:13:50.991Z</time></trkpt><trkpt lat="40.19384969290932" lon="18.181866968081142"><ele>69.0</ele><time>2026-04-04T13:13:51.991Z</time></trkpt><trkpt lat="40.19391369254261" lon="18.181774068804096"><ele>69.0</ele><time>2026-04-04T13:13:52.991Z</time></trkpt><trkpt lat="40.193969590095186" lon="18.181655029678655"><ele>68.75</ele><time>2026-04-04T13:13:53.991Z</time></trkpt><trkpt lat="40.19401864653582" lon="18.181520954824528"><ele>68.5</ele><time>2026-04-04T13:13:54.991Z</time></trkpt><trkpt lat="40.194078702286234" lon="18.1813870591725"><ele>68.25</ele><time>2026-04-04T13:13:55.991Z</time></trkpt><trkpt lat="40.19418797894071" lon="18.181242681972183"><ele>68.0</ele><time>2026-04-04T13:13:56.991Z</time></trkpt><trkpt lat="40.19435053307589" lon="18.18111097711753"><ele>68.0</ele><time>2026-04-04T13:13:57.991Z</time></trkpt><trkpt lat="40.19454220617852" lon="18.180974457386522"><ele>68.0</ele><time>2026-04-04T13:13:58.991Z</time></trkpt><trkpt lat="40.194746736443975" lon="18.180832044945877"><ele>68.0</ele><time>2026-04-04T13:13:59.991Z</time></trkpt><trkpt lat="40.1949759868416" lon="18.180667103351055"><ele>68.0</ele><time>2026-04-04T13:14:00.991Z</time></trkpt><trkpt lat="40.19520833348688" lon="18.180482830931066"><ele>68.0</ele><time>2026-04-04T13:14:01.991Z</time></trkpt><trkpt lat="40.195449481598985" lon="18.180289422741687"><ele>68.0</ele><time>2026-04-04T13:14:02.991Z</time></trkpt><trkpt lat="40.195696811393596" lon="18.18010007407851"><ele>68.0</ele><time>2026-04-04T13:14:03.991Z</time></trkpt><trkpt lat="40.19594791623914" lon="18.179917141768264"><ele>68.0</ele><time>2026-04-04T13:14:04.991Z</time></trkpt><trkpt lat="40.196206564919606" lon="18.1797338660561"><ele>67.5</ele><time>2026-04-04T13:14:05.991Z</time></trkpt><trkpt lat="40.19646375276186" lon="18.17955094164212"><ele>67.0</ele><time>2026-04-04T13:14:06.991Z</time></trkpt><trkpt lat="40.19671886875664" lon="18.17936780608493"><ele>67.0</ele><time>2026-04-04T13:14:07.991Z</time></trkpt><trkpt lat="40.19697265204696" lon="18.179189593011284"><ele>67.0</ele><time>2026-04-04T13:14:08.991Z</time></trkpt><trkpt lat="40.19723297249217" lon="18.17901874785202"><ele>66.5</ele><time>2026-04-04T13:14:09.991Z</time></trkpt><trkpt lat="40.197507633732485" lon="18.178872970985648"><ele>66.0</ele><time>2026-04-04T13:14:10.991Z</time></trkpt><trkpt lat="40.197790398216405" lon="18.178738626563426"><ele>66.0</ele><time>2026-04-04T13:14:11.991Z</time></trkpt><trkpt lat="40.19807898687569" lon="18.178617521602558"><ele>66.0</ele><time>2026-04-04T13:14:12.991Z</time></trkpt><trkpt lat="40.19837257682609" lon="18.178496485055778"><ele>65.5</ele><time>2026-04-04T13:14:13.991Z</time></trkpt><trkpt lat="40.19866278776681" lon="18.17837489498809"><ele>65.0</ele><time>2026-04-04T13:14:14.991Z</time></trkpt><trkpt lat="40.198946872785555" lon="18.178254955093756"><ele>64.5</ele><time>2026-04-04T13:14:15.991Z</time></trkpt><trkpt lat="40.19922873140938" lon="18.178135376719954"><ele>64.0</ele><time>2026-04-04T13:14:16.991Z</time></trkpt><trkpt lat="40.19950750133815" lon="18.17801525033763"><ele>64.0</ele><time>2026-04-04T13:14:17.991Z</time></trkpt><trkpt lat="40.19978907037323" lon="18.177893688528577"><ele>64.0</ele><time>2026-04-04T13:14:18.991Z</time></trkpt><trkpt lat="40.20006621966052" lon="18.1777693863297"><ele>65.0</ele><time>2026-04-04T13:14:19.991Z</time></trkpt><trkpt lat="40.20034263913613" lon="18.17765251212918"><ele>66.0</ele><time>2026-04-04T13:14:20.991Z</time></trkpt><trkpt lat="40.20062298492237" lon="18.177530196587504"><ele>66.0</ele><time>2026-04-04T13:14:21.991Z</time></trkpt><trkpt lat="40.20089223877842" lon="18.17741376216173"><ele>66.0</ele><time>2026-04-04T13:14:22.991Z</time></trkpt><trkpt lat="40.20115477665048" lon="18.177304225518213"><ele>66.0</ele><time>2026-04-04T13:14:23.991Z</time></trkpt><trkpt lat="40.20138323595852" lon="18.17720512946248"><ele>66.0</ele><time>2026-04-04T13:14:24.991Z</time></trkpt><trkpt lat="40.2015962324727" lon="18.17710623447845"><ele>65.33333333333333</ele><time>2026-04-04T13:14:25.991Z</time></trkpt><trkpt lat="40.201799337922175" lon="18.177013064252762"><ele>64.66666666666666</ele><time>2026-04-04T13:14:26.991Z</time></trkpt><trkpt lat="40.20198335071366" lon="18.17693411771438"><ele>64.0</ele><time>2026-04-04T13:14:27.991Z</time></trkpt><trkpt lat="40.20214983730137" lon="18.17685016966217"><ele>64.0</ele><time>2026-04-04T13:14:28.991Z</time></trkpt><trkpt lat="40.20230287983029" lon="18.17678351631646"><ele>64.0</ele><time>2026-04-04T13:14:29.991Z</time></trkpt><trkpt lat="40.202448260130225" lon="18.176721753287605"><ele>64.0</ele><time>2026-04-04T13:14:30.991Z</time></trkpt><trkpt lat="40.20257209491011" lon="18.176686195637576"><ele>64.0</ele><time>2026-04-04T13:14:31.991Z</time></trkpt><trkpt lat="40.20268275078273" lon="18.176664504535488"><ele>64.2</ele><time>2026-04-04T13:14:32.991Z</time></trkpt><trkpt lat="40.20278514665619" lon="18.176686238721597"><ele>64.4</ele><time>2026-04-04T13:14:33.991Z</time></trkpt><trkpt lat="40.20287884150005" lon="18.176738055154164"><ele>64.6</ele><time>2026-04-04T13:14:34.991Z</time></trkpt><trkpt lat="40.202970238860175" lon="18.176797575220174"><ele>64.8</ele><time>2026-04-04T13:14:35.991Z</time></trkpt><trkpt lat="40.203069298986726" lon="18.176824505869657"><ele>65.0</ele><time>2026-04-04T13:14:36.991Z</time></trkpt><trkpt lat="40.203172501183836" lon="18.17680331418612"><ele>65.0</ele><time>2026-04-04T13:14:37.991Z</time></trkpt><trkpt lat="40.203266458598726" lon="18.17674924362146"><ele>65.0</ele><time>2026-04-04T13:14:38.991Z</time></trkpt><trkpt lat="40.20334665486326" lon="18.176644019447505"><ele>65.0</ele><time>2026-04-04T13:14:39.991Z</time></trkpt><trkpt lat="40.203424471946484" lon="18.17651594342255"><ele>65.0</ele><time>2026-04-04T13:14:40.991Z</time></trkpt><trkpt lat="40.2035184979854" lon="18.176385398215935"><ele>64.66666666666667</ele><time>2026-04-04T13:14:41.991Z</time></trkpt><trkpt lat="40.20363265601563" lon="18.176278427651596"><ele>64.33333333333333</ele><time>2026-04-04T13:14:42.991Z</time></trkpt><trkpt lat="40.20379097104102" lon="18.17618915723697"><ele>64.0</ele><time>2026-04-04T13:14:43.991Z</time></trkpt><trkpt lat="40.20397243751221" lon="18.176110346506874"><ele>63.0</ele><time>2026-04-04T13:14:44.991Z</time></trkpt><trkpt lat="40.204188331177896" lon="18.176030768207166"><ele>62.0</ele><time>2026-04-04T13:14:45.991Z</time></trkpt><trkpt lat="40.204411663596275" lon="18.175940296978965"><ele>62.0</ele><time>2026-04-04T13:14:46.991Z</time></trkpt><trkpt lat="40.20465313857581" lon="18.175835956809944"><ele>62.0</ele><time>2026-04-04T13:14:47.991Z</time></trkpt><trkpt lat="40.20490778880617" lon="18.17572515493372"><ele>63.0</ele><time>2026-04-04T13:14:48.991Z</time></trkpt><trkpt lat="40.20516126377284" lon="18.175616600104416"><ele>64.0</ele><time>2026-04-04T13:14:49.991Z</time></trkpt><trkpt lat="40.205417361790474" lon="18.175505721392643"><ele>63.5</ele><time>2026-04-04T13:14:50.991Z</time></trkpt><trkpt lat="40.20567054312744" lon="18.17538897264715"><ele>63.0</ele><time>2026-04-04T13:14:51.991Z</time></trkpt><trkpt lat="40.20592815261243" lon="18.17526948737329"><ele>63.0</ele><time>2026-04-04T13:14:52.991Z</time></trkpt><trkpt lat="40.20619050583749" lon="18.17514948486428"><ele>63.0</ele><time>2026-04-04T13:14:53.991Z</time></trkpt><trkpt lat="40.20645414948655" lon="18.175031723399353"><ele>63.0</ele><time>2026-04-04T13:14:54.991Z</time></trkpt><trkpt lat="40.20671333981355" lon="18.174913403558612"><ele>63.0</ele><time>2026-04-04T13:14:55.991Z</time></trkpt><trkpt lat="40.20697724605016" lon="18.174794364689028"><ele>63.0</ele><time>2026-04-04T13:14:56.992Z</time></trkpt><trkpt lat="40.20723879914596" lon="18.174682963511867"><ele>63.0</ele><time>2026-04-04T13:14:57.991Z</time></trkpt><trkpt lat="40.20749998079593" lon="18.174569825015833"><ele>62.5</ele><time>2026-04-04T13:14:58.991Z</time></trkpt><trkpt lat="40.20775379897885" lon="18.174458954040823"><ele>62.0</ele><time>2026-04-04T13:14:59.992Z</time></trkpt><trkpt lat="40.20800652565824" lon="18.174349405532613"><ele>61.5</ele><time>2026-04-04T13:15:00.992Z</time></trkpt><trkpt lat="40.2082557399482" lon="18.174244368067026"><ele>61.0</ele><time>2026-04-04T13:15:01.992Z</time></trkpt><trkpt lat="40.20850551193589" lon="18.174138055406253"><ele>61.0</ele><time>2026-04-04T13:15:02.992Z</time></trkpt><trkpt lat="40.208753054320795" lon="18.17402919326332"><ele>61.0</ele><time>2026-04-04T13:15:03.992Z</time></trkpt><trkpt lat="40.20899942977966" lon="18.173920004299493"><ele>60.5</ele><time>2026-04-04T13:15:04.992Z</time></trkpt><trkpt lat="40.20924118530917" lon="18.173813730997733"><ele>60.0</ele><time>2026-04-04T13:15:05.992Z</time></trkpt><trkpt lat="40.20948638147885" lon="18.173709675299005"><ele>60.0</ele><time>2026-04-04T13:15:06.992Z</time></trkpt><trkpt lat="40.209724566066235" lon="18.173606238169665"><ele>60.0</ele><time>2026-04-04T13:15:07.992Z</time></trkpt><trkpt lat="40.20996111442529" lon="18.173504022919868"><ele>60.0</ele><time>2026-04-04T13:15:08.992Z</time></trkpt><trkpt lat="40.21019354586098" lon="18.173395418531726"><ele>60.0</ele><time>2026-04-04T13:15:09.991Z</time></trkpt><trkpt lat="40.21042331382979" lon="18.17329133691547"><ele>59.5</ele><time>2026-04-04T13:15:10.991Z</time></trkpt><trkpt lat="40.210651643352314" lon="18.173187671802648"><ele>59.0</ele><time>2026-04-04T13:15:11.991Z</time></trkpt><trkpt lat="40.21088022097897" lon="18.173086545623978"><ele>58.5</ele><time>2026-04-04T13:15:12.991Z</time></trkpt><trkpt lat="40.21110512169563" lon="18.17298851830467"><ele>58.0</ele><time>2026-04-04T13:15:13.991Z</time></trkpt><trkpt lat="40.21132744885651" lon="18.17289164137214"><ele>57.5</ele><time>2026-04-04T13:15:14.991Z</time></trkpt><trkpt lat="40.211545477400854" lon="18.17278847041171"><ele>57.0</ele><time>2026-04-04T13:15:15.991Z</time></trkpt><trkpt lat="40.21176081897813" lon="18.172681056171204"><ele>57.0</ele><time>2026-04-04T13:15:16.991Z</time></trkpt><trkpt lat="40.21197618854967" lon="18.172566067978885"><ele>57.0</ele><time>2026-04-04T13:15:17.991Z</time></trkpt><trkpt lat="40.212187008268124" lon="18.172440529077647"><ele>57.5</ele><time>2026-04-04T13:15:18.991Z</time></trkpt><trkpt lat="40.21238690775552" lon="18.172300987347604"><ele>58.0</ele><time>2026-04-04T13:15:19.991Z</time></trkpt><trkpt lat="40.21258527759653" lon="18.172143896004066"><ele>58.0</ele><time>2026-04-04T13:15:20.991Z</time></trkpt><trkpt lat="40.212782214845234" lon="18.171972983708585"><ele>58.0</ele><time>2026-04-04T13:15:21.991Z</time></trkpt><trkpt lat="40.212978061021694" lon="18.17178469564193"><ele>57.0</ele><time>2026-04-04T13:15:22.991Z</time></trkpt><trkpt lat="40.21316998590569" lon="18.171592828515443"><ele>56.0</ele><time>2026-04-04T13:15:23.991Z</time></trkpt><trkpt lat="40.213363806316416" lon="18.171402174552693"><ele>55.5</ele><time>2026-04-04T13:15:24.991Z</time></trkpt><trkpt lat="40.21355943183337" lon="18.17121739294424"><ele>55.0</ele><time>2026-04-04T13:15:25.991Z</time></trkpt><trkpt lat="40.21375623526478" lon="18.17103947553919"><ele>55.0</ele><time>2026-04-04T13:15:26.991Z</time></trkpt><trkpt lat="40.213954706129556" lon="18.170861432148605"><ele>55.0</ele><time>2026-04-04T13:15:27.991Z</time></trkpt><trkpt lat="40.214151945060095" lon="18.17068516844617"><ele>54.5</ele><time>2026-04-04T13:15:28.991Z</time></trkpt><trkpt lat="40.21434440418313" lon="18.170510187340547"><ele>54.0</ele><time>2026-04-04T13:15:29.991Z</time></trkpt><trkpt lat="40.21453208826688" lon="18.170334700241703"><ele>54.0</ele><time>2026-04-04T13:15:30.991Z</time></trkpt><trkpt lat="40.21471861363676" lon="18.17016072941334"><ele>54.0</ele><time>2026-04-04T13:15:31.991Z</time></trkpt><trkpt lat="40.21490249399345" lon="18.169988353231023"><ele>54.33333333333333</ele><time>2026-04-04T13:15:32.991Z</time></trkpt><trkpt lat="40.215083409688646" lon="18.16981723106416"><ele>54.666666666666664</ele><time>2026-04-04T13:15:33.991Z</time></trkpt><trkpt lat="40.21526603375048" lon="18.169650300898166"><ele>55.0</ele><time>2026-04-04T13:15:34.991Z</time></trkpt><trkpt lat="40.215447522150505" lon="18.169485224249176"><ele>55.0</ele><time>2026-04-04T13:15:35.991Z</time></trkpt><trkpt lat="40.21562691199581" lon="18.169317477512873"><ele>55.0</ele><time>2026-04-04T13:15:36.991Z</time></trkpt><trkpt lat="40.21580811665935" lon="18.16914954975868"><ele>55.0</ele><time>2026-04-04T13:15:37.991Z</time></trkpt><trkpt lat="40.215992150441245" lon="18.168986392496624"><ele>55.0</ele><time>2026-04-04T13:15:38.991Z</time></trkpt><trkpt lat="40.216175022076705" lon="18.168822854087022"><ele>55.0</ele><time>2026-04-04T13:15:39.991Z</time></trkpt><trkpt lat="40.21635454589321" lon="18.1686528145246"><ele>55.0</ele><time>2026-04-04T13:15:40.991Z</time></trkpt><trkpt lat="40.216529476195156" lon="18.16848358247286"><ele>54.666666666666664</ele><time>2026-04-04T13:15:41.991Z</time></trkpt><trkpt lat="40.21670492412984" lon="18.16831492039719"><ele>54.33333333333333</ele><time>2026-04-04T13:15:42.991Z</time></trkpt><trkpt lat="40.21688100043445" lon="18.168148504791873"><ele>54.0</ele><time>2026-04-04T13:15:43.991Z</time></trkpt><trkpt lat="40.21705527037692" lon="18.16798693316884"><ele>54.0</ele><time>2026-04-04T13:15:44.991Z</time></trkpt><trkpt lat="40.217227435647445" lon="18.16782592401573"><ele>54.0</ele><time>2026-04-04T13:15:45.991Z</time></trkpt><trkpt lat="40.21739360350739" lon="18.1676684525348"><ele>54.0</ele><time>2026-04-04T13:15:46.991Z</time></trkpt><trkpt lat="40.21753353737394" lon="18.167495515194926"><ele>53.75</ele><time>2026-04-04T13:15:47.991Z</time></trkpt><trkpt lat="40.21765256257806" lon="18.167325347915074"><ele>53.5</ele><time>2026-04-04T13:15:48.991Z</time></trkpt><trkpt lat="40.217720896785785" lon="18.16716833062709"><ele>53.25</ele><time>2026-04-04T13:15:49.991Z</time></trkpt><trkpt lat="40.21775290221489" lon="18.167004951271345"><ele>53.0</ele><time>2026-04-04T13:15:50.991Z</time></trkpt><trkpt lat="40.21775820033561" lon="18.16685122643566"><ele>53.0</ele><time>2026-04-04T13:15:51.991Z</time></trkpt><trkpt lat="40.21773161269874" lon="18.166701425592834"><ele>53.0</ele><time>2026-04-04T13:15:52.991Z</time></trkpt><trkpt lat="40.21765698614606" lon="18.16654241704853"><ele>53.0</ele><time>2026-04-04T13:15:53.991Z</time></trkpt><trkpt lat="40.21755826599935" lon="18.166373469681023"><ele>53.0</ele><time>2026-04-04T13:15:54.991Z</time></trkpt><trkpt lat="40.21856140410337" lon="18.166627651463813"><ele>53.2</ele><time>2026-04-04T13:15:55.991Z</time></trkpt><trkpt lat="40.21865333355137" lon="18.166590082604685"><ele>53.4</ele><time>2026-04-04T13:15:56.991Z</time></trkpt><trkpt lat="40.218753882626395" lon="18.166582183838376"><ele>53.60000000000001</ele><time>2026-04-04T13:15:57.991Z</time></trkpt><trkpt lat="40.218861100508995" lon="18.166580798543038"><ele>53.800000000000004</ele><time>2026-04-04T13:15:58.991Z</time></trkpt><trkpt lat="40.218972403563306" lon="18.166543344758864"><ele>54.0</ele><time>2026-04-04T13:15:59.991Z</time></trkpt><trkpt lat="40.21907473386107" lon="18.16645292005974"><ele>54.0</ele><time>2026-04-04T13:16:00.991Z</time></trkpt><trkpt lat="40.219172139845206" lon="18.166333942991386"><ele>54.0</ele><time>2026-04-04T13:16:01.991Z</time></trkpt><trkpt lat="40.21928552989124" lon="18.166224855037978"><ele>54.0</ele><time>2026-04-04T13:16:02.991Z</time></trkpt><trkpt lat="40.21942366539282" lon="18.166156904647067"><ele>54.0</ele><time>2026-04-04T13:16:03.991Z</time></trkpt><trkpt lat="40.21956427364433" lon="18.166136416147957"><ele>54.0</ele><time>2026-04-04T13:16:04.991Z</time></trkpt><trkpt lat="40.2197259297117" lon="18.16614741999867"><ele>54.0</ele><time>2026-04-04T13:16:05.991Z</time></trkpt><trkpt lat="40.21991434287012" lon="18.16615299737932"><ele>54.0</ele><time>2026-04-04T13:16:06.991Z</time></trkpt><trkpt lat="40.220119295530544" lon="18.166146802512525"><ele>53.5</ele><time>2026-04-04T13:16:07.991Z</time></trkpt><trkpt lat="40.22034581303496" lon="18.16613554205518"><ele>53.0</ele><time>2026-04-04T13:16:08.991Z</time></trkpt><trkpt lat="40.22058829113037" lon="18.166119026951677"><ele>52.0</ele><time>2026-04-04T13:16:09.991Z</time></trkpt><trkpt lat="40.22084912025518" lon="18.166099228874806"><ele>51.0</ele><time>2026-04-04T13:16:10.991Z</time></trkpt><trkpt lat="40.221113267105075" lon="18.166082305659344"><ele>51.0</ele><time>2026-04-04T13:16:11.991Z</time></trkpt><trkpt lat="40.22136831534948" lon="18.16606657715596"><ele>51.0</ele><time>2026-04-04T13:16:12.991Z</time></trkpt><trkpt lat="40.22159981905917" lon="18.166055430080828"><ele>50.66666666666667</ele><time>2026-04-04T13:16:13.991Z</time></trkpt><trkpt lat="40.22181737656533" lon="18.166044602686014"><ele>50.333333333333336</ele><time>2026-04-04T13:16:14.991Z</time></trkpt><trkpt lat="40.22203491699276" lon="18.166035495307437"><ele>50.0</ele><time>2026-04-04T13:16:15.991Z</time></trkpt><trkpt lat="40.22225105484827" lon="18.1660262239615"><ele>49.66666666666667</ele><time>2026-04-04T13:16:16.991Z</time></trkpt><trkpt lat="40.22246161349209" lon="18.16601548182313"><ele>49.33333333333333</ele><time>2026-04-04T13:16:17.991Z</time></trkpt><trkpt lat="40.222653017424044" lon="18.165997373838568"><ele>49.0</ele><time>2026-04-04T13:16:18.991Z</time></trkpt><trkpt lat="40.22284412971524" lon="18.16599432473284"><ele>49.0</ele><time>2026-04-04T13:16:19.991Z</time></trkpt><trkpt lat="40.22304042392475" lon="18.165985621802825"><ele>49.0</ele><time>2026-04-04T13:16:20.991Z</time></trkpt><trkpt lat="40.22323939561398" lon="18.16597848457732"><ele>49.0</ele><time>2026-04-04T13:16:21.991Z</time></trkpt><trkpt lat="40.22344071437127" lon="18.16596790080194"><ele>49.666666666666664</ele><time>2026-04-04T13:16:22.991Z</time></trkpt><trkpt lat="40.22364822861799" lon="18.165955943010847"><ele>50.33333333333333</ele><time>2026-04-04T13:16:23.991Z</time></trkpt><trkpt lat="40.223860029500855" lon="18.16594286498906"><ele>51.0</ele><time>2026-04-04T13:16:24.991Z</time></trkpt><trkpt lat="40.22407994228771" lon="18.16593039228749"><ele>51.0</ele><time>2026-04-04T13:16:25.991Z</time></trkpt><trkpt lat="40.22430383903903" lon="18.16591991332026"><ele>51.0</ele><time>2026-04-04T13:16:26.991Z</time></trkpt><trkpt lat="40.224527897317216" lon="18.165909584213207"><ele>51.0</ele><time>2026-04-04T13:16:27.991Z</time></trkpt><trkpt lat="40.224755554295065" lon="18.16589833848646"><ele>52.0</ele><time>2026-04-04T13:16:28.991Z</time></trkpt><trkpt lat="40.22498289088266" lon="18.165883389346295"><ele>53.0</ele><time>2026-04-04T13:16:29.991Z</time></trkpt><trkpt lat="40.225219113330155" lon="18.165874976949407"><ele>53.0</ele><time>2026-04-04T13:16:30.991Z</time></trkpt><trkpt lat="40.22545142916262" lon="18.16585798962482"><ele>53.0</ele><time>2026-04-04T13:16:31.991Z</time></trkpt><trkpt lat="40.225683364904626" lon="18.16584139303061"><ele>53.0</ele><time>2026-04-04T13:16:32.991Z</time></trkpt><trkpt lat="40.22591590108142" lon="18.165827398187183"><ele>53.0</ele><time>2026-04-04T13:16:33.99Z</time></trkpt><trkpt lat="40.22615058190946" lon="18.16581209210642"><ele>53.0</ele><time>2026-04-04T13:16:34.99Z</time></trkpt><trkpt lat="40.22638365643908" lon="18.165798606552062"><ele>53.0</ele><time>2026-04-04T13:16:35.99Z</time></trkpt><trkpt lat="40.22661402469599" lon="18.165782708444915"><ele>53.0</ele><time>2026-04-04T13:16:36.99Z</time></trkpt><trkpt lat="40.226845986627936" lon="18.165769138788185"><ele>53.0</ele><time>2026-04-04T13:16:37.99Z</time></trkpt><trkpt lat="40.22707532301431" lon="18.165756044720816"><ele>53.0</ele><time>2026-04-04T13:16:38.99Z</time></trkpt><trkpt lat="40.227301160438046" lon="18.16574174463987"><ele>53.0</ele><time>2026-04-04T13:16:39.99Z</time></trkpt><trkpt lat="40.22752694198237" lon="18.16572750989554"><ele>52.66666666666667</ele><time>2026-04-04T13:16:40.99Z</time></trkpt><trkpt lat="40.22774898335728" lon="18.16571364256366"><ele>52.33333333333333</ele><time>2026-04-04T13:16:41.99Z</time></trkpt><trkpt lat="40.227973384287395" lon="18.165703042613785"><ele>52.0</ele><time>2026-04-04T13:16:42.99Z</time></trkpt><trkpt lat="40.22819659435744" lon="18.16569076686008"><ele>52.0</ele><time>2026-04-04T13:16:43.99Z</time></trkpt><trkpt lat="40.228419367581296" lon="18.16567808546284"><ele>52.0</ele><time>2026-04-04T13:16:44.99Z</time></trkpt><trkpt lat="40.22863952991746" lon="18.165670507294248"><ele>52.0</ele><time>2026-04-04T13:16:45.99Z</time></trkpt><trkpt lat="40.22885943796302" lon="18.16565943132757"><ele>52.0</ele><time>2026-04-04T13:16:46.99Z</time></trkpt><trkpt lat="40.229077072247556" lon="18.165646613090065"><ele>52.0</ele><time>2026-04-04T13:16:47.99Z</time></trkpt><trkpt lat="40.22929352411932" lon="18.16563505054221"><ele>52.0</ele><time>2026-04-04T13:16:48.99Z</time></trkpt><trkpt lat="40.22950926628677" lon="18.16562253046211"><ele>52.0</ele><time>2026-04-04T13:16:49.99Z</time></trkpt><trkpt lat="40.22972443262167" lon="18.16560749500431"><ele>52.0</ele><time>2026-04-04T13:16:50.99Z</time></trkpt><trkpt lat="40.22993847641437" lon="18.165593949013406"><ele>52.0</ele><time>2026-04-04T13:16:51.99Z</time></trkpt><trkpt lat="40.23014728111488" lon="18.165580701119303"><ele>52.0</ele><time>2026-04-04T13:16:52.99Z</time></trkpt><trkpt lat="40.230352305393964" lon="18.165571184951286"><ele>52.0</ele><time>2026-04-04T13:16:53.99Z</time></trkpt><trkpt lat="40.230559765522685" lon="18.165557225722583"><ele>52.0</ele><time>2026-04-04T13:16:54.99Z</time></trkpt><trkpt lat="40.23076730307516" lon="18.165551280939333"><ele>52.0</ele><time>2026-04-04T13:16:55.99Z</time></trkpt><trkpt lat="40.230971905513066" lon="18.165534617330962"><ele>52.0</ele><time>2026-04-04T13:16:56.99Z</time></trkpt><trkpt lat="40.23117808766126" lon="18.165517773141485"><ele>52.0</ele><time>2026-04-04T13:16:57.99Z</time></trkpt><trkpt lat="40.2313848048169" lon="18.16550953268748"><ele>51.666666666666664</ele><time>2026-04-04T13:16:58.99Z</time></trkpt><trkpt lat="40.231593248921115" lon="18.165498269012378"><ele>51.33333333333333</ele><time>2026-04-04T13:16:59.99Z</time></trkpt><trkpt lat="40.23180013637864" lon="18.165484861944652"><ele>51.0</ele><time>2026-04-04T13:17:00.99Z</time></trkpt><trkpt lat="40.232007485142915" lon="18.165478398152473"><ele>51.0</ele><time>2026-04-04T13:17:01.99Z</time></trkpt><trkpt lat="40.23221062886109" lon="18.16546551760793"><ele>51.0</ele><time>2026-04-04T13:17:02.992Z</time></trkpt><trkpt lat="40.232414034607935" lon="18.16545636975267"><ele>51.0</ele><time>2026-04-04T13:17:03.992Z</time></trkpt><trkpt lat="40.23261425039" lon="18.165445090695354"><ele>50.33333333333333</ele><time>2026-04-04T13:17:04.992Z</time></trkpt><trkpt lat="40.23281449096868" lon="18.16543285473937"><ele>49.666666666666664</ele><time>2026-04-04T13:17:05.991Z</time></trkpt><trkpt lat="40.23301651097127" lon="18.16542139058709"><ele>49.0</ele><time>2026-04-04T13:17:06.991Z</time></trkpt><trkpt lat="40.23321811081642" lon="18.165408977022242"><ele>49.0</ele><time>2026-04-04T13:17:07.991Z</time></trkpt><trkpt lat="40.233421716488934" lon="18.1653947467739"><ele>49.0</ele><time>2026-04-04T13:17:08.992Z</time></trkpt><trkpt lat="40.23362056945535" lon="18.16538521181902"><ele>49.0</ele><time>2026-04-04T13:17:09.992Z</time></trkpt><trkpt lat="40.23381864247955" lon="18.165373739809606"><ele>49.666666666666664</ele><time>2026-04-04T13:17:10.992Z</time></trkpt><trkpt lat="40.234016187772525" lon="18.165360778551623"><ele>50.33333333333333</ele><time>2026-04-04T13:17:11.991Z</time></trkpt><trkpt lat="40.23421754355236" lon="18.165350096250844"><ele>51.0</ele><time>2026-04-04T13:17:12.991Z</time></trkpt><trkpt lat="40.234420938110375" lon="18.165340317029905"><ele>51.0</ele><time>2026-04-04T13:17:13.991Z</time></trkpt><trkpt lat="40.23462375751298" lon="18.165332328797042"><ele>51.0</ele><time>2026-04-04T13:17:14.991Z</time></trkpt><trkpt lat="40.23482679767316" lon="18.16532077456606"><ele>51.0</ele><time>2026-04-04T13:17:15.991Z</time></trkpt><trkpt lat="40.235031179249994" lon="18.16530299165497"><ele>51.33333333333333</ele><time>2026-04-04T13:17:16.991Z</time></trkpt><trkpt lat="40.23523047571463" lon="18.16528738585099"><ele>51.666666666666664</ele><time>2026-04-04T13:17:17.991Z</time></trkpt><trkpt lat="40.2354295190587" lon="18.16527837700279"><ele>52.0</ele><time>2026-04-04T13:17:18.991Z</time></trkpt><trkpt lat="40.23562806071922" lon="18.165270541944963"><ele>51.666666666666664</ele><time>2026-04-04T13:17:19.991Z</time></trkpt><trkpt lat="40.2358284696946" lon="18.16525867167209"><ele>51.33333333333333</ele><time>2026-04-04T13:17:20.991Z</time></trkpt><trkpt lat="40.236028194477996" lon="18.16524497728699"><ele>51.0</ele><time>2026-04-04T13:17:21.991Z</time></trkpt><trkpt lat="40.236229280225466" lon="18.16523396996019"><ele>51.0</ele><time>2026-04-04T13:17:22.991Z</time></trkpt><trkpt lat="40.23642666666364" lon="18.16522820376208"><ele>51.0</ele><time>2026-04-04T13:17:23.991Z</time></trkpt><trkpt lat="40.23663076365652" lon="18.16522022125627"><ele>51.0</ele><time>2026-04-04T13:17:24.991Z</time></trkpt><trkpt lat="40.23683413463409" lon="18.165211375001974"><ele>51.33333333333333</ele><time>2026-04-04T13:17:25.991Z</time></trkpt><trkpt lat="40.23703436135239" lon="18.16519680425022"><ele>51.666666666666664</ele><time>2026-04-04T13:17:26.991Z</time></trkpt><trkpt lat="40.23724522112609" lon="18.16518467621445"><ele>52.0</ele><time>2026-04-04T13:17:27.991Z</time></trkpt><trkpt lat="40.23745173615465" lon="18.16516872199854"><ele>52.0</ele><time>2026-04-04T13:17:28.991Z</time></trkpt><trkpt lat="40.237666818083326" lon="18.1651664135274"><ele>52.0</ele><time>2026-04-04T13:17:29.991Z</time></trkpt><trkpt lat="40.23788093727581" lon="18.165158675829908"><ele>52.0</ele><time>2026-04-04T13:17:30.991Z</time></trkpt><trkpt lat="40.238088875600766" lon="18.165138600038524"><ele>51.666666666666664</ele><time>2026-04-04T13:17:31.991Z</time></trkpt><trkpt lat="40.238298268044296" lon="18.16512085557975"><ele>51.33333333333333</ele><time>2026-04-04T13:17:32.991Z</time></trkpt><trkpt lat="40.23851383576043" lon="18.16510410680084"><ele>51.0</ele><time>2026-04-04T13:17:33.991Z</time></trkpt><trkpt lat="40.238730407841075" lon="18.165100445985644"><ele>51.0</ele><time>2026-04-04T13:17:34.991Z</time></trkpt><trkpt lat="40.23895394205793" lon="18.165091930947227"><ele>51.0</ele><time>2026-04-04T13:17:35.991Z</time></trkpt><trkpt lat="40.239176185199646" lon="18.16507944882487"><ele>51.0</ele><time>2026-04-04T13:17:36.991Z</time></trkpt><trkpt lat="40.23939789326107" lon="18.165070213935305"><ele>50.33333333333333</ele><time>2026-04-04T13:17:37.991Z</time></trkpt><trkpt lat="40.23962147809083" lon="18.16505566555161"><ele>49.666666666666664</ele><time>2026-04-04T13:17:38.991Z</time></trkpt><trkpt lat="40.239843558968055" lon="18.165040627359453"><ele>49.0</ele><time>2026-04-04T13:17:39.991Z</time></trkpt><trkpt lat="40.24006439909122" lon="18.165026365687982"><ele>49.0</ele><time>2026-04-04T13:17:40.991Z</time></trkpt><trkpt lat="40.240278211238476" lon="18.165018284515025"><ele>49.0</ele><time>2026-04-04T13:17:41.991Z</time></trkpt><trkpt lat="40.24049522796568" lon="18.16500684352706"><ele>49.0</ele><time>2026-04-04T13:17:42.991Z</time></trkpt><trkpt lat="40.240710474624095" lon="18.164996484664467"><ele>49.0</ele><time>2026-04-04T13:17:43.991Z</time></trkpt><trkpt lat="40.240923850857726" lon="18.164985915435178"><ele>49.0</ele><time>2026-04-04T13:17:44.991Z</time></trkpt><trkpt lat="40.24114208256134" lon="18.164969036448824"><ele>49.0</ele><time>2026-04-04T13:17:45.991Z</time></trkpt><trkpt lat="40.24135472773826" lon="18.16496024424133"><ele>49.33333333333333</ele><time>2026-04-04T13:17:46.991Z</time></trkpt><trkpt lat="40.24157162380235" lon="18.164952350021842"><ele>49.66666666666667</ele><time>2026-04-04T13:17:47.991Z</time></trkpt><trkpt lat="40.24178717371167" lon="18.16493779273683"><ele>50.0</ele><time>2026-04-04T13:17:48.991Z</time></trkpt><trkpt lat="40.242001970221125" lon="18.164919363295944"><ele>50.0</ele><time>2026-04-04T13:17:49.991Z</time></trkpt><trkpt lat="40.2422224523136" lon="18.16490687920909"><ele>50.0</ele><time>2026-04-04T13:17:50.991Z</time></trkpt><trkpt lat="40.24243942738188" lon="18.16489127084988"><ele>50.0</ele><time>2026-04-04T13:17:51.991Z</time></trkpt><trkpt lat="40.24265477562209" lon="18.16488239266574"><ele>50.0</ele><time>2026-04-04T13:17:52.991Z</time></trkpt><trkpt lat="40.242871326677815" lon="18.164870509907942"><ele>50.0</ele><time>2026-04-04T13:17:53.991Z</time></trkpt><trkpt lat="40.243072227905344" lon="18.164857959721786"><ele>50.0</ele><time>2026-04-04T13:17:54.991Z</time></trkpt><trkpt lat="40.24325881736317" lon="18.16484792598908"><ele>49.333333333333336</ele><time>2026-04-04T13:17:55.991Z</time></trkpt><trkpt lat="40.24342820195118" lon="18.164843951816373"><ele>48.66666666666667</ele><time>2026-04-04T13:17:56.991Z</time></trkpt><trkpt lat="40.24358581312526" lon="18.16484183025015"><ele>48.0</ele><time>2026-04-04T13:17:57.991Z</time></trkpt><trkpt lat="40.243745617573786" lon="18.16483245939438"><ele>48.0</ele><time>2026-04-04T13:17:58.991Z</time></trkpt><trkpt lat="40.24387653570128" lon="18.164828010402115"><ele>48.0</ele><time>2026-04-04T13:17:59.991Z</time></trkpt><trkpt lat="40.243993610676306" lon="18.164839141392783"><ele>48.0</ele><time>2026-04-04T13:18:00.991Z</time></trkpt><trkpt lat="40.24408307703484" lon="18.164852045238646"><ele>48.0</ele><time>2026-04-04T13:18:01.991Z</time></trkpt><trkpt lat="40.244156988207415" lon="18.164880989643347"><ele>48.0</ele><time>2026-04-04T13:18:02.991Z</time></trkpt><trkpt lat="40.244223276981515" lon="18.16492973094946"><ele>48.333333333333336</ele><time>2026-04-04T13:18:03.991Z</time></trkpt><trkpt lat="40.24429419375761" lon="18.164994787247604"><ele>48.66666666666667</ele><time>2026-04-04T13:18:04.991Z</time></trkpt><trkpt lat="40.24436637488238" lon="18.16503997053636"><ele>49.0</ele><time>2026-04-04T13:18:05.991Z</time></trkpt><trkpt lat="40.244438936555426" lon="18.165065961471655"><ele>49.333333333333336</ele><time>2026-04-04T13:18:06.991Z</time></trkpt><trkpt lat="40.24451842096727" lon="18.165041178796702"><ele>49.66666666666667</ele><time>2026-04-04T13:18:07.99Z</time></trkpt><trkpt lat="40.24459846476626" lon="18.164995886627324"><ele>50.0</ele><time>2026-04-04T13:18:08.99Z</time></trkpt><trkpt lat="40.244670249915536" lon="18.164924353498268"><ele>50.0</ele><time>2026-04-04T13:18:09.99Z</time></trkpt><trkpt lat="40.244748232923406" lon="18.164840230432866"><ele>50.0</ele><time>2026-04-04T13:18:10.99Z</time></trkpt><trkpt lat="40.24483900779584" lon="18.16478979852084"><ele>50.0</ele><time>2026-04-04T13:18:11.99Z</time></trkpt><trkpt lat="40.24496873982673" lon="18.164765897634883"><ele>50.0</ele><time>2026-04-04T13:18:12.99Z</time></trkpt><trkpt lat="40.245124459552166" lon="18.164746556374055"><ele>50.0</ele><time>2026-04-04T13:18:13.99Z</time></trkpt><trkpt lat="40.24529748133815" lon="18.164735255259433"><ele>50.0</ele><time>2026-04-04T13:18:14.99Z</time></trkpt><trkpt lat="40.24549264315029" lon="18.164727948257777"><ele>50.0</ele><time>2026-04-04T13:18:15.99Z</time></trkpt><trkpt lat="40.24569244055463" lon="18.164717219207184"><ele>50.0</ele><time>2026-04-04T13:18:16.99Z</time></trkpt><trkpt lat="40.245892606746786" lon="18.164705823521047"><ele>50.0</ele><time>2026-04-04T13:18:17.99Z</time></trkpt><trkpt lat="40.24608726806335" lon="18.16470245974802"><ele>50.0</ele><time>2026-04-04T13:18:18.99Z</time></trkpt><trkpt lat="40.246277044350435" lon="18.164718639943366"><ele>50.0</ele><time>2026-04-04T13:18:19.99Z</time></trkpt><trkpt lat="40.24646187449604" lon="18.164745541222494"><ele>50.0</ele><time>2026-04-04T13:18:20.99Z</time></trkpt><trkpt lat="40.24664479323051" lon="18.164789700301792"><ele>50.0</ele><time>2026-04-04T13:18:21.99Z</time></trkpt><trkpt lat="40.24682690578284" lon="18.16484944078521"><ele>50.333333333333336</ele><time>2026-04-04T13:18:22.99Z</time></trkpt><trkpt lat="40.24700565857928" lon="18.16491430578948"><ele>50.66666666666667</ele><time>2026-04-04T13:18:23.99Z</time></trkpt><trkpt lat="40.24718515347471" lon="18.164987416185475"><ele>51.0</ele><time>2026-04-04T13:18:24.99Z</time></trkpt><trkpt lat="40.247363290443644" lon="18.165065624368548"><ele>51.33333333333333</ele><time>2026-04-04T13:18:25.99Z</time></trkpt><trkpt lat="40.24753906772685" lon="18.16514401117288"><ele>51.666666666666664</ele><time>2026-04-04T13:18:26.99Z</time></trkpt><trkpt lat="40.24771526868129" lon="18.16521781415758"><ele>52.0</ele><time>2026-04-04T13:18:27.99Z</time></trkpt><trkpt lat="40.247884505205086" lon="18.16529110972966"><ele>52.0</ele><time>2026-04-04T13:18:28.99Z</time></trkpt><trkpt lat="40.24804888740431" lon="18.165361682547665"><ele>52.0</ele><time>2026-04-04T13:18:29.99Z</time></trkpt><trkpt lat="40.24821262718533" lon="18.16542785301074"><ele>52.0</ele><time>2026-04-04T13:18:30.99Z</time></trkpt><trkpt lat="40.248377062078" lon="18.165493706091105"><ele>51.666666666666664</ele><time>2026-04-04T13:18:31.99Z</time></trkpt><trkpt lat="40.24853830879017" lon="18.165553762355465"><ele>51.33333333333333</ele><time>2026-04-04T13:18:32.99Z</time></trkpt><trkpt lat="40.24870117774249" lon="18.165619488938827"><ele>51.0</ele><time>2026-04-04T13:18:33.99Z</time></trkpt><trkpt lat="40.24886137161106" lon="18.165681142326545"><ele>52.0</ele><time>2026-04-04T13:18:34.99Z</time></trkpt><trkpt lat="40.249020911313835" lon="18.165746020197542"><ele>53.0</ele><time>2026-04-04T13:18:35.99Z</time></trkpt><trkpt lat="40.24918023227822" lon="18.1658087752553"><ele>54.0</ele><time>2026-04-04T13:18:36.99Z</time></trkpt><trkpt lat="40.24933805034743" lon="18.16587121808748"><ele>54.0</ele><time>2026-04-04T13:18:37.99Z</time></trkpt><trkpt lat="40.24948644815374" lon="18.16593762511304"><ele>54.0</ele><time>2026-04-04T13:18:38.99Z</time></trkpt><trkpt lat="40.249628183628715" lon="18.1659963576741"><ele>54.0</ele><time>2026-04-04T13:18:39.99Z</time></trkpt><trkpt lat="40.249766700515245" lon="18.16603973805068"><ele>54.0</ele><time>2026-04-04T13:18:40.99Z</time></trkpt><trkpt lat="40.24990840578817" lon="18.166057548958733"><ele>54.25</ele><time>2026-04-04T13:18:41.99Z</time></trkpt><trkpt lat="40.25005468506542" lon="18.166053036214745"><ele>54.5</ele><time>2026-04-04T13:18:42.99Z</time></trkpt><trkpt lat="40.25019759194949" lon="18.166035821463993"><ele>54.75</ele><time>2026-04-04T13:18:43.99Z</time></trkpt><trkpt lat="40.250338620017196" lon="18.166000945216698"><ele>55.0</ele><time>2026-04-04T13:18:44.99Z</time></trkpt><trkpt lat="40.25048678208393" lon="18.165948254568367"><ele>54.666666666666664</ele><time>2026-04-04T13:18:45.99Z</time></trkpt><trkpt lat="40.2506400843575" lon="18.165886903315304"><ele>54.33333333333333</ele><time>2026-04-04T13:18:46.99Z</time></trkpt><trkpt lat="40.250793691980775" lon="18.165809549653815"><ele>54.0</ele><time>2026-04-04T13:18:47.99Z</time></trkpt><trkpt lat="40.25093913083259" lon="18.165719517455532"><ele>54.0</ele><time>2026-04-04T13:18:48.99Z</time></trkpt><trkpt lat="40.25106870359174" lon="18.16560839815851"><ele>54.0</ele><time>2026-04-04T13:18:49.99Z</time></trkpt><trkpt lat="40.25119822636781" lon="18.16547584337621"><ele>54.0</ele><time>2026-04-04T13:18:50.99Z</time></trkpt><trkpt lat="40.251383628193395" lon="18.165375475617463"><ele>54.33333333333333</ele><time>2026-04-04T13:18:51.99Z</time></trkpt><trkpt lat="40.251524266780926" lon="18.165216919479626"><ele>54.666666666666664</ele><time>2026-04-04T13:18:52.99Z</time></trkpt><trkpt lat="40.25166555600293" lon="18.165042148705673"><ele>55.0</ele><time>2026-04-04T13:18:53.99Z</time></trkpt><trkpt lat="40.25180477837639" lon="18.164851750152778"><ele>55.0</ele><time>2026-04-04T13:18:54.99Z</time></trkpt><trkpt lat="40.2519434191243" lon="18.164645970185106"><ele>55.0</ele><time>2026-04-04T13:18:55.99Z</time></trkpt><trkpt lat="40.25207673133352" lon="18.164435628946006"><ele>55.0</ele><time>2026-04-04T13:18:56.99Z</time></trkpt><trkpt lat="40.25219335685506" lon="18.16424886974357"><ele>55.33333333333333</ele><time>2026-04-04T13:18:57.99Z</time></trkpt><trkpt lat="40.25229806912554" lon="18.164073921732882"><ele>55.66666666666667</ele><time>2026-04-04T13:18:58.99Z</time></trkpt><trkpt lat="40.252402690766885" lon="18.16389726552305"><ele>56.0</ele><time>2026-04-04T13:18:59.99Z</time></trkpt><trkpt lat="40.252513571411285" lon="18.16372490715194"><ele>56.0</ele><time>2026-04-04T13:19:00.99Z</time></trkpt><trkpt lat="40.252631289904265" lon="18.163561109566544"><ele>56.0</ele><time>2026-04-04T13:19:01.99Z</time></trkpt><trkpt lat="40.252764899740825" lon="18.163422434977516"><ele>56.0</ele><time>2026-04-04T13:19:02.99Z</time></trkpt><trkpt lat="40.25291034319862" lon="18.163292549910782"><ele>56.0</ele><time>2026-04-04T13:19:03.99Z</time></trkpt><trkpt lat="40.253070324901365" lon="18.16317427696272"><ele>56.0</ele><time>2026-04-04T13:19:04.99Z</time></trkpt><trkpt lat="40.25323321722102" lon="18.163056174556537"><ele>56.0</ele><time>2026-04-04T13:19:05.99Z</time></trkpt><trkpt lat="40.2534058478693" lon="18.162927709647118"><ele>58.0</ele><time>2026-04-04T13:19:06.99Z</time></trkpt><trkpt lat="40.25359181883236" lon="18.162785725029064"><ele>60.0</ele><time>2026-04-04T13:19:07.991Z</time></trkpt><trkpt lat="40.25379675926168" lon="18.162642960360834"><ele>62.0</ele><time>2026-04-04T13:19:08.991Z</time></trkpt><trkpt lat="40.254017020260484" lon="18.162494901638645"><ele>61.5</ele><time>2026-04-04T13:19:09.991Z</time></trkpt><trkpt lat="40.25423731136315" lon="18.162339483424986"><ele>61.0</ele><time>2026-04-04T13:19:10.991Z</time></trkpt><trkpt lat="40.254473257347925" lon="18.16217289578001"><ele>61.0</ele><time>2026-04-04T13:19:11.991Z</time></trkpt><trkpt lat="40.25472638984872" lon="18.161994798916133"><ele>61.0</ele><time>2026-04-04T13:19:12.991Z</time></trkpt><trkpt lat="40.254990020422014" lon="18.161807392544272"><ele>61.0</ele><time>2026-04-04T13:19:13.991Z</time></trkpt><trkpt lat="40.25527861356828" lon="18.161600336336118"><ele>61.0</ele><time>2026-04-04T13:19:14.99Z</time></trkpt><trkpt lat="40.25553716963194" lon="18.16140838188787"><ele>62.5</ele><time>2026-04-04T13:19:15.99Z</time></trkpt><trkpt lat="40.25576235470212" lon="18.161250835460216"><ele>64.0</ele><time>2026-04-04T13:19:16.991Z</time></trkpt><trkpt lat="40.25601312207701" lon="18.1610457584433"><ele>64.0</ele><time>2026-04-04T13:19:17.991Z</time></trkpt><trkpt lat="40.25627511100535" lon="18.160819751297936"><ele>64.0</ele><time>2026-04-04T13:19:18.991Z</time></trkpt><trkpt lat="40.25655264358026" lon="18.160567294007596"><ele>64.0</ele><time>2026-04-04T13:19:19.992Z</time></trkpt><trkpt lat="40.256831682386796" lon="18.160312903287377"><ele>64.0</ele><time>2026-04-04T13:19:20.991Z</time></trkpt><trkpt lat="40.25711376943632" lon="18.160050230285886"><ele>63.5</ele><time>2026-04-04T13:19:21.991Z</time></trkpt><trkpt lat="40.25738632988153" lon="18.159794608827426"><ele>63.0</ele><time>2026-04-04T13:19:22.991Z</time></trkpt><trkpt lat="40.257650342522986" lon="18.15953256849712"><ele>63.0</ele><time>2026-04-04T13:19:23.991Z</time></trkpt><trkpt lat="40.25790747039682" lon="18.159261298979203"><ele>63.0</ele><time>2026-04-04T13:19:24.991Z</time></trkpt><trkpt lat="40.25816747107522" lon="18.158985812818283"><ele>63.0</ele><time>2026-04-04T13:19:25.991Z</time></trkpt><trkpt lat="40.25842267707617" lon="18.15870456281108"><ele>63.0</ele><time>2026-04-04T13:19:26.991Z</time></trkpt><trkpt lat="40.25867418463726" lon="18.158420783826656"><ele>63.5</ele><time>2026-04-04T13:19:27.991Z</time></trkpt><trkpt lat="40.25892681534598" lon="18.158124040049856"><ele>64.0</ele><time>2026-04-04T13:19:28.99Z</time></trkpt><trkpt lat="40.25917416111749" lon="18.1578251000596"><ele>64.0</ele><time>2026-04-04T13:19:29.99Z</time></trkpt><trkpt lat="40.25941949473321" lon="18.157526520410435"><ele>64.0</ele><time>2026-04-04T13:19:30.99Z</time></trkpt><trkpt lat="40.25966599522394" lon="18.157224340329044"><ele>64.0</ele><time>2026-04-04T13:19:31.99Z</time></trkpt><trkpt lat="40.25991435011709" lon="18.156929929533113"><ele>64.0</ele><time>2026-04-04T13:19:32.99Z</time></trkpt><trkpt lat="40.26016472962372" lon="18.156634628469618"><ele>64.0</ele><time>2026-04-04T13:19:33.99Z</time></trkpt><trkpt lat="40.26041151875474" lon="18.156342858375602"><ele>64.0</ele><time>2026-04-04T13:19:34.99Z</time></trkpt><trkpt lat="40.26065359762464" lon="18.156044163983033"><ele>64.0</ele><time>2026-04-04T13:19:35.99Z</time></trkpt><trkpt lat="40.26089501789981" lon="18.155752543835177"><ele>64.0</ele><time>2026-04-04T13:19:36.99Z</time></trkpt><trkpt lat="40.26113830715442" lon="18.155463032061174"><ele>64.0</ele><time>2026-04-04T13:19:37.99Z</time></trkpt><trkpt lat="40.261375791385966" lon="18.155165770422073"><ele>64.0</ele><time>2026-04-04T13:19:38.99Z</time></trkpt><trkpt lat="40.2616127481616" lon="18.15487023103102"><ele>64.0</ele><time>2026-04-04T13:19:39.99Z</time></trkpt><trkpt lat="40.26185064833031" lon="18.154566105326417"><ele>64.0</ele><time>2026-04-04T13:19:40.99Z</time></trkpt><trkpt lat="40.26208546103546" lon="18.15426362748588"><ele>64.0</ele><time>2026-04-04T13:19:41.99Z</time></trkpt><trkpt lat="40.262320743160544" lon="18.153959469296538"><ele>64.0</ele><time>2026-04-04T13:19:42.99Z</time></trkpt><trkpt lat="40.262559663972866" lon="18.15366240145908"><ele>64.0</ele><time>2026-04-04T13:19:43.99Z</time></trkpt><trkpt lat="40.26279941274258" lon="18.153366846962655"><ele>64.0</ele><time>2026-04-04T13:19:44.99Z</time></trkpt><trkpt lat="40.263043299193384" lon="18.15307131009846"><ele>64.0</ele><time>2026-04-04T13:19:45.99Z</time></trkpt><trkpt lat="40.26329013643942" lon="18.15275588331096"><ele>64.0</ele><time>2026-04-04T13:19:46.99Z</time></trkpt><trkpt lat="40.263509926852876" lon="18.152483460980946"><ele>64.5</ele><time>2026-04-04T13:19:47.99Z</time></trkpt><trkpt lat="40.263723866418665" lon="18.152214898925322"><ele>65.0</ele><time>2026-04-04T13:19:48.99Z</time></trkpt><trkpt lat="40.263946951539204" lon="18.151948920569556"><ele>65.0</ele><time>2026-04-04T13:19:49.99Z</time></trkpt><trkpt lat="40.26419331239584" lon="18.15168052266741"><ele>65.0</ele><time>2026-04-04T13:19:50.99Z</time></trkpt><trkpt lat="40.26445003184595" lon="18.15139809416687"><ele>64.0</ele><time>2026-04-04T13:19:51.99Z</time></trkpt><trkpt lat="40.26470680801423" lon="18.151093095453454"><ele>63.0</ele><time>2026-04-04T13:19:52.99Z</time></trkpt><trkpt lat="40.26494816873907" lon="18.150788154728797"><ele>63.0</ele><time>2026-04-04T13:19:53.99Z</time></trkpt><trkpt lat="40.26513041982571" lon="18.150617363506736"><ele>63.0</ele><time>2026-04-04T13:19:54.99Z</time></trkpt><trkpt lat="40.26533475316986" lon="18.15039213055191"><ele>63.0</ele><time>2026-04-04T13:19:55.99Z</time></trkpt><trkpt lat="40.265544321538584" lon="18.150151855713194"><ele>63.0</ele><time>2026-04-04T13:19:56.99Z</time></trkpt><trkpt lat="40.265751159366594" lon="18.14990936210747"><ele>63.0</ele><time>2026-04-04T13:19:57.99Z</time></trkpt><trkpt lat="40.26595631261867" lon="18.149666687550987"><ele>63.0</ele><time>2026-04-04T13:19:58.99Z</time></trkpt><trkpt lat="40.2661375859808" lon="18.149434123317498"><ele>63.0</ele><time>2026-04-04T13:19:59.99Z</time></trkpt><trkpt lat="40.26631609190081" lon="18.14918353561016"><ele>63.0</ele><time>2026-04-04T13:20:00.99Z</time></trkpt><trkpt lat="40.26649121028407" lon="18.148917097194794"><ele>63.0</ele><time>2026-04-04T13:20:01.99Z</time></trkpt><trkpt lat="40.26664782442045" lon="18.148638463918097"><ele>63.0</ele><time>2026-04-04T13:20:02.99Z</time></trkpt><trkpt lat="40.26680053965292" lon="18.148352578353865"><ele>62.0</ele><time>2026-04-04T13:20:03.99Z</time></trkpt><trkpt lat="40.26694970805878" lon="18.148054747851983"><ele>61.0</ele><time>2026-04-04T13:20:04.99Z</time></trkpt><trkpt lat="40.2670869646365" lon="18.147751439611213"><ele>61.0</ele><time>2026-04-04T13:20:05.99Z</time></trkpt><trkpt lat="40.26721514633081" lon="18.147440579743378"><ele>61.0</ele><time>2026-04-04T13:20:06.99Z</time></trkpt><trkpt lat="40.26733414715985" lon="18.147128615017813"><ele>61.5</ele><time>2026-04-04T13:20:07.99Z</time></trkpt><trkpt lat="40.26744335781116" lon="18.146808657122243"><ele>62.0</ele><time>2026-04-04T13:20:08.99Z</time></trkpt><trkpt lat="40.26754328042175" lon="18.14648133544939"><ele>62.0</ele><time>2026-04-04T13:20:09.99Z</time></trkpt><trkpt lat="40.26763621793458" lon="18.14614692666922"><ele>62.0</ele><time>2026-04-04T13:20:10.99Z</time></trkpt><trkpt lat="40.267718853798854" lon="18.145804403014083"><ele>60.5</ele><time>2026-04-04T13:20:11.99Z</time></trkpt><trkpt lat="40.267789593730534" lon="18.145456040349412"><ele>59.0</ele><time>2026-04-04T13:20:12.99Z</time></trkpt><trkpt lat="40.26785180098106" lon="18.145105763710227"><ele>58.0</ele><time>2026-04-04T13:20:13.99Z</time></trkpt><trkpt lat="40.26790429714165" lon="18.144748699773526"><ele>57.0</ele><time>2026-04-04T13:20:14.99Z</time></trkpt><trkpt lat="40.26793781300416" lon="18.144390472108952"><ele>56.5</ele><time>2026-04-04T13:20:15.99Z</time></trkpt><trkpt lat="40.26797063692953" lon="18.144037121471815"><ele>56.0</ele><time>2026-04-04T13:20:16.99Z</time></trkpt><trkpt lat="40.267997925323876" lon="18.143674319603488"><ele>56.0</ele><time>2026-04-04T13:20:17.99Z</time></trkpt><trkpt lat="40.26800569552052" lon="18.143311922566383"><ele>56.0</ele><time>2026-04-04T13:20:18.99Z</time></trkpt><trkpt lat="40.267980916405456" lon="18.142926157478712"><ele>54.5</ele><time>2026-04-04T13:20:19.99Z</time></trkpt><trkpt lat="40.267953815233106" lon="18.14254377508609"><ele>53.0</ele><time>2026-04-04T13:20:20.99Z</time></trkpt><trkpt lat="40.267924448481125" lon="18.1421623779948"><ele>52.5</ele><time>2026-04-04T13:20:21.99Z</time></trkpt><trkpt lat="40.267895768658505" lon="18.14178452064937"><ele>52.0</ele><time>2026-04-04T13:20:22.99Z</time></trkpt><trkpt lat="40.26788102671278" lon="18.14140207488794"><ele>52.0</ele><time>2026-04-04T13:20:23.99Z</time></trkpt><trkpt lat="40.267863303225674" lon="18.14102080591149"><ele>52.0</ele><time>2026-04-04T13:20:24.99Z</time></trkpt><trkpt lat="40.26784521682154" lon="18.14063764273441"><ele>52.5</ele><time>2026-04-04T13:20:25.99Z</time></trkpt><trkpt lat="40.26782349932583" lon="18.140259485805814"><ele>53.0</ele><time>2026-04-04T13:20:26.99Z</time></trkpt><trkpt lat="40.267803759700854" lon="18.139886812546575"><ele>51.5</ele><time>2026-04-04T13:20:27.99Z</time></trkpt><trkpt lat="40.267781902316216" lon="18.139516329861706"><ele>50.0</ele><time>2026-04-04T13:20:28.99Z</time></trkpt><trkpt lat="40.26776506893029" lon="18.139144551033663"><ele>49.5</ele><time>2026-04-04T13:20:29.99Z</time></trkpt><trkpt lat="40.267744845722966" lon="18.13877074115982"><ele>49.0</ele><time>2026-04-04T13:20:30.99Z</time></trkpt><trkpt lat="40.267725363782084" lon="18.138401619179202"><ele>49.5</ele><time>2026-04-04T13:20:31.99Z</time></trkpt><trkpt lat="40.26770479412571" lon="18.138033053984827"><ele>50.0</ele><time>2026-04-04T13:20:32.99Z</time></trkpt><trkpt lat="40.26768585450966" lon="18.137669701655327"><ele>50.0</ele><time>2026-04-04T13:20:33.99Z</time></trkpt><trkpt lat="40.26766665324371" lon="18.137303208464"><ele>50.0</ele><time>2026-04-04T13:20:34.99Z</time></trkpt><trkpt lat="40.26763472537633" lon="18.13694695382129"><ele>50.0</ele><time>2026-04-04T13:20:35.99Z</time></trkpt><trkpt lat="40.26759781326292" lon="18.136596260643593"><ele>50.0</ele><time>2026-04-04T13:20:36.99Z</time></trkpt><trkpt lat="40.26754339426474" lon="18.136238088802973"><ele>50.0</ele><time>2026-04-04T13:20:37.99Z</time></trkpt><trkpt lat="40.26758043563107" lon="18.13585687071611"><ele>50.0</ele><time>2026-04-04T13:20:38.99Z</time></trkpt><trkpt lat="40.26758703205656" lon="18.135454840953805"><ele>49.0</ele><time>2026-04-04T13:20:39.99Z</time></trkpt><trkpt lat="40.267583904905976" lon="18.135056492504827"><ele>48.0</ele><time>2026-04-04T13:20:40.99Z</time></trkpt><trkpt lat="40.26753500155039" lon="18.134729908010048"><ele>48.0</ele><time>2026-04-04T13:20:41.99Z</time></trkpt><trkpt lat="40.26752914152676" lon="18.134361122573072"><ele>48.0</ele><time>2026-04-04T13:20:42.99Z</time></trkpt><trkpt lat="40.26753823637448" lon="18.133981401701533"><ele>47.5</ele><time>2026-04-04T13:20:43.99Z</time></trkpt><trkpt lat="40.26757906009965" lon="18.13359906035093"><ele>47.0</ele><time>2026-04-04T13:20:44.99Z</time></trkpt><trkpt lat="40.267622896687584" lon="18.133215460224"><ele>49.0</ele><time>2026-04-04T13:20:45.99Z</time></trkpt><trkpt lat="40.26766925211969" lon="18.132834127236148"><ele>51.0</ele><time>2026-04-04T13:20:46.99Z</time></trkpt><trkpt lat="40.267727976350706" lon="18.13246132049005"><ele>50.0</ele><time>2026-04-04T13:20:47.99Z</time></trkpt><trkpt lat="40.267796203085155" lon="18.132080668373852"><ele>49.0</ele><time>2026-04-04T13:20:48.99Z</time></trkpt><trkpt lat="40.26787158783739" lon="18.13170374741341"><ele>47.5</ele><time>2026-04-04T13:20:49.99Z</time></trkpt><trkpt lat="40.267952856803994" lon="18.13133129575569"><ele>46.0</ele><time>2026-04-04T13:20:50.99Z</time></trkpt><trkpt lat="40.26804311129231" lon="18.130970333714828"><ele>47.5</ele><time>2026-04-04T13:20:51.99Z</time></trkpt><trkpt lat="40.26814306093577" lon="18.13062187456474"><ele>49.0</ele><time>2026-04-04T13:20:52.99Z</time></trkpt><trkpt lat="40.26822760728358" lon="18.130282571124923"><ele>49.0</ele><time>2026-04-04T13:20:53.99Z</time></trkpt><trkpt lat="40.26830821565196" lon="18.129970767385252"><ele>49.0</ele><time>2026-04-04T13:20:54.99Z</time></trkpt><trkpt lat="40.26838800286828" lon="18.129685410966083"><ele>49.33333333333333</ele><time>2026-04-04T13:20:55.99Z</time></trkpt><trkpt lat="40.268464410160384" lon="18.12941674415832"><ele>49.66666666666667</ele><time>2026-04-04T13:20:56.99Z</time></trkpt><trkpt lat="40.26852941743605" lon="18.129167630298582"><ele>50.0</ele><time>2026-04-04T13:20:57.99Z</time></trkpt><trkpt lat="40.26859827108207" lon="18.128924822638513"><ele>50.0</ele><time>2026-04-04T13:20:58.99Z</time></trkpt><trkpt lat="40.26866532584807" lon="18.128701405178674"><ele>50.0</ele><time>2026-04-04T13:20:59.99Z</time></trkpt><trkpt lat="40.268734903319896" lon="18.12850257106991"><ele>50.0</ele><time>2026-04-04T13:21:00.99Z</time></trkpt><trkpt lat="40.268808591757264" lon="18.128313462275"><ele>50.0</ele><time>2026-04-04T13:21:01.99Z</time></trkpt><trkpt lat="40.26888487342496" lon="18.128127994814516"><ele>50.0</ele><time>2026-04-04T13:21:02.99Z</time></trkpt><trkpt lat="40.26897207079414" lon="18.12794553721141"><ele>50.0</ele><time>2026-04-04T13:21:03.99Z</time></trkpt><trkpt lat="40.26906635294917" lon="18.127769866648183"><ele>50.0</ele><time>2026-04-04T13:21:04.99Z</time></trkpt><trkpt lat="40.26916826445588" lon="18.127600937371245"><ele>50.0</ele><time>2026-04-04T13:21:05.99Z</time></trkpt><trkpt lat="40.269289349433585" lon="18.12743482923859"><ele>50.0</ele><time>2026-04-04T13:21:06.99Z</time></trkpt><trkpt lat="40.269420442122865" lon="18.127271654053807"><ele>49.0</ele><time>2026-04-04T13:21:07.99Z</time></trkpt><trkpt lat="40.26956523369204" lon="18.12711701001839"><ele>48.0</ele><time>2026-04-04T13:21:08.99Z</time></trkpt><trkpt lat="40.26972589907472" lon="18.12698332936849"><ele>47.0</ele><time>2026-04-04T13:21:09.99Z</time></trkpt><trkpt lat="40.26989998288277" lon="18.126859910679062"><ele>47.0</ele><time>2026-04-04T13:21:10.99Z</time></trkpt><trkpt lat="40.27007893948521" lon="18.126737418558545"><ele>47.0</ele><time>2026-04-04T13:21:11.99Z</time></trkpt><trkpt lat="40.27026492420102" lon="18.12661388905289"><ele>47.0</ele><time>2026-04-04T13:21:12.99Z</time></trkpt><trkpt lat="40.27045447522496" lon="18.126491703793157"><ele>46.666666666666664</ele><time>2026-04-04T13:21:13.991Z</time></trkpt><trkpt lat="40.27065183180784" lon="18.126362410493016"><ele>46.333333333333336</ele><time>2026-04-04T13:21:14.991Z</time></trkpt><trkpt lat="40.27085233977338" lon="18.12623296205272"><ele>46.0</ele><time>2026-04-04T13:21:15.991Z</time></trkpt><trkpt lat="40.27105646997378" lon="18.126095707644815"><ele>46.0</ele><time>2026-04-04T13:21:16.991Z</time></trkpt><trkpt lat="40.271262635934114" lon="18.125951610960186"><ele>46.0</ele><time>2026-04-04T13:21:17.991Z</time></trkpt><trkpt lat="40.27147222234575" lon="18.12582946773867"><ele>45.333333333333336</ele><time>2026-04-04T13:21:18.991Z</time></trkpt><trkpt lat="40.27168395985686" lon="18.12573668253022"><ele>44.666666666666664</ele><time>2026-04-04T13:21:19.991Z</time></trkpt><trkpt lat="40.271901688469505" lon="18.12566156035742"><ele>44.0</ele><time>2026-04-04T13:21:20.99Z</time></trkpt><trkpt lat="40.27211980485629" lon="18.12561045615895"><ele>44.33333333333333</ele><time>2026-04-04T13:21:21.99Z</time></trkpt><trkpt lat="40.272335767193624" lon="18.125586206156203"><ele>44.666666666666664</ele><time>2026-04-04T13:21:22.99Z</time></trkpt><trkpt lat="40.272546028076555" lon="18.125576577048506"><ele>45.0</ele><time>2026-04-04T13:21:23.991Z</time></trkpt><trkpt lat="40.272755654552306" lon="18.125597464829287"><ele>45.0</ele><time>2026-04-04T13:21:24.991Z</time></trkpt><trkpt lat="40.272949267142046" lon="18.12564287777815"><ele>45.0</ele><time>2026-04-04T13:21:25.991Z</time></trkpt><trkpt lat="40.273145013999574" lon="18.12569571987843"><ele>45.0</ele><time>2026-04-04T13:21:26.991Z</time></trkpt><trkpt lat="40.27333775768436" lon="18.125770121397007"><ele>44.666666666666664</ele><time>2026-04-04T13:21:27.991Z</time></trkpt><trkpt lat="40.273538911387725" lon="18.12586265477585"><ele>44.33333333333333</ele><time>2026-04-04T13:21:28.991Z</time></trkpt><trkpt lat="40.27374888787647" lon="18.12595659829331"><ele>44.0</ele><time>2026-04-04T13:21:29.991Z</time></trkpt><trkpt lat="40.27397459110843" lon="18.126050152233784"><ele>44.0</ele><time>2026-04-04T13:21:30.991Z</time></trkpt><trkpt lat="40.274201269813204" lon="18.12614098921496"><ele>44.0</ele><time>2026-04-04T13:21:31.991Z</time></trkpt><trkpt lat="40.27443860961763" lon="18.126237988368704"><ele>44.0</ele><time>2026-04-04T13:21:32.991Z</time></trkpt><trkpt lat="40.27467692342444" lon="18.126341304828923"><ele>44.0</ele><time>2026-04-04T13:21:33.991Z</time></trkpt><trkpt lat="40.27491295735243" lon="18.126444202198094"><ele>46.0</ele><time>2026-04-04T13:21:34.991Z</time></trkpt><trkpt lat="40.275146467736455" lon="18.126552607732464"><ele>48.0</ele><time>2026-04-04T13:21:35.991Z</time></trkpt><trkpt lat="40.27537979128896" lon="18.126659194029543"><ele>48.5</ele><time>2026-04-04T13:21:36.991Z</time></trkpt><trkpt lat="40.27561110983078" lon="18.126760515881873"><ele>49.0</ele><time>2026-04-04T13:21:37.991Z</time></trkpt><trkpt lat="40.2758377920934" lon="18.12686017082831"><ele>49.0</ele><time>2026-04-04T13:21:38.99Z</time></trkpt><trkpt lat="40.2760616583554" lon="18.12695964969298"><ele>49.0</ele><time>2026-04-04T13:21:39.99Z</time></trkpt><trkpt lat="40.27627559777203" lon="18.127054743049737"><ele>50.33333333333333</ele><time>2026-04-04T13:21:40.99Z</time></trkpt><trkpt lat="40.276486997766945" lon="18.127149431921726"><ele>51.66666666666667</ele><time>2026-04-04T13:21:41.99Z</time></trkpt><trkpt lat="40.27669895894037" lon="18.1272423131909"><ele>53.0</ele><time>2026-04-04T13:21:42.99Z</time></trkpt><trkpt lat="40.27691048832408" lon="18.12733654273112"><ele>54.0</ele><time>2026-04-04T13:21:43.99Z</time></trkpt><trkpt lat="40.27711848674201" lon="18.12742357639518"><ele>55.0</ele><time>2026-04-04T13:21:44.99Z</time></trkpt><trkpt lat="40.27732836098489" lon="18.12751494838931"><ele>56.0</ele><time>2026-04-04T13:21:45.99Z</time></trkpt><trkpt lat="40.27753463950312" lon="18.12760727940787"><ele>56.0</ele><time>2026-04-04T13:21:46.99Z</time></trkpt><trkpt lat="40.27773846373838" lon="18.12769658259039"><ele>56.0</ele><time>2026-04-04T13:21:47.99Z</time></trkpt><trkpt lat="40.27793941353545" lon="18.127785955573664"><ele>56.0</ele><time>2026-04-04T13:21:48.99Z</time></trkpt><trkpt lat="40.27814317023977" lon="18.127878436320078"><ele>53.66666666666667</ele><time>2026-04-04T13:21:49.99Z</time></trkpt><trkpt lat="40.278347085135174" lon="18.127972085046796"><ele>51.33333333333333</ele><time>2026-04-04T13:21:50.99Z</time></trkpt><trkpt lat="40.27855495248497" lon="18.128065749679664"><ele>49.0</ele><time>2026-04-04T13:21:51.99Z</time></trkpt><trkpt lat="40.27875952858232" lon="18.128157911551607"><ele>48.666666666666664</ele><time>2026-04-04T13:21:52.99Z</time></trkpt><trkpt lat="40.278967272111444" lon="18.12825140117316"><ele>48.33333333333333</ele><time>2026-04-04T13:21:53.99Z</time></trkpt><trkpt lat="40.27917396827975" lon="18.128344619038998"><ele>48.0</ele><time>2026-04-04T13:21:54.99Z</time></trkpt><trkpt lat="40.279380682518415" lon="18.1284353573055"><ele>48.0</ele><time>2026-04-04T13:21:55.99Z</time></trkpt><trkpt lat="40.27958620252912" lon="18.128527429579307"><ele>48.0</ele><time>2026-04-04T13:21:56.99Z</time></trkpt><trkpt lat="40.27978947533403" lon="18.128612372427586"><ele>48.0</ele><time>2026-04-04T13:21:57.99Z</time></trkpt><trkpt lat="40.2799881622716" lon="18.128694695362686"><ele>48.66666666666667</ele><time>2026-04-04T13:21:58.99Z</time></trkpt><trkpt lat="40.28018660691019" lon="18.12878632533291"><ele>49.333333333333336</ele><time>2026-04-04T13:21:59.99Z</time></trkpt><trkpt lat="40.28038596576662" lon="18.128876182096977"><ele>50.0</ele><time>2026-04-04T13:22:00.99Z</time></trkpt><trkpt lat="40.28059056397119" lon="18.128978849383103"><ele>50.0</ele><time>2026-04-04T13:22:01.99Z</time></trkpt><trkpt lat="40.28078731712808" lon="18.129060106960882"><ele>50.0</ele><time>2026-04-04T13:22:02.99Z</time></trkpt><trkpt lat="40.28098951417483" lon="18.129143698148205"><ele>50.0</ele><time>2026-04-04T13:22:03.99Z</time></trkpt><trkpt lat="40.28119268765785" lon="18.129231930405968"><ele>50.0</ele><time>2026-04-04T13:22:04.99Z</time></trkpt><trkpt lat="40.281398865578275" lon="18.129327887403583"><ele>50.0</ele><time>2026-04-04T13:22:05.99Z</time></trkpt><trkpt lat="40.281603462931315" lon="18.12942035495843"><ele>50.0</ele><time>2026-04-04T13:22:06.99Z</time></trkpt><trkpt lat="40.281806425148915" lon="18.12951173873771"><ele>49.333333333333336</ele><time>2026-04-04T13:22:07.99Z</time></trkpt><trkpt lat="40.28200947589671" lon="18.129600350743186"><ele>48.66666666666667</ele><time>2026-04-04T13:22:08.99Z</time></trkpt><trkpt lat="40.28221485697537" lon="18.129688543190706"><ele>48.0</ele><time>2026-04-04T13:22:09.99Z</time></trkpt><trkpt lat="40.28242249622573" lon="18.12977890209483"><ele>47.666666666666664</ele><time>2026-04-04T13:22:10.99Z</time></trkpt><trkpt lat="40.282632453811466" lon="18.129873239712804"><ele>47.33333333333333</ele><time>2026-04-04T13:22:11.99Z</time></trkpt><trkpt lat="40.28284502072124" lon="18.129968096647445"><ele>47.0</ele><time>2026-04-04T13:22:12.99Z</time></trkpt><trkpt lat="40.28305968792755" lon="18.130063068210617"><ele>47.5</ele><time>2026-04-04T13:22:13.99Z</time></trkpt><trkpt lat="40.28327319116363" lon="18.130156187043294"><ele>48.0</ele><time>2026-04-04T13:22:14.99Z</time></trkpt><trkpt lat="40.28348485234658" lon="18.130254449656174"><ele>48.0</ele><time>2026-04-04T13:22:15.99Z</time></trkpt><trkpt lat="40.283692808943265" lon="18.13034804165441"><ele>48.0</ele><time>2026-04-04T13:22:16.99Z</time></trkpt><trkpt lat="40.28389555824381" lon="18.130440565046676"><ele>48.0</ele><time>2026-04-04T13:22:17.99Z</time></trkpt><trkpt lat="40.28409858089176" lon="18.13052958988064"><ele>47.666666666666664</ele><time>2026-04-04T13:22:18.99Z</time></trkpt><trkpt lat="40.28430453889938" lon="18.13062087345884"><ele>47.33333333333333</ele><time>2026-04-04T13:22:19.99Z</time></trkpt><trkpt lat="40.284511191036955" lon="18.130711896072793"><ele>47.0</ele><time>2026-04-04T13:22:20.99Z</time></trkpt><trkpt lat="40.28471634017741" lon="18.13080173755801"><ele>48.0</ele><time>2026-04-04T13:22:21.99Z</time></trkpt><trkpt lat="40.28492489345196" lon="18.130892131686227"><ele>49.0</ele><time>2026-04-04T13:22:22.99Z</time></trkpt><trkpt lat="40.2851352570543" lon="18.130982047008537"><ele>50.0</ele><time>2026-04-04T13:22:23.99Z</time></trkpt><trkpt lat="40.285343026263085" lon="18.131072894972263"><ele>50.0</ele><time>2026-04-04T13:22:24.99Z</time></trkpt><trkpt lat="40.2855540036619" lon="18.131162964538404"><ele>50.0</ele><time>2026-04-04T13:22:25.99Z</time></trkpt><trkpt lat="40.28576600569617" lon="18.13126135217171"><ele>50.0</ele><time>2026-04-04T13:22:26.99Z</time></trkpt><trkpt lat="40.28598299152248" lon="18.131356737319944"><ele>49.5</ele><time>2026-04-04T13:22:27.99Z</time></trkpt><trkpt lat="40.286196847050846" lon="18.131456564082"><ele>49.0</ele><time>2026-04-04T13:22:28.99Z</time></trkpt><trkpt lat="40.286413438058766" lon="18.131556609239155"><ele>49.0</ele><time>2026-04-04T13:22:29.99Z</time></trkpt><trkpt lat="40.28662834653167" lon="18.131655338310583"><ele>49.0</ele><time>2026-04-04T13:22:30.99Z</time></trkpt><trkpt lat="40.28684013695361" lon="18.131750796737624"><ele>49.0</ele><time>2026-04-04T13:22:31.99Z</time></trkpt><trkpt lat="40.287051643809505" lon="18.13184539055689"><ele>49.0</ele><time>2026-04-04T13:22:32.99Z</time></trkpt><trkpt lat="40.28726034500039" lon="18.13194086942987"><ele>49.0</ele><time>2026-04-04T13:22:33.99Z</time></trkpt><trkpt lat="40.28747040911003" lon="18.13203216133227"><ele>48.666666666666664</ele><time>2026-04-04T13:22:34.99Z</time></trkpt><trkpt lat="40.287682658003526" lon="18.132125749135845"><ele>48.33333333333333</ele><time>2026-04-04T13:22:35.99Z</time></trkpt><trkpt lat="40.287891823074574" lon="18.13221772844624"><ele>48.0</ele><time>2026-04-04T13:22:36.99Z</time></trkpt><trkpt lat="40.288100369883935" lon="18.132309895571737"><ele>48.33333333333333</ele><time>2026-04-04T13:22:37.99Z</time></trkpt><trkpt lat="40.28830541453875" lon="18.13240430604787"><ele>48.666666666666664</ele><time>2026-04-04T13:22:38.99Z</time></trkpt><trkpt lat="40.288509643778525" lon="18.132496560006206"><ele>49.0</ele><time>2026-04-04T13:22:39.99Z</time></trkpt><trkpt lat="40.28871765328945" lon="18.13258679768963"><ele>50.0</ele><time>2026-04-04T13:22:40.99Z</time></trkpt><trkpt lat="40.28892612437894" lon="18.132678419392256"><ele>51.0</ele><time>2026-04-04T13:22:41.99Z</time></trkpt><trkpt lat="40.28913365371032" lon="18.132770128539168"><ele>52.0</ele><time>2026-04-04T13:22:42.99Z</time></trkpt><trkpt lat="40.28934195329096" lon="18.13285103063261"><ele>52.0</ele><time>2026-04-04T13:22:43.99Z</time></trkpt><trkpt lat="40.28955497572515" lon="18.132927954955765"><ele>52.0</ele><time>2026-04-04T13:22:44.99Z</time></trkpt><trkpt lat="40.28976828274658" lon="18.13300399732584"><ele>52.0</ele><time>2026-04-04T13:22:45.99Z</time></trkpt><trkpt lat="40.28998465300679" lon="18.13306740072912"><ele>51.5</ele><time>2026-04-04T13:22:46.99Z</time></trkpt><trkpt lat="40.29020667314856" lon="18.13312540830215"><ele>51.0</ele><time>2026-04-04T13:22:47.99Z</time></trkpt><trkpt lat="40.29043317641788" lon="18.13317353572026"><ele>51.33333333333333</ele><time>2026-04-04T13:22:48.99Z</time></trkpt><trkpt lat="40.29065457350997" lon="18.13320131024292"><ele>51.666666666666664</ele><time>2026-04-04T13:22:49.99Z</time></trkpt><trkpt lat="40.290876071419355" lon="18.133210907058075"><ele>52.0</ele><time>2026-04-04T13:22:50.99Z</time></trkpt><trkpt lat="40.291098325616545" lon="18.133204694216758"><ele>52.0</ele><time>2026-04-04T13:22:51.99Z</time></trkpt><trkpt lat="40.291319382319934" lon="18.13318364598994"><ele>52.0</ele><time>2026-04-04T13:22:52.99Z</time></trkpt><trkpt lat="40.29153873491918" lon="18.133150831437007"><ele>52.0</ele><time>2026-04-04T13:22:53.99Z</time></trkpt><trkpt lat="40.291758361616324" lon="18.133111106152565"><ele>51.666666666666664</ele><time>2026-04-04T13:22:54.99Z</time></trkpt><trkpt lat="40.29197724530942" lon="18.133066020404538"><ele>51.33333333333333</ele><time>2026-04-04T13:22:55.99Z</time></trkpt><trkpt lat="40.292195711050404" lon="18.133026593939444"><ele>51.0</ele><time>2026-04-04T13:22:56.99Z</time></trkpt><trkpt lat="40.292411800227974" lon="18.13298917005918"><ele>50.66666666666667</ele><time>2026-04-04T13:22:57.99Z</time></trkpt><trkpt lat="40.292625373149775" lon="18.132955833424425"><ele>50.333333333333336</ele><time>2026-04-04T13:22:58.99Z</time></trkpt><trkpt lat="40.29283882893007" lon="18.13292210839137"><ele>50.0</ele><time>2026-04-04T13:22:59.99Z</time></trkpt><trkpt lat="40.293053516300205" lon="18.132886698486477"><ele>49.333333333333336</ele><time>2026-04-04T13:23:00.99Z</time></trkpt><trkpt lat="40.293265212773115" lon="18.132853866520787"><ele>48.66666666666667</ele><time>2026-04-04T13:23:01.99Z</time></trkpt><trkpt lat="40.29347065867109" lon="18.132837055508677"><ele>48.0</ele><time>2026-04-04T13:23:02.99Z</time></trkpt><trkpt lat="40.293662106003985" lon="18.132818763524124"><ele>48.0</ele><time>2026-04-04T13:23:03.99Z</time></trkpt><trkpt lat="40.29383308048659" lon="18.13277987342396"><ele>48.0</ele><time>2026-04-04T13:23:04.99Z</time></trkpt><trkpt lat="40.29401705682229" lon="18.13275011475763"><ele>48.0</ele><time>2026-04-04T13:23:05.99Z</time></trkpt><trkpt lat="40.29420239995814" lon="18.132720892524056"><ele>47.0</ele><time>2026-04-04T13:23:06.99Z</time></trkpt><trkpt lat="40.29438023532896" lon="18.132689323068952"><ele>46.0</ele><time>2026-04-04T13:23:07.99Z</time></trkpt><trkpt lat="40.29455550690331" lon="18.132648336864392"><ele>45.0</ele><time>2026-04-04T13:23:08.99Z</time></trkpt><trkpt lat="40.29472965629439" lon="18.132616532110095"><ele>44.333333333333336</ele><time>2026-04-04T13:23:09.99Z</time></trkpt><trkpt lat="40.29490335227439" lon="18.132577505788593"><ele>43.66666666666667</ele><time>2026-04-04T13:23:10.99Z</time></trkpt><trkpt lat="40.29507372452893" lon="18.132538894157754"><ele>43.0</ele><time>2026-04-04T13:23:11.99Z</time></trkpt><trkpt lat="40.29524605184039" lon="18.132508089449964"><ele>43.0</ele><time>2026-04-04T13:23:12.99Z</time></trkpt><trkpt lat="40.295420393075915" lon="18.132470019567094"><ele>43.0</ele><time>2026-04-04T13:23:13.99Z</time></trkpt><trkpt lat="40.29559804822133" lon="18.132429985492898"><ele>43.0</ele><time>2026-04-04T13:23:14.99Z</time></trkpt><trkpt lat="40.295782665170705" lon="18.132388970002516"><ele>43.333333333333336</ele><time>2026-04-04T13:23:15.99Z</time></trkpt><trkpt lat="40.29597169447426" lon="18.13235195889428"><ele>43.666666666666664</ele><time>2026-04-04T13:23:16.99Z</time></trkpt><trkpt lat="40.29616124767313" lon="18.13231658094771"><ele>44.0</ele><time>2026-04-04T13:23:17.99Z</time></trkpt><trkpt lat="40.296353635351366" lon="18.132277969990902"><ele>44.0</ele><time>2026-04-04T13:23:18.99Z</time></trkpt><trkpt lat="40.2965509276672" lon="18.132235616492746"><ele>44.0</ele><time>2026-04-04T13:23:19.99Z</time></trkpt><trkpt lat="40.29675195261929" lon="18.132200616590506"><ele>44.0</ele><time>2026-04-04T13:23:20.991Z</time></trkpt><trkpt lat="40.29696317704283" lon="18.132179545763112"><ele>44.0</ele><time>2026-04-04T13:23:21.991Z</time></trkpt><trkpt lat="40.297190001697984" lon="18.13217494229513"><ele>44.0</ele><time>2026-04-04T13:23:22.991Z</time></trkpt><trkpt lat="40.297426045303034" lon="18.13218227871157"><ele>43.0</ele><time>2026-04-04T13:23:23.99Z</time></trkpt><trkpt lat="40.29766946122804" lon="18.13220191624283"><ele>42.0</ele><time>2026-04-04T13:23:24.99Z</time></trkpt><trkpt lat="40.297916473196814" lon="18.13222375047876"><ele>42.0</ele><time>2026-04-04T13:23:25.99Z</time></trkpt><trkpt lat="40.2981566532406" lon="18.13227178778568"><ele>42.0</ele><time>2026-04-04T13:23:26.99Z</time></trkpt><trkpt lat="40.29840387486192" lon="18.13233233531317"><ele>42.0</ele><time>2026-04-04T13:23:27.99Z</time></trkpt><trkpt lat="40.298650360802625" lon="18.132411513881426"><ele>42.0</ele><time>2026-04-04T13:23:28.99Z</time></trkpt><trkpt lat="40.298893105347055" lon="18.132486544724326"><ele>42.0</ele><time>2026-04-04T13:23:29.991Z</time></trkpt><trkpt lat="40.29913863672564" lon="18.13256082728315"><ele>42.0</ele><time>2026-04-04T13:23:30.991Z</time></trkpt><trkpt lat="40.299370970107404" lon="18.132623480529883"><ele>42.0</ele><time>2026-04-04T13:23:31.99Z</time></trkpt><trkpt lat="40.29956896453395" lon="18.13266156689808"><ele>42.0</ele><time>2026-04-04T13:23:32.991Z</time></trkpt><trkpt lat="40.29975224803893" lon="18.132686112379652"><ele>42.0</ele><time>2026-04-04T13:23:33.991Z</time></trkpt><trkpt lat="40.299935066497724" lon="18.132712126744124"><ele>41.0</ele><time>2026-04-04T13:23:34.991Z</time></trkpt><trkpt lat="40.30008453425112" lon="18.13275410984143"><ele>40.0</ele><time>2026-04-04T13:23:35.991Z</time></trkpt><trkpt lat="40.30028507524896" lon="18.13282802832279"><ele>39.0</ele><time>2026-04-04T13:23:36.991Z</time></trkpt><trkpt lat="40.30048842453543" lon="18.13290923547754"><ele>38.0</ele><time>2026-04-04T13:23:37.991Z</time></trkpt><trkpt lat="40.30070084642433" lon="18.13300940911623"><ele>37.0</ele><time>2026-04-04T13:23:38.991Z</time></trkpt><trkpt lat="40.30091903126793" lon="18.133117697528032"><ele>37.66666666666667</ele><time>2026-04-04T13:23:39.991Z</time></trkpt><trkpt lat="40.301134480499506" lon="18.13322558012449"><ele>38.333333333333336</ele><time>2026-04-04T13:23:40.991Z</time></trkpt><trkpt lat="40.30134207784618" lon="18.133308040946382"><ele>39.0</ele><time>2026-04-04T13:23:41.991Z</time></trkpt><trkpt lat="40.30154625755521" lon="18.133393586105075"><ele>39.333333333333336</ele><time>2026-04-04T13:23:42.991Z</time></trkpt><trkpt lat="40.30173597108029" lon="18.133473886531895"><ele>39.66666666666667</ele><time>2026-04-04T13:23:43.991Z</time></trkpt><trkpt lat="40.301931425246565" lon="18.133552833312628"><ele>40.0</ele><time>2026-04-04T13:23:44.991Z</time></trkpt><trkpt lat="40.30214547983391" lon="18.13364429355784"><ele>40.5</ele><time>2026-04-04T13:23:45.991Z</time></trkpt><trkpt lat="40.302358395217546" lon="18.133738607016543"><ele>41.0</ele><time>2026-04-04T13:23:46.991Z</time></trkpt><trkpt lat="40.30258621601671" lon="18.133838734519504"><ele>41.0</ele><time>2026-04-04T13:23:47.991Z</time></trkpt><trkpt lat="40.30281199333634" lon="18.133941022248543"><ele>41.0</ele><time>2026-04-04T13:23:48.991Z</time></trkpt><trkpt lat="40.303036658086654" lon="18.134041936961378"><ele>42.0</ele><time>2026-04-04T13:23:49.991Z</time></trkpt><trkpt lat="40.30328210571984" lon="18.13415662222367"><ele>43.0</ele><time>2026-04-04T13:23:50.991Z</time></trkpt><trkpt lat="40.30353799136342" lon="18.134271818038748"><ele>43.0</ele><time>2026-04-04T13:23:51.99Z</time></trkpt><trkpt lat="40.30377628890843" lon="18.13436879143652"><ele>43.0</ele><time>2026-04-04T13:23:52.99Z</time></trkpt><trkpt lat="40.3040058198251" lon="18.134464065003908"><ele>42.0</ele><time>2026-04-04T13:23:53.99Z</time></trkpt><trkpt lat="40.30423232808319" lon="18.134554040704767"><ele>41.0</ele><time>2026-04-04T13:23:54.99Z</time></trkpt><trkpt lat="40.30445753269383" lon="18.13463822400572"><ele>41.0</ele><time>2026-04-04T13:23:55.99Z</time></trkpt><trkpt lat="40.304686573572525" lon="18.13471485704803"><ele>41.0</ele><time>2026-04-04T13:23:56.99Z</time></trkpt><trkpt lat="40.30491911906071" lon="18.134796436137954"><ele>41.0</ele><time>2026-04-04T13:23:57.99Z</time></trkpt><trkpt lat="40.30515407328641" lon="18.13488399056097"><ele>41.0</ele><time>2026-04-04T13:23:58.99Z</time></trkpt><trkpt lat="40.30539002479919" lon="18.13497426449453"><ele>41.0</ele><time>2026-04-04T13:23:59.99Z</time></trkpt><trkpt lat="40.30562495232922" lon="18.135066454087067"><ele>41.0</ele><time>2026-04-04T13:24:00.99Z</time></trkpt><trkpt lat="40.305857632331104" lon="18.13515386503372"><ele>41.0</ele><time>2026-04-04T13:24:01.99Z</time></trkpt><trkpt lat="40.306089577521526" lon="18.135238911954826"><ele>41.0</ele><time>2026-04-04T13:24:02.99Z</time></trkpt><trkpt lat="40.30632251116202" lon="18.13531927095346"><ele>41.0</ele><time>2026-04-04T13:24:03.99Z</time></trkpt><trkpt lat="40.30656024835605" lon="18.135390012150534"><ele>41.0</ele><time>2026-04-04T13:24:04.99Z</time></trkpt><trkpt lat="40.30680202666854" lon="18.135460205287362"><ele>41.0</ele><time>2026-04-04T13:24:05.99Z</time></trkpt><trkpt lat="40.30704759944468" lon="18.13553571323825"><ele>41.0</ele><time>2026-04-04T13:24:06.99Z</time></trkpt><trkpt lat="40.30729234784953" lon="18.1356180628298"><ele>39.5</ele><time>2026-04-04T13:24:07.99Z</time></trkpt><trkpt lat="40.30753374571767" lon="18.135702133094693"><ele>38.0</ele><time>2026-04-04T13:24:08.99Z</time></trkpt><trkpt lat="40.30777363933405" lon="18.135783377503845"><ele>37.5</ele><time>2026-04-04T13:24:09.99Z</time></trkpt><trkpt lat="40.30801466510075" lon="18.13586595385096"><ele>37.0</ele><time>2026-04-04T13:24:10.99Z</time></trkpt><trkpt lat="40.308256440134606" lon="18.135949912144305"><ele>36.5</ele><time>2026-04-04T13:24:11.99Z</time></trkpt><trkpt lat="40.30850316209838" lon="18.136032072991693"><ele>36.0</ele><time>2026-04-04T13:24:12.99Z</time></trkpt><trkpt lat="40.30874916566838" lon="18.13611532341007"><ele>36.0</ele><time>2026-04-04T13:24:13.99Z</time></trkpt><trkpt lat="40.308996453961555" lon="18.136201132633794"><ele>36.0</ele><time>2026-04-04T13:24:14.99Z</time></trkpt><trkpt lat="40.30924293148581" lon="18.136290577810115"><ele>36.0</ele><time>2026-04-04T13:24:15.99Z</time></trkpt><trkpt lat="40.30949105685754" lon="18.136375606117817"><ele>36.0</ele><time>2026-04-04T13:24:16.99Z</time></trkpt><trkpt lat="40.30973571239053" lon="18.136460966547133"><ele>35.5</ele><time>2026-04-04T13:24:17.99Z</time></trkpt><trkpt lat="40.309979456872" lon="18.13655050442586"><ele>35.0</ele><time>2026-04-04T13:24:18.99Z</time></trkpt><trkpt lat="40.310229029166926" lon="18.136642441776132"><ele>35.0</ele><time>2026-04-04T13:24:19.99Z</time></trkpt><trkpt lat="40.31048018898938" lon="18.136739558789554"><ele>35.0</ele><time>2026-04-04T13:24:20.99Z</time></trkpt><trkpt lat="40.31073118621078" lon="18.136837688332697"><ele>35.5</ele><time>2026-04-04T13:24:21.99Z</time></trkpt><trkpt lat="40.3109826645127" lon="18.13693116319396"><ele>36.0</ele><time>2026-04-04T13:24:22.99Z</time></trkpt><trkpt lat="40.31123400783535" lon="18.13702453129045"><ele>35.0</ele><time>2026-04-04T13:24:23.99Z</time></trkpt><trkpt lat="40.31148285294383" lon="18.137114812824358"><ele>34.0</ele><time>2026-04-04T13:24:24.99Z</time></trkpt><trkpt lat="40.31173122604435" lon="18.13720266805286"><ele>34.0</ele><time>2026-04-04T13:24:25.99Z</time></trkpt><trkpt lat="40.31198195763614" lon="18.137298809253423"><ele>34.0</ele><time>2026-04-04T13:24:26.99Z</time></trkpt><trkpt lat="40.31223032194958" lon="18.1374143881066"><ele>35.0</ele><time>2026-04-04T13:24:27.99Z</time></trkpt><trkpt lat="40.31247144871685" lon="18.137554304159575"><ele>36.0</ele><time>2026-04-04T13:24:28.99Z</time></trkpt><trkpt lat="40.31270079715525" lon="18.13770495666497"><ele>36.0</ele><time>2026-04-04T13:24:29.99Z</time></trkpt><trkpt lat="40.312910063840484" lon="18.137866404784077"><ele>36.0</ele><time>2026-04-04T13:24:30.99Z</time></trkpt><trkpt lat="40.31310334498294" lon="18.138043652501374"><ele>35.5</ele><time>2026-04-04T13:24:31.99Z</time></trkpt><trkpt lat="40.31328433880839" lon="18.138239222290238"><ele>35.0</ele><time>2026-04-04T13:24:32.99Z</time></trkpt><trkpt lat="40.31345365939026" lon="18.13844499399785"><ele>35.0</ele><time>2026-04-04T13:24:33.99Z</time></trkpt><trkpt lat="40.3136125290348" lon="18.13865809722358"><ele>35.0</ele><time>2026-04-04T13:24:34.99Z</time></trkpt><trkpt lat="40.313763187897784" lon="18.13888310992981"><ele>35.0</ele><time>2026-04-04T13:24:35.99Z</time></trkpt><trkpt lat="40.313900621302004" lon="18.13912165716597"><ele>35.0</ele><time>2026-04-04T13:24:36.99Z</time></trkpt><trkpt lat="40.31403205341259" lon="18.13937041486919"><ele>35.5</ele><time>2026-04-04T13:24:37.99Z</time></trkpt><trkpt lat="40.31415562999491" lon="18.13962593064982"><ele>36.0</ele><time>2026-04-04T13:24:38.99Z</time></trkpt><trkpt lat="40.314273161594166" lon="18.139885306571244"><ele>36.0</ele><time>2026-04-04T13:24:39.99Z</time></trkpt><trkpt lat="40.31438915359872" lon="18.140144987159463"><ele>36.0</ele><time>2026-04-04T13:24:40.99Z</time></trkpt><trkpt lat="40.3145093142616" lon="18.14040554083017"><ele>36.0</ele><time>2026-04-04T13:24:41.99Z</time></trkpt><trkpt lat="40.31463179199648" lon="18.14066539870287"><ele>36.0</ele><time>2026-04-04T13:24:42.99Z</time></trkpt><trkpt lat="40.314755200467665" lon="18.14092887540465"><ele>35.0</ele><time>2026-04-04T13:24:43.99Z</time></trkpt><trkpt lat="40.3148778522405" lon="18.141196438683462"><ele>34.0</ele><time>2026-04-04T13:24:44.99Z</time></trkpt><trkpt lat="40.31500073461474" lon="18.141463981415665"><ele>34.5</ele><time>2026-04-04T13:24:45.99Z</time></trkpt><trkpt lat="40.31512536752681" lon="18.141730305912386"><ele>35.0</ele><time>2026-04-04T13:24:46.99Z</time></trkpt><trkpt lat="40.31524910085541" lon="18.141995334346717"><ele>35.0</ele><time>2026-04-04T13:24:47.99Z</time></trkpt><trkpt lat="40.31537249663677" lon="18.142256230919198"><ele>35.0</ele><time>2026-04-04T13:24:48.99Z</time></trkpt><trkpt lat="40.315492632234125" lon="18.142520092210948"><ele>35.5</ele><time>2026-04-04T13:24:49.99Z</time></trkpt><trkpt lat="40.3156122221792" lon="18.142777213524152"><ele>36.0</ele><time>2026-04-04T13:24:50.99Z</time></trkpt><trkpt lat="40.31573157245569" lon="18.143027708173005"><ele>35.333333333333336</ele><time>2026-04-04T13:24:51.99Z</time></trkpt><trkpt lat="40.31585029512344" lon="18.14327602160503"><ele>34.66666666666667</ele><time>2026-04-04T13:24:52.99Z</time></trkpt><trkpt lat="40.31596619490486" lon="18.14352493215458"><ele>34.0</ele><time>2026-04-04T13:24:53.99Z</time></trkpt><trkpt lat="40.31608647108634" lon="18.143776173270535"><ele>34.0</ele><time>2026-04-04T13:24:54.99Z</time></trkpt><trkpt lat="40.3162108396164" lon="18.144016500632343"><ele>34.0</ele><time>2026-04-04T13:24:55.99Z</time></trkpt><trkpt lat="40.316345370657594" lon="18.14424610894111"><ele>34.0</ele><time>2026-04-04T13:24:56.99Z</time></trkpt><trkpt lat="40.31649408144726" lon="18.144464486783406"><ele>33.0</ele><time>2026-04-04T13:24:57.99Z</time></trkpt><trkpt lat="40.316650287014234" lon="18.14467658284575"><ele>32.0</ele><time>2026-04-04T13:24:58.99Z</time></trkpt><trkpt lat="40.31681470855014" lon="18.1448806785727"><ele>31.666666666666664</ele><time>2026-04-04T13:24:59.99Z</time></trkpt><trkpt lat="40.31698415559239" lon="18.14506984343774"><ele>31.333333333333336</ele><time>2026-04-04T13:25:00.99Z</time></trkpt><trkpt lat="40.31716311101029" lon="18.145235364115717"><ele>31.0</ele><time>2026-04-04T13:25:01.99Z</time></trkpt><trkpt lat="40.3173421983467" lon="18.145389085747038"><ele>30.666666666666668</ele><time>2026-04-04T13:25:02.99Z</time></trkpt><trkpt lat="40.31752099741772" lon="18.14554100729965"><ele>30.333333333333336</ele><time>2026-04-04T13:25:03.99Z</time></trkpt><trkpt lat="40.31770456873677" lon="18.145668696059236"><ele>30.0</ele><time>2026-04-04T13:25:04.99Z</time></trkpt><trkpt lat="40.31789149543688" lon="18.145777011624592"><ele>27.666666666666668</ele><time>2026-04-04T13:25:05.99Z</time></trkpt><trkpt lat="40.31808445666719" lon="18.145881253896427"><ele>25.333333333333336</ele><time>2026-04-04T13:25:06.99Z</time></trkpt><trkpt lat="40.318272385314614" lon="18.145981453664362"><ele>23.0</ele><time>2026-04-04T13:25:07.99Z</time></trkpt><trkpt lat="40.31846002365106" lon="18.1460791155562"><ele>23.0</ele><time>2026-04-04T13:25:08.99Z</time></trkpt><trkpt lat="40.31864616681507" lon="18.146176690402093"><ele>23.0</ele><time>2026-04-04T13:25:09.99Z</time></trkpt><trkpt lat="40.31882895000526" lon="18.146269742920005"><ele>23.0</ele><time>2026-04-04T13:25:10.99Z</time></trkpt><trkpt lat="40.31901293122788" lon="18.14636608558327"><ele>23.0</ele><time>2026-04-04T13:25:11.99Z</time></trkpt><trkpt lat="40.31919641963846" lon="18.14646295121646"><ele>23.0</ele><time>2026-04-04T13:25:12.99Z</time></trkpt><trkpt lat="40.31937693537079" lon="18.146558537438462"><ele>23.0</ele><time>2026-04-04T13:25:13.99Z</time></trkpt><trkpt lat="40.31955714766003" lon="18.14665277706513"><ele>23.0</ele><time>2026-04-04T13:25:14.99Z</time></trkpt><trkpt lat="40.319737318331505" lon="18.146745404310142"><ele>23.0</ele><time>2026-04-04T13:25:15.99Z</time></trkpt><trkpt lat="40.319915492372424" lon="18.14683749018603"><ele>23.0</ele><time>2026-04-04T13:25:16.99Z</time></trkpt><trkpt lat="40.32009054748063" lon="18.146929242492504"><ele>23.0</ele><time>2026-04-04T13:25:17.99Z</time></trkpt><trkpt lat="40.320268047061965" lon="18.147017030846975"><ele>23.0</ele><time>2026-04-04T13:25:18.99Z</time></trkpt><trkpt lat="40.320443684329064" lon="18.147102016339815"><ele>23.0</ele><time>2026-04-04T13:25:19.99Z</time></trkpt><trkpt lat="40.32061960971284" lon="18.14718814657852"><ele>22.666666666666668</ele><time>2026-04-04T13:25:20.99Z</time></trkpt><trkpt lat="40.32079088242675" lon="18.147277086061322"><ele>22.333333333333332</ele><time>2026-04-04T13:25:21.99Z</time></trkpt><trkpt lat="40.320963197953816" lon="18.14736602649314"><ele>22.0</ele><time>2026-04-04T13:25:22.99Z</time></trkpt><trkpt lat="40.32113864873507" lon="18.14746503136449"><ele>22.666666666666664</ele><time>2026-04-04T13:25:23.99Z</time></trkpt><trkpt lat="40.321317776008954" lon="18.147561651278966"><ele>23.333333333333332</ele><time>2026-04-04T13:25:24.99Z</time></trkpt><trkpt lat="40.32149847726454" lon="18.147662407913536"><ele>24.0</ele><time>2026-04-04T13:25:25.99Z</time></trkpt><trkpt lat="40.32168204447948" lon="18.147761853834147"><ele>24.0</ele><time>2026-04-04T13:25:26.99Z</time></trkpt><trkpt lat="40.32186639713941" lon="18.14785937221376"><ele>24.0</ele><time>2026-04-04T13:25:27.99Z</time></trkpt><trkpt lat="40.322052295164504" lon="18.147956506359908"><ele>24.0</ele><time>2026-04-04T13:25:28.99Z</time></trkpt><trkpt lat="40.32223512419794" lon="18.148054322418854"><ele>24.0</ele><time>2026-04-04T13:25:29.99Z</time></trkpt><trkpt lat="40.3224196903583" lon="18.14815212608326"><ele>24.0</ele><time>2026-04-04T13:25:30.99Z</time></trkpt><trkpt lat="40.32260726916097" lon="18.148251794206402"><ele>24.0</ele><time>2026-04-04T13:25:31.99Z</time></trkpt><trkpt lat="40.322798046502136" lon="18.148349960835656"><ele>24.0</ele><time>2026-04-04T13:25:32.99Z</time></trkpt><trkpt lat="40.32298764541637" lon="18.148449798179286"><ele>24.0</ele><time>2026-04-04T13:25:33.99Z</time></trkpt><trkpt lat="40.32317723725948" lon="18.148549874945964"><ele>24.0</ele><time>2026-04-04T13:25:34.99Z</time></trkpt><trkpt lat="40.32336547072058" lon="18.148650063446972"><ele>24.666666666666664</ele><time>2026-04-04T13:25:35.989Z</time></trkpt><trkpt lat="40.32355230133033" lon="18.148756496038622"><ele>25.333333333333332</ele><time>2026-04-04T13:25:36.989Z</time></trkpt><trkpt lat="40.323740941261704" lon="18.148857312779224"><ele>26.0</ele><time>2026-04-04T13:25:37.99Z</time></trkpt><trkpt lat="40.32392946939616" lon="18.148958016239188"><ele>26.333333333333332</ele><time>2026-04-04T13:25:38.99Z</time></trkpt><trkpt lat="40.32411532140367" lon="18.14905887046787"><ele>26.666666666666664</ele><time>2026-04-04T13:25:39.99Z</time></trkpt><trkpt lat="40.32430307709535" lon="18.149157892309628"><ele>27.0</ele><time>2026-04-04T13:25:40.99Z</time></trkpt><trkpt lat="40.324492707527604" lon="18.14925836558299"><ele>27.0</ele><time>2026-04-04T13:25:41.99Z</time></trkpt><trkpt lat="40.32468249425341" lon="18.14935642267764"><ele>27.0</ele><time>2026-04-04T13:25:42.99Z</time></trkpt><trkpt lat="40.32487243974968" lon="18.149455268291234"><ele>27.0</ele><time>2026-04-04T13:25:43.99Z</time></trkpt><trkpt lat="40.325072284155745" lon="18.149565839591098"><ele>29.5</ele><time>2026-04-04T13:25:44.99Z</time></trkpt><trkpt lat="40.325284423939465" lon="18.149696790235332"><ele>32.0</ele><time>2026-04-04T13:25:45.99Z</time></trkpt><trkpt lat="40.32551463262193" lon="18.149870173949072"><ele>31.0</ele><time>2026-04-04T13:25:46.99Z</time></trkpt><trkpt lat="40.32575138782008" lon="18.150072553485476"><ele>30.0</ele><time>2026-04-04T13:25:47.99Z</time></trkpt><trkpt lat="40.32587525069724" lon="18.149966545459986"><ele>29.0</ele><time>2026-04-04T13:25:48.99Z</time></trkpt><trkpt lat="40.326078613523904" lon="18.15007446004705"><ele>29.0</ele><time>2026-04-04T13:25:49.99Z</time></trkpt><trkpt lat="40.32628545615191" lon="18.150180484098478"><ele>29.0</ele><time>2026-04-04T13:25:50.99Z</time></trkpt><trkpt lat="40.32648625838118" lon="18.150287245596875"><ele>29.0</ele><time>2026-04-04T13:25:51.99Z</time></trkpt><trkpt lat="40.3266870471393" lon="18.150397966290466"><ele>29.0</ele><time>2026-04-04T13:25:52.99Z</time></trkpt><trkpt lat="40.32689077310741" lon="18.150505678445406"><ele>29.0</ele><time>2026-04-04T13:25:53.99Z</time></trkpt><trkpt lat="40.32709397879971" lon="18.150615452036035"><ele>29.0</ele><time>2026-04-04T13:25:54.99Z</time></trkpt><trkpt lat="40.327297458591154" lon="18.150724965248425"><ele>29.666666666666664</ele><time>2026-04-04T13:25:55.99Z</time></trkpt><trkpt lat="40.32750239297925" lon="18.150835714491446"><ele>30.333333333333336</ele><time>2026-04-04T13:25:56.99Z</time></trkpt><trkpt lat="40.327709646857095" lon="18.150946108988432"><ele>31.0</ele><time>2026-04-04T13:25:57.99Z</time></trkpt><trkpt lat="40.32791472390332" lon="18.151060313737712"><ele>31.666666666666668</ele><time>2026-04-04T13:25:58.99Z</time></trkpt><trkpt lat="40.328119159296044" lon="18.151170096550462"><ele>32.333333333333336</ele><time>2026-04-04T13:25:59.99Z</time></trkpt><trkpt lat="40.32832563144119" lon="18.15127876368099"><ele>33.0</ele><time>2026-04-04T13:26:00.99Z</time></trkpt><trkpt lat="40.328528034743506" lon="18.151385377981157"><ele>33.0</ele><time>2026-04-04T13:26:01.99Z</time></trkpt><trkpt lat="40.328731151530725" lon="18.151493004849193"><ele>33.0</ele><time>2026-04-04T13:26:02.99Z</time></trkpt><trkpt lat="40.32893245896321" lon="18.151595591149352"><ele>33.0</ele><time>2026-04-04T13:26:03.99Z</time></trkpt><trkpt lat="40.32913472466646" lon="18.151700151118913"><ele>33.666666666666664</ele><time>2026-04-04T13:26:04.99Z</time></trkpt><trkpt lat="40.32933423494014" lon="18.151800936826394"><ele>34.33333333333333</ele><time>2026-04-04T13:26:05.99Z</time></trkpt><trkpt lat="40.32953614907747" lon="18.151904324317744"><ele>35.0</ele><time>2026-04-04T13:26:06.99Z</time></trkpt><trkpt lat="40.32973540917112" lon="18.152012121922894"><ele>35.0</ele><time>2026-04-04T13:26:07.99Z</time></trkpt><trkpt lat="40.329932523712806" lon="18.15211301802464"><ele>35.0</ele><time>2026-04-04T13:26:08.99Z</time></trkpt><trkpt lat="40.33012993660165" lon="18.152210097742167"><ele>35.0</ele><time>2026-04-04T13:26:09.99Z</time></trkpt><trkpt lat="40.33032926142049" lon="18.152308764054446"><ele>35.666666666666664</ele><time>2026-04-04T13:26:10.99Z</time></trkpt><trkpt lat="40.330523645790294" lon="18.15240821810771"><ele>36.333333333333336</ele><time>2026-04-04T13:26:11.99Z</time></trkpt><trkpt lat="40.33072518726584" lon="18.152509153557382"><ele>37.0</ele><time>2026-04-04T13:26:12.99Z</time></trkpt><trkpt lat="40.330916413586934" lon="18.152614886804383"><ele>38.0</ele><time>2026-04-04T13:26:13.99Z</time></trkpt><trkpt lat="40.331111929584175" lon="18.152726623665703"><ele>39.0</ele><time>2026-04-04T13:26:14.99Z</time></trkpt><trkpt lat="40.33131237100789" lon="18.152834035705464"><ele>40.0</ele><time>2026-04-04T13:26:15.99Z</time></trkpt><trkpt lat="40.33151958521611" lon="18.15293409341348"><ele>41.0</ele><time>2026-04-04T13:26:16.99Z</time></trkpt><trkpt lat="40.33171847028495" lon="18.15303634516984"><ele>42.0</ele><time>2026-04-04T13:26:17.99Z</time></trkpt><trkpt lat="40.331914974500506" lon="18.15313695141213"><ele>43.0</ele><time>2026-04-04T13:26:18.99Z</time></trkpt><trkpt lat="40.33210882601897" lon="18.153242914285226"><ele>44.333333333333336</ele><time>2026-04-04T13:26:19.99Z</time></trkpt><trkpt lat="40.332282244066825" lon="18.153348618237263"><ele>45.666666666666664</ele><time>2026-04-04T13:26:20.99Z</time></trkpt><trkpt lat="40.33245917381687" lon="18.15345251247317"><ele>47.0</ele><time>2026-04-04T13:26:21.99Z</time></trkpt><trkpt lat="40.33264171934942" lon="18.1535435688231"><ele>47.0</ele><time>2026-04-04T13:26:22.99Z</time></trkpt><trkpt lat="40.33282634538713" lon="18.153634440427147"><ele>47.0</ele><time>2026-04-04T13:26:23.99Z</time></trkpt><trkpt lat="40.333009016836264" lon="18.15372958175328"><ele>47.0</ele><time>2026-04-04T13:26:24.99Z</time></trkpt><trkpt lat="40.33319431353924" lon="18.153825311232357"><ele>47.0</ele><time>2026-04-04T13:26:25.99Z</time></trkpt><trkpt lat="40.3333769014458" lon="18.153918284815926"><ele>47.0</ele><time>2026-04-04T13:26:26.99Z</time></trkpt><trkpt lat="40.333543765692916" lon="18.15400306680763"><ele>47.0</ele><time>2026-04-04T13:26:27.99Z</time></trkpt><trkpt lat="40.333700410306434" lon="18.15409135132921"><ele>47.33333333333333</ele><time>2026-04-04T13:26:28.99Z</time></trkpt><trkpt lat="40.33386506257868" lon="18.154185496873204"><ele>47.666666666666664</ele><time>2026-04-04T13:26:29.99Z</time></trkpt><trkpt lat="40.3340277642962" lon="18.154286682310808"><ele>48.0</ele><time>2026-04-04T13:26:30.99Z</time></trkpt><trkpt lat="40.334204160259866" lon="18.15437865849716"><ele>48.0</ele><time>2026-04-04T13:26:31.99Z</time></trkpt><trkpt lat="40.33436538909002" lon="18.15446229572596"><ele>48.0</ele><time>2026-04-04T13:26:32.99Z</time></trkpt><trkpt lat="40.33451143800231" lon="18.154535758775065"><ele>48.0</ele><time>2026-04-04T13:26:33.99Z</time></trkpt><trkpt lat="40.33465176425686" lon="18.154608721624115"><ele>48.25</ele><time>2026-04-04T13:26:34.99Z</time></trkpt><trkpt lat="40.33478205866602" lon="18.154684349485244"><ele>48.5</ele><time>2026-04-04T13:26:35.99Z</time></trkpt><trkpt lat="40.334906595118916" lon="18.154756038515437"><ele>48.75</ele><time>2026-04-04T13:26:36.99Z</time></trkpt><trkpt lat="40.3350252590753" lon="18.154828806716807"><ele>49.0</ele><time>2026-04-04T13:26:37.99Z</time></trkpt><trkpt lat="40.335141752848315" lon="18.154884285468857"><ele>49.0</ele><time>2026-04-04T13:26:38.99Z</time></trkpt><trkpt lat="40.33525172483584" lon="18.15494483864112"><ele>49.0</ele><time>2026-04-04T13:26:39.99Z</time></trkpt><trkpt lat="40.33534867262338" lon="18.154999218304248"><ele>49.0</ele><time>2026-04-04T13:26:40.99Z</time></trkpt><trkpt lat="40.33544802776243" lon="18.155053129880034"><ele>49.0</ele><time>2026-04-04T13:26:41.99Z</time></trkpt><trkpt lat="40.33554361132079" lon="18.1551068888231"><ele>49.0</ele><time>2026-04-04T13:26:42.99Z</time></trkpt><trkpt lat="40.335631598228" lon="18.155148254784848"><ele>49.166666666666664</ele><time>2026-04-04T13:26:43.99Z</time></trkpt><trkpt lat="40.335707074852984" lon="18.15519138161795"><ele>49.33333333333333</ele><time>2026-04-04T13:26:44.99Z</time></trkpt><trkpt lat="40.33578827140995" lon="18.155229481568554"><ele>49.5</ele><time>2026-04-04T13:26:45.99Z</time></trkpt><trkpt lat="40.335869484326146" lon="18.155280016035135"><ele>49.66666666666667</ele><time>2026-04-04T13:26:46.99Z</time></trkpt><trkpt lat="40.33595454297027" lon="18.15533067291251"><ele>49.833333333333336</ele><time>2026-04-04T13:26:47.99Z</time></trkpt><trkpt lat="40.336029354031474" lon="18.15538238624341"><ele>50.0</ele><time>2026-04-04T13:26:48.99Z</time></trkpt><trkpt lat="40.33610766546461" lon="18.155430300533197"><ele>50.00000000000001</ele><time>2026-04-04T13:26:49.99Z</time></trkpt><trkpt lat="40.33618181673407" lon="18.15546797098593"><ele>50.0</ele><time>2026-04-04T13:26:50.99Z</time></trkpt><trkpt lat="40.3362466223741" lon="18.155498203918135"><ele>50.0</ele><time>2026-04-04T13:26:51.99Z</time></trkpt><trkpt lat="40.336306820265854" lon="18.155530702194056"><ele>50.0</ele><time>2026-04-04T13:26:52.99Z</time></trkpt><trkpt lat="40.3363688759309" lon="18.155565669051192"><ele>50.0</ele><time>2026-04-04T13:26:53.99Z</time></trkpt><trkpt lat="40.33643142568874" lon="18.155596507205182"><ele>50.00000000000001</ele><time>2026-04-04T13:26:54.99Z</time></trkpt><trkpt lat="40.33649268437993" lon="18.155630679032576"><ele>50.0</ele><time>2026-04-04T13:26:55.99Z</time></trkpt><trkpt lat="40.33656108311814" lon="18.155670384728715"><ele>49.333333333333336</ele><time>2026-04-04T13:26:56.99Z</time></trkpt><trkpt lat="40.33663102628903" lon="18.155705158057152"><ele>48.66666666666667</ele><time>2026-04-04T13:26:57.99Z</time></trkpt><trkpt lat="40.33669952473077" lon="18.15574076673185"><ele>48.0</ele><time>2026-04-04T13:26:58.99Z</time></trkpt><trkpt lat="40.336761430798155" lon="18.155773386020876"><ele>47.333333333333336</ele><time>2026-04-04T13:26:59.99Z</time></trkpt><trkpt lat="40.336868202269976" lon="18.155833437684205"><ele>46.66666666666667</ele><time>2026-04-04T13:27:01.99Z</time></trkpt><trkpt lat="40.336976645608495" lon="18.155892324231086"><ele>46.0</ele><time>2026-04-04T13:27:03.99Z</time></trkpt><trkpt lat="40.337075948380715" lon="18.15595310358476"><ele>46.0</ele><time>2026-04-04T13:27:05.99Z</time></trkpt><trkpt lat="40.33715895613187" lon="18.155988094313923"><ele>46.0</ele><time>2026-04-04T13:27:07.99Z</time></trkpt><trkpt lat="40.337249823299395" lon="18.15603465889894"><ele>46.0</ele><time>2026-04-04T13:27:09.99Z</time></trkpt><trkpt lat="40.337357033463476" lon="18.156090779296377"><ele>46.0</ele><time>2026-04-04T13:27:11.99Z</time></trkpt><trkpt lat="40.33742403674973" lon="18.15612868420641"><ele>46.0</ele><time>2026-04-04T13:27:12.99Z</time></trkpt><trkpt lat="40.33749552845338" lon="18.156167534371868"><ele>45.8</ele><time>2026-04-04T13:27:13.99Z</time></trkpt><trkpt lat="40.33757991656207" lon="18.15621040485464"><ele>45.599999999999994</ele><time>2026-04-04T13:27:14.99Z</time></trkpt><trkpt lat="40.337672280203016" lon="18.156260316068167"><ele>45.4</ele><time>2026-04-04T13:27:15.99Z</time></trkpt><trkpt lat="40.33776471585415" lon="18.156313563524694"><ele>45.2</ele><time>2026-04-04T13:27:16.99Z</time></trkpt><trkpt lat="40.33784770258801" lon="18.15636156661355"><ele>45.0</ele><time>2026-04-04T13:27:17.99Z</time></trkpt><trkpt lat="40.33792953112949" lon="18.15640771717153"><ele>45.0</ele><time>2026-04-04T13:27:18.99Z</time></trkpt><trkpt lat="40.33801380717226" lon="18.15645209360084"><ele>45.0</ele><time>2026-04-04T13:27:19.99Z</time></trkpt><trkpt lat="40.338100352635216" lon="18.156500859146707"><ele>45.0</ele><time>2026-04-04T13:27:20.99Z</time></trkpt><trkpt lat="40.33817852825774" lon="18.156540329503006"><ele>45.0</ele><time>2026-04-04T13:27:21.99Z</time></trkpt><trkpt lat="40.33824765363686" lon="18.15658099052038"><ele>45.0</ele><time>2026-04-04T13:27:22.989Z</time></trkpt><trkpt lat="40.338319893690745" lon="18.156625883233914"><ele>45.0</ele><time>2026-04-04T13:27:23.989Z</time></trkpt><trkpt lat="40.338386067940654" lon="18.156662282354144"><ele>44.666666666666664</ele><time>2026-04-04T13:27:24.989Z</time></trkpt><trkpt lat="40.338455983469" lon="18.156700922783646"><ele>44.333333333333336</ele><time>2026-04-04T13:27:25.989Z</time></trkpt><trkpt lat="40.338524127978154" lon="18.156734072380825"><ele>44.0</ele><time>2026-04-04T13:27:26.989Z</time></trkpt><trkpt lat="40.33859244607825" lon="18.156763798711246"><ele>43.66666666666667</ele><time>2026-04-04T13:27:27.989Z</time></trkpt><trkpt lat="40.33865724815939" lon="18.156798661565965"><ele>43.333333333333336</ele><time>2026-04-04T13:27:28.989Z</time></trkpt><trkpt lat="40.33876886192177" lon="18.1568529625289"><ele>43.0</ele><time>2026-04-04T13:27:30.989Z</time></trkpt><trkpt lat="40.33886973674583" lon="18.156902581699637"><ele>43.2</ele><time>2026-04-04T13:27:32.989Z</time></trkpt><trkpt lat="40.33897128556832" lon="18.15695695720938"><ele>43.4</ele><time>2026-04-04T13:27:34.99Z</time></trkpt><trkpt lat="40.33905640508617" lon="18.156992542460323"><ele>43.6</ele><time>2026-04-04T13:27:37.99Z</time></trkpt><trkpt lat="40.33912315196875" lon="18.15703008413185"><ele>43.800000000000004</ele><time>2026-04-04T13:27:39.989Z</time></trkpt><trkpt lat="40.33918762949195" lon="18.157074355549536"><ele>44.0</ele><time>2026-04-04T13:27:41.989Z</time></trkpt><trkpt lat="40.33928979138763" lon="18.157143712168434"><ele>44.0</ele><time>2026-04-04T13:27:43.99Z</time></trkpt><trkpt lat="40.33940924810798" lon="18.15720562775907"><ele>44.0</ele><time>2026-04-04T13:27:45.99Z</time></trkpt><trkpt lat="40.339481377582665" lon="18.157249908518843"><ele>44.0</ele><time>2026-04-04T13:27:46.99Z</time></trkpt><trkpt lat="40.33957623857746" lon="18.157292731655186"><ele>44.0</ele><time>2026-04-04T13:27:47.99Z</time></trkpt><trkpt lat="40.33965665029204" lon="18.157339529456475"><ele>44.0</ele><time>2026-04-04T13:27:48.99Z</time></trkpt><trkpt lat="40.33973467463494" lon="18.157379036124784"><ele>44.166666666666664</ele><time>2026-04-04T13:27:49.99Z</time></trkpt><trkpt lat="40.33980735886964" lon="18.157415865024614"><ele>44.33333333333333</ele><time>2026-04-04T13:27:50.99Z</time></trkpt><trkpt lat="40.339877403860896" lon="18.157454517697055"><ele>44.5</ele><time>2026-04-04T13:27:51.99Z</time></trkpt><trkpt lat="40.339944805697556" lon="18.157493739665092"><ele>44.666666666666664</ele><time>2026-04-04T13:27:52.99Z</time></trkpt><trkpt lat="40.34002056421227" lon="18.157540825927992"><ele>44.833333333333336</ele><time>2026-04-04T13:27:53.99Z</time></trkpt><trkpt lat="40.34009128396965" lon="18.15758304282102"><ele>45.0</ele><time>2026-04-04T13:27:54.99Z</time></trkpt><trkpt lat="40.34018097525509" lon="18.15762445724212"><ele>45.0</ele><time>2026-04-04T13:27:55.99Z</time></trkpt><trkpt lat="40.34028196743355" lon="18.157673764013236"><ele>45.0</ele><time>2026-04-04T13:27:56.99Z</time></trkpt><trkpt lat="40.34040766107765" lon="18.15772647161462"><ele>45.0</ele><time>2026-04-04T13:27:57.99Z</time></trkpt><trkpt lat="40.3405355255605" lon="18.157801436777966"><ele>45.0</ele><time>2026-04-04T13:27:58.99Z</time></trkpt><trkpt lat="40.34063147357469" lon="18.157861030529595"><ele>45.166666666666664</ele><time>2026-04-04T13:27:59.99Z</time></trkpt><trkpt lat="40.34071773102289" lon="18.15790920450886"><ele>45.333333333333336</ele><time>2026-04-04T13:28:00.99Z</time></trkpt><trkpt lat="40.34079450097024" lon="18.157948110177802"><ele>45.5</ele><time>2026-04-04T13:28:01.99Z</time></trkpt><trkpt lat="40.34086567654034" lon="18.1579928258913"><ele>45.66666666666667</ele><time>2026-04-04T13:28:02.99Z</time></trkpt><trkpt lat="40.340935944852255" lon="18.158032859239587"><ele>45.833333333333336</ele><time>2026-04-04T13:28:03.99Z</time></trkpt><trkpt lat="40.34100985185674" lon="18.15807046930021"><ele>46.0</ele><time>2026-04-04T13:28:04.99Z</time></trkpt><trkpt lat="40.34107822913188" lon="18.158105244040446"><ele>46.0</ele><time>2026-04-04T13:28:05.99Z</time></trkpt><trkpt lat="40.34114529284054" lon="18.15814424296324"><ele>46.0</ele><time>2026-04-04T13:28:06.99Z</time></trkpt><trkpt lat="40.341217041740485" lon="18.158167483628272"><ele>46.0</ele><time>2026-04-04T13:28:07.99Z</time></trkpt><trkpt lat="40.341288866825934" lon="18.158202662734745"><ele>46.0</ele><time>2026-04-04T13:28:08.99Z</time></trkpt><trkpt lat="40.341370393502864" lon="18.15824418628491"><ele>46.0</ele><time>2026-04-04T13:28:09.99Z</time></trkpt><trkpt lat="40.34144104853754" lon="18.158288703685944"><ele>46.0</ele><time>2026-04-04T13:28:10.99Z</time></trkpt><trkpt lat="40.34150200708901" lon="18.158326572806562"><ele>45.833333333333336</ele><time>2026-04-04T13:28:11.99Z</time></trkpt><trkpt lat="40.34156249292394" lon="18.15836185119185"><ele>45.66666666666667</ele><time>2026-04-04T13:28:12.99Z</time></trkpt><trkpt lat="40.34166622222747" lon="18.158417541954165"><ele>45.5</ele><time>2026-04-04T13:28:14.99Z</time></trkpt><trkpt lat="40.341776274103154" lon="18.15847936705422"><ele>45.333333333333336</ele><time>2026-04-04T13:28:16.989Z</time></trkpt><trkpt lat="40.34184014868501" lon="18.15850951146976"><ele>45.166666666666664</ele><time>2026-04-04T13:28:17.989Z</time></trkpt><trkpt lat="40.34190303318086" lon="18.158543244598366"><ele>45.0</ele><time>2026-04-04T13:28:18.989Z</time></trkpt><trkpt lat="40.34196853062554" lon="18.15857368807781"><ele>45.0</ele><time>2026-04-04T13:28:19.989Z</time></trkpt><trkpt lat="40.3420949571166" lon="18.158641995310465"><ele>45.0</ele><time>2026-04-04T13:28:21.989Z</time></trkpt><trkpt lat="40.342160010566474" lon="18.158678351611336"><ele>45.0</ele><time>2026-04-04T13:28:22.989Z</time></trkpt><trkpt lat="40.342262010474286" lon="18.15873047549016"><ele>45.0</ele><time>2026-04-04T13:28:24.989Z</time></trkpt><trkpt lat="40.34236346795358" lon="18.1587828579454"><ele>45.0</ele><time>2026-04-04T13:28:26.989Z</time></trkpt><trkpt lat="40.34243640639954" lon="18.158820201206645"><ele>45.166666666666664</ele><time>2026-04-04T13:28:28.989Z</time></trkpt><trkpt lat="40.34249869050184" lon="18.158856645502574"><ele>45.333333333333336</ele><time>2026-04-04T13:28:30.989Z</time></trkpt><trkpt lat="40.34255519658124" lon="18.158894816256872"><ele>45.5</ele><time>2026-04-04T13:28:35.989Z</time></trkpt><trkpt lat="40.34261977295969" lon="18.158923814563366"><ele>45.66666666666667</ele><time>2026-04-04T13:28:41.989Z</time></trkpt><trkpt lat="40.342690227220544" lon="18.158962486691056"><ele>45.833333333333336</ele><time>2026-04-04T13:28:44.989Z</time></trkpt><trkpt lat="40.34276943618528" lon="18.15900345456904"><ele>46.0</ele><time>2026-04-04T13:28:46.989Z</time></trkpt><trkpt lat="40.34286363955893" lon="18.15905389596851"><ele>46.16666666666667</ele><time>2026-04-04T13:28:48.989Z</time></trkpt><trkpt lat="40.34294626982444" lon="18.15909390621675"><ele>46.333333333333336</ele><time>2026-04-04T13:28:50.989Z</time></trkpt><trkpt lat="40.34301862489245" lon="18.159134958538115"><ele>46.5</ele><time>2026-04-04T13:28:52.989Z</time></trkpt><trkpt lat="40.343114727462456" lon="18.159178542754084"><ele>46.666666666666664</ele><time>2026-04-04T13:28:54.989Z</time></trkpt><trkpt lat="40.34318235060183" lon="18.15920574417614"><ele>46.83333333333333</ele><time>2026-04-04T13:28:55.989Z</time></trkpt><trkpt lat="40.34327031304001" lon="18.159243687208672"><ele>47.0</ele><time>2026-04-04T13:28:56.989Z</time></trkpt><trkpt lat="40.34337421245186" lon="18.15929380202108"><ele>47.25</ele><time>2026-04-04T13:28:57.989Z</time></trkpt><trkpt lat="40.34349065173392" lon="18.15935663656756"><ele>47.5</ele><time>2026-04-04T13:28:58.989Z</time></trkpt><trkpt lat="40.343611057528605" lon="18.15940996727915"><ele>47.75</ele><time>2026-04-04T13:28:59.989Z</time></trkpt><trkpt lat="40.34372920149947" lon="18.159464602581526"><ele>48.0</ele><time>2026-04-04T13:29:00.989Z</time></trkpt><trkpt lat="40.343841593553385" lon="18.159519472196603"><ele>48.0</ele><time>2026-04-04T13:29:01.989Z</time></trkpt><trkpt lat="40.34394558388177" lon="18.159561338801673"><ele>48.0</ele><time>2026-04-04T13:29:02.989Z</time></trkpt><trkpt lat="40.34404214620826" lon="18.159596114446437"><ele>48.0</ele><time>2026-04-04T13:29:03.989Z</time></trkpt><trkpt lat="40.344130080673" lon="18.159678024328812"><ele>48.0</ele><time>2026-04-04T13:29:04.989Z</time></trkpt><trkpt lat="40.344219997672674" lon="18.159734177792828"><ele>48.0</ele><time>2026-04-04T13:29:05.989Z</time></trkpt><trkpt lat="40.344311027359886" lon="18.159775561966033"><ele>48.0</ele><time>2026-04-04T13:29:06.989Z</time></trkpt><trkpt lat="40.344405877060304" lon="18.159802693107522"><ele>48.0</ele><time>2026-04-04T13:29:07.989Z</time></trkpt><trkpt lat="40.344496743638004" lon="18.159856566238513"><ele>48.0</ele><time>2026-04-04T13:29:08.989Z</time></trkpt><trkpt lat="40.34457755349622" lon="18.1599212409402"><ele>48.0</ele><time>2026-04-04T13:29:09.989Z</time></trkpt><trkpt lat="40.34466312854022" lon="18.15996183630003"><ele>48.0</ele><time>2026-04-04T13:29:10.989Z</time></trkpt><trkpt lat="40.344741182620446" lon="18.160002693510567"><ele>48.333333333333336</ele><time>2026-04-04T13:29:11.989Z</time></trkpt><trkpt lat="40.344814148474875" lon="18.160035402919245"><ele>48.66666666666667</ele><time>2026-04-04T13:29:12.989Z</time></trkpt><trkpt lat="40.34488161542373" lon="18.16006361078387"><ele>49.0</ele><time>2026-04-04T13:29:13.989Z</time></trkpt><trkpt lat="40.34495123481427" lon="18.160098254108508"><ele>49.333333333333336</ele><time>2026-04-04T13:29:14.989Z</time></trkpt><trkpt lat="40.34501218160589" lon="18.16014575683837"><ele>49.66666666666667</ele><time>2026-04-04T13:29:15.989Z</time></trkpt><trkpt lat="40.345071230415" lon="18.160183624383027"><ele>50.0</ele><time>2026-04-04T13:29:16.989Z</time></trkpt><trkpt lat="40.34518701041491" lon="18.160255996459643"><ele>50.0</ele><time>2026-04-04T13:29:18.989Z</time></trkpt><trkpt lat="40.34526319092638" lon="18.16029436886354"><ele>50.0</ele><time>2026-04-04T13:29:19.989Z</time></trkpt><trkpt lat="40.34534796904991" lon="18.16033798512658"><ele>50.0</ele><time>2026-04-04T13:29:20.989Z</time></trkpt><trkpt lat="40.345437940990124" lon="18.160387822095444"><ele>50.0</ele><time>2026-04-04T13:29:21.989Z</time></trkpt><trkpt lat="40.34553210398109" lon="18.160437738792265"><ele>50.0</ele><time>2026-04-04T13:29:22.989Z</time></trkpt><trkpt lat="40.34562733036699" lon="18.160484294309153"><ele>50.333333333333336</ele><time>2026-04-04T13:29:23.989Z</time></trkpt><trkpt lat="40.34571374829515" lon="18.160528426041974"><ele>50.66666666666667</ele><time>2026-04-04T13:29:24.989Z</time></trkpt><trkpt lat="40.345789206857255" lon="18.160570366053904"><ele>51.0</ele><time>2026-04-04T13:29:25.989Z</time></trkpt><trkpt lat="40.34586177982517" lon="18.160612914301772"><ele>51.33333333333333</ele><time>2026-04-04T13:29:26.989Z</time></trkpt><trkpt lat="40.345931979940886" lon="18.16066686611915"><ele>51.666666666666664</ele><time>2026-04-04T13:29:27.989Z</time></trkpt><trkpt lat="40.34600028395672" lon="18.16072712346463"><ele>52.0</ele><time>2026-04-04T13:29:28.989Z</time></trkpt><trkpt lat="40.34608061639333" lon="18.160783271074653"><ele>52.0</ele><time>2026-04-04T13:29:29.989Z</time></trkpt><trkpt lat="40.346168340952524" lon="18.160843021764578"><ele>52.0</ele><time>2026-04-04T13:29:30.989Z</time></trkpt><trkpt lat="40.34625662313007" lon="18.16090443513025"><ele>52.0</ele><time>2026-04-04T13:29:31.989Z</time></trkpt><trkpt lat="40.34634496376483" lon="18.160966162380696"><ele>52.0</ele><time>2026-04-04T13:29:32.989Z</time></trkpt><trkpt lat="40.34643123937931" lon="18.161019966592868"><ele>52.0</ele><time>2026-04-04T13:29:33.989Z</time></trkpt><trkpt lat="40.346518839708565" lon="18.16106131979877"><ele>52.166666666666664</ele><time>2026-04-04T13:29:34.989Z</time></trkpt><trkpt lat="40.34659501447719" lon="18.161108654785217"><ele>52.33333333333333</ele><time>2026-04-04T13:29:35.989Z</time></trkpt><trkpt lat="40.34667870494252" lon="18.161154588725523"><ele>52.5</ele><time>2026-04-04T13:29:36.989Z</time></trkpt><trkpt lat="40.34676493432737" lon="18.161214507199787"><ele>52.66666666666667</ele><time>2026-04-04T13:29:37.988Z</time></trkpt><trkpt lat="40.34684453201613" lon="18.161264346709164"><ele>52.833333333333336</ele><time>2026-04-04T13:29:38.989Z</time></trkpt><trkpt lat="40.346916862094005" lon="18.1612932886256"><ele>53.0</ele><time>2026-04-04T13:29:39.989Z</time></trkpt><trkpt lat="40.346982086943676" lon="18.1613208260168"><ele>53.0</ele><time>2026-04-04T13:29:40.99Z</time></trkpt><trkpt lat="40.34708906562012" lon="18.161349943152473"><ele>53.0</ele><time>2026-04-04T13:29:42.991Z</time></trkpt><trkpt lat="40.34716017796172" lon="18.161316806341564"><ele>53.0</ele><time>2026-04-04T13:29:44.992Z</time></trkpt><trkpt lat="40.347219987650256" lon="18.16119317355877"><ele>53.0</ele><time>2026-04-04T13:29:46.993Z</time></trkpt><trkpt lat="40.34725574370773" lon="18.161104491941604"><ele>53.0</ele><time>2026-04-04T13:29:47.994Z</time></trkpt><trkpt lat="40.34729877999646" lon="18.161017284614978"><ele>52.50000000000001</ele><time>2026-04-04T13:29:48.994Z</time></trkpt><trkpt lat="40.34734652262581" lon="18.160936760077725"><ele>52.0</ele><time>2026-04-04T13:29:49.995Z</time></trkpt><trkpt lat="40.34739153554773" lon="18.160861280432247"><ele>51.5</ele><time>2026-04-04T13:29:50.995Z</time></trkpt><trkpt lat="40.34744553353433" lon="18.16078853818238"><ele>51.0</ele><time>2026-04-04T13:29:51.995Z</time></trkpt><trkpt lat="40.34752044550211" lon="18.16073211715957"><ele>50.50000000000001</ele><time>2026-04-04T13:29:52.996Z</time></trkpt><trkpt lat="40.34760419755284" lon="18.16068946287685"><ele>50.0</ele><time>2026-04-04T13:29:53.996Z</time></trkpt><trkpt lat="40.34768504065429" lon="18.160679709802572"><ele>50.0</ele><time>2026-04-04T13:29:54.996Z</time></trkpt><trkpt lat="40.34776530267013" lon="18.160689554156626"><ele>50.0</ele><time>2026-04-04T13:29:55.996Z</time></trkpt><trkpt lat="40.3478557750952" lon="18.160718507485555"><ele>50.0</ele><time>2026-04-04T13:29:56.997Z</time></trkpt><trkpt lat="40.34795730630035" lon="18.160788420833146"><ele>50.0</ele><time>2026-04-04T13:29:57.997Z</time></trkpt><trkpt lat="40.34807680972287" lon="18.160893507124083"><ele>50.0</ele><time>2026-04-04T13:29:58.997Z</time></trkpt><trkpt lat="40.34820224461815" lon="18.16102776491904"><ele>50.0</ele><time>2026-04-04T13:29:59.997Z</time></trkpt><trkpt lat="40.34833776395929" lon="18.161185548339294"><ele>50.0</ele><time>2026-04-04T13:30:00.997Z</time></trkpt><trkpt lat="40.34846099169242" lon="18.16136438059012"><ele>50.0</ele><time>2026-04-04T13:30:01.998Z</time></trkpt><trkpt lat="40.34855110250733" lon="18.16153243240709"><ele>50.5</ele><time>2026-04-04T13:30:02.998Z</time></trkpt><trkpt lat="40.348622373354296" lon="18.161666084471676"><ele>51.0</ele><time>2026-04-04T13:30:03.998Z</time></trkpt><trkpt lat="40.348656479794556" lon="18.161846584649375"><ele>51.5</ele><time>2026-04-04T13:30:04.998Z</time></trkpt><trkpt lat="40.34867805989643" lon="18.1620025359092"><ele>52.0</ele><time>2026-04-04T13:30:05.998Z</time></trkpt><trkpt lat="40.34873320645105" lon="18.162139898919435"><ele>51.99999999999999</ele><time>2026-04-04T13:30:06.998Z</time></trkpt><trkpt lat="40.34872215711062" lon="18.162263176180197"><ele>52.0</ele><time>2026-04-04T13:30:07.998Z</time></trkpt><trkpt lat="40.34871269316647" lon="18.162355621621256"><ele>52.0</ele><time>2026-04-04T13:30:08.999Z</time></trkpt><trkpt lat="40.348674398249614" lon="18.162435271269455"><ele>52.0</ele><time>2026-04-04T13:30:10.999Z</time></trkpt><trkpt lat="40.34878311262889" lon="18.162458302917823"><ele>51.99999999999999</ele><time>2026-04-04T13:30:15.999Z</time></trkpt><trkpt lat="40.34886244264244" lon="18.162492914829055"><ele>52.0</ele><time>2026-04-04T13:30:16.999Z</time></trkpt><trkpt lat="40.34894396066369" lon="18.16254468317573"><ele>52.166666666666664</ele><time>2026-04-04T13:30:17.999Z</time></trkpt><trkpt lat="40.3490242228621" lon="18.162591893588093"><ele>52.33333333333333</ele><time>2026-04-04T13:30:18.999Z</time></trkpt><trkpt lat="40.34910176035109" lon="18.16263868789961"><ele>52.5</ele><time>2026-04-04T13:30:19.999Z</time></trkpt><trkpt lat="40.34917969366091" lon="18.162688113825233"><ele>52.66666666666667</ele><time>2026-04-04T13:30:20.999Z</time></trkpt><trkpt lat="40.34925163855794" lon="18.162731315533367"><ele>52.833333333333336</ele><time>2026-04-04T13:30:21.999Z</time></trkpt><trkpt lat="40.34932275443297" lon="18.162765804928547"><ele>53.0</ele><time>2026-04-04T13:30:23Z</time></trkpt><trkpt lat="40.34939074708606" lon="18.16280379019923"><ele>53.00000000000001</ele><time>2026-04-04T13:30:24Z</time></trkpt><trkpt lat="40.34945728881019" lon="18.162842037575555"><ele>53.0</ele><time>2026-04-04T13:30:25Z</time></trkpt><trkpt lat="40.34951699860564" lon="18.162872778964456"><ele>53.0</ele><time>2026-04-04T13:30:26Z</time></trkpt><trkpt lat="40.34957424613371" lon="18.16292974352233"><ele>53.0</ele><time>2026-04-04T13:30:28Z</time></trkpt><trkpt lat="40.3495520812075" lon="18.163046232723136"><ele>53.00000000000001</ele><time>2026-04-04T13:30:31Z</time></trkpt><trkpt lat="40.34950847319349" lon="18.16312905932414"><ele>53.0</ele><time>2026-04-04T13:30:32Z</time></trkpt><trkpt lat="40.349451981362066" lon="18.16321123048601"><ele>53.16666666666667</ele><time>2026-04-04T13:30:33Z</time></trkpt><trkpt lat="40.34940996330547" lon="18.163309642683373"><ele>53.333333333333336</ele><time>2026-04-04T13:30:34Z</time></trkpt><trkpt lat="40.349378793962074" lon="18.163382705580613"><ele>53.5</ele><time>2026-04-04T13:30:35Z</time></trkpt><trkpt lat="40.3493377090853" lon="18.163450470043582"><ele>53.66666666666667</ele><time>2026-04-04T13:30:36Z</time></trkpt><trkpt lat="40.34927888094198" lon="18.163561592090794"><ele>53.833333333333336</ele><time>2026-04-04T13:30:38Z</time></trkpt><trkpt lat="40.34920276219992" lon="18.163638497344426"><ele>54.0</ele><time>2026-04-04T13:30:40Z</time></trkpt><trkpt lat="40.34914676441051" lon="18.163689473355355"><ele>54.0</ele><time>2026-04-04T13:30:41Z</time></trkpt><trkpt lat="40.349095492569624" lon="18.163796559814944"><ele>54.00000000000001</ele><time>2026-04-04T13:30:43Z</time></trkpt><trkpt lat="40.34905461339307" lon="18.163895415467156"><ele>54.00000000000001</ele><time>2026-04-04T13:30:45Z</time></trkpt><trkpt lat="40.34900406571265" lon="18.16400347253908"><ele>54.0</ele><time>2026-04-04T13:30:47Z</time></trkpt><trkpt lat="40.34894895371501" lon="18.16412449915717"><ele>54.0</ele><time>2026-04-04T13:30:49Z</time></trkpt><trkpt lat="40.348886112809346" lon="18.164244827836207"><ele>54.2</ele><time>2026-04-04T13:30:51Z</time></trkpt><trkpt lat="40.34880019919304" lon="18.164335497958024"><ele>54.400000000000006</ele><time>2026-04-04T13:30:53Z</time></trkpt><trkpt lat="40.34874590637449" lon="18.16442859053497"><ele>54.6</ele><time>2026-04-04T13:30:55Z</time></trkpt><trkpt lat="40.34870092786109" lon="18.164514238029792"><ele>54.8</ele><time>2026-04-04T13:30:57Z</time></trkpt><trkpt lat="40.348659165584245" lon="18.164610559983373"><ele>55.0</ele><time>2026-04-04T13:30:59Z</time></trkpt><trkpt lat="40.34859019645738" lon="18.16474690815956"><ele>54.99999999999999</ele><time>2026-04-04T13:31:01Z</time></trkpt><trkpt lat="40.34853932022256" lon="18.16482308706175"><ele>55.0</ele><time>2026-04-04T13:31:02Z</time></trkpt><trkpt lat="40.34848766503091" lon="18.164898839055635"><ele>55.0</ele><time>2026-04-04T13:31:03Z</time></trkpt><trkpt lat="40.348444039504294" lon="18.16497185759203"><ele>55.0</ele><time>2026-04-04T13:31:04Z</time></trkpt><trkpt lat="40.34839899580637" lon="18.16504167910853"><ele>54.99999999999999</ele><time>2026-04-04T13:31:05Z</time></trkpt><trkpt lat="40.348358002685764" lon="18.165107274029552"><ele>55.0</ele><time>2026-04-04T13:31:06Z</time></trkpt><trkpt lat="40.348288224540035" lon="18.16521782723329"><ele>54.83333333333333</ele><time>2026-04-04T13:31:08Z</time></trkpt><trkpt lat="40.34824150015562" lon="18.165281881724848"><ele>54.666666666666664</ele><time>2026-04-04T13:31:10Z</time></trkpt><trkpt lat="40.34815240000932" lon="18.165269780219717"><ele>54.5</ele><time>2026-04-04T13:31:13Z</time></trkpt><trkpt lat="40.34809500891769" lon="18.165208665571882"><ele>54.33333333333333</ele><time>2026-04-04T13:31:14Z</time></trkpt><trkpt lat="40.348018298584265" lon="18.16513567779003"><ele>54.166666666666664</ele><time>2026-04-04T13:31:15Z</time></trkpt><trkpt lat="40.347915714488764" lon="18.165067916347688"><ele>54.0</ele><time>2026-04-04T13:31:16Z</time></trkpt><trkpt lat="40.34780803801482" lon="18.165018723784947"><ele>54.0</ele><time>2026-04-04T13:31:17Z</time></trkpt><trkpt lat="40.34770338307598" lon="18.164980987389455"><ele>54.00000000000001</ele><time>2026-04-04T13:31:18Z</time></trkpt><trkpt lat="40.34760145764655" lon="18.164935969494156"><ele>54.00000000000001</ele><time>2026-04-04T13:31:19Z</time></trkpt><trkpt lat="40.34751970487974" lon="18.16491764097415"><ele>54.0</ele><time>2026-04-04T13:31:20Z</time></trkpt><trkpt lat="40.3474958380107" lon="18.164810313185036"><ele>54.0</ele><time>2026-04-04T13:31:24Z</time></trkpt><trkpt lat="40.34751072525289" lon="18.16471759344693"><ele>53.666666666666664</ele><time>2026-04-04T13:31:27Z</time></trkpt><trkpt lat="40.34755829838777" lon="18.1645832390437"><ele>53.33333333333333</ele><time>2026-04-04T13:31:29Z</time></trkpt><trkpt lat="40.34759007577663" lon="18.16450767854282"><ele>53.0</ele><time>2026-04-04T13:31:30Z</time></trkpt><trkpt lat="40.347619077072345" lon="18.16442759175609"><ele>52.666666666666664</ele><time>2026-04-04T13:31:31Z</time></trkpt><trkpt lat="40.34766738615672" lon="18.164359979307815"><ele>52.33333333333333</ele><time>2026-04-04T13:31:32Z</time></trkpt><trkpt lat="40.34772118639087" lon="18.164295526056208"><ele>52.0</ele><time>2026-04-04T13:31:33Z</time></trkpt><trkpt lat="40.347754664788674" lon="18.164216871235293"><ele>52.0</ele><time>2026-04-04T13:31:34Z</time></trkpt><trkpt lat="40.34781690499038" lon="18.16408692619493"><ele>52.0</ele><time>2026-04-04T13:31:36Z</time></trkpt><trkpt lat="40.34787544024341" lon="18.16397318173096"><ele>52.0</ele><time>2026-04-04T13:31:38Z</time></trkpt><trkpt lat="40.34792863111114" lon="18.163878440905616"><ele>52.0</ele><time>2026-04-04T13:31:40Z</time></trkpt><trkpt lat="40.34797559092923" lon="18.163807965123887"><ele>52.0</ele><time>2026-04-04T13:31:42Z</time></trkpt><trkpt lat="40.348078646157596" lon="18.163849395518717"><ele>52.49999999999999</ele><time>2026-04-04T13:31:44Z</time></trkpt><trkpt lat="40.34813436437985" lon="18.16389957717716"><ele>53.0</ele><time>2026-04-04T13:31:44.999Z</time></trkpt><trkpt lat="40.34822457579535" lon="18.164000462528573"><ele>53.5</ele><time>2026-04-04T13:31:47Z</time></trkpt><trkpt lat="40.34830933054874" lon="18.16407343568439"><ele>54.0</ele><time>2026-04-04T13:31:49Z</time></trkpt><trkpt lat="40.34837112543642" lon="18.164126522676426"><ele>54.49999999999999</ele><time>2026-04-04T13:31:51Z</time></trkpt><trkpt lat="40.3484442818311" lon="18.16411478549852"><ele>55.0</ele><time>2026-04-04T13:31:54Z</time></trkpt><trkpt lat="40.348490191022016" lon="18.164046956489816"><ele>55.0</ele><time>2026-04-04T13:31:56Z</time></trkpt><trkpt lat="40.34853247973911" lon="18.163977563056072"><ele>55.0</ele><time>2026-04-04T13:31:57.999Z</time></trkpt><trkpt lat="40.34857538360496" lon="18.163902766025952"><ele>55.0</ele><time>2026-04-04T13:31:59.999Z</time></trkpt><trkpt lat="40.34862617778862" lon="18.16381428769815"><ele>55.0</ele><time>2026-04-04T13:32:02.999Z</time></trkpt><trkpt lat="40.348679093901715" lon="18.163755231358344"><ele>55.0</ele><time>2026-04-04T13:32:05.999Z</time></trkpt><trkpt lat="40.34872885788044" lon="18.163700561287907"><ele>55.0</ele><time>2026-04-04T13:32:11.999Z</time></trkpt></trkseg><trkseg><trkpt lat="40.34866803552944" lon="18.163722803317615"><ele>54.99999999999999</ele><time>2026-04-04T13:43:01Z</time></trkpt><trkpt lat="40.3486171908588" lon="18.16377564369262"><ele>55.0</ele><time>2026-04-04T13:43:06Z</time></trkpt><trkpt lat="40.348570768961444" lon="18.1638558838155"><ele>55.0</ele><time>2026-04-04T13:43:12Z</time></trkpt><trkpt lat="40.348525605917054" lon="18.163918586701694"><ele>55.0</ele><time>2026-04-04T13:43:15Z</time></trkpt><trkpt lat="40.348469561335655" lon="18.163963211822573"><ele>55.0</ele><time>2026-04-04T13:43:18Z</time></trkpt><trkpt lat="40.34844761297974" lon="18.164048159818748"><ele>54.99999999999999</ele><time>2026-04-04T13:43:21Z</time></trkpt><trkpt lat="40.348490527284945" lon="18.164150516224172"><ele>55.0</ele><time>2026-04-04T13:43:28Z</time></trkpt><trkpt lat="40.34856277612544" lon="18.16424523626729"><ele>55.0</ele><time>2026-04-04T13:43:30Z</time></trkpt><trkpt lat="40.348614989834445" lon="18.16433403953606"><ele>55.0</ele><time>2026-04-04T13:43:32Z</time></trkpt><trkpt lat="40.34865726027193" lon="18.16440502829629"><ele>55.0</ele><time>2026-04-04T13:43:34Z</time></trkpt><trkpt lat="40.34871301264563" lon="18.164480288911"><ele>55.0</ele><time>2026-04-04T13:43:37Z</time></trkpt><trkpt lat="40.34877712596068" lon="18.164579049484253"><ele>55.0</ele><time>2026-04-04T13:43:39Z</time></trkpt><trkpt lat="40.34887969087114" lon="18.164715602480555"><ele>54.8</ele><time>2026-04-04T13:43:41Z</time></trkpt><trkpt lat="40.34895530273465" lon="18.16479887113625"><ele>54.6</ele><time>2026-04-04T13:43:42Z</time></trkpt><trkpt lat="40.34903462999908" lon="18.164903686184957"><ele>54.400000000000006</ele><time>2026-04-04T13:43:43Z</time></trkpt><trkpt lat="40.34910185380782" lon="18.16500906201397"><ele>54.2</ele><time>2026-04-04T13:43:44Z</time></trkpt><trkpt lat="40.34916116349414" lon="18.165107875855206"><ele>54.0</ele><time>2026-04-04T13:43:45Z</time></trkpt><trkpt lat="40.34921535053277" lon="18.165212394467723"><ele>53.5</ele><time>2026-04-04T13:43:46Z</time></trkpt><trkpt lat="40.34926532778255" lon="18.165319658885743"><ele>53.0</ele><time>2026-04-04T13:43:47Z</time></trkpt><trkpt lat="40.34930793881195" lon="18.165427352100842"><ele>52.5</ele><time>2026-04-04T13:43:48Z</time></trkpt><trkpt lat="40.3493505014356" lon="18.16548950317462"><ele>52.0</ele><time>2026-04-04T13:43:49Z</time></trkpt><trkpt lat="40.349414145822706" lon="18.165543687142367"><ele>51.5</ele><time>2026-04-04T13:43:51Z</time></trkpt><trkpt lat="40.34943105996222" lon="18.165460734839154"><ele>51.0</ele><time>2026-04-04T13:43:54Z</time></trkpt><trkpt lat="40.34950392986073" lon="18.1654444963915"><ele>51.0</ele><time>2026-04-04T13:43:59Z</time></trkpt><trkpt lat="40.34956740886953" lon="18.16536097629053"><ele>51.0</ele><time>2026-04-04T13:44:01Z</time></trkpt><trkpt lat="40.34961355620859" lon="18.165275586746137"><ele>51.0</ele><time>2026-04-04T13:44:03Z</time></trkpt><trkpt lat="40.349656685981" lon="18.16519103769061"><ele>51.0</ele><time>2026-04-04T13:44:05Z</time></trkpt><trkpt lat="40.3496950843929" lon="18.16512272969663"><ele>51.0</ele><time>2026-04-04T13:44:07Z</time></trkpt><trkpt lat="40.34974262233977" lon="18.16505858558665"><ele>51.0</ele><time>2026-04-04T13:44:10Z</time></trkpt><trkpt lat="40.34979193130279" lon="18.164969803414532"><ele>52.0</ele><time>2026-04-04T13:44:12Z</time></trkpt><trkpt lat="40.34986907310976" lon="18.1648404868926"><ele>53.0</ele><time>2026-04-04T13:44:14Z</time></trkpt><trkpt lat="40.349921587974706" lon="18.16476866684266"><ele>53.99999999999999</ele><time>2026-04-04T13:44:15Z</time></trkpt><trkpt lat="40.34996959739758" lon="18.16468876166048"><ele>55.0</ele><time>2026-04-04T13:44:16Z</time></trkpt><trkpt lat="40.3500205654158" lon="18.164604888233395"><ele>56.0</ele><time>2026-04-04T13:44:17Z</time></trkpt><trkpt lat="40.35008071986147" lon="18.16450899931019"><ele>56.0</ele><time>2026-04-04T13:44:18Z</time></trkpt><trkpt lat="40.35013789811078" lon="18.16441218458137"><ele>55.99999999999999</ele><time>2026-04-04T13:44:19Z</time></trkpt><trkpt lat="40.35020413401251" lon="18.164302831391897"><ele>55.99999999999999</ele><time>2026-04-04T13:44:20Z</time></trkpt><trkpt lat="40.35026271769745" lon="18.164193938451923"><ele>56.0</ele><time>2026-04-04T13:44:21Z</time></trkpt><trkpt lat="40.35031361260846" lon="18.16408295442202"><ele>56.0</ele><time>2026-04-04T13:44:22Z</time></trkpt><trkpt lat="40.35036080692668" lon="18.163981372479626"><ele>55.833333333333336</ele><time>2026-04-04T13:44:23Z</time></trkpt><trkpt lat="40.350397509752085" lon="18.163907268360834"><ele>55.66666666666667</ele><time>2026-04-04T13:44:24Z</time></trkpt><trkpt lat="40.35043253058137" lon="18.163825247776117"><ele>55.5</ele><time>2026-04-04T13:44:25Z</time></trkpt><trkpt lat="40.35049655501743" lon="18.163749238897168"><ele>55.33333333333333</ele><time>2026-04-04T13:44:27Z</time></trkpt><trkpt lat="40.35055388691723" lon="18.163693660000565"><ele>55.166666666666664</ele><time>2026-04-04T13:44:30Z</time></trkpt><trkpt lat="40.350609233389456" lon="18.16359827361561"><ele>55.0</ele><time>2026-04-04T13:44:33Z</time></trkpt><trkpt lat="40.35068791798167" lon="18.163571345392274"><ele>54.8</ele><time>2026-04-04T13:44:37Z</time></trkpt><trkpt lat="40.35080789807026" lon="18.163645612745665"><ele>54.6</ele><time>2026-04-04T13:44:39Z</time></trkpt><trkpt lat="40.35087393802605" lon="18.163707727546168"><ele>54.400000000000006</ele><time>2026-04-04T13:44:40Z</time></trkpt><trkpt lat="40.350950353970156" lon="18.163785271728077"><ele>54.2</ele><time>2026-04-04T13:44:41Z</time></trkpt><trkpt lat="40.35102942665874" lon="18.163849448439333"><ele>54.0</ele><time>2026-04-04T13:44:42Z</time></trkpt><trkpt lat="40.351099328463334" lon="18.16390077097276"><ele>54.0</ele><time>2026-04-04T13:44:43Z</time></trkpt><trkpt lat="40.35118392160956" lon="18.163952908971215"><ele>54.00000000000001</ele><time>2026-04-04T13:44:44Z</time></trkpt><trkpt lat="40.35128927995038" lon="18.164011499582415"><ele>54.00000000000001</ele><time>2026-04-04T13:44:45Z</time></trkpt><trkpt lat="40.35139584544061" lon="18.164074394937796"><ele>54.0</ele><time>2026-04-04T13:44:46Z</time></trkpt><trkpt lat="40.35150571904241" lon="18.164133431774033"><ele>54.0</ele><time>2026-04-04T13:44:47Z</time></trkpt><trkpt lat="40.35160370016544" lon="18.164188413015797"><ele>53.2</ele><time>2026-04-04T13:44:48Z</time></trkpt><trkpt lat="40.35170080436346" lon="18.164247642625188"><ele>52.400000000000006</ele><time>2026-04-04T13:44:49Z</time></trkpt><trkpt lat="40.35179478924086" lon="18.164312567900847"><ele>51.6</ele><time>2026-04-04T13:44:50Z</time></trkpt><trkpt lat="40.35188872960411" lon="18.164371556497013"><ele>50.8</ele><time>2026-04-04T13:44:51Z</time></trkpt><trkpt lat="40.35198529804982" lon="18.16443320533465"><ele>50.0</ele><time>2026-04-04T13:44:51.999Z</time></trkpt><trkpt lat="40.352083499031544" lon="18.164493106897165"><ele>50.0</ele><time>2026-04-04T13:44:52.999Z</time></trkpt><trkpt lat="40.352182825697284" lon="18.164554835287273"><ele>50.0</ele><time>2026-04-04T13:44:53.999Z</time></trkpt><trkpt lat="40.35228360007032" lon="18.164617878202534"><ele>50.0</ele><time>2026-04-04T13:44:54.999Z</time></trkpt><trkpt lat="40.35238583927212" lon="18.164681463177125"><ele>50.0</ele><time>2026-04-04T13:44:55.999Z</time></trkpt><trkpt lat="40.352492731682275" lon="18.164743913242294"><ele>50.0</ele><time>2026-04-04T13:44:56.999Z</time></trkpt><trkpt lat="40.35260417233181" lon="18.16480719993619"><ele>50.0</ele><time>2026-04-04T13:44:57.999Z</time></trkpt><trkpt lat="40.35271454527554" lon="18.164868362109065"><ele>50.0</ele><time>2026-04-04T13:44:58.999Z</time></trkpt><trkpt lat="40.35282009339728" lon="18.164930499799752"><ele>50.0</ele><time>2026-04-04T13:44:59.999Z</time></trkpt><trkpt lat="40.352928025435226" lon="18.16499421814714"><ele>50.25</ele><time>2026-04-04T13:45:00.999Z</time></trkpt><trkpt lat="40.35303471300628" lon="18.165053116299298"><ele>50.5</ele><time>2026-04-04T13:45:01.999Z</time></trkpt><trkpt lat="40.35313770435472" lon="18.165115931737866"><ele>50.75</ele><time>2026-04-04T13:45:02.999Z</time></trkpt><trkpt lat="40.35323804284188" lon="18.165180995904002"><ele>51.0</ele><time>2026-04-04T13:45:03.999Z</time></trkpt><trkpt lat="40.35333748849136" lon="18.165239128464552"><ele>51.0</ele><time>2026-04-04T13:45:04.999Z</time></trkpt><trkpt lat="40.353433692391135" lon="18.165289629008324"><ele>51.0</ele><time>2026-04-04T13:45:05.999Z</time></trkpt><trkpt lat="40.353522862771044" lon="18.165338548210492"><ele>51.0</ele><time>2026-04-04T13:45:06.999Z</time></trkpt><trkpt lat="40.353601897252325" lon="18.165377806244347"><ele>51.0</ele><time>2026-04-04T13:45:07.999Z</time></trkpt><trkpt lat="40.353663094269315" lon="18.165409689969277"><ele>51.0</ele><time>2026-04-04T13:45:08.999Z</time></trkpt><trkpt lat="40.35376717853852" lon="18.165445308676446"><ele>51.0</ele><time>2026-04-04T13:45:10.999Z</time></trkpt><trkpt lat="40.35385126991946" lon="18.16550103954085"><ele>51.0</ele><time>2026-04-04T13:45:12.999Z</time></trkpt><trkpt lat="40.35394273136091" lon="18.165560236711894"><ele>51.0</ele><time>2026-04-04T13:45:14.999Z</time></trkpt><trkpt lat="40.35404394164929" lon="18.16563562143847"><ele>51.0</ele><time>2026-04-04T13:45:16.999Z</time></trkpt><trkpt lat="40.35414588012117" lon="18.16569759095968"><ele>51.0</ele><time>2026-04-04T13:45:18.999Z</time></trkpt><trkpt lat="40.354203935085586" lon="18.165730867540578"><ele>50.666666666666664</ele><time>2026-04-04T13:45:19.999Z</time></trkpt><trkpt lat="40.354263875767906" lon="18.165770782004966"><ele>50.33333333333333</ele><time>2026-04-04T13:45:20.999Z</time></trkpt><trkpt lat="40.35433345008516" lon="18.165811508896738"><ele>50.0</ele><time>2026-04-04T13:45:21.999Z</time></trkpt><trkpt lat="40.35441010955124" lon="18.16586518004506"><ele>49.666666666666664</ele><time>2026-04-04T13:45:22.999Z</time></trkpt><trkpt lat="40.35449018294978" lon="18.165922275100257"><ele>49.33333333333333</ele><time>2026-04-04T13:45:23.999Z</time></trkpt><trkpt lat="40.35456416688531" lon="18.165979680960692"><ele>49.0</ele><time>2026-04-04T13:45:24.999Z</time></trkpt><trkpt lat="40.35464133174958" lon="18.16602901954524"><ele>48.99999999999999</ele><time>2026-04-04T13:45:25.999Z</time></trkpt><trkpt lat="40.354716751515554" lon="18.166080045275567"><ele>49.0</ele><time>2026-04-04T13:45:26.999Z</time></trkpt><trkpt lat="40.35479596414685" lon="18.166125532581475"><ele>49.0</ele><time>2026-04-04T13:45:27.999Z</time></trkpt><trkpt lat="40.35487083809401" lon="18.166174918806266"><ele>49.0</ele><time>2026-04-04T13:45:28.999Z</time></trkpt><trkpt lat="40.35494753463031" lon="18.166222446954066"><ele>48.99999999999999</ele><time>2026-04-04T13:45:29.999Z</time></trkpt><trkpt lat="40.35502263626169" lon="18.16626776852427"><ele>49.0</ele><time>2026-04-04T13:45:30.999Z</time></trkpt><trkpt lat="40.3550981278475" lon="18.166313953396156"><ele>49.0</ele><time>2026-04-04T13:45:31.999Z</time></trkpt><trkpt lat="40.35517670213755" lon="18.166359464566884"><ele>49.0</ele><time>2026-04-04T13:45:32.999Z</time></trkpt><trkpt lat="40.35526120264767" lon="18.166404916233194"><ele>49.0</ele><time>2026-04-04T13:45:33.999Z</time></trkpt><trkpt lat="40.3553473051746" lon="18.166458893105904"><ele>49.0</ele><time>2026-04-04T13:45:34.999Z</time></trkpt><trkpt lat="40.35543458243155" lon="18.166512921965925"><ele>49.0</ele><time>2026-04-04T13:45:35.999Z</time></trkpt><trkpt lat="40.35552519743942" lon="18.166569265879026"><ele>49.0</ele><time>2026-04-04T13:45:36.999Z</time></trkpt><trkpt lat="40.355615173799016" lon="18.16662087334528"><ele>49.0</ele><time>2026-04-04T13:45:37.999Z</time></trkpt><trkpt lat="40.355698576152896" lon="18.166673767818345"><ele>49.0</ele><time>2026-04-04T13:45:38.999Z</time></trkpt><trkpt lat="40.35577988956882" lon="18.16672539161909"><ele>49.0</ele><time>2026-04-04T13:45:39.999Z</time></trkpt><trkpt lat="40.355857920590026" lon="18.166772237773866"><ele>49.0</ele><time>2026-04-04T13:45:40.999Z</time></trkpt><trkpt lat="40.35593330279572" lon="18.166819764990198"><ele>48.99999999999999</ele><time>2026-04-04T13:45:41.999Z</time></trkpt><trkpt lat="40.356004395728846" lon="18.166868529527733"><ele>49.0</ele><time>2026-04-04T13:45:42.999Z</time></trkpt><trkpt lat="40.3560793562155" lon="18.166916976480444"><ele>49.0</ele><time>2026-04-04T13:45:43.999Z</time></trkpt><trkpt lat="40.35615422990567" lon="18.166963695184908"><ele>49.0</ele><time>2026-04-04T13:45:44.999Z</time></trkpt><trkpt lat="40.35622316240754" lon="18.167010358968483"><ele>48.99999999999999</ele><time>2026-04-04T13:45:45.999Z</time></trkpt><trkpt lat="40.356284495624706" lon="18.167057198107862"><ele>49.0</ele><time>2026-04-04T13:45:46.999Z</time></trkpt><trkpt lat="40.35634690552234" lon="18.167094051900335"><ele>48.83333333333333</ele><time>2026-04-04T13:45:47.999Z</time></trkpt><trkpt lat="40.356404723634704" lon="18.167128464637955"><ele>48.666666666666664</ele><time>2026-04-04T13:45:48.999Z</time></trkpt><trkpt lat="40.35651532730895" lon="18.16719955113717"><ele>48.5</ele><time>2026-04-04T13:45:50.999Z</time></trkpt><trkpt lat="40.35660434430951" lon="18.167256268039285"><ele>48.33333333333333</ele><time>2026-04-04T13:45:52.999Z</time></trkpt><trkpt lat="40.356662076985536" lon="18.167298337847676"><ele>48.166666666666664</ele><time>2026-04-04T13:45:54.999Z</time></trkpt><trkpt lat="40.356737624958875" lon="18.167377716007785"><ele>48.0</ele><time>2026-04-04T13:46:00.999Z</time></trkpt><trkpt lat="40.35679530068019" lon="18.1674273911827"><ele>47.833333333333336</ele><time>2026-04-04T13:46:01.999Z</time></trkpt><trkpt lat="40.356856635488754" lon="18.167476757597044"><ele>47.666666666666664</ele><time>2026-04-04T13:46:02.999Z</time></trkpt><trkpt lat="40.356942131600626" lon="18.16750186777129"><ele>47.5</ele><time>2026-04-04T13:46:04.999Z</time></trkpt><trkpt lat="40.35703204297148" lon="18.167503800317494"><ele>47.33333333333333</ele><time>2026-04-04T13:46:09.999Z</time></trkpt><trkpt lat="40.357130582549225" lon="18.167556695888646"><ele>47.166666666666664</ele><time>2026-04-04T13:46:11.999Z</time></trkpt><trkpt lat="40.35718798238444" lon="18.167596175145867"><ele>47.0</ele><time>2026-04-04T13:46:12.999Z</time></trkpt><trkpt lat="40.35725032139531" lon="18.167639591070085"><ele>47.33333333333333</ele><time>2026-04-04T13:46:13.999Z</time></trkpt><trkpt lat="40.357321309337884" lon="18.167687660607946"><ele>47.666666666666664</ele><time>2026-04-04T13:46:14.999Z</time></trkpt><trkpt lat="40.357387616208605" lon="18.167730997807382"><ele>48.0</ele><time>2026-04-04T13:46:15.999Z</time></trkpt><trkpt lat="40.35745688816061" lon="18.167771590126875"><ele>48.33333333333333</ele><time>2026-04-04T13:46:16.999Z</time></trkpt><trkpt lat="40.35751948832099" lon="18.16781457956458"><ele>48.666666666666664</ele><time>2026-04-04T13:46:17.999Z</time></trkpt><trkpt lat="40.35759379838073" lon="18.167848271720885"><ele>49.0</ele><time>2026-04-04T13:46:18.999Z</time></trkpt><trkpt lat="40.357674674054685" lon="18.167890002040462"><ele>49.0</ele><time>2026-04-04T13:46:19.999Z</time></trkpt><trkpt lat="40.35775738119986" lon="18.16794947840623"><ele>49.0</ele><time>2026-04-04T13:46:20.999Z</time></trkpt><trkpt lat="40.357846028623875" lon="18.16800332148087"><ele>49.0</ele><time>2026-04-04T13:46:21.999Z</time></trkpt><trkpt lat="40.3579392799247" lon="18.168055739404508"><ele>49.0</ele><time>2026-04-04T13:46:22.999Z</time></trkpt><trkpt lat="40.35803068150592" lon="18.16811601284674"><ele>49.0</ele><time>2026-04-04T13:46:23.999Z</time></trkpt><trkpt lat="40.35811167409265" lon="18.168177839626242"><ele>48.800000000000004</ele><time>2026-04-04T13:46:24.999Z</time></trkpt><trkpt lat="40.35819623795917" lon="18.168229574896042"><ele>48.6</ele><time>2026-04-04T13:46:25.999Z</time></trkpt><trkpt lat="40.35828766433835" lon="18.16829131748832"><ele>48.4</ele><time>2026-04-04T13:46:26.999Z</time></trkpt><trkpt lat="40.35838233402554" lon="18.16834967785148"><ele>48.2</ele><time>2026-04-04T13:46:27.999Z</time></trkpt><trkpt lat="40.358471261758915" lon="18.16840281272068"><ele>48.0</ele><time>2026-04-04T13:46:28.999Z</time></trkpt><trkpt lat="40.35855261782385" lon="18.168454060915174"><ele>48.0</ele><time>2026-04-04T13:46:29.999Z</time></trkpt><trkpt lat="40.35863473705801" lon="18.168497467665134"><ele>48.0</ele><time>2026-04-04T13:46:30.999Z</time></trkpt><trkpt lat="40.35872642640596" lon="18.168552468161156"><ele>48.0</ele><time>2026-04-04T13:46:31.999Z</time></trkpt><trkpt lat="40.358811660551346" lon="18.168605768238482"><ele>48.0</ele><time>2026-04-04T13:46:32.999Z</time></trkpt><trkpt lat="40.358889333650716" lon="18.168652755188464"><ele>48.0</ele><time>2026-04-04T13:46:33.999Z</time></trkpt><trkpt lat="40.358952770392946" lon="18.168688004438913"><ele>48.0</ele><time>2026-04-04T13:46:34.999Z</time></trkpt><trkpt lat="40.359042199762186" lon="18.16872915542135"><ele>48.0</ele><time>2026-04-04T13:46:36.999Z</time></trkpt><trkpt lat="40.35910447154277" lon="18.16875610465607"><ele>48.0</ele><time>2026-04-04T13:46:44.999Z</time></trkpt><trkpt lat="40.35920143158315" lon="18.168826523151402"><ele>48.0</ele><time>2026-04-04T13:46:46.999Z</time></trkpt><trkpt lat="40.3592715895877" lon="18.168869958637043"><ele>48.0</ele><time>2026-04-04T13:46:47.999Z</time></trkpt><trkpt lat="40.35937653311153" lon="18.16891590871339"><ele>48.0</ele><time>2026-04-04T13:46:48.999Z</time></trkpt><trkpt lat="40.35950870307876" lon="18.1689856489423"><ele>48.33333333333333</ele><time>2026-04-04T13:46:49.999Z</time></trkpt><trkpt lat="40.359655460308005" lon="18.169074083078442"><ele>48.666666666666664</ele><time>2026-04-04T13:46:50.999Z</time></trkpt><trkpt lat="40.35979115751262" lon="18.169164845548867"><ele>49.0</ele><time>2026-04-04T13:46:51.999Z</time></trkpt><trkpt lat="40.35991589662121" lon="18.169254888331054"><ele>49.25</ele><time>2026-04-04T13:46:52.999Z</time></trkpt><trkpt lat="40.3600342347321" lon="18.169345279951777"><ele>49.5</ele><time>2026-04-04T13:46:53.999Z</time></trkpt><trkpt lat="40.36013831097597" lon="18.16941004370035"><ele>49.75</ele><time>2026-04-04T13:46:54.999Z</time></trkpt><trkpt lat="40.36023267752399" lon="18.169462581498234"><ele>50.0</ele><time>2026-04-04T13:46:55.999Z</time></trkpt><trkpt lat="40.36031550628343" lon="18.16952969619847"><ele>50.00000000000001</ele><time>2026-04-04T13:46:56.999Z</time></trkpt><trkpt lat="40.360391575025005" lon="18.169589413784255"><ele>50.0</ele><time>2026-04-04T13:46:57.999Z</time></trkpt><trkpt lat="40.36045856231304" lon="18.169647157867495"><ele>50.0</ele><time>2026-04-04T13:46:58.999Z</time></trkpt><trkpt lat="40.36051130617455" lon="18.169699204624987"><ele>50.0</ele><time>2026-04-04T13:46:59.999Z</time></trkpt><trkpt lat="40.36057444511991" lon="18.169769705503874"><ele>50.00000000000001</ele><time>2026-04-04T13:47:01.999Z</time></trkpt><trkpt lat="40.360611879019274" lon="18.169839598705938"><ele>50.0</ele><time>2026-04-04T13:47:04.999Z</time></trkpt><trkpt lat="40.36063288243431" lon="18.169943998525557"><ele>49.2</ele><time>2026-04-04T13:47:09.999Z</time></trkpt><trkpt lat="40.360644026836454" lon="18.170044247291056"><ele>48.4</ele><time>2026-04-04T13:47:11.999Z</time></trkpt><trkpt lat="40.36069130144167" lon="18.170159288551787"><ele>47.599999999999994</ele><time>2026-04-04T13:47:13.999Z</time></trkpt><trkpt lat="40.36076784187856" lon="18.170237285650362"><ele>46.8</ele><time>2026-04-04T13:47:15.999Z</time></trkpt><trkpt lat="40.36087330573831" lon="18.170266745130096"><ele>46.0</ele><time>2026-04-04T13:47:17.999Z</time></trkpt><trkpt lat="40.36097223020204" lon="18.17022789426485"><ele>46.0</ele><time>2026-04-04T13:47:19.999Z</time></trkpt><trkpt lat="40.361040592959924" lon="18.170133819386443"><ele>46.0</ele><time>2026-04-04T13:47:21.999Z</time></trkpt><trkpt lat="40.361094956155085" lon="18.170022513414846"><ele>46.0</ele><time>2026-04-04T13:47:23.999Z</time></trkpt><trkpt lat="40.36116012068803" lon="18.169903696467323"><ele>46.0</ele><time>2026-04-04T13:47:25.999Z</time></trkpt><trkpt lat="40.36120803475433" lon="18.169834085955827"><ele>46.0</ele><time>2026-04-04T13:47:26.999Z</time></trkpt><trkpt lat="40.36127195403965" lon="18.169761411644068"><ele>46.0</ele><time>2026-04-04T13:47:27.999Z</time></trkpt><trkpt lat="40.36132932544182" lon="18.16970453619215"><ele>46.0</ele><time>2026-04-04T13:47:28.999Z</time></trkpt><trkpt lat="40.361385107774716" lon="18.169642186826852"><ele>46.0</ele><time>2026-04-04T13:47:29.999Z</time></trkpt><trkpt lat="40.36144188218025" lon="18.16959401980742"><ele>46.0</ele><time>2026-04-04T13:47:30.999Z</time></trkpt><trkpt lat="40.36154523730845" lon="18.169551772223215"><ele>46.0</ele><time>2026-04-04T13:47:32.998Z</time></trkpt><trkpt lat="40.36165993508355" lon="18.169539891593622"><ele>46.0</ele><time>2026-04-04T13:47:34.998Z</time></trkpt><trkpt lat="40.36177790407192" lon="18.169568318294694"><ele>45.833333333333336</ele><time>2026-04-04T13:47:36.998Z</time></trkpt><trkpt lat="40.361846435309275" lon="18.16959102006448"><ele>45.66666666666667</ele><time>2026-04-04T13:47:37.998Z</time></trkpt><trkpt lat="40.361908544553174" lon="18.169613357917246"><ele>45.5</ele><time>2026-04-04T13:47:38.998Z</time></trkpt><trkpt lat="40.3620178418616" lon="18.1696356350477"><ele>45.333333333333336</ele><time>2026-04-04T13:47:40.998Z</time></trkpt><trkpt lat="40.362108583160534" lon="18.169652329957554"><ele>45.166666666666664</ele><time>2026-04-04T13:47:42.998Z</time></trkpt><trkpt lat="40.36220102170491" lon="18.169668698019326"><ele>45.0</ele><time>2026-04-04T13:47:44.998Z</time></trkpt><trkpt lat="40.362269787112204" lon="18.169684781757272"><ele>45.0</ele><time>2026-04-04T13:47:46.998Z</time></trkpt><trkpt lat="40.362326514201044" lon="18.16972643596329"><ele>45.0</ele><time>2026-04-04T13:47:53.998Z</time></trkpt></trkseg><trkseg><trkpt lat="40.36241725809171" lon="18.169681273740682"><ele>45.0</ele><time>2026-04-04T14:13:53.998Z</time></trkpt><trkpt lat="40.36251832514165" lon="18.169659546659933"><ele>45.0</ele><time>2026-04-04T14:13:56.998Z</time></trkpt><trkpt lat="40.36260818196841" lon="18.169655945707223"><ele>45.0</ele><time>2026-04-04T14:13:58.998Z</time></trkpt><trkpt lat="40.362719911663454" lon="18.16966723067869"><ele>45.0</ele><time>2026-04-04T14:14:00.998Z</time></trkpt><trkpt lat="40.36283429632959" lon="18.169674197528728"><ele>45.0</ele><time>2026-04-04T14:14:02.998Z</time></trkpt><trkpt lat="40.36289824030144" lon="18.16967994827371"><ele>45.0</ele><time>2026-04-04T14:14:03.998Z</time></trkpt><trkpt lat="40.36296894205118" lon="18.16968653868253"><ele>45.0</ele><time>2026-04-04T14:14:04.998Z</time></trkpt><trkpt lat="40.36303181178623" lon="18.169698368544434"><ele>45.0</ele><time>2026-04-04T14:14:05.998Z</time></trkpt><trkpt lat="40.36314241078538" lon="18.169713406105252"><ele>45.0</ele><time>2026-04-04T14:14:07.998Z</time></trkpt><trkpt lat="40.3632046321455" lon="18.169726537964756"><ele>45.0</ele><time>2026-04-04T14:14:08.998Z</time></trkpt><trkpt lat="40.36327470400511" lon="18.169732968917984"><ele>45.0</ele><time>2026-04-04T14:14:09.998Z</time></trkpt><trkpt lat="40.3633516294732" lon="18.169743874728237"><ele>45.166666666666664</ele><time>2026-04-04T14:14:10.998Z</time></trkpt><trkpt lat="40.36343726189788" lon="18.169748075677518"><ele>45.333333333333336</ele><time>2026-04-04T14:14:11.998Z</time></trkpt><trkpt lat="40.363524947916375" lon="18.169743116925098"><ele>45.5</ele><time>2026-04-04T14:14:12.998Z</time></trkpt><trkpt lat="40.363595940123304" lon="18.16975198822025"><ele>45.66666666666667</ele><time>2026-04-04T14:14:13.998Z</time></trkpt><trkpt lat="40.36365243193507" lon="18.169857053075862"><ele>45.833333333333336</ele><time>2026-04-04T14:14:17.998Z</time></trkpt><trkpt lat="40.363634296955944" lon="18.169961935142634"><ele>46.0</ele><time>2026-04-04T14:14:18.998Z</time></trkpt><trkpt lat="40.36361616623376" lon="18.170061808936197"><ele>46.4</ele><time>2026-04-04T14:14:19.998Z</time></trkpt><trkpt lat="40.363606229571865" lon="18.17016950658795"><ele>46.8</ele><time>2026-04-04T14:14:20.998Z</time></trkpt><trkpt lat="40.36360128824125" lon="18.17028761009508"><ele>47.199999999999996</ele><time>2026-04-04T14:14:21.998Z</time></trkpt><trkpt lat="40.363615272155286" lon="18.170408496549882"><ele>47.599999999999994</ele><time>2026-04-04T14:14:22.998Z</time></trkpt><trkpt lat="40.363601709146174" lon="18.170551801578462"><ele>48.0</ele><time>2026-04-04T14:14:23.998Z</time></trkpt><trkpt lat="40.36360022850084" lon="18.170682096757854"><ele>48.166666666666664</ele><time>2026-04-04T14:14:24.998Z</time></trkpt><trkpt lat="40.363586537794376" lon="18.170799924838626"><ele>48.33333333333333</ele><time>2026-04-04T14:14:25.998Z</time></trkpt><trkpt lat="40.36357356251521" lon="18.17092202493402"><ele>48.5</ele><time>2026-04-04T14:14:26.998Z</time></trkpt><trkpt lat="40.363568389187904" lon="18.171045276654592"><ele>48.666666666666664</ele><time>2026-04-04T14:14:27.998Z</time></trkpt><trkpt lat="40.36355829325504" lon="18.171161005523285"><ele>48.83333333333333</ele><time>2026-04-04T14:14:28.998Z</time></trkpt><trkpt lat="40.36355446861883" lon="18.17126235601409"><ele>49.0</ele><time>2026-04-04T14:14:29.998Z</time></trkpt><trkpt lat="40.36354509774197" lon="18.171353675257034"><ele>48.99999999999999</ele><time>2026-04-04T14:14:30.998Z</time></trkpt><trkpt lat="40.363558001592374" lon="18.17144106892893"><ele>49.0</ele><time>2026-04-04T14:14:31.998Z</time></trkpt><trkpt lat="40.36358080516494" lon="18.171562387178913"><ele>49.0</ele><time>2026-04-04T14:14:33.998Z</time></trkpt><trkpt lat="40.3635630887557" lon="18.171669664784954"><ele>49.0</ele><time>2026-04-04T14:14:36.998Z</time></trkpt><trkpt lat="40.36350465408334" lon="18.17173116077163"><ele>48.99999999999999</ele><time>2026-04-04T14:14:38.997Z</time></trkpt><trkpt lat="40.36340540565633" lon="18.17181626689024"><ele>49.0</ele><time>2026-04-04T14:14:40.997Z</time></trkpt><trkpt lat="40.36327748340104" lon="18.171861990711413"><ele>48.800000000000004</ele><time>2026-04-04T14:14:42.997Z</time></trkpt><trkpt lat="40.36319765717911" lon="18.17187167915563"><ele>48.6</ele><time>2026-04-04T14:14:43.997Z</time></trkpt><trkpt lat="40.36310563489564" lon="18.171878489808105"><ele>48.4</ele><time>2026-04-04T14:14:44.997Z</time></trkpt><trkpt lat="40.36301404789133" lon="18.171874118790846"><ele>48.2</ele><time>2026-04-04T14:14:45.997Z</time></trkpt><trkpt lat="40.36291726149218" lon="18.17187847221961"><ele>48.0</ele><time>2026-04-04T14:14:46.997Z</time></trkpt><trkpt lat="40.362828450011015" lon="18.17187933537879"><ele>48.0</ele><time>2026-04-04T14:14:47.997Z</time></trkpt><trkpt lat="40.36274904866236" lon="18.171869082021054"><ele>48.0</ele><time>2026-04-04T14:14:48.997Z</time></trkpt><trkpt lat="40.36267446056096" lon="18.17187585780201"><ele>48.0</ele><time>2026-04-04T14:14:49.997Z</time></trkpt><trkpt lat="40.36260875302979" lon="18.171883337261885"><ele>48.0</ele><time>2026-04-04T14:14:50.997Z</time></trkpt><trkpt lat="40.362502884525945" lon="18.17188896482607"><ele>48.0</ele><time>2026-04-04T14:14:52.997Z</time></trkpt><trkpt lat="40.362437786069094" lon="18.17187960414655"><ele>48.0</ele><time>2026-04-04T14:14:57.997Z</time></trkpt><trkpt lat="40.36237717471269" lon="18.171843515221315"><ele>48.0</ele><time>2026-04-04T14:15:46.997Z</time></trkpt><trkpt lat="40.362319362570666" lon="18.171914907742572"><ele>48.0</ele><time>2026-04-04T14:15:48.997Z</time></trkpt><trkpt lat="40.36231943853609" lon="18.17202952164814"><ele>48.0</ele><time>2026-04-04T14:15:50.997Z</time></trkpt><trkpt lat="40.36238768609078" lon="18.172163129624373"><ele>48.0</ele><time>2026-04-04T14:15:52.997Z</time></trkpt><trkpt lat="40.36243171270917" lon="18.172227243446354"><ele>48.0</ele><time>2026-04-04T14:15:53.997Z</time></trkpt><trkpt lat="40.36247343994049" lon="18.17229945930033"><ele>48.0</ele><time>2026-04-04T14:15:54.997Z</time></trkpt><trkpt lat="40.36251499818253" lon="18.17237680840185"><ele>48.333333333333336</ele><time>2026-04-04T14:15:55.997Z</time></trkpt><trkpt lat="40.362566362903905" lon="18.172463614025514"><ele>48.66666666666667</ele><time>2026-04-04T14:15:56.997Z</time></trkpt><trkpt lat="40.36261916254326" lon="18.1725508444713"><ele>49.0</ele><time>2026-04-04T14:15:57.997Z</time></trkpt><trkpt lat="40.36267274839093" lon="18.172647759018478"><ele>49.333333333333336</ele><time>2026-04-04T14:15:58.997Z</time></trkpt><trkpt lat="40.362725142295986" lon="18.172743382958856"><ele>49.66666666666667</ele><time>2026-04-04T14:15:59.997Z</time></trkpt><trkpt lat="40.362777120032334" lon="18.172845278176087"><ele>50.0</ele><time>2026-04-04T14:16:00.997Z</time></trkpt><trkpt lat="40.36281912904556" lon="18.172948780936313"><ele>50.00000000000001</ele><time>2026-04-04T14:16:01.997Z</time></trkpt><trkpt lat="40.36285443575456" lon="18.173047738790665"><ele>50.0</ele><time>2026-04-04T14:16:02.997Z</time></trkpt><trkpt lat="40.362890469438106" lon="18.173145023649838"><ele>50.0</ele><time>2026-04-04T14:16:03.997Z</time></trkpt><trkpt lat="40.362915910236055" lon="18.173247508685886"><ele>50.0</ele><time>2026-04-04T14:16:04.997Z</time></trkpt><trkpt lat="40.36293179854997" lon="18.173356453623306"><ele>50.00000000000001</ele><time>2026-04-04T14:16:05.997Z</time></trkpt><trkpt lat="40.362947402750734" lon="18.17346844213014"><ele>50.0</ele><time>2026-04-04T14:16:06.997Z</time></trkpt><trkpt lat="40.36295160821355" lon="18.17358555597989"><ele>49.8</ele><time>2026-04-04T14:16:07.997Z</time></trkpt><trkpt lat="40.36295203384711" lon="18.173707595036117"><ele>49.6</ele><time>2026-04-04T14:16:08.997Z</time></trkpt><trkpt lat="40.36295004062458" lon="18.17383202767192"><ele>49.400000000000006</ele><time>2026-04-04T14:16:09.997Z</time></trkpt><trkpt lat="40.36295764279367" lon="18.17395266433038"><ele>49.2</ele><time>2026-04-04T14:16:10.997Z</time></trkpt><trkpt lat="40.36294904146525" lon="18.174072273700045"><ele>49.0</ele><time>2026-04-04T14:16:11.997Z</time></trkpt><trkpt lat="40.3629428654206" lon="18.17417898773904"><ele>48.99999999999999</ele><time>2026-04-04T14:16:12.997Z</time></trkpt><trkpt lat="40.362914514365016" lon="18.174286123894014"><ele>49.0</ele><time>2026-04-04T14:16:13.997Z</time></trkpt><trkpt lat="40.36289022108037" lon="18.174389612005086"><ele>49.0</ele><time>2026-04-04T14:16:14.997Z</time></trkpt><trkpt lat="40.3628584175164" lon="18.17449174867735"><ele>49.0</ele><time>2026-04-04T14:16:15.997Z</time></trkpt><trkpt lat="40.362840287024845" lon="18.174613181552743"><ele>48.99999999999999</ele><time>2026-04-04T14:16:16.997Z</time></trkpt><trkpt lat="40.36281488210277" lon="18.174733450590146"><ele>49.0</ele><time>2026-04-04T14:16:17.997Z</time></trkpt><trkpt lat="40.36279260037952" lon="18.174843821683858"><ele>48.99999999999999</ele><time>2026-04-04T14:16:18.997Z</time></trkpt><trkpt lat="40.36277122015433" lon="18.17495100316357"><ele>49.0</ele><time>2026-04-04T14:16:19.997Z</time></trkpt><trkpt lat="40.362751604125606" lon="18.175055781950817"><ele>49.0</ele><time>2026-04-04T14:16:20.997Z</time></trkpt><trkpt lat="40.36272701108209" lon="18.175156650749912"><ele>49.0</ele><time>2026-04-04T14:16:21.997Z</time></trkpt><trkpt lat="40.36270323089193" lon="18.175267779133797"><ele>48.99999999999999</ele><time>2026-04-04T14:16:22.997Z</time></trkpt><trkpt lat="40.36266643457745" lon="18.175382941835302"><ele>49.0</ele><time>2026-04-04T14:16:23.997Z</time></trkpt><trkpt lat="40.36263666568103" lon="18.17550210250665"><ele>49.0</ele><time>2026-04-04T14:16:24.997Z</time></trkpt><trkpt lat="40.36261039999165" lon="18.17561940964986"><ele>49.0</ele><time>2026-04-04T14:16:25.997Z</time></trkpt><trkpt lat="40.362581049607044" lon="18.175742524906784"><ele>49.0</ele><time>2026-04-04T14:16:26.997Z</time></trkpt><trkpt lat="40.36254912417879" lon="18.175865685330738"><ele>49.0</ele><time>2026-04-04T14:16:27.997Z</time></trkpt><trkpt lat="40.36252395958811" lon="18.175988683928292"><ele>49.0</ele><time>2026-04-04T14:16:28.997Z</time></trkpt><trkpt lat="40.362504006886056" lon="18.17611355154217"><ele>49.2</ele><time>2026-04-04T14:16:29.997Z</time></trkpt><trkpt lat="40.362475399724254" lon="18.176242368839652"><ele>49.400000000000006</ele><time>2026-04-04T14:16:30.997Z</time></trkpt><trkpt lat="40.36243611146562" lon="18.176364108193894"><ele>49.6</ele><time>2026-04-04T14:16:31.997Z</time></trkpt><trkpt lat="40.3624069501906" lon="18.17648066639486"><ele>49.8</ele><time>2026-04-04T14:16:32.997Z</time></trkpt><trkpt lat="40.362377576425985" lon="18.17660300142825"><ele>50.0</ele><time>2026-04-04T14:16:33.997Z</time></trkpt><trkpt lat="40.36234718512078" lon="18.176720499237312"><ele>49.8</ele><time>2026-04-04T14:16:34.997Z</time></trkpt><trkpt lat="40.362320277220746" lon="18.176839821227176"><ele>49.6</ele><time>2026-04-04T14:16:35.997Z</time></trkpt><trkpt lat="40.36229232108376" lon="18.17696054573098"><ele>49.400000000000006</ele><time>2026-04-04T14:16:36.997Z</time></trkpt><trkpt lat="40.36226144883142" lon="18.17708467299241"><ele>49.2</ele><time>2026-04-04T14:16:37.997Z</time></trkpt><trkpt lat="40.36221844493684" lon="18.177205033209002"><ele>49.0</ele><time>2026-04-04T14:16:38.997Z</time></trkpt><trkpt lat="40.362194407685756" lon="18.17733939914987"><ele>49.0</ele><time>2026-04-04T14:16:39.997Z</time></trkpt><trkpt lat="40.36216531399929" lon="18.17746543018586"><ele>49.0</ele><time>2026-04-04T14:16:40.997Z</time></trkpt><trkpt lat="40.362134898253736" lon="18.17759093071918"><ele>49.0</ele><time>2026-04-04T14:16:41.997Z</time></trkpt><trkpt lat="40.36210738110383" lon="18.177713660351102"><ele>49.0</ele><time>2026-04-04T14:16:42.997Z</time></trkpt><trkpt lat="40.36207484113183" lon="18.177834456188275"><ele>49.0</ele><time>2026-04-04T14:16:43.997Z</time></trkpt><trkpt lat="40.36204234548767" lon="18.177953300674243"><ele>49.0</ele><time>2026-04-04T14:16:44.997Z</time></trkpt><trkpt lat="40.36200169897887" lon="18.178069599422713"><ele>49.0</ele><time>2026-04-04T14:16:45.997Z</time></trkpt><trkpt lat="40.36196174319488" lon="18.178192069706288"><ele>49.0</ele><time>2026-04-04T14:16:46.997Z</time></trkpt><trkpt lat="40.361926338848995" lon="18.178321781488396"><ele>49.0</ele><time>2026-04-04T14:16:47.997Z</time></trkpt><trkpt lat="40.36188413717287" lon="18.178451474626076"><ele>49.0</ele><time>2026-04-04T14:16:48.997Z</time></trkpt><trkpt lat="40.361839417941496" lon="18.178578596324513"><ele>48.800000000000004</ele><time>2026-04-04T14:16:49.997Z</time></trkpt><trkpt lat="40.361794166987416" lon="18.178703224855887"><ele>48.6</ele><time>2026-04-04T14:16:50.997Z</time></trkpt><trkpt lat="40.361746236588566" lon="18.178826772210634"><ele>48.4</ele><time>2026-04-04T14:16:51.997Z</time></trkpt><trkpt lat="40.36168716183039" lon="18.17894121891987"><ele>48.2</ele><time>2026-04-04T14:16:52.997Z</time></trkpt><trkpt lat="40.361632197681615" lon="18.179052652944776"><ele>48.0</ele><time>2026-04-04T14:16:53.997Z</time></trkpt><trkpt lat="40.36157151591401" lon="18.179161037650942"><ele>47.833333333333336</ele><time>2026-04-04T14:16:54.997Z</time></trkpt><trkpt lat="40.36151249440075" lon="18.179266547835983"><ele>47.666666666666664</ele><time>2026-04-04T14:16:55.997Z</time></trkpt><trkpt lat="40.36145868921795" lon="18.179369823457208"><ele>47.5</ele><time>2026-04-04T14:16:56.997Z</time></trkpt><trkpt lat="40.36141480532675" lon="18.179465037764928"><ele>47.33333333333333</ele><time>2026-04-04T14:16:57.997Z</time></trkpt><trkpt lat="40.361375649953644" lon="18.17955125984519"><ele>47.166666666666664</ele><time>2026-04-04T14:16:58.997Z</time></trkpt><trkpt lat="40.36133492637721" lon="18.179623355793133"><ele>47.0</ele><time>2026-04-04T14:16:59.997Z</time></trkpt><trkpt lat="40.36127841457427" lon="18.1797346792395"><ele>47.0</ele><time>2026-04-04T14:17:01.997Z</time></trkpt><trkpt lat="40.36124489283433" lon="18.179806712276125"><ele>47.0</ele><time>2026-04-04T14:17:03.997Z</time></trkpt><trkpt lat="40.36118666812798" lon="18.179841107756154"><ele>47.0</ele><time>2026-04-04T14:17:35.996Z</time></trkpt><trkpt lat="40.361138707108566" lon="18.17993710715625"><ele>47.0</ele><time>2026-04-04T14:17:36.996Z</time></trkpt><trkpt lat="40.36106997216857" lon="18.180066588305777"><ele>47.0</ele><time>2026-04-04T14:17:37.996Z</time></trkpt><trkpt lat="40.36097879378071" lon="18.180237039604854"><ele>47.0</ele><time>2026-04-04T14:17:38.996Z</time></trkpt><trkpt lat="40.36086282302642" lon="18.180436337359016"><ele>47.0</ele><time>2026-04-04T14:17:39.996Z</time></trkpt><trkpt lat="40.36075445104547" lon="18.18059885647674"><ele>47.0</ele><time>2026-04-04T14:17:40.996Z</time></trkpt><trkpt lat="40.36064994538197" lon="18.180747595366274"><ele>47.0</ele><time>2026-04-04T14:17:41.996Z</time></trkpt><trkpt lat="40.36057080382011" lon="18.18088043671432"><ele>47.0</ele><time>2026-04-04T14:17:42.996Z</time></trkpt><trkpt lat="40.360510115678984" lon="18.180998625011924"><ele>47.0</ele><time>2026-04-04T14:17:43.996Z</time></trkpt><trkpt lat="40.36047352356635" lon="18.181107633593204"><ele>47.0</ele><time>2026-04-04T14:17:44.996Z</time></trkpt><trkpt lat="40.360452363871225" lon="18.1812197157402"><ele>47.0</ele><time>2026-04-04T14:17:45.996Z</time></trkpt><trkpt lat="40.360089364504375" lon="18.18146792454209"><ele>47.33333333333333</ele><time>2026-04-04T14:17:46.996Z</time></trkpt><trkpt lat="40.359968448940236" lon="18.181597853433395"><ele>47.666666666666664</ele><time>2026-04-04T14:17:47.996Z</time></trkpt><trkpt lat="40.359826339030334" lon="18.181735291250572"><ele>48.0</ele><time>2026-04-04T14:17:48.996Z</time></trkpt><trkpt lat="40.35969635830305" lon="18.18185382820878"><ele>47.599999999999994</ele><time>2026-04-04T14:17:49.996Z</time></trkpt><trkpt lat="40.35960379363495" lon="18.181937238733667"><ele>47.199999999999996</ele><time>2026-04-04T14:17:50.996Z</time></trkpt><trkpt lat="40.359544811707885" lon="18.182012863115414"><ele>46.8</ele><time>2026-04-04T14:17:51.996Z</time></trkpt><trkpt lat="40.3594842084306" lon="18.182094366000367"><ele>46.4</ele><time>2026-04-04T14:17:52.996Z</time></trkpt><trkpt lat="40.35942348873311" lon="18.182172644602566"><ele>46.0</ele><time>2026-04-04T14:17:53.996Z</time></trkpt><trkpt lat="40.359349371601" lon="18.18226974414456"><ele>46.0</ele><time>2026-04-04T14:17:54.996Z</time></trkpt><trkpt lat="40.3592660306225" lon="18.182384316583367"><ele>46.0</ele><time>2026-04-04T14:17:55.996Z</time></trkpt><trkpt lat="40.359189333286416" lon="18.182502630990392"><ele>46.0</ele><time>2026-04-04T14:17:56.996Z</time></trkpt><trkpt lat="40.35914268536343" lon="18.182606103148466"><ele>46.0</ele><time>2026-04-04T14:17:57.996Z</time></trkpt><trkpt lat="40.359083993071074" lon="18.18267803160881"><ele>46.0</ele><time>2026-04-04T14:17:58.996Z</time></trkpt><trkpt lat="40.359026747250276" lon="18.182729779576707"><ele>46.0</ele><time>2026-04-04T14:17:59.996Z</time></trkpt><trkpt lat="40.35891225092957" lon="18.182750947694363"><ele>46.0</ele><time>2026-04-04T14:18:01.996Z</time></trkpt><trkpt lat="40.35884183544901" lon="18.18275471224126"><ele>46.0</ele><time>2026-04-04T14:18:02.996Z</time></trkpt><trkpt lat="40.35878048307618" lon="18.182779292928192"><ele>46.0</ele><time>2026-04-04T14:18:03.996Z</time></trkpt><trkpt lat="40.35872394703653" lon="18.18283031802076"><ele>46.0</ele><time>2026-04-04T14:18:04.996Z</time></trkpt><trkpt lat="40.35866938653877" lon="18.18295135470829"><ele>46.0</ele><time>2026-04-04T14:18:06.996Z</time></trkpt><trkpt lat="40.35870683231876" lon="18.18309646715515"><ele>46.0</ele><time>2026-04-04T14:18:08.996Z</time></trkpt><trkpt lat="40.35878935662945" lon="18.18318189674844"><ele>46.0</ele><time>2026-04-04T14:18:09.996Z</time></trkpt><trkpt lat="40.35884213497844" lon="18.183264459319208"><ele>46.0</ele><time>2026-04-04T14:18:10.996Z</time></trkpt><trkpt lat="40.35891313415228" lon="18.18338068643161"><ele>46.0</ele><time>2026-04-04T14:18:11.996Z</time></trkpt><trkpt lat="40.3589799677608" lon="18.18350335142513"><ele>46.0</ele><time>2026-04-04T14:18:12.996Z</time></trkpt><trkpt lat="40.35902883580542" lon="18.183631875306485"><ele>46.0</ele><time>2026-04-04T14:18:13.996Z</time></trkpt><trkpt lat="40.35907590627886" lon="18.18375849873143"><ele>46.0</ele><time>2026-04-04T14:18:14.996Z</time></trkpt><trkpt lat="40.359123722680984" lon="18.183883576317708"><ele>46.0</ele><time>2026-04-04T14:18:15.996Z</time></trkpt><trkpt lat="40.35917695499609" lon="18.18401268668987"><ele>46.0</ele><time>2026-04-04T14:18:16.996Z</time></trkpt><trkpt lat="40.359229547319984" lon="18.184136630931018"><ele>46.0</ele><time>2026-04-04T14:18:17.996Z</time></trkpt><trkpt lat="40.35928304039575" lon="18.184260478519946"><ele>46.0</ele><time>2026-04-04T14:18:18.996Z</time></trkpt><trkpt lat="40.35933117427057" lon="18.184387584225377"><ele>46.0</ele><time>2026-04-04T14:18:19.996Z</time></trkpt><trkpt lat="40.359389189070185" lon="18.184516682758183"><ele>46.0</ele><time>2026-04-04T14:18:20.996Z</time></trkpt><trkpt lat="40.359456163358274" lon="18.1846423898552"><ele>46.0</ele><time>2026-04-04T14:18:21.996Z</time></trkpt><trkpt lat="40.35952051304159" lon="18.18476153915424"><ele>45.8</ele><time>2026-04-04T14:18:22.996Z</time></trkpt><trkpt lat="40.35958278086513" lon="18.184871336714114"><ele>45.599999999999994</ele><time>2026-04-04T14:18:23.996Z</time></trkpt><trkpt lat="40.35964592155955" lon="18.18497542666457"><ele>45.4</ele><time>2026-04-04T14:18:24.996Z</time></trkpt><trkpt lat="40.359706032452436" lon="18.18507717749594"><ele>45.2</ele><time>2026-04-04T14:18:25.996Z</time></trkpt><trkpt lat="40.35976328892728" lon="18.1851809098937"><ele>45.0</ele><time>2026-04-04T14:18:26.996Z</time></trkpt><trkpt lat="40.35982466512692" lon="18.18528938241935"><ele>45.0</ele><time>2026-04-04T14:18:27.996Z</time></trkpt><trkpt lat="40.35989200503604" lon="18.185400026149594"><ele>45.0</ele><time>2026-04-04T14:18:28.996Z</time></trkpt><trkpt lat="40.35996396708484" lon="18.185521022817024"><ele>45.0</ele><time>2026-04-04T14:18:29.996Z</time></trkpt><trkpt lat="40.36003508723271" lon="18.18564615534198"><ele>45.0</ele><time>2026-04-04T14:18:30.996Z</time></trkpt><trkpt lat="40.360102980368545" lon="18.185764822040685"><ele>45.25</ele><time>2026-04-04T14:18:31.996Z</time></trkpt><trkpt lat="40.360169583829105" lon="18.185885225265224"><ele>45.5</ele><time>2026-04-04T14:18:32.996Z</time></trkpt><trkpt lat="40.36023999342294" lon="18.186018025953103"><ele>45.75</ele><time>2026-04-04T14:18:33.996Z</time></trkpt><trkpt lat="40.360312288321346" lon="18.186160177950946"><ele>46.0</ele><time>2026-04-04T14:18:34.996Z</time></trkpt><trkpt lat="40.3603903557816" lon="18.18630625217987"><ele>46.0</ele><time>2026-04-04T14:18:35.996Z</time></trkpt><trkpt lat="40.360468898191435" lon="18.186455823060708"><ele>46.0</ele><time>2026-04-04T14:18:36.996Z</time></trkpt><trkpt lat="40.360547134726275" lon="18.186599337359432"><ele>46.0</ele><time>2026-04-04T14:18:37.996Z</time></trkpt><trkpt lat="40.36063453182176" lon="18.186751761367447"><ele>46.0</ele><time>2026-04-04T14:18:38.996Z</time></trkpt><trkpt lat="40.3607191165597" lon="18.186901725536874"><ele>46.0</ele><time>2026-04-04T14:18:39.996Z</time></trkpt><trkpt lat="40.36079996140026" lon="18.187048679708774"><ele>46.0</ele><time>2026-04-04T14:18:40.996Z</time></trkpt><trkpt lat="40.360883542239975" lon="18.187192667969427"><ele>46.0</ele><time>2026-04-04T14:18:41.996Z</time></trkpt><trkpt lat="40.360966547638746" lon="18.18733406535188"><ele>46.0</ele><time>2026-04-04T14:18:42.996Z</time></trkpt><trkpt lat="40.36104719993552" lon="18.187472830513133"><ele>46.0</ele><time>2026-04-04T14:18:43.996Z</time></trkpt><trkpt lat="40.36111962801772" lon="18.187605514518186"><ele>46.0</ele><time>2026-04-04T14:18:44.996Z</time></trkpt><trkpt lat="40.36118259302374" lon="18.187717386126224"><ele>46.0</ele><time>2026-04-04T14:18:45.996Z</time></trkpt><trkpt lat="40.36123797478874" lon="18.187819496799577"><ele>46.0</ele><time>2026-04-04T14:18:46.996Z</time></trkpt><trkpt lat="40.36128610817731" lon="18.187904859008103"><ele>46.0</ele><time>2026-04-04T14:18:47.996Z</time></trkpt><trkpt lat="40.36131812101153" lon="18.187979435751455"><ele>46.0</ele><time>2026-04-04T14:18:48.996Z</time></trkpt><trkpt lat="40.36135733588852" lon="18.18806850023215"><ele>46.0</ele><time>2026-04-04T14:18:50.996Z</time></trkpt><trkpt lat="40.36141389152563" lon="18.18817003796912"><ele>46.0</ele><time>2026-04-04T14:20:09.995Z</time></trkpt><trkpt lat="40.361463448583876" lon="18.18825770532044"><ele>46.0</ele><time>2026-04-04T14:20:10.995Z</time></trkpt><trkpt lat="40.36153490628906" lon="18.188358401095112"><ele>46.0</ele><time>2026-04-04T14:20:11.995Z</time></trkpt><trkpt lat="40.36162884077089" lon="18.188465141735616"><ele>45.75</ele><time>2026-04-04T14:20:12.995Z</time></trkpt><trkpt lat="40.3617190701943" lon="18.188598634913962"><ele>45.5</ele><time>2026-04-04T14:20:13.995Z</time></trkpt><trkpt lat="40.36181744408587" lon="18.18874366658221"><ele>45.25</ele><time>2026-04-04T14:20:14.995Z</time></trkpt><trkpt lat="40.361912321245576" lon="18.18888290664761"><ele>45.0</ele><time>2026-04-04T14:20:15.995Z</time></trkpt><trkpt lat="40.362005954290325" lon="18.18902525015729"><ele>44.75</ele><time>2026-04-04T14:20:16.995Z</time></trkpt><trkpt lat="40.36209968883159" lon="18.1891631579887"><ele>44.5</ele><time>2026-04-04T14:20:17.995Z</time></trkpt><trkpt lat="40.36219043116563" lon="18.189303262550446"><ele>44.25</ele><time>2026-04-04T14:20:18.995Z</time></trkpt><trkpt lat="40.36228161793679" lon="18.189445028407235"><ele>44.0</ele><time>2026-04-04T14:20:19.995Z</time></trkpt><trkpt lat="40.362381810945536" lon="18.18958039611039"><ele>43.75</ele><time>2026-04-04T14:20:20.995Z</time></trkpt><trkpt lat="40.3624812863478" lon="18.189723932384286"><ele>43.5</ele><time>2026-04-04T14:20:21.995Z</time></trkpt><trkpt lat="40.36257696824805" lon="18.18986014027937"><ele>43.25</ele><time>2026-04-04T14:20:22.995Z</time></trkpt><trkpt lat="40.36267505775173" lon="18.190005735628702"><ele>43.0</ele><time>2026-04-04T14:20:23.995Z</time></trkpt><trkpt lat="40.36278063266692" lon="18.190152600226156"><ele>42.333333333333336</ele><time>2026-04-04T14:20:24.995Z</time></trkpt><trkpt lat="40.36288101246643" lon="18.19030068054046"><ele>41.666666666666664</ele><time>2026-04-04T14:20:25.995Z</time></trkpt><trkpt lat="40.3629889496476" lon="18.190458693835925"><ele>41.0</ele><time>2026-04-04T14:20:26.995Z</time></trkpt><trkpt lat="40.36309551174525" lon="18.190609730378718"><ele>41.33333333333333</ele><time>2026-04-04T14:20:27.995Z</time></trkpt><trkpt lat="40.36320183961212" lon="18.190762357038437"><ele>41.666666666666664</ele><time>2026-04-04T14:20:28.995Z</time></trkpt><trkpt lat="40.36330206042515" lon="18.190914028768955"><ele>42.0</ele><time>2026-04-04T14:20:29.995Z</time></trkpt><trkpt lat="40.363396741832915" lon="18.19105392547336"><ele>42.0</ele><time>2026-04-04T14:20:30.995Z</time></trkpt><trkpt lat="40.36349122198364" lon="18.191193054289307"><ele>42.0</ele><time>2026-04-04T14:20:31.995Z</time></trkpt><trkpt lat="40.36358202455026" lon="18.191324212494937"><ele>42.0</ele><time>2026-04-04T14:20:32.995Z</time></trkpt><trkpt lat="40.36366964980747" lon="18.191451040079723"><ele>42.0</ele><time>2026-04-04T14:20:33.995Z</time></trkpt><trkpt lat="40.36375357281932" lon="18.191573886255423"><ele>41.8</ele><time>2026-04-04T14:20:34.995Z</time></trkpt><trkpt lat="40.36382745736604" lon="18.19168926348982"><ele>41.6</ele><time>2026-04-04T14:20:35.995Z</time></trkpt><trkpt lat="40.36389490533745" lon="18.19179561575956"><ele>41.4</ele><time>2026-04-04T14:20:36.995Z</time></trkpt><trkpt lat="40.36395816580619" lon="18.191889256324792"><ele>41.199999999999996</ele><time>2026-04-04T14:20:37.995Z</time></trkpt><trkpt lat="40.36400754784389" lon="18.191962427683276"><ele>41.0</ele><time>2026-04-04T14:20:38.995Z</time></trkpt><trkpt lat="40.36407315910187" lon="18.19205642659739"><ele>41.0</ele><time>2026-04-04T14:20:40.995Z</time></trkpt><trkpt lat="40.36412858937475" lon="18.192156511398156"><ele>41.0</ele><time>2026-04-04T14:21:22.995Z</time></trkpt><trkpt lat="40.36417404297421" lon="18.192228321071024"><ele>41.0</ele><time>2026-04-04T14:21:23.995Z</time></trkpt><trkpt lat="40.36423475150042" lon="18.192316466951503"><ele>41.0</ele><time>2026-04-04T14:21:24.995Z</time></trkpt><trkpt lat="40.364306914003784" lon="18.19242035782637"><ele>41.0</ele><time>2026-04-04T14:21:25.995Z</time></trkpt><trkpt lat="40.36437908896573" lon="18.19253023961234"><ele>41.0</ele><time>2026-04-04T14:21:26.995Z</time></trkpt><trkpt lat="40.36445811106673" lon="18.192653739390632"><ele>41.0</ele><time>2026-04-04T14:21:27.995Z</time></trkpt><trkpt lat="40.36454930559882" lon="18.192792439952818"><ele>41.0</ele><time>2026-04-04T14:21:28.995Z</time></trkpt><trkpt lat="40.36463911239674" lon="18.19295148629137"><ele>41.0</ele><time>2026-04-04T14:21:29.995Z</time></trkpt><trkpt lat="40.36474347672669" lon="18.193102795318595"><ele>40.33333333333333</ele><time>2026-04-04T14:21:30.995Z</time></trkpt><trkpt lat="40.36485336927949" lon="18.193253571157644"><ele>39.666666666666664</ele><time>2026-04-04T14:21:31.995Z</time></trkpt><trkpt lat="40.36494733214003" lon="18.193432130089917"><ele>39.0</ele><time>2026-04-04T14:21:32.995Z</time></trkpt><trkpt lat="40.36502566020735" lon="18.19362836109278"><ele>39.0</ele><time>2026-04-04T14:21:33.995Z</time></trkpt><trkpt lat="40.36510046269468" lon="18.193842115649677"><ele>39.0</ele><time>2026-04-04T14:21:34.995Z</time></trkpt><trkpt lat="40.36515449039882" lon="18.19406976290671"><ele>39.0</ele><time>2026-04-04T14:21:35.995Z</time></trkpt><trkpt lat="40.36519636172656" lon="18.19429583041424"><ele>38.666666666666664</ele><time>2026-04-04T14:21:36.995Z</time></trkpt><trkpt lat="40.3652279103409" lon="18.194526743868664"><ele>38.33333333333333</ele><time>2026-04-04T14:21:37.995Z</time></trkpt><trkpt lat="40.36526544594791" lon="18.194749923982187"><ele>38.0</ele><time>2026-04-04T14:21:38.995Z</time></trkpt><trkpt lat="40.365293411884224" lon="18.19497393802181"><ele>37.666666666666664</ele><time>2026-04-04T14:21:39.995Z</time></trkpt><trkpt lat="40.36536547180346" lon="18.19519383136688"><ele>37.333333333333336</ele><time>2026-04-04T14:21:40.995Z</time></trkpt><trkpt lat="40.365460190922455" lon="18.195388686903737"><ele>37.0</ele><time>2026-04-04T14:21:41.995Z</time></trkpt><trkpt lat="40.36550921194921" lon="18.19560389988093"><ele>38.0</ele><time>2026-04-04T14:21:42.995Z</time></trkpt><trkpt lat="40.3655307992583" lon="18.19585176199264"><ele>39.0</ele><time>2026-04-04T14:21:43.995Z</time></trkpt><trkpt lat="40.36555043675125" lon="18.19610533855274"><ele>40.0</ele><time>2026-04-04T14:21:44.995Z</time></trkpt><trkpt lat="40.36556609654485" lon="18.19636254661957"><ele>39.66666666666667</ele><time>2026-04-04T14:21:45.995Z</time></trkpt><trkpt lat="40.36557803394232" lon="18.19661702119127"><ele>39.333333333333336</ele><time>2026-04-04T14:21:46.995Z</time></trkpt><trkpt lat="40.36559559230291" lon="18.196871827378448"><ele>39.0</ele><time>2026-04-04T14:21:47.995Z</time></trkpt><trkpt lat="40.36561635467477" lon="18.19712556684304"><ele>38.666666666666664</ele><time>2026-04-04T14:21:48.995Z</time></trkpt><trkpt lat="40.36563186053586" lon="18.197375753219273"><ele>38.33333333333333</ele><time>2026-04-04T14:21:49.995Z</time></trkpt><trkpt lat="40.36563052224502" lon="18.197619233367043"><ele>38.0</ele><time>2026-04-04T14:21:50.995Z</time></trkpt><trkpt lat="40.36562495877944" lon="18.19786452147942"><ele>38.0</ele><time>2026-04-04T14:21:51.995Z</time></trkpt><trkpt lat="40.36563048790131" lon="18.198095551571026"><ele>38.0</ele><time>2026-04-04T14:21:52.995Z</time></trkpt><trkpt lat="40.365632204316356" lon="18.198311446760403"><ele>38.0</ele><time>2026-04-04T14:21:53.995Z</time></trkpt><trkpt lat="40.36563400415467" lon="18.198509878956656"><ele>38.0</ele><time>2026-04-04T14:21:54.995Z</time></trkpt><trkpt lat="40.36563482803533" lon="18.198712228836154"><ele>38.0</ele><time>2026-04-04T14:21:55.995Z</time></trkpt><trkpt lat="40.36564774814931" lon="18.198934189936388"><ele>38.0</ele><time>2026-04-04T14:21:56.995Z</time></trkpt><trkpt lat="40.36565922315297" lon="18.199119861357577"><ele>37.6</ele><time>2026-04-04T14:21:57.995Z</time></trkpt><trkpt lat="40.36567103543486" lon="18.19929312094838"><ele>37.199999999999996</ele><time>2026-04-04T14:21:58.995Z</time></trkpt><trkpt lat="40.365672644306144" lon="18.199433642585074"><ele>36.8</ele><time>2026-04-04T14:21:59.995Z</time></trkpt><trkpt lat="40.365655435098354" lon="18.19955928980483"><ele>36.4</ele><time>2026-04-04T14:22:00.995Z</time></trkpt><trkpt lat="40.36561640709391" lon="18.199692113707933"><ele>36.0</ele><time>2026-04-04T14:22:01.995Z</time></trkpt><trkpt lat="40.36561065986832" lon="18.199838552657088"><ele>36.0</ele><time>2026-04-04T14:22:02.995Z</time></trkpt><trkpt lat="40.36564052491503" lon="18.199995050663027"><ele>36.0</ele><time>2026-04-04T14:22:03.995Z</time></trkpt><trkpt lat="40.3656944705599" lon="18.200169460946444"><ele>36.0</ele><time>2026-04-04T14:22:04.995Z</time></trkpt><trkpt lat="40.36572466599424" lon="18.200370377102754"><ele>36.0</ele><time>2026-04-04T14:22:05.995Z</time></trkpt><trkpt lat="40.36573156188595" lon="18.20059923030227"><ele>36.0</ele><time>2026-04-04T14:22:06.995Z</time></trkpt><trkpt lat="40.36573344466762" lon="18.200848525915603"><ele>36.0</ele><time>2026-04-04T14:22:07.995Z</time></trkpt><trkpt lat="40.36574041574043" lon="18.20110146821768"><ele>36.0</ele><time>2026-04-04T14:22:08.995Z</time></trkpt><trkpt lat="40.36575197885739" lon="18.20135148318547"><ele>36.666666666666664</ele><time>2026-04-04T14:22:09.995Z</time></trkpt><trkpt lat="40.365771037937535" lon="18.201571340962882"><ele>37.33333333333333</ele><time>2026-04-04T14:22:10.995Z</time></trkpt><trkpt lat="40.36579496250816" lon="18.201784713114336"><ele>38.0</ele><time>2026-04-04T14:22:11.995Z</time></trkpt><trkpt lat="40.36581513628185" lon="18.201984319816287"><ele>38.0</ele><time>2026-04-04T14:22:12.995Z</time></trkpt><trkpt lat="40.36583781412834" lon="18.202167736242476"><ele>38.0</ele><time>2026-04-04T14:22:13.995Z</time></trkpt><trkpt lat="40.365867015992" lon="18.202341183301353"><ele>38.0</ele><time>2026-04-04T14:22:14.995Z</time></trkpt><trkpt lat="40.36589860008306" lon="18.202520011672387"><ele>38.0</ele><time>2026-04-04T14:22:15.995Z</time></trkpt><trkpt lat="40.365902995277246" lon="18.202714087837855"><ele>38.666666666666664</ele><time>2026-04-04T14:22:16.995Z</time></trkpt><trkpt lat="40.36593126457141" lon="18.202914856058477"><ele>39.333333333333336</ele><time>2026-04-04T14:22:17.995Z</time></trkpt><trkpt lat="40.36593742272759" lon="18.203122852038796"><ele>40.0</ele><time>2026-04-04T14:22:18.995Z</time></trkpt><trkpt lat="40.36591349505541" lon="18.20333884279734"><ele>38.66666666666667</ele><time>2026-04-04T14:22:19.995Z</time></trkpt><trkpt lat="40.365907354585595" lon="18.203555026989417"><ele>37.333333333333336</ele><time>2026-04-04T14:22:20.995Z</time></trkpt><trkpt lat="40.3659107568054" lon="18.20378148597562"><ele>36.0</ele><time>2026-04-04T14:22:21.995Z</time></trkpt><trkpt lat="40.36591188491348" lon="18.20398605605073"><ele>35.75</ele><time>2026-04-04T14:22:22.995Z</time></trkpt><trkpt lat="40.3659294216265" lon="18.204192778845158"><ele>35.5</ele><time>2026-04-04T14:22:23.995Z</time></trkpt><trkpt lat="40.36590893397417" lon="18.20437699370704"><ele>35.25</ele><time>2026-04-04T14:22:24.995Z</time></trkpt><trkpt lat="40.365917388933426" lon="18.204545250082155"><ele>35.0</ele><time>2026-04-04T14:22:25.994Z</time></trkpt><trkpt lat="40.3659199156963" lon="18.204722243313736"><ele>34.75</ele><time>2026-04-04T14:22:26.994Z</time></trkpt><trkpt lat="40.36592809599569" lon="18.204900965248566"><ele>34.5</ele><time>2026-04-04T14:22:27.994Z</time></trkpt><trkpt lat="40.36594255827189" lon="18.20506987374185"><ele>34.25</ele><time>2026-04-04T14:22:28.994Z</time></trkpt><trkpt lat="40.365958877077084" lon="18.205228591297306"><ele>34.0</ele><time>2026-04-04T14:22:29.994Z</time></trkpt><trkpt lat="40.365978175380285" lon="18.205377661950877"><ele>34.0</ele><time>2026-04-04T14:22:30.994Z</time></trkpt><trkpt lat="40.36599426757031" lon="18.205518295324968"><ele>34.0</ele><time>2026-04-04T14:22:31.994Z</time></trkpt><trkpt lat="40.366009728446095" lon="18.205646135422317"><ele>34.0</ele><time>2026-04-04T14:22:32.994Z</time></trkpt><trkpt lat="40.36602594891098" lon="18.20575561658911"><ele>34.0</ele><time>2026-04-04T14:22:33.994Z</time></trkpt><trkpt lat="40.36603713171801" lon="18.205850580917794"><ele>34.0</ele><time>2026-04-04T14:22:34.994Z</time></trkpt><trkpt lat="40.366059436665694" lon="18.205987436429904"><ele>33.8</ele><time>2026-04-04T14:22:36.994Z</time></trkpt><trkpt lat="40.36606966549198" lon="18.20607214444037"><ele>33.599999999999994</ele><time>2026-04-04T14:22:38.994Z</time></trkpt><trkpt lat="40.36606918354745" lon="18.20620089144578"><ele>33.4</ele><time>2026-04-04T14:23:10.994Z</time></trkpt><trkpt lat="40.36607551985275" lon="18.20629944469039"><ele>33.199999999999996</ele><time>2026-04-04T14:23:11.994Z</time></trkpt><trkpt lat="40.36609891571237" lon="18.20642835880269"><ele>33.0</ele><time>2026-04-04T14:23:12.994Z</time></trkpt><trkpt lat="40.36614054558217" lon="18.20657976664673"><ele>33.666666666666664</ele><time>2026-04-04T14:23:13.994Z</time></trkpt><trkpt lat="40.36618633252176" lon="18.206779916939176"><ele>34.33333333333333</ele><time>2026-04-04T14:23:14.994Z</time></trkpt><trkpt lat="40.36624010947984" lon="18.207000181180586"><ele>35.0</ele><time>2026-04-04T14:23:15.994Z</time></trkpt><trkpt lat="40.36630074080139" lon="18.20726080379667"><ele>35.0</ele><time>2026-04-04T14:23:16.994Z</time></trkpt><trkpt lat="40.366369190791595" lon="18.2075256011422"><ele>35.0</ele><time>2026-04-04T14:23:17.994Z</time></trkpt><trkpt lat="40.36644596493399" lon="18.20780011457155"><ele>35.0</ele><time>2026-04-04T14:23:18.994Z</time></trkpt><trkpt lat="40.36652004682002" lon="18.208072794039357"><ele>34.33333333333333</ele><time>2026-04-04T14:23:19.994Z</time></trkpt><trkpt lat="40.36658855459659" lon="18.208324233138818"><ele>33.666666666666664</ele><time>2026-04-04T14:23:20.994Z</time></trkpt><trkpt lat="40.366644331401965" lon="18.208572005679986"><ele>33.0</ele><time>2026-04-04T14:23:21.994Z</time></trkpt><trkpt lat="40.3666997444966" lon="18.20882593996548"><ele>33.666666666666664</ele><time>2026-04-04T14:23:22.994Z</time></trkpt><trkpt lat="40.3667229392785" lon="18.209093989543728"><ele>34.33333333333333</ele><time>2026-04-04T14:23:23.994Z</time></trkpt><trkpt lat="40.366727202241144" lon="18.20935282011254"><ele>35.0</ele><time>2026-04-04T14:23:24.994Z</time></trkpt><trkpt lat="40.36671860164552" lon="18.209616096053868"><ele>35.33333333333333</ele><time>2026-04-04T14:23:25.994Z</time></trkpt><trkpt lat="40.36669451561111" lon="18.209883207443408"><ele>35.666666666666664</ele><time>2026-04-04T14:23:26.994Z</time></trkpt><trkpt lat="40.366662552432466" lon="18.210133609163044"><ele>36.0</ele><time>2026-04-04T14:23:27.994Z</time></trkpt><trkpt lat="40.36661430840553" lon="18.210366049365454"><ele>36.0</ele><time>2026-04-04T14:23:28.994Z</time></trkpt><trkpt lat="40.366558454419334" lon="18.21058331528276"><ele>36.0</ele><time>2026-04-04T14:23:29.994Z</time></trkpt><trkpt lat="40.36649828340686" lon="18.210780560050843"><ele>36.0</ele><time>2026-04-04T14:23:30.994Z</time></trkpt><trkpt lat="40.366430206442445" lon="18.210961446244717"><ele>36.0</ele><time>2026-04-04T14:23:31.994Z</time></trkpt><trkpt lat="40.366349733313996" lon="18.211123594264574"><ele>36.0</ele><time>2026-04-04T14:23:32.994Z</time></trkpt><trkpt lat="40.366263581751326" lon="18.21127111126439"><ele>36.0</ele><time>2026-04-04T14:23:33.994Z</time></trkpt><trkpt lat="40.36617104609291" lon="18.211395083827504"><ele>36.0</ele><time>2026-04-04T14:23:34.994Z</time></trkpt><trkpt lat="40.36606729619696" lon="18.211497130163163"><ele>36.0</ele><time>2026-04-04T14:23:35.994Z</time></trkpt><trkpt lat="40.36596552799735" lon="18.211588848587766"><ele>36.0</ele><time>2026-04-04T14:23:36.994Z</time></trkpt><trkpt lat="40.36585571771647" lon="18.211671578005685"><ele>36.0</ele><time>2026-04-04T14:23:37.994Z</time></trkpt><trkpt lat="40.36573398800756" lon="18.211756089871198"><ele>36.0</ele><time>2026-04-04T14:23:38.994Z</time></trkpt><trkpt lat="40.36560232706071" lon="18.2118218771265"><ele>35.75</ele><time>2026-04-04T14:23:39.994Z</time></trkpt><trkpt lat="40.36546341995313" lon="18.211863287479698"><ele>35.5</ele><time>2026-04-04T14:23:40.994Z</time></trkpt><trkpt lat="40.365325384961345" lon="18.211886637200084"><ele>35.25</ele><time>2026-04-04T14:23:41.994Z</time></trkpt><trkpt lat="40.36519275305116" lon="18.21189752390708"><ele>35.0</ele><time>2026-04-04T14:23:42.994Z</time></trkpt><trkpt lat="40.36506203696953" lon="18.211897358035536"><ele>35.0</ele><time>2026-04-04T14:23:43.994Z</time></trkpt><trkpt lat="40.364946167385995" lon="18.21188506580567"><ele>35.0</ele><time>2026-04-04T14:23:44.994Z</time></trkpt><trkpt lat="40.36484357380736" lon="18.2118516003223"><ele>35.0</ele><time>2026-04-04T14:23:45.994Z</time></trkpt><trkpt lat="40.36475306217736" lon="18.21179114893135"><ele>35.0</ele><time>2026-04-04T14:23:46.994Z</time></trkpt><trkpt lat="40.36467584166482" lon="18.21171545003518"><ele>35.0</ele><time>2026-04-04T14:23:47.994Z</time></trkpt><trkpt lat="40.364616830598976" lon="18.21162044296736"><ele>34.8</ele><time>2026-04-04T14:23:48.994Z</time></trkpt><trkpt lat="40.364569719019904" lon="18.211527404287775"><ele>34.6</ele><time>2026-04-04T14:23:49.994Z</time></trkpt><trkpt lat="40.364515416346315" lon="18.21143769418194"><ele>34.4</ele><time>2026-04-04T14:23:50.994Z</time></trkpt><trkpt lat="40.364469285462484" lon="18.211333636419738"><ele>34.2</ele><time>2026-04-04T14:23:51.994Z</time></trkpt><trkpt lat="40.364424862570175" lon="18.211201805710594"><ele>34.0</ele><time>2026-04-04T14:23:52.994Z</time></trkpt><trkpt lat="40.364377329435996" lon="18.211045777848145"><ele>34.0</ele><time>2026-04-04T14:23:53.994Z</time></trkpt><trkpt lat="40.36433178963874" lon="18.210894245169808"><ele>34.0</ele><time>2026-04-04T14:23:54.994Z</time></trkpt><trkpt lat="40.364284505184806" lon="18.210740275013073"><ele>34.0</ele><time>2026-04-04T14:23:55.994Z</time></trkpt><trkpt lat="40.36423670006505" lon="18.21057016116683"><ele>34.0</ele><time>2026-04-04T14:23:56.994Z</time></trkpt><trkpt lat="40.36418454314332" lon="18.21038918753929"><ele>34.66666666666667</ele><time>2026-04-04T14:23:57.994Z</time></trkpt><trkpt lat="40.36413913370368" lon="18.210186763263625"><ele>35.333333333333336</ele><time>2026-04-04T14:23:58.994Z</time></trkpt><trkpt lat="40.36408754463045" lon="18.20997530413773"><ele>36.0</ele><time>2026-04-04T14:23:59.994Z</time></trkpt><trkpt lat="40.36403787478328" lon="18.20972489775745"><ele>36.0</ele><time>2026-04-04T14:24:00.994Z</time></trkpt><trkpt lat="40.36397143010505" lon="18.209438448760356"><ele>36.0</ele><time>2026-04-04T14:24:01.994Z</time></trkpt><trkpt lat="40.36389824891632" lon="18.209165074194164"><ele>36.0</ele><time>2026-04-04T14:24:02.994Z</time></trkpt><trkpt lat="40.36382616330674" lon="18.208911792163427"><ele>35.0</ele><time>2026-04-04T14:24:03.994Z</time></trkpt><trkpt lat="40.36377356706251" lon="18.208686536859865"><ele>34.0</ele><time>2026-04-04T14:24:04.994Z</time></trkpt><trkpt lat="40.363719569447014" lon="18.20848295027635"><ele>33.0</ele><time>2026-04-04T14:24:05.994Z</time></trkpt><trkpt lat="40.36367380940831" lon="18.208286260568407"><ele>33.0</ele><time>2026-04-04T14:24:06.994Z</time></trkpt><trkpt lat="40.36359347327539" lon="18.208144415256267"><ele>33.0</ele><time>2026-04-04T14:24:07.994Z</time></trkpt><trkpt lat="40.36349831090719" lon="18.207971316791475"><ele>33.0</ele><time>2026-04-04T14:24:08.994Z</time></trkpt><trkpt lat="40.36342567237826" lon="18.207766625588526"><ele>33.0</ele><time>2026-04-04T14:24:09.994Z</time></trkpt><trkpt lat="40.36335568801184" lon="18.207551265031206"><ele>33.0</ele><time>2026-04-04T14:24:10.994Z</time></trkpt><trkpt lat="40.363287628335144" lon="18.207332141576966"><ele>33.0</ele><time>2026-04-04T14:24:11.994Z</time></trkpt><trkpt lat="40.363234893840705" lon="18.20711213497988"><ele>33.0</ele><time>2026-04-04T14:24:12.994Z</time></trkpt><trkpt lat="40.36316734027736" lon="18.206900002380483"><ele>33.0</ele><time>2026-04-04T14:24:13.994Z</time></trkpt><trkpt lat="40.36308581846897" lon="18.20668741566539"><ele>33.0</ele><time>2026-04-04T14:24:14.994Z</time></trkpt><trkpt lat="40.363022429779456" lon="18.206489157695156"><ele>34.333333333333336</ele><time>2026-04-04T14:24:15.994Z</time></trkpt><trkpt lat="40.36293851556848" lon="18.206297421723338"><ele>35.66666666666667</ele><time>2026-04-04T14:24:16.994Z</time></trkpt><trkpt lat="40.36287546940078" lon="18.206131002941586"><ele>37.0</ele><time>2026-04-04T14:24:17.994Z</time></trkpt><trkpt lat="40.36283908721294" lon="18.2059505399668"><ele>37.0</ele><time>2026-04-04T14:24:18.994Z</time></trkpt><trkpt lat="40.362802793780446" lon="18.205791964396216"><ele>37.0</ele><time>2026-04-04T14:24:19.994Z</time></trkpt><trkpt lat="40.36278186576403" lon="18.205627749331086"><ele>37.0</ele><time>2026-04-04T14:24:20.994Z</time></trkpt><trkpt lat="40.362760298080055" lon="18.20549516897021"><ele>37.0</ele><time>2026-04-04T14:24:21.994Z</time></trkpt><trkpt lat="40.362749578772636" lon="18.205379950215306"><ele>37.0</ele><time>2026-04-04T14:24:22.994Z</time></trkpt><trkpt lat="40.36275031479159" lon="18.205265835463933"><ele>36.5</ele><time>2026-04-04T14:24:23.994Z</time></trkpt><trkpt lat="40.362753329635474" lon="18.205153409810936"><ele>36.0</ele><time>2026-04-04T14:24:24.994Z</time></trkpt><trkpt lat="40.36274991048053" lon="18.205049586346327"><ele>35.5</ele><time>2026-04-04T14:24:25.994Z</time></trkpt><trkpt lat="40.36268340331351" lon="18.204932655422404"><ele>35.0</ele><time>2026-04-04T14:24:27.994Z</time></trkpt><trkpt lat="40.36262174537969" lon="18.20489392165258"><ele>34.5</ele><time>2026-04-04T14:24:28.994Z</time></trkpt><trkpt lat="40.362537927490436" lon="18.204913908535595"><ele>34.0</ele><time>2026-04-04T14:24:30.994Z</time></trkpt><trkpt lat="40.36246327250489" lon="18.20502206809624"><ele>34.0</ele><time>2026-04-04T14:24:32.994Z</time></trkpt><trkpt lat="40.36247688763473" lon="18.20518006520546"><ele>34.0</ele><time>2026-04-04T14:24:34.994Z</time></trkpt><trkpt lat="40.36252620332469" lon="18.20526362583063"><ele>34.0</ele><time>2026-04-04T14:24:35.994Z</time></trkpt><trkpt lat="40.36260406601673" lon="18.205365994647355"><ele>34.0</ele><time>2026-04-04T14:24:36.994Z</time></trkpt><trkpt lat="40.36269794381967" lon="18.205515911010302"><ele>35.0</ele><time>2026-04-04T14:24:37.994Z</time></trkpt><trkpt lat="40.36277465752247" lon="18.205726499154217"><ele>36.0</ele><time>2026-04-04T14:24:38.994Z</time></trkpt><trkpt lat="40.362835849480554" lon="18.205959081754184"><ele>37.0</ele><time>2026-04-04T14:24:39.994Z</time></trkpt><trkpt lat="40.36289037486821" lon="18.20619728959756"><ele>37.0</ele><time>2026-04-04T14:24:40.994Z</time></trkpt><trkpt lat="40.362939223246954" lon="18.20642533735614"><ele>37.0</ele><time>2026-04-04T14:24:41.994Z</time></trkpt><trkpt lat="40.362987402123935" lon="18.20664130591135"><ele>37.0</ele><time>2026-04-04T14:24:42.994Z</time></trkpt><trkpt lat="40.3630501596348" lon="18.206864499230566"><ele>35.66666666666667</ele><time>2026-04-04T14:24:43.994Z</time></trkpt><trkpt lat="40.363115608048204" lon="18.20710499085656"><ele>34.333333333333336</ele><time>2026-04-04T14:24:44.994Z</time></trkpt><trkpt lat="40.363180667463396" lon="18.20735652355456"><ele>33.0</ele><time>2026-04-04T14:24:45.994Z</time></trkpt><trkpt lat="40.363250181582266" lon="18.207611294626417"><ele>33.0</ele><time>2026-04-04T14:24:46.994Z</time></trkpt><trkpt lat="40.363322526465254" lon="18.20785799279274"><ele>33.0</ele><time>2026-04-04T14:24:47.994Z</time></trkpt><trkpt lat="40.36339667572055" lon="18.20810857815073"><ele>33.0</ele><time>2026-04-04T14:24:48.994Z</time></trkpt><trkpt lat="40.3634624745036" lon="18.208351892401602"><ele>33.0</ele><time>2026-04-04T14:24:49.994Z</time></trkpt><trkpt lat="40.363529674456935" lon="18.208597051239554"><ele>33.0</ele><time>2026-04-04T14:24:50.994Z</time></trkpt><trkpt lat="40.36359367736536" lon="18.208828148500853"><ele>33.0</ele><time>2026-04-04T14:24:51.994Z</time></trkpt><trkpt lat="40.3636568348725" lon="18.209040038056564"><ele>33.0</ele><time>2026-04-04T14:24:52.994Z</time></trkpt><trkpt lat="40.36371762140348" lon="18.209241407358714"><ele>33.0</ele><time>2026-04-04T14:24:53.994Z</time></trkpt><trkpt lat="40.36378323300827" lon="18.209451802368953"><ele>33.0</ele><time>2026-04-04T14:24:54.994Z</time></trkpt><trkpt lat="40.363853236482974" lon="18.209666718661733"><ele>34.0</ele><time>2026-04-04T14:24:55.994Z</time></trkpt><trkpt lat="40.36392356451209" lon="18.209886790465326"><ele>35.0</ele><time>2026-04-04T14:24:56.994Z</time></trkpt><trkpt lat="40.36399792940774" lon="18.210114360228005"><ele>36.0</ele><time>2026-04-04T14:24:57.994Z</time></trkpt><trkpt lat="40.364070726592665" lon="18.210359027267412"><ele>36.0</ele><time>2026-04-04T14:24:58.994Z</time></trkpt><trkpt lat="40.364158659049615" lon="18.210586781999798"><ele>36.0</ele><time>2026-04-04T14:24:59.994Z</time></trkpt><trkpt lat="40.36424942771407" lon="18.210800766011673"><ele>36.0</ele><time>2026-04-04T14:25:00.994Z</time></trkpt><trkpt lat="40.36435394453928" lon="18.210998456356343"><ele>35.333333333333336</ele><time>2026-04-04T14:25:01.993Z</time></trkpt><trkpt lat="40.36443505293275" lon="18.211211780529144"><ele>34.66666666666667</ele><time>2026-04-04T14:25:02.993Z</time></trkpt><trkpt lat="40.36452101805279" lon="18.21143888280621"><ele>34.0</ele><time>2026-04-04T14:25:03.993Z</time></trkpt><trkpt lat="40.364620082645764" lon="18.211680675908"><ele>34.5</ele><time>2026-04-04T14:25:04.993Z</time></trkpt><trkpt lat="40.36470696385754" lon="18.211953681708472"><ele>35.0</ele><time>2026-04-04T14:25:05.993Z</time></trkpt><trkpt lat="40.36478096773585" lon="18.212238094110667"><ele>35.33333333333333</ele><time>2026-04-04T14:25:06.993Z</time></trkpt><trkpt lat="40.36485202741935" lon="18.212508288343933"><ele>35.666666666666664</ele><time>2026-04-04T14:25:07.993Z</time></trkpt><trkpt lat="40.364915800521835" lon="18.212775172156423"><ele>36.0</ele><time>2026-04-04T14:25:08.993Z</time></trkpt><trkpt lat="40.364996926415884" lon="18.213009350991623"><ele>35.666666666666664</ele><time>2026-04-04T14:25:09.993Z</time></trkpt><trkpt lat="40.365037227535936" lon="18.213280142615897"><ele>35.33333333333333</ele><time>2026-04-04T14:25:10.993Z</time></trkpt><trkpt lat="40.36505464251818" lon="18.21356542309995"><ele>35.0</ele><time>2026-04-04T14:25:11.993Z</time></trkpt><trkpt lat="40.365094125850106" lon="18.213842212191125"><ele>35.0</ele><time>2026-04-04T14:25:12.993Z</time></trkpt><trkpt lat="40.36514783136146" lon="18.214107826129688"><ele>35.0</ele><time>2026-04-04T14:25:13.993Z</time></trkpt><trkpt lat="40.36521190060204" lon="18.214362796570704"><ele>35.0</ele><time>2026-04-04T14:25:14.993Z</time></trkpt><trkpt lat="40.36528104574587" lon="18.21461521959008"><ele>35.0</ele><time>2026-04-04T14:25:15.993Z</time></trkpt><trkpt lat="40.36534692060122" lon="18.2148733590774"><ele>35.0</ele><time>2026-04-04T14:25:16.993Z</time></trkpt><trkpt lat="40.36540795540387" lon="18.215111414027763"><ele>35.0</ele><time>2026-04-04T14:25:17.993Z</time></trkpt><trkpt lat="40.365471519026705" lon="18.21532313346113"><ele>34.666666666666664</ele><time>2026-04-04T14:25:18.993Z</time></trkpt><trkpt lat="40.36553291222482" lon="18.215523433559746"><ele>34.333333333333336</ele><time>2026-04-04T14:25:19.993Z</time></trkpt><trkpt lat="40.36559519333963" lon="18.215729731125496"><ele>34.0</ele><time>2026-04-04T14:25:20.993Z</time></trkpt><trkpt lat="40.36565775449684" lon="18.215948081138897"><ele>33.66666666666667</ele><time>2026-04-04T14:25:21.993Z</time></trkpt><trkpt lat="40.36571566383572" lon="18.216169301618034"><ele>33.333333333333336</ele><time>2026-04-04T14:25:22.993Z</time></trkpt><trkpt lat="40.36576229932519" lon="18.216370589972293"><ele>33.0</ele><time>2026-04-04T14:25:23.993Z</time></trkpt><trkpt lat="40.36580114227787" lon="18.21654432812867"><ele>33.0</ele><time>2026-04-04T14:25:24.993Z</time></trkpt><trkpt lat="40.36582624532979" lon="18.21670109228949"><ele>33.0</ele><time>2026-04-04T14:25:25.993Z</time></trkpt><trkpt lat="40.36583409960762" lon="18.216830695322198"><ele>33.0</ele><time>2026-04-04T14:25:26.993Z</time></trkpt><trkpt lat="40.36582173631524" lon="18.216942792000662"><ele>33.0</ele><time>2026-04-04T14:25:27.993Z</time></trkpt><trkpt lat="40.36579714449375" lon="18.217054707722607"><ele>33.0</ele><time>2026-04-04T14:25:28.993Z</time></trkpt><trkpt lat="40.365760748540474" lon="18.217177365683657"><ele>33.0</ele><time>2026-04-04T14:25:29.993Z</time></trkpt><trkpt lat="40.36572810907761" lon="18.217281449683014"><ele>33.0</ele><time>2026-04-04T14:25:30.993Z</time></trkpt><trkpt lat="40.36571266659376" lon="18.217380024746756"><ele>33.0</ele><time>2026-04-04T14:25:31.993Z</time></trkpt><trkpt lat="40.36572820035246" lon="18.217466886605845"><ele>33.0</ele><time>2026-04-04T14:25:32.993Z</time></trkpt><trkpt lat="40.365760732016575" lon="18.217542408731603"><ele>33.0</ele><time>2026-04-04T14:25:33.993Z</time></trkpt><trkpt lat="40.36582168471942" lon="18.217606274227204"><ele>33.0</ele><time>2026-04-04T14:25:34.993Z</time></trkpt><trkpt lat="40.36591053156488" lon="18.217668447663073"><ele>33.0</ele><time>2026-04-04T14:25:35.993Z</time></trkpt><trkpt lat="40.366009055419305" lon="18.217741485947055"><ele>33.0</ele><time>2026-04-04T14:25:36.993Z</time></trkpt><trkpt lat="40.36609976251553" lon="18.217837015777263"><ele>33.0</ele><time>2026-04-04T14:25:37.993Z</time></trkpt><trkpt lat="40.36617857924904" lon="18.217952940446054"><ele>33.0</ele><time>2026-04-04T14:25:38.993Z</time></trkpt><trkpt lat="40.366248760564325" lon="18.218113793592668"><ele>33.25</ele><time>2026-04-04T14:25:39.993Z</time></trkpt><trkpt lat="40.36630202008296" lon="18.218281046699474"><ele>33.5</ele><time>2026-04-04T14:25:40.993Z</time></trkpt><trkpt lat="40.36634923794809" lon="18.218450214483127"><ele>33.75</ele><time>2026-04-04T14:25:41.993Z</time></trkpt><trkpt lat="40.36639357002818" lon="18.218595275280535"><ele>34.0</ele><time>2026-04-04T14:25:42.993Z</time></trkpt><trkpt lat="40.366437817930965" lon="18.21872186981186"><ele>34.0</ele><time>2026-04-04T14:25:43.993Z</time></trkpt><trkpt lat="40.36647523973182" lon="18.218846341206024"><ele>34.0</ele><time>2026-04-04T14:25:44.993Z</time></trkpt><trkpt lat="40.36651300756948" lon="18.21896941378637"><ele>34.0</ele><time>2026-04-04T14:25:45.993Z</time></trkpt><trkpt lat="40.3665500330862" lon="18.21907141812167"><ele>34.0</ele><time>2026-04-04T14:25:46.993Z</time></trkpt><trkpt lat="40.36658679913743" lon="18.219152673878085"><ele>34.0</ele><time>2026-04-04T14:25:47.993Z</time></trkpt><trkpt lat="40.36661464622465" lon="18.2192344304843"><ele>34.0</ele><time>2026-04-04T14:25:48.993Z</time></trkpt><trkpt lat="40.36662950927416" lon="18.219350774725715"><ele>33.99999999999999</ele><time>2026-04-04T14:25:49.993Z</time></trkpt><trkpt lat="40.36664143094359" lon="18.219438990489625"><ele>34.0</ele><time>2026-04-04T14:25:50.993Z</time></trkpt><trkpt lat="40.36665562837207" lon="18.2195521097714"><ele>34.0</ele><time>2026-04-04T14:25:52.993Z</time></trkpt><trkpt lat="40.36666867207696" lon="18.219635144858252"><ele>34.0</ele><time>2026-04-04T14:25:55.993Z</time></trkpt><trkpt lat="40.3665992516607" lon="18.219684322609798"><ele>34.0</ele><time>2026-04-04T14:26:00.993Z</time></trkpt><trkpt lat="40.36653302777121" lon="18.219741286200584"><ele>33.99999999999999</ele><time>2026-04-04T14:26:02.993Z</time></trkpt><trkpt lat="40.36646727100463" lon="18.2197590235663"><ele>34.0</ele><time>2026-04-04T14:26:03.993Z</time></trkpt><trkpt lat="40.36639764310561" lon="18.219834480416104"><ele>34.0</ele><time>2026-04-04T14:26:05.993Z</time></trkpt><trkpt lat="40.36646627725421" lon="18.21983720508793"><ele>34.0</ele><time>2026-04-04T14:26:13.993Z</time></trkpt><trkpt lat="40.36655142640401" lon="18.219807390958774"><ele>34.0</ele><time>2026-04-04T14:26:15.993Z</time></trkpt><trkpt lat="40.36661480306855" lon="18.219913472774376"><ele>34.0</ele><time>2026-04-04T14:26:21.993Z</time></trkpt><trkpt lat="40.36662149277049" lon="18.220018282304157"><ele>34.0</ele><time>2026-04-04T14:26:22.993Z</time></trkpt><trkpt lat="40.36663730702737" lon="18.220127865756695"><ele>34.0</ele><time>2026-04-04T14:26:23.993Z</time></trkpt><trkpt lat="40.36671021956868" lon="18.220219263671574"><ele>34.0</ele><time>2026-04-04T14:26:24.993Z</time></trkpt><trkpt lat="40.36679246253779" lon="18.220341437754747"><ele>34.0</ele><time>2026-04-04T14:26:25.993Z</time></trkpt><trkpt lat="40.366909772608885" lon="18.2204841029618"><ele>34.0</ele><time>2026-04-04T14:26:26.993Z</time></trkpt><trkpt lat="40.36696936541558" lon="18.220655118568153"><ele>34.0</ele><time>2026-04-04T14:26:27.993Z</time></trkpt><trkpt lat="40.36702511174488" lon="18.220847244862032"><ele>34.0</ele><time>2026-04-04T14:26:28.993Z</time></trkpt><trkpt lat="40.36708574215751" lon="18.221048802098007"><ele>34.0</ele><time>2026-04-04T14:26:29.993Z</time></trkpt><trkpt lat="40.36715459415929" lon="18.221270026234027"><ele>34.0</ele><time>2026-04-04T14:26:30.993Z</time></trkpt><trkpt lat="40.3672235553407" lon="18.221523796207883"><ele>34.0</ele><time>2026-04-04T14:26:31.993Z</time></trkpt><trkpt lat="40.367293687006324" lon="18.22179447056081"><ele>34.0</ele><time>2026-04-04T14:26:32.993Z</time></trkpt><trkpt lat="40.36736918313459" lon="18.222069596212044"><ele>34.0</ele><time>2026-04-04T14:26:33.993Z</time></trkpt><trkpt lat="40.36744560886412" lon="18.22235975216701"><ele>33.5</ele><time>2026-04-04T14:26:34.993Z</time></trkpt><trkpt lat="40.36752238065" lon="18.222654246476214"><ele>33.0</ele><time>2026-04-04T14:26:35.993Z</time></trkpt><trkpt lat="40.3676073263293" lon="18.222959157267145"><ele>32.5</ele><time>2026-04-04T14:26:36.993Z</time></trkpt><trkpt lat="40.36769373881966" lon="18.223270154743233"><ele>32.0</ele><time>2026-04-04T14:26:37.993Z</time></trkpt><trkpt lat="40.36778690980238" lon="18.223604750821625"><ele>32.0</ele><time>2026-04-04T14:26:38.993Z</time></trkpt><trkpt lat="40.367883580670934" lon="18.22394776284625"><ele>32.0</ele><time>2026-04-04T14:26:39.993Z</time></trkpt><trkpt lat="40.36799786596632" lon="18.224318463950855"><ele>32.5</ele><time>2026-04-04T14:26:40.993Z</time></trkpt><trkpt lat="40.36812057536108" lon="18.224705128831893"><ele>33.0</ele><time>2026-04-04T14:26:41.993Z</time></trkpt><trkpt lat="40.36824446193146" lon="18.2251108345912"><ele>32.333333333333336</ele><time>2026-04-04T14:26:42.993Z</time></trkpt><trkpt lat="40.368268017809484" lon="18.225254383668076"><ele>31.666666666666668</ele><time>2026-04-04T14:26:43.993Z</time></trkpt><trkpt lat="40.368367751893246" lon="18.225601023798955"><ele>31.0</ele><time>2026-04-04T14:26:44.993Z</time></trkpt><trkpt lat="40.36846922167806" lon="18.225953299378943"><ele>30.5</ele><time>2026-04-04T14:26:45.993Z</time></trkpt><trkpt lat="40.368571751545346" lon="18.22631177878267"><ele>30.0</ele><time>2026-04-04T14:26:46.993Z</time></trkpt><trkpt lat="40.36866837603971" lon="18.226673207818767"><ele>30.0</ele><time>2026-04-04T14:26:47.993Z</time></trkpt><trkpt lat="40.36877171860155" lon="18.227030320012382"><ele>30.0</ele><time>2026-04-04T14:26:48.993Z</time></trkpt><trkpt lat="40.36887822203936" lon="18.227395145738136"><ele>30.5</ele><time>2026-04-04T14:26:49.993Z</time></trkpt><trkpt lat="40.368984652724976" lon="18.22776976852959"><ele>31.0</ele><time>2026-04-04T14:26:50.993Z</time></trkpt><trkpt lat="40.369085516840975" lon="18.228150752375726"><ele>31.5</ele><time>2026-04-04T14:26:51.993Z</time></trkpt><trkpt lat="40.36919162604056" lon="18.22852987045792"><ele>32.0</ele><time>2026-04-04T14:26:52.993Z</time></trkpt><trkpt lat="40.36929668064128" lon="18.22891981190562"><ele>32.0</ele><time>2026-04-04T14:26:53.993Z</time></trkpt><trkpt lat="40.36940611676579" lon="18.229313850330918"><ele>32.0</ele><time>2026-04-04T14:26:54.993Z</time></trkpt><trkpt lat="40.3695177291705" lon="18.229713992257196"><ele>32.5</ele><time>2026-04-04T14:26:55.993Z</time></trkpt><trkpt lat="40.36963042098873" lon="18.2301112949391"><ele>33.0</ele><time>2026-04-04T14:26:56.993Z</time></trkpt><trkpt lat="40.36974142866928" lon="18.23051281400395"><ele>33.0</ele><time>2026-04-04T14:26:57.993Z</time></trkpt><trkpt lat="40.369857241636836" lon="18.230920415578048"><ele>33.0</ele><time>2026-04-04T14:26:58.993Z</time></trkpt><trkpt lat="40.36996998269818" lon="18.231322801086545"><ele>33.0</ele><time>2026-04-04T14:26:59.993Z</time></trkpt><trkpt lat="40.37008421138992" lon="18.23173022047949"><ele>33.0</ele><time>2026-04-04T14:27:00.993Z</time></trkpt><trkpt lat="40.37020102939998" lon="18.23213787881719"><ele>32.5</ele><time>2026-04-04T14:27:01.993Z</time></trkpt><trkpt lat="40.37030776173076" lon="18.232517207975807"><ele>32.0</ele><time>2026-04-04T14:27:02.993Z</time></trkpt><trkpt lat="40.37040648976586" lon="18.232868041297507"><ele>32.0</ele><time>2026-04-04T14:27:03.993Z</time></trkpt><trkpt lat="40.370502188136626" lon="18.233212265072194"><ele>32.0</ele><time>2026-04-04T14:27:04.993Z</time></trkpt><trkpt lat="40.370597551226076" lon="18.233555041954084"><ele>32.0</ele><time>2026-04-04T14:27:05.993Z</time></trkpt><trkpt lat="40.37068618531295" lon="18.23387606944738"><ele>32.0</ele><time>2026-04-04T14:27:06.993Z</time></trkpt><trkpt lat="40.370755007437175" lon="18.234140362996577"><ele>32.666666666666664</ele><time>2026-04-04T14:27:07.993Z</time></trkpt><trkpt lat="40.37083244736335" lon="18.234413699037805"><ele>33.333333333333336</ele><time>2026-04-04T14:27:08.993Z</time></trkpt><trkpt lat="40.37090527101758" lon="18.234670053400286"><ele>34.0</ele><time>2026-04-04T14:27:09.993Z</time></trkpt><trkpt lat="40.37097025541631" lon="18.234911168601688"><ele>34.0</ele><time>2026-04-04T14:27:10.993Z</time></trkpt><trkpt lat="40.371035364944404" lon="18.23514464610448"><ele>34.0</ele><time>2026-04-04T14:27:11.993Z</time></trkpt><trkpt lat="40.371095100628416" lon="18.235368199372594"><ele>34.0</ele><time>2026-04-04T14:27:12.993Z</time></trkpt><trkpt lat="40.371150037707345" lon="18.23556997317706"><ele>34.0</ele><time>2026-04-04T14:27:13.993Z</time></trkpt><trkpt lat="40.371202328816224" lon="18.235747725313384"><ele>34.0</ele><time>2026-04-04T14:27:14.993Z</time></trkpt><trkpt lat="40.37123875209625" lon="18.235904097876084"><ele>34.0</ele><time>2026-04-04T14:27:15.993Z</time></trkpt><trkpt lat="40.37126676072655" lon="18.23602072224053"><ele>34.0</ele><time>2026-04-04T14:27:16.993Z</time></trkpt><trkpt lat="40.371293527745856" lon="18.236120795268427"><ele>34.0</ele><time>2026-04-04T14:27:18.993Z</time></trkpt><trkpt lat="40.371344987129305" lon="18.236234936527325"><ele>33.75</ele><time>2026-04-04T14:27:46.992Z</time></trkpt><trkpt lat="40.371385980034916" lon="18.23635673664582"><ele>33.5</ele><time>2026-04-04T14:27:47.992Z</time></trkpt><trkpt lat="40.37144811948878" lon="18.236533845270525"><ele>33.25</ele><time>2026-04-04T14:27:48.992Z</time></trkpt><trkpt lat="40.37150430331898" lon="18.236736328962163"><ele>33.0</ele><time>2026-04-04T14:27:49.992Z</time></trkpt><trkpt lat="40.37157125477351" lon="18.23695174232027"><ele>33.0</ele><time>2026-04-04T14:27:50.992Z</time></trkpt><trkpt lat="40.37164037331267" lon="18.23717643894425"><ele>33.0</ele><time>2026-04-04T14:27:51.992Z</time></trkpt><trkpt lat="40.37171056805022" lon="18.237422772114893"><ele>33.0</ele><time>2026-04-04T14:27:52.992Z</time></trkpt><trkpt lat="40.37177750012539" lon="18.237692806034854"><ele>33.0</ele><time>2026-04-04T14:27:53.992Z</time></trkpt><trkpt lat="40.37185464967936" lon="18.237964650186974"><ele>33.0</ele><time>2026-04-04T14:27:54.992Z</time></trkpt><trkpt lat="40.371929108635186" lon="18.238255930121646"><ele>33.0</ele><time>2026-04-04T14:27:55.992Z</time></trkpt><trkpt lat="40.372011984165354" lon="18.238538658354468"><ele>33.0</ele><time>2026-04-04T14:27:56.992Z</time></trkpt><trkpt lat="40.37208830870063" lon="18.238826391150276"><ele>33.0</ele><time>2026-04-04T14:27:57.992Z</time></trkpt><trkpt lat="40.37216970751609" lon="18.23911462962116"><ele>33.0</ele><time>2026-04-04T14:27:58.992Z</time></trkpt><trkpt lat="40.372256041666326" lon="18.239409470177662"><ele>33.0</ele><time>2026-04-04T14:27:59.992Z</time></trkpt><trkpt lat="40.37233374253092" lon="18.239711871370076"><ele>33.0</ele><time>2026-04-04T14:28:00.992Z</time></trkpt><trkpt lat="40.37242515549731" lon="18.240020154207457"><ele>32.5</ele><time>2026-04-04T14:28:01.992Z</time></trkpt><trkpt lat="40.372508902309875" lon="18.24032590829025"><ele>32.0</ele><time>2026-04-04T14:28:02.992Z</time></trkpt><trkpt lat="40.372587282168254" lon="18.240630318734258"><ele>31.5</ele><time>2026-04-04T14:28:03.992Z</time></trkpt><trkpt lat="40.37267017630718" lon="18.24093621693941"><ele>31.0</ele><time>2026-04-04T14:28:04.992Z</time></trkpt><trkpt lat="40.3727605956189" lon="18.241240014823962"><ele>31.0</ele><time>2026-04-04T14:28:05.992Z</time></trkpt><trkpt lat="40.372845758244395" lon="18.241543491340703"><ele>31.0</ele><time>2026-04-04T14:28:06.992Z</time></trkpt><trkpt lat="40.37293026409194" lon="18.241847410703375"><ele>31.0</ele><time>2026-04-04T14:28:07.992Z</time></trkpt><trkpt lat="40.37301017003253" lon="18.24215718394283"><ele>31.0</ele><time>2026-04-04T14:28:08.992Z</time></trkpt><trkpt lat="40.373097021335255" lon="18.24246047204075"><ele>32.0</ele><time>2026-04-04T14:28:09.992Z</time></trkpt><trkpt lat="40.3731831760106" lon="18.24276505137869"><ele>33.0</ele><time>2026-04-04T14:28:10.992Z</time></trkpt><trkpt lat="40.373273957482176" lon="18.24307227978159"><ele>32.5</ele><time>2026-04-04T14:28:11.992Z</time></trkpt><trkpt lat="40.37336025502381" lon="18.243383372382965"><ele>32.0</ele><time>2026-04-04T14:28:12.992Z</time></trkpt><trkpt lat="40.37345046557602" lon="18.243696020870672"><ele>32.0</ele><time>2026-04-04T14:28:13.992Z</time></trkpt><trkpt lat="40.373542097097605" lon="18.24401049882795"><ele>32.0</ele><time>2026-04-04T14:28:14.992Z</time></trkpt><trkpt lat="40.37362861812276" lon="18.244318644451024"><ele>32.0</ele><time>2026-04-04T14:28:15.992Z</time></trkpt><trkpt lat="40.373712716974914" lon="18.2446369211327"><ele>32.0</ele><time>2026-04-04T14:28:16.992Z</time></trkpt><trkpt lat="40.37380096530784" lon="18.24494820533902"><ele>32.0</ele><time>2026-04-04T14:28:17.992Z</time></trkpt><trkpt lat="40.37388530653026" lon="18.245259799278575"><ele>32.0</ele><time>2026-04-04T14:28:18.992Z</time></trkpt><trkpt lat="40.37397270776168" lon="18.24558153958481"><ele>31.5</ele><time>2026-04-04T14:28:19.992Z</time></trkpt><trkpt lat="40.37405864035691" lon="18.245899357667927"><ele>31.0</ele><time>2026-04-04T14:28:20.992Z</time></trkpt><trkpt lat="40.37414143605921" lon="18.24621645531626"><ele>31.0</ele><time>2026-04-04T14:28:21.992Z</time></trkpt><trkpt lat="40.37422061710749" lon="18.246526247587315"><ele>31.0</ele><time>2026-04-04T14:28:22.992Z</time></trkpt><trkpt lat="40.37430906260171" lon="18.24684755341593"><ele>31.0</ele><time>2026-04-04T14:28:23.992Z</time></trkpt><trkpt lat="40.374391327012184" lon="18.247166954096205"><ele>31.0</ele><time>2026-04-04T14:28:24.992Z</time></trkpt><trkpt lat="40.37447644428607" lon="18.24748840038923"><ele>31.0</ele><time>2026-04-04T14:28:25.992Z</time></trkpt><trkpt lat="40.37455863171828" lon="18.24780279228184"><ele>31.0</ele><time>2026-04-04T14:28:26.992Z</time></trkpt><trkpt lat="40.37464249022606" lon="18.248117769452335"><ele>31.5</ele><time>2026-04-04T14:28:27.992Z</time></trkpt><trkpt lat="40.374727173515495" lon="18.248426808844435"><ele>32.0</ele><time>2026-04-04T14:28:28.992Z</time></trkpt><trkpt lat="40.374807720154806" lon="18.248734677803725"><ele>31.0</ele><time>2026-04-04T14:28:29.992Z</time></trkpt><trkpt lat="40.374891710397534" lon="18.249040492188886"><ele>30.0</ele><time>2026-04-04T14:28:30.992Z</time></trkpt><trkpt lat="40.37497258748321" lon="18.2493464197004"><ele>30.0</ele><time>2026-04-04T14:28:31.992Z</time></trkpt><trkpt lat="40.37505076987949" lon="18.24965202944662"><ele>30.0</ele><time>2026-04-04T14:28:32.992Z</time></trkpt><trkpt lat="40.37512797587423" lon="18.249951142704166"><ele>30.5</ele><time>2026-04-04T14:28:33.992Z</time></trkpt><trkpt lat="40.375204902657956" lon="18.250249696297995"><ele>31.0</ele><time>2026-04-04T14:28:34.992Z</time></trkpt><trkpt lat="40.37528191715605" lon="18.250547994741744"><ele>30.0</ele><time>2026-04-04T14:28:35.992Z</time></trkpt><trkpt lat="40.37536131248826" lon="18.25084472119545"><ele>29.0</ele><time>2026-04-04T14:28:36.992Z</time></trkpt><trkpt lat="40.37544437782704" lon="18.25114604688847"><ele>29.0</ele><time>2026-04-04T14:28:37.998Z</time></trkpt><trkpt lat="40.375523189735596" lon="18.251442097452944"><ele>29.0</ele><time>2026-04-04T14:28:38.998Z</time></trkpt><trkpt lat="40.37560269466935" lon="18.25173617599929"><ele>27.5</ele><time>2026-04-04T14:28:39.998Z</time></trkpt><trkpt lat="40.37567829369585" lon="18.252036102640428"><ele>26.0</ele><time>2026-04-04T14:28:40.998Z</time></trkpt><trkpt lat="40.37575283094238" lon="18.252333318440545"><ele>25.5</ele><time>2026-04-04T14:28:41.998Z</time></trkpt><trkpt lat="40.375830061790936" lon="18.252632237202402"><ele>25.0</ele><time>2026-04-04T14:28:42.998Z</time></trkpt><trkpt lat="40.37590578409384" lon="18.25293492885014"><ele>24.5</ele><time>2026-04-04T14:28:43.998Z</time></trkpt><trkpt lat="40.375980687550445" lon="18.253232678789516"><ele>24.0</ele><time>2026-04-04T14:28:44.998Z</time></trkpt><trkpt lat="40.376056709785146" lon="18.253526372631022"><ele>24.0</ele><time>2026-04-04T14:28:45.998Z</time></trkpt><trkpt lat="40.376138390693804" lon="18.253829985678266"><ele>24.0</ele><time>2026-04-04T14:28:46.998Z</time></trkpt><trkpt lat="40.37621739034054" lon="18.254137530812866"><ele>24.0</ele><time>2026-04-04T14:28:47.998Z</time></trkpt><trkpt lat="40.376296222905616" lon="18.254444394900386"><ele>24.0</ele><time>2026-04-04T14:28:48.998Z</time></trkpt><trkpt lat="40.37637919977488" lon="18.25474473120966"><ele>24.0</ele><time>2026-04-04T14:28:49.998Z</time></trkpt><trkpt lat="40.37646191237655" lon="18.25505304483054"><ele>24.0</ele><time>2026-04-04T14:28:50.998Z</time></trkpt><trkpt lat="40.37654513943434" lon="18.255360224982386"><ele>24.0</ele><time>2026-04-04T14:28:51.998Z</time></trkpt><trkpt lat="40.3766264983957" lon="18.25566905128443"><ele>24.0</ele><time>2026-04-04T14:28:52.998Z</time></trkpt><trkpt lat="40.37670865500562" lon="18.255980095700718"><ele>24.0</ele><time>2026-04-04T14:28:53.998Z</time></trkpt><trkpt lat="40.376789582939836" lon="18.256288991855225"><ele>24.0</ele><time>2026-04-04T14:28:54.998Z</time></trkpt><trkpt lat="40.37687225292117" lon="18.25660477821364"><ele>24.0</ele><time>2026-04-04T14:28:55.998Z</time></trkpt><trkpt lat="40.376954355221834" lon="18.256915708185833"><ele>24.0</ele><time>2026-04-04T14:28:56.998Z</time></trkpt><trkpt lat="40.37703834195021" lon="18.25722944144824"><ele>24.0</ele><time>2026-04-04T14:28:57.998Z</time></trkpt><trkpt lat="40.37711503889375" lon="18.25754107714861"><ele>24.0</ele><time>2026-04-04T14:28:58.998Z</time></trkpt><trkpt lat="40.377195657305855" lon="18.257847507040935"><ele>23.666666666666668</ele><time>2026-04-04T14:28:59.998Z</time></trkpt><trkpt lat="40.37727189503184" lon="18.258133803297124"><ele>23.333333333333336</ele><time>2026-04-04T14:29:00.998Z</time></trkpt><trkpt lat="40.377341692886716" lon="18.2583909732984"><ele>23.0</ele><time>2026-04-04T14:29:01.998Z</time></trkpt><trkpt lat="40.37741018363731" lon="18.258627626156507"><ele>23.0</ele><time>2026-04-04T14:29:02.998Z</time></trkpt><trkpt lat="40.37747901389638" lon="18.25887498369812"><ele>23.0</ele><time>2026-04-04T14:29:03.998Z</time></trkpt><trkpt lat="40.377543885074445" lon="18.259134535301392"><ele>23.0</ele><time>2026-04-04T14:29:04.998Z</time></trkpt><trkpt lat="40.377600388927725" lon="18.25939789879257"><ele>23.0</ele><time>2026-04-04T14:29:05.998Z</time></trkpt><trkpt lat="40.37766516266606" lon="18.259656734625445"><ele>23.0</ele><time>2026-04-04T14:29:06.998Z</time></trkpt><trkpt lat="40.37772451133622" lon="18.259888537149816"><ele>23.0</ele><time>2026-04-04T14:29:07.998Z</time></trkpt><trkpt lat="40.37778891015556" lon="18.260108991749412"><ele>23.0</ele><time>2026-04-04T14:29:08.998Z</time></trkpt><trkpt lat="40.37784415812856" lon="18.260322897616582"><ele>23.0</ele><time>2026-04-04T14:29:09.998Z</time></trkpt><trkpt lat="40.377899864204046" lon="18.260524644868955"><ele>23.0</ele><time>2026-04-04T14:29:10.998Z</time></trkpt><trkpt lat="40.377948398032096" lon="18.260712183662587"><ele>22.75</ele><time>2026-04-04T14:29:11.998Z</time></trkpt><trkpt lat="40.37800185516837" lon="18.260888702682525"><ele>22.5</ele><time>2026-04-04T14:29:12.998Z</time></trkpt><trkpt lat="40.3780491988588" lon="18.261050430862973"><ele>22.25</ele><time>2026-04-04T14:29:13.998Z</time></trkpt><trkpt lat="40.37808773457244" lon="18.261188971413553"><ele>22.0</ele><time>2026-04-04T14:29:14.998Z</time></trkpt><trkpt lat="40.378116686899325" lon="18.26129990219853"><ele>22.0</ele><time>2026-04-04T14:29:15.998Z</time></trkpt><trkpt lat="40.37814281549835" lon="18.261393887907115"><ele>22.0</ele><time>2026-04-04T14:29:16.998Z</time></trkpt><trkpt lat="40.37817274764627" lon="18.261527379215632"><ele>22.0</ele><time>2026-04-04T14:29:18.998Z</time></trkpt><trkpt lat="40.378199829497426" lon="18.26163939318544"><ele>22.0</ele><time>2026-04-04T14:29:20.998Z</time></trkpt><trkpt lat="40.37822223446531" lon="18.261731552924022"><ele>22.0</ele><time>2026-04-04T14:29:22.998Z</time></trkpt><trkpt lat="40.37826706488755" lon="18.261884043787283"><ele>22.200000000000003</ele><time>2026-04-04T14:29:24.998Z</time></trkpt><trkpt lat="40.37830103062358" lon="18.261980849463924"><ele>22.4</ele><time>2026-04-04T14:29:25.998Z</time></trkpt><trkpt lat="40.37833244355805" lon="18.262089111153195"><ele>22.6</ele><time>2026-04-04T14:29:26.998Z</time></trkpt><trkpt lat="40.3783726957976" lon="18.262225652620195"><ele>22.799999999999997</ele><time>2026-04-04T14:29:27.998Z</time></trkpt><trkpt lat="40.37842817466005" lon="18.26240400076268"><ele>23.0</ele><time>2026-04-04T14:29:28.998Z</time></trkpt><trkpt lat="40.378490712809345" lon="18.262612379175113"><ele>23.0</ele><time>2026-04-04T14:29:29.998Z</time></trkpt><trkpt lat="40.378561333978446" lon="18.262839449010762"><ele>23.0</ele><time>2026-04-04T14:29:30.998Z</time></trkpt><trkpt lat="40.378621868553594" lon="18.263088351274355"><ele>23.0</ele><time>2026-04-04T14:29:31.998Z</time></trkpt><trkpt lat="40.378678953125345" lon="18.26335304642839"><ele>22.666666666666668</ele><time>2026-04-04T14:29:32.998Z</time></trkpt><trkpt lat="40.378749991659" lon="18.263610992610662"><ele>22.333333333333332</ele><time>2026-04-04T14:29:33.998Z</time></trkpt><trkpt lat="40.378818248877614" lon="18.263872054314607"><ele>22.0</ele><time>2026-04-04T14:29:34.997Z</time></trkpt><trkpt lat="40.378889990758445" lon="18.26413589599379"><ele>21.0</ele><time>2026-04-04T14:29:35.997Z</time></trkpt><trkpt lat="40.3789515684045" lon="18.26440284337946"><ele>20.0</ele><time>2026-04-04T14:29:36.997Z</time></trkpt><trkpt lat="40.37902449392587" lon="18.26467038111272"><ele>19.0</ele><time>2026-04-04T14:29:37.997Z</time></trkpt><trkpt lat="40.37909958398188" lon="18.26494451898002"><ele>19.0</ele><time>2026-04-04T14:29:38.997Z</time></trkpt><trkpt lat="40.37916909035494" lon="18.265219324384766"><ele>19.0</ele><time>2026-04-04T14:29:39.997Z</time></trkpt><trkpt lat="40.379248889779916" lon="18.26548992649407"><ele>19.0</ele><time>2026-04-04T14:29:40.997Z</time></trkpt><trkpt lat="40.37932753093924" lon="18.265761849485994"><ele>19.0</ele><time>2026-04-04T14:29:41.997Z</time></trkpt><trkpt lat="40.37940426669378" lon="18.266029818471647"><ele>19.0</ele><time>2026-04-04T14:29:42.997Z</time></trkpt><trkpt lat="40.37948255509767" lon="18.266304698923186"><ele>19.0</ele><time>2026-04-04T14:29:43.997Z</time></trkpt><trkpt lat="40.37955732854337" lon="18.266583618526223"><ele>18.666666666666664</ele><time>2026-04-04T14:29:44.997Z</time></trkpt><trkpt lat="40.37962232376117" lon="18.266866126552532"><ele>18.333333333333332</ele><time>2026-04-04T14:29:45.997Z</time></trkpt><trkpt lat="40.37969001324421" lon="18.267146440958495"><ele>18.0</ele><time>2026-04-04T14:29:46.997Z</time></trkpt><trkpt lat="40.37976556917553" lon="18.267430034462564"><ele>18.0</ele><time>2026-04-04T14:29:47.997Z</time></trkpt><trkpt lat="40.379843275602" lon="18.267715790248058"><ele>18.0</ele><time>2026-04-04T14:29:48.997Z</time></trkpt><trkpt lat="40.37991980061969" lon="18.26800265903603"><ele>17.5</ele><time>2026-04-04T14:29:49.997Z</time></trkpt><trkpt lat="40.37999781397061" lon="18.268293451009118"><ele>17.0</ele><time>2026-04-04T14:29:50.997Z</time></trkpt><trkpt lat="40.38007611663289" lon="18.268584546993594"><ele>17.0</ele><time>2026-04-04T14:29:51.997Z</time></trkpt><trkpt lat="40.38015557309948" lon="18.26887741519463"><ele>17.0</ele><time>2026-04-04T14:29:52.997Z</time></trkpt><trkpt lat="40.38023107961646" lon="18.26917372525222"><ele>17.0</ele><time>2026-04-04T14:29:53.997Z</time></trkpt><trkpt lat="40.38030742490499" lon="18.269462601855178"><ele>17.0</ele><time>2026-04-04T14:29:54.997Z</time></trkpt><trkpt lat="40.3803874041709" lon="18.269745167419128"><ele>17.0</ele><time>2026-04-04T14:29:55.997Z</time></trkpt><trkpt lat="40.38046472069623" lon="18.270029523597533"><ele>17.0</ele><time>2026-04-04T14:29:56.997Z</time></trkpt><trkpt lat="40.38054223913341" lon="18.27030639699659"><ele>17.0</ele><time>2026-04-04T14:29:57.997Z</time></trkpt><trkpt lat="40.380615847474616" lon="18.270587001895596"><ele>17.0</ele><time>2026-04-04T14:29:58.997Z</time></trkpt><trkpt lat="40.380686866238705" lon="18.270866468725696"><ele>16.333333333333336</ele><time>2026-04-04T14:29:59.997Z</time></trkpt><trkpt lat="40.38074709767018" lon="18.27113596658671"><ele>15.666666666666668</ele><time>2026-04-04T14:30:00.997Z</time></trkpt><trkpt lat="40.3807980159878" lon="18.271391917752013"><ele>15.0</ele><time>2026-04-04T14:30:01.997Z</time></trkpt><trkpt lat="40.38088724596022" lon="18.271607498416547"><ele>14.666666666666668</ele><time>2026-04-04T14:30:02.997Z</time></trkpt><trkpt lat="40.380961195489675" lon="18.271805465427054"><ele>14.333333333333334</ele><time>2026-04-04T14:30:03.997Z</time></trkpt><trkpt lat="40.3810444939684" lon="18.27200048944643"><ele>14.0</ele><time>2026-04-04T14:30:04.997Z</time></trkpt><trkpt lat="40.38112704543257" lon="18.272186704952038"><ele>14.0</ele><time>2026-04-04T14:30:05.997Z</time></trkpt><trkpt lat="40.38120281073047" lon="18.272368449080872"><ele>14.0</ele><time>2026-04-04T14:30:06.997Z</time></trkpt><trkpt lat="40.38127042872627" lon="18.272545054310513"><ele>14.0</ele><time>2026-04-04T14:30:07.997Z</time></trkpt><trkpt lat="40.38134383371544" lon="18.27269890450488"><ele>14.0</ele><time>2026-04-04T14:30:08.997Z</time></trkpt><trkpt lat="40.38140038098069" lon="18.27287538531114"><ele>14.0</ele><time>2026-04-04T14:30:09.997Z</time></trkpt><trkpt lat="40.38143868583083" lon="18.273064207308078"><ele>14.0</ele><time>2026-04-04T14:30:10.997Z</time></trkpt><trkpt lat="40.38149127636283" lon="18.27321424332428"><ele>14.0</ele><time>2026-04-04T14:30:11.997Z</time></trkpt><trkpt lat="40.38151619057122" lon="18.273940152841817"><ele>13.25</ele><time>2026-04-04T14:30:12.997Z</time></trkpt><trkpt lat="40.38156023460168" lon="18.274115809901623"><ele>12.5</ele><time>2026-04-04T14:30:13.997Z</time></trkpt><trkpt lat="40.38160107687299" lon="18.274276692572187"><ele>11.75</ele><time>2026-04-04T14:30:14.997Z</time></trkpt><trkpt lat="40.38163780946964" lon="18.274422586280085"><ele>11.0</ele><time>2026-04-04T14:30:15.997Z</time></trkpt><trkpt lat="40.381671931090764" lon="18.27455126337034"><ele>11.0</ele><time>2026-04-04T14:30:16.997Z</time></trkpt><trkpt lat="40.38170077156969" lon="18.274661049425355"><ele>11.0</ele><time>2026-04-04T14:30:17.997Z</time></trkpt><trkpt lat="40.38172578240495" lon="18.27475487478235"><ele>11.0</ele><time>2026-04-04T14:30:18.997Z</time></trkpt><trkpt lat="40.38176148854407" lon="18.274888562138365"><ele>11.0</ele><time>2026-04-04T14:30:20.997Z</time></trkpt><trkpt lat="40.38178547101705" lon="18.27497971290463"><ele>11.0</ele><time>2026-04-04T14:30:22.997Z</time></trkpt><trkpt lat="40.38180148172715" lon="18.27506096265018"><ele>11.0</ele><time>2026-04-04T14:30:34.997Z</time></trkpt><trkpt lat="40.38183692036992" lon="18.275189788881942"><ele>10.75</ele><time>2026-04-04T14:30:35.997Z</time></trkpt><trkpt lat="40.38186921149648" lon="18.27532065830804"><ele>10.5</ele><time>2026-04-04T14:30:36.997Z</time></trkpt><trkpt lat="40.38190964427954" lon="18.275479031294367"><ele>10.25</ele><time>2026-04-04T14:30:37.997Z</time></trkpt><trkpt lat="40.3819568647861" lon="18.275638180845377"><ele>10.0</ele><time>2026-04-04T14:30:38.997Z</time></trkpt><trkpt lat="40.382000018834546" lon="18.275794917812078"><ele>10.25</ele><time>2026-04-04T14:30:39.997Z</time></trkpt><trkpt lat="40.38204317346391" lon="18.275954046869366"><ele>10.5</ele><time>2026-04-04T14:30:40.997Z</time></trkpt><trkpt lat="40.38208726574048" lon="18.276122064087673"><ele>10.75</ele><time>2026-04-04T14:30:41.997Z</time></trkpt><trkpt lat="40.38213718291964" lon="18.276303180269682"><ele>11.0</ele><time>2026-04-04T14:30:42.997Z</time></trkpt><trkpt lat="40.38218614864363" lon="18.276497513245104"><ele>11.0</ele><time>2026-04-04T14:30:43.997Z</time></trkpt><trkpt lat="40.38225199306424" lon="18.276696863595255"><ele>11.0</ele><time>2026-04-04T14:30:44.997Z</time></trkpt><trkpt lat="40.382303286942864" lon="18.276896168020283"><ele>11.0</ele><time>2026-04-04T14:30:45.997Z</time></trkpt><trkpt lat="40.38236258724132" lon="18.277102159103748"><ele>10.666666666666666</ele><time>2026-04-04T14:30:46.997Z</time></trkpt><trkpt lat="40.38243017464116" lon="18.277313425149455"><ele>10.333333333333334</ele><time>2026-04-04T14:30:47.997Z</time></trkpt><trkpt lat="40.382485701018965" lon="18.277541743155567"><ele>10.0</ele><time>2026-04-04T14:30:48.997Z</time></trkpt><trkpt lat="40.382549700626804" lon="18.277765761775235"><ele>10.0</ele><time>2026-04-04T14:30:49.997Z</time></trkpt><trkpt lat="40.38261481972984" lon="18.277996196032714"><ele>10.0</ele><time>2026-04-04T14:30:50.997Z</time></trkpt><trkpt lat="40.38267853412315" lon="18.278237708795775"><ele>10.0</ele><time>2026-04-04T14:30:51.997Z</time></trkpt><trkpt lat="40.38274102402598" lon="18.278484021344266"><ele>10.0</ele><time>2026-04-04T14:30:52.997Z</time></trkpt><trkpt lat="40.38280995748481" lon="18.2787273274745"><ele>10.0</ele><time>2026-04-04T14:30:53.997Z</time></trkpt><trkpt lat="40.38287368288968" lon="18.27897152614006"><ele>10.0</ele><time>2026-04-04T14:30:54.997Z</time></trkpt><trkpt lat="40.38293783428998" lon="18.27921811375775"><ele>10.0</ele><time>2026-04-04T14:30:55.997Z</time></trkpt><trkpt lat="40.3829995654602" lon="18.27946997467687"><ele>10.0</ele><time>2026-04-04T14:30:56.997Z</time></trkpt><trkpt lat="40.383063732204924" lon="18.279714359674365"><ele>10.0</ele><time>2026-04-04T14:30:57.997Z</time></trkpt><trkpt lat="40.383129460981024" lon="18.27996727895832"><ele>9.666666666666668</ele><time>2026-04-04T14:30:58.997Z</time></trkpt><trkpt lat="40.383197998201524" lon="18.280222651138097"><ele>9.333333333333334</ele><time>2026-04-04T14:30:59.997Z</time></trkpt><trkpt lat="40.38326754994155" lon="18.28048141123799"><ele>9.0</ele><time>2026-04-04T14:31:00.997Z</time></trkpt><trkpt lat="40.38333480696839" lon="18.28074696559306"><ele>9.333333333333334</ele><time>2026-04-04T14:31:01.997Z</time></trkpt><trkpt lat="40.383402049132606" lon="18.281012726206388"><ele>9.666666666666668</ele><time>2026-04-04T14:31:02.997Z</time></trkpt><trkpt lat="40.383472117084175" lon="18.281275023768526"><ele>10.0</ele><time>2026-04-04T14:31:03.997Z</time></trkpt><trkpt lat="40.38354617966414" lon="18.28153841369985"><ele>10.0</ele><time>2026-04-04T14:31:04.997Z</time></trkpt><trkpt lat="40.3836175792501" lon="18.281783212978592"><ele>10.0</ele><time>2026-04-04T14:31:05.997Z</time></trkpt><trkpt lat="40.38368607332027" lon="18.28202562434468"><ele>10.0</ele><time>2026-04-04T14:31:06.997Z</time></trkpt><trkpt lat="40.383745953260885" lon="18.282264974567678"><ele>9.333333333333334</ele><time>2026-04-04T14:31:07.997Z</time></trkpt><trkpt lat="40.38381278279017" lon="18.28251557346147"><ele>8.666666666666666</ele><time>2026-04-04T14:31:08.997Z</time></trkpt><trkpt lat="40.38387697327769" lon="18.282763121440055"><ele>8.0</ele><time>2026-04-04T14:31:09.997Z</time></trkpt><trkpt lat="40.383943420293576" lon="18.28301255761559"><ele>8.0</ele><time>2026-04-04T14:31:10.997Z</time></trkpt><trkpt lat="40.384006262922554" lon="18.28326044306011"><ele>8.0</ele><time>2026-04-04T14:31:11.997Z</time></trkpt><trkpt lat="40.38407455017841" lon="18.28349952019457"><ele>8.0</ele><time>2026-04-04T14:31:12.997Z</time></trkpt><trkpt lat="40.38413850502215" lon="18.283743078240786"><ele>8.0</ele><time>2026-04-04T14:31:13.997Z</time></trkpt><trkpt lat="40.38420464952007" lon="18.283986224900556"><ele>8.0</ele><time>2026-04-04T14:31:14.997Z</time></trkpt><trkpt lat="40.384272611736655" lon="18.28422928071084"><ele>8.0</ele><time>2026-04-04T14:31:15.997Z</time></trkpt><trkpt lat="40.38433089638342" lon="18.28446607465576"><ele>8.0</ele><time>2026-04-04T14:31:16.997Z</time></trkpt><trkpt lat="40.3843897582086" lon="18.28470766367455"><ele>8.0</ele><time>2026-04-04T14:31:17.997Z</time></trkpt><trkpt lat="40.384455447917" lon="18.284937939727502"><ele>8.0</ele><time>2026-04-04T14:31:18.997Z</time></trkpt><trkpt lat="40.384528603682185" lon="18.28516236904423"><ele>7.666666666666666</ele><time>2026-04-04T14:31:19.997Z</time></trkpt><trkpt lat="40.38458928172262" lon="18.285401204216946"><ele>7.333333333333334</ele><time>2026-04-04T14:31:20.997Z</time></trkpt><trkpt lat="40.384644482186616" lon="18.28564139257037"><ele>7.0</ele><time>2026-04-04T14:31:21.997Z</time></trkpt><trkpt lat="40.384703578457575" lon="18.285889456934864"><ele>6.666666666666667</ele><time>2026-04-04T14:31:22.997Z</time></trkpt><trkpt lat="40.38476478054827" lon="18.286141240410174"><ele>6.333333333333334</ele><time>2026-04-04T14:31:23.997Z</time></trkpt><trkpt lat="40.38483191014228" lon="18.286396924271354"><ele>6.0</ele><time>2026-04-04T14:31:24.997Z</time></trkpt><trkpt lat="40.38490306174062" lon="18.28664326507276"><ele>5.666666666666667</ele><time>2026-04-04T14:31:25.997Z</time></trkpt><trkpt lat="40.38496805326042" lon="18.286882325358114"><ele>5.333333333333334</ele><time>2026-04-04T14:31:26.997Z</time></trkpt><trkpt lat="40.38503135945204" lon="18.2871154976876"><ele>5.0</ele><time>2026-04-04T14:31:27.998Z</time></trkpt><trkpt lat="40.385093222974945" lon="18.28732616061524"><ele>5.0</ele><time>2026-04-04T14:31:28.997Z</time></trkpt><trkpt lat="40.385146884711034" lon="18.287523416106882"><ele>5.0</ele><time>2026-04-04T14:31:29.997Z</time></trkpt><trkpt lat="40.38520297702499" lon="18.28770712826035"><ele>5.0</ele><time>2026-04-04T14:31:30.998Z</time></trkpt><trkpt lat="40.385252828950236" lon="18.28788471255437"><ele>5.0</ele><time>2026-04-04T14:31:31.997Z</time></trkpt><trkpt lat="40.38530059248298" lon="18.28805201046634"><ele>5.0</ele><time>2026-04-04T14:31:32.997Z</time></trkpt><trkpt lat="40.38534785881758" lon="18.2882172014801"><ele>5.0</ele><time>2026-04-04T14:31:33.997Z</time></trkpt><trkpt lat="40.38539019708445" lon="18.288371586045137"><ele>5.0</ele><time>2026-04-04T14:31:34.997Z</time></trkpt><trkpt lat="40.385424738282175" lon="18.28849057233155"><ele>5.0</ele><time>2026-04-04T14:31:35.997Z</time></trkpt><trkpt lat="40.38544617270252" lon="18.288591883436887"><ele>5.0</ele><time>2026-04-04T14:31:36.997Z</time></trkpt><trkpt lat="40.385473867945485" lon="18.288676709525216"><ele>5.0</ele><time>2026-04-04T14:31:37.997Z</time></trkpt><trkpt lat="40.38551458560519" lon="18.28881736901298"><ele>5.0</ele><time>2026-04-04T14:31:39.997Z</time></trkpt><trkpt lat="40.38554396025874" lon="18.28891221406906"><ele>5.0</ele><time>2026-04-04T14:31:40.997Z</time></trkpt><trkpt lat="40.38557809259516" lon="18.289039461869958"><ele>5.0</ele><time>2026-04-04T14:31:41.997Z</time></trkpt><trkpt lat="40.38561511000385" lon="18.289196429906326"><ele>5.0</ele><time>2026-04-04T14:31:42.997Z</time></trkpt><trkpt lat="40.38566283454176" lon="18.28938230090145"><ele>5.0</ele><time>2026-04-04T14:31:43.997Z</time></trkpt><trkpt lat="40.38572758574339" lon="18.289579944165094"><ele>5.0</ele><time>2026-04-04T14:31:44.997Z</time></trkpt><trkpt lat="40.38578974498158" lon="18.2898006426294"><ele>5.666666666666667</ele><time>2026-04-04T14:31:45.997Z</time></trkpt><trkpt lat="40.385855039011666" lon="18.290030855536884"><ele>6.333333333333334</ele><time>2026-04-04T14:31:46.997Z</time></trkpt><trkpt lat="40.38592676751582" lon="18.2902829290756"><ele>7.0</ele><time>2026-04-04T14:31:47.997Z</time></trkpt><trkpt lat="40.38598861355459" lon="18.290543533310455"><ele>6.0</ele><time>2026-04-04T14:31:48.997Z</time></trkpt><trkpt lat="40.386064625741064" lon="18.29080366223603"><ele>5.0</ele><time>2026-04-04T14:31:49.997Z</time></trkpt><trkpt lat="40.38612935260099" lon="18.291073302701616"><ele>4.0</ele><time>2026-04-04T14:31:50.997Z</time></trkpt><trkpt lat="40.38620811440737" lon="18.291336458777263"><ele>3.6666666666666665</ele><time>2026-04-04T14:31:51.997Z</time></trkpt><trkpt lat="40.38627870300187" lon="18.291608467780403"><ele>3.333333333333333</ele><time>2026-04-04T14:31:52.997Z</time></trkpt><trkpt lat="40.38634172784909" lon="18.291875233335748"><ele>3.0</ele><time>2026-04-04T14:31:53.997Z</time></trkpt><trkpt lat="40.38640240212117" lon="18.292123720106254"><ele>3.666666666666667</ele><time>2026-04-04T14:31:54.997Z</time></trkpt><trkpt lat="40.386464669272485" lon="18.292354051005024"><ele>4.333333333333334</ele><time>2026-04-04T14:31:55.997Z</time></trkpt><trkpt lat="40.38653004690976" lon="18.292591389171836"><ele>5.0</ele><time>2026-04-04T14:31:56.997Z</time></trkpt><trkpt lat="40.38658796239054" lon="18.292832382080547"><ele>5.0</ele><time>2026-04-04T14:31:57.997Z</time></trkpt><trkpt lat="40.386656204586075" lon="18.29306836208946"><ele>5.0</ele><time>2026-04-04T14:31:58.997Z</time></trkpt><trkpt lat="40.386725708024265" lon="18.293308281530802"><ele>5.0</ele><time>2026-04-04T14:31:59.997Z</time></trkpt><trkpt lat="40.38678857298434" lon="18.293547443360904"><ele>5.0</ele><time>2026-04-04T14:32:00.997Z</time></trkpt><trkpt lat="40.38685238061869" lon="18.293778314176635"><ele>5.0</ele><time>2026-04-04T14:32:01.997Z</time></trkpt><trkpt lat="40.38690982241214" lon="18.293990920598624"><ele>5.0</ele><time>2026-04-04T14:32:02.997Z</time></trkpt><trkpt lat="40.3869694527623" lon="18.294210343485897"><ele>5.666666666666667</ele><time>2026-04-04T14:32:03.997Z</time></trkpt><trkpt lat="40.387029725635514" lon="18.29442733216821"><ele>6.333333333333334</ele><time>2026-04-04T14:32:04.997Z</time></trkpt><trkpt lat="40.3870854522123" lon="18.294646139876207"><ele>7.0</ele><time>2026-04-04T14:32:05.997Z</time></trkpt><trkpt lat="40.38714028373904" lon="18.294865607440805"><ele>6.333333333333334</ele><time>2026-04-04T14:32:06.997Z</time></trkpt><trkpt lat="40.387203369598026" lon="18.295078851925258"><ele>5.666666666666667</ele><time>2026-04-04T14:32:07.997Z</time></trkpt><trkpt lat="40.38725943997761" lon="18.295297007438116"><ele>5.0</ele><time>2026-04-04T14:32:08.997Z</time></trkpt><trkpt lat="40.387316889908725" lon="18.2955104990826"><ele>4.666666666666667</ele><time>2026-04-04T14:32:09.996Z</time></trkpt><trkpt lat="40.38737139154541" lon="18.29572089788866"><ele>4.333333333333333</ele><time>2026-04-04T14:32:10.996Z</time></trkpt><trkpt lat="40.38742268907946" lon="18.295923839567415"><ele>4.0</ele><time>2026-04-04T14:32:11.996Z</time></trkpt><trkpt lat="40.38746862553649" lon="18.296100650739653"><ele>3.9999999999999996</ele><time>2026-04-04T14:32:12.996Z</time></trkpt><trkpt lat="40.38749366297768" lon="18.296224341631103"><ele>4.0</ele><time>2026-04-04T14:32:13.996Z</time></trkpt><trkpt lat="40.387501695933615" lon="18.29631062713727"><ele>4.0</ele><time>2026-04-04T14:32:14.996Z</time></trkpt><trkpt lat="40.38746293463707" lon="18.296424213436605"><ele>4.0</ele><time>2026-04-04T14:32:16.996Z</time></trkpt><trkpt lat="40.387406532123" lon="18.296517398258146"><ele>3.9999999999999996</ele><time>2026-04-04T14:32:18.996Z</time></trkpt><trkpt lat="40.38734074511445" lon="18.296554281701706"><ele>4.0</ele><time>2026-04-04T14:32:19.996Z</time></trkpt><trkpt lat="40.387254240242996" lon="18.29657611916324"><ele>3.75</ele><time>2026-04-04T14:32:20.996Z</time></trkpt><trkpt lat="40.387146635530016" lon="18.296608102538926"><ele>3.5</ele><time>2026-04-04T14:32:21.996Z</time></trkpt><trkpt lat="40.38702913267334" lon="18.29665204915564"><ele>3.25</ele><time>2026-04-04T14:32:22.996Z</time></trkpt><trkpt lat="40.386880929282434" lon="18.29673511283433"><ele>3.0</ele><time>2026-04-04T14:32:23.996Z</time></trkpt><trkpt lat="40.38672992232163" lon="18.296796159328007"><ele>3.0</ele><time>2026-04-04T14:32:24.996Z</time></trkpt><trkpt lat="40.38656577649301" lon="18.29686630662181"><ele>3.0</ele><time>2026-04-04T14:32:25.996Z</time></trkpt><trkpt lat="40.38641475821941" lon="18.29694033048439"><ele>3.0</ele><time>2026-04-04T14:32:26.996Z</time></trkpt><trkpt lat="40.38626900995186" lon="18.296992299491183"><ele>3.666666666666667</ele><time>2026-04-04T14:32:27.996Z</time></trkpt><trkpt lat="40.38612573076662" lon="18.297053184590663"><ele>4.333333333333334</ele><time>2026-04-04T14:32:28.996Z</time></trkpt><trkpt lat="40.38598251751809" lon="18.29712072875931"><ele>5.0</ele><time>2026-04-04T14:32:29.996Z</time></trkpt><trkpt lat="40.385836047309056" lon="18.297185440925062"><ele>5.0</ele><time>2026-04-04T14:32:30.996Z</time></trkpt><trkpt lat="40.3856858467345" lon="18.297244463175236"><ele>5.0</ele><time>2026-04-04T14:32:31.996Z</time></trkpt><trkpt lat="40.385537921824564" lon="18.297312898233606"><ele>5.0</ele><time>2026-04-04T14:32:32.996Z</time></trkpt><trkpt lat="40.385400630189466" lon="18.297377890239083"><ele>5.0</ele><time>2026-04-04T14:32:33.996Z</time></trkpt><trkpt lat="40.38526776572247" lon="18.297429161349058"><ele>5.0</ele><time>2026-04-04T14:32:34.996Z</time></trkpt><trkpt lat="40.38514186202279" lon="18.297480152598162"><ele>5.0</ele><time>2026-04-04T14:32:35.996Z</time></trkpt><trkpt lat="40.385019298633914" lon="18.297539448404486"><ele>5.0</ele><time>2026-04-04T14:32:36.996Z</time></trkpt><trkpt lat="40.38488755692501" lon="18.297597058455597"><ele>5.0</ele><time>2026-04-04T14:32:37.996Z</time></trkpt><trkpt lat="40.384749443846644" lon="18.297651355730473"><ele>5.0</ele><time>2026-04-04T14:32:38.996Z</time></trkpt><trkpt lat="40.384607670562815" lon="18.297708634389227"><ele>5.0</ele><time>2026-04-04T14:32:39.996Z</time></trkpt><trkpt lat="40.384473285061574" lon="18.297762186441467"><ele>5.0</ele><time>2026-04-04T14:32:40.996Z</time></trkpt><trkpt lat="40.38434930036512" lon="18.297812973122767"><ele>5.2</ele><time>2026-04-04T14:32:41.996Z</time></trkpt><trkpt lat="40.38423834536086" lon="18.29786321135957"><ele>5.4</ele><time>2026-04-04T14:32:42.996Z</time></trkpt><trkpt lat="40.384136868666744" lon="18.297912442126275"><ele>5.6</ele><time>2026-04-04T14:32:43.996Z</time></trkpt><trkpt lat="40.384031324051904" lon="18.297964380083396"><ele>5.8</ele><time>2026-04-04T14:32:44.996Z</time></trkpt><trkpt lat="40.383942631711186" lon="18.298045579150976"><ele>6.0</ele><time>2026-04-04T14:32:45.996Z</time></trkpt><trkpt lat="40.38385999545657" lon="18.298129717421695"><ele>6.0</ele><time>2026-04-04T14:32:46.996Z</time></trkpt><trkpt lat="40.38377301311635" lon="18.298233597062325"><ele>6.0</ele><time>2026-04-04T14:32:47.996Z</time></trkpt><trkpt lat="40.38366738232874" lon="18.29837605544981"><ele>6.0</ele><time>2026-04-04T14:32:48.996Z</time></trkpt><trkpt lat="40.38355381520346" lon="18.298552110656"><ele>6.0</ele><time>2026-04-04T14:32:49.996Z</time></trkpt><trkpt lat="40.38342830044596" lon="18.298751923706543"><ele>5.666666666666667</ele><time>2026-04-04T14:32:50.996Z</time></trkpt><trkpt lat="40.383315475310916" lon="18.29895323561949"><ele>5.333333333333334</ele><time>2026-04-04T14:32:51.996Z</time></trkpt><trkpt lat="40.383202405016725" lon="18.299153513178727"><ele>5.0</ele><time>2026-04-04T14:32:52.996Z</time></trkpt><trkpt lat="40.38309022562531" lon="18.29935478863062"><ele>5.0</ele><time>2026-04-04T14:32:53.996Z</time></trkpt><trkpt lat="40.38296431113868" lon="18.2995445455851"><ele>5.0</ele><time>2026-04-04T14:32:54.996Z</time></trkpt><trkpt lat="40.38283297288642" lon="18.299711399131375"><ele>5.0</ele><time>2026-04-04T14:32:55.996Z</time></trkpt><trkpt lat="40.382689880420074" lon="18.299865571561643"><ele>5.666666666666667</ele><time>2026-04-04T14:32:56.996Z</time></trkpt><trkpt lat="40.38253219236011" lon="18.30000963738811"><ele>6.333333333333334</ele><time>2026-04-04T14:32:57.996Z</time></trkpt><trkpt lat="40.38237624467884" lon="18.30014592639627"><ele>7.0</ele><time>2026-04-04T14:32:58.996Z</time></trkpt><trkpt lat="40.382208496982585" lon="18.30028924201991"><ele>7.0</ele><time>2026-04-04T14:32:59.996Z</time></trkpt><trkpt lat="40.38203246651819" lon="18.300429964352496"><ele>7.0</ele><time>2026-04-04T14:33:00.996Z</time></trkpt><trkpt lat="40.381855436503145" lon="18.30056459737781"><ele>7.0</ele><time>2026-04-04T14:33:01.996Z</time></trkpt><trkpt lat="40.381685619551824" lon="18.30070115112982"><ele>7.0</ele><time>2026-04-04T14:33:02.996Z</time></trkpt><trkpt lat="40.381514866827175" lon="18.300819901896748"><ele>7.0</ele><time>2026-04-04T14:33:03.996Z</time></trkpt><trkpt lat="40.381338017615654" lon="18.300918529910767"><ele>7.0</ele><time>2026-04-04T14:33:04.996Z</time></trkpt><trkpt lat="40.381156751087225" lon="18.300997906112013"><ele>6.666666666666667</ele><time>2026-04-04T14:33:05.996Z</time></trkpt><trkpt lat="40.38095915983773" lon="18.30106886793433"><ele>6.333333333333334</ele><time>2026-04-04T14:33:06.996Z</time></trkpt><trkpt lat="40.38075877516263" lon="18.30113452808831"><ele>6.0</ele><time>2026-04-04T14:33:07.996Z</time></trkpt><trkpt lat="40.38056111416216" lon="18.30121202029056"><ele>5.666666666666667</ele><time>2026-04-04T14:33:08.996Z</time></trkpt><trkpt lat="40.3803604358541" lon="18.30128391285823"><ele>5.333333333333334</ele><time>2026-04-04T14:33:09.996Z</time></trkpt><trkpt lat="40.3801595734171" lon="18.301348134078964"><ele>5.0</ele><time>2026-04-04T14:33:10.996Z</time></trkpt><trkpt lat="40.37996458187209" lon="18.301413625305063"><ele>6.0</ele><time>2026-04-04T14:33:11.996Z</time></trkpt><trkpt lat="40.37976843854667" lon="18.301473259722393"><ele>7.0</ele><time>2026-04-04T14:33:12.996Z</time></trkpt><trkpt lat="40.37958227855364" lon="18.301535896729714"><ele>8.0</ele><time>2026-04-04T14:33:13.996Z</time></trkpt><trkpt lat="40.379400365626154" lon="18.301625578650807"><ele>8.0</ele><time>2026-04-04T14:33:14.996Z</time></trkpt><trkpt lat="40.379227132118544" lon="18.30172263923354"><ele>8.0</ele><time>2026-04-04T14:33:15.996Z</time></trkpt><trkpt lat="40.37905658695697" lon="18.301823908205176"><ele>8.0</ele><time>2026-04-04T14:33:16.996Z</time></trkpt><trkpt lat="40.378889021102516" lon="18.301929264737844"><ele>6.666666666666666</ele><time>2026-04-04T14:33:17.996Z</time></trkpt><trkpt lat="40.378727275051894" lon="18.30202949935461"><ele>5.333333333333333</ele><time>2026-04-04T14:33:18.996Z</time></trkpt><trkpt lat="40.378567534223016" lon="18.302129568628732"><ele>4.0</ele><time>2026-04-04T14:33:19.996Z</time></trkpt><trkpt lat="40.37839834576359" lon="18.302219875346328"><ele>4.0</ele><time>2026-04-04T14:33:20.996Z</time></trkpt><trkpt lat="40.378218776713425" lon="18.30231499667992"><ele>4.0</ele><time>2026-04-04T14:33:21.996Z</time></trkpt><trkpt lat="40.378044143097206" lon="18.30241724160539"><ele>4.0</ele><time>2026-04-04T14:33:22.996Z</time></trkpt><trkpt lat="40.37786710978831" lon="18.302522721923108"><ele>3.6666666666666665</ele><time>2026-04-04T14:33:23.996Z</time></trkpt><trkpt lat="40.377674072905315" lon="18.30263298555493"><ele>3.333333333333333</ele><time>2026-04-04T14:33:24.996Z</time></trkpt><trkpt lat="40.37746924738307" lon="18.302750261120092"><ele>3.0</ele><time>2026-04-04T14:33:25.996Z</time></trkpt><trkpt lat="40.37726403126222" lon="18.302869082874725"><ele>2.5</ele><time>2026-04-04T14:33:26.996Z</time></trkpt><trkpt lat="40.377054961132856" lon="18.30298954910208"><ele>2.0</ele><time>2026-04-04T14:33:27.996Z</time></trkpt><trkpt lat="40.376845329601686" lon="18.30311514039515"><ele>3.0</ele><time>2026-04-04T14:33:28.996Z</time></trkpt><trkpt lat="40.376629000967924" lon="18.30324174594983"><ele>4.0</ele><time>2026-04-04T14:33:29.996Z</time></trkpt><trkpt lat="40.37641313961754" lon="18.303368214922312"><ele>3.5</ele><time>2026-04-04T14:33:30.996Z</time></trkpt><trkpt lat="40.37620431988013" lon="18.303498463986006"><ele>3.0</ele><time>2026-04-04T14:33:31.996Z</time></trkpt><trkpt lat="40.3759858322935" lon="18.3036209705395"><ele>3.0</ele><time>2026-04-04T14:33:32.997Z</time></trkpt><trkpt lat="40.375778509419526" lon="18.30374136018459"><ele>3.0</ele><time>2026-04-04T14:33:33.996Z</time></trkpt><trkpt lat="40.37556886809514" lon="18.303859833400388"><ele>4.666666666666666</ele><time>2026-04-04T14:33:34.996Z</time></trkpt><trkpt lat="40.37536902168997" lon="18.303982635876952"><ele>6.333333333333333</ele><time>2026-04-04T14:33:35.997Z</time></trkpt><trkpt lat="40.375163073168736" lon="18.304104151182084"><ele>8.0</ele><time>2026-04-04T14:33:36.997Z</time></trkpt><trkpt lat="40.37496132859836" lon="18.304234669286604"><ele>8.0</ele><time>2026-04-04T14:33:37.997Z</time></trkpt><trkpt lat="40.37476173301302" lon="18.30436041896844"><ele>8.0</ele><time>2026-04-04T14:33:38.997Z</time></trkpt><trkpt lat="40.37457980410173" lon="18.30451046424087"><ele>8.0</ele><time>2026-04-04T14:33:39.997Z</time></trkpt><trkpt lat="40.3743785644493" lon="18.304633001831974"><ele>7.666666666666666</ele><time>2026-04-04T14:33:40.997Z</time></trkpt><trkpt lat="40.37418130621339" lon="18.304750704713324"><ele>7.333333333333334</ele><time>2026-04-04T14:33:41.997Z</time></trkpt><trkpt lat="40.37399818934799" lon="18.304868244336674"><ele>7.0</ele><time>2026-04-04T14:33:42.996Z</time></trkpt><trkpt lat="40.37381468349209" lon="18.30500190118358"><ele>6.333333333333334</ele><time>2026-04-04T14:33:43.996Z</time></trkpt><trkpt lat="40.373640639391" lon="18.305154641611022"><ele>5.666666666666667</ele><time>2026-04-04T14:33:44.996Z</time></trkpt><trkpt lat="40.37346737216391" lon="18.305311286460515"><ele>5.0</ele><time>2026-04-04T14:33:45.997Z</time></trkpt><trkpt lat="40.373294413684235" lon="18.30547059136366"><ele>4.666666666666667</ele><time>2026-04-04T14:33:46.997Z</time></trkpt><trkpt lat="40.37311250318564" lon="18.30563900954198"><ele>4.333333333333333</ele><time>2026-04-04T14:33:47.997Z</time></trkpt><trkpt lat="40.372928237319414" lon="18.30581103258557"><ele>4.0</ele><time>2026-04-04T14:33:48.997Z</time></trkpt><trkpt lat="40.372741022160994" lon="18.30598442691191"><ele>5.0</ele><time>2026-04-04T14:33:49.997Z</time></trkpt><trkpt lat="40.37255200070672" lon="18.30615661081622"><ele>6.0</ele><time>2026-04-04T14:33:50.997Z</time></trkpt><trkpt lat="40.37235426767353" lon="18.306327299723776"><ele>7.0</ele><time>2026-04-04T14:33:51.997Z</time></trkpt><trkpt lat="40.37216717456883" lon="18.306508227914545"><ele>8.0</ele><time>2026-04-04T14:33:52.997Z</time></trkpt><trkpt lat="40.37197032500477" lon="18.306684415561076"><ele>8.0</ele><time>2026-04-04T14:33:53.997Z</time></trkpt><trkpt lat="40.371778105555855" lon="18.306851463906455"><ele>8.0</ele><time>2026-04-04T14:33:54.997Z</time></trkpt><trkpt lat="40.371599058268046" lon="18.307009200638035"><ele>8.0</ele><time>2026-04-04T14:33:55.997Z</time></trkpt><trkpt lat="40.37143004374551" lon="18.307148926680227"><ele>8.666666666666666</ele><time>2026-04-04T14:33:56.997Z</time></trkpt><trkpt lat="40.3712788916709" lon="18.307278431606036"><ele>9.333333333333334</ele><time>2026-04-04T14:33:57.997Z</time></trkpt><trkpt lat="40.37113652216927" lon="18.30740884205157"><ele>10.0</ele><time>2026-04-04T14:33:58.997Z</time></trkpt><trkpt lat="40.370982314165786" lon="18.307541079571404"><ele>10.0</ele><time>2026-04-04T14:33:59.997Z</time></trkpt><trkpt lat="40.37082493973179" lon="18.307676454205286"><ele>10.0</ele><time>2026-04-04T14:34:00.997Z</time></trkpt><trkpt lat="40.3706843000604" lon="18.307803527971206"><ele>10.0</ele><time>2026-04-04T14:34:01.997Z</time></trkpt><trkpt lat="40.37051884422792" lon="18.307951821473274"><ele>9.0</ele><time>2026-04-04T14:34:02.997Z</time></trkpt><trkpt lat="40.370357512881135" lon="18.30808641941339"><ele>8.0</ele><time>2026-04-04T14:34:03.997Z</time></trkpt><trkpt lat="40.37020610184167" lon="18.308218562942216"><ele>7.0</ele><time>2026-04-04T14:34:04.997Z</time></trkpt><trkpt lat="40.37004918168467" lon="18.30835491291726"><ele>7.0</ele><time>2026-04-04T14:34:05.997Z</time></trkpt><trkpt lat="40.36990980521959" lon="18.308473426486366"><ele>7.0</ele><time>2026-04-04T14:34:06.997Z</time></trkpt><trkpt lat="40.369785151959995" lon="18.308596708477136"><ele>7.0</ele><time>2026-04-04T14:34:07.997Z</time></trkpt><trkpt lat="40.36966066054384" lon="18.3086889923514"><ele>7.333333333333334</ele><time>2026-04-04T14:34:08.997Z</time></trkpt><trkpt lat="40.36958054662993" lon="18.30874218979887"><ele>7.666666666666667</ele><time>2026-04-04T14:34:09.997Z</time></trkpt><trkpt lat="40.36953461822626" lon="18.30880260738358"><ele>8.0</ele><time>2026-04-04T14:34:11.997Z</time></trkpt><trkpt lat="40.3694642190663" lon="18.308864947436938"><ele>8.333333333333334</ele><time>2026-04-04T14:35:05.996Z</time></trkpt><trkpt lat="40.369385090175236" lon="18.308923474194295"><ele>8.666666666666666</ele><time>2026-04-04T14:35:06.996Z</time></trkpt><trkpt lat="40.36930815246412" lon="18.308991246213573"><ele>9.0</ele><time>2026-04-04T14:35:07.996Z</time></trkpt><trkpt lat="40.36925310964518" lon="18.309049932216443"><ele>9.0</ele><time>2026-04-04T14:35:08.996Z</time></trkpt><trkpt lat="40.36923724994905" lon="18.309158218247962"><ele>9.0</ele><time>2026-04-04T14:35:10.996Z</time></trkpt><trkpt lat="40.36933245562111" lon="18.309239994712545"><ele>9.0</ele><time>2026-04-04T14:35:12.996Z</time></trkpt><trkpt lat="40.36939359110284" lon="18.30929979253834"><ele>9.0</ele><time>2026-04-04T14:35:13.996Z</time></trkpt><trkpt lat="40.36946288543895" lon="18.309384680404374"><ele>9.0</ele><time>2026-04-04T14:35:14.996Z</time></trkpt><trkpt lat="40.36953109645654" lon="18.309487231074712"><ele>9.0</ele><time>2026-04-04T14:35:15.996Z</time></trkpt><trkpt lat="40.36959733924122" lon="18.309611638049716"><ele>9.0</ele><time>2026-04-04T14:35:16.996Z</time></trkpt><trkpt lat="40.36966210254049" lon="18.30974486573496"><ele>9.0</ele><time>2026-04-04T14:35:17.996Z</time></trkpt><trkpt lat="40.3697257646596" lon="18.309884976051652"><ele>9.0</ele><time>2026-04-04T14:35:18.996Z</time></trkpt><trkpt lat="40.3698019040938" lon="18.310024908853745"><ele>10.5</ele><time>2026-04-04T14:35:19.996Z</time></trkpt><trkpt lat="40.3698888969986" lon="18.310161609492507"><ele>12.0</ele><time>2026-04-04T14:35:20.996Z</time></trkpt><trkpt lat="40.36998667814929" lon="18.310288815642014"><ele>13.5</ele><time>2026-04-04T14:35:21.996Z</time></trkpt><trkpt lat="40.37008964471901" lon="18.31040600588679"><ele>15.0</ele><time>2026-04-04T14:35:22.996Z</time></trkpt><trkpt lat="40.370213851237196" lon="18.31050281007427"><ele>14.75</ele><time>2026-04-04T14:35:23.996Z</time></trkpt><trkpt lat="40.37034471127349" lon="18.31058533511579"><ele>14.5</ele><time>2026-04-04T14:35:24.996Z</time></trkpt><trkpt lat="40.37046305206775" lon="18.31066806608722"><ele>14.25</ele><time>2026-04-04T14:35:25.996Z</time></trkpt><trkpt lat="40.370598508453384" lon="18.310739876566945"><ele>14.0</ele><time>2026-04-04T14:35:26.996Z</time></trkpt><trkpt lat="40.370717131646366" lon="18.31080722420024"><ele>14.0</ele><time>2026-04-04T14:35:27.996Z</time></trkpt><trkpt lat="40.370840382612165" lon="18.310883319977663"><ele>14.0</ele><time>2026-04-04T14:35:28.996Z</time></trkpt><trkpt lat="40.37095732256278" lon="18.310952218619885"><ele>14.0</ele><time>2026-04-04T14:35:29.996Z</time></trkpt><trkpt lat="40.3710707497199" lon="18.311027842063048"><ele>14.0</ele><time>2026-04-04T14:35:30.996Z</time></trkpt><trkpt lat="40.37119163999388" lon="18.31110484648665"><ele>14.0</ele><time>2026-04-04T14:35:31.996Z</time></trkpt><trkpt lat="40.37130100693299" lon="18.311216847679017"><ele>14.0</ele><time>2026-04-04T14:35:32.996Z</time></trkpt><trkpt lat="40.371404937618145" lon="18.31135576413717"><ele>14.0</ele><time>2026-04-04T14:35:33.996Z</time></trkpt><trkpt lat="40.371496163646825" lon="18.311520820051893"><ele>14.0</ele><time>2026-04-04T14:35:34.996Z</time></trkpt><trkpt lat="40.37158728763586" lon="18.311672366729177"><ele>13.75</ele><time>2026-04-04T14:35:35.996Z</time></trkpt><trkpt lat="40.37168021986661" lon="18.311813010003714"><ele>13.5</ele><time>2026-04-04T14:35:36.996Z</time></trkpt><trkpt lat="40.37176831571322" lon="18.311960214233284"><ele>13.25</ele><time>2026-04-04T14:35:37.996Z</time></trkpt><trkpt lat="40.37185022795126" lon="18.31211928010786"><ele>13.0</ele><time>2026-04-04T14:35:38.997Z</time></trkpt><trkpt lat="40.37193560587698" lon="18.31226773590409"><ele>13.0</ele><time>2026-04-04T14:35:39.997Z</time></trkpt><trkpt lat="40.37201445965136" lon="18.312418061984612"><ele>13.0</ele><time>2026-04-04T14:35:40.997Z</time></trkpt><trkpt lat="40.372089608809524" lon="18.31256079675016"><ele>13.0</ele><time>2026-04-04T14:35:41.997Z</time></trkpt><trkpt lat="40.372159316174454" lon="18.31268200723181"><ele>13.0</ele><time>2026-04-04T14:35:42.996Z</time></trkpt><trkpt lat="40.37223198472222" lon="18.312798909721767"><ele>12.4</ele><time>2026-04-04T14:35:43.996Z</time></trkpt><trkpt lat="40.37230320887941" lon="18.312901712495425"><ele>11.8</ele><time>2026-04-04T14:35:44.996Z</time></trkpt><trkpt lat="40.372366095736936" lon="18.313011620865133"><ele>11.2</ele><time>2026-04-04T14:35:45.996Z</time></trkpt><trkpt lat="40.37242770700487" lon="18.31311687958838"><ele>10.6</ele><time>2026-04-04T14:35:46.996Z</time></trkpt><trkpt lat="40.37249557413142" lon="18.313226517992373"><ele>10.0</ele><time>2026-04-04T14:35:47.997Z</time></trkpt><trkpt lat="40.37256424738178" lon="18.31333011322175"><ele>10.0</ele><time>2026-04-04T14:35:48.997Z</time></trkpt><trkpt lat="40.37263149116666" lon="18.313444099508217"><ele>10.0</ele><time>2026-04-04T14:35:49.997Z</time></trkpt><trkpt lat="40.37269510480327" lon="18.313557566534808"><ele>10.0</ele><time>2026-04-04T14:35:50.997Z</time></trkpt><trkpt lat="40.37275263288651" lon="18.313662635845592"><ele>10.0</ele><time>2026-04-04T14:35:51.997Z</time></trkpt><trkpt lat="40.37280722432173" lon="18.31376462997307"><ele>10.0</ele><time>2026-04-04T14:35:52.997Z</time></trkpt><trkpt lat="40.37286450563429" lon="18.313871980785493"><ele>9.666666666666668</ele><time>2026-04-04T14:35:53.997Z</time></trkpt><trkpt lat="40.37292342894912" lon="18.313969955182376"><ele>9.333333333333334</ele><time>2026-04-04T14:35:54.997Z</time></trkpt><trkpt lat="40.372972617924376" lon="18.31406456437544"><ele>9.0</ele><time>2026-04-04T14:35:55.997Z</time></trkpt><trkpt lat="40.37302529552599" lon="18.314138128441886"><ele>8.666666666666666</ele><time>2026-04-04T14:35:56.997Z</time></trkpt><trkpt lat="40.37308165670504" lon="18.314187286864772"><ele>8.333333333333332</ele><time>2026-04-04T14:35:57.997Z</time></trkpt><trkpt lat="40.373148264036786" lon="18.31422052636549"><ele>8.0</ele><time>2026-04-04T14:35:58.997Z</time></trkpt><trkpt lat="40.37322825445796" lon="18.314228871651558"><ele>7.166666666666666</ele><time>2026-04-04T14:35:59.997Z</time></trkpt><trkpt lat="40.37330607334885" lon="18.31422659215753"><ele>6.333333333333333</ele><time>2026-04-04T14:36:00.997Z</time></trkpt><trkpt lat="40.373384117226955" lon="18.314199107308536"><ele>5.5</ele><time>2026-04-04T14:36:01.997Z</time></trkpt><trkpt lat="40.37344705557223" lon="18.31416628035103"><ele>4.666666666666666</ele><time>2026-04-04T14:36:02.997Z</time></trkpt><trkpt lat="40.37356244396095" lon="18.3141416082596"><ele>3.833333333333333</ele><time>2026-04-04T14:36:04.997Z</time></trkpt><trkpt lat="40.373627361611284" lon="18.31413762821351"><ele>3.0</ele><time>2026-04-04T14:36:05.997Z</time></trkpt><trkpt lat="40.373690205827124" lon="18.314119882818026"><ele>3.0</ele><time>2026-04-04T14:36:06.997Z</time></trkpt><trkpt lat="40.373748341045754" lon="18.314078055545362"><ele>3.0</ele><time>2026-04-04T14:36:07.997Z</time></trkpt><trkpt lat="40.37381570376381" lon="18.314022402088405"><ele>3.0</ele><time>2026-04-04T14:36:08.997Z</time></trkpt><trkpt lat="40.37387654647625" lon="18.31396076285392"><ele>3.0</ele><time>2026-04-04T14:36:09.997Z</time></trkpt><trkpt lat="40.37393185506767" lon="18.31390559012741"><ele>3.0</ele><time>2026-04-04T14:36:10.996Z</time></trkpt><trkpt lat="40.37401848882739" lon="18.313814295992078"><ele>3.0</ele><time>2026-04-04T14:36:12.996Z</time></trkpt><trkpt lat="40.37410384892345" lon="18.313755973525467"><ele>3.1666666666666665</ele><time>2026-04-04T14:36:14.996Z</time></trkpt><trkpt lat="40.374211915145686" lon="18.31366352619565"><ele>3.333333333333333</ele><time>2026-04-04T14:36:16.996Z</time></trkpt><trkpt lat="40.37427743249233" lon="18.31361227149461"><ele>3.5</ele><time>2026-04-04T14:36:17.996Z</time></trkpt><trkpt lat="40.374341796247556" lon="18.313562688636207"><ele>3.6666666666666665</ele><time>2026-04-04T14:36:18.996Z</time></trkpt><trkpt lat="40.37440330930987" lon="18.313513812242167"><ele>3.833333333333333</ele><time>2026-04-04T14:36:19.996Z</time></trkpt><trkpt lat="40.374458976378875" lon="18.313468411936014"><ele>4.0</ele><time>2026-04-04T14:36:20.996Z</time></trkpt><trkpt lat="40.3745622543539" lon="18.313379638113673"><ele>4.0</ele><time>2026-04-04T14:36:22.996Z</time></trkpt><trkpt lat="40.374628453071026" lon="18.313268802321794"><ele>4.0</ele><time>2026-04-04T14:36:24.996Z</time></trkpt><trkpt lat="40.374649404603765" lon="18.31317751026641"><ele>4.0</ele><time>2026-04-04T14:36:26.996Z</time></trkpt><trkpt lat="40.374710426810864" lon="18.313069268244533"><ele>4.0</ele><time>2026-04-04T14:36:29.996Z</time></trkpt><trkpt lat="40.37479958520296" lon="18.313003942631003"><ele>4.0</ele><time>2026-04-04T14:36:31.996Z</time></trkpt><trkpt lat="40.37486405107352" lon="18.31294476520147"><ele>4.2</ele><time>2026-04-04T14:36:33.996Z</time></trkpt><trkpt lat="40.37493927561707" lon="18.31287372984479"><ele>4.4</ele><time>2026-04-04T14:36:35.996Z</time></trkpt><trkpt lat="40.37503970914022" lon="18.312793563897227"><ele>4.6</ele><time>2026-04-04T14:36:37.996Z</time></trkpt><trkpt lat="40.375126414989325" lon="18.312729564805814"><ele>4.8</ele><time>2026-04-04T14:36:39.996Z</time></trkpt><trkpt lat="40.37520512060305" lon="18.312663849640966"><ele>5.0</ele><time>2026-04-04T14:36:41.996Z</time></trkpt><trkpt lat="40.37529194256515" lon="18.31258501050318"><ele>5.0</ele><time>2026-04-04T14:36:43.996Z</time></trkpt><trkpt lat="40.375392251976166" lon="18.312487441561977"><ele>5.0</ele><time>2026-04-04T14:36:45.996Z</time></trkpt><trkpt lat="40.3754538675132" lon="18.312437504531307"><ele>5.0</ele><time>2026-04-04T14:36:46.996Z</time></trkpt><trkpt lat="40.37554542969138" lon="18.312353033646584"><ele>5.0</ele><time>2026-04-04T14:36:48.996Z</time></trkpt><trkpt lat="40.375603927023185" lon="18.31229901998789"><ele>5.0</ele><time>2026-04-04T14:36:50.996Z</time></trkpt><trkpt lat="40.375671820592686" lon="18.312236769391806"><ele>4.833333333333334</ele><time>2026-04-04T14:36:54.996Z</time></trkpt><trkpt lat="40.37574423473723" lon="18.312172282944477"><ele>4.666666666666667</ele><time>2026-04-04T14:36:57.996Z</time></trkpt><trkpt lat="40.37579504790499" lon="18.312123104402858"><ele>4.5</ele><time>2026-04-04T14:36:59.996Z</time></trkpt><trkpt lat="40.37584782171271" lon="18.312077095785774"><ele>4.333333333333333</ele><time>2026-04-04T14:37:01.996Z</time></trkpt><trkpt lat="40.37590445906242" lon="18.312024207021345"><ele>4.166666666666666</ele><time>2026-04-04T14:37:04.996Z</time></trkpt><trkpt lat="40.37582160678376" lon="18.31205616814066"><ele>4.0</ele><time>2026-04-04T14:37:16.996Z</time></trkpt><trkpt lat="40.375747842677576" lon="18.312119106187154"><ele>4.0</ele><time>2026-04-04T14:37:19.996Z</time></trkpt><trkpt lat="40.375682245950806" lon="18.312180950548854"><ele>4.0</ele><time>2026-04-04T14:37:21.996Z</time></trkpt><trkpt lat="40.37559709471851" lon="18.312259254398874"><ele>4.0</ele><time>2026-04-04T14:37:23.996Z</time></trkpt><trkpt lat="40.37554145302642" lon="18.31230288504204"><ele>4.0</ele><time>2026-04-04T14:37:24.996Z</time></trkpt><trkpt lat="40.375437945323796" lon="18.31238332919628"><ele>4.0</ele><time>2026-04-04T14:37:26.996Z</time></trkpt><trkpt lat="40.37535295779262" lon="18.31245679535221"><ele>4.2</ele><time>2026-04-04T14:37:27.996Z</time></trkpt><trkpt lat="40.37530069154187" lon="18.312504225365664"><ele>4.4</ele><time>2026-04-04T14:37:28.996Z</time></trkpt><trkpt lat="40.375204912553656" lon="18.312594059039796"><ele>4.6</ele><time>2026-04-04T14:37:30.996Z</time></trkpt><trkpt lat="40.37511974723519" lon="18.312675904400763"><ele>4.8</ele><time>2026-04-04T14:37:32.996Z</time></trkpt><trkpt lat="40.375046429323305" lon="18.312744632480257"><ele>5.0</ele><time>2026-04-04T14:37:34.996Z</time></trkpt><trkpt lat="40.37495982671702" lon="18.312818389624628"><ele>5.0</ele><time>2026-04-04T14:37:36.996Z</time></trkpt><trkpt lat="40.37486806799064" lon="18.312900970715948"><ele>5.0</ele><time>2026-04-04T14:37:38.996Z</time></trkpt><trkpt lat="40.374767837962516" lon="18.31298367487807"><ele>5.0</ele><time>2026-04-04T14:37:40.996Z</time></trkpt><trkpt lat="40.37470987467394" lon="18.313029664294003"><ele>5.0</ele><time>2026-04-04T14:37:41.996Z</time></trkpt><trkpt lat="40.37465074537006" lon="18.313073200269724"><ele>5.0</ele><time>2026-04-04T14:37:42.996Z</time></trkpt><trkpt lat="40.37454865339828" lon="18.313161190457375"><ele>4.75</ele><time>2026-04-04T14:37:44.996Z</time></trkpt><trkpt lat="40.374452725188924" lon="18.313242546881213"><ele>4.5</ele><time>2026-04-04T14:37:46.996Z</time></trkpt><trkpt lat="40.374359342815566" lon="18.313333355182444"><ele>4.25</ele><time>2026-04-04T14:37:48.996Z</time></trkpt><trkpt lat="40.37426534249639" lon="18.31340313309066"><ele>4.0</ele><time>2026-04-04T14:37:50.997Z</time></trkpt><trkpt lat="40.37415444387994" lon="18.313451635004938"><ele>3.9999999999999996</ele><time>2026-04-04T14:37:52.996Z</time></trkpt><trkpt lat="40.37408744773908" lon="18.313460865431356"><ele>4.0</ele><time>2026-04-04T14:37:53.997Z</time></trkpt><trkpt lat="40.374019670237786" lon="18.313474327856433"><ele>4.0</ele><time>2026-04-04T14:37:54.996Z</time></trkpt><trkpt lat="40.373942632792094" lon="18.31348995045832"><ele>4.0</ele><time>2026-04-04T14:37:55.996Z</time></trkpt><trkpt lat="40.37386078688708" lon="18.313502006629456"><ele>3.9999999999999996</ele><time>2026-04-04T14:37:56.997Z</time></trkpt><trkpt lat="40.37377215926287" lon="18.313505023068647"><ele>4.0</ele><time>2026-04-04T14:37:57.996Z</time></trkpt><trkpt lat="40.37368683701924" lon="18.31350314729775"><ele>4.4</ele><time>2026-04-04T14:37:58.996Z</time></trkpt><trkpt lat="40.373600607614755" lon="18.313494971525568"><ele>4.800000000000001</ele><time>2026-04-04T14:37:59.996Z</time></trkpt><trkpt lat="40.3735136475962" lon="18.31347953889975"><ele>5.199999999999999</ele><time>2026-04-04T14:38:00.996Z</time></trkpt><trkpt lat="40.373422758878895" lon="18.31345554644426"><ele>5.6</ele><time>2026-04-04T14:38:01.996Z</time></trkpt><trkpt lat="40.37333139248086" lon="18.313428460073048"><ele>6.0</ele><time>2026-04-04T14:38:02.996Z</time></trkpt><trkpt lat="40.37324300151637" lon="18.313401666032743"><ele>6.0</ele><time>2026-04-04T14:38:03.996Z</time></trkpt><trkpt lat="40.37314625480881" lon="18.313364873064664"><ele>6.0</ele><time>2026-04-04T14:38:04.996Z</time></trkpt><trkpt lat="40.37304947508742" lon="18.313332993532008"><ele>6.0</ele><time>2026-04-04T14:38:05.996Z</time></trkpt><trkpt lat="40.37295760098803" lon="18.313299021566245"><ele>6.0</ele><time>2026-04-04T14:38:06.996Z</time></trkpt><trkpt lat="40.37286070105277" lon="18.313256675183414"><ele>6.0</ele><time>2026-04-04T14:38:07.996Z</time></trkpt><trkpt lat="40.37276495683267" lon="18.313215145182905"><ele>6.5</ele><time>2026-04-04T14:38:08.996Z</time></trkpt><trkpt lat="40.37267024272622" lon="18.313174693817484"><ele>7.0</ele><time>2026-04-04T14:38:09.996Z</time></trkpt><trkpt lat="40.37258792931525" lon="18.31313093030944"><ele>7.5</ele><time>2026-04-04T14:38:10.996Z</time></trkpt><trkpt lat="40.37253281199284" lon="18.31307206893779"><ele>8.0</ele><time>2026-04-04T14:38:11.996Z</time></trkpt><trkpt lat="40.37246140000038" lon="18.313012920481356"><ele>8.5</ele><time>2026-04-04T14:38:12.996Z</time></trkpt><trkpt lat="40.37238820183656" lon="18.312934339463627"><ele>9.0</ele><time>2026-04-04T14:38:13.996Z</time></trkpt><trkpt lat="40.37231721295693" lon="18.312848193877233"><ele>9.0</ele><time>2026-04-04T14:38:14.996Z</time></trkpt><trkpt lat="40.372243464351314" lon="18.312735998043227"><ele>9.0</ele><time>2026-04-04T14:38:15.996Z</time></trkpt><trkpt lat="40.3721586871554" lon="18.312606926143054"><ele>9.0</ele><time>2026-04-04T14:38:16.996Z</time></trkpt><trkpt lat="40.372073558343594" lon="18.31248593452448"><ele>9.0</ele><time>2026-04-04T14:38:17.996Z</time></trkpt><trkpt lat="40.37198681557427" lon="18.31237397314684"><ele>10.0</ele><time>2026-04-04T14:38:18.996Z</time></trkpt><trkpt lat="40.37189880343274" lon="18.31225731865495"><ele>11.0</ele><time>2026-04-04T14:38:19.996Z</time></trkpt><trkpt lat="40.37180367764296" lon="18.312139376592334"><ele>12.0</ele><time>2026-04-04T14:38:20.996Z</time></trkpt><trkpt lat="40.37170757681494" lon="18.312024789660892"><ele>13.0</ele><time>2026-04-04T14:38:21.996Z</time></trkpt><trkpt lat="40.371610579725846" lon="18.311900254354825"><ele>13.0</ele><time>2026-04-04T14:38:22.996Z</time></trkpt><trkpt lat="40.371503282405065" lon="18.31180534865909"><ele>13.0</ele><time>2026-04-04T14:38:23.996Z</time></trkpt><trkpt lat="40.371415821366625" lon="18.31169442763003"><ele>13.0</ele><time>2026-04-04T14:38:24.996Z</time></trkpt><trkpt lat="40.3713235206925" lon="18.311600177453947"><ele>13.0</ele><time>2026-04-04T14:38:25.996Z</time></trkpt><trkpt lat="40.37123216563647" lon="18.311508674505554"><ele>13.25</ele><time>2026-04-04T14:38:26.996Z</time></trkpt><trkpt lat="40.371183356878845" lon="18.31134775907955"><ele>13.5</ele><time>2026-04-04T14:38:27.996Z</time></trkpt><trkpt lat="40.371097034436836" lon="18.311201032911868"><ele>13.75</ele><time>2026-04-04T14:38:28.996Z</time></trkpt><trkpt lat="40.371012630802" lon="18.31104240724611"><ele>14.0</ele><time>2026-04-04T14:38:29.996Z</time></trkpt><trkpt lat="40.37089319009863" lon="18.31090725847008"><ele>14.0</ele><time>2026-04-04T14:38:30.996Z</time></trkpt><trkpt lat="40.370749966622526" lon="18.310787095586196"><ele>14.0</ele><time>2026-04-04T14:38:31.996Z</time></trkpt><trkpt lat="40.370624740555655" lon="18.310694961839612"><ele>14.0</ele><time>2026-04-04T14:38:32.996Z</time></trkpt><trkpt lat="40.37051149166198" lon="18.310618429010752"><ele>14.0</ele><time>2026-04-04T14:38:33.996Z</time></trkpt><trkpt lat="40.37039921093589" lon="18.310576423547772"><ele>14.2</ele><time>2026-04-04T14:38:34.996Z</time></trkpt><trkpt lat="40.37031515315823" lon="18.310528065987263"><ele>14.399999999999999</ele><time>2026-04-04T14:38:35.996Z</time></trkpt><trkpt lat="40.37024710554688" lon="18.31045574576832"><ele>14.6</ele><time>2026-04-04T14:38:36.996Z</time></trkpt><trkpt lat="40.370187158183334" lon="18.310350962766158"><ele>14.8</ele><time>2026-04-04T14:38:37.996Z</time></trkpt><trkpt lat="40.37012629499297" lon="18.310249359745825"><ele>15.0</ele><time>2026-04-04T14:38:38.996Z</time></trkpt><trkpt lat="40.370068062173836" lon="18.310152613332555"><ele>15.0</ele><time>2026-04-04T14:38:39.996Z</time></trkpt><trkpt lat="40.369995994590475" lon="18.310038689491286"><ele>15.0</ele><time>2026-04-04T14:38:40.996Z</time></trkpt><trkpt lat="40.36993977271229" lon="18.30990816728309"><ele>15.0</ele><time>2026-04-04T14:38:41.996Z</time></trkpt><trkpt lat="40.369889555475204" lon="18.30979579141552"><ele>15.0</ele><time>2026-04-04T14:38:42.996Z</time></trkpt><trkpt lat="40.36984809248799" lon="18.309656201707796"><ele>15.0</ele><time>2026-04-04T14:38:43.996Z</time></trkpt><trkpt lat="40.36978809385652" lon="18.30954308727593"><ele>14.166666666666666</ele><time>2026-04-04T14:38:44.996Z</time></trkpt><trkpt lat="40.36972964038755" lon="18.309431720178747"><ele>13.333333333333334</ele><time>2026-04-04T14:38:45.996Z</time></trkpt><trkpt lat="40.36966822289255" lon="18.30936181106828"><ele>12.5</ele><time>2026-04-04T14:38:46.996Z</time></trkpt><trkpt lat="40.36963704356056" lon="18.30927224604747"><ele>11.666666666666668</ele><time>2026-04-04T14:38:47.996Z</time></trkpt><trkpt lat="40.36957675182556" lon="18.30923419886075"><ele>10.833333333333334</ele><time>2026-04-04T14:38:48.996Z</time></trkpt><trkpt lat="40.36956307326987" lon="18.30915231387297"><ele>10.0</ele><time>2026-04-04T14:38:49.996Z</time></trkpt><trkpt lat="40.369543651621704" lon="18.309046027815064"><ele>9.8</ele><time>2026-04-04T14:38:51.996Z</time></trkpt><trkpt lat="40.36948365431008" lon="18.309079570747862"><ele>9.6</ele><time>2026-04-04T14:39:09.995Z</time></trkpt><trkpt lat="40.36951243127355" lon="18.308972050503705"><ele>9.4</ele><time>2026-04-04T14:39:17.995Z</time></trkpt><trkpt lat="40.369627765920406" lon="18.308894883971615"><ele>9.2</ele><time>2026-04-04T14:39:19.995Z</time></trkpt><trkpt lat="40.36969284389722" lon="18.30877622469396"><ele>9.0</ele><time>2026-04-04T14:39:20.995Z</time></trkpt><trkpt lat="40.36978113668236" lon="18.308660784496634"><ele>8.5</ele><time>2026-04-04T14:39:21.995Z</time></trkpt><trkpt lat="40.36987759318978" lon="18.308552247853964"><ele>8.0</ele><time>2026-04-04T14:39:22.995Z</time></trkpt><trkpt lat="40.36998538351533" lon="18.308431910826926"><ele>7.5</ele><time>2026-04-04T14:39:23.995Z</time></trkpt><trkpt lat="40.37010506618197" lon="18.30830184544239"><ele>7.0</ele><time>2026-04-04T14:39:24.995Z</time></trkpt><trkpt lat="40.3702493694806" lon="18.30820027750284"><ele>7.0</ele><time>2026-04-04T14:39:25.995Z</time></trkpt><trkpt lat="40.37040735018724" lon="18.308081321928142"><ele>7.0</ele><time>2026-04-04T14:39:26.995Z</time></trkpt><trkpt lat="40.37055883624111" lon="18.3079579397032"><ele>7.0</ele><time>2026-04-04T14:39:27.995Z</time></trkpt><trkpt lat="40.37071707763131" lon="18.307835271636865"><ele>8.0</ele><time>2026-04-04T14:39:28.995Z</time></trkpt><trkpt lat="40.370877709834616" lon="18.30769554376052"><ele>9.0</ele><time>2026-04-04T14:39:29.995Z</time></trkpt><trkpt lat="40.37102971299257" lon="18.30754859559133"><ele>10.0</ele><time>2026-04-04T14:39:30.995Z</time></trkpt><trkpt lat="40.37119593198659" lon="18.307417482587958"><ele>10.0</ele><time>2026-04-04T14:39:31.995Z</time></trkpt><trkpt lat="40.37135625267997" lon="18.307292500126316"><ele>10.0</ele><time>2026-04-04T14:39:32.995Z</time></trkpt><trkpt lat="40.37150747180719" lon="18.307142948191643"><ele>10.0</ele><time>2026-04-04T14:39:33.995Z</time></trkpt><trkpt lat="40.37168087448918" lon="18.307034692621492"><ele>9.333333333333334</ele><time>2026-04-04T14:39:34.995Z</time></trkpt><trkpt lat="40.37186928868976" lon="18.30697876920648"><ele>8.666666666666666</ele><time>2026-04-04T14:39:35.995Z</time></trkpt><trkpt lat="40.37207345324171" lon="18.30694558204091"><ele>8.0</ele><time>2026-04-04T14:39:36.995Z</time></trkpt><trkpt lat="40.37227854562545" lon="18.30692173965759"><ele>8.0</ele><time>2026-04-04T14:39:37.995Z</time></trkpt><trkpt lat="40.37250554705312" lon="18.306906667972797"><ele>8.0</ele><time>2026-04-04T14:39:38.995Z</time></trkpt><trkpt lat="40.37273284214193" lon="18.306890499775413"><ele>8.0</ele><time>2026-04-04T14:39:39.995Z</time></trkpt><trkpt lat="40.37293955375428" lon="18.306853627969968"><ele>8.0</ele><time>2026-04-04T14:39:40.995Z</time></trkpt><trkpt lat="40.37316882353725" lon="18.306875555990754"><ele>8.0</ele><time>2026-04-04T14:39:41.995Z</time></trkpt><trkpt lat="40.37341392812528" lon="18.306905193448372"><ele>7.5</ele><time>2026-04-04T14:39:42.995Z</time></trkpt><trkpt lat="40.37366598007463" lon="18.30693561247919"><ele>7.0</ele><time>2026-04-04T14:39:43.995Z</time></trkpt><trkpt lat="40.37392163117837" lon="18.30696869064382"><ele>5.0</ele><time>2026-04-04T14:39:44.995Z</time></trkpt><trkpt lat="40.37351437778459" lon="18.305334839924996"><ele>5.0</ele><time>2026-04-04T14:39:45.995Z</time></trkpt><trkpt lat="40.373691062477334" lon="18.305172881609376"><ele>5.0</ele><time>2026-04-04T14:39:46.995Z</time></trkpt><trkpt lat="40.37386811392639" lon="18.305024775704013"><ele>5.0</ele><time>2026-04-04T14:39:47.995Z</time></trkpt><trkpt lat="40.37404610918842" lon="18.304881845080907"><ele>5.333333333333334</ele><time>2026-04-04T14:39:48.995Z</time></trkpt><trkpt lat="40.37423560710875" lon="18.30474800932466"><ele>5.666666666666667</ele><time>2026-04-04T14:39:49.995Z</time></trkpt><trkpt lat="40.37442580890673" lon="18.30462434158626"><ele>6.0</ele><time>2026-04-04T14:39:50.996Z</time></trkpt><trkpt lat="40.3746216131309" lon="18.304506621169757"><ele>6.666666666666666</ele><time>2026-04-04T14:39:51.996Z</time></trkpt><trkpt lat="40.37482645264898" lon="18.304395140304152"><ele>7.333333333333333</ele><time>2026-04-04T14:39:52.996Z</time></trkpt><trkpt lat="40.37502726600402" lon="18.30427994336593"><ele>8.0</ele><time>2026-04-04T14:39:53.996Z</time></trkpt><trkpt lat="40.37522640885331" lon="18.30415183674946"><ele>8.0</ele><time>2026-04-04T14:39:54.997Z</time></trkpt><trkpt lat="40.37543103839446" lon="18.30402908113486"><ele>8.0</ele><time>2026-04-04T14:39:55.997Z</time></trkpt><trkpt lat="40.37563417740717" lon="18.3039018100774"><ele>5.5</ele><time>2026-04-04T14:39:56.996Z</time></trkpt><trkpt lat="40.37583743349225" lon="18.30377734108443"><ele>3.0</ele><time>2026-04-04T14:39:57.996Z</time></trkpt><trkpt lat="40.3760410441991" lon="18.303644334707993"><ele>3.0</ele><time>2026-04-04T14:39:58.996Z</time></trkpt><trkpt lat="40.37625217819796" lon="18.303523270228123"><ele>3.0</ele><time>2026-04-04T14:39:59.997Z</time></trkpt><trkpt lat="40.37646647152172" lon="18.303403435759208"><ele>3.5</ele><time>2026-04-04T14:40:00.996Z</time></trkpt><trkpt lat="40.37667250112156" lon="18.303275246662544"><ele>4.0</ele><time>2026-04-04T14:40:01.996Z</time></trkpt><trkpt lat="40.3768833527461" lon="18.30314865575391"><ele>3.5</ele><time>2026-04-04T14:40:02.996Z</time></trkpt><trkpt lat="40.377090632176305" lon="18.30302231762877"><ele>3.0</ele><time>2026-04-04T14:40:03.996Z</time></trkpt><trkpt lat="40.37730102559916" lon="18.302901429525704"><ele>3.0</ele><time>2026-04-04T14:40:04.996Z</time></trkpt><trkpt lat="40.37751076137931" lon="18.302780014803844"><ele>3.0</ele><time>2026-04-04T14:40:05.996Z</time></trkpt><trkpt lat="40.377718468751326" lon="18.302653133506855"><ele>3.0</ele><time>2026-04-04T14:40:06.996Z</time></trkpt><trkpt lat="40.37792950036715" lon="18.302535796326172"><ele>3.0</ele><time>2026-04-04T14:40:07.996Z</time></trkpt><trkpt lat="40.378137671005284" lon="18.30240479129785"><ele>3.5</ele><time>2026-04-04T14:40:08.996Z</time></trkpt><trkpt lat="40.3783496106948" lon="18.302278873609406"><ele>4.0</ele><time>2026-04-04T14:40:09.996Z</time></trkpt><trkpt lat="40.378553949187044" lon="18.302159696177814"><ele>4.0</ele><time>2026-04-04T14:40:10.996Z</time></trkpt><trkpt lat="40.37875979188543" lon="18.30203613692862"><ele>4.0</ele><time>2026-04-04T14:40:11.996Z</time></trkpt><trkpt lat="40.37895873908677" lon="18.30190615929098"><ele>4.0</ele><time>2026-04-04T14:40:12.996Z</time></trkpt><trkpt lat="40.379163809073965" lon="18.301789820014402"><ele>5.333333333333333</ele><time>2026-04-04T14:40:13.996Z</time></trkpt><trkpt lat="40.37936802270492" lon="18.301684964534566"><ele>6.666666666666666</ele><time>2026-04-04T14:40:14.996Z</time></trkpt><trkpt lat="40.3795804930211" lon="18.301592092980457"><ele>8.0</ele><time>2026-04-04T14:40:15.996Z</time></trkpt><trkpt lat="40.379788770549254" lon="18.30151411279062"><ele>8.0</ele><time>2026-04-04T14:40:16.996Z</time></trkpt><trkpt lat="40.38002083777344" lon="18.301441390865232"><ele>8.0</ele><time>2026-04-04T14:40:17.996Z</time></trkpt><trkpt lat="40.380246598199975" lon="18.301366601379467"><ele>7.0</ele><time>2026-04-04T14:40:18.996Z</time></trkpt><trkpt lat="40.38047046614403" lon="18.301293047593195"><ele>6.0</ele><time>2026-04-04T14:40:19.996Z</time></trkpt><trkpt lat="40.380695597683875" lon="18.301215806292216"><ele>6.0</ele><time>2026-04-04T14:40:20.996Z</time></trkpt><trkpt lat="40.380912831653035" lon="18.301141954671696"><ele>6.0</ele><time>2026-04-04T14:40:21.996Z</time></trkpt><trkpt lat="40.38111855092761" lon="18.301068897319425"><ele>6.0</ele><time>2026-04-04T14:40:22.996Z</time></trkpt><trkpt lat="40.38131582890726" lon="18.300974702564172"><ele>6.333333333333334</ele><time>2026-04-04T14:40:23.996Z</time></trkpt><trkpt lat="40.3815119867415" lon="18.300890419993266"><ele>6.666666666666667</ele><time>2026-04-04T14:40:24.996Z</time></trkpt><trkpt lat="40.381698475735824" lon="18.30076897950796"><ele>7.0</ele><time>2026-04-04T14:40:25.996Z</time></trkpt><trkpt lat="40.38188123949406" lon="18.300617964740855"><ele>7.0</ele><time>2026-04-04T14:40:26.996Z</time></trkpt><trkpt lat="40.38205814575453" lon="18.300458009564103"><ele>7.0</ele><time>2026-04-04T14:40:27.996Z</time></trkpt><trkpt lat="40.38224622957437" lon="18.30029405676142"><ele>7.0</ele><time>2026-04-04T14:40:28.996Z</time></trkpt><trkpt lat="40.38243607549035" lon="18.30012721318875"><ele>7.0</ele><time>2026-04-04T14:40:29.996Z</time></trkpt><trkpt lat="40.382620502209186" lon="18.299975729231008"><ele>7.0</ele><time>2026-04-04T14:40:30.996Z</time></trkpt><trkpt lat="40.38279685244977" lon="18.29981636747094"><ele>7.0</ele><time>2026-04-04T14:40:31.996Z</time></trkpt><trkpt lat="40.3829646366925" lon="18.299648795995598"><ele>6.333333333333334</ele><time>2026-04-04T14:40:32.996Z</time></trkpt><trkpt lat="40.38311668896843" lon="18.29945332058128"><ele>5.666666666666667</ele><time>2026-04-04T14:40:33.996Z</time></trkpt><trkpt lat="40.38325359573632" lon="18.299238223678156"><ele>5.0</ele><time>2026-04-04T14:40:34.996Z</time></trkpt><trkpt lat="40.38336212648542" lon="18.29901817953536"><ele>5.333333333333334</ele><time>2026-04-04T14:40:35.996Z</time></trkpt><trkpt lat="40.383455784741784" lon="18.29881971851242"><ele>5.666666666666667</ele><time>2026-04-04T14:40:36.996Z</time></trkpt><trkpt lat="40.383549402051436" lon="18.29863066203575"><ele>6.0</ele><time>2026-04-04T14:40:37.996Z</time></trkpt><trkpt lat="40.383644903847745" lon="18.298459635244434"><ele>6.0</ele><time>2026-04-04T14:40:38.996Z</time></trkpt><trkpt lat="40.3837453114489" lon="18.298307772458873"><ele>6.0</ele><time>2026-04-04T14:40:39.996Z</time></trkpt><trkpt lat="40.383875443256116" lon="18.298193621944574"><ele>6.0</ele><time>2026-04-04T14:40:40.996Z</time></trkpt><trkpt lat="40.384005299631376" lon="18.298088784743467"><ele>6.0</ele><time>2026-04-04T14:40:41.996Z</time></trkpt><trkpt lat="40.38413194984336" lon="18.297994700801546"><ele>6.0</ele><time>2026-04-04T14:40:42.996Z</time></trkpt><trkpt lat="40.38426746521187" lon="18.297910770447643"><ele>6.0</ele><time>2026-04-04T14:40:43.996Z</time></trkpt><trkpt lat="40.384416354457215" lon="18.297840765516128"><ele>6.0</ele><time>2026-04-04T14:40:44.996Z</time></trkpt><trkpt lat="40.38459026417798" lon="18.297764988220795"><ele>6.0</ele><time>2026-04-04T14:40:45.996Z</time></trkpt><trkpt lat="40.38476977773074" lon="18.297686631703275"><ele>6.0</ele><time>2026-04-04T14:40:46.996Z</time></trkpt><trkpt lat="40.384956406301555" lon="18.297596573107793"><ele>5.666666666666667</ele><time>2026-04-04T14:40:47.996Z</time></trkpt><trkpt lat="40.385133021570695" lon="18.297521820678433"><ele>5.333333333333334</ele><time>2026-04-04T14:40:48.996Z</time></trkpt><trkpt lat="40.38529308888944" lon="18.297441262987412"><ele>5.0</ele><time>2026-04-04T14:40:49.996Z</time></trkpt><trkpt lat="40.38545394535796" lon="18.297368147210776"><ele>5.0</ele><time>2026-04-04T14:40:50.996Z</time></trkpt><trkpt lat="40.38561786178815" lon="18.297292534866635"><ele>5.0</ele><time>2026-04-04T14:40:51.996Z</time></trkpt><trkpt lat="40.38578367460823" lon="18.29722206958599"><ele>5.0</ele><time>2026-04-04T14:40:52.996Z</time></trkpt><trkpt lat="40.38595548825918" lon="18.29714064108633"><ele>5.0</ele><time>2026-04-04T14:40:53.996Z</time></trkpt><trkpt lat="40.3861243685365" lon="18.29705734889932"><ele>5.0</ele><time>2026-04-04T14:40:54.996Z</time></trkpt><trkpt lat="40.38630057775821" lon="18.296979870524083"><ele>5.0</ele><time>2026-04-04T14:40:55.996Z</time></trkpt><trkpt lat="40.38647746092223" lon="18.29690532371824"><ele>4.333333333333334</ele><time>2026-04-04T14:40:56.996Z</time></trkpt><trkpt lat="40.38664240966983" lon="18.29683391313592"><ele>3.666666666666667</ele><time>2026-04-04T14:40:57.996Z</time></trkpt><trkpt lat="40.386801941648926" lon="18.296772210905733"><ele>3.0</ele><time>2026-04-04T14:40:58.996Z</time></trkpt><trkpt lat="40.386941302399975" lon="18.29671353603472"><ele>3.0</ele><time>2026-04-04T14:40:59.995Z</time></trkpt><trkpt lat="40.38706168020332" lon="18.296658340615963"><ele>3.0</ele><time>2026-04-04T14:41:00.995Z</time></trkpt><trkpt lat="40.38716344103636" lon="18.296613309436857"><ele>3.0</ele><time>2026-04-04T14:41:01.995Z</time></trkpt><trkpt lat="40.387257893196406" lon="18.296568060612692"><ele>3.0</ele><time>2026-04-04T14:41:02.995Z</time></trkpt><trkpt lat="40.387345240908104" lon="18.296525559253627"><ele>3.0</ele><time>2026-04-04T14:41:03.995Z</time></trkpt><trkpt lat="40.387423618432464" lon="18.29650958596699"><ele>3.2</ele><time>2026-04-04T14:41:04.995Z</time></trkpt><trkpt lat="40.387512829480855" lon="18.29650666436256"><ele>3.4</ele><time>2026-04-04T14:41:06.995Z</time></trkpt><trkpt lat="40.387574862055935" lon="18.296568755244383"><ele>3.6000000000000005</ele><time>2026-04-04T14:41:08.995Z</time></trkpt><trkpt lat="40.38763447322774" lon="18.29674034178222"><ele>3.8000000000000003</ele><time>2026-04-04T14:41:10.995Z</time></trkpt><trkpt lat="40.387660054684055" lon="18.29684444778295"><ele>4.0</ele><time>2026-04-04T14:41:11.995Z</time></trkpt><trkpt lat="40.38769350079259" lon="18.296969044539498"><ele>4.0</ele><time>2026-04-04T14:41:12.995Z</time></trkpt><trkpt lat="40.387734280755254" lon="18.29716157236961"><ele>4.0</ele><time>2026-04-04T14:41:13.995Z</time></trkpt><trkpt lat="40.38779422497865" lon="18.297357631412233"><ele>4.0</ele><time>2026-04-04T14:41:14.995Z</time></trkpt><trkpt lat="40.387839224173845" lon="18.2975473445773"><ele>4.0</ele><time>2026-04-04T14:41:15.995Z</time></trkpt><trkpt lat="40.3878948093591" lon="18.297728449540337"><ele>4.0</ele><time>2026-04-04T14:41:16.995Z</time></trkpt><trkpt lat="40.38795844126883" lon="18.297913559609558"><ele>4.0</ele><time>2026-04-04T14:41:17.995Z</time></trkpt><trkpt lat="40.38802124951303" lon="18.29810612388083"><ele>4.0</ele><time>2026-04-04T14:41:18.995Z</time></trkpt><trkpt lat="40.38808257615952" lon="18.29829136255542"><ele>4.0</ele><time>2026-04-04T14:41:19.995Z</time></trkpt><trkpt lat="40.38813464924274" lon="18.29845956318651"><ele>4.0</ele><time>2026-04-04T14:41:20.995Z</time></trkpt><trkpt lat="40.38818003818276" lon="18.298625508284537"><ele>4.0</ele><time>2026-04-04T14:41:21.995Z</time></trkpt><trkpt lat="40.388226377662114" lon="18.29878973921866"><ele>3.75</ele><time>2026-04-04T14:41:22.995Z</time></trkpt><trkpt lat="40.38827622405241" lon="18.298951627359564"><ele>3.5</ele><time>2026-04-04T14:41:23.995Z</time></trkpt><trkpt lat="40.388320486814415" lon="18.299112493075103"><ele>3.25</ele><time>2026-04-04T14:41:24.995Z</time></trkpt><trkpt lat="40.38836485088228" lon="18.29927987750084"><ele>3.0</ele><time>2026-04-04T14:41:25.995Z</time></trkpt><trkpt lat="40.38840699235854" lon="18.29945433125475"><ele>3.0</ele><time>2026-04-04T14:41:26.995Z</time></trkpt><trkpt lat="40.388451630715004" lon="18.29963650500001"><ele>3.0</ele><time>2026-04-04T14:41:27.995Z</time></trkpt><trkpt lat="40.38849936452568" lon="18.299822242841703"><ele>3.0</ele><time>2026-04-04T14:41:28.995Z</time></trkpt><trkpt lat="40.38854683158621" lon="18.300005442125578"><ele>3.0</ele><time>2026-04-04T14:41:29.995Z</time></trkpt><trkpt lat="40.38859495499114" lon="18.3001928425027"><ele>3.0</ele><time>2026-04-04T14:41:30.995Z</time></trkpt><trkpt lat="40.388642074865736" lon="18.30038281931789"><ele>3.0</ele><time>2026-04-04T14:41:31.995Z</time></trkpt><trkpt lat="40.38868472812165" lon="18.300577021072712"><ele>3.0</ele><time>2026-04-04T14:41:32.995Z</time></trkpt><trkpt lat="40.388732764814264" lon="18.300768103687137"><ele>3.0</ele><time>2026-04-04T14:41:33.995Z</time></trkpt><trkpt lat="40.388782509459254" lon="18.30095435418111"><ele>3.0</ele><time>2026-04-04T14:41:34.995Z</time></trkpt><trkpt lat="40.38882810203734" lon="18.301133182549197"><ele>3.0</ele><time>2026-04-04T14:41:35.995Z</time></trkpt><trkpt lat="40.38887016308103" lon="18.301296946421672"><ele>3.0</ele><time>2026-04-04T14:41:36.995Z</time></trkpt><trkpt lat="40.388907030674396" lon="18.301455209283553"><ele>2.75</ele><time>2026-04-04T14:41:37.995Z</time></trkpt><trkpt lat="40.38895069718429" lon="18.3016177154088"><ele>2.5</ele><time>2026-04-04T14:41:38.995Z</time></trkpt><trkpt lat="40.38899863049034" lon="18.301788427565267"><ele>2.25</ele><time>2026-04-04T14:41:39.995Z</time></trkpt><trkpt lat="40.389038045692885" lon="18.30196588336138"><ele>2.0</ele><time>2026-04-04T14:41:40.995Z</time></trkpt><trkpt lat="40.3890871947387" lon="18.302134941120286"><ele>2.0</ele><time>2026-04-04T14:41:41.995Z</time></trkpt><trkpt lat="40.389129081831676" lon="18.302305312935502"><ele>2.0</ele><time>2026-04-04T14:41:42.995Z</time></trkpt><trkpt lat="40.389171005833205" lon="18.302467154733645"><ele>2.0</ele><time>2026-04-04T14:41:43.995Z</time></trkpt><trkpt lat="40.38920653437045" lon="18.302606935014648"><ele>2.0</ele><time>2026-04-04T14:41:44.995Z</time></trkpt><trkpt lat="40.38923808654041" lon="18.302729673888972"><ele>2.0</ele><time>2026-04-04T14:41:45.995Z</time></trkpt><trkpt lat="40.38926758805179" lon="18.302828551806346"><ele>2.0</ele><time>2026-04-04T14:41:46.995Z</time></trkpt><trkpt lat="40.38930460980017" lon="18.302956592402822"><ele>2.0</ele><time>2026-04-04T14:41:48.995Z</time></trkpt><trkpt lat="40.389316962266456" lon="18.303050708320914"><ele>2.0</ele><time>2026-04-04T14:42:13.996Z</time></trkpt><trkpt lat="40.389357136593915" lon="18.30320701809645"><ele>2.0</ele><time>2026-04-04T14:42:15.996Z</time></trkpt><trkpt lat="40.389389340297235" lon="18.30333012235472"><ele>2.6666666666666665</ele><time>2026-04-04T14:42:16.996Z</time></trkpt><trkpt lat="40.389446868235986" lon="18.30349870475769"><ele>3.333333333333333</ele><time>2026-04-04T14:42:17.996Z</time></trkpt><trkpt lat="40.389493933449174" lon="18.303689290000833"><ele>4.0</ele><time>2026-04-04T14:42:18.996Z</time></trkpt><trkpt lat="40.38955096959495" lon="18.30390034015237"><ele>3.5</ele><time>2026-04-04T14:42:19.996Z</time></trkpt><trkpt lat="40.38959863806851" lon="18.30409008287607"><ele>3.0</ele><time>2026-04-04T14:42:20.996Z</time></trkpt><trkpt lat="40.38963919819012" lon="18.304260771452523"><ele>2.5</ele><time>2026-04-04T14:42:21.996Z</time></trkpt><trkpt lat="40.38967240098078" lon="18.30441737254288"><ele>2.0</ele><time>2026-04-04T14:42:22.996Z</time></trkpt><trkpt lat="40.389712676504956" lon="18.304553590157163"><ele>2.0</ele><time>2026-04-04T14:42:23.996Z</time></trkpt><trkpt lat="40.38975535753662" lon="18.30468831271776"><ele>2.0</ele><time>2026-04-04T14:42:24.996Z</time></trkpt><trkpt lat="40.38979039033237" lon="18.304804837830485"><ele>2.0</ele><time>2026-04-04T14:42:25.996Z</time></trkpt><trkpt lat="40.38982335801708" lon="18.30490672067158"><ele>2.0</ele><time>2026-04-04T14:42:26.996Z</time></trkpt><trkpt lat="40.389842751502954" lon="18.305000455710697"><ele>2.0</ele><time>2026-04-04T14:42:27.996Z</time></trkpt><trkpt lat="40.38983575785625" lon="18.305165832078398"><ele>1.6666666666666665</ele><time>2026-04-04T14:42:29.996Z</time></trkpt><trkpt lat="40.38981638081895" lon="18.305248215952474"><ele>1.3333333333333333</ele><time>2026-04-04T14:42:30.996Z</time></trkpt><trkpt lat="40.389784657234536" lon="18.30532713679887"><ele>1.0</ele><time>2026-04-04T14:42:31.996Z</time></trkpt><trkpt lat="40.38974498556464" lon="18.305399347131207"><ele>0.6666666666666666</ele><time>2026-04-04T14:42:32.996Z</time></trkpt><trkpt lat="40.38967595473965" lon="18.30547929449945"><ele>0.3333333333333333</ele><time>2026-04-04T14:42:33.996Z</time></trkpt><trkpt lat="40.38963774548557" lon="18.305579461745463"><ele>0.0</ele><time>2026-04-04T14:42:34.996Z</time></trkpt><trkpt lat="40.38961912085373" lon="18.30567372835561"><ele>0.0</ele><time>2026-04-04T14:42:35.996Z</time></trkpt><trkpt lat="40.389637653342696" lon="18.305760181168765"><ele>0.0</ele><time>2026-04-04T14:42:36.996Z</time></trkpt><trkpt lat="40.38966973189087" lon="18.305840648380475"><ele>0.0</ele><time>2026-04-04T14:42:37.996Z</time></trkpt><trkpt lat="40.389723286288195" lon="18.30591700388926"><ele>0.0</ele><time>2026-04-04T14:42:38.996Z</time></trkpt><trkpt lat="40.38979060282197" lon="18.305954341998568"><ele>0.0</ele><time>2026-04-04T14:42:39.996Z</time></trkpt><trkpt lat="40.38986304872634" lon="18.30596064697177"><ele>0.0</ele><time>2026-04-04T14:42:40.996Z</time></trkpt><trkpt lat="40.389929625260486" lon="18.305936167770533"><ele>0.0</ele><time>2026-04-04T14:42:41.996Z</time></trkpt><trkpt lat="40.389994357280266" lon="18.30588685372801"><ele>-0.14285714285714285</ele><time>2026-04-04T14:42:42.996Z</time></trkpt><trkpt lat="40.39004832884717" lon="18.30584302493396"><ele>-0.2857142857142857</ele><time>2026-04-04T14:42:43.996Z</time></trkpt><trkpt lat="40.39013681809672" lon="18.305772783568134"><ele>-0.42857142857142855</ele><time>2026-04-04T14:42:45.996Z</time></trkpt><trkpt lat="40.39020746454029" lon="18.30573868869862"><ele>-0.5714285714285714</ele><time>2026-04-04T14:42:47.996Z</time></trkpt><trkpt lat="40.390269225025065" lon="18.305706969471714"><ele>-0.7142857142857142</ele><time>2026-04-04T14:42:49.996Z</time></trkpt><trkpt lat="40.39033163173459" lon="18.30568041414179"><ele>-0.8571428571428571</ele><time>2026-04-04T14:42:51.996Z</time></trkpt><trkpt lat="40.390390519554025" lon="18.305648879314248"><ele>-1.0</ele><time>2026-04-04T14:42:53.996Z</time></trkpt><trkpt lat="40.390481365162366" lon="18.305603621907302"><ele>-0.6666666666666666</ele><time>2026-04-04T14:42:55.996Z</time></trkpt><trkpt lat="40.390540580504315" lon="18.305566019549385"><ele>-0.3333333333333333</ele><time>2026-04-04T14:42:56.996Z</time></trkpt><trkpt lat="40.39060163315265" lon="18.305521474278592"><ele>0.0</ele><time>2026-04-04T14:42:57.996Z</time></trkpt><trkpt lat="40.39066212898085" lon="18.305490482066634"><ele>0.3333333333333333</ele><time>2026-04-04T14:42:58.996Z</time></trkpt><trkpt lat="40.39078224584675" lon="18.305448878028887"><ele>0.6666666666666666</ele><time>2026-04-04T14:43:00.996Z</time></trkpt><trkpt lat="40.39084595471458" lon="18.305420442862985"><ele>1.0</ele><time>2026-04-04T14:43:01.996Z</time></trkpt><trkpt lat="40.39091529340919" lon="18.305385340328147"><ele>0.9999999999999999</ele><time>2026-04-04T14:43:02.996Z</time></trkpt><trkpt lat="40.39098436482816" lon="18.305347291081787"><ele>1.0</ele><time>2026-04-04T14:43:03.996Z</time></trkpt><trkpt lat="40.39105020710897" lon="18.30531350380877"><ele>1.0</ele><time>2026-04-04T14:43:04.996Z</time></trkpt><trkpt lat="40.39117126867261" lon="18.305247327727866"><ele>1.0</ele><time>2026-04-04T14:43:06.996Z</time></trkpt><trkpt lat="40.39124018516983" lon="18.305211579685956"><ele>0.9999999999999999</ele><time>2026-04-04T14:43:07.996Z</time></trkpt><trkpt lat="40.39130721082086" lon="18.305175755179278"><ele>1.0</ele><time>2026-04-04T14:43:08.996Z</time></trkpt><trkpt lat="40.39136944197647" lon="18.305141911651084"><ele>1.0</ele><time>2026-04-04T14:43:09.996Z</time></trkpt><trkpt lat="40.391429543720676" lon="18.305113284909055"><ele>1.0</ele><time>2026-04-04T14:43:10.996Z</time></trkpt><trkpt lat="40.39153482473593" lon="18.305064506346458"><ele>1.0</ele><time>2026-04-04T14:43:12.996Z</time></trkpt><trkpt lat="40.391640987714844" lon="18.305021928674005"><ele>1.0</ele><time>2026-04-04T14:43:14.996Z</time></trkpt><trkpt lat="40.39172909392195" lon="18.304965384946676"><ele>1.0</ele><time>2026-04-04T14:43:16.996Z</time></trkpt><trkpt lat="40.391781848993396" lon="18.30488269277828"><ele>1.0</ele><time>2026-04-04T14:43:18.996Z</time></trkpt><trkpt lat="40.391799463011544" lon="18.30479705618059"><ele>1.0</ele><time>2026-04-04T14:43:20.996Z</time></trkpt><trkpt lat="40.391770984139654" lon="18.304670268435054"><ele>1.0</ele><time>2026-04-04T14:43:22.996Z</time></trkpt><trkpt lat="40.39172824389214" lon="18.304516106388043"><ele>1.0</ele><time>2026-04-04T14:43:24.996Z</time></trkpt><trkpt lat="40.39168876588982" lon="18.30436797687999"><ele>1.0</ele><time>2026-04-04T14:43:26.996Z</time></trkpt><trkpt lat="40.39165432633784" lon="18.304234861711432"><ele>0.8333333333333333</ele><time>2026-04-04T14:43:28.996Z</time></trkpt><trkpt lat="40.3916380692891" lon="18.304109814074327"><ele>0.6666666666666666</ele><time>2026-04-04T14:43:30.996Z</time></trkpt><trkpt lat="40.39167024026184" lon="18.30399484279628"><ele>0.5</ele><time>2026-04-04T14:43:32.996Z</time></trkpt><trkpt lat="40.39173534570362" lon="18.303936056700664"><ele>0.3333333333333333</ele><time>2026-04-04T14:43:35.996Z</time></trkpt><trkpt lat="40.391677396974515" lon="18.303891182958264"><ele>0.16666666666666666</ele><time>2026-04-04T14:43:51.996Z</time></trkpt><trkpt lat="40.39161737974375" lon="18.303936804314375"><ele>0.0</ele><time>2026-04-04T14:43:53.996Z</time></trkpt><trkpt lat="40.391584779169385" lon="18.304105662357557"><ele>0.0</ele><time>2026-04-04T14:43:56.996Z</time></trkpt><trkpt lat="40.39160233579053" lon="18.304187667133156"><ele>0.0</ele><time>2026-04-04T14:43:57.996Z</time></trkpt><trkpt lat="40.391630146087806" lon="18.3042908841938"><ele>0.0</ele><time>2026-04-04T14:43:58.996Z</time></trkpt><trkpt lat="40.39165675865937" lon="18.30439123065183"><ele>0.0</ele><time>2026-04-04T14:43:59.996Z</time></trkpt><trkpt lat="40.39167617515046" lon="18.304482203913647"><ele>0.0</ele><time>2026-04-04T14:44:00.995Z</time></trkpt><trkpt lat="40.39169529448396" lon="18.30456845505705"><ele>0.0</ele><time>2026-04-04T14:44:01.995Z</time></trkpt><trkpt lat="40.39171471903769" lon="18.30464919555787"><ele>0.0</ele><time>2026-04-04T14:44:02.996Z</time></trkpt><trkpt lat="40.391740425119146" lon="18.30479689406072"><ele>0.2</ele><time>2026-04-04T14:44:04.996Z</time></trkpt><trkpt lat="40.39170362181149" lon="18.304924016338134"><ele>0.4</ele><time>2026-04-04T14:44:06.995Z</time></trkpt><trkpt lat="40.39159232867696" lon="18.305018499375652"><ele>0.6000000000000001</ele><time>2026-04-04T14:44:08.996Z</time></trkpt><trkpt lat="40.39151518615825" lon="18.305060232989412"><ele>0.8</ele><time>2026-04-04T14:44:09.996Z</time></trkpt><trkpt lat="40.391448353581" lon="18.305094440773317"><ele>1.0</ele><time>2026-04-04T14:44:10.996Z</time></trkpt><trkpt lat="40.391381529275144" lon="18.30512436856226"><ele>0.9999999999999999</ele><time>2026-04-04T14:44:11.997Z</time></trkpt><trkpt lat="40.391321955399675" lon="18.305156674686433"><ele>1.0</ele><time>2026-04-04T14:44:12.996Z</time></trkpt><trkpt lat="40.39121448516765" lon="18.305212969285197"><ele>1.0</ele><time>2026-04-04T14:44:14.996Z</time></trkpt><trkpt lat="40.39115413156406" lon="18.30523980773244"><ele>1.0</ele><time>2026-04-04T14:44:15.996Z</time></trkpt><trkpt lat="40.39107501893755" lon="18.305287322808226"><ele>0.9999999999999999</ele><time>2026-04-04T14:44:17.996Z</time></trkpt><trkpt lat="40.391006235678944" lon="18.305331086515768"><ele>1.0</ele><time>2026-04-04T14:44:19.996Z</time></trkpt><trkpt lat="40.390914206405775" lon="18.305373406125007"><ele>0.9999999999999999</ele><time>2026-04-04T14:44:22.996Z</time></trkpt><trkpt lat="40.39085271765945" lon="18.305404226925372"><ele>1.0</ele><time>2026-04-04T14:44:24.996Z</time></trkpt><trkpt lat="40.39078073246032" lon="18.305433527790537"><ele>1.0</ele><time>2026-04-04T14:44:26.996Z</time></trkpt><trkpt lat="40.39068555079667" lon="18.30548585074927"><ele>1.0</ele><time>2026-04-04T14:44:28.996Z</time></trkpt><trkpt lat="40.390590403413654" lon="18.30553614607719"><ele>0.9999999999999999</ele><time>2026-04-04T14:44:30.996Z</time></trkpt><trkpt lat="40.39052038593854" lon="18.305577624412937"><ele>1.0</ele><time>2026-04-04T14:44:32.996Z</time></trkpt><trkpt lat="40.39044202990731" lon="18.305586082966162"><ele>0.8333333333333333</ele><time>2026-04-04T14:44:34.996Z</time></trkpt><trkpt lat="40.39035015518518" lon="18.30558537783229"><ele>0.6666666666666666</ele><time>2026-04-04T14:44:36.996Z</time></trkpt><trkpt lat="40.390265043387885" lon="18.305558135052532"><ele>0.5</ele><time>2026-04-04T14:44:38.996Z</time></trkpt><trkpt lat="40.39018867031759" lon="18.305490651186513"><ele>0.3333333333333333</ele><time>2026-04-04T14:44:40.996Z</time></trkpt><trkpt lat="40.390134958664014" lon="18.305444039172762"><ele>0.16666666666666666</ele><time>2026-04-04T14:44:41.996Z</time></trkpt><trkpt lat="40.39007479029221" lon="18.305402208035275"><ele>0.0</ele><time>2026-04-04T14:44:42.996Z</time></trkpt><trkpt lat="40.389999823513406" lon="18.305384486161255"><ele>0.0</ele><time>2026-04-04T14:44:43.996Z</time></trkpt><trkpt lat="40.38992261437288" lon="18.305386469004397"><ele>0.0</ele><time>2026-04-04T14:44:44.996Z</time></trkpt><trkpt lat="40.389852118160874" lon="18.305403575647496"><ele>0.0</ele><time>2026-04-04T14:44:45.996Z</time></trkpt><trkpt lat="40.38978929894702" lon="18.305450590728185"><ele>0.0</ele><time>2026-04-04T14:44:46.996Z</time></trkpt><trkpt lat="40.38973289244805" lon="18.305519705351013"><ele>0.0</ele><time>2026-04-04T14:44:47.996Z</time></trkpt><trkpt lat="40.389691564491926" lon="18.3056084859705"><ele>0.0</ele><time>2026-04-04T14:44:48.996Z</time></trkpt><trkpt lat="40.38965707217665" lon="18.305699049628462"><ele>0.0</ele><time>2026-04-04T14:44:49.996Z</time></trkpt><trkpt lat="40.38962775985881" lon="18.30578485169191"><ele>0.0</ele><time>2026-04-04T14:44:50.996Z</time></trkpt><trkpt lat="40.389584858874976" lon="18.305849193585274"><ele>0.0</ele><time>2026-04-04T14:44:51.996Z</time></trkpt><trkpt lat="40.38947687388861" lon="18.305936057212968"><ele>0.0</ele><time>2026-04-04T14:44:53.996Z</time></trkpt><trkpt lat="40.38941224743789" lon="18.305948575173787"><ele>0.0</ele><time>2026-04-04T14:44:54.996Z</time></trkpt><trkpt lat="40.38930881099974" lon="18.305904132448354"><ele>0.0</ele><time>2026-04-04T14:44:56.996Z</time></trkpt><trkpt lat="40.389222115142985" lon="18.305801593055126"><ele>0.0</ele><time>2026-04-04T14:44:58.996Z</time></trkpt><trkpt lat="40.389168285845315" lon="18.30573516590585"><ele>0.0</ele><time>2026-04-04T14:44:59.996Z</time></trkpt><trkpt lat="40.389114136414854" lon="18.30566343439346"><ele>0.0</ele><time>2026-04-04T14:45:00.996Z</time></trkpt><trkpt lat="40.38906759806288" lon="18.30558667550557"><ele>0.0</ele><time>2026-04-04T14:45:01.996Z</time></trkpt><trkpt lat="40.38902586196452" lon="18.30551287803263"><ele>0.0</ele><time>2026-04-04T14:45:02.996Z</time></trkpt><trkpt lat="40.38898454100133" lon="18.30544354927335"><ele>0.0</ele><time>2026-04-04T14:45:03.996Z</time></trkpt><trkpt lat="40.38893578656063" lon="18.305381296500368"><ele>0.0</ele><time>2026-04-04T14:45:04.996Z</time></trkpt><trkpt lat="40.38888400196536" lon="18.305322715342573"><ele>0.2</ele><time>2026-04-04T14:45:05.996Z</time></trkpt><trkpt lat="40.38883503884755" lon="18.30526961912384"><ele>0.4</ele><time>2026-04-04T14:45:06.996Z</time></trkpt><trkpt lat="40.388741485289515" lon="18.305169790617363"><ele>0.6000000000000001</ele><time>2026-04-04T14:45:08.996Z</time></trkpt><trkpt lat="40.38865744419823" lon="18.305087901487735"><ele>0.8</ele><time>2026-04-04T14:45:10.996Z</time></trkpt><trkpt lat="40.388588337138096" lon="18.305016548831805"><ele>1.0</ele><time>2026-04-04T14:45:12.995Z</time></trkpt><trkpt lat="40.38851019385044" lon="18.304930798956704"><ele>1.0</ele><time>2026-04-04T14:45:14.995Z</time></trkpt><trkpt lat="40.38845465294521" lon="18.304869852357953"><ele>1.0</ele><time>2026-04-04T14:45:16.995Z</time></trkpt><trkpt lat="40.388387984223705" lon="18.304867104126675"><ele>1.0</ele><time>2026-04-04T14:45:21.995Z</time></trkpt></trkseg><trkseg><trkpt lat="40.38840691901397" lon="18.304950711268535"><ele>1.0</ele><time>2026-04-04T15:31:21.998Z</time></trkpt><trkpt lat="40.388484869547085" lon="18.305019689446176"><ele>1.0</ele><time>2026-04-04T15:31:23.998Z</time></trkpt><trkpt lat="40.388565082187085" lon="18.30510632403915"><ele>1.0</ele><time>2026-04-04T15:31:25.998Z</time></trkpt><trkpt lat="40.38864441245922" lon="18.305200790286484"><ele>1.0</ele><time>2026-04-04T15:31:27.998Z</time></trkpt><trkpt lat="40.38871866636543" lon="18.305286723905397"><ele>1.0</ele><time>2026-04-04T15:31:29.998Z</time></trkpt><trkpt lat="40.388801811145406" lon="18.30538328925602"><ele>0.8</ele><time>2026-04-04T15:31:31.998Z</time></trkpt><trkpt lat="40.388865584500415" lon="18.30545894320707"><ele>0.6000000000000001</ele><time>2026-04-04T15:31:33.998Z</time></trkpt><trkpt lat="40.3889249428208" lon="18.305529518718735"><ele>0.4</ele><time>2026-04-04T15:31:35.998Z</time></trkpt><trkpt lat="40.38898996768479" lon="18.305638752317755"><ele>0.2</ele><time>2026-04-04T15:31:37.998Z</time></trkpt><trkpt lat="40.38906578233242" lon="18.305739666479326"><ele>0.0</ele><time>2026-04-04T15:31:39.998Z</time></trkpt><trkpt lat="40.38914490956696" lon="18.30583173902273"><ele>0.0</ele><time>2026-04-04T15:31:41.998Z</time></trkpt><trkpt lat="40.389215719025074" lon="18.305918500456045"><ele>0.0</ele><time>2026-04-04T15:31:43.998Z</time></trkpt><trkpt lat="40.38928140282236" lon="18.30599556596161"><ele>0.0</ele><time>2026-04-04T15:31:45.998Z</time></trkpt><trkpt lat="40.38935907668168" lon="18.30606058909626"><ele>0.0</ele><time>2026-04-04T15:31:47.998Z</time></trkpt><trkpt lat="40.389461050981936" lon="18.306093477903705"><ele>0.0</ele><time>2026-04-04T15:31:49.998Z</time></trkpt><trkpt lat="40.38955780734709" lon="18.306066295046115"><ele>0.0</ele><time>2026-04-04T15:31:51.998Z</time></trkpt><trkpt lat="40.38961694403435" lon="18.30603735069408"><ele>0.0</ele><time>2026-04-04T15:31:52.998Z</time></trkpt><trkpt lat="40.38968397237626" lon="18.30599996933925"><ele>0.0</ele><time>2026-04-04T15:31:53.998Z</time></trkpt><trkpt lat="40.389799036707274" lon="18.305971733636248"><ele>0.0</ele><time>2026-04-04T15:31:55.998Z</time></trkpt><trkpt lat="40.389913012933064" lon="18.30592344381821"><ele>0.0</ele><time>2026-04-04T15:31:57.998Z</time></trkpt><trkpt lat="40.389971680521015" lon="18.305874335597128"><ele>0.0</ele><time>2026-04-04T15:31:58.998Z</time></trkpt><trkpt lat="40.390018798800234" lon="18.305817685447977"><ele>0.0</ele><time>2026-04-04T15:31:59.998Z</time></trkpt><trkpt lat="40.3900690428785" lon="18.30566240397497"><ele>0.0</ele><time>2026-04-04T15:32:01.999Z</time></trkpt><trkpt lat="40.3900468521429" lon="18.30549260067401"><ele>0.0</ele><time>2026-04-04T15:32:03.998Z</time></trkpt><trkpt lat="40.39003445349814" lon="18.30539382168807"><ele>0.0</ele><time>2026-04-04T15:32:04.999Z</time></trkpt><trkpt lat="40.390020602353935" lon="18.305277796480528"><ele>0.0</ele><time>2026-04-04T15:32:05.998Z</time></trkpt><trkpt lat="40.38999559229483" lon="18.305130418163724"><ele>0.0</ele><time>2026-04-04T15:32:06.998Z</time></trkpt><trkpt lat="40.389950350816626" lon="18.304995302025034"><ele>0.0</ele><time>2026-04-04T15:32:07.999Z</time></trkpt><trkpt lat="40.38991735462756" lon="18.30484222666185"><ele>0.0</ele><time>2026-04-04T15:32:08.999Z</time></trkpt><trkpt lat="40.38988032618796" lon="18.304717687671637"><ele>0.0</ele><time>2026-04-04T15:32:09.999Z</time></trkpt><trkpt lat="40.38984794855937" lon="18.30461293322342"><ele>0.0</ele><time>2026-04-04T15:32:10.999Z</time></trkpt><trkpt lat="40.38982171770913" lon="18.304501320356596"><ele>0.3333333333333333</ele><time>2026-04-04T15:32:11.999Z</time></trkpt><trkpt lat="40.38979468379761" lon="18.304389335530793"><ele>0.6666666666666666</ele><time>2026-04-04T15:32:12.999Z</time></trkpt><trkpt lat="40.38976700584637" lon="18.304288604564768"><ele>1.0</ele><time>2026-04-04T15:32:13.999Z</time></trkpt><trkpt lat="40.38974110236782" lon="18.30418292821494"><ele>1.3333333333333333</ele><time>2026-04-04T15:32:14.999Z</time></trkpt><trkpt lat="40.38971910166553" lon="18.304094500230963"><ele>1.6666666666666665</ele><time>2026-04-04T15:32:15.999Z</time></trkpt><trkpt lat="40.38970127546685" lon="18.304002895634362"><ele>2.0</ele><time>2026-04-04T15:32:16.999Z</time></trkpt><trkpt lat="40.38967800376793" lon="18.30390068787235"><ele>2.4000000000000004</ele><time>2026-04-04T15:32:17.999Z</time></trkpt><trkpt lat="40.38964306789328" lon="18.303793717899477"><ele>2.8000000000000003</ele><time>2026-04-04T15:32:18.999Z</time></trkpt><trkpt lat="40.38961030776624" lon="18.303684223782604"><ele>3.2</ele><time>2026-04-04T15:32:19.999Z</time></trkpt><trkpt lat="40.38957909681959" lon="18.303568277492452"><ele>3.6</ele><time>2026-04-04T15:32:20.999Z</time></trkpt><trkpt lat="40.38954624057648" lon="18.30344558349273"><ele>4.0</ele><time>2026-04-04T15:32:21.999Z</time></trkpt><trkpt lat="40.38950686419934" lon="18.30331959622341"><ele>4.0</ele><time>2026-04-04T15:32:22.999Z</time></trkpt><trkpt lat="40.38946951107964" lon="18.303191780284763"><ele>4.0</ele><time>2026-04-04T15:32:23.999Z</time></trkpt><trkpt lat="40.389441227288835" lon="18.303055410592375"><ele>4.0</ele><time>2026-04-04T15:32:24.999Z</time></trkpt><trkpt lat="40.389400778329346" lon="18.302919842638424"><ele>4.0</ele><time>2026-04-04T15:32:25.999Z</time></trkpt><trkpt lat="40.389360976379265" lon="18.302772147410703"><ele>4.0</ele><time>2026-04-04T15:32:26.999Z</time></trkpt><trkpt lat="40.38931811681045" lon="18.302628234181235"><ele>3.5</ele><time>2026-04-04T15:32:27.999Z</time></trkpt><trkpt lat="40.38928383229628" lon="18.302467142024923"><ele>3.0</ele><time>2026-04-04T15:32:28.999Z</time></trkpt><trkpt lat="40.38923671219513" lon="18.302307590486073"><ele>2.5</ele><time>2026-04-04T15:32:29.999Z</time></trkpt><trkpt lat="40.38919118092486" lon="18.302150427767522"><ele>2.0</ele><time>2026-04-04T15:32:30.999Z</time></trkpt><trkpt lat="40.38914407921109" lon="18.30199048311257"><ele>2.0</ele><time>2026-04-04T15:32:31.999Z</time></trkpt><trkpt lat="40.38909980908545" lon="18.301835412489105"><ele>2.0</ele><time>2026-04-04T15:32:32.999Z</time></trkpt><trkpt lat="40.389055739352514" lon="18.301681152488186"><ele>2.0</ele><time>2026-04-04T15:32:33.999Z</time></trkpt><trkpt lat="40.38901152524226" lon="18.30152189058203"><ele>2.0</ele><time>2026-04-04T15:32:34.999Z</time></trkpt><trkpt lat="40.38896818273589" lon="18.301361647166846"><ele>2.25</ele><time>2026-04-04T15:32:35.999Z</time></trkpt><trkpt lat="40.388925799938775" lon="18.301200233347505"><ele>2.5</ele><time>2026-04-04T15:32:36.999Z</time></trkpt><trkpt lat="40.38887933185603" lon="18.301032806152556"><ele>2.75</ele><time>2026-04-04T15:32:37.999Z</time></trkpt><trkpt lat="40.38883884908479" lon="18.300874193070257"><ele>3.0</ele><time>2026-04-04T15:32:38.999Z</time></trkpt><trkpt lat="40.38879990609624" lon="18.30071917251114"><ele>3.0</ele><time>2026-04-04T15:32:39.999Z</time></trkpt><trkpt lat="40.388756953236175" lon="18.300558873747637"><ele>3.0</ele><time>2026-04-04T15:32:40.999Z</time></trkpt><trkpt lat="40.38871090170814" lon="18.30039549473724"><ele>3.0</ele><time>2026-04-04T15:32:41.999Z</time></trkpt><trkpt lat="40.3886631920864" lon="18.300232368831733"><ele>3.0</ele><time>2026-04-04T15:32:42.999Z</time></trkpt><trkpt lat="40.38861432518988" lon="18.300074586958097"><ele>3.0</ele><time>2026-04-04T15:32:43.999Z</time></trkpt><trkpt lat="40.388567569689926" lon="18.299911956133467"><ele>3.0</ele><time>2026-04-04T15:32:44.999Z</time></trkpt><trkpt lat="40.388525675334144" lon="18.299740170933873"><ele>3.0</ele><time>2026-04-04T15:32:45.999Z</time></trkpt><trkpt lat="40.38847638538761" lon="18.299567127368412"><ele>3.0</ele><time>2026-04-04T15:32:46.999Z</time></trkpt><trkpt lat="40.388433708898106" lon="18.299386810132233"><ele>3.0</ele><time>2026-04-04T15:32:47.999Z</time></trkpt><trkpt lat="40.38838410482431" lon="18.29922284296106"><ele>3.0</ele><time>2026-04-04T15:32:48.999Z</time></trkpt><trkpt lat="40.38834028113536" lon="18.299065209782075"><ele>3.0</ele><time>2026-04-04T15:32:49.999Z</time></trkpt><trkpt lat="40.38830362839951" lon="18.298920233535522"><ele>3.0</ele><time>2026-04-04T15:32:50.999Z</time></trkpt><trkpt lat="40.38826237173465" lon="18.298773576896522"><ele>3.25</ele><time>2026-04-04T15:32:51.999Z</time></trkpt><trkpt lat="40.38822006224057" lon="18.29860796055936"><ele>3.5</ele><time>2026-04-04T15:32:52.999Z</time></trkpt><trkpt lat="40.38817602405653" lon="18.29842994910065"><ele>3.75</ele><time>2026-04-04T15:32:53.999Z</time></trkpt><trkpt lat="40.38813103828192" lon="18.298256438994382"><ele>4.0</ele><time>2026-04-04T15:32:54.999Z</time></trkpt><trkpt lat="40.38808202196682" lon="18.298082151312727"><ele>4.0</ele><time>2026-04-04T15:32:55.999Z</time></trkpt><trkpt lat="40.38803089601482" lon="18.29790050275272"><ele>4.0</ele><time>2026-04-04T15:32:56.999Z</time></trkpt><trkpt lat="40.38798492447442" lon="18.297720012944172"><ele>4.0</ele><time>2026-04-04T15:32:57.999Z</time></trkpt><trkpt lat="40.3879411176495" lon="18.29754311174203"><ele>4.0</ele><time>2026-04-04T15:32:58.999Z</time></trkpt><trkpt lat="40.38789481112387" lon="18.297377372649496"><ele>4.0</ele><time>2026-04-04T15:32:59.999Z</time></trkpt><trkpt lat="40.387851081635" lon="18.297217844357117"><ele>4.0</ele><time>2026-04-04T15:33:00.999Z</time></trkpt><trkpt lat="40.38781036757604" lon="18.297050934465812"><ele>4.0</ele><time>2026-04-04T15:33:01.998Z</time></trkpt><trkpt lat="40.387766105650215" lon="18.296876197827704"><ele>4.0</ele><time>2026-04-04T15:33:02.998Z</time></trkpt><trkpt lat="40.387720658653066" lon="18.29670225385328"><ele>4.0</ele><time>2026-04-04T15:33:03.998Z</time></trkpt><trkpt lat="40.387676123512286" lon="18.296524554782284"><ele>4.0</ele><time>2026-04-04T15:33:04.998Z</time></trkpt><trkpt lat="40.38763007776022" lon="18.29634586871752"><ele>4.0</ele><time>2026-04-04T15:33:05.998Z</time></trkpt><trkpt lat="40.38758243008468" lon="18.296169312047653"><ele>4.0</ele><time>2026-04-04T15:33:06.998Z</time></trkpt><trkpt lat="40.38753698393054" lon="18.29598892411016"><ele>4.0</ele><time>2026-04-04T15:33:07.998Z</time></trkpt><trkpt lat="40.387487003956984" lon="18.29579909665178"><ele>4.0</ele><time>2026-04-04T15:33:08.998Z</time></trkpt><trkpt lat="40.38743654651135" lon="18.295610052233563"><ele>4.0</ele><time>2026-04-04T15:33:09.998Z</time></trkpt><trkpt lat="40.38738548285348" lon="18.295418085156207"><ele>4.333333333333333</ele><time>2026-04-04T15:33:10.998Z</time></trkpt><trkpt lat="40.38733449390456" lon="18.295224451700328"><ele>4.666666666666667</ele><time>2026-04-04T15:33:11.998Z</time></trkpt><trkpt lat="40.387280214938336" lon="18.295034316253552"><ele>5.0</ele><time>2026-04-04T15:33:12.998Z</time></trkpt><trkpt lat="40.38722697146355" lon="18.29484274575007"><ele>4.666666666666667</ele><time>2026-04-04T15:33:13.998Z</time></trkpt><trkpt lat="40.38718176422135" lon="18.294643863265726"><ele>4.333333333333333</ele><time>2026-04-04T15:33:14.998Z</time></trkpt><trkpt lat="40.38712854844937" lon="18.294452564453163"><ele>4.0</ele><time>2026-04-04T15:33:15.998Z</time></trkpt><trkpt lat="40.38708090730928" lon="18.294259133649337"><ele>4.333333333333333</ele><time>2026-04-04T15:33:16.998Z</time></trkpt><trkpt lat="40.38702917179142" lon="18.294068736480867"><ele>4.666666666666667</ele><time>2026-04-04T15:33:17.998Z</time></trkpt><trkpt lat="40.38697931400966" lon="18.293871702828234"><ele>5.0</ele><time>2026-04-04T15:33:18.998Z</time></trkpt><trkpt lat="40.3869258987753" lon="18.293681356778876"><ele>5.0</ele><time>2026-04-04T15:33:19.998Z</time></trkpt><trkpt lat="40.38687228122898" lon="18.29349485016797"><ele>5.0</ele><time>2026-04-04T15:33:20.998Z</time></trkpt><trkpt lat="40.38682311442564" lon="18.293299494309174"><ele>5.0</ele><time>2026-04-04T15:33:21.998Z</time></trkpt><trkpt lat="40.38677512627958" lon="18.293102646760442"><ele>5.0</ele><time>2026-04-04T15:33:22.998Z</time></trkpt><trkpt lat="40.386721838158145" lon="18.292916573200255"><ele>5.0</ele><time>2026-04-04T15:33:23.998Z</time></trkpt><trkpt lat="40.38667230703978" lon="18.29272668418612"><ele>5.0</ele><time>2026-04-04T15:33:24.998Z</time></trkpt><trkpt lat="40.38662068326313" lon="18.29253380471429"><ele>5.0</ele><time>2026-04-04T15:33:25.998Z</time></trkpt><trkpt lat="40.38656641962293" lon="18.29234292199192"><ele>5.0</ele><time>2026-04-04T15:33:26.998Z</time></trkpt><trkpt lat="40.3865180096511" lon="18.292156906028186"><ele>5.0</ele><time>2026-04-04T15:33:27.998Z</time></trkpt><trkpt lat="40.38647242188961" lon="18.29199006929126"><ele>5.0</ele><time>2026-04-04T15:33:28.998Z</time></trkpt><trkpt lat="40.386429273651565" lon="18.29183052750537"><ele>5.0</ele><time>2026-04-04T15:33:29.998Z</time></trkpt><trkpt lat="40.386386447405535" lon="18.291675768254876"><ele>5.0</ele><time>2026-04-04T15:33:30.998Z</time></trkpt><trkpt lat="40.386346759739965" lon="18.29151172709886"><ele>5.0</ele><time>2026-04-04T15:33:31.998Z</time></trkpt><trkpt lat="40.38630229552011" lon="18.29134216861848"><ele>5.0</ele><time>2026-04-04T15:33:32.998Z</time></trkpt><trkpt lat="40.38625196391385" lon="18.29116527972135"><ele>4.666666666666667</ele><time>2026-04-04T15:33:33.998Z</time></trkpt><trkpt lat="40.386199864910466" lon="18.290977644359135"><ele>4.333333333333333</ele><time>2026-04-04T15:33:34.998Z</time></trkpt><trkpt lat="40.386145149192224" lon="18.29078858303339"><ele>4.0</ele><time>2026-04-04T15:33:35.998Z</time></trkpt><trkpt lat="40.386095729953155" lon="18.290599735079482"><ele>4.75</ele><time>2026-04-04T15:33:36.998Z</time></trkpt><trkpt lat="40.386049350798224" lon="18.2904282169763"><ele>5.5</ele><time>2026-04-04T15:33:37.998Z</time></trkpt><trkpt lat="40.38600920225409" lon="18.29027633291954"><ele>6.25</ele><time>2026-04-04T15:33:38.998Z</time></trkpt><trkpt lat="40.38596917145978" lon="18.2901493256718"><ele>7.0</ele><time>2026-04-04T15:33:39.998Z</time></trkpt><trkpt lat="40.38594098075378" lon="18.29002581650475"><ele>7.000000000000001</ele><time>2026-04-04T15:33:40.998Z</time></trkpt><trkpt lat="40.3859096421742" lon="18.28991540186524"><ele>7.0</ele><time>2026-04-04T15:33:41.998Z</time></trkpt><trkpt lat="40.38588022981921" lon="18.289821911339363"><ele>7.0</ele><time>2026-04-04T15:33:42.998Z</time></trkpt><trkpt lat="40.385851778101305" lon="18.28973878449572"><ele>7.0</ele><time>2026-04-04T15:33:43.998Z</time></trkpt><trkpt lat="40.385811989030906" lon="18.28960803995578"><ele>7.000000000000001</ele><time>2026-04-04T15:33:45.998Z</time></trkpt><trkpt lat="40.38578297650929" lon="18.289493250098612"><ele>7.0</ele><time>2026-04-04T15:33:47.998Z</time></trkpt><trkpt lat="40.38575816842626" lon="18.28940359736504"><ele>6.6</ele><time>2026-04-04T15:33:49.998Z</time></trkpt><trkpt lat="40.38574737333215" lon="18.289316136628223"><ele>6.199999999999999</ele><time>2026-04-04T15:33:53.998Z</time></trkpt><trkpt lat="40.3857167847221" lon="18.28918187501966"><ele>5.8</ele><time>2026-04-04T15:34:13.998Z</time></trkpt><trkpt lat="40.38568615346226" lon="18.289085591689386"><ele>5.4</ele><time>2026-04-04T15:34:14.998Z</time></trkpt><trkpt lat="40.385651585019446" lon="18.288945961637555"><ele>5.0</ele><time>2026-04-04T15:34:15.998Z</time></trkpt><trkpt lat="40.38561137180212" lon="18.288792450695027"><ele>5.0</ele><time>2026-04-04T15:34:16.998Z</time></trkpt><trkpt lat="40.385569861915315" lon="18.28862205633661"><ele>5.0</ele><time>2026-04-04T15:34:17.999Z</time></trkpt><trkpt lat="40.38552563633254" lon="18.288444461773825"><ele>5.0</ele><time>2026-04-04T15:34:18.999Z</time></trkpt><trkpt lat="40.385476596071285" lon="18.288255126357182"><ele>5.0</ele><time>2026-04-04T15:34:19.998Z</time></trkpt><trkpt lat="40.385426606580076" lon="18.28806808401259"><ele>5.0</ele><time>2026-04-04T15:34:20.999Z</time></trkpt><trkpt lat="40.385372706694426" lon="18.287878265136612"><ele>5.0</ele><time>2026-04-04T15:34:21.999Z</time></trkpt><trkpt lat="40.385316805397565" lon="18.287688023106558"><ele>5.0</ele><time>2026-04-04T15:34:22.999Z</time></trkpt><trkpt lat="40.385259706708666" lon="18.28749032068316"><ele>5.0</ele><time>2026-04-04T15:34:23.999Z</time></trkpt><trkpt lat="40.38520198160498" lon="18.287288773176336"><ele>5.0</ele><time>2026-04-04T15:34:24.999Z</time></trkpt><trkpt lat="40.38514468681108" lon="18.287091128457934"><ele>5.0</ele><time>2026-04-04T15:34:25.999Z</time></trkpt><trkpt lat="40.385089809433644" lon="18.286883833146724"><ele>5.0</ele><time>2026-04-04T15:34:26.999Z</time></trkpt><trkpt lat="40.38503314849244" lon="18.286674334607977"><ele>5.0</ele><time>2026-04-04T15:34:27.999Z</time></trkpt><trkpt lat="40.38497697991546" lon="18.286458911393645"><ele>5.0</ele><time>2026-04-04T15:34:28.999Z</time></trkpt><trkpt lat="40.384917048628886" lon="18.286246031245643"><ele>5.0</ele><time>2026-04-04T15:34:29.999Z</time></trkpt><trkpt lat="40.38485810898481" lon="18.28602517861148"><ele>5.0</ele><time>2026-04-04T15:34:30.999Z</time></trkpt><trkpt lat="40.38479912480459" lon="18.285804931219968"><ele>5.0</ele><time>2026-04-04T15:34:31.999Z</time></trkpt><trkpt lat="40.38474565017858" lon="18.28557791021406"><ele>5.0</ele><time>2026-04-04T15:34:32.999Z</time></trkpt><trkpt lat="40.38468727555167" lon="18.285354163059427"><ele>5.0</ele><time>2026-04-04T15:34:33.999Z</time></trkpt><trkpt lat="40.38462809778877" lon="18.2851281324865"><ele>5.0</ele><time>2026-04-04T15:34:34.999Z</time></trkpt><trkpt lat="40.38456614734765" lon="18.284902472905497"><ele>6.0</ele><time>2026-04-04T15:34:35.999Z</time></trkpt><trkpt lat="40.3845043361851" lon="18.2846746591691"><ele>7.0</ele><time>2026-04-04T15:34:36.999Z</time></trkpt><trkpt lat="40.384449211653596" lon="18.28444141871918"><ele>8.0</ele><time>2026-04-04T15:34:37.999Z</time></trkpt><trkpt lat="40.38438855678643" lon="18.284210863473838"><ele>8.0</ele><time>2026-04-04T15:34:38.999Z</time></trkpt><trkpt lat="40.38432942003519" lon="18.283977077771596"><ele>8.0</ele><time>2026-04-04T15:34:39.999Z</time></trkpt><trkpt lat="40.38425938216092" lon="18.28375793853082"><ele>8.0</ele><time>2026-04-04T15:34:40.999Z</time></trkpt><trkpt lat="40.38419781236926" lon="18.28353428598374"><ele>8.0</ele><time>2026-04-04T15:34:41.999Z</time></trkpt><trkpt lat="40.384137307241204" lon="18.283302934013122"><ele>8.0</ele><time>2026-04-04T15:34:42.999Z</time></trkpt><trkpt lat="40.3840756415264" lon="18.28307422448718"><ele>8.0</ele><time>2026-04-04T15:34:43.999Z</time></trkpt><trkpt lat="40.38401468511751" lon="18.282845871439562"><ele>7.666666666666666</ele><time>2026-04-04T15:34:44.999Z</time></trkpt><trkpt lat="40.38395311796421" lon="18.28261480894686"><ele>7.333333333333334</ele><time>2026-04-04T15:34:45.999Z</time></trkpt><trkpt lat="40.38389191010751" lon="18.282382601170784"><ele>7.0</ele><time>2026-04-04T15:34:46.999Z</time></trkpt><trkpt lat="40.38383148240248" lon="18.28214813035101"><ele>8.0</ele><time>2026-04-04T15:34:47.999Z</time></trkpt><trkpt lat="40.383769547463146" lon="18.281913973218625"><ele>9.0</ele><time>2026-04-04T15:34:48.999Z</time></trkpt><trkpt lat="40.383707503701544" lon="18.281679614567906"><ele>10.0</ele><time>2026-04-04T15:34:49.999Z</time></trkpt><trkpt lat="40.38364367234046" lon="18.281449445958366"><ele>10.333333333333334</ele><time>2026-04-04T15:34:50.999Z</time></trkpt><trkpt lat="40.38357386563551" lon="18.281223843216342"><ele>10.666666666666666</ele><time>2026-04-04T15:34:51.999Z</time></trkpt><trkpt lat="40.383492002035446" lon="18.28101143448516"><ele>11.0</ele><time>2026-04-04T15:34:52.999Z</time></trkpt><trkpt lat="40.383384939363744" lon="18.28082738273896"><ele>11.0</ele><time>2026-04-04T15:34:53.999Z</time></trkpt><trkpt lat="40.383259201870764" lon="18.280683385865988"><ele>11.0</ele><time>2026-04-04T15:34:54.999Z</time></trkpt><trkpt lat="40.383114827751825" lon="18.280571950244045"><ele>11.0</ele><time>2026-04-04T15:34:55.999Z</time></trkpt><trkpt lat="40.38294621558342" lon="18.280474632759024"><ele>10.666666666666666</ele><time>2026-04-04T15:34:56.999Z</time></trkpt><trkpt lat="40.3827616448323" lon="18.28043721587952"><ele>10.333333333333334</ele><time>2026-04-04T15:34:57.999Z</time></trkpt><trkpt lat="40.382546917849915" lon="18.28041635665706"><ele>10.0</ele><time>2026-04-04T15:34:58.999Z</time></trkpt><trkpt lat="40.38230034538566" lon="18.280410476676302"><ele>10.0</ele><time>2026-04-04T15:34:59.999Z</time></trkpt><trkpt lat="40.38299872452449" lon="18.27903396803817"><ele>9.666666666666668</ele><time>2026-04-04T15:35:00.999Z</time></trkpt><trkpt lat="40.382933803488605" lon="18.278787472325643"><ele>9.333333333333334</ele><time>2026-04-04T15:35:01.999Z</time></trkpt><trkpt lat="40.3828673554728" lon="18.278542515736508"><ele>9.0</ele><time>2026-04-04T15:35:02.999Z</time></trkpt><trkpt lat="40.382801353709" lon="18.278299415482607"><ele>9.333333333333334</ele><time>2026-04-04T15:35:03.999Z</time></trkpt><trkpt lat="40.38273713235385" lon="18.278060175131557"><ele>9.666666666666668</ele><time>2026-04-04T15:35:04.999Z</time></trkpt><trkpt lat="40.38267653154963" lon="18.277824077408045"><ele>10.0</ele><time>2026-04-04T15:35:05.999Z</time></trkpt><trkpt lat="40.382615924704595" lon="18.277583890606177"><ele>10.0</ele><time>2026-04-04T15:35:06.999Z</time></trkpt><trkpt lat="40.38255716861624" lon="18.27735957188907"><ele>10.0</ele><time>2026-04-04T15:35:07.999Z</time></trkpt><trkpt lat="40.382502154522314" lon="18.277156928693653"><ele>10.0</ele><time>2026-04-04T15:35:08.999Z</time></trkpt><trkpt lat="40.38244866225311" lon="18.27695244033729"><ele>10.0</ele><time>2026-04-04T15:35:09.999Z</time></trkpt><trkpt lat="40.3823963933931" lon="18.2767568659946"><ele>10.0</ele><time>2026-04-04T15:35:10.999Z</time></trkpt><trkpt lat="40.382346859234985" lon="18.276574877188107"><ele>10.0</ele><time>2026-04-04T15:35:11.999Z</time></trkpt><trkpt lat="40.38229941022825" lon="18.276403913093795"><ele>10.0</ele><time>2026-04-04T15:35:12.999Z</time></trkpt><trkpt lat="40.38225336407351" lon="18.276242739478846"><ele>10.0</ele><time>2026-04-04T15:35:13.999Z</time></trkpt><trkpt lat="40.3822133424205" lon="18.276092389041356"><ele>10.0</ele><time>2026-04-04T15:35:14.999Z</time></trkpt><trkpt lat="40.382177719680534" lon="18.275953664996013"><ele>10.0</ele><time>2026-04-04T15:35:15.999Z</time></trkpt><trkpt lat="40.3821441596357" lon="18.27582864039039"><ele>10.0</ele><time>2026-04-04T15:35:16.999Z</time></trkpt><trkpt lat="40.38211191070336" lon="18.275714017353263"><ele>10.0</ele><time>2026-04-04T15:35:17.999Z</time></trkpt><trkpt lat="40.38208236429881" lon="18.27560533758404"><ele>10.0</ele><time>2026-04-04T15:35:18.998Z</time></trkpt><trkpt lat="40.382058637180954" lon="18.275510928964152"><ele>10.0</ele><time>2026-04-04T15:35:19.998Z</time></trkpt><trkpt lat="40.38202708192245" lon="18.275363735563385"><ele>10.0</ele><time>2026-04-04T15:35:21.998Z</time></trkpt><trkpt lat="40.382003541694345" lon="18.275271859247642"><ele>10.0</ele><time>2026-04-04T15:35:23.998Z</time></trkpt><trkpt lat="40.38201017482041" lon="18.275354895252097"><ele>10.0</ele><time>2026-04-04T15:35:26.998Z</time></trkpt><trkpt lat="40.38200444064999" lon="18.275225320684683"><ele>10.0</ele><time>2026-04-04T15:35:38.998Z</time></trkpt><trkpt lat="40.3819778718335" lon="18.275103243993936"><ele>10.0</ele><time>2026-04-04T15:35:39.998Z</time></trkpt><trkpt lat="40.381941009583265" lon="18.274940592529763"><ele>10.0</ele><time>2026-04-04T15:35:40.998Z</time></trkpt><trkpt lat="40.381889944393805" lon="18.274748739830443"><ele>10.0</ele><time>2026-04-04T15:35:41.998Z</time></trkpt><trkpt lat="40.38182437657363" lon="18.274547995852046"><ele>10.333333333333334</ele><time>2026-04-04T15:35:42.998Z</time></trkpt><trkpt lat="40.3817511331696" lon="18.27432081613256"><ele>10.666666666666666</ele><time>2026-04-04T15:35:43.998Z</time></trkpt><trkpt lat="40.38168969745069" lon="18.27404638384884"><ele>11.0</ele><time>2026-04-04T15:35:44.998Z</time></trkpt><trkpt lat="40.38161475893715" lon="18.273756049856193"><ele>11.5</ele><time>2026-04-04T15:35:45.998Z</time></trkpt><trkpt lat="40.38153437992723" lon="18.27345478150386"><ele>12.0</ele><time>2026-04-04T15:35:46.998Z</time></trkpt><trkpt lat="40.38143706721707" lon="18.27314192354882"><ele>12.0</ele><time>2026-04-04T15:35:47.998Z</time></trkpt><trkpt lat="40.38134144702903" lon="18.27281465521808"><ele>12.0</ele><time>2026-04-04T15:35:48.998Z</time></trkpt><trkpt lat="40.381256919787006" lon="18.27247236806978"><ele>13.0</ele><time>2026-04-04T15:35:49.998Z</time></trkpt><trkpt lat="40.38116976532219" lon="18.27213915270621"><ele>14.0</ele><time>2026-04-04T15:35:50.998Z</time></trkpt><trkpt lat="40.3810853253771" lon="18.271812998381268"><ele>14.0</ele><time>2026-04-04T15:35:51.998Z</time></trkpt><trkpt lat="40.380986420548176" lon="18.2715142512681"><ele>14.0</ele><time>2026-04-04T15:35:52.998Z</time></trkpt><trkpt lat="40.38090309855271" lon="18.271215914104438"><ele>14.5</ele><time>2026-04-04T15:35:53.998Z</time></trkpt><trkpt lat="40.38082745237643" lon="18.27092128460533"><ele>15.0</ele><time>2026-04-04T15:35:54.998Z</time></trkpt><trkpt lat="40.3807565396907" lon="18.270630715972658"><ele>16.0</ele><time>2026-04-04T15:35:55.998Z</time></trkpt><trkpt lat="40.380681803113795" lon="18.270344135361917"><ele>17.0</ele><time>2026-04-04T15:35:56.998Z</time></trkpt><trkpt lat="40.380604819166464" lon="18.270054959286558"><ele>17.0</ele><time>2026-04-04T15:35:57.998Z</time></trkpt><trkpt lat="40.380527169563656" lon="18.26976854487294"><ele>17.0</ele><time>2026-04-04T15:35:58.998Z</time></trkpt><trkpt lat="40.38044990108929" lon="18.269481861991895"><ele>17.0</ele><time>2026-04-04T15:35:59.998Z</time></trkpt><trkpt lat="40.3803717068654" lon="18.269198625135466"><ele>17.0</ele><time>2026-04-04T15:36:00.998Z</time></trkpt><trkpt lat="40.38029285989153" lon="18.26891782192677"><ele>17.0</ele><time>2026-04-04T15:36:01.998Z</time></trkpt><trkpt lat="40.380213010676506" lon="18.268637109698123"><ele>17.0</ele><time>2026-04-04T15:36:02.998Z</time></trkpt><trkpt lat="40.380139912682445" lon="18.26834500506259"><ele>17.5</ele><time>2026-04-04T15:36:03.998Z</time></trkpt><trkpt lat="40.38006007890979" lon="18.26805638660537"><ele>18.0</ele><time>2026-04-04T15:36:04.998Z</time></trkpt><trkpt lat="40.37998424649944" lon="18.267763885745982"><ele>18.0</ele><time>2026-04-04T15:36:05.998Z</time></trkpt><trkpt lat="40.37990215436093" lon="18.267476811484226"><ele>18.0</ele><time>2026-04-04T15:36:06.998Z</time></trkpt><trkpt lat="40.37982222589845" lon="18.267191141213708"><ele>17.5</ele><time>2026-04-04T15:36:07.998Z</time></trkpt><trkpt lat="40.379751100739306" lon="18.26689558396063"><ele>17.0</ele><time>2026-04-04T15:36:08.998Z</time></trkpt><trkpt lat="40.37967534918405" lon="18.266605367178737"><ele>18.0</ele><time>2026-04-04T15:36:09.998Z</time></trkpt><trkpt lat="40.37959924600886" lon="18.266317129901253"><ele>19.0</ele><time>2026-04-04T15:36:10.998Z</time></trkpt><trkpt lat="40.3795249661969" lon="18.266025770428637"><ele>19.0</ele><time>2026-04-04T15:36:11.998Z</time></trkpt><trkpt lat="40.3794475983877" lon="18.26573839277493"><ele>19.0</ele><time>2026-04-04T15:36:12.998Z</time></trkpt><trkpt lat="40.379367198887955" lon="18.265455440668504"><ele>18.0</ele><time>2026-04-04T15:36:13.999Z</time></trkpt><trkpt lat="40.37929049061648" lon="18.265170175612425"><ele>17.0</ele><time>2026-04-04T15:36:14.998Z</time></trkpt><trkpt lat="40.37921137017281" lon="18.26487681624325"><ele>18.0</ele><time>2026-04-04T15:36:15.998Z</time></trkpt><trkpt lat="40.37913546839717" lon="18.264580732303752"><ele>19.0</ele><time>2026-04-04T15:36:16.999Z</time></trkpt><trkpt lat="40.37905652779256" lon="18.264289477400823"><ele>19.0</ele><time>2026-04-04T15:36:17.999Z</time></trkpt><trkpt lat="40.378980626877095" lon="18.263998165447827"><ele>19.0</ele><time>2026-04-04T15:36:18.999Z</time></trkpt><trkpt lat="40.37890312341523" lon="18.263708370103885"><ele>20.0</ele><time>2026-04-04T15:36:19.999Z</time></trkpt><trkpt lat="40.37883223679311" lon="18.26343013405978"><ele>21.0</ele><time>2026-04-04T15:36:20.999Z</time></trkpt><trkpt lat="40.378765178190726" lon="18.26318852799454"><ele>22.0</ele><time>2026-04-04T15:36:21.999Z</time></trkpt><trkpt lat="40.378704675855516" lon="18.26295876621375"><ele>22.333333333333332</ele><time>2026-04-04T15:36:22.999Z</time></trkpt><trkpt lat="40.378651628440444" lon="18.26273867475023"><ele>22.666666666666668</ele><time>2026-04-04T15:36:23.998Z</time></trkpt><trkpt lat="40.37858675412816" lon="18.26251989607909"><ele>23.0</ele><time>2026-04-04T15:36:24.998Z</time></trkpt><trkpt lat="40.378520969418155" lon="18.26229595252282"><ele>23.0</ele><time>2026-04-04T15:36:25.999Z</time></trkpt><trkpt lat="40.37846069239725" lon="18.262076112325722"><ele>23.0</ele><time>2026-04-04T15:36:26.998Z</time></trkpt><trkpt lat="40.378398682503956" lon="18.26185928884309"><ele>23.0</ele><time>2026-04-04T15:36:27.998Z</time></trkpt><trkpt lat="40.37834285211925" lon="18.261636210903955"><ele>22.666666666666668</ele><time>2026-04-04T15:36:28.998Z</time></trkpt><trkpt lat="40.37828239050489" lon="18.261412356633183"><ele>22.333333333333332</ele><time>2026-04-04T15:36:29.998Z</time></trkpt><trkpt lat="40.37822465381809" lon="18.261187850224253"><ele>22.0</ele><time>2026-04-04T15:36:30.998Z</time></trkpt><trkpt lat="40.378161343961075" lon="18.260954996972778"><ele>22.0</ele><time>2026-04-04T15:36:31.998Z</time></trkpt><trkpt lat="40.37809496838184" lon="18.260716317484203"><ele>22.0</ele><time>2026-04-04T15:36:32.998Z</time></trkpt><trkpt lat="40.37803094771905" lon="18.260479547883065"><ele>22.0</ele><time>2026-04-04T15:36:33.998Z</time></trkpt><trkpt lat="40.37796313076534" lon="18.260246372794136"><ele>22.333333333333332</ele><time>2026-04-04T15:36:34.998Z</time></trkpt><trkpt lat="40.377898130034815" lon="18.260008697938346"><ele>22.666666666666668</ele><time>2026-04-04T15:36:35.998Z</time></trkpt><trkpt lat="40.377832813091345" lon="18.25976740550563"><ele>23.0</ele><time>2026-04-04T15:36:36.998Z</time></trkpt><trkpt lat="40.377769233053705" lon="18.2595250891865"><ele>23.0</ele><time>2026-04-04T15:36:37.998Z</time></trkpt><trkpt lat="40.377704680143985" lon="18.25928157492081"><ele>23.0</ele><time>2026-04-04T15:36:38.998Z</time></trkpt><trkpt lat="40.37764274665244" lon="18.25904394615993"><ele>23.0</ele><time>2026-04-04T15:36:39.998Z</time></trkpt><trkpt lat="40.37757626322384" lon="18.25879804007591"><ele>23.0</ele><time>2026-04-04T15:36:40.998Z</time></trkpt><trkpt lat="40.3775099131616" lon="18.2585480492742"><ele>23.0</ele><time>2026-04-04T15:36:41.998Z</time></trkpt><trkpt lat="40.37744046851992" lon="18.258294213971517"><ele>23.0</ele><time>2026-04-04T15:36:42.998Z</time></trkpt><trkpt lat="40.37736458135212" lon="18.258041738056097"><ele>23.333333333333336</ele><time>2026-04-04T15:36:43.998Z</time></trkpt><trkpt lat="40.37729454815093" lon="18.257779100346283"><ele>23.666666666666668</ele><time>2026-04-04T15:36:44.998Z</time></trkpt><trkpt lat="40.37722414077088" lon="18.257508554332738"><ele>24.0</ele><time>2026-04-04T15:36:45.998Z</time></trkpt><trkpt lat="40.37714991905451" lon="18.25725121377561"><ele>24.0</ele><time>2026-04-04T15:36:46.998Z</time></trkpt><trkpt lat="40.3770763273998" lon="18.256993612324635"><ele>24.0</ele><time>2026-04-04T15:36:47.998Z</time></trkpt><trkpt lat="40.37700719561369" lon="18.256727947936675"><ele>24.0</ele><time>2026-04-04T15:36:48.998Z</time></trkpt><trkpt lat="40.376938913786596" lon="18.256460454775493"><ele>24.0</ele><time>2026-04-04T15:36:49.998Z</time></trkpt><trkpt lat="40.37686575424257" lon="18.25619163476685"><ele>24.0</ele><time>2026-04-04T15:36:50.998Z</time></trkpt><trkpt lat="40.376796834722235" lon="18.255919459332443"><ele>24.0</ele><time>2026-04-04T15:36:51.998Z</time></trkpt><trkpt lat="40.37672403938556" lon="18.255644702485654"><ele>24.0</ele><time>2026-04-04T15:36:52.998Z</time></trkpt><trkpt lat="40.37665068939955" lon="18.255364311156267"><ele>24.0</ele><time>2026-04-04T15:36:53.998Z</time></trkpt><trkpt lat="40.37657630350641" lon="18.255081591079048"><ele>24.0</ele><time>2026-04-04T15:36:54.998Z</time></trkpt><trkpt lat="40.37650138680182" lon="18.25479483815815"><ele>24.0</ele><time>2026-04-04T15:36:55.998Z</time></trkpt><trkpt lat="40.37642090178768" lon="18.25450878602243"><ele>24.0</ele><time>2026-04-04T15:36:56.998Z</time></trkpt><trkpt lat="40.37634728134282" lon="18.254218356620104"><ele>24.0</ele><time>2026-04-04T15:36:57.998Z</time></trkpt><trkpt lat="40.37627149087524" lon="18.253924504298553"><ele>24.0</ele><time>2026-04-04T15:36:58.998Z</time></trkpt><trkpt lat="40.37619785720798" lon="18.25362677990363"><ele>24.0</ele><time>2026-04-04T15:36:59.998Z</time></trkpt><trkpt lat="40.37612619430637" lon="18.253323423754477"><ele>24.5</ele><time>2026-04-04T15:37:00.998Z</time></trkpt><trkpt lat="40.37605208674009" lon="18.253022021960685"><ele>25.0</ele><time>2026-04-04T15:37:01.998Z</time></trkpt><trkpt lat="40.37597405153789" lon="18.252718490864712"><ele>25.0</ele><time>2026-04-04T15:37:02.998Z</time></trkpt><trkpt lat="40.375893773670775" lon="18.25241353630482"><ele>25.0</ele><time>2026-04-04T15:37:03.998Z</time></trkpt><trkpt lat="40.375814236947946" lon="18.252104026636776"><ele>25.5</ele><time>2026-04-04T15:37:04.998Z</time></trkpt><trkpt lat="40.37573136909141" lon="18.251794636187135"><ele>26.0</ele><time>2026-04-04T15:37:05.998Z</time></trkpt><trkpt lat="40.37564655811055" lon="18.2514929212189"><ele>27.5</ele><time>2026-04-04T15:37:06.998Z</time></trkpt><trkpt lat="40.37556763025199" lon="18.25118639889115"><ele>29.0</ele><time>2026-04-04T15:37:07.998Z</time></trkpt><trkpt lat="40.375481064864125" lon="18.250891015407493"><ele>30.0</ele><time>2026-04-04T15:37:08.998Z</time></trkpt><trkpt lat="40.3754040444091" lon="18.250593765790867"><ele>31.0</ele><time>2026-04-04T15:37:09.998Z</time></trkpt><trkpt lat="40.37532038343024" lon="18.25030450217908"><ele>31.0</ele><time>2026-04-04T15:37:10.998Z</time></trkpt><trkpt lat="40.37524557976605" lon="18.25001095221701"><ele>31.0</ele><time>2026-04-04T15:37:11.998Z</time></trkpt><trkpt lat="40.375171282107594" lon="18.24972298082972"><ele>30.5</ele><time>2026-04-04T15:37:12.998Z</time></trkpt><trkpt lat="40.375095123394786" lon="18.249440933701468"><ele>30.0</ele><time>2026-04-04T15:37:13.998Z</time></trkpt><trkpt lat="40.37502372803084" lon="18.249159216396464"><ele>31.0</ele><time>2026-04-04T15:37:14.998Z</time></trkpt><trkpt lat="40.37494054670357" lon="18.24887924618333"><ele>32.0</ele><time>2026-04-04T15:37:15.998Z</time></trkpt><trkpt lat="40.3748761168175" lon="18.24860093708053"><ele>32.0</ele><time>2026-04-04T15:37:16.998Z</time></trkpt><trkpt lat="40.37480469972849" lon="18.248325484854647"><ele>32.0</ele><time>2026-04-04T15:37:17.998Z</time></trkpt><trkpt lat="40.374733549806145" lon="18.24804876409407"><ele>32.0</ele><time>2026-04-04T15:37:18.998Z</time></trkpt><trkpt lat="40.37466235632096" lon="18.24777307916668"><ele>31.666666666666664</ele><time>2026-04-04T15:37:19.998Z</time></trkpt><trkpt lat="40.37459392484417" lon="18.247501271429268"><ele>31.333333333333336</ele><time>2026-04-04T15:37:20.998Z</time></trkpt><trkpt lat="40.37451955410535" lon="18.24722911779109"><ele>31.0</ele><time>2026-04-04T15:37:21.998Z</time></trkpt><trkpt lat="40.37445003308154" lon="18.246962127276582"><ele>31.0</ele><time>2026-04-04T15:37:22.998Z</time></trkpt><trkpt lat="40.37437343584528" lon="18.246694251917823"><ele>31.0</ele><time>2026-04-04T15:37:23.998Z</time></trkpt><trkpt lat="40.37430285384203" lon="18.24641939759414"><ele>31.0</ele><time>2026-04-04T15:37:24.998Z</time></trkpt><trkpt lat="40.37422999173131" lon="18.246144060792645"><ele>31.0</ele><time>2026-04-04T15:37:25.998Z</time></trkpt><trkpt lat="40.37415989171469" lon="18.245880056425626"><ele>31.0</ele><time>2026-04-04T15:37:26.998Z</time></trkpt><trkpt lat="40.37408533318677" lon="18.245617766592257"><ele>31.0</ele><time>2026-04-04T15:37:27.998Z</time></trkpt><trkpt lat="40.37401785227089" lon="18.245350939309247"><ele>31.333333333333336</ele><time>2026-04-04T15:37:28.998Z</time></trkpt><trkpt lat="40.37394748248888" lon="18.245083527497627"><ele>31.666666666666664</ele><time>2026-04-04T15:37:29.998Z</time></trkpt><trkpt lat="40.3738747927216" lon="18.24481870697294"><ele>32.0</ele><time>2026-04-04T15:37:30.998Z</time></trkpt><trkpt lat="40.37380757405922" lon="18.244552442297355"><ele>32.0</ele><time>2026-04-04T15:37:31.998Z</time></trkpt><trkpt lat="40.373733012216135" lon="18.244291632846743"><ele>32.0</ele><time>2026-04-04T15:37:32.998Z</time></trkpt><trkpt lat="40.37366518823641" lon="18.24402817630719"><ele>32.0</ele><time>2026-04-04T15:37:33.998Z</time></trkpt><trkpt lat="40.37358918900644" lon="18.24376088098494"><ele>32.0</ele><time>2026-04-04T15:37:34.998Z</time></trkpt><trkpt lat="40.373518285328224" lon="18.243501895270846"><ele>32.0</ele><time>2026-04-04T15:37:35.998Z</time></trkpt><trkpt lat="40.37344841571428" lon="18.243237634279406"><ele>32.0</ele><time>2026-04-04T15:37:36.998Z</time></trkpt><trkpt lat="40.37337330850204" lon="18.24297806761398"><ele>32.33333333333333</ele><time>2026-04-04T15:37:37.998Z</time></trkpt><trkpt lat="40.373296343559346" lon="18.24271577029475"><ele>32.666666666666664</ele><time>2026-04-04T15:37:38.998Z</time></trkpt><trkpt lat="40.37321762204067" lon="18.242455061257363"><ele>33.0</ele><time>2026-04-04T15:37:39.998Z</time></trkpt><trkpt lat="40.37314517004848" lon="18.242191853138138"><ele>33.0</ele><time>2026-04-04T15:37:40.998Z</time></trkpt><trkpt lat="40.37306732225519" lon="18.24193951275448"><ele>33.0</ele><time>2026-04-04T15:37:41.998Z</time></trkpt><trkpt lat="40.37300043149635" lon="18.24167445970032"><ele>33.0</ele><time>2026-04-04T15:37:42.998Z</time></trkpt><trkpt lat="40.372918432303514" lon="18.241440661461436"><ele>32.333333333333336</ele><time>2026-04-04T15:37:43.998Z</time></trkpt><trkpt lat="40.37282443917497" lon="18.241203785060808"><ele>31.666666666666668</ele><time>2026-04-04T15:37:44.998Z</time></trkpt><trkpt lat="40.372720519759966" lon="18.240996724406347"><ele>31.0</ele><time>2026-04-04T15:37:45.998Z</time></trkpt><trkpt lat="40.37263816081985" lon="18.240778315098222"><ele>31.333333333333336</ele><time>2026-04-04T15:37:46.998Z</time></trkpt><trkpt lat="40.37255780967219" lon="18.24053931184105"><ele>31.666666666666664</ele><time>2026-04-04T15:37:47.998Z</time></trkpt><trkpt lat="40.37248987631546" lon="18.240283137707994"><ele>32.0</ele><time>2026-04-04T15:37:48.998Z</time></trkpt><trkpt lat="40.37243359621174" lon="18.24000005539046"><ele>32.33333333333333</ele><time>2026-04-04T15:37:49.998Z</time></trkpt><trkpt lat="40.37238113826353" lon="18.239728576055935"><ele>32.666666666666664</ele><time>2026-04-04T15:37:50.998Z</time></trkpt><trkpt lat="40.37232429199417" lon="18.239464968509107"><ele>33.0</ele><time>2026-04-04T15:37:51.998Z</time></trkpt><trkpt lat="40.37226853514417" lon="18.23920200868787"><ele>33.0</ele><time>2026-04-04T15:37:52.998Z</time></trkpt><trkpt lat="40.37220885195852" lon="18.238942597713606"><ele>33.0</ele><time>2026-04-04T15:37:53.998Z</time></trkpt><trkpt lat="40.37214341360494" lon="18.238690118786604"><ele>33.0</ele><time>2026-04-04T15:37:54.998Z</time></trkpt><trkpt lat="40.37207867484689" lon="18.238439086294186"><ele>33.0</ele><time>2026-04-04T15:37:55.998Z</time></trkpt><trkpt lat="40.37202207841687" lon="18.238178238582407"><ele>33.0</ele><time>2026-04-04T15:37:56.998Z</time></trkpt><trkpt lat="40.37196169662954" lon="18.237924842932262"><ele>33.0</ele><time>2026-04-04T15:37:57.998Z</time></trkpt><trkpt lat="40.37189503553787" lon="18.237661783848"><ele>33.0</ele><time>2026-04-04T15:37:58.998Z</time></trkpt><trkpt lat="40.37183609175155" lon="18.237400878263557"><ele>33.0</ele><time>2026-04-04T15:37:59.998Z</time></trkpt><trkpt lat="40.3718034892763" lon="18.237143621931246"><ele>33.0</ele><time>2026-04-04T15:38:00.998Z</time></trkpt><trkpt lat="40.371781694571" lon="18.23688182587858"><ele>33.0</ele><time>2026-04-04T15:38:01.998Z</time></trkpt><trkpt lat="40.371756886738" lon="18.23660295170216"><ele>33.0</ele><time>2026-04-04T15:38:02.998Z</time></trkpt><trkpt lat="40.37173366395896" lon="18.23630841221636"><ele>33.0</ele><time>2026-04-04T15:38:03.998Z</time></trkpt><trkpt lat="40.37169034165959" lon="18.23600762324258"><ele>33.0</ele><time>2026-04-04T15:38:04.998Z</time></trkpt><trkpt lat="40.371636702636486" lon="18.23571720822426"><ele>33.0</ele><time>2026-04-04T15:38:05.998Z</time></trkpt><trkpt lat="40.37156478400101" lon="18.23545998923218"><ele>33.0</ele><time>2026-04-04T15:38:06.998Z</time></trkpt><trkpt lat="40.37149290798375" lon="18.23521467908629"><ele>33.0</ele><time>2026-04-04T15:38:07.998Z</time></trkpt><trkpt lat="40.3714498252716" lon="18.234946021706236"><ele>33.0</ele><time>2026-04-04T15:38:08.998Z</time></trkpt><trkpt lat="40.37138926270258" lon="18.23470612296567"><ele>33.0</ele><time>2026-04-04T15:38:09.998Z</time></trkpt><trkpt lat="40.3713996690246" lon="18.234340598648107"><ele>33.5</ele><time>2026-04-04T15:38:10.998Z</time></trkpt><trkpt lat="40.371017167127214" lon="18.23462295513463"><ele>34.0</ele><time>2026-04-04T15:38:11.998Z</time></trkpt><trkpt lat="40.37095109756662" lon="18.234381933265784"><ele>34.0</ele><time>2026-04-04T15:38:12.998Z</time></trkpt><trkpt lat="40.370882471727654" lon="18.23414195974303"><ele>34.0</ele><time>2026-04-04T15:38:13.998Z</time></trkpt><trkpt lat="40.37081062694967" lon="18.233900531736122"><ele>34.0</ele><time>2026-04-04T15:38:14.997Z</time></trkpt><trkpt lat="40.37074547790968" lon="18.233653122632298"><ele>33.333333333333336</ele><time>2026-04-04T15:38:15.997Z</time></trkpt><trkpt lat="40.37067967953261" lon="18.23340486498288"><ele>32.666666666666664</ele><time>2026-04-04T15:38:16.997Z</time></trkpt><trkpt lat="40.370616572167954" lon="18.233152402671134"><ele>32.0</ele><time>2026-04-04T15:38:17.997Z</time></trkpt><trkpt lat="40.370551274170815" lon="18.232899637415997"><ele>32.0</ele><time>2026-04-04T15:38:18.997Z</time></trkpt><trkpt lat="40.370479947222385" lon="18.232650125869526"><ele>32.0</ele><time>2026-04-04T15:38:19.998Z</time></trkpt><trkpt lat="40.37040846237201" lon="18.2324016258676"><ele>32.0</ele><time>2026-04-04T15:38:20.998Z</time></trkpt><trkpt lat="40.37033869493648" lon="18.232154119610215"><ele>32.33333333333333</ele><time>2026-04-04T15:38:21.998Z</time></trkpt><trkpt lat="40.37026642700019" lon="18.231905788898175"><ele>32.666666666666664</ele><time>2026-04-04T15:38:22.998Z</time></trkpt><trkpt lat="40.37018992080042" lon="18.23165550923917"><ele>33.0</ele><time>2026-04-04T15:38:23.998Z</time></trkpt><trkpt lat="40.370115213266956" lon="18.231401872117985"><ele>33.0</ele><time>2026-04-04T15:38:24.998Z</time></trkpt><trkpt lat="40.37003944700671" lon="18.231149243668703"><ele>33.0</ele><time>2026-04-04T15:38:25.999Z</time></trkpt><trkpt lat="40.36996628191442" lon="18.230896425220777"><ele>33.0</ele><time>2026-04-04T15:38:26.998Z</time></trkpt><trkpt lat="40.36989364225282" lon="18.230640784871152"><ele>33.0</ele><time>2026-04-04T15:38:27.998Z</time></trkpt><trkpt lat="40.36982098297039" lon="18.230384698225482"><ele>33.0</ele><time>2026-04-04T15:38:28.998Z</time></trkpt><trkpt lat="40.369748029540986" lon="18.23012394669311"><ele>33.0</ele><time>2026-04-04T15:38:29.998Z</time></trkpt><trkpt lat="40.36967564347191" lon="18.229863890918946"><ele>32.666666666666664</ele><time>2026-04-04T15:38:30.998Z</time></trkpt><trkpt lat="40.36960084169159" lon="18.229610859559507"><ele>32.33333333333333</ele><time>2026-04-04T15:38:31.998Z</time></trkpt><trkpt lat="40.36952895338134" lon="18.229353611039844"><ele>32.0</ele><time>2026-04-04T15:38:32.998Z</time></trkpt><trkpt lat="40.36944050567126" lon="18.22911380697354"><ele>32.0</ele><time>2026-04-04T15:38:33.998Z</time></trkpt><trkpt lat="40.36938278368631" lon="18.228841991520703"><ele>32.0</ele><time>2026-04-04T15:38:34.998Z</time></trkpt><trkpt lat="40.369314457780256" lon="18.228580767864067"><ele>32.0</ele><time>2026-04-04T15:38:35.998Z</time></trkpt><trkpt lat="40.36924814513067" lon="18.22831484714"><ele>31.666666666666664</ele><time>2026-04-04T15:38:36.998Z</time></trkpt><trkpt lat="40.369168266298885" lon="18.228065695285295"><ele>31.333333333333336</ele><time>2026-04-04T15:38:37.998Z</time></trkpt><trkpt lat="40.369090901273545" lon="18.22781325845855"><ele>31.0</ele><time>2026-04-04T15:38:38.998Z</time></trkpt><trkpt lat="40.3690129291037" lon="18.227558490758767"><ele>31.0</ele><time>2026-04-04T15:38:39.998Z</time></trkpt><trkpt lat="40.36893840698672" lon="18.22729862284145"><ele>31.0</ele><time>2026-04-04T15:38:40.998Z</time></trkpt><trkpt lat="40.36886513939303" lon="18.22704222014142"><ele>31.0</ele><time>2026-04-04T15:38:41.998Z</time></trkpt><trkpt lat="40.36879998419248" lon="18.226776582969478"><ele>30.666666666666668</ele><time>2026-04-04T15:38:42.998Z</time></trkpt><trkpt lat="40.36872529144214" lon="18.22652492245888"><ele>30.333333333333336</ele><time>2026-04-04T15:38:43.998Z</time></trkpt><trkpt lat="40.368652225569484" lon="18.226267465293184"><ele>30.0</ele><time>2026-04-04T15:38:44.998Z</time></trkpt><trkpt lat="40.36857789515238" lon="18.226008197369556"><ele>29.666666666666664</ele><time>2026-04-04T15:38:45.998Z</time></trkpt><trkpt lat="40.368507190581894" lon="18.22574328557895"><ele>29.333333333333332</ele><time>2026-04-04T15:38:46.998Z</time></trkpt><trkpt lat="40.368424126017544" lon="18.22549197961503"><ele>29.0</ele><time>2026-04-04T15:38:47.998Z</time></trkpt><trkpt lat="40.368340652150756" lon="18.225252121903953"><ele>29.666666666666664</ele><time>2026-04-04T15:38:48.998Z</time></trkpt><trkpt lat="40.368263867796024" lon="18.22500786507951"><ele>30.333333333333336</ele><time>2026-04-04T15:38:49.998Z</time></trkpt><trkpt lat="40.368214929644566" lon="18.224738193496464"><ele>31.0</ele><time>2026-04-04T15:38:50.998Z</time></trkpt><trkpt lat="40.36815170271303" lon="18.22447706619676"><ele>31.333333333333336</ele><time>2026-04-04T15:38:51.998Z</time></trkpt><trkpt lat="40.36808101581826" lon="18.2242239585506"><ele>31.666666666666664</ele><time>2026-04-04T15:38:52.998Z</time></trkpt><trkpt lat="40.36800228767243" lon="18.223975595905678"><ele>32.0</ele><time>2026-04-04T15:38:53.998Z</time></trkpt><trkpt lat="40.36793398920921" lon="18.223727366373822"><ele>32.0</ele><time>2026-04-04T15:38:54.998Z</time></trkpt><trkpt lat="40.36785713094889" lon="18.223501486143455"><ele>32.0</ele><time>2026-04-04T15:38:55.998Z</time></trkpt><trkpt lat="40.367799550675635" lon="18.223294074670036"><ele>32.0</ele><time>2026-04-04T15:38:56.998Z</time></trkpt><trkpt lat="40.3677401362845" lon="18.22308336603015"><ele>32.33333333333333</ele><time>2026-04-04T15:38:57.998Z</time></trkpt><trkpt lat="40.36768337680733" lon="18.22287275725971"><ele>32.666666666666664</ele><time>2026-04-04T15:38:58.998Z</time></trkpt><trkpt lat="40.36762631381479" lon="18.22267629343599"><ele>33.0</ele><time>2026-04-04T15:38:59.998Z</time></trkpt><trkpt lat="40.36757647139597" lon="18.222519175072346"><ele>33.0</ele><time>2026-04-04T15:39:00.998Z</time></trkpt><trkpt lat="40.367526791092445" lon="18.22236049754115"><ele>33.0</ele><time>2026-04-04T15:39:01.998Z</time></trkpt><trkpt lat="40.367470875501866" lon="18.222212676739293"><ele>33.0</ele><time>2026-04-04T15:39:02.998Z</time></trkpt><trkpt lat="40.3674144867572" lon="18.222065665249417"><ele>33.0</ele><time>2026-04-04T15:39:03.998Z</time></trkpt><trkpt lat="40.36736755184286" lon="18.221910179318826"><ele>33.0</ele><time>2026-04-04T15:39:04.998Z</time></trkpt><trkpt lat="40.36733296724822" lon="18.22174045406799"><ele>33.0</ele><time>2026-04-04T15:39:05.998Z</time></trkpt><trkpt lat="40.36730627576976" lon="18.22158036866769"><ele>33.0</ele><time>2026-04-04T15:39:06.998Z</time></trkpt><trkpt lat="40.36727323611054" lon="18.221425473505516"><ele>33.0</ele><time>2026-04-04T15:39:07.998Z</time></trkpt><trkpt lat="40.36721182718552" lon="18.221273445909873"><ele>33.25</ele><time>2026-04-04T15:39:08.998Z</time></trkpt><trkpt lat="40.36715587585501" lon="18.221108006925316"><ele>33.5</ele><time>2026-04-04T15:39:09.998Z</time></trkpt><trkpt lat="40.36709921268848" lon="18.22094236346545"><ele>33.75</ele><time>2026-04-04T15:39:10.998Z</time></trkpt><trkpt lat="40.367051434860535" lon="18.220779415046824"><ele>34.0</ele><time>2026-04-04T15:39:11.998Z</time></trkpt><trkpt lat="40.367015505039994" lon="18.220618629451906"><ele>34.25</ele><time>2026-04-04T15:39:12.998Z</time></trkpt><trkpt lat="40.36698867844385" lon="18.220471567521685"><ele>34.5</ele><time>2026-04-04T15:39:13.998Z</time></trkpt><trkpt lat="40.36695244684257" lon="18.22034528059483"><ele>34.75</ele><time>2026-04-04T15:39:14.998Z</time></trkpt><trkpt lat="40.36691047422782" lon="18.220208281264465"><ele>35.0</ele><time>2026-04-04T15:39:15.998Z</time></trkpt><trkpt lat="40.366870131052174" lon="18.220043094863488"><ele>35.0</ele><time>2026-04-04T15:39:16.998Z</time></trkpt><trkpt lat="40.36681795782787" lon="18.21987978754961"><ele>35.0</ele><time>2026-04-04T15:39:17.998Z</time></trkpt><trkpt lat="40.36676748890853" lon="18.219707539793653"><ele>35.0</ele><time>2026-04-04T15:39:18.998Z</time></trkpt><trkpt lat="40.366706783419716" lon="18.219508169649238"><ele>35.0</ele><time>2026-04-04T15:39:19.998Z</time></trkpt><trkpt lat="40.36665865566202" lon="18.219286515995577"><ele>34.666666666666664</ele><time>2026-04-04T15:39:20.998Z</time></trkpt><trkpt lat="40.36659842477099" lon="18.219056768991127"><ele>34.333333333333336</ele><time>2026-04-04T15:39:21.998Z</time></trkpt><trkpt lat="40.366549677425816" lon="18.218862646558733"><ele>34.0</ele><time>2026-04-04T15:39:22.998Z</time></trkpt><trkpt lat="40.366499817068735" lon="18.21869886691383"><ele>33.75</ele><time>2026-04-04T15:39:23.998Z</time></trkpt><trkpt lat="40.366444551653956" lon="18.218547868158854"><ele>33.5</ele><time>2026-04-04T15:39:24.998Z</time></trkpt><trkpt lat="40.36640407860282" lon="18.21839568493922"><ele>33.25</ele><time>2026-04-04T15:39:25.998Z</time></trkpt><trkpt lat="40.36636228182586" lon="18.218253370540317"><ele>33.0</ele><time>2026-04-04T15:39:26.998Z</time></trkpt><trkpt lat="40.366321914275346" lon="18.21811916487232"><ele>33.0</ele><time>2026-04-04T15:39:27.998Z</time></trkpt><trkpt lat="40.366291542345614" lon="18.218000453810774"><ele>33.0</ele><time>2026-04-04T15:39:28.998Z</time></trkpt><trkpt lat="40.36626379703886" lon="18.217902109486655"><ele>33.0</ele><time>2026-04-04T15:39:29.998Z</time></trkpt><trkpt lat="40.36623643740201" lon="18.21781795473481"><ele>33.0</ele><time>2026-04-04T15:39:30.998Z</time></trkpt><trkpt lat="40.36618495157045" lon="18.217682578614998"><ele>33.0</ele><time>2026-04-04T15:39:32.998Z</time></trkpt><trkpt lat="40.36614609623406" lon="18.217555795368497"><ele>33.0</ele><time>2026-04-04T15:39:34.998Z</time></trkpt><trkpt lat="40.3661372200257" lon="18.21741167137082"><ele>33.0</ele><time>2026-04-04T15:39:36.998Z</time></trkpt><trkpt lat="40.366149190985105" lon="18.217325410989165"><ele>33.0</ele><time>2026-04-04T15:39:37.998Z</time></trkpt><trkpt lat="40.366150634173245" lon="18.21723945172451"><ele>33.0</ele><time>2026-04-04T15:39:38.998Z</time></trkpt><trkpt lat="40.366120499711286" lon="18.21714529918944"><ele>33.0</ele><time>2026-04-04T15:39:39.998Z</time></trkpt><trkpt lat="40.36606778954692" lon="18.217052085118944"><ele>33.0</ele><time>2026-04-04T15:39:40.998Z</time></trkpt><trkpt lat="40.36601301288883" lon="18.216950872470935"><ele>33.0</ele><time>2026-04-04T15:39:41.998Z</time></trkpt><trkpt lat="40.36595490742096" lon="18.216852032103542"><ele>33.0</ele><time>2026-04-04T15:39:42.998Z</time></trkpt><trkpt lat="40.36591900763251" lon="18.216752028576856"><ele>33.0</ele><time>2026-04-04T15:39:43.998Z</time></trkpt><trkpt lat="40.365887621188214" lon="18.216635223669588"><ele>33.0</ele><time>2026-04-04T15:39:44.998Z</time></trkpt><trkpt lat="40.36587027680188" lon="18.216512297823222"><ele>33.0</ele><time>2026-04-04T15:39:45.998Z</time></trkpt><trkpt lat="40.3658480299714" lon="18.216375420490536"><ele>32.75</ele><time>2026-04-04T15:39:46.998Z</time></trkpt><trkpt lat="40.36581447347456" lon="18.2162404533351"><ele>32.5</ele><time>2026-04-04T15:39:47.998Z</time></trkpt><trkpt lat="40.365776022615144" lon="18.216100627633654"><ele>32.25</ele><time>2026-04-04T15:39:48.998Z</time></trkpt><trkpt lat="40.36573585128558" lon="18.21594258738102"><ele>32.0</ele><time>2026-04-04T15:39:49.998Z</time></trkpt><trkpt lat="40.36568700983532" lon="18.215757287391522"><ele>32.666666666666664</ele><time>2026-04-04T15:39:50.998Z</time></trkpt><trkpt lat="40.36562656884844" lon="18.21556880384925"><ele>33.333333333333336</ele><time>2026-04-04T15:39:51.998Z</time></trkpt><trkpt lat="40.36557238414214" lon="18.215371370300307"><ele>34.0</ele><time>2026-04-04T15:39:52.998Z</time></trkpt><trkpt lat="40.36550797351931" lon="18.215178099490902"><ele>34.333333333333336</ele><time>2026-04-04T15:39:53.998Z</time></trkpt><trkpt lat="40.36544222766993" lon="18.21497432363114"><ele>34.666666666666664</ele><time>2026-04-04T15:39:54.998Z</time></trkpt><trkpt lat="40.36538577099919" lon="18.21475813240739"><ele>35.0</ele><time>2026-04-04T15:39:55.998Z</time></trkpt><trkpt lat="40.365322430806174" lon="18.214543323673748"><ele>35.0</ele><time>2026-04-04T15:39:56.998Z</time></trkpt><trkpt lat="40.365262815734766" lon="18.214324021775553"><ele>35.0</ele><time>2026-04-04T15:39:57.998Z</time></trkpt><trkpt lat="40.36520254467297" lon="18.214104493111886"><ele>35.0</ele><time>2026-04-04T15:39:58.998Z</time></trkpt><trkpt lat="40.36514187493132" lon="18.213878333625992"><ele>35.0</ele><time>2026-04-04T15:39:59.998Z</time></trkpt><trkpt lat="40.36508331985864" lon="18.21365092364125"><ele>35.0</ele><time>2026-04-04T15:40:00.998Z</time></trkpt><trkpt lat="40.36502791661814" lon="18.2134259779446"><ele>35.0</ele><time>2026-04-04T15:40:01.998Z</time></trkpt><trkpt lat="40.36496667751918" lon="18.213202264070453"><ele>35.33333333333333</ele><time>2026-04-04T15:40:02.998Z</time></trkpt><trkpt lat="40.36490512622335" lon="18.21298187381913"><ele>35.666666666666664</ele><time>2026-04-04T15:40:03.998Z</time></trkpt><trkpt lat="40.364847115352575" lon="18.212758756587537"><ele>36.0</ele><time>2026-04-04T15:40:04.998Z</time></trkpt><trkpt lat="40.364782815382334" lon="18.212546944001588"><ele>36.0</ele><time>2026-04-04T15:40:05.998Z</time></trkpt><trkpt lat="40.36472436353063" lon="18.212346409883892"><ele>36.0</ele><time>2026-04-04T15:40:06.998Z</time></trkpt><trkpt lat="40.36466256072064" lon="18.212161159392743"><ele>36.0</ele><time>2026-04-04T15:40:07.998Z</time></trkpt><trkpt lat="40.36460602162025" lon="18.211967029333007"><ele>35.333333333333336</ele><time>2026-04-04T15:40:08.998Z</time></trkpt><trkpt lat="40.36454714553654" lon="18.211785954193342"><ele>34.66666666666667</ele><time>2026-04-04T15:40:09.998Z</time></trkpt><trkpt lat="40.364497851405176" lon="18.211603326741248"><ele>34.0</ele><time>2026-04-04T15:40:10.998Z</time></trkpt><trkpt lat="40.36443981980187" lon="18.211418436040116"><ele>34.0</ele><time>2026-04-04T15:40:11.998Z</time></trkpt><trkpt lat="40.36437808616283" lon="18.21123159343093"><ele>34.0</ele><time>2026-04-04T15:40:12.998Z</time></trkpt><trkpt lat="40.36432092245936" lon="18.211048084478684"><ele>34.0</ele><time>2026-04-04T15:40:13.998Z</time></trkpt><trkpt lat="40.36427276322881" lon="18.210871936104393"><ele>34.0</ele><time>2026-04-04T15:40:14.998Z</time></trkpt><trkpt lat="40.36422680882973" lon="18.210692701781632"><ele>34.66666666666667</ele><time>2026-04-04T15:40:15.998Z</time></trkpt><trkpt lat="40.36417694770273" lon="18.210513050593885"><ele>35.333333333333336</ele><time>2026-04-04T15:40:16.998Z</time></trkpt><trkpt lat="40.364122020625544" lon="18.210329368385718"><ele>36.0</ele><time>2026-04-04T15:40:17.998Z</time></trkpt><trkpt lat="40.364062821078846" lon="18.21013621463729"><ele>36.0</ele><time>2026-04-04T15:40:18.998Z</time></trkpt><trkpt lat="40.36400537785863" lon="18.209940016622852"><ele>36.0</ele><time>2026-04-04T15:40:19.998Z</time></trkpt><trkpt lat="40.36394889691804" lon="18.209736620609366"><ele>36.0</ele><time>2026-04-04T15:40:20.998Z</time></trkpt><trkpt lat="40.36388997369581" lon="18.209527280384524"><ele>35.0</ele><time>2026-04-04T15:40:21.998Z</time></trkpt><trkpt lat="40.363828901427134" lon="18.209307526058257"><ele>34.0</ele><time>2026-04-04T15:40:22.998Z</time></trkpt><trkpt lat="40.363766053161335" lon="18.209089730851804"><ele>33.0</ele><time>2026-04-04T15:40:23.998Z</time></trkpt><trkpt lat="40.36371539484335" lon="18.208877775472647"><ele>33.0</ele><time>2026-04-04T15:40:24.998Z</time></trkpt><trkpt lat="40.36365318860027" lon="18.208664664658375"><ele>33.0</ele><time>2026-04-04T15:40:25.998Z</time></trkpt><trkpt lat="40.363593868699034" lon="18.20845309189079"><ele>33.0</ele><time>2026-04-04T15:40:26.998Z</time></trkpt><trkpt lat="40.363535833368296" lon="18.20823835772347"><ele>33.0</ele><time>2026-04-04T15:40:27.998Z</time></trkpt><trkpt lat="40.36347746027027" lon="18.208025557732892"><ele>33.0</ele><time>2026-04-04T15:40:28.998Z</time></trkpt><trkpt lat="40.36341710069932" lon="18.20782027415277"><ele>33.0</ele><time>2026-04-04T15:40:29.998Z</time></trkpt><trkpt lat="40.363354125685284" lon="18.20761578064368"><ele>33.0</ele><time>2026-04-04T15:40:30.998Z</time></trkpt><trkpt lat="40.36329633172165" lon="18.20740249633351"><ele>33.0</ele><time>2026-04-04T15:40:31.999Z</time></trkpt><trkpt lat="40.3632405500521" lon="18.20718532145193"><ele>33.0</ele><time>2026-04-04T15:40:32.999Z</time></trkpt><trkpt lat="40.36318553433201" lon="18.206970866022193"><ele>33.0</ele><time>2026-04-04T15:40:33.999Z</time></trkpt><trkpt lat="40.36312551036769" lon="18.206757467940804"><ele>33.0</ele><time>2026-04-04T15:40:34.998Z</time></trkpt><trkpt lat="40.36307047959879" lon="18.206546896826804"><ele>33.0</ele><time>2026-04-04T15:40:35.998Z</time></trkpt><trkpt lat="40.36301550207371" lon="18.20635373362152"><ele>34.0</ele><time>2026-04-04T15:40:36.998Z</time></trkpt><trkpt lat="40.36297094011183" lon="18.20616871439942"><ele>35.0</ele><time>2026-04-04T15:40:37.999Z</time></trkpt><trkpt lat="40.362923531503974" lon="18.205994780352153"><ele>36.0</ele><time>2026-04-04T15:40:38.998Z</time></trkpt><trkpt lat="40.36287506191382" lon="18.205830279692268"><ele>37.0</ele><time>2026-04-04T15:40:39.998Z</time></trkpt><trkpt lat="40.362837485386365" lon="18.205685516437512"><ele>36.5</ele><time>2026-04-04T15:40:40.998Z</time></trkpt><trkpt lat="40.36279874085339" lon="18.205551798722528"><ele>36.0</ele><time>2026-04-04T15:40:41.998Z</time></trkpt><trkpt lat="40.36276893231383" lon="18.205430048424304"><ele>35.5</ele><time>2026-04-04T15:40:42.998Z</time></trkpt><trkpt lat="40.36276858597563" lon="18.20532990189032"><ele>35.0</ele><time>2026-04-04T15:40:43.998Z</time></trkpt><trkpt lat="40.362772156563395" lon="18.205225480657035"><ele>34.5</ele><time>2026-04-04T15:40:44.998Z</time></trkpt><trkpt lat="40.36278113003069" lon="18.205127011995728"><ele>34.0</ele><time>2026-04-04T15:40:45.998Z</time></trkpt><trkpt lat="40.36277929694648" lon="18.205020842095145"><ele>34.0</ele><time>2026-04-04T15:40:46.998Z</time></trkpt><trkpt lat="40.36275134750721" lon="18.20491133738511"><ele>34.0</ele><time>2026-04-04T15:40:47.998Z</time></trkpt><trkpt lat="40.36269438972462" lon="18.204811742882157"><ele>34.0</ele><time>2026-04-04T15:40:48.998Z</time></trkpt><trkpt lat="40.36262270328956" lon="18.204718067814483"><ele>34.0</ele><time>2026-04-04T15:40:49.998Z</time></trkpt><trkpt lat="40.362553606080986" lon="18.204607812326408"><ele>34.0</ele><time>2026-04-04T15:40:50.998Z</time></trkpt><trkpt lat="40.362496492964496" lon="18.20448372574822"><ele>34.25</ele><time>2026-04-04T15:40:51.998Z</time></trkpt><trkpt lat="40.3624461607082" lon="18.204329379332247"><ele>34.5</ele><time>2026-04-04T15:40:52.998Z</time></trkpt><trkpt lat="40.36240046083724" lon="18.20416727118417"><ele>34.75</ele><time>2026-04-04T15:40:53.998Z</time></trkpt><trkpt lat="40.36234171761793" lon="18.204004262102327"><ele>35.0</ele><time>2026-04-04T15:40:54.998Z</time></trkpt><trkpt lat="40.36228442991853" lon="18.203820498409225"><ele>35.0</ele><time>2026-04-04T15:40:55.998Z</time></trkpt><trkpt lat="40.36222804198634" lon="18.20362810627039"><ele>35.0</ele><time>2026-04-04T15:40:56.998Z</time></trkpt><trkpt lat="40.36217117182563" lon="18.20342996002176"><ele>35.0</ele><time>2026-04-04T15:40:57.998Z</time></trkpt><trkpt lat="40.36211929326171" lon="18.203209865842965"><ele>35.0</ele><time>2026-04-04T15:40:58.998Z</time></trkpt><trkpt lat="40.362063428662594" lon="18.202976763827348"><ele>35.0</ele><time>2026-04-04T15:40:59.998Z</time></trkpt><trkpt lat="40.3619996210134" lon="18.202735709854945"><ele>35.0</ele><time>2026-04-04T15:41:00.998Z</time></trkpt><trkpt lat="40.36192835939091" lon="18.202510802220846"><ele>35.0</ele><time>2026-04-04T15:41:01.998Z</time></trkpt><trkpt lat="40.36186235345808" lon="18.20229605745996"><ele>35.0</ele><time>2026-04-04T15:41:02.998Z</time></trkpt><trkpt lat="40.361799176880446" lon="18.202087737518315"><ele>35.0</ele><time>2026-04-04T15:41:03.998Z</time></trkpt><trkpt lat="40.361739183538454" lon="18.201874162097198"><ele>35.0</ele><time>2026-04-04T15:41:04.998Z</time></trkpt><trkpt lat="40.361679776027756" lon="18.201665037460195"><ele>35.0</ele><time>2026-04-04T15:41:05.998Z</time></trkpt><trkpt lat="40.361620291328755" lon="18.20145395391293"><ele>35.0</ele><time>2026-04-04T15:41:06.998Z</time></trkpt><trkpt lat="40.36155877554475" lon="18.20124755984825"><ele>36.33333333333333</ele><time>2026-04-04T15:41:07.998Z</time></trkpt><trkpt lat="40.36149611633461" lon="18.201042863003284"><ele>37.666666666666664</ele><time>2026-04-04T15:41:08.998Z</time></trkpt><trkpt lat="40.36143717549124" lon="18.200840835028107"><ele>39.0</ele><time>2026-04-04T15:41:09.998Z</time></trkpt><trkpt lat="40.361380875222245" lon="18.200643679112755"><ele>39.333333333333336</ele><time>2026-04-04T15:41:10.998Z</time></trkpt><trkpt lat="40.36132725390966" lon="18.20045514893485"><ele>39.66666666666667</ele><time>2026-04-04T15:41:11.998Z</time></trkpt><trkpt lat="40.36127535094323" lon="18.200265630009458"><ele>40.0</ele><time>2026-04-04T15:41:12.997Z</time></trkpt><trkpt lat="40.36122991068893" lon="18.200056886387483"><ele>40.0</ele><time>2026-04-04T15:41:13.997Z</time></trkpt><trkpt lat="40.361187942065555" lon="18.19983569317158"><ele>40.0</ele><time>2026-04-04T15:41:14.997Z</time></trkpt><trkpt lat="40.3611392388979" lon="18.199620681401502"><ele>40.0</ele><time>2026-04-04T15:41:15.997Z</time></trkpt><trkpt lat="40.361087466388355" lon="18.199371666620483"><ele>39.66666666666667</ele><time>2026-04-04T15:41:16.997Z</time></trkpt><trkpt lat="40.36097532458" lon="18.199247185392274"><ele>39.333333333333336</ele><time>2026-04-04T15:41:17.997Z</time></trkpt><trkpt lat="40.36091450220671" lon="18.199047442156836"><ele>39.0</ele><time>2026-04-04T15:41:18.997Z</time></trkpt><trkpt lat="40.360870673053995" lon="18.19887208322044"><ele>39.333333333333336</ele><time>2026-04-04T15:41:19.997Z</time></trkpt><trkpt lat="40.36083409232706" lon="18.198726814978908"><ele>39.666666666666664</ele><time>2026-04-04T15:41:20.997Z</time></trkpt><trkpt lat="40.3608150789734" lon="18.198612574177623"><ele>40.0</ele><time>2026-04-04T15:41:21.997Z</time></trkpt><trkpt lat="40.36080713736224" lon="18.19851563274305"><ele>40.33333333333333</ele><time>2026-04-04T15:41:22.997Z</time></trkpt><trkpt lat="40.36081345949592" lon="18.19841511272225"><ele>40.666666666666664</ele><time>2026-04-04T15:41:23.997Z</time></trkpt><trkpt lat="40.36080150442053" lon="18.198309199342177"><ele>41.0</ele><time>2026-04-04T15:41:24.997Z</time></trkpt><trkpt lat="40.36075781878162" lon="18.19820328621378"><ele>41.0</ele><time>2026-04-04T15:41:25.997Z</time></trkpt><trkpt lat="40.36067793694012" lon="18.19809332879301"><ele>41.0</ele><time>2026-04-04T15:41:26.997Z</time></trkpt><trkpt lat="40.36061166798517" lon="18.197923998220432"><ele>41.0</ele><time>2026-04-04T15:41:27.997Z</time></trkpt><trkpt lat="40.36056388896491" lon="18.197748898767216"><ele>41.0</ele><time>2026-04-04T15:41:28.997Z</time></trkpt><trkpt lat="40.360530733017285" lon="18.197593985243444"><ele>40.5</ele><time>2026-04-04T15:41:29.997Z</time></trkpt><trkpt lat="40.36049171765876" lon="18.197447406114765"><ele>40.0</ele><time>2026-04-04T15:41:30.997Z</time></trkpt><trkpt lat="40.36044758138852" lon="18.19729137226262"><ele>39.5</ele><time>2026-04-04T15:41:31.997Z</time></trkpt><trkpt lat="40.36040228927833" lon="18.19713107138505"><ele>39.0</ele><time>2026-04-04T15:41:32.997Z</time></trkpt><trkpt lat="40.360353791190946" lon="18.19696905218259"><ele>39.0</ele><time>2026-04-04T15:41:33.997Z</time></trkpt><trkpt lat="40.36031000937631" lon="18.196804688288356"><ele>39.0</ele><time>2026-04-04T15:41:34.997Z</time></trkpt><trkpt lat="40.360268942557376" lon="18.19665301836741"><ele>39.0</ele><time>2026-04-04T15:41:35.997Z</time></trkpt><trkpt lat="40.360223706102296" lon="18.196502571353644"><ele>39.0</ele><time>2026-04-04T15:41:36.997Z</time></trkpt><trkpt lat="40.360183132035445" lon="18.19636156527686"><ele>39.0</ele><time>2026-04-04T15:41:37.997Z</time></trkpt><trkpt lat="40.36014720994809" lon="18.196231234387596"><ele>39.0</ele><time>2026-04-04T15:41:38.997Z</time></trkpt><trkpt lat="40.360111810289865" lon="18.19610073642178"><ele>39.0</ele><time>2026-04-04T15:41:39.997Z</time></trkpt><trkpt lat="40.36006486777259" lon="18.19595864287393"><ele>39.0</ele><time>2026-04-04T15:41:40.997Z</time></trkpt><trkpt lat="40.36002587347756" lon="18.195830556382536"><ele>39.0</ele><time>2026-04-04T15:41:41.997Z</time></trkpt><trkpt lat="40.35999858930285" lon="18.195709527505173"><ele>39.0</ele><time>2026-04-04T15:41:42.997Z</time></trkpt><trkpt lat="40.359962523367834" lon="18.195594180126434"><ele>39.0</ele><time>2026-04-04T15:41:43.997Z</time></trkpt><trkpt lat="40.35992501141298" lon="18.195461748943675"><ele>39.0</ele><time>2026-04-04T15:41:44.997Z</time></trkpt><trkpt lat="40.35988443357763" lon="18.195331722662363"><ele>39.0</ele><time>2026-04-04T15:41:45.997Z</time></trkpt><trkpt lat="40.359846533877395" lon="18.195197257267722"><ele>39.0</ele><time>2026-04-04T15:41:46.997Z</time></trkpt><trkpt lat="40.35981137795734" lon="18.19507045573537"><ele>39.0</ele><time>2026-04-04T15:41:47.997Z</time></trkpt><trkpt lat="40.359779579598985" lon="18.19495362791466"><ele>39.0</ele><time>2026-04-04T15:41:48.997Z</time></trkpt><trkpt lat="40.35975627809184" lon="18.194845549222094"><ele>39.0</ele><time>2026-04-04T15:41:49.997Z</time></trkpt><trkpt lat="40.35973875678881" lon="18.194753138088654"><ele>39.0</ele><time>2026-04-04T15:41:50.997Z</time></trkpt><trkpt lat="40.35972692083373" lon="18.194671178192955"><ele>39.0</ele><time>2026-04-04T15:41:51.997Z</time></trkpt><trkpt lat="40.35970990198389" lon="18.194545092931403"><ele>39.0</ele><time>2026-04-04T15:41:53.997Z</time></trkpt><trkpt lat="40.35972571742752" lon="18.194448666530416"><ele>39.166666666666664</ele><time>2026-04-04T15:41:55.997Z</time></trkpt><trkpt lat="40.35976558559149" lon="18.19433136799259"><ele>39.333333333333336</ele><time>2026-04-04T15:41:58.997Z</time></trkpt><trkpt lat="40.359831734642185" lon="18.194197250488408"><ele>39.5</ele><time>2026-04-04T15:42:00.997Z</time></trkpt><trkpt lat="40.359855281444624" lon="18.194115681500158"><ele>39.66666666666667</ele><time>2026-04-04T15:42:01.997Z</time></trkpt><trkpt lat="40.35985621966716" lon="18.194025725167688"><ele>39.833333333333336</ele><time>2026-04-04T15:42:02.997Z</time></trkpt><trkpt lat="40.35984089908429" lon="18.193939041932254"><ele>40.0</ele><time>2026-04-04T15:42:03.997Z</time></trkpt><trkpt lat="40.359807974099276" lon="18.193866710661798"><ele>40.333333333333336</ele><time>2026-04-04T15:42:04.997Z</time></trkpt><trkpt lat="40.35975955170194" lon="18.19380491632568"><ele>40.66666666666667</ele><time>2026-04-04T15:42:05.997Z</time></trkpt><trkpt lat="40.35970415781118" lon="18.193763027156084"><ele>41.0</ele><time>2026-04-04T15:42:06.997Z</time></trkpt><trkpt lat="40.35960470314558" lon="18.19371165420019"><ele>41.333333333333336</ele><time>2026-04-04T15:42:08.997Z</time></trkpt><trkpt lat="40.35951185791185" lon="18.193650811786515"><ele>41.666666666666664</ele><time>2026-04-04T15:42:10.997Z</time></trkpt><trkpt lat="40.35942022171175" lon="18.193578969328463"><ele>42.0</ele><time>2026-04-04T15:42:12.997Z</time></trkpt><trkpt lat="40.359317659815865" lon="18.193471276483407"><ele>42.166666666666664</ele><time>2026-04-04T15:42:14.997Z</time></trkpt><trkpt lat="40.35926754536603" lon="18.193412985163764"><ele>42.333333333333336</ele><time>2026-04-04T15:42:15.997Z</time></trkpt><trkpt lat="40.359227633090335" lon="18.193340703839134"><ele>42.5</ele><time>2026-04-04T15:42:16.997Z</time></trkpt><trkpt lat="40.35917234309725" lon="18.193211261405615"><ele>42.66666666666667</ele><time>2026-04-04T15:42:18.997Z</time></trkpt><trkpt lat="40.35913529189701" lon="18.19308921468004"><ele>42.833333333333336</ele><time>2026-04-04T15:42:20.997Z</time></trkpt><trkpt lat="40.359123826455274" lon="18.19297151762406"><ele>43.0</ele><time>2026-04-04T15:42:22.997Z</time></trkpt><trkpt lat="40.35910424163133" lon="18.19286416264485"><ele>43.0</ele><time>2026-04-04T15:42:26.997Z</time></trkpt><trkpt lat="40.35909839977957" lon="18.192771469305576"><ele>43.0</ele><time>2026-04-04T15:42:28.997Z</time></trkpt><trkpt lat="40.35907420173148" lon="18.192663440483546"><ele>43.0</ele><time>2026-04-04T15:42:30.997Z</time></trkpt><trkpt lat="40.359018759037475" lon="18.19254160282477"><ele>43.0</ele><time>2026-04-04T15:42:32.998Z</time></trkpt><trkpt lat="40.358956046931304" lon="18.192429305703257"><ele>43.0</ele><time>2026-04-04T15:42:34.998Z</time></trkpt><trkpt lat="40.35892716011502" lon="18.192295139677807"><ele>43.0</ele><time>2026-04-04T15:42:36.998Z</time></trkpt><trkpt lat="40.35889519357553" lon="18.192170808854545"><ele>43.0</ele><time>2026-04-04T15:42:38.998Z</time></trkpt><trkpt lat="40.35886838571234" lon="18.19209489066892"><ele>43.0</ele><time>2026-04-04T15:42:39.998Z</time></trkpt><trkpt lat="40.35882551025476" lon="18.191949651756637"><ele>43.0</ele><time>2026-04-04T15:42:41.998Z</time></trkpt><trkpt lat="40.35879431959556" lon="18.191827825201074"><ele>43.0</ele><time>2026-04-04T15:42:43.999Z</time></trkpt><trkpt lat="40.35876828095385" lon="18.191689218472057"><ele>43.0</ele><time>2026-04-04T15:42:45.998Z</time></trkpt><trkpt lat="40.3587348711006" lon="18.191615644325"><ele>43.0</ele><time>2026-04-04T15:42:46.998Z</time></trkpt><trkpt lat="40.3587113513334" lon="18.191536829147342"><ele>43.0</ele><time>2026-04-04T15:42:47.997Z</time></trkpt><trkpt lat="40.35863775873627" lon="18.19139222564953"><ele>43.0</ele><time>2026-04-04T15:42:49.997Z</time></trkpt><trkpt lat="40.35861014156376" lon="18.191297203741197"><ele>43.0</ele><time>2026-04-04T15:42:50.997Z</time></trkpt><trkpt lat="40.358578349557924" lon="18.191213878034624"><ele>43.0</ele><time>2026-04-04T15:42:51.997Z</time></trkpt><trkpt lat="40.358540742103536" lon="18.19113357737902"><ele>43.16666666666667</ele><time>2026-04-04T15:42:52.997Z</time></trkpt><trkpt lat="40.35850366199722" lon="18.191040121526125"><ele>43.333333333333336</ele><time>2026-04-04T15:42:53.997Z</time></trkpt><trkpt lat="40.358476635918585" lon="18.190933530712808"><ele>43.5</ele><time>2026-04-04T15:42:54.997Z</time></trkpt><trkpt lat="40.35844718336349" lon="18.190835442560015"><ele>43.666666666666664</ele><time>2026-04-04T15:42:55.997Z</time></trkpt><trkpt lat="40.358414479939185" lon="18.19072403551014"><ele>43.83333333333333</ele><time>2026-04-04T15:42:56.997Z</time></trkpt><trkpt lat="40.35838505866239" lon="18.190611729506305"><ele>44.0</ele><time>2026-04-04T15:42:57.997Z</time></trkpt><trkpt lat="40.358357470945435" lon="18.190501632534676"><ele>44.0</ele><time>2026-04-04T15:42:58.997Z</time></trkpt><trkpt lat="40.35833175140335" lon="18.19038725109843"><ele>44.0</ele><time>2026-04-04T15:42:59.997Z</time></trkpt><trkpt lat="40.358298728231944" lon="18.1902723105527"><ele>44.0</ele><time>2026-04-04T15:43:00.997Z</time></trkpt><trkpt lat="40.35826794912539" lon="18.190147819761922"><ele>44.0</ele><time>2026-04-04T15:43:01.997Z</time></trkpt><trkpt lat="40.358235307222415" lon="18.19003296062167"><ele>44.0</ele><time>2026-04-04T15:43:02.997Z</time></trkpt><trkpt lat="40.35820540700205" lon="18.189919698091256"><ele>44.0</ele><time>2026-04-04T15:43:03.997Z</time></trkpt><trkpt lat="40.35816940112994" lon="18.18980811596265"><ele>44.0</ele><time>2026-04-04T15:43:04.997Z</time></trkpt><trkpt lat="40.35813865994961" lon="18.189690556312"><ele>44.0</ele><time>2026-04-04T15:43:05.997Z</time></trkpt><trkpt lat="40.35810820206993" lon="18.189575191357314"><ele>44.0</ele><time>2026-04-04T15:43:06.997Z</time></trkpt><trkpt lat="40.35807979440459" lon="18.189462465363906"><ele>44.0</ele><time>2026-04-04T15:43:07.997Z</time></trkpt><trkpt lat="40.35806250223201" lon="18.1893424833191"><ele>44.0</ele><time>2026-04-04T15:43:08.997Z</time></trkpt><trkpt lat="40.35803566786296" lon="18.18922143403274"><ele>44.0</ele><time>2026-04-04T15:43:09.997Z</time></trkpt><trkpt lat="40.35800685065115" lon="18.189097314300987"><ele>44.0</ele><time>2026-04-04T15:43:10.997Z</time></trkpt><trkpt lat="40.35797033103174" lon="18.18898384735036"><ele>44.0</ele><time>2026-04-04T15:43:11.997Z</time></trkpt><trkpt lat="40.35794927269384" lon="18.188866829846756"><ele>44.0</ele><time>2026-04-04T15:43:12.997Z</time></trkpt><trkpt lat="40.357926321252954" lon="18.18876603925217"><ele>44.0</ele><time>2026-04-04T15:43:13.997Z</time></trkpt><trkpt lat="40.35790417943251" lon="18.188661715445182"><ele>44.0</ele><time>2026-04-04T15:43:14.997Z</time></trkpt><trkpt lat="40.35787585377517" lon="18.18856175438399"><ele>44.0</ele><time>2026-04-04T15:43:15.997Z</time></trkpt><trkpt lat="40.35784043027318" lon="18.188459616642188"><ele>44.0</ele><time>2026-04-04T15:43:16.997Z</time></trkpt><trkpt lat="40.357814060421376" lon="18.18835141129875"><ele>44.0</ele><time>2026-04-04T15:43:17.997Z</time></trkpt><trkpt lat="40.35778543489204" lon="18.188236048448964"><ele>44.0</ele><time>2026-04-04T15:43:18.997Z</time></trkpt><trkpt lat="40.35774791982364" lon="18.188133595888257"><ele>44.400000000000006</ele><time>2026-04-04T15:43:19.997Z</time></trkpt><trkpt lat="40.357718471076716" lon="18.188018816768274"><ele>44.8</ele><time>2026-04-04T15:43:20.997Z</time></trkpt><trkpt lat="40.35768687745672" lon="18.187904374044994"><ele>45.2</ele><time>2026-04-04T15:43:21.997Z</time></trkpt><trkpt lat="40.357653637417734" lon="18.187781915552957"><ele>45.599999999999994</ele><time>2026-04-04T15:43:22.997Z</time></trkpt><trkpt lat="40.357620313945624" lon="18.18766137702745"><ele>46.0</ele><time>2026-04-04T15:43:23.997Z</time></trkpt><trkpt lat="40.35758295010212" lon="18.18755558377816"><ele>46.0</ele><time>2026-04-04T15:43:24.997Z</time></trkpt><trkpt lat="40.35755335055964" lon="18.187454744932822"><ele>46.0</ele><time>2026-04-04T15:43:25.997Z</time></trkpt><trkpt lat="40.35752301976871" lon="18.18734844445697"><ele>46.0</ele><time>2026-04-04T15:43:26.997Z</time></trkpt><trkpt lat="40.35749677832416" lon="18.187244592509252"><ele>46.0</ele><time>2026-04-04T15:43:27.997Z</time></trkpt><trkpt lat="40.35747045373824" lon="18.187144384134484"><ele>46.0</ele><time>2026-04-04T15:43:28.997Z</time></trkpt><trkpt lat="40.357441447276244" lon="18.18705912055905"><ele>46.0</ele><time>2026-04-04T15:43:29.997Z</time></trkpt><trkpt lat="40.357396650663674" lon="18.186908208891566"><ele>46.0</ele><time>2026-04-04T15:43:31.997Z</time></trkpt><trkpt lat="40.35734342766243" lon="18.186802800447126"><ele>46.0</ele><time>2026-04-04T15:43:33.997Z</time></trkpt><trkpt lat="40.357303228797306" lon="18.186715683348027"><ele>46.0</ele><time>2026-04-04T15:43:36.997Z</time></trkpt><trkpt lat="40.35730531505662" lon="18.18663021841424"><ele>46.0</ele><time>2026-04-04T15:43:44.997Z</time></trkpt><trkpt lat="40.35729348524439" lon="18.1865388790136"><ele>46.0</ele><time>2026-04-04T15:43:47.997Z</time></trkpt><trkpt lat="40.35726674563159" lon="18.18643002712978"><ele>46.0</ele><time>2026-04-04T15:43:49.997Z</time></trkpt><trkpt lat="40.35726038017393" lon="18.186320892365025"><ele>45.833333333333336</ele><time>2026-04-04T15:43:52.997Z</time></trkpt><trkpt lat="40.357253520180166" lon="18.186228298830734"><ele>45.66666666666667</ele><time>2026-04-04T15:43:55.997Z</time></trkpt><trkpt lat="40.35721523308371" lon="18.186141300518933"><ele>45.5</ele><time>2026-04-04T15:44:28.997Z</time></trkpt><trkpt lat="40.35718118177616" lon="18.186004340715606"><ele>45.333333333333336</ele><time>2026-04-04T15:44:30.997Z</time></trkpt><trkpt lat="40.357149152415914" lon="18.185899147612638"><ele>45.166666666666664</ele><time>2026-04-04T15:44:31.997Z</time></trkpt><trkpt lat="40.35711644426229" lon="18.185773137047242"><ele>45.0</ele><time>2026-04-04T15:44:32.997Z</time></trkpt><trkpt lat="40.357086511591696" lon="18.185644331572814"><ele>44.8</ele><time>2026-04-04T15:44:33.997Z</time></trkpt><trkpt lat="40.357064191659425" lon="18.185526519720835"><ele>44.6</ele><time>2026-04-04T15:44:34.997Z</time></trkpt><trkpt lat="40.357041008357896" lon="18.185412084978523"><ele>44.400000000000006</ele><time>2026-04-04T15:44:35.997Z</time></trkpt><trkpt lat="40.357014007261256" lon="18.18529624688692"><ele>44.2</ele><time>2026-04-04T15:44:36.997Z</time></trkpt><trkpt lat="40.35699190661441" lon="18.18517536463787"><ele>44.0</ele><time>2026-04-04T15:44:37.998Z</time></trkpt><trkpt lat="40.35696319490108" lon="18.185071364093503"><ele>44.0</ele><time>2026-04-04T15:44:38.998Z</time></trkpt><trkpt lat="40.356921177068635" lon="18.184990443370097"><ele>44.0</ele><time>2026-04-04T15:44:39.998Z</time></trkpt><trkpt lat="40.35688090514098" lon="18.184874379228457"><ele>44.0</ele><time>2026-04-04T15:44:40.998Z</time></trkpt><trkpt lat="40.356852497105315" lon="18.184769447848176"><ele>44.0</ele><time>2026-04-04T15:44:41.998Z</time></trkpt><trkpt lat="40.356812974853135" lon="18.184665566800724"><ele>44.0</ele><time>2026-04-04T15:44:42.998Z</time></trkpt><trkpt lat="40.35677340983252" lon="18.184569964885625"><ele>44.0</ele><time>2026-04-04T15:44:43.998Z</time></trkpt><trkpt lat="40.35673959688642" lon="18.184470529052415"><ele>44.0</ele><time>2026-04-04T15:44:44.998Z</time></trkpt><trkpt lat="40.356706658706926" lon="18.18437967010957"><ele>44.0</ele><time>2026-04-04T15:44:45.998Z</time></trkpt><trkpt lat="40.35668222684777" lon="18.184283392174997"><ele>44.0</ele><time>2026-04-04T15:44:46.998Z</time></trkpt><trkpt lat="40.35665394054714" lon="18.184188773577755"><ele>44.0</ele><time>2026-04-04T15:44:47.998Z</time></trkpt><trkpt lat="40.356623419254895" lon="18.184088279013245"><ele>44.0</ele><time>2026-04-04T15:44:48.998Z</time></trkpt><trkpt lat="40.35658905608323" lon="18.183987996802056"><ele>44.0</ele><time>2026-04-04T15:44:49.998Z</time></trkpt><trkpt lat="40.35655490206603" lon="18.183882199319502"><ele>44.33333333333333</ele><time>2026-04-04T15:44:50.998Z</time></trkpt><trkpt lat="40.35652075395011" lon="18.183797395295148"><ele>44.666666666666664</ele><time>2026-04-04T15:44:51.998Z</time></trkpt><trkpt lat="40.3564865198747" lon="18.18370561021509"><ele>45.0</ele><time>2026-04-04T15:44:52.998Z</time></trkpt><trkpt lat="40.35645208618552" lon="18.183606101453407"><ele>45.333333333333336</ele><time>2026-04-04T15:44:53.998Z</time></trkpt><trkpt lat="40.35641698296969" lon="18.183504754966354"><ele>45.66666666666667</ele><time>2026-04-04T15:44:54.998Z</time></trkpt><trkpt lat="40.35638879764953" lon="18.183393178675285"><ele>46.0</ele><time>2026-04-04T15:44:55.998Z</time></trkpt><trkpt lat="40.356357122194666" lon="18.183276276303616"><ele>45.66666666666667</ele><time>2026-04-04T15:44:56.998Z</time></trkpt><trkpt lat="40.35632034233471" lon="18.183158007550023"><ele>45.333333333333336</ele><time>2026-04-04T15:44:57.998Z</time></trkpt><trkpt lat="40.35629241295044" lon="18.183055290551714"><ele>45.0</ele><time>2026-04-04T15:44:58.998Z</time></trkpt><trkpt lat="40.35625862180298" lon="18.182946267508054"><ele>44.666666666666664</ele><time>2026-04-04T15:44:59.998Z</time></trkpt><trkpt lat="40.35622640165461" lon="18.182842911019083"><ele>44.33333333333333</ele><time>2026-04-04T15:45:00.998Z</time></trkpt><trkpt lat="40.35619978535312" lon="18.182730954585047"><ele>44.0</ele><time>2026-04-04T15:45:01.998Z</time></trkpt><trkpt lat="40.356173440412896" lon="18.182627579977453"><ele>44.0</ele><time>2026-04-04T15:45:02.998Z</time></trkpt><trkpt lat="40.356141857123816" lon="18.18251695999043"><ele>44.0</ele><time>2026-04-04T15:45:03.998Z</time></trkpt><trkpt lat="40.35610774928918" lon="18.18240397988956"><ele>44.0</ele><time>2026-04-04T15:45:04.998Z</time></trkpt><trkpt lat="40.35607714808798" lon="18.182284105491224"><ele>44.0</ele><time>2026-04-04T15:45:05.998Z</time></trkpt><trkpt lat="40.3560488226233" lon="18.182172244052357"><ele>44.0</ele><time>2026-04-04T15:45:06.998Z</time></trkpt><trkpt lat="40.356021845492435" lon="18.182068039624284"><ele>44.0</ele><time>2026-04-04T15:45:07.998Z</time></trkpt><trkpt lat="40.35599167010182" lon="18.181971018934405"><ele>44.0</ele><time>2026-04-04T15:45:08.998Z</time></trkpt><trkpt lat="40.355961358176636" lon="18.18187700972417"><ele>44.0</ele><time>2026-04-04T15:45:09.998Z</time></trkpt><trkpt lat="40.35593700282566" lon="18.181786816661365"><ele>44.0</ele><time>2026-04-04T15:45:10.998Z</time></trkpt><trkpt lat="40.35591546322596" lon="18.18170426504753"><ele>44.0</ele><time>2026-04-04T15:45:11.998Z</time></trkpt><trkpt lat="40.35589496287346" lon="18.18162534879416"><ele>44.0</ele><time>2026-04-04T15:45:12.998Z</time></trkpt><trkpt lat="40.35583970994538" lon="18.181476220525873"><ele>44.6</ele><time>2026-04-04T15:45:14.998Z</time></trkpt><trkpt lat="40.355800618528505" lon="18.181323906161957"><ele>45.2</ele><time>2026-04-04T15:45:16.998Z</time></trkpt><trkpt lat="40.35577680422317" lon="18.18118155776047"><ele>45.800000000000004</ele><time>2026-04-04T15:45:18.998Z</time></trkpt><trkpt lat="40.35575932944945" lon="18.18109070560471"><ele>46.400000000000006</ele><time>2026-04-04T15:45:20.998Z</time></trkpt><trkpt lat="40.35571949901297" lon="18.181025555659"><ele>47.0</ele><time>2026-04-04T15:45:42.998Z</time></trkpt><trkpt lat="40.355679955669906" lon="18.18089491107907"><ele>47.0</ele><time>2026-04-04T15:45:44.998Z</time></trkpt><trkpt lat="40.35566030410942" lon="18.180807849511236"><ele>47.0</ele><time>2026-04-04T15:45:45.998Z</time></trkpt><trkpt lat="40.35564201314779" lon="18.180728372570044"><ele>47.0</ele><time>2026-04-04T15:45:46.998Z</time></trkpt><trkpt lat="40.35562759306017" lon="18.180644569918034"><ele>47.0</ele><time>2026-04-04T15:45:47.998Z</time></trkpt><trkpt lat="40.3556114476097" lon="18.180476255247033"><ele>47.0</ele><time>2026-04-04T15:45:49.998Z</time></trkpt><trkpt lat="40.355605468774804" lon="18.18032655649567"><ele>47.0</ele><time>2026-04-04T15:45:51.998Z</time></trkpt><trkpt lat="40.35560180725777" lon="18.180176701357947"><ele>47.33333333333333</ele><time>2026-04-04T15:45:53.998Z</time></trkpt><trkpt lat="40.35560688986473" lon="18.18004294169727"><ele>47.666666666666664</ele><time>2026-04-04T15:45:55.998Z</time></trkpt><trkpt lat="40.35560053572508" lon="18.17993104350911"><ele>48.0</ele><time>2026-04-04T15:45:57.998Z</time></trkpt><trkpt lat="40.35559676449419" lon="18.17983817708369"><ele>48.33333333333333</ele><time>2026-04-04T15:45:59.998Z</time></trkpt><trkpt lat="40.355551787197136" lon="18.17977028483488"><ele>48.666666666666664</ele><time>2026-04-04T15:46:07.998Z</time></trkpt><trkpt lat="40.35548051392097" lon="18.179739250714118"><ele>49.0</ele><time>2026-04-04T15:46:12.998Z</time></trkpt><trkpt lat="40.35543360963327" lon="18.1796620513869"><ele>49.49999999999999</ele><time>2026-04-04T15:46:32.998Z</time></trkpt><trkpt lat="40.35543269165745" lon="18.179571313646395"><ele>50.0</ele><time>2026-04-04T15:46:34.998Z</time></trkpt><trkpt lat="40.35544106365382" lon="18.179463096289783"><ele>50.5</ele><time>2026-04-04T15:46:36.997Z</time></trkpt><trkpt lat="40.35545068038711" lon="18.17933539675938"><ele>51.0</ele><time>2026-04-04T15:46:38.997Z</time></trkpt><trkpt lat="40.35545623461702" lon="18.17924226180776"><ele>51.49999999999999</ele><time>2026-04-04T15:46:40.997Z</time></trkpt><trkpt lat="40.35544768414494" lon="18.179155203715165"><ele>52.0</ele><time>2026-04-04T15:46:42.997Z</time></trkpt><trkpt lat="40.35543322525302" lon="18.17907300661624"><ele>51.99999999999999</ele><time>2026-04-04T15:46:45.997Z</time></trkpt><trkpt lat="40.355447674837436" lon="18.17897899818016"><ele>52.0</ele><time>2026-04-04T15:46:48.998Z</time></trkpt><trkpt lat="40.355454425145496" lon="18.178881409344587"><ele>52.0</ele><time>2026-04-04T15:46:50.997Z</time></trkpt><trkpt lat="40.35547218085872" lon="18.178763694083525"><ele>52.0</ele><time>2026-04-04T15:46:52.998Z</time></trkpt><trkpt lat="40.355487438494215" lon="18.17866452256294"><ele>51.99999999999999</ele><time>2026-04-04T15:46:54.997Z</time></trkpt><trkpt lat="40.355479483085766" lon="18.17850937356446"><ele>52.0</ele><time>2026-04-04T15:46:56.998Z</time></trkpt><trkpt lat="40.35547057992661" lon="18.178367621731084"><ele>51.99999999999999</ele><time>2026-04-04T15:46:58.998Z</time></trkpt><trkpt lat="40.35544963218727" lon="18.17826736937028"><ele>52.0</ele><time>2026-04-04T15:47:49.998Z</time></trkpt><trkpt lat="40.355438231434285" lon="18.1781638090658"><ele>52.0</ele><time>2026-04-04T15:47:51.998Z</time></trkpt><trkpt lat="40.355396465439256" lon="18.178034096558093"><ele>52.0</ele><time>2026-04-04T15:47:53.998Z</time></trkpt><trkpt lat="40.35539497347758" lon="18.177941437809615"><ele>51.99999999999999</ele><time>2026-04-04T15:47:54.998Z</time></trkpt><trkpt lat="40.35539365164697" lon="18.177840242315032"><ele>52.0</ele><time>2026-04-04T15:47:55.998Z</time></trkpt><trkpt lat="40.35539105277297" lon="18.177725501327497"><ele>51.99999999999999</ele><time>2026-04-04T15:47:56.998Z</time></trkpt><trkpt lat="40.355389341795295" lon="18.177611859534295"><ele>52.0</ele><time>2026-04-04T15:47:57.998Z</time></trkpt><trkpt lat="40.35538160522204" lon="18.177499817691057"><ele>52.0</ele><time>2026-04-04T15:47:58.998Z</time></trkpt><trkpt lat="40.35536900972135" lon="18.177395379548454"><ele>52.0</ele><time>2026-04-04T15:47:59.998Z</time></trkpt><trkpt lat="40.35536335325822" lon="18.17729016033274"><ele>51.99999999999999</ele><time>2026-04-04T15:48:00.998Z</time></trkpt><trkpt lat="40.355354845412066" lon="18.17717775804414"><ele>52.0</ele><time>2026-04-04T15:48:01.998Z</time></trkpt><trkpt lat="40.35534758161598" lon="18.177059424023405"><ele>51.99999999999999</ele><time>2026-04-04T15:48:02.998Z</time></trkpt><trkpt lat="40.3553371682805" lon="18.1769361481621"><ele>52.0</ele><time>2026-04-04T15:48:03.998Z</time></trkpt><trkpt lat="40.355322269233994" lon="18.176820739869566"><ele>52.0</ele><time>2026-04-04T15:48:04.998Z</time></trkpt><trkpt lat="40.355304864398235" lon="18.17672102167272"><ele>52.0</ele><time>2026-04-04T15:48:05.998Z</time></trkpt><trkpt lat="40.355294940642715" lon="18.176633263588702"><ele>51.99999999999999</ele><time>2026-04-04T15:48:06.998Z</time></trkpt><trkpt lat="40.35527305379558" lon="18.17652748751042"><ele>52.0</ele><time>2026-04-04T15:48:08.998Z</time></trkpt><trkpt lat="40.35526784658145" lon="18.176426700973504"><ele>51.666666666666664</ele><time>2026-04-04T15:48:10.997Z</time></trkpt><trkpt lat="40.355304469982975" lon="18.176323616508615"><ele>51.33333333333333</ele><time>2026-04-04T15:48:13.997Z</time></trkpt><trkpt lat="40.35539263951708" lon="18.176279790431142"><ele>51.0</ele><time>2026-04-04T15:48:15.997Z</time></trkpt><trkpt lat="40.35546138426576" lon="18.176275306690147"><ele>50.66666666666667</ele><time>2026-04-04T15:48:16.997Z</time></trkpt><trkpt lat="40.35553631446096" lon="18.176248238993576"><ele>50.333333333333336</ele><time>2026-04-04T15:48:17.997Z</time></trkpt><trkpt lat="40.35561480229571" lon="18.176233102854816"><ele>50.0</ele><time>2026-04-04T15:48:18.997Z</time></trkpt><trkpt lat="40.355689266713945" lon="18.176141307641913"><ele>50.0</ele><time>2026-04-04T15:48:19.997Z</time></trkpt><trkpt lat="40.355751167238125" lon="18.17603088302834"><ele>50.0</ele><time>2026-04-04T15:48:20.997Z</time></trkpt><trkpt lat="40.35580534394191" lon="18.175907617799126"><ele>50.0</ele><time>2026-04-04T15:48:21.997Z</time></trkpt><trkpt lat="40.35586201313662" lon="18.17578506278037"><ele>50.0</ele><time>2026-04-04T15:48:22.997Z</time></trkpt><trkpt lat="40.35592848221017" lon="18.175644891105176"><ele>50.0</ele><time>2026-04-04T15:48:23.997Z</time></trkpt><trkpt lat="40.355969347254245" lon="18.175499399525158"><ele>50.0</ele><time>2026-04-04T15:48:24.997Z</time></trkpt><trkpt lat="40.3559920397635" lon="18.175354590586895"><ele>50.0</ele><time>2026-04-04T15:48:25.997Z</time></trkpt><trkpt lat="40.356009312687625" lon="18.175243912411165"><ele>50.0</ele><time>2026-04-04T15:48:26.997Z</time></trkpt><trkpt lat="40.356108994803066" lon="18.17509757107373"><ele>50.0</ele><time>2026-04-04T15:48:28.997Z</time></trkpt><trkpt lat="40.35612771389825" lon="18.175011106795093"><ele>50.0</ele><time>2026-04-04T15:48:29.997Z</time></trkpt><trkpt lat="40.35615390525111" lon="18.174925304803402"><ele>50.2</ele><time>2026-04-04T15:48:30.997Z</time></trkpt><trkpt lat="40.35618192268853" lon="18.174789355154164"><ele>50.4</ele><time>2026-04-04T15:48:32.997Z</time></trkpt><trkpt lat="40.35620687894744" lon="18.174709483925284"><ele>50.599999999999994</ele><time>2026-04-04T15:48:33.997Z</time></trkpt><trkpt lat="40.35621642554775" lon="18.174566752797382"><ele>50.8</ele><time>2026-04-04T15:48:35.997Z</time></trkpt><trkpt lat="40.35613839292223" lon="18.174432296552943"><ele>51.0</ele><time>2026-04-04T15:48:37.997Z</time></trkpt><trkpt lat="40.35608637321645" lon="18.174351373798505"><ele>51.0</ele><time>2026-04-04T15:48:38.997Z</time></trkpt><trkpt lat="40.35604756910271" lon="18.174227038662035"><ele>51.0</ele><time>2026-04-04T15:48:39.997Z</time></trkpt><trkpt lat="40.35601257343454" lon="18.17409938958617"><ele>51.0</ele><time>2026-04-04T15:48:40.997Z</time></trkpt><trkpt lat="40.35596850485516" lon="18.173985194336257"><ele>51.0</ele><time>2026-04-04T15:48:41.997Z</time></trkpt><trkpt lat="40.35591607768025" lon="18.17388503006857"><ele>51.0</ele><time>2026-04-04T15:48:42.997Z</time></trkpt><trkpt lat="40.35585363103791" lon="18.173805311419652"><ele>51.4</ele><time>2026-04-04T15:48:43.997Z</time></trkpt><trkpt lat="40.35577931760936" lon="18.17373052460971"><ele>51.8</ele><time>2026-04-04T15:48:44.997Z</time></trkpt><trkpt lat="40.35569318857748" lon="18.173682419273455"><ele>52.199999999999996</ele><time>2026-04-04T15:48:45.997Z</time></trkpt><trkpt lat="40.35560360361549" lon="18.17367923707861"><ele>52.599999999999994</ele><time>2026-04-04T15:48:46.997Z</time></trkpt><trkpt lat="40.35550968223483" lon="18.173703592093958"><ele>53.0</ele><time>2026-04-04T15:48:47.997Z</time></trkpt><trkpt lat="40.35541562289638" lon="18.173757683286176"><ele>53.00000000000001</ele><time>2026-04-04T15:48:48.997Z</time></trkpt><trkpt lat="40.35532753418391" lon="18.173772498428647"><ele>53.0</ele><time>2026-04-04T15:48:49.998Z</time></trkpt><trkpt lat="40.355240152135444" lon="18.17377263300959"><ele>53.0</ele><time>2026-04-04T15:48:50.997Z</time></trkpt><trkpt lat="40.35516488959661" lon="18.173781024777153"><ele>53.0</ele><time>2026-04-04T15:48:51.997Z</time></trkpt><trkpt lat="40.35508177564878" lon="18.173793202927477"><ele>53.00000000000001</ele><time>2026-04-04T15:48:52.998Z</time></trkpt><trkpt lat="40.35499823368475" lon="18.173802071487415"><ele>53.0</ele><time>2026-04-04T15:48:53.998Z</time></trkpt><trkpt lat="40.354913971951305" lon="18.17380653442678"><ele>53.00000000000001</ele><time>2026-04-04T15:48:54.998Z</time></trkpt><trkpt lat="40.354836239884825" lon="18.173807845413844"><ele>53.0</ele><time>2026-04-04T15:48:55.998Z</time></trkpt><trkpt lat="40.35477077847001" lon="18.17381037443006"><ele>53.0</ele><time>2026-04-04T15:48:56.998Z</time></trkpt><trkpt lat="40.35470466115668" lon="18.17382166845978"><ele>53.0</ele><time>2026-04-04T15:48:57.998Z</time></trkpt><trkpt lat="40.35459992686244" lon="18.173839587470617"><ele>53.00000000000001</ele><time>2026-04-04T15:48:59.997Z</time></trkpt><trkpt lat="40.354509236308495" lon="18.173850520997345"><ele>53.0</ele><time>2026-04-04T15:49:01.998Z</time></trkpt><trkpt lat="40.354432152245025" lon="18.173868720250656"><ele>53.16666666666667</ele><time>2026-04-04T15:49:03.998Z</time></trkpt><trkpt lat="40.354347235324944" lon="18.173880484315077"><ele>53.333333333333336</ele><time>2026-04-04T15:49:06.998Z</time></trkpt><trkpt lat="40.35428525934535" lon="18.1738976712989"><ele>53.5</ele><time>2026-04-04T15:49:12.998Z</time></trkpt><trkpt lat="40.35421591687553" lon="18.173896829241816"><ele>53.66666666666667</ele><time>2026-04-04T15:49:15.998Z</time></trkpt><trkpt lat="40.35410039157986" lon="18.17391754853855"><ele>53.833333333333336</ele><time>2026-04-04T15:49:17.998Z</time></trkpt><trkpt lat="40.35403329111568" lon="18.173937035572457"><ele>54.0</ele><time>2026-04-04T15:49:18.998Z</time></trkpt><trkpt lat="40.353971240217675" lon="18.17395595440308"><ele>54.0</ele><time>2026-04-04T15:49:19.998Z</time></trkpt><trkpt lat="40.353897181146834" lon="18.173989325767295"><ele>54.0</ele><time>2026-04-04T15:49:20.998Z</time></trkpt><trkpt lat="40.353788242716" lon="18.174008418137173"><ele>54.0</ele><time>2026-04-04T15:49:22.998Z</time></trkpt><trkpt lat="40.353698087071685" lon="18.17402288675223"><ele>54.0</ele><time>2026-04-04T15:49:24.998Z</time></trkpt><trkpt lat="40.353617503529264" lon="18.174025381715154"><ele>54.0</ele><time>2026-04-04T15:49:26.998Z</time></trkpt><trkpt lat="40.353529943037906" lon="18.174022706095286"><ele>54.0</ele><time>2026-04-04T15:49:28.998Z</time></trkpt><trkpt lat="40.35344107074108" lon="18.17403051180969"><ele>53.57142857142857</ele><time>2026-04-04T15:49:30.998Z</time></trkpt><trkpt lat="40.353373868970706" lon="18.174031735631136"><ele>53.14285714285714</ele><time>2026-04-04T15:49:31.998Z</time></trkpt><trkpt lat="40.35329983047081" lon="18.17404345497229"><ele>52.714285714285715</ele><time>2026-04-04T15:49:32.998Z</time></trkpt><trkpt lat="40.35322163105348" lon="18.174058862410703"><ele>52.285714285714285</ele><time>2026-04-04T15:49:33.998Z</time></trkpt><trkpt lat="40.35314175928798" lon="18.17408000149684"><ele>51.85714285714286</ele><time>2026-04-04T15:49:34.998Z</time></trkpt><trkpt lat="40.35307130130672" lon="18.17409034152101"><ele>51.42857142857143</ele><time>2026-04-04T15:49:35.998Z</time></trkpt><trkpt lat="40.35300037950612" lon="18.17410022272962"><ele>51.0</ele><time>2026-04-04T15:49:36.998Z</time></trkpt><trkpt lat="40.35293111377492" lon="18.174109737385308"><ele>51.0</ele><time>2026-04-04T15:49:37.998Z</time></trkpt><trkpt lat="40.35280672397995" lon="18.17413612302856"><ele>51.0</ele><time>2026-04-04T15:49:39.998Z</time></trkpt><trkpt lat="40.35270406667393" lon="18.174158244235556"><ele>51.0</ele><time>2026-04-04T15:49:41.998Z</time></trkpt><trkpt lat="40.35262896081525" lon="18.174154814519838"><ele>51.0</ele><time>2026-04-04T15:49:43.998Z</time></trkpt><trkpt lat="40.35254205211497" lon="18.174158553203437"><ele>51.0</ele><time>2026-04-04T15:49:46.997Z</time></trkpt><trkpt lat="40.352468116716615" lon="18.174123206641656"><ele>51.0</ele><time>2026-04-04T15:49:49.997Z</time></trkpt><trkpt lat="40.352383118430595" lon="18.174109002096735"><ele>51.0</ele><time>2026-04-04T15:49:53.997Z</time></trkpt><trkpt lat="40.35230259610741" lon="18.174103561416366"><ele>51.0</ele><time>2026-04-04T15:49:55.997Z</time></trkpt><trkpt lat="40.35222931883724" lon="18.17409593835921"><ele>51.0</ele><time>2026-04-04T15:49:57.997Z</time></trkpt><trkpt lat="40.352157537648395" lon="18.17406362606636"><ele>51.0</ele><time>2026-04-04T15:49:59.997Z</time></trkpt><trkpt lat="40.35208867392911" lon="18.1740262460985"><ele>51.0</ele><time>2026-04-04T15:50:01.997Z</time></trkpt><trkpt lat="40.35202220725751" lon="18.173982506023155"><ele>51.166666666666664</ele><time>2026-04-04T15:50:02.997Z</time></trkpt><trkpt lat="40.35193016046574" lon="18.173980547655074"><ele>51.33333333333333</ele><time>2026-04-04T15:50:04.997Z</time></trkpt><trkpt lat="40.35186081950408" lon="18.17399557087349"><ele>51.5</ele><time>2026-04-04T15:50:06.997Z</time></trkpt><trkpt lat="40.35181834358121" lon="18.17407187373855"><ele>51.666666666666664</ele><time>2026-04-04T15:50:10.997Z</time></trkpt><trkpt lat="40.3517853512742" lon="18.17417320595539"><ele>51.83333333333333</ele><time>2026-04-04T15:50:13.997Z</time></trkpt><trkpt lat="40.35175735828863" lon="18.174258856679813"><ele>52.0</ele><time>2026-04-04T15:50:15.997Z</time></trkpt><trkpt lat="40.351730246219645" lon="18.174352484197478"><ele>51.99999999999999</ele><time>2026-04-04T15:50:17.997Z</time></trkpt><trkpt lat="40.351704597904515" lon="18.17446274300004"><ele>52.0</ele><time>2026-04-04T15:50:20.997Z</time></trkpt><trkpt lat="40.35167542986118" lon="18.174567935433185"><ele>52.0</ele><time>2026-04-04T15:50:22.997Z</time></trkpt><trkpt lat="40.35163586644087" lon="18.17463609126848"><ele>52.0</ele><time>2026-04-04T15:50:24.997Z</time></trkpt><trkpt lat="40.35156847337143" lon="18.174657902025825"><ele>51.99999999999999</ele><time>2026-04-04T15:50:28.997Z</time></trkpt><trkpt lat="40.35149659241006" lon="18.174695126321446"><ele>52.0</ele><time>2026-04-04T15:50:32.997Z</time></trkpt><trkpt lat="40.3514204428393" lon="18.174678372443264"><ele>51.6</ele><time>2026-04-04T15:50:34.997Z</time></trkpt><trkpt lat="40.35133492060046" lon="18.17460366765295"><ele>51.2</ele><time>2026-04-04T15:50:36.997Z</time></trkpt><trkpt lat="40.35125516532183" lon="18.174537022660246"><ele>50.8</ele><time>2026-04-04T15:50:38.997Z</time></trkpt><trkpt lat="40.351186875110706" lon="18.17448146286524"><ele>50.4</ele><time>2026-04-04T15:50:40.997Z</time></trkpt><trkpt lat="40.351106160246225" lon="18.17442647724607"><ele>50.0</ele><time>2026-04-04T15:50:42.997Z</time></trkpt><trkpt lat="40.3510017915101" lon="18.17434936369069"><ele>50.0</ele><time>2026-04-04T15:50:44.997Z</time></trkpt><trkpt lat="40.350946354073386" lon="18.174299144719747"><ele>50.0</ele><time>2026-04-04T15:50:45.997Z</time></trkpt><trkpt lat="40.35083663063271" lon="18.174225755930344"><ele>50.0</ele><time>2026-04-04T15:50:47.997Z</time></trkpt><trkpt lat="40.35073042292779" lon="18.17415494285965"><ele>50.0</ele><time>2026-04-04T15:50:49.997Z</time></trkpt><trkpt lat="40.35065026135153" lon="18.174081890767162"><ele>50.0</ele><time>2026-04-04T15:50:51.997Z</time></trkpt><trkpt lat="40.350574083391905" lon="18.17402776424963"><ele>50.6</ele><time>2026-04-04T15:50:53.997Z</time></trkpt><trkpt lat="40.35050193718455" lon="18.1739760305797"><ele>51.2</ele><time>2026-04-04T15:50:55.998Z</time></trkpt><trkpt lat="40.35041678625594" lon="18.173910071963785"><ele>51.8</ele><time>2026-04-04T15:50:57.997Z</time></trkpt><trkpt lat="40.35031767248212" lon="18.173826910741138"><ele>52.4</ele><time>2026-04-04T15:50:59.997Z</time></trkpt><trkpt lat="40.35020759812486" lon="18.173771523253635"><ele>53.0</ele><time>2026-04-04T15:51:01.998Z</time></trkpt><trkpt lat="40.35010618114119" lon="18.17368983619708"><ele>53.0</ele><time>2026-04-04T15:51:03.998Z</time></trkpt><trkpt lat="40.3500199444228" lon="18.17361248811108"><ele>53.0</ele><time>2026-04-04T15:51:05.998Z</time></trkpt><trkpt lat="40.34993642507408" lon="18.173549227694046"><ele>53.0</ele><time>2026-04-04T15:51:07.997Z</time></trkpt><trkpt lat="40.349840518377846" lon="18.173493900116643"><ele>53.0</ele><time>2026-04-04T15:51:09.998Z</time></trkpt><trkpt lat="40.349771150986825" lon="18.173430196505688"><ele>53.0</ele><time>2026-04-04T15:51:11.998Z</time></trkpt><trkpt lat="40.3497111189744" lon="18.173386360899976"><ele>53.16666666666667</ele><time>2026-04-04T15:51:13.998Z</time></trkpt><trkpt lat="40.349618391067075" lon="18.173340013125216"><ele>53.333333333333336</ele><time>2026-04-04T15:51:16.998Z</time></trkpt><trkpt lat="40.349550831984985" lon="18.173320368381102"><ele>53.5</ele><time>2026-04-04T15:51:17.998Z</time></trkpt><trkpt lat="40.349493733271316" lon="18.173272168114043"><ele>53.66666666666667</ele><time>2026-04-04T15:51:18.998Z</time></trkpt><trkpt lat="40.34943308600482" lon="18.173235308516116"><ele>53.833333333333336</ele><time>2026-04-04T15:51:19.998Z</time></trkpt><trkpt lat="40.34936059792543" lon="18.17318508681985"><ele>54.0</ele><time>2026-04-04T15:51:20.998Z</time></trkpt><trkpt lat="40.349292896352615" lon="18.17312333899462"><ele>53.2</ele><time>2026-04-04T15:51:21.998Z</time></trkpt><trkpt lat="40.349226022245986" lon="18.173062952987973"><ele>52.400000000000006</ele><time>2026-04-04T15:51:22.998Z</time></trkpt><trkpt lat="40.34916272169568" lon="18.172994473259667"><ele>51.6</ele><time>2026-04-04T15:51:23.998Z</time></trkpt><trkpt lat="40.34909140176868" lon="18.172916143669873"><ele>50.8</ele><time>2026-04-04T15:51:24.998Z</time></trkpt><trkpt lat="40.34901532011627" lon="18.17284342915226"><ele>50.0</ele><time>2026-04-04T15:51:25.998Z</time></trkpt><trkpt lat="40.34893883709355" lon="18.172754038485987"><ele>49.833333333333336</ele><time>2026-04-04T15:51:26.998Z</time></trkpt><trkpt lat="40.348868770960465" lon="18.17268896875602"><ele>49.66666666666667</ele><time>2026-04-04T15:51:27.998Z</time></trkpt><trkpt lat="40.348814082295135" lon="18.172636242475683"><ele>49.5</ele><time>2026-04-04T15:51:28.998Z</time></trkpt><trkpt lat="40.34873684354736" lon="18.172567742105432"><ele>49.33333333333333</ele><time>2026-04-04T15:51:30.998Z</time></trkpt><trkpt lat="40.348667288172464" lon="18.17250195900218"><ele>49.166666666666664</ele><time>2026-04-04T15:51:34.998Z</time></trkpt><trkpt lat="40.34858538995691" lon="18.172427635151198"><ele>49.0</ele><time>2026-04-04T15:51:36.998Z</time></trkpt><trkpt lat="40.348493565266565" lon="18.172352379754862"><ele>49.49999999999999</ele><time>2026-04-04T15:51:38.998Z</time></trkpt><trkpt lat="40.34838697833925" lon="18.172266780662387"><ele>50.0</ele><time>2026-04-04T15:51:40.998Z</time></trkpt><trkpt lat="40.3483165009414" lon="18.17221691065288"><ele>50.5</ele><time>2026-04-04T15:51:41.998Z</time></trkpt><trkpt lat="40.348241961883524" lon="18.172162551280795"><ele>51.0</ele><time>2026-04-04T15:51:42.997Z</time></trkpt><trkpt lat="40.34817973837925" lon="18.172112592714374"><ele>51.49999999999999</ele><time>2026-04-04T15:51:43.997Z</time></trkpt><trkpt lat="40.348122476489706" lon="18.172068425991746"><ele>52.0</ele><time>2026-04-04T15:51:44.997Z</time></trkpt><trkpt lat="40.34806363105798" lon="18.17202345929915"><ele>51.666666666666664</ele><time>2026-04-04T15:51:45.997Z</time></trkpt><trkpt lat="40.34800509168746" lon="18.171973065418488"><ele>51.33333333333333</ele><time>2026-04-04T15:51:46.997Z</time></trkpt><trkpt lat="40.3479408912596" lon="18.171915111593663"><ele>51.0</ele><time>2026-04-04T15:51:47.997Z</time></trkpt><trkpt lat="40.34786840834708" lon="18.171847578969103"><ele>50.66666666666667</ele><time>2026-04-04T15:51:48.997Z</time></trkpt><trkpt lat="40.3477869076702" lon="18.171794077197006"><ele>50.333333333333336</ele><time>2026-04-04T15:51:49.997Z</time></trkpt><trkpt lat="40.34771499904282" lon="18.17172532177871"><ele>50.0</ele><time>2026-04-04T15:51:50.997Z</time></trkpt><trkpt lat="40.34764637766866" lon="18.171663522703184"><ele>50.0</ele><time>2026-04-04T15:51:51.997Z</time></trkpt><trkpt lat="40.3475784023585" lon="18.17160458803955"><ele>50.0</ele><time>2026-04-04T15:51:52.997Z</time></trkpt><trkpt lat="40.347499266064595" lon="18.171538437629327"><ele>50.0</ele><time>2026-04-04T15:51:53.997Z</time></trkpt><trkpt lat="40.34741130778341" lon="18.1714534560511"><ele>50.0</ele><time>2026-04-04T15:51:54.997Z</time></trkpt><trkpt lat="40.347304469951304" lon="18.17136987224474"><ele>50.0</ele><time>2026-04-04T15:51:55.997Z</time></trkpt><trkpt lat="40.34716669482284" lon="18.17126514891765"><ele>50.4</ele><time>2026-04-04T15:51:56.997Z</time></trkpt><trkpt lat="40.34704008128381" lon="18.171157973555335"><ele>50.8</ele><time>2026-04-04T15:51:57.997Z</time></trkpt><trkpt lat="40.34693539213729" lon="18.171086510515455"><ele>51.2</ele><time>2026-04-04T15:51:58.997Z</time></trkpt><trkpt lat="40.3468528798727" lon="18.17103098453767"><ele>51.6</ele><time>2026-04-04T15:51:59.997Z</time></trkpt><trkpt lat="40.346785450655666" lon="18.170984718586336"><ele>52.0</ele><time>2026-04-04T15:52:00.997Z</time></trkpt><trkpt lat="40.346730020273085" lon="18.170944294632143"><ele>52.0</ele><time>2026-04-04T15:52:01.997Z</time></trkpt><trkpt lat="40.346640273687065" lon="18.170863971530974"><ele>52.0</ele><time>2026-04-04T15:52:03.997Z</time></trkpt><trkpt lat="40.3465470387843" lon="18.17079979039814"><ele>52.0</ele><time>2026-04-04T15:52:05.997Z</time></trkpt><trkpt lat="40.34649014696975" lon="18.170743548798754"><ele>52.0</ele><time>2026-04-04T15:52:07.997Z</time></trkpt><trkpt lat="40.3464850644291" lon="18.170619493905235"><ele>52.0</ele><time>2026-04-04T15:52:09.997Z</time></trkpt><trkpt lat="40.34651389645462" lon="18.170534634636713"><ele>51.8</ele><time>2026-04-04T15:52:10.997Z</time></trkpt><trkpt lat="40.34656555160609" lon="18.17044343719266"><ele>51.6</ele><time>2026-04-04T15:52:11.997Z</time></trkpt><trkpt lat="40.34662544441928" lon="18.170347611588934"><ele>51.4</ele><time>2026-04-04T15:52:12.997Z</time></trkpt><trkpt lat="40.34669022211472" lon="18.170250357682264"><ele>51.199999999999996</ele><time>2026-04-04T15:52:13.997Z</time></trkpt><trkpt lat="40.346753683413944" lon="18.170147280131662"><ele>51.0</ele><time>2026-04-04T15:52:14.997Z</time></trkpt><trkpt lat="40.346818714387446" lon="18.17003842068036"><ele>51.0</ele><time>2026-04-04T15:52:15.997Z</time></trkpt><trkpt lat="40.34688178109546" lon="18.169933830487224"><ele>51.0</ele><time>2026-04-04T15:52:16.997Z</time></trkpt><trkpt lat="40.346941798388976" lon="18.169833650462415"><ele>51.0</ele><time>2026-04-04T15:52:17.997Z</time></trkpt><trkpt lat="40.34700395734996" lon="18.169712322847143"><ele>51.0</ele><time>2026-04-04T15:52:18.997Z</time></trkpt><trkpt lat="40.34706336638976" lon="18.169609415614506"><ele>51.0</ele><time>2026-04-04T15:52:19.997Z</time></trkpt><trkpt lat="40.34712024634884" lon="18.16951086374849"><ele>51.0</ele><time>2026-04-04T15:52:20.997Z</time></trkpt><trkpt lat="40.34717445822108" lon="18.169400347884764"><ele>51.0</ele><time>2026-04-04T15:52:21.997Z</time></trkpt><trkpt lat="40.347228434695126" lon="18.16929793231206"><ele>51.0</ele><time>2026-04-04T15:52:22.997Z</time></trkpt><trkpt lat="40.347284723499065" lon="18.169197300279063"><ele>51.0</ele><time>2026-04-04T15:52:23.997Z</time></trkpt><trkpt lat="40.34733996633646" lon="18.16909896822047"><ele>51.0</ele><time>2026-04-04T15:52:24.997Z</time></trkpt><trkpt lat="40.34739307030841" lon="18.169001509460024"><ele>50.85714285714286</ele><time>2026-04-04T15:52:25.997Z</time></trkpt><trkpt lat="40.34744268379032" lon="18.168914108782104"><ele>50.714285714285715</ele><time>2026-04-04T15:52:26.997Z</time></trkpt><trkpt lat="40.34748768363392" lon="18.168829298584036"><ele>50.57142857142857</ele><time>2026-04-04T15:52:27.997Z</time></trkpt><trkpt lat="40.34752849611805" lon="18.168740440983413"><ele>50.42857142857143</ele><time>2026-04-04T15:52:28.997Z</time></trkpt><trkpt lat="40.34756553084473" lon="18.16866857101282"><ele>50.285714285714285</ele><time>2026-04-04T15:52:29.997Z</time></trkpt><trkpt lat="40.34760842922567" lon="18.168598354668198"><ele>50.142857142857146</ele><time>2026-04-04T15:52:30.997Z</time></trkpt><trkpt lat="40.34764755308053" lon="18.168523036270212"><ele>50.0</ele><time>2026-04-04T15:52:31.997Z</time></trkpt><trkpt lat="40.34772384768762" lon="18.16840378926171"><ele>50.00000000000001</ele><time>2026-04-04T15:52:33.997Z</time></trkpt><trkpt lat="40.34777062263769" lon="18.16833231291294"><ele>50.0</ele><time>2026-04-04T15:52:35.997Z</time></trkpt><trkpt lat="40.34781228621939" lon="18.168268283279886"><ele>50.0</ele><time>2026-04-04T15:52:37.997Z</time></trkpt><trkpt lat="40.34786429465191" lon="18.16819631870662"><ele>50.0</ele><time>2026-04-04T15:52:40.997Z</time></trkpt><trkpt lat="40.34791875995381" lon="18.168144601049367"><ele>50.00000000000001</ele><time>2026-04-04T15:52:51.997Z</time></trkpt><trkpt lat="40.34797185153025" lon="18.16806360962529"><ele>50.0</ele><time>2026-04-04T15:52:55.997Z</time></trkpt><trkpt lat="40.3480359754521" lon="18.16794782850743"><ele>50.0</ele><time>2026-04-04T15:52:57.997Z</time></trkpt><trkpt lat="40.34809462534468" lon="18.167836137039153"><ele>50.0</ele><time>2026-04-04T15:52:59.997Z</time></trkpt><trkpt lat="40.34809929181336" lon="18.16769872571973"><ele>50.0</ele><time>2026-04-04T15:53:01.998Z</time></trkpt><trkpt lat="40.34803354049476" lon="18.167564784381607"><ele>50.0</ele><time>2026-04-04T15:53:03.997Z</time></trkpt><trkpt lat="40.34792694078038" lon="18.167478517599452"><ele>50.333333333333336</ele><time>2026-04-04T15:53:05.997Z</time></trkpt><trkpt lat="40.347867703776004" lon="18.167440148489252"><ele>50.66666666666667</ele><time>2026-04-04T15:53:06.997Z</time></trkpt><trkpt lat="40.347799696572125" lon="18.16739184617394"><ele>51.0</ele><time>2026-04-04T15:53:07.997Z</time></trkpt><trkpt lat="40.34772938797689" lon="18.167329162405245"><ele>51.33333333333333</ele><time>2026-04-04T15:53:08.997Z</time></trkpt><trkpt lat="40.34764300678465" lon="18.16726262131614"><ele>51.666666666666664</ele><time>2026-04-04T15:53:09.997Z</time></trkpt><trkpt lat="40.3475649459223" lon="18.167192481670245"><ele>52.0</ele><time>2026-04-04T15:53:10.996Z</time></trkpt><trkpt lat="40.3474867828944" lon="18.167143119736533"><ele>52.166666666666664</ele><time>2026-04-04T15:53:11.997Z</time></trkpt><trkpt lat="40.347411281510034" lon="18.16709725977235"><ele>52.33333333333333</ele><time>2026-04-04T15:53:12.997Z</time></trkpt><trkpt lat="40.34733878523192" lon="18.167051426897263"><ele>52.5</ele><time>2026-04-04T15:53:13.997Z</time></trkpt><trkpt lat="40.34726491560638" lon="18.16702547744031"><ele>52.66666666666667</ele><time>2026-04-04T15:53:14.997Z</time></trkpt><trkpt lat="40.34718541099483" lon="18.16700992001451"><ele>52.833333333333336</ele><time>2026-04-04T15:53:15.997Z</time></trkpt><trkpt lat="40.347129131435196" lon="18.166926168301032"><ele>53.0</ele><time>2026-04-04T15:53:16.997Z</time></trkpt><trkpt lat="40.34705728957967" lon="18.16686940024008"><ele>53.00000000000001</ele><time>2026-04-04T15:53:17.997Z</time></trkpt><trkpt lat="40.34698568920596" lon="18.166812238304573"><ele>53.0</ele><time>2026-04-04T15:53:18.997Z</time></trkpt><trkpt lat="40.346915985460335" lon="18.166762159838683"><ele>53.0</ele><time>2026-04-04T15:53:19.997Z</time></trkpt><trkpt lat="40.34685597381669" lon="18.1667112279476"><ele>53.0</ele><time>2026-04-04T15:53:20.997Z</time></trkpt><trkpt lat="40.34675941130792" lon="18.16664429309816"><ele>53.00000000000001</ele><time>2026-04-04T15:53:22.997Z</time></trkpt><trkpt lat="40.3466983250271" lon="18.166599014849435"><ele>53.0</ele><time>2026-04-04T15:53:24.997Z</time></trkpt><trkpt lat="40.34665487405941" lon="18.166527942984263"><ele>53.0</ele><time>2026-04-04T15:53:27.997Z</time></trkpt><trkpt lat="40.346705754254515" lon="18.166374308792253"><ele>53.0</ele><time>2026-04-04T15:53:29.997Z</time></trkpt><trkpt lat="40.34674810284755" lon="18.166281026530857"><ele>53.0</ele><time>2026-04-04T15:53:30.997Z</time></trkpt><trkpt lat="40.346801183862034" lon="18.16618080734586"><ele>53.0</ele><time>2026-04-04T15:53:31.997Z</time></trkpt><trkpt lat="40.34685615018561" lon="18.16608255224836"><ele>53.0</ele><time>2026-04-04T15:53:32.997Z</time></trkpt><trkpt lat="40.346913123225804" lon="18.165975003299547"><ele>53.0</ele><time>2026-04-04T15:53:33.997Z</time></trkpt><trkpt lat="40.34697344044298" lon="18.165867380709162"><ele>53.0</ele><time>2026-04-04T15:53:34.996Z</time></trkpt><trkpt lat="40.347020323369954" lon="18.16575485508701"><ele>53.0</ele><time>2026-04-04T15:53:35.996Z</time></trkpt><trkpt lat="40.347070463374415" lon="18.16564391864204"><ele>53.0</ele><time>2026-04-04T15:53:36.996Z</time></trkpt><trkpt lat="40.34712578274103" lon="18.16552337069645"><ele>53.0</ele><time>2026-04-04T15:53:37.996Z</time></trkpt><trkpt lat="40.34716913779134" lon="18.165415928999767"><ele>53.16666666666667</ele><time>2026-04-04T15:53:38.996Z</time></trkpt><trkpt lat="40.34721816412505" lon="18.16530751095191"><ele>53.333333333333336</ele><time>2026-04-04T15:53:39.996Z</time></trkpt><trkpt lat="40.34726455930559" lon="18.165195712764383"><ele>53.5</ele><time>2026-04-04T15:53:40.996Z</time></trkpt><trkpt lat="40.3473145705934" lon="18.16510347663589"><ele>53.66666666666667</ele><time>2026-04-04T15:53:41.996Z</time></trkpt><trkpt lat="40.34736289008532" lon="18.16501304535971"><ele>53.833333333333336</ele><time>2026-04-04T15:53:42.996Z</time></trkpt><trkpt lat="40.34739732589761" lon="18.164918393226422"><ele>54.0</ele><time>2026-04-04T15:53:43.996Z</time></trkpt><trkpt lat="40.34743316073004" lon="18.1648356759348"><ele>53.6</ele><time>2026-04-04T15:53:44.996Z</time></trkpt><trkpt lat="40.34748493246059" lon="18.16471314137917"><ele>53.2</ele><time>2026-04-04T15:53:46.996Z</time></trkpt><trkpt lat="40.34752982850162" lon="18.16463602563778"><ele>52.800000000000004</ele><time>2026-04-04T15:53:47.996Z</time></trkpt><trkpt lat="40.347554424851445" lon="18.16454288268861"><ele>52.400000000000006</ele><time>2026-04-04T15:53:48.996Z</time></trkpt><trkpt lat="40.347606507869415" lon="18.164437517329425"><ele>52.0</ele><time>2026-04-04T15:53:49.996Z</time></trkpt><trkpt lat="40.34767123147551" lon="18.164300402529403"><ele>52.0</ele><time>2026-04-04T15:53:50.996Z</time></trkpt><trkpt lat="40.34776108699305" lon="18.16413826391398"><ele>52.0</ele><time>2026-04-04T15:53:51.996Z</time></trkpt><trkpt lat="40.34783342864937" lon="18.16399440663647"><ele>52.0</ele><time>2026-04-04T15:53:52.996Z</time></trkpt><trkpt lat="40.347877941823086" lon="18.16387859894118"><ele>52.0</ele><time>2026-04-04T15:53:53.996Z</time></trkpt><trkpt lat="40.3479111793207" lon="18.163793565292753"><ele>51.666666666666664</ele><time>2026-04-04T15:53:54.996Z</time></trkpt><trkpt lat="40.34797328528538" lon="18.16370831387674"><ele>51.33333333333333</ele><time>2026-04-04T15:53:56.996Z</time></trkpt><trkpt lat="40.348057452774675" lon="18.163711992150034"><ele>51.0</ele><time>2026-04-04T15:53:59.996Z</time></trkpt><trkpt lat="40.348115825545754" lon="18.163753993352515"><ele>50.66666666666667</ele><time>2026-04-04T15:54:00.996Z</time></trkpt><trkpt lat="40.34817842457757" lon="18.163834778770717"><ele>50.333333333333336</ele><time>2026-04-04T15:54:01.996Z</time></trkpt><trkpt lat="40.34826280432111" lon="18.163930664578313"><ele>50.0</ele><time>2026-04-04T15:54:02.996Z</time></trkpt><trkpt lat="40.34832163949714" lon="18.164012032403388"><ele>51.0</ele><time>2026-04-04T15:54:03.996Z</time></trkpt><trkpt lat="40.34839297661655" lon="18.16408598285591"><ele>52.0</ele><time>2026-04-04T15:54:05.996Z</time></trkpt><trkpt lat="40.34847876501031" lon="18.164058164478035"><ele>53.0</ele><time>2026-04-04T15:54:09.996Z</time></trkpt><trkpt lat="40.34854672047555" lon="18.163951953587027"><ele>54.0</ele><time>2026-04-04T15:54:11.996Z</time></trkpt><trkpt lat="40.34863049314537" lon="18.16385041413634"><ele>55.0</ele><time>2026-04-04T15:54:13.996Z</time></trkpt><trkpt lat="40.34866506170979" lon="18.16378053012799"><ele>55.0</ele><time>2026-04-04T15:54:14.996Z</time></trkpt><trkpt lat="40.34871230363899" lon="18.163701386494957"><ele>55.0</ele><time>2026-04-04T15:54:16.996Z</time></trkpt><trkpt lat="40.3487663942365" lon="18.163647487842027"><ele>55.0</ele><time>2026-04-04T15:54:24.996Z</time></trkpt><trkpt lat="40.348665972867714" lon="18.16383195856285"><ele>55.0</ele><time>2026-04-04T15:59:46.997Z</time></trkpt><trkpt lat="40.348617819457495" lon="18.163944252670486"><ele>55.0</ele><time>2026-04-04T15:59:48.997Z</time></trkpt><trkpt lat="40.348538187046806" lon="18.163962392071262"><ele>54.99999999999999</ele><time>2026-04-04T15:59:51.997Z</time></trkpt><trkpt lat="40.34854570532839" lon="18.164053182819853"><ele>55.0</ele><time>2026-04-04T15:59:55.997Z</time></trkpt><trkpt lat="40.348620512362466" lon="18.164176897676747"><ele>55.0</ele><time>2026-04-04T15:59:57.997Z</time></trkpt><trkpt lat="40.34865742602551" lon="18.164244204812064"><ele>55.0</ele><time>2026-04-04T15:59:58.997Z</time></trkpt><trkpt lat="40.34870589538794" lon="18.164342625893113"><ele>54.99999999999999</ele><time>2026-04-04T16:00:00.997Z</time></trkpt><trkpt lat="40.348715235493735" lon="18.164471635686652"><ele>55.0</ele><time>2026-04-04T16:00:03.997Z</time></trkpt><trkpt lat="40.348666012304285" lon="18.16461493710342"><ele>55.0</ele><time>2026-04-04T16:00:05.997Z</time></trkpt><trkpt lat="40.348612984229156" lon="18.16469951585328"><ele>55.0</ele><time>2026-04-04T16:00:06.997Z</time></trkpt><trkpt lat="40.34853177011304" lon="18.16479483093487"><ele>55.0</ele><time>2026-04-04T16:00:07.997Z</time></trkpt><trkpt lat="40.34845148362515" lon="18.164918133535952"><ele>55.0</ele><time>2026-04-04T16:00:08.997Z</time></trkpt><trkpt lat="40.34837710645252" lon="18.165034019185896"><ele>55.0</ele><time>2026-04-04T16:00:09.997Z</time></trkpt><trkpt lat="40.3483304471937" lon="18.165131749209568"><ele>54.83333333333333</ele><time>2026-04-04T16:00:10.997Z</time></trkpt><trkpt lat="40.34829294632763" lon="18.16520519225429"><ele>54.666666666666664</ele><time>2026-04-04T16:00:11.997Z</time></trkpt><trkpt lat="40.34821777449261" lon="18.16526597485233"><ele>54.5</ele><time>2026-04-04T16:00:14.997Z</time></trkpt><trkpt lat="40.34815228197269" lon="18.16524548208674"><ele>54.33333333333333</ele><time>2026-04-04T16:00:16.997Z</time></trkpt><trkpt lat="40.34808498621047" lon="18.16518567570304"><ele>54.166666666666664</ele><time>2026-04-04T16:00:17.997Z</time></trkpt><trkpt lat="40.348000433117626" lon="18.165117767148978"><ele>54.0</ele><time>2026-04-04T16:00:18.997Z</time></trkpt><trkpt lat="40.34790405769813" lon="18.165018265764378"><ele>54.0</ele><time>2026-04-04T16:00:19.997Z</time></trkpt><trkpt lat="40.34780384298699" lon="18.164927721381222"><ele>54.00000000000001</ele><time>2026-04-04T16:00:20.997Z</time></trkpt><trkpt lat="40.34771522646586" lon="18.164835844046284"><ele>54.00000000000001</ele><time>2026-04-04T16:00:21.997Z</time></trkpt><trkpt lat="40.347649256962576" lon="18.164786281315777"><ele>54.0</ele><time>2026-04-04T16:00:22.997Z</time></trkpt><trkpt lat="40.34758546243545" lon="18.164686111950708"><ele>54.0</ele><time>2026-04-04T16:00:24.997Z</time></trkpt><trkpt lat="40.34759945870188" lon="18.164575860915974"><ele>53.666666666666664</ele><time>2026-04-04T16:00:29.997Z</time></trkpt><trkpt lat="40.34764731004308" lon="18.164478147547936"><ele>53.33333333333333</ele><time>2026-04-04T16:00:30.997Z</time></trkpt><trkpt lat="40.347692679780685" lon="18.164370808355702"><ele>53.0</ele><time>2026-04-04T16:00:31.997Z</time></trkpt><trkpt lat="40.34773307545015" lon="18.164272510274703"><ele>52.666666666666664</ele><time>2026-04-04T16:00:32.997Z</time></trkpt><trkpt lat="40.34777493929034" lon="18.164183808963926"><ele>52.33333333333333</ele><time>2026-04-04T16:00:33.997Z</time></trkpt><trkpt lat="40.347812695840815" lon="18.164103596084587"><ele>52.0</ele><time>2026-04-04T16:00:34.997Z</time></trkpt><trkpt lat="40.34785492991945" lon="18.164015722847957"><ele>51.666666666666664</ele><time>2026-04-04T16:00:35.997Z</time></trkpt><trkpt lat="40.34788826255451" lon="18.163926339584368"><ele>51.33333333333333</ele><time>2026-04-04T16:00:36.997Z</time></trkpt><trkpt lat="40.347923083048045" lon="18.16384224966988"><ele>51.0</ele><time>2026-04-04T16:00:37.997Z</time></trkpt><trkpt lat="40.34797730432053" lon="18.163775055652106"><ele>50.66666666666667</ele><time>2026-04-04T16:00:38.997Z</time></trkpt><trkpt lat="40.34803990156842" lon="18.163728520459784"><ele>50.333333333333336</ele><time>2026-04-04T16:00:39.997Z</time></trkpt><trkpt lat="40.348064006012756" lon="18.163621324479557"><ele>50.0</ele><time>2026-04-04T16:00:40.997Z</time></trkpt><trkpt lat="40.34810608304567" lon="18.163520109932726"><ele>50.16666666666667</ele><time>2026-04-04T16:00:41.997Z</time></trkpt><trkpt lat="40.348150777225214" lon="18.163417640878517"><ele>50.333333333333336</ele><time>2026-04-04T16:00:42.997Z</time></trkpt><trkpt lat="40.34819998120673" lon="18.1633262980714"><ele>50.5</ele><time>2026-04-04T16:00:43.997Z</time></trkpt><trkpt lat="40.34825148712126" lon="18.16322726542416"><ele>50.66666666666667</ele><time>2026-04-04T16:00:44.997Z</time></trkpt><trkpt lat="40.348288584472236" lon="18.16313021093043"><ele>50.833333333333336</ele><time>2026-04-04T16:00:45.997Z</time></trkpt><trkpt lat="40.348342735760205" lon="18.163035402076996"><ele>51.0</ele><time>2026-04-04T16:00:46.997Z</time></trkpt><trkpt lat="40.34838538198356" lon="18.16294419395667"><ele>51.0</ele><time>2026-04-04T16:00:47.997Z</time></trkpt><trkpt lat="40.348425001281825" lon="18.162866408833068"><ele>51.0</ele><time>2026-04-04T16:00:48.997Z</time></trkpt><trkpt lat="40.34846235883823" lon="18.16279324141513"><ele>51.0</ele><time>2026-04-04T16:00:49.996Z</time></trkpt><trkpt lat="40.34850161361559" lon="18.162726044603662"><ele>51.0</ele><time>2026-04-04T16:00:50.996Z</time></trkpt><trkpt lat="40.34856200939384" lon="18.162594602816505"><ele>51.0</ele><time>2026-04-04T16:00:52.996Z</time></trkpt><trkpt lat="40.34859338018475" lon="18.16251572846564"><ele>51.0</ele><time>2026-04-04T16:00:54.996Z</time></trkpt><trkpt lat="40.348615080187656" lon="18.162432870027082"><ele>51.166666666666664</ele><time>2026-04-04T16:01:02.996Z</time></trkpt><trkpt lat="40.34863764940535" lon="18.162352743509015"><ele>51.33333333333333</ele><time>2026-04-04T16:01:06.996Z</time></trkpt><trkpt lat="40.34869726215409" lon="18.162281668377652"><ele>51.5</ele><time>2026-04-04T16:01:16.996Z</time></trkpt><trkpt lat="40.348756097315785" lon="18.162232182905523"><ele>51.666666666666664</ele><time>2026-04-04T16:01:19.996Z</time></trkpt><trkpt lat="40.34879484191299" lon="18.162132782373014"><ele>51.83333333333333</ele><time>2026-04-04T16:01:21.996Z</time></trkpt><trkpt lat="40.34883884446208" lon="18.161980296207833"><ele>52.0</ele><time>2026-04-04T16:01:23.996Z</time></trkpt><trkpt lat="40.34887649360155" lon="18.161886698257486"><ele>51.99999999999999</ele><time>2026-04-04T16:01:24.996Z</time></trkpt><trkpt lat="40.34888739546703" lon="18.16179820359153"><ele>52.0</ele><time>2026-04-04T16:01:25.997Z</time></trkpt><trkpt lat="40.348885217544655" lon="18.16171209435093"><ele>52.0</ele><time>2026-04-04T16:01:26.997Z</time></trkpt><trkpt lat="40.34887156202641" lon="18.16162393893297"><ele>52.0</ele><time>2026-04-04T16:01:27.997Z</time></trkpt><trkpt lat="40.34884490970596" lon="18.161513508946044"><ele>51.99999999999999</ele><time>2026-04-04T16:01:28.997Z</time></trkpt><trkpt lat="40.34880977125765" lon="18.161420205628975"><ele>52.0</ele><time>2026-04-04T16:01:29.997Z</time></trkpt><trkpt lat="40.34874899741196" lon="18.16132367464405"><ele>51.6</ele><time>2026-04-04T16:01:30.997Z</time></trkpt><trkpt lat="40.34866944413198" lon="18.161235676612524"><ele>51.2</ele><time>2026-04-04T16:01:31.997Z</time></trkpt><trkpt lat="40.34859033629355" lon="18.161148837659585"><ele>50.8</ele><time>2026-04-04T16:01:32.996Z</time></trkpt><trkpt lat="40.34851558045857" lon="18.16107536949283"><ele>50.4</ele><time>2026-04-04T16:01:33.996Z</time></trkpt><trkpt lat="40.34842304515739" lon="18.16097348462879"><ele>50.0</ele><time>2026-04-04T16:01:34.997Z</time></trkpt><trkpt lat="40.34831681625638" lon="18.160883622699597"><ele>50.0</ele><time>2026-04-04T16:01:35.996Z</time></trkpt><trkpt lat="40.34819761608901" lon="18.16078996518018"><ele>50.0</ele><time>2026-04-04T16:01:36.996Z</time></trkpt><trkpt lat="40.348066478015824" lon="18.160692189899393"><ele>50.0</ele><time>2026-04-04T16:01:37.997Z</time></trkpt><trkpt lat="40.34794435326037" lon="18.160570000057696"><ele>50.0</ele><time>2026-04-04T16:01:38.997Z</time></trkpt><trkpt lat="40.34788274152401" lon="18.1604674862573"><ele>49.833333333333336</ele><time>2026-04-04T16:01:39.997Z</time></trkpt><trkpt lat="40.347832526823474" lon="18.160359343585544"><ele>49.66666666666667</ele><time>2026-04-04T16:01:40.997Z</time></trkpt><trkpt lat="40.34780832546267" lon="18.16026044932628"><ele>49.5</ele><time>2026-04-04T16:01:41.997Z</time></trkpt><trkpt lat="40.34777583557137" lon="18.160178927383"><ele>49.33333333333333</ele><time>2026-04-04T16:01:43.997Z</time></trkpt><trkpt lat="40.3476949876948" lon="18.160149526319557"><ele>49.166666666666664</ele><time>2026-04-04T16:01:45.997Z</time></trkpt><trkpt lat="40.34762017273118" lon="18.16018997890118"><ele>49.0</ele><time>2026-04-04T16:01:47.997Z</time></trkpt><trkpt lat="40.347574637826455" lon="18.160263391533434"><ele>49.0</ele><time>2026-04-04T16:01:48.997Z</time></trkpt><trkpt lat="40.34752534406934" lon="18.160369549750957"><ele>49.0</ele><time>2026-04-04T16:01:49.997Z</time></trkpt><trkpt lat="40.34745643552893" lon="18.160490463092035"><ele>49.0</ele><time>2026-04-04T16:01:50.997Z</time></trkpt><trkpt lat="40.34738993173659" lon="18.160590278973945"><ele>49.0</ele><time>2026-04-04T16:01:51.997Z</time></trkpt><trkpt lat="40.347338633639254" lon="18.160653809931652"><ele>49.0</ele><time>2026-04-04T16:01:52.997Z</time></trkpt><trkpt lat="40.34728208537028" lon="18.160704235268895"><ele>49.2</ele><time>2026-04-04T16:01:53.997Z</time></trkpt><trkpt lat="40.347217825911365" lon="18.160717694936046"><ele>49.400000000000006</ele><time>2026-04-04T16:01:54.997Z</time></trkpt><trkpt lat="40.34715396697512" lon="18.160694458711077"><ele>49.6</ele><time>2026-04-04T16:01:55.997Z</time></trkpt><trkpt lat="40.34707565782216" lon="18.160630466186397"><ele>49.8</ele><time>2026-04-04T16:01:56.997Z</time></trkpt><trkpt lat="40.346989228141496" lon="18.16054937338499"><ele>50.0</ele><time>2026-04-04T16:01:57.997Z</time></trkpt><trkpt lat="40.346871235682954" lon="18.16044107197873"><ele>51.0</ele><time>2026-04-04T16:01:58.997Z</time></trkpt><trkpt lat="40.34674941226845" lon="18.160323305027195"><ele>52.0</ele><time>2026-04-04T16:01:59.997Z</time></trkpt><trkpt lat="40.34660752683872" lon="18.16019977303405"><ele>53.0</ele><time>2026-04-04T16:02:00.997Z</time></trkpt><trkpt lat="40.34645886891897" lon="18.160082335172383"><ele>52.75</ele><time>2026-04-04T16:02:01.997Z</time></trkpt><trkpt lat="40.34632995925201" lon="18.159983178264003"><ele>52.5</ele><time>2026-04-04T16:02:02.997Z</time></trkpt><trkpt lat="40.34621432683651" lon="18.15988214855023"><ele>52.25</ele><time>2026-04-04T16:02:03.997Z</time></trkpt><trkpt lat="40.3461071764825" lon="18.159796028419063"><ele>52.0</ele><time>2026-04-04T16:02:04.997Z</time></trkpt><trkpt lat="40.3460150287375" lon="18.15969793336939"><ele>51.6</ele><time>2026-04-04T16:02:05.997Z</time></trkpt><trkpt lat="40.34591899118686" lon="18.15961602256474"><ele>51.2</ele><time>2026-04-04T16:02:06.997Z</time></trkpt><trkpt lat="40.345829516138444" lon="18.15954414666757"><ele>50.8</ele><time>2026-04-04T16:02:07.997Z</time></trkpt><trkpt lat="40.345746718137406" lon="18.159471038932157"><ele>50.4</ele><time>2026-04-04T16:02:08.997Z</time></trkpt><trkpt lat="40.34566199942579" lon="18.159400792247407"><ele>50.0</ele><time>2026-04-04T16:02:09.997Z</time></trkpt><trkpt lat="40.34558321620939" lon="18.159318800216074"><ele>50.0</ele><time>2026-04-04T16:02:10.997Z</time></trkpt><trkpt lat="40.34550874800555" lon="18.159249827669335"><ele>50.0</ele><time>2026-04-04T16:02:11.997Z</time></trkpt><trkpt lat="40.34543238278006" lon="18.15918914505431"><ele>50.0</ele><time>2026-04-04T16:02:12.997Z</time></trkpt><trkpt lat="40.34536474796859" lon="18.159097718759206"><ele>50.0</ele><time>2026-04-04T16:02:13.997Z</time></trkpt><trkpt lat="40.34527372491461" lon="18.15904283806575"><ele>50.0</ele><time>2026-04-04T16:02:14.997Z</time></trkpt><trkpt lat="40.34517412489363" lon="18.15899362600681"><ele>50.0</ele><time>2026-04-04T16:02:15.997Z</time></trkpt><trkpt lat="40.345083147434934" lon="18.158926980046196"><ele>50.0</ele><time>2026-04-04T16:02:16.997Z</time></trkpt><trkpt lat="40.344998731322654" lon="18.158848637137655"><ele>50.0</ele><time>2026-04-04T16:02:17.997Z</time></trkpt><trkpt lat="40.344922570998904" lon="18.158770693252105"><ele>50.0</ele><time>2026-04-04T16:02:18.997Z</time></trkpt><trkpt lat="40.344849100406016" lon="18.158704106597092"><ele>50.0</ele><time>2026-04-04T16:02:19.997Z</time></trkpt><trkpt lat="40.34477868714721" lon="18.158642956052564"><ele>49.50000000000001</ele><time>2026-04-04T16:02:20.997Z</time></trkpt><trkpt lat="40.34471174472444" lon="18.15858252109268"><ele>49.0</ele><time>2026-04-04T16:02:21.997Z</time></trkpt><trkpt lat="40.344640470303794" lon="18.158528124382244"><ele>48.5</ele><time>2026-04-04T16:02:22.997Z</time></trkpt><trkpt lat="40.344570709954844" lon="18.15846963857194"><ele>48.0</ele><time>2026-04-04T16:02:23.997Z</time></trkpt><trkpt lat="40.344502409968946" lon="18.158407845129844"><ele>47.5</ele><time>2026-04-04T16:02:24.997Z</time></trkpt><trkpt lat="40.34444615567126" lon="18.158358931432016"><ele>47.0</ele><time>2026-04-04T16:02:25.997Z</time></trkpt><trkpt lat="40.34435634126236" lon="18.15828171163175"><ele>47.0</ele><time>2026-04-04T16:02:27.997Z</time></trkpt><trkpt lat="40.344303942702176" lon="18.1582252299861"><ele>47.0</ele><time>2026-04-04T16:02:30.997Z</time></trkpt><trkpt lat="40.344226829108614" lon="18.158121486284045"><ele>47.0</ele><time>2026-04-04T16:02:51.997Z</time></trkpt><trkpt lat="40.34413107974461" lon="18.158068627502914"><ele>47.0</ele><time>2026-04-04T16:02:53.997Z</time></trkpt><trkpt lat="40.34405391053274" lon="18.158011424703176"><ele>47.0</ele><time>2026-04-04T16:02:55.997Z</time></trkpt><trkpt lat="40.34399250516814" lon="18.157981335967605"><ele>47.0</ele><time>2026-04-04T16:02:57.997Z</time></trkpt><trkpt lat="40.34391555534943" lon="18.158016356035386"><ele>47.0</ele><time>2026-04-04T16:02:59.997Z</time></trkpt><trkpt lat="40.343846924202765" lon="18.15811064227466"><ele>47.0</ele><time>2026-04-04T16:03:01.997Z</time></trkpt><trkpt lat="40.34378369027618" lon="18.158198312723755"><ele>47.0</ele><time>2026-04-04T16:03:03.997Z</time></trkpt><trkpt lat="40.34372057980434" lon="18.158285666136017"><ele>47.0</ele><time>2026-04-04T16:03:05.997Z</time></trkpt><trkpt lat="40.34365781657496" lon="18.158375872149872"><ele>47.0</ele><time>2026-04-04T16:03:07.997Z</time></trkpt><trkpt lat="40.34359491598393" lon="18.15848026843674"><ele>47.0</ele><time>2026-04-04T16:03:09.997Z</time></trkpt><trkpt lat="40.34353748307307" lon="18.158569612998754"><ele>47.0</ele><time>2026-04-04T16:03:11.997Z</time></trkpt><trkpt lat="40.343499266027685" lon="18.158642523195926"><ele>47.0</ele><time>2026-04-04T16:03:13.997Z</time></trkpt><trkpt lat="40.34345643081695" lon="18.158730194040306"><ele>47.0</ele><time>2026-04-04T16:03:15.997Z</time></trkpt><trkpt lat="40.343370739629975" lon="18.158829882515835"><ele>47.0</ele><time>2026-04-04T16:03:17.997Z</time></trkpt><trkpt lat="40.343284951108615" lon="18.158940775350775"><ele>47.0</ele><time>2026-04-04T16:03:19.996Z</time></trkpt><trkpt lat="40.343186460194815" lon="18.15901665761098"><ele>47.0</ele><time>2026-04-04T16:03:21.996Z</time></trkpt><trkpt lat="40.34307171132347" lon="18.15900241989861"><ele>47.0</ele><time>2026-04-04T16:03:23.996Z</time></trkpt><trkpt lat="40.34300389328918" lon="18.158966924494717"><ele>47.0</ele><time>2026-04-04T16:03:24.996Z</time></trkpt><trkpt lat="40.34293563000985" lon="18.158939251033694"><ele>47.0</ele><time>2026-04-04T16:03:25.996Z</time></trkpt><trkpt lat="40.3428695668073" lon="18.158908721085165"><ele>47.0</ele><time>2026-04-04T16:03:26.996Z</time></trkpt><trkpt lat="40.342811245177245" lon="18.158877097045078"><ele>46.83333333333333</ele><time>2026-04-04T16:03:27.996Z</time></trkpt><trkpt lat="40.34274778605105" lon="18.158845915390753"><ele>46.666666666666664</ele><time>2026-04-04T16:03:28.996Z</time></trkpt><trkpt lat="40.342677049965936" lon="18.158811098620184"><ele>46.5</ele><time>2026-04-04T16:03:29.996Z</time></trkpt><trkpt lat="40.34260256424103" lon="18.15876745834077"><ele>46.333333333333336</ele><time>2026-04-04T16:03:30.996Z</time></trkpt><trkpt lat="40.34252291958583" lon="18.158730611055113"><ele>46.16666666666667</ele><time>2026-04-04T16:03:31.997Z</time></trkpt><trkpt lat="40.34245407423031" lon="18.15868567880871"><ele>46.0</ele><time>2026-04-04T16:03:32.996Z</time></trkpt><trkpt lat="40.34237975819853" lon="18.158648355137235"><ele>46.0</ele><time>2026-04-04T16:03:33.996Z</time></trkpt><trkpt lat="40.3423016461384" lon="18.15861322346478"><ele>46.0</ele><time>2026-04-04T16:03:34.997Z</time></trkpt><trkpt lat="40.342222043613646" lon="18.158573935346695"><ele>46.0</ele><time>2026-04-04T16:03:35.996Z</time></trkpt><trkpt lat="40.342138916401936" lon="18.158535889448356"><ele>46.0</ele><time>2026-04-04T16:03:36.996Z</time></trkpt><trkpt lat="40.34206284210226" lon="18.15850163498284"><ele>46.0</ele><time>2026-04-04T16:03:37.997Z</time></trkpt><trkpt lat="40.34198603176107" lon="18.158467480491485"><ele>46.0</ele><time>2026-04-04T16:03:38.996Z</time></trkpt><trkpt lat="40.34191305050637" lon="18.158427462366266"><ele>45.833333333333336</ele><time>2026-04-04T16:03:39.996Z</time></trkpt><trkpt lat="40.34183651712792" lon="18.15838554710169"><ele>45.66666666666667</ele><time>2026-04-04T16:03:40.997Z</time></trkpt><trkpt lat="40.3417547820112" lon="18.158338095859524"><ele>45.5</ele><time>2026-04-04T16:03:41.997Z</time></trkpt><trkpt lat="40.34167388014255" lon="18.158293962630097"><ele>45.333333333333336</ele><time>2026-04-04T16:03:42.997Z</time></trkpt><trkpt lat="40.34159581902622" lon="18.158247346526572"><ele>45.166666666666664</ele><time>2026-04-04T16:03:43.997Z</time></trkpt><trkpt lat="40.34151006984438" lon="18.15818929582237"><ele>45.0</ele><time>2026-04-04T16:03:44.997Z</time></trkpt><trkpt lat="40.341419490395694" lon="18.158131206367447"><ele>45.2</ele><time>2026-04-04T16:03:45.997Z</time></trkpt><trkpt lat="40.34131983911664" lon="18.15807758349548"><ele>45.4</ele><time>2026-04-04T16:03:46.997Z</time></trkpt><trkpt lat="40.341217800179436" lon="18.158023728903107"><ele>45.599999999999994</ele><time>2026-04-04T16:03:47.997Z</time></trkpt><trkpt lat="40.341111126957685" lon="18.157970383156695"><ele>45.8</ele><time>2026-04-04T16:03:48.997Z</time></trkpt><trkpt lat="40.34100647045411" lon="18.157919686320735"><ele>46.0</ele><time>2026-04-04T16:03:49.997Z</time></trkpt><trkpt lat="40.34090184298524" lon="18.157869937386046"><ele>46.0</ele><time>2026-04-04T16:03:50.997Z</time></trkpt><trkpt lat="40.34079481159879" lon="18.157814072723234"><ele>46.0</ele><time>2026-04-04T16:03:51.997Z</time></trkpt><trkpt lat="40.340690098380186" lon="18.157762243979192"><ele>46.0</ele><time>2026-04-04T16:03:52.997Z</time></trkpt><trkpt lat="40.340586501526985" lon="18.15771076896192"><ele>46.0</ele><time>2026-04-04T16:03:53.997Z</time></trkpt><trkpt lat="40.340478753576335" lon="18.157656551352826"><ele>45.75</ele><time>2026-04-04T16:03:54.997Z</time></trkpt><trkpt lat="40.340366787948646" lon="18.157601237054262"><ele>45.5</ele><time>2026-04-04T16:03:55.997Z</time></trkpt><trkpt lat="40.34024893706039" lon="18.157542675961388"><ele>45.25</ele><time>2026-04-04T16:03:56.997Z</time></trkpt><trkpt lat="40.34014241634458" lon="18.157494548024744"><ele>45.0</ele><time>2026-04-04T16:03:57.997Z</time></trkpt><trkpt lat="40.340058467584896" lon="18.157437653942072"><ele>45.0</ele><time>2026-04-04T16:03:58.997Z</time></trkpt><trkpt lat="40.3399919978414" lon="18.157395585431356"><ele>45.0</ele><time>2026-04-04T16:03:59.996Z</time></trkpt><trkpt lat="40.33989959037751" lon="18.157348746911882"><ele>45.0</ele><time>2026-04-04T16:04:01.996Z</time></trkpt><trkpt lat="40.339804752189266" lon="18.15734817593184"><ele>45.0</ele><time>2026-04-04T16:04:24.996Z</time></trkpt><trkpt lat="40.33973299559999" lon="18.157304752429837"><ele>45.0</ele><time>2026-04-04T16:04:26.996Z</time></trkpt><trkpt lat="40.33965002968444" lon="18.15725820450846"><ele>45.0</ele><time>2026-04-04T16:04:28.996Z</time></trkpt><trkpt lat="40.33955002703067" lon="18.157190451739766"><ele>44.833333333333336</ele><time>2026-04-04T16:04:30.996Z</time></trkpt><trkpt lat="40.339487159427996" lon="18.157154638207544"><ele>44.666666666666664</ele><time>2026-04-04T16:04:31.996Z</time></trkpt><trkpt lat="40.33942831651989" lon="18.15712396527941"><ele>44.5</ele><time>2026-04-04T16:04:32.996Z</time></trkpt><trkpt lat="40.339360274342" lon="18.157089360888314"><ele>44.33333333333333</ele><time>2026-04-04T16:04:33.996Z</time></trkpt><trkpt lat="40.33928464563324" lon="18.15704938290668"><ele>44.166666666666664</ele><time>2026-04-04T16:04:34.996Z</time></trkpt><trkpt lat="40.33920729760191" lon="18.15700787829467"><ele>44.0</ele><time>2026-04-04T16:04:35.996Z</time></trkpt><trkpt lat="40.33912656536079" lon="18.156960596077976"><ele>44.0</ele><time>2026-04-04T16:04:36.996Z</time></trkpt><trkpt lat="40.3390448550592" lon="18.15691689897101"><ele>44.0</ele><time>2026-04-04T16:04:37.996Z</time></trkpt><trkpt lat="40.338958818430456" lon="18.15687347866776"><ele>44.0</ele><time>2026-04-04T16:04:38.996Z</time></trkpt><trkpt lat="40.33887483766529" lon="18.15683354941987"><ele>44.0</ele><time>2026-04-04T16:04:39.996Z</time></trkpt><trkpt lat="40.33878151581775" lon="18.156795582535544"><ele>44.0</ele><time>2026-04-04T16:04:40.996Z</time></trkpt><trkpt lat="40.33868684838983" lon="18.156755249959783"><ele>44.0</ele><time>2026-04-04T16:04:41.996Z</time></trkpt><trkpt lat="40.33859870588391" lon="18.156712711746348"><ele>44.0</ele><time>2026-04-04T16:04:42.996Z</time></trkpt><trkpt lat="40.33850759825559" lon="18.156666082719795"><ele>44.0</ele><time>2026-04-04T16:04:43.996Z</time></trkpt><trkpt lat="40.33841315097584" lon="18.1566218675512"><ele>44.0</ele><time>2026-04-04T16:04:44.996Z</time></trkpt><trkpt lat="40.33831601683891" lon="18.156575936445503"><ele>44.0</ele><time>2026-04-04T16:04:45.996Z</time></trkpt><trkpt lat="40.338212832263075" lon="18.15652683177409"><ele>44.0</ele><time>2026-04-04T16:04:46.996Z</time></trkpt><trkpt lat="40.33810573577502" lon="18.15647475330448"><ele>44.0</ele><time>2026-04-04T16:04:47.996Z</time></trkpt><trkpt lat="40.33800041394687" lon="18.156391097680455"><ele>44.0</ele><time>2026-04-04T16:04:48.996Z</time></trkpt><trkpt lat="40.33789036432566" lon="18.15631833228034"><ele>44.0</ele><time>2026-04-04T16:04:49.996Z</time></trkpt><trkpt lat="40.33777719544978" lon="18.156249542741627"><ele>44.25</ele><time>2026-04-04T16:04:50.996Z</time></trkpt><trkpt lat="40.33766365112303" lon="18.156185378855664"><ele>44.5</ele><time>2026-04-04T16:04:51.996Z</time></trkpt><trkpt lat="40.33755571325294" lon="18.156127014437068"><ele>44.75</ele><time>2026-04-04T16:04:52.996Z</time></trkpt><trkpt lat="40.33744859371633" lon="18.156072629471208"><ele>45.0</ele><time>2026-04-04T16:04:53.996Z</time></trkpt><trkpt lat="40.33734338000108" lon="18.156021423124017"><ele>45.0</ele><time>2026-04-04T16:04:54.996Z</time></trkpt><trkpt lat="40.33724762591572" lon="18.155972349523125"><ele>45.0</ele><time>2026-04-04T16:04:55.996Z</time></trkpt><trkpt lat="40.33716615904104" lon="18.155930218044315"><ele>45.0</ele><time>2026-04-04T16:04:56.996Z</time></trkpt><trkpt lat="40.3370946716579" lon="18.155881157900662"><ele>45.0</ele><time>2026-04-04T16:04:57.996Z</time></trkpt><trkpt lat="40.33702162640162" lon="18.155833257465485"><ele>45.0</ele><time>2026-04-04T16:04:58.996Z</time></trkpt><trkpt lat="40.33693628541046" lon="18.155790185371767"><ele>45.0</ele><time>2026-04-04T16:04:59.996Z</time></trkpt><trkpt lat="40.33684152818808" lon="18.155737112100564"><ele>45.0</ele><time>2026-04-04T16:05:00.996Z</time></trkpt><trkpt lat="40.33674134301165" lon="18.155683366811445"><ele>45.0</ele><time>2026-04-04T16:05:01.996Z</time></trkpt><trkpt lat="40.33664088825201" lon="18.15562704197638"><ele>45.0</ele><time>2026-04-04T16:05:02.996Z</time></trkpt><trkpt lat="40.33654723830863" lon="18.15556967305565"><ele>45.0</ele><time>2026-04-04T16:05:03.996Z</time></trkpt><trkpt lat="40.33644435801029" lon="18.1555097396081"><ele>45.0</ele><time>2026-04-04T16:05:04.996Z</time></trkpt><trkpt lat="40.33633520609154" lon="18.15544838675796"><ele>46.25</ele><time>2026-04-04T16:05:05.996Z</time></trkpt><trkpt lat="40.336221931389524" lon="18.155387434011043"><ele>47.5</ele><time>2026-04-04T16:05:06.996Z</time></trkpt><trkpt lat="40.33610438812914" lon="18.1553205597491"><ele>48.75</ele><time>2026-04-04T16:05:07.996Z</time></trkpt><trkpt lat="40.335980183121734" lon="18.155250214026136"><ele>50.0</ele><time>2026-04-04T16:05:08.996Z</time></trkpt><trkpt lat="40.335846140523316" lon="18.15517915533778"><ele>50.0</ele><time>2026-04-04T16:05:09.996Z</time></trkpt><trkpt lat="40.33571552329941" lon="18.155111328244402"><ele>50.0</ele><time>2026-04-04T16:05:10.996Z</time></trkpt><trkpt lat="40.33559233457515" lon="18.155043341726476"><ele>50.0</ele><time>2026-04-04T16:05:11.996Z</time></trkpt><trkpt lat="40.335463132214876" lon="18.154974319147094"><ele>50.0</ele><time>2026-04-04T16:05:12.996Z</time></trkpt><trkpt lat="40.33533116982439" lon="18.154912250371595"><ele>50.0</ele><time>2026-04-04T16:05:13.996Z</time></trkpt><trkpt lat="40.3351952616315" lon="18.154840172803205"><ele>50.0</ele><time>2026-04-04T16:05:14.996Z</time></trkpt><trkpt lat="40.335061854477786" lon="18.15477642760719"><ele>50.0</ele><time>2026-04-04T16:05:15.996Z</time></trkpt><trkpt lat="40.334933060744135" lon="18.154706107617905"><ele>50.0</ele><time>2026-04-04T16:05:16.996Z</time></trkpt><trkpt lat="40.334807107425824" lon="18.154622003837016"><ele>49.5</ele><time>2026-04-04T16:05:17.996Z</time></trkpt><trkpt lat="40.33467426293717" lon="18.154545289547123"><ele>49.0</ele><time>2026-04-04T16:05:18.996Z</time></trkpt><trkpt lat="40.334539150854425" lon="18.154472307246657"><ele>48.5</ele><time>2026-04-04T16:05:19.996Z</time></trkpt><trkpt lat="40.33440511965294" lon="18.154397611284967"><ele>48.0</ele><time>2026-04-04T16:05:20.996Z</time></trkpt><trkpt lat="40.334275745924394" lon="18.154326492149153"><ele>48.0</ele><time>2026-04-04T16:05:21.996Z</time></trkpt><trkpt lat="40.334155553538004" lon="18.15426140291075"><ele>48.0</ele><time>2026-04-04T16:05:22.996Z</time></trkpt><trkpt lat="40.33403976893987" lon="18.15420161217831"><ele>48.0</ele><time>2026-04-04T16:05:23.996Z</time></trkpt><trkpt lat="40.33392078139598" lon="18.154138969105528"><ele>48.0</ele><time>2026-04-04T16:05:24.996Z</time></trkpt><trkpt lat="40.33380253880072" lon="18.154075678953447"><ele>47.75</ele><time>2026-04-04T16:05:25.996Z</time></trkpt><trkpt lat="40.33369042018227" lon="18.15401203590249"><ele>47.5</ele><time>2026-04-04T16:05:26.996Z</time></trkpt><trkpt lat="40.333566420276306" lon="18.15394833055439"><ele>47.25</ele><time>2026-04-04T16:05:27.996Z</time></trkpt><trkpt lat="40.33342254611511" lon="18.153883573910292"><ele>47.0</ele><time>2026-04-04T16:05:28.996Z</time></trkpt><trkpt lat="40.33328527627609" lon="18.15382351553814"><ele>47.0</ele><time>2026-04-04T16:05:29.996Z</time></trkpt><trkpt lat="40.333148369498076" lon="18.15374495473919"><ele>47.0</ele><time>2026-04-04T16:05:30.996Z</time></trkpt><trkpt lat="40.33301377571204" lon="18.15365933481538"><ele>47.0</ele><time>2026-04-04T16:05:31.996Z</time></trkpt><trkpt lat="40.33287396318634" lon="18.1535866175496"><ele>47.0</ele><time>2026-04-04T16:05:32.996Z</time></trkpt><trkpt lat="40.33273837000219" lon="18.15351554009575"><ele>47.0</ele><time>2026-04-04T16:05:33.996Z</time></trkpt><trkpt lat="40.33260170671006" lon="18.153446350403332"><ele>47.0</ele><time>2026-04-04T16:05:34.996Z</time></trkpt><trkpt lat="40.33246262816429" lon="18.153372543622197"><ele>47.0</ele><time>2026-04-04T16:05:35.996Z</time></trkpt><trkpt lat="40.33232331159538" lon="18.153296071073388"><ele>47.0</ele><time>2026-04-04T16:05:36.996Z</time></trkpt><trkpt lat="40.332179987660005" lon="18.15321585989206"><ele>45.666666666666664</ele><time>2026-04-04T16:05:37.996Z</time></trkpt><trkpt lat="40.332033651899295" lon="18.153133586708233"><ele>44.333333333333336</ele><time>2026-04-04T16:05:38.997Z</time></trkpt><trkpt lat="40.33188549799241" lon="18.153048280616005"><ele>43.0</ele><time>2026-04-04T16:05:39.997Z</time></trkpt><trkpt lat="40.33174007980736" lon="18.1529707338199"><ele>43.0</ele><time>2026-04-04T16:05:40.997Z</time></trkpt><trkpt lat="40.331593743888575" lon="18.152894909095995"><ele>43.0</ele><time>2026-04-04T16:05:41.996Z</time></trkpt><trkpt lat="40.33144597630736" lon="18.152818120195473"><ele>43.0</ele><time>2026-04-04T16:05:42.996Z</time></trkpt><trkpt lat="40.331297819458094" lon="18.1527383379316"><ele>42.0</ele><time>2026-04-04T16:05:43.997Z</time></trkpt><trkpt lat="40.331146679096804" lon="18.152655137418428"><ele>41.0</ele><time>2026-04-04T16:05:44.996Z</time></trkpt><trkpt lat="40.330990629936586" lon="18.15257244494472"><ele>40.0</ele><time>2026-04-04T16:05:45.996Z</time></trkpt><trkpt lat="40.33084108621057" lon="18.152491457896353"><ele>40.0</ele><time>2026-04-04T16:05:46.997Z</time></trkpt><trkpt lat="40.33069142174612" lon="18.152407646315357"><ele>40.0</ele><time>2026-04-04T16:05:47.996Z</time></trkpt><trkpt lat="40.330539435015176" lon="18.15232074398262"><ele>40.0</ele><time>2026-04-04T16:05:48.996Z</time></trkpt><trkpt lat="40.33038405732814" lon="18.15222811138292"><ele>38.333333333333336</ele><time>2026-04-04T16:05:49.997Z</time></trkpt><trkpt lat="40.33022822061036" lon="18.152133016629694"><ele>36.666666666666664</ele><time>2026-04-04T16:05:50.996Z</time></trkpt><trkpt lat="40.330068468481386" lon="18.15203607289679"><ele>35.0</ele><time>2026-04-04T16:05:51.996Z</time></trkpt><trkpt lat="40.3299054647366" lon="18.151938060085744"><ele>35.0</ele><time>2026-04-04T16:05:52.996Z</time></trkpt><trkpt lat="40.32973882730963" lon="18.15184097411718"><ele>35.0</ele><time>2026-04-04T16:05:53.996Z</time></trkpt><trkpt lat="40.32956615984621" lon="18.151744671877474"><ele>35.0</ele><time>2026-04-04T16:05:54.996Z</time></trkpt><trkpt lat="40.3293914628834" lon="18.15164824687082"><ele>35.0</ele><time>2026-04-04T16:05:55.996Z</time></trkpt><trkpt lat="40.32920809267823" lon="18.151563683294096"><ele>35.0</ele><time>2026-04-04T16:05:56.996Z</time></trkpt><trkpt lat="40.329020699702504" lon="18.151488123727997"><ele>35.0</ele><time>2026-04-04T16:05:57.996Z</time></trkpt><trkpt lat="40.32881462949728" lon="18.151415113008834"><ele>34.33333333333333</ele><time>2026-04-04T16:05:58.996Z</time></trkpt><trkpt lat="40.32859645430077" lon="18.15134874644954"><ele>33.666666666666664</ele><time>2026-04-04T16:05:59.996Z</time></trkpt><trkpt lat="40.328381579360816" lon="18.151306770466654"><ele>33.0</ele><time>2026-04-04T16:06:00.996Z</time></trkpt><trkpt lat="40.328168575966714" lon="18.151281173708565"><ele>32.0</ele><time>2026-04-04T16:06:01.996Z</time></trkpt><trkpt lat="40.32797624184471" lon="18.15126036382802"><ele>31.0</ele><time>2026-04-04T16:06:02.996Z</time></trkpt><trkpt lat="40.32789469811883" lon="18.150859106628392"><ele>31.0</ele><time>2026-04-04T16:06:03.996Z</time></trkpt><trkpt lat="40.32771246650433" lon="18.150762152991877"><ele>31.0</ele><time>2026-04-04T16:06:04.996Z</time></trkpt><trkpt lat="40.32753048736991" lon="18.150665898252004"><ele>31.0</ele><time>2026-04-04T16:06:05.996Z</time></trkpt><trkpt lat="40.32734551492291" lon="18.150567198151048"><ele>30.333333333333336</ele><time>2026-04-04T16:06:06.996Z</time></trkpt><trkpt lat="40.32715168927341" lon="18.150471042242675"><ele>29.666666666666664</ele><time>2026-04-04T16:06:07.996Z</time></trkpt><trkpt lat="40.326947047005675" lon="18.150367026579843"><ele>29.0</ele><time>2026-04-04T16:06:08.996Z</time></trkpt><trkpt lat="40.32673297486187" lon="18.15026091273008"><ele>29.0</ele><time>2026-04-04T16:06:09.996Z</time></trkpt><trkpt lat="40.32651868001213" lon="18.150150242702786"><ele>29.0</ele><time>2026-04-04T16:06:10.996Z</time></trkpt><trkpt lat="40.326299796765404" lon="18.15003026569426"><ele>29.0</ele><time>2026-04-04T16:06:11.996Z</time></trkpt><trkpt lat="40.32608179710419" lon="18.149906187644948"><ele>29.0</ele><time>2026-04-04T16:06:12.996Z</time></trkpt><trkpt lat="40.32586052405517" lon="18.149784145606482"><ele>29.5</ele><time>2026-04-04T16:06:13.996Z</time></trkpt><trkpt lat="40.32563004558236" lon="18.14967144484318"><ele>30.0</ele><time>2026-04-04T16:06:14.996Z</time></trkpt><trkpt lat="40.32539883302027" lon="18.149546827777915"><ele>31.0</ele><time>2026-04-04T16:06:15.996Z</time></trkpt><trkpt lat="40.32516952160091" lon="18.149420885497037"><ele>32.0</ele><time>2026-04-04T16:06:16.996Z</time></trkpt><trkpt lat="40.324939245915445" lon="18.149304544860264"><ele>29.5</ele><time>2026-04-04T16:06:17.996Z</time></trkpt><trkpt lat="40.32470557286739" lon="18.14918069587191"><ele>27.0</ele><time>2026-04-04T16:06:18.996Z</time></trkpt><trkpt lat="40.324468225460734" lon="18.149049348481228"><ele>28.0</ele><time>2026-04-04T16:06:19.996Z</time></trkpt><trkpt lat="40.32422561794369" lon="18.148921187735606"><ele>29.0</ele><time>2026-04-04T16:06:20.996Z</time></trkpt><trkpt lat="40.323980926735786" lon="18.14878684504796"><ele>27.5</ele><time>2026-04-04T16:06:21.996Z</time></trkpt><trkpt lat="40.323737976358075" lon="18.148655958793146"><ele>26.0</ele><time>2026-04-04T16:06:22.996Z</time></trkpt><trkpt lat="40.323497369675565" lon="18.14852900396392"><ele>26.0</ele><time>2026-04-04T16:06:23.996Z</time></trkpt><trkpt lat="40.32325766829606" lon="18.14839810000756"><ele>26.0</ele><time>2026-04-04T16:06:24.996Z</time></trkpt><trkpt lat="40.323020236193805" lon="18.14826419661075"><ele>26.0</ele><time>2026-04-04T16:06:25.996Z</time></trkpt><trkpt lat="40.322773949442265" lon="18.14812384945233"><ele>26.0</ele><time>2026-04-04T16:06:26.996Z</time></trkpt><trkpt lat="40.322538980777345" lon="18.14799230237016"><ele>26.0</ele><time>2026-04-04T16:06:27.996Z</time></trkpt><trkpt lat="40.322307885304674" lon="18.147872761341404"><ele>26.0</ele><time>2026-04-04T16:06:28.996Z</time></trkpt><trkpt lat="40.3220776333366" lon="18.14775160266141"><ele>25.0</ele><time>2026-04-04T16:06:29.996Z</time></trkpt><trkpt lat="40.32184539399777" lon="18.147628446055403"><ele>24.0</ele><time>2026-04-04T16:06:30.996Z</time></trkpt><trkpt lat="40.32161028864715" lon="18.14750767306913"><ele>24.5</ele><time>2026-04-04T16:06:31.996Z</time></trkpt><trkpt lat="40.32137812909856" lon="18.14738204919327"><ele>25.0</ele><time>2026-04-04T16:06:32.996Z</time></trkpt><trkpt lat="40.32115372756237" lon="18.14726058400793"><ele>23.5</ele><time>2026-04-04T16:06:33.996Z</time></trkpt><trkpt lat="40.32092717285871" lon="18.14714012716688"><ele>22.0</ele><time>2026-04-04T16:06:34.996Z</time></trkpt><trkpt lat="40.32069984024465" lon="18.147023322539308"><ele>22.5</ele><time>2026-04-04T16:06:35.996Z</time></trkpt><trkpt lat="40.320475135986236" lon="18.14690763376808"><ele>23.0</ele><time>2026-04-04T16:06:36.996Z</time></trkpt><trkpt lat="40.32025020266892" lon="18.14679117323807"><ele>23.0</ele><time>2026-04-04T16:06:37.996Z</time></trkpt><trkpt lat="40.32003165778903" lon="18.146678598980643"><ele>23.0</ele><time>2026-04-04T16:06:38.996Z</time></trkpt><trkpt lat="40.31981021259382" lon="18.146564179247072"><ele>22.5</ele><time>2026-04-04T16:06:39.996Z</time></trkpt><trkpt lat="40.31958670391105" lon="18.14645110224757"><ele>22.0</ele><time>2026-04-04T16:06:40.996Z</time></trkpt><trkpt lat="40.31936590747334" lon="18.146337749329888"><ele>22.0</ele><time>2026-04-04T16:06:41.996Z</time></trkpt><trkpt lat="40.31914921525927" lon="18.146228672187497"><ele>22.0</ele><time>2026-04-04T16:06:42.996Z</time></trkpt><trkpt lat="40.31893008057755" lon="18.146114855671996"><ele>22.5</ele><time>2026-04-04T16:06:43.996Z</time></trkpt><trkpt lat="40.318709700449965" lon="18.14599844461247"><ele>23.0</ele><time>2026-04-04T16:06:44.996Z</time></trkpt><trkpt lat="40.318491757490364" lon="18.145884770634662"><ele>23.0</ele><time>2026-04-04T16:06:45.996Z</time></trkpt><trkpt lat="40.31828161750835" lon="18.145774314036803"><ele>23.0</ele><time>2026-04-04T16:06:46.996Z</time></trkpt><trkpt lat="40.31806387493569" lon="18.145654837264278"><ele>25.333333333333336</ele><time>2026-04-04T16:06:47.996Z</time></trkpt><trkpt lat="40.31786011535142" lon="18.145533569090063"><ele>27.666666666666668</ele><time>2026-04-04T16:06:48.996Z</time></trkpt><trkpt lat="40.31767177523379" lon="18.145402854636977"><ele>30.0</ele><time>2026-04-04T16:06:49.996Z</time></trkpt><trkpt lat="40.317488891931966" lon="18.145264872881448"><ele>30.0</ele><time>2026-04-04T16:06:50.996Z</time></trkpt><trkpt lat="40.3173085550164" lon="18.145116979715624"><ele>30.0</ele><time>2026-04-04T16:06:51.996Z</time></trkpt><trkpt lat="40.31713029753929" lon="18.144958441970594"><ele>30.0</ele><time>2026-04-04T16:06:52.996Z</time></trkpt><trkpt lat="40.31695545330871" lon="18.144774950332792"><ele>31.0</ele><time>2026-04-04T16:06:53.996Z</time></trkpt><trkpt lat="40.3167770234202" lon="18.144587391932287"><ele>32.0</ele><time>2026-04-04T16:06:54.996Z</time></trkpt><trkpt lat="40.31661246838063" lon="18.144385861556202"><ele>32.0</ele><time>2026-04-04T16:06:55.996Z</time></trkpt><trkpt lat="40.31645885189771" lon="18.1441730438293"><ele>32.0</ele><time>2026-04-04T16:06:56.996Z</time></trkpt><trkpt lat="40.31631764349252" lon="18.14394099863586"><ele>33.0</ele><time>2026-04-04T16:06:57.996Z</time></trkpt><trkpt lat="40.31618966447855" lon="18.143690657502667"><ele>34.0</ele><time>2026-04-04T16:06:58.996Z</time></trkpt><trkpt lat="40.31606128038944" lon="18.14343885597542"><ele>35.0</ele><time>2026-04-04T16:06:59.996Z</time></trkpt><trkpt lat="40.31594018485346" lon="18.143181058749768"><ele>36.0</ele><time>2026-04-04T16:07:00.996Z</time></trkpt><trkpt lat="40.3158162100569" lon="18.142917092047295"><ele>36.0</ele><time>2026-04-04T16:07:01.996Z</time></trkpt><trkpt lat="40.31570189496196" lon="18.14264494006828"><ele>36.0</ele><time>2026-04-04T16:07:02.996Z</time></trkpt><trkpt lat="40.31558744063009" lon="18.142369739520824"><ele>35.5</ele><time>2026-04-04T16:07:03.996Z</time></trkpt><trkpt lat="40.315469874237934" lon="18.14209732182808"><ele>35.0</ele><time>2026-04-04T16:07:04.996Z</time></trkpt><trkpt lat="40.31534847151776" lon="18.141821047676192"><ele>35.0</ele><time>2026-04-04T16:07:05.996Z</time></trkpt><trkpt lat="40.31521952479311" lon="18.14155383851816"><ele>35.0</ele><time>2026-04-04T16:07:06.996Z</time></trkpt><trkpt lat="40.315089495573574" lon="18.141289440627553"><ele>34.5</ele><time>2026-04-04T16:07:07.996Z</time></trkpt><trkpt lat="40.31496134822479" lon="18.141023339949925"><ele>34.0</ele><time>2026-04-04T16:07:08.996Z</time></trkpt><trkpt lat="40.31484331200275" lon="18.140755365108777"><ele>35.0</ele><time>2026-04-04T16:07:09.996Z</time></trkpt><trkpt lat="40.314721119551464" lon="18.14048766810389"><ele>36.0</ele><time>2026-04-04T16:07:10.996Z</time></trkpt><trkpt lat="40.3145980725941" lon="18.14022048738356"><ele>36.0</ele><time>2026-04-04T16:07:11.996Z</time></trkpt><trkpt lat="40.314471437848596" lon="18.139952807950394"><ele>36.0</ele><time>2026-04-04T16:07:12.996Z</time></trkpt><trkpt lat="40.31434399268303" lon="18.139683641477806"><ele>36.0</ele><time>2026-04-04T16:07:13.996Z</time></trkpt><trkpt lat="40.31421585802947" lon="18.139408003666063"><ele>36.0</ele><time>2026-04-04T16:07:14.996Z</time></trkpt><trkpt lat="40.31408609622445" lon="18.139135762458668"><ele>35.5</ele><time>2026-04-04T16:07:15.996Z</time></trkpt><trkpt lat="40.31394917793943" lon="18.138868995894935"><ele>35.0</ele><time>2026-04-04T16:07:16.996Z</time></trkpt><trkpt lat="40.31380004025754" lon="18.13861834818965"><ele>35.0</ele><time>2026-04-04T16:07:17.996Z</time></trkpt><trkpt lat="40.31362550182347" lon="18.13839041403986"><ele>35.0</ele><time>2026-04-04T16:07:18.996Z</time></trkpt><trkpt lat="40.31343819781922" lon="18.13818063875352"><ele>35.0</ele><time>2026-04-04T16:07:19.996Z</time></trkpt><trkpt lat="40.31324705892797" lon="18.13797821359469"><ele>35.0</ele><time>2026-04-04T16:07:20.996Z</time></trkpt><trkpt lat="40.31305403904592" lon="18.137773171289975"><ele>35.5</ele><time>2026-04-04T16:07:21.996Z</time></trkpt><trkpt lat="40.31284742321017" lon="18.137596647028925"><ele>36.0</ele><time>2026-04-04T16:07:22.996Z</time></trkpt><trkpt lat="40.31262797279394" lon="18.137445928844375"><ele>35.0</ele><time>2026-04-04T16:07:23.996Z</time></trkpt><trkpt lat="40.312400862144045" lon="18.13731439346612"><ele>34.0</ele><time>2026-04-04T16:07:24.996Z</time></trkpt><trkpt lat="40.312172987941445" lon="18.137196012148166"><ele>34.0</ele><time>2026-04-04T16:07:25.996Z</time></trkpt><trkpt lat="40.31194495077314" lon="18.13709711325571"><ele>34.0</ele><time>2026-04-04T16:07:26.996Z</time></trkpt><trkpt lat="40.311710292978375" lon="18.137002289443046"><ele>34.0</ele><time>2026-04-04T16:07:27.996Z</time></trkpt><trkpt lat="40.311472840831605" lon="18.1369266582201"><ele>34.0</ele><time>2026-04-04T16:07:28.996Z</time></trkpt><trkpt lat="40.31123512745583" lon="18.13685172235844"><ele>35.0</ele><time>2026-04-04T16:07:29.996Z</time></trkpt><trkpt lat="40.31099657552709" lon="18.13677922012225"><ele>36.0</ele><time>2026-04-04T16:07:30.996Z</time></trkpt><trkpt lat="40.310756301346814" lon="18.13669480927947"><ele>35.5</ele><time>2026-04-04T16:07:31.996Z</time></trkpt><trkpt lat="40.31051645964814" lon="18.13660367443382"><ele>35.0</ele><time>2026-04-04T16:07:32.996Z</time></trkpt><trkpt lat="40.310277506386974" lon="18.13651543420347"><ele>34.5</ele><time>2026-04-04T16:07:33.996Z</time></trkpt><trkpt lat="40.310037294991034" lon="18.136432208446376"><ele>34.0</ele><time>2026-04-04T16:07:34.996Z</time></trkpt><trkpt lat="40.309796478711434" lon="18.136348167840932"><ele>35.0</ele><time>2026-04-04T16:07:35.996Z</time></trkpt><trkpt lat="40.3095513218788" lon="18.136269630582543"><ele>36.0</ele><time>2026-04-04T16:07:36.996Z</time></trkpt><trkpt lat="40.30930413652887" lon="18.136188483227127"><ele>36.0</ele><time>2026-04-04T16:07:37.996Z</time></trkpt><trkpt lat="40.30906005328805" lon="18.13610161763084"><ele>36.0</ele><time>2026-04-04T16:07:38.996Z</time></trkpt><trkpt lat="40.308815097507775" lon="18.13601651250584"><ele>36.0</ele><time>2026-04-04T16:07:39.996Z</time></trkpt><trkpt lat="40.308570574254325" lon="18.135936784099584"><ele>36.0</ele><time>2026-04-04T16:07:40.996Z</time></trkpt><trkpt lat="40.3083263983279" lon="18.135857852053928"><ele>36.0</ele><time>2026-04-04T16:07:41.996Z</time></trkpt><trkpt lat="40.30808130437625" lon="18.135786035342186"><ele>36.0</ele><time>2026-04-04T16:07:42.996Z</time></trkpt><trkpt lat="40.30783993885602" lon="18.135704895376612"><ele>37.0</ele><time>2026-04-04T16:07:43.996Z</time></trkpt><trkpt lat="40.307607665677054" lon="18.135620340826684"><ele>38.0</ele><time>2026-04-04T16:07:44.997Z</time></trkpt><trkpt lat="40.30737851112433" lon="18.135538130550533"><ele>39.5</ele><time>2026-04-04T16:07:45.997Z</time></trkpt><trkpt lat="40.30714375495332" lon="18.135460072308003"><ele>41.0</ele><time>2026-04-04T16:07:46.997Z</time></trkpt><trkpt lat="40.306917146787725" lon="18.13537669323485"><ele>41.0</ele><time>2026-04-04T16:07:47.997Z</time></trkpt><trkpt lat="40.30669148871136" lon="18.1352968819887"><ele>41.0</ele><time>2026-04-04T16:07:48.997Z</time></trkpt><trkpt lat="40.306465551176444" lon="18.13522066611326"><ele>41.0</ele><time>2026-04-04T16:07:49.997Z</time></trkpt><trkpt lat="40.306241630208234" lon="18.135149293311855"><ele>41.0</ele><time>2026-04-04T16:07:50.996Z</time></trkpt><trkpt lat="40.30601459776866" lon="18.135068049393823"><ele>41.0</ele><time>2026-04-04T16:07:51.996Z</time></trkpt><trkpt lat="40.30578519696744" lon="18.134993743372846"><ele>41.0</ele><time>2026-04-04T16:07:52.997Z</time></trkpt><trkpt lat="40.305553779127244" lon="18.134906045727977"><ele>41.0</ele><time>2026-04-04T16:07:53.997Z</time></trkpt><trkpt lat="40.30531505641749" lon="18.1348209540077"><ele>41.0</ele><time>2026-04-04T16:07:54.997Z</time></trkpt><trkpt lat="40.305082213404376" lon="18.13473389798999"><ele>41.0</ele><time>2026-04-04T16:07:55.997Z</time></trkpt><trkpt lat="40.30484071508111" lon="18.13465395771044"><ele>41.0</ele><time>2026-04-04T16:07:56.996Z</time></trkpt><trkpt lat="40.3046018849852" lon="18.134567619225024"><ele>41.0</ele><time>2026-04-04T16:07:57.996Z</time></trkpt><trkpt lat="40.30436103851443" lon="18.134481576426314"><ele>41.0</ele><time>2026-04-04T16:07:58.996Z</time></trkpt><trkpt lat="40.304114443906926" lon="18.134387769723965"><ele>42.0</ele><time>2026-04-04T16:07:59.996Z</time></trkpt><trkpt lat="40.30387232588202" lon="18.13428489413595"><ele>43.0</ele><time>2026-04-04T16:08:00.996Z</time></trkpt><trkpt lat="40.30362953187823" lon="18.134166491657083"><ele>43.0</ele><time>2026-04-04T16:08:01.996Z</time></trkpt><trkpt lat="40.303387432068575" lon="18.134062254143668"><ele>43.0</ele><time>2026-04-04T16:08:02.996Z</time></trkpt><trkpt lat="40.30314544606196" lon="18.133950387862942"><ele>42.0</ele><time>2026-04-04T16:08:03.996Z</time></trkpt><trkpt lat="40.302906645912806" lon="18.133841496998617"><ele>41.0</ele><time>2026-04-04T16:08:04.996Z</time></trkpt><trkpt lat="40.302668249471466" lon="18.13372610901596"><ele>41.0</ele><time>2026-04-04T16:08:05.996Z</time></trkpt><trkpt lat="40.302428545160325" lon="18.133608510758517"><ele>41.0</ele><time>2026-04-04T16:08:06.996Z</time></trkpt><trkpt lat="40.302192389725796" lon="18.13350576055859"><ele>40.5</ele><time>2026-04-04T16:08:07.996Z</time></trkpt><trkpt lat="40.30196089980245" lon="18.133411379839938"><ele>40.0</ele><time>2026-04-04T16:08:08.996Z</time></trkpt><trkpt lat="40.30173013747337" lon="18.13330814994161"><ele>39.5</ele><time>2026-04-04T16:08:09.996Z</time></trkpt><trkpt lat="40.301506950154284" lon="18.133206525565964"><ele>39.0</ele><time>2026-04-04T16:08:10.996Z</time></trkpt><trkpt lat="40.30129898306378" lon="18.13311337443932"><ele>38.333333333333336</ele><time>2026-04-04T16:08:11.996Z</time></trkpt><trkpt lat="40.301092664592296" lon="18.133022069299372"><ele>37.66666666666667</ele><time>2026-04-04T16:08:12.996Z</time></trkpt><trkpt lat="40.3008829869234" lon="18.13292573451549"><ele>37.0</ele><time>2026-04-04T16:08:13.996Z</time></trkpt><trkpt lat="40.30067423363269" lon="18.13283231939502"><ele>37.66666666666667</ele><time>2026-04-04T16:08:14.996Z</time></trkpt><trkpt lat="40.30046710672972" lon="18.13274340365251"><ele>38.333333333333336</ele><time>2026-04-04T16:08:15.996Z</time></trkpt><trkpt lat="40.300261654131134" lon="18.132656089296283"><ele>39.0</ele><time>2026-04-04T16:08:16.996Z</time></trkpt><trkpt lat="40.300055509211255" lon="18.13256415015606"><ele>39.0</ele><time>2026-04-04T16:08:17.996Z</time></trkpt><trkpt lat="40.299858581881765" lon="18.132478256845705"><ele>39.0</ele><time>2026-04-04T16:08:18.996Z</time></trkpt><trkpt lat="40.29966642440594" lon="18.132405722012155"><ele>39.0</ele><time>2026-04-04T16:08:19.996Z</time></trkpt><trkpt lat="40.29948480322161" lon="18.132339983674246"><ele>39.0</ele><time>2026-04-04T16:08:20.996Z</time></trkpt><trkpt lat="40.29930683482414" lon="18.13228912540032"><ele>39.0</ele><time>2026-04-04T16:08:21.996Z</time></trkpt><trkpt lat="40.29911256251759" lon="18.132238222382142"><ele>39.0</ele><time>2026-04-04T16:08:22.996Z</time></trkpt><trkpt lat="40.29891126924919" lon="18.132194737240408"><ele>40.0</ele><time>2026-04-04T16:08:23.996Z</time></trkpt><trkpt lat="40.29870260447894" lon="18.132155614042382"><ele>41.0</ele><time>2026-04-04T16:08:24.996Z</time></trkpt><trkpt lat="40.29849972094118" lon="18.132108534426685"><ele>42.0</ele><time>2026-04-04T16:08:25.996Z</time></trkpt><trkpt lat="40.29828374020719" lon="18.132072435862664"><ele>42.0</ele><time>2026-04-04T16:08:26.996Z</time></trkpt><trkpt lat="40.29806786784285" lon="18.132051492006443"><ele>42.0</ele><time>2026-04-04T16:08:27.996Z</time></trkpt><trkpt lat="40.2978581699359" lon="18.13203186737612"><ele>42.0</ele><time>2026-04-04T16:08:28.996Z</time></trkpt><trkpt lat="40.29766411780379" lon="18.132028065872817"><ele>42.0</ele><time>2026-04-04T16:08:29.996Z</time></trkpt><trkpt lat="40.29748515546877" lon="18.13202609798027"><ele>42.0</ele><time>2026-04-04T16:08:30.996Z</time></trkpt><trkpt lat="40.29730307558343" lon="18.13202540377114"><ele>42.0</ele><time>2026-04-04T16:08:31.996Z</time></trkpt><trkpt lat="40.297106333546395" lon="18.132030485491974"><ele>42.666666666666664</ele><time>2026-04-04T16:08:32.996Z</time></trkpt><trkpt lat="40.29690828778218" lon="18.132045317110393"><ele>43.33333333333333</ele><time>2026-04-04T16:08:33.996Z</time></trkpt><trkpt lat="40.29672331926669" lon="18.1320635430166"><ele>44.0</ele><time>2026-04-04T16:08:34.996Z</time></trkpt><trkpt lat="40.296533464885776" lon="18.1320908530852"><ele>44.0</ele><time>2026-04-04T16:08:35.996Z</time></trkpt><trkpt lat="40.29632758738349" lon="18.13213362592177"><ele>44.0</ele><time>2026-04-04T16:08:36.996Z</time></trkpt><trkpt lat="40.29612525626648" lon="18.132188295751188"><ele>44.0</ele><time>2026-04-04T16:08:37.996Z</time></trkpt><trkpt lat="40.29592003438162" lon="18.13222330332752"><ele>44.0</ele><time>2026-04-04T16:08:38.996Z</time></trkpt><trkpt lat="40.29570879136031" lon="18.13223664189323"><ele>44.0</ele><time>2026-04-04T16:08:39.996Z</time></trkpt><trkpt lat="40.29550357358918" lon="18.132273135965804"><ele>44.0</ele><time>2026-04-04T16:08:40.996Z</time></trkpt><trkpt lat="40.29531365145263" lon="18.13230541595344"><ele>44.0</ele><time>2026-04-04T16:08:41.996Z</time></trkpt><trkpt lat="40.29513355526284" lon="18.13234080382102"><ele>44.0</ele><time>2026-04-04T16:08:42.996Z</time></trkpt><trkpt lat="40.29493953487604" lon="18.132376253496403"><ele>44.0</ele><time>2026-04-04T16:08:43.996Z</time></trkpt><trkpt lat="40.29474301164748" lon="18.132410787289096"><ele>44.33333333333333</ele><time>2026-04-04T16:08:44.996Z</time></trkpt><trkpt lat="40.29454324500683" lon="18.13244878039453"><ele>44.666666666666664</ele><time>2026-04-04T16:08:45.996Z</time></trkpt><trkpt lat="40.29434480901128" lon="18.132485827721137"><ele>45.0</ele><time>2026-04-04T16:08:46.996Z</time></trkpt><trkpt lat="40.29413813748571" lon="18.13251618361029"><ele>45.0</ele><time>2026-04-04T16:08:47.996Z</time></trkpt><trkpt lat="40.29393339039001" lon="18.132545462340666"><ele>45.0</ele><time>2026-04-04T16:08:48.996Z</time></trkpt><trkpt lat="40.29372836230599" lon="18.13258000451338"><ele>45.0</ele><time>2026-04-04T16:08:49.996Z</time></trkpt><trkpt lat="40.29352668531134" lon="18.132613348081854"><ele>46.0</ele><time>2026-04-04T16:08:50.996Z</time></trkpt><trkpt lat="40.29332305893133" lon="18.132647745105963"><ele>47.0</ele><time>2026-04-04T16:08:51.996Z</time></trkpt><trkpt lat="40.293117007346645" lon="18.13268796767459"><ele>48.0</ele><time>2026-04-04T16:08:52.996Z</time></trkpt><trkpt lat="40.29290961757134" lon="18.132722521636783"><ele>48.66666666666667</ele><time>2026-04-04T16:08:53.996Z</time></trkpt><trkpt lat="40.29270100573026" lon="18.132758108754842"><ele>49.333333333333336</ele><time>2026-04-04T16:08:54.996Z</time></trkpt><trkpt lat="40.29249563183553" lon="18.132796178113402"><ele>50.0</ele><time>2026-04-04T16:08:55.996Z</time></trkpt><trkpt lat="40.292291400410114" lon="18.132831021332137"><ele>50.333333333333336</ele><time>2026-04-04T16:08:56.996Z</time></trkpt><trkpt lat="40.29208507664563" lon="18.132867946159312"><ele>50.66666666666667</ele><time>2026-04-04T16:08:57.996Z</time></trkpt><trkpt lat="40.29187651232945" lon="18.13290457809309"><ele>51.0</ele><time>2026-04-04T16:08:58.996Z</time></trkpt><trkpt lat="40.29167348099818" lon="18.132942813279833"><ele>51.0</ele><time>2026-04-04T16:08:59.996Z</time></trkpt><trkpt lat="40.291464779366514" lon="18.132973811441317"><ele>51.0</ele><time>2026-04-04T16:09:00.996Z</time></trkpt><trkpt lat="40.29126182594087" lon="18.133006468702458"><ele>51.0</ele><time>2026-04-04T16:09:01.996Z</time></trkpt><trkpt lat="40.291055747207835" lon="18.133022088879702"><ele>51.0</ele><time>2026-04-04T16:09:02.996Z</time></trkpt><trkpt lat="40.290851687969884" lon="18.133023928950973"><ele>51.0</ele><time>2026-04-04T16:09:03.996Z</time></trkpt><trkpt lat="40.29064630533244" lon="18.133010339221162"><ele>51.0</ele><time>2026-04-04T16:09:04.996Z</time></trkpt><trkpt lat="40.290436298400294" lon="18.132981881462158"><ele>51.0</ele><time>2026-04-04T16:09:05.996Z</time></trkpt><trkpt lat="40.290226623757555" lon="18.132947110514564"><ele>51.0</ele><time>2026-04-04T16:09:06.996Z</time></trkpt><trkpt lat="40.2900301001502" lon="18.132900016987538"><ele>51.0</ele><time>2026-04-04T16:09:07.996Z</time></trkpt><trkpt lat="40.28983180415329" lon="18.132844241130183"><ele>51.33333333333333</ele><time>2026-04-04T16:09:08.996Z</time></trkpt><trkpt lat="40.28962819619082" lon="18.132770813850378"><ele>51.666666666666664</ele><time>2026-04-04T16:09:09.996Z</time></trkpt><trkpt lat="40.28942063290407" lon="18.132687249845524"><ele>52.0</ele><time>2026-04-04T16:09:10.996Z</time></trkpt><trkpt lat="40.28921060419317" lon="18.132594566343418"><ele>52.0</ele><time>2026-04-04T16:09:11.996Z</time></trkpt><trkpt lat="40.28899951823161" lon="18.132507112529684"><ele>52.0</ele><time>2026-04-04T16:09:12.996Z</time></trkpt><trkpt lat="40.28878623089316" lon="18.132407577391685"><ele>52.0</ele><time>2026-04-04T16:09:13.996Z</time></trkpt><trkpt lat="40.28857134212089" lon="18.132316997360032"><ele>50.666666666666664</ele><time>2026-04-04T16:09:14.996Z</time></trkpt><trkpt lat="40.288355019793194" lon="18.13222292199589"><ele>49.33333333333333</ele><time>2026-04-04T16:09:15.996Z</time></trkpt><trkpt lat="40.2881452353283" lon="18.132140648677805"><ele>48.0</ele><time>2026-04-04T16:09:16.996Z</time></trkpt><trkpt lat="40.287929419432174" lon="18.132048019476"><ele>48.0</ele><time>2026-04-04T16:09:17.996Z</time></trkpt><trkpt lat="40.287712889968695" lon="18.131955882126856"><ele>48.0</ele><time>2026-04-04T16:09:18.996Z</time></trkpt><trkpt lat="40.28749526626502" lon="18.131855159679944"><ele>48.0</ele><time>2026-04-04T16:09:19.996Z</time></trkpt><trkpt lat="40.287273071137136" lon="18.131758363032567"><ele>48.0</ele><time>2026-04-04T16:09:20.996Z</time></trkpt><trkpt lat="40.287057781639305" lon="18.131660037365325"><ele>48.0</ele><time>2026-04-04T16:09:21.996Z</time></trkpt><trkpt lat="40.286839565923515" lon="18.13155587094081"><ele>48.0</ele><time>2026-04-04T16:09:22.996Z</time></trkpt><trkpt lat="40.28662086087285" lon="18.131456911723745"><ele>48.5</ele><time>2026-04-04T16:09:23.996Z</time></trkpt><trkpt lat="40.28640493761211" lon="18.131362173399637"><ele>49.0</ele><time>2026-04-04T16:09:24.996Z</time></trkpt><trkpt lat="40.286188690230446" lon="18.131268514587735"><ele>49.0</ele><time>2026-04-04T16:09:25.996Z</time></trkpt><trkpt lat="40.285971388910035" lon="18.131172070551315"><ele>49.0</ele><time>2026-04-04T16:09:26.996Z</time></trkpt><trkpt lat="40.28575311013185" lon="18.13107034406248"><ele>49.5</ele><time>2026-04-04T16:09:27.996Z</time></trkpt><trkpt lat="40.28552976331162" lon="18.13097331832535"><ele>50.0</ele><time>2026-04-04T16:09:28.996Z</time></trkpt><trkpt lat="40.285311580824924" lon="18.130875142831474"><ele>50.0</ele><time>2026-04-04T16:09:29.996Z</time></trkpt><trkpt lat="40.28509434342141" lon="18.130776211536794"><ele>50.0</ele><time>2026-04-04T16:09:30.996Z</time></trkpt><trkpt lat="40.284875599688625" lon="18.130677459736685"><ele>48.5</ele><time>2026-04-04T16:09:31.996Z</time></trkpt><trkpt lat="40.28466189656502" lon="18.130587134946694"><ele>47.0</ele><time>2026-04-04T16:09:32.996Z</time></trkpt><trkpt lat="40.28444624630528" lon="18.13049505272441"><ele>47.0</ele><time>2026-04-04T16:09:33.996Z</time></trkpt><trkpt lat="40.28422726382644" lon="18.130394490451014"><ele>47.0</ele><time>2026-04-04T16:09:34.996Z</time></trkpt><trkpt lat="40.28401061721619" lon="18.130293523372053"><ele>47.5</ele><time>2026-04-04T16:09:35.996Z</time></trkpt><trkpt lat="40.283795027895714" lon="18.130197401547324"><ele>48.0</ele><time>2026-04-04T16:09:36.996Z</time></trkpt><trkpt lat="40.28357793822466" lon="18.13010119606013"><ele>48.0</ele><time>2026-04-04T16:09:37.996Z</time></trkpt><trkpt lat="40.28336140257219" lon="18.130002271044518"><ele>48.0</ele><time>2026-04-04T16:09:38.996Z</time></trkpt><trkpt lat="40.28314097775499" lon="18.129917292086272"><ele>47.5</ele><time>2026-04-04T16:09:39.996Z</time></trkpt><trkpt lat="40.28292057647641" lon="18.12981463176245"><ele>47.0</ele><time>2026-04-04T16:09:40.996Z</time></trkpt><trkpt lat="40.28270530627454" lon="18.129715245973166"><ele>47.0</ele><time>2026-04-04T16:09:41.996Z</time></trkpt><trkpt lat="40.28248711003651" lon="18.12962149145258"><ele>47.0</ele><time>2026-04-04T16:09:42.996Z</time></trkpt><trkpt lat="40.282268803986454" lon="18.129522188776203"><ele>47.5</ele><time>2026-04-04T16:09:43.996Z</time></trkpt><trkpt lat="40.282054449204324" lon="18.129420480874398"><ele>48.0</ele><time>2026-04-04T16:09:44.996Z</time></trkpt><trkpt lat="40.281832298614724" lon="18.129321931593317"><ele>48.0</ele><time>2026-04-04T16:09:45.996Z</time></trkpt><trkpt lat="40.28161269500098" lon="18.12922687983137"><ele>48.0</ele><time>2026-04-04T16:09:46.996Z</time></trkpt><trkpt lat="40.28139484268243" lon="18.129131082012645"><ele>48.5</ele><time>2026-04-04T16:09:47.996Z</time></trkpt><trkpt lat="40.28117817575795" lon="18.129031282894786"><ele>49.0</ele><time>2026-04-04T16:09:48.996Z</time></trkpt><trkpt lat="40.28096331856176" lon="18.128939210598134"><ele>49.0</ele><time>2026-04-04T16:09:49.996Z</time></trkpt><trkpt lat="40.28074940414936" lon="18.12884384737793"><ele>49.0</ele><time>2026-04-04T16:09:50.996Z</time></trkpt><trkpt lat="40.28053244592031" lon="18.12875168464272"><ele>49.5</ele><time>2026-04-04T16:09:51.996Z</time></trkpt><trkpt lat="40.2803129001439" lon="18.128663197801185"><ele>50.0</ele><time>2026-04-04T16:09:52.996Z</time></trkpt><trkpt lat="40.280099410328624" lon="18.128565620665114"><ele>50.0</ele><time>2026-04-04T16:09:53.996Z</time></trkpt><trkpt lat="40.2798818615447" lon="18.128469601618466"><ele>50.0</ele><time>2026-04-04T16:09:54.996Z</time></trkpt><trkpt lat="40.279664013964485" lon="18.128365890217868"><ele>49.5</ele><time>2026-04-04T16:09:55.996Z</time></trkpt><trkpt lat="40.279446704621805" lon="18.12826399344102"><ele>49.0</ele><time>2026-04-04T16:09:56.996Z</time></trkpt><trkpt lat="40.279230649045" lon="18.12816307521532"><ele>49.0</ele><time>2026-04-04T16:09:57.996Z</time></trkpt><trkpt lat="40.27901596622081" lon="18.128068746701206"><ele>49.0</ele><time>2026-04-04T16:09:58.996Z</time></trkpt><trkpt lat="40.278803325458455" lon="18.12797685564056"><ele>49.0</ele><time>2026-04-04T16:09:59.996Z</time></trkpt><trkpt lat="40.278588510087104" lon="18.127874386772664"><ele>49.0</ele><time>2026-04-04T16:10:00.996Z</time></trkpt><trkpt lat="40.2783667153539" lon="18.127770973773437"><ele>49.0</ele><time>2026-04-04T16:10:01.997Z</time></trkpt><trkpt lat="40.27815422379578" lon="18.127666171075923"><ele>49.0</ele><time>2026-04-04T16:10:02.997Z</time></trkpt><trkpt lat="40.27794246945552" lon="18.127564644681968"><ele>51.5</ele><time>2026-04-04T16:10:03.997Z</time></trkpt><trkpt lat="40.27772809687291" lon="18.127472056510033"><ele>54.0</ele><time>2026-04-04T16:10:04.997Z</time></trkpt><trkpt lat="40.277502884605475" lon="18.127384357670135"><ele>54.0</ele><time>2026-04-04T16:10:05.997Z</time></trkpt><trkpt lat="40.27729728866417" lon="18.127298175128686"><ele>54.0</ele><time>2026-04-04T16:10:06.996Z</time></trkpt><trkpt lat="40.27710921926087" lon="18.127218639082617"><ele>54.0</ele><time>2026-04-04T16:10:07.996Z</time></trkpt><trkpt lat="40.27690567960104" lon="18.12711739830268"><ele>53.66666666666667</ele><time>2026-04-04T16:10:08.996Z</time></trkpt><trkpt lat="40.27670637263236" lon="18.127034674819097"><ele>53.333333333333336</ele><time>2026-04-04T16:10:09.996Z</time></trkpt><trkpt lat="40.27649796752722" lon="18.12694541073546"><ele>53.0</ele><time>2026-04-04T16:10:10.996Z</time></trkpt><trkpt lat="40.276295821244894" lon="18.12684914668136"><ele>51.66666666666667</ele><time>2026-04-04T16:10:11.996Z</time></trkpt><trkpt lat="40.2760906698033" lon="18.12676248483849"><ele>50.33333333333333</ele><time>2026-04-04T16:10:12.996Z</time></trkpt><trkpt lat="40.275888200801006" lon="18.12668001090444"><ele>49.0</ele><time>2026-04-04T16:10:13.996Z</time></trkpt><trkpt lat="40.27569694489419" lon="18.1265912491726"><ele>48.666666666666664</ele><time>2026-04-04T16:10:14.996Z</time></trkpt><trkpt lat="40.27550346605096" lon="18.12650127408052"><ele>48.33333333333333</ele><time>2026-04-04T16:10:15.996Z</time></trkpt><trkpt lat="40.27531343452136" lon="18.12641837059413"><ele>48.0</ele><time>2026-04-04T16:10:16.996Z</time></trkpt><trkpt lat="40.27511078934941" lon="18.1263405678886"><ele>48.0</ele><time>2026-04-04T16:10:17.996Z</time></trkpt><trkpt lat="40.27491090932989" lon="18.126253358847144"><ele>48.0</ele><time>2026-04-04T16:10:18.996Z</time></trkpt><trkpt lat="40.274706590732876" lon="18.12616778114166"><ele>48.0</ele><time>2026-04-04T16:10:19.996Z</time></trkpt><trkpt lat="40.27450394221297" lon="18.12608366391448"><ele>46.666666666666664</ele><time>2026-04-04T16:10:20.996Z</time></trkpt><trkpt lat="40.27429914282219" lon="18.12599988571878"><ele>45.33333333333333</ele><time>2026-04-04T16:10:21.996Z</time></trkpt><trkpt lat="40.27410700286863" lon="18.125906509126015"><ele>44.0</ele><time>2026-04-04T16:10:22.996Z</time></trkpt><trkpt lat="40.27391731474797" lon="18.12581196352844"><ele>43.666666666666664</ele><time>2026-04-04T16:10:23.996Z</time></trkpt><trkpt lat="40.27371924713718" lon="18.12572822667124"><ele>43.333333333333336</ele><time>2026-04-04T16:10:24.996Z</time></trkpt><trkpt lat="40.273517777389735" lon="18.125636415390055"><ele>43.0</ele><time>2026-04-04T16:10:25.996Z</time></trkpt><trkpt lat="40.27331549607007" lon="18.125553101969874"><ele>43.0</ele><time>2026-04-04T16:10:26.996Z</time></trkpt><trkpt lat="40.27311006569861" lon="18.125457414609944"><ele>43.0</ele><time>2026-04-04T16:10:27.996Z</time></trkpt><trkpt lat="40.272907329144466" lon="18.12536172077223"><ele>43.0</ele><time>2026-04-04T16:10:28.996Z</time></trkpt><trkpt lat="40.27270693523154" lon="18.12527490849163"><ele>43.0</ele><time>2026-04-04T16:10:29.996Z</time></trkpt><trkpt lat="40.27251315134" lon="18.125188586254968"><ele>43.0</ele><time>2026-04-04T16:10:30.996Z</time></trkpt><trkpt lat="40.272315761848596" lon="18.12510146888865"><ele>43.0</ele><time>2026-04-04T16:10:31.996Z</time></trkpt><trkpt lat="40.272114149756916" lon="18.12502241759308"><ele>43.0</ele><time>2026-04-04T16:10:32.996Z</time></trkpt><trkpt lat="40.271907663861754" lon="18.12493148879479"><ele>43.0</ele><time>2026-04-04T16:10:33.996Z</time></trkpt><trkpt lat="40.271704969244816" lon="18.12483806815379"><ele>43.0</ele><time>2026-04-04T16:10:34.996Z</time></trkpt><trkpt lat="40.27149758232439" lon="18.124744223808236"><ele>42.66666666666667</ele><time>2026-04-04T16:10:35.996Z</time></trkpt><trkpt lat="40.271294376046114" lon="18.124652614682862"><ele>42.333333333333336</ele><time>2026-04-04T16:10:36.996Z</time></trkpt><trkpt lat="40.271089812432066" lon="18.124564057770005"><ele>42.0</ele><time>2026-04-04T16:10:37.996Z</time></trkpt><trkpt lat="40.27087938218917" lon="18.124494144968743"><ele>42.0</ele><time>2026-04-04T16:10:38.996Z</time></trkpt><trkpt lat="40.270666480398475" lon="18.124411125830154"><ele>42.0</ele><time>2026-04-04T16:10:39.996Z</time></trkpt><trkpt lat="40.27045430041114" lon="18.12431855286082"><ele>42.0</ele><time>2026-04-04T16:10:40.996Z</time></trkpt><trkpt lat="40.270234721620284" lon="18.12421861808601"><ele>43.0</ele><time>2026-04-04T16:10:41.996Z</time></trkpt><trkpt lat="40.270013373197294" lon="18.124118997668457"><ele>44.0</ele><time>2026-04-04T16:10:42.996Z</time></trkpt><trkpt lat="40.26979638421856" lon="18.12402055524032"><ele>44.33333333333333</ele><time>2026-04-04T16:10:43.996Z</time></trkpt><trkpt lat="40.2695818702072" lon="18.123923595433457"><ele>44.666666666666664</ele><time>2026-04-04T16:10:44.996Z</time></trkpt><trkpt lat="40.26937508872742" lon="18.123817869001137"><ele>45.0</ele><time>2026-04-04T16:10:45.996Z</time></trkpt><trkpt lat="40.26917845039542" lon="18.123713954366984"><ele>45.0</ele><time>2026-04-04T16:10:46.996Z</time></trkpt><trkpt lat="40.268976536972175" lon="18.123617016277983"><ele>45.0</ele><time>2026-04-04T16:10:47.996Z</time></trkpt><trkpt lat="40.26877826666311" lon="18.123540183040415"><ele>45.0</ele><time>2026-04-04T16:10:48.996Z</time></trkpt><trkpt lat="40.268582536674614" lon="18.12344656260219"><ele>44.666666666666664</ele><time>2026-04-04T16:10:49.996Z</time></trkpt><trkpt lat="40.2683868175366" lon="18.123344784437318"><ele>44.33333333333333</ele><time>2026-04-04T16:10:50.996Z</time></trkpt><trkpt lat="40.26819074932479" lon="18.12324961175205"><ele>44.0</ele><time>2026-04-04T16:10:51.996Z</time></trkpt><trkpt lat="40.26798314824567" lon="18.123189100878516"><ele>43.666666666666664</ele><time>2026-04-04T16:10:52.996Z</time></trkpt><trkpt lat="40.26778245574209" lon="18.123104599349364"><ele>43.333333333333336</ele><time>2026-04-04T16:10:53.996Z</time></trkpt><trkpt lat="40.26757243263599" lon="18.123016118425028"><ele>43.0</ele><time>2026-04-04T16:10:54.996Z</time></trkpt><trkpt lat="40.26737460551968" lon="18.1229086243348"><ele>43.66666666666667</ele><time>2026-04-04T16:10:55.996Z</time></trkpt><trkpt lat="40.26717205013326" lon="18.12281867946432"><ele>44.333333333333336</ele><time>2026-04-04T16:10:56.996Z</time></trkpt><trkpt lat="40.26697907907111" lon="18.122734666353406"><ele>45.0</ele><time>2026-04-04T16:10:57.996Z</time></trkpt><trkpt lat="40.26678609286754" lon="18.122654339109168"><ele>45.0</ele><time>2026-04-04T16:10:58.996Z</time></trkpt><trkpt lat="40.26658413324713" lon="18.12257463828147"><ele>45.0</ele><time>2026-04-04T16:10:59.996Z</time></trkpt><trkpt lat="40.26638690893338" lon="18.122470475939505"><ele>45.0</ele><time>2026-04-04T16:11:00.996Z</time></trkpt><trkpt lat="40.26618583269711" lon="18.12237454483312"><ele>44.666666666666664</ele><time>2026-04-04T16:11:01.996Z</time></trkpt><trkpt lat="40.26598285354709" lon="18.122283921956416"><ele>44.33333333333333</ele><time>2026-04-04T16:11:02.996Z</time></trkpt><trkpt lat="40.26577780659858" lon="18.12219401759309"><ele>44.0</ele><time>2026-04-04T16:11:03.996Z</time></trkpt><trkpt lat="40.265571908484" lon="18.122104995391222"><ele>44.0</ele><time>2026-04-04T16:11:04.996Z</time></trkpt><trkpt lat="40.265369753411285" lon="18.12201139237855"><ele>44.0</ele><time>2026-04-04T16:11:05.996Z</time></trkpt><trkpt lat="40.265162064148015" lon="18.121922638617455"><ele>44.0</ele><time>2026-04-04T16:11:06.996Z</time></trkpt><trkpt lat="40.264955137475056" lon="18.121829507205767"><ele>44.666666666666664</ele><time>2026-04-04T16:11:07.996Z</time></trkpt><trkpt lat="40.264746830607464" lon="18.121733108926662"><ele>45.333333333333336</ele><time>2026-04-04T16:11:08.996Z</time></trkpt><trkpt lat="40.26454108030162" lon="18.121640409351357"><ele>46.0</ele><time>2026-04-04T16:11:09.996Z</time></trkpt><trkpt lat="40.26433343988969" lon="18.121552922449638"><ele>46.0</ele><time>2026-04-04T16:11:10.996Z</time></trkpt><trkpt lat="40.26411840320742" lon="18.1214610383913"><ele>46.0</ele><time>2026-04-04T16:11:11.996Z</time></trkpt><trkpt lat="40.26390536625745" lon="18.12136565116601"><ele>46.5</ele><time>2026-04-04T16:11:12.996Z</time></trkpt><trkpt lat="40.26369171904705" lon="18.121262257485338"><ele>47.0</ele><time>2026-04-04T16:11:13.996Z</time></trkpt><trkpt lat="40.26347506139537" lon="18.121162229990738"><ele>47.0</ele><time>2026-04-04T16:11:14.996Z</time></trkpt><trkpt lat="40.26326056721392" lon="18.12107095209025"><ele>47.0</ele><time>2026-04-04T16:11:15.996Z</time></trkpt><trkpt lat="40.26304330055816" lon="18.120977374141457"><ele>47.0</ele><time>2026-04-04T16:11:16.996Z</time></trkpt><trkpt lat="40.26283275234147" lon="18.120883477085933"><ele>47.0</ele><time>2026-04-04T16:11:17.996Z</time></trkpt><trkpt lat="40.26262258356818" lon="18.120789381265613"><ele>47.0</ele><time>2026-04-04T16:11:18.996Z</time></trkpt><trkpt lat="40.26240630931009" lon="18.120693085100086"><ele>46.666666666666664</ele><time>2026-04-04T16:11:19.996Z</time></trkpt><trkpt lat="40.26219997766107" lon="18.120601108011456"><ele>46.333333333333336</ele><time>2026-04-04T16:11:20.996Z</time></trkpt><trkpt lat="40.26199458040333" lon="18.120515201693983"><ele>46.0</ele><time>2026-04-04T16:11:21.996Z</time></trkpt><trkpt lat="40.26179318070883" lon="18.120428832602364"><ele>46.0</ele><time>2026-04-04T16:11:22.996Z</time></trkpt><trkpt lat="40.26158754303201" lon="18.120335619402475"><ele>46.0</ele><time>2026-04-04T16:11:23.996Z</time></trkpt><trkpt lat="40.26138692259507" lon="18.12024592583796"><ele>46.0</ele><time>2026-04-04T16:11:24.996Z</time></trkpt><trkpt lat="40.26118501134701" lon="18.120150683738004"><ele>46.0</ele><time>2026-04-04T16:11:25.996Z</time></trkpt><trkpt lat="40.26098337437626" lon="18.120063267129343"><ele>46.0</ele><time>2026-04-04T16:11:26.996Z</time></trkpt><trkpt lat="40.26078330704907" lon="18.1199761814458"><ele>46.0</ele><time>2026-04-04T16:11:27.996Z</time></trkpt><trkpt lat="40.260583506711654" lon="18.119891893116222"><ele>46.333333333333336</ele><time>2026-04-04T16:11:28.996Z</time></trkpt><trkpt lat="40.26038478043224" lon="18.11980147587546"><ele>46.666666666666664</ele><time>2026-04-04T16:11:29.996Z</time></trkpt><trkpt lat="40.26019066303226" lon="18.119709282387813"><ele>47.0</ele><time>2026-04-04T16:11:30.996Z</time></trkpt><trkpt lat="40.25998874111002" lon="18.11961625787022"><ele>47.0</ele><time>2026-04-04T16:11:31.996Z</time></trkpt><trkpt lat="40.2597852064917" lon="18.11952495546966"><ele>47.0</ele><time>2026-04-04T16:11:32.996Z</time></trkpt><trkpt lat="40.25958465539442" lon="18.1194379072373"><ele>47.0</ele><time>2026-04-04T16:11:33.996Z</time></trkpt><trkpt lat="40.259385014075015" lon="18.11934826719435"><ele>47.0</ele><time>2026-04-04T16:11:34.996Z</time></trkpt><trkpt lat="40.259182906502055" lon="18.119258962365894"><ele>47.0</ele><time>2026-04-04T16:11:35.996Z</time></trkpt><trkpt lat="40.258979690325965" lon="18.119166115905177"><ele>47.0</ele><time>2026-04-04T16:11:36.996Z</time></trkpt><trkpt lat="40.2587751077598" lon="18.119076000456324"><ele>47.33333333333333</ele><time>2026-04-04T16:11:37.996Z</time></trkpt><trkpt lat="40.25857159099402" lon="18.118988585820823"><ele>47.666666666666664</ele><time>2026-04-04T16:11:38.996Z</time></trkpt><trkpt lat="40.2583690534829" lon="18.118900040130747"><ele>48.0</ele><time>2026-04-04T16:11:39.996Z</time></trkpt><trkpt lat="40.25816749796753" lon="18.11881152151718"><ele>48.0</ele><time>2026-04-04T16:11:40.996Z</time></trkpt><trkpt lat="40.25796525690453" lon="18.118722935314647"><ele>48.0</ele><time>2026-04-04T16:11:41.996Z</time></trkpt><trkpt lat="40.25776745181908" lon="18.118641296426787"><ele>48.0</ele><time>2026-04-04T16:11:42.996Z</time></trkpt><trkpt lat="40.2575691010627" lon="18.11855182201645"><ele>48.0</ele><time>2026-04-04T16:11:43.996Z</time></trkpt><trkpt lat="40.25737253912886" lon="18.11846228028011"><ele>48.0</ele><time>2026-04-04T16:11:44.996Z</time></trkpt><trkpt lat="40.257175062711774" lon="18.118379039366932"><ele>48.0</ele><time>2026-04-04T16:11:45.996Z</time></trkpt><trkpt lat="40.256976705127755" lon="18.11829150332854"><ele>47.0</ele><time>2026-04-04T16:11:46.996Z</time></trkpt><trkpt lat="40.25677680774254" lon="18.118203161427484"><ele>46.0</ele><time>2026-04-04T16:11:47.996Z</time></trkpt><trkpt lat="40.25657659543305" lon="18.118112172071083"><ele>45.0</ele><time>2026-04-04T16:11:48.996Z</time></trkpt><trkpt lat="40.256374612056895" lon="18.11801788035767"><ele>44.666666666666664</ele><time>2026-04-04T16:11:49.996Z</time></trkpt><trkpt lat="40.25617106946583" lon="18.11792797542817"><ele>44.33333333333333</ele><time>2026-04-04T16:11:50.996Z</time></trkpt><trkpt lat="40.25596604730922" lon="18.117838643403452"><ele>44.0</ele><time>2026-04-04T16:11:51.996Z</time></trkpt><trkpt lat="40.2557606178526" lon="18.117748825841765"><ele>44.33333333333333</ele><time>2026-04-04T16:11:52.996Z</time></trkpt><trkpt lat="40.25555720500326" lon="18.117660344596842"><ele>44.666666666666664</ele><time>2026-04-04T16:11:53.996Z</time></trkpt><trkpt lat="40.25535327397865" lon="18.11757331109721"><ele>45.0</ele><time>2026-04-04T16:11:54.996Z</time></trkpt><trkpt lat="40.255145571184215" lon="18.117480173572513"><ele>45.0</ele><time>2026-04-04T16:11:55.997Z</time></trkpt><trkpt lat="40.2549433290032" lon="18.11739048853671"><ele>45.0</ele><time>2026-04-04T16:11:56.996Z</time></trkpt><trkpt lat="40.25474205961916" lon="18.117300404930603"><ele>45.0</ele><time>2026-04-04T16:11:57.996Z</time></trkpt><trkpt lat="40.25453900022078" lon="18.11720640658783"><ele>45.0</ele><time>2026-04-04T16:11:58.996Z</time></trkpt><trkpt lat="40.254339581701316" lon="18.11712142796839"><ele>45.0</ele><time>2026-04-04T16:11:59.996Z</time></trkpt><trkpt lat="40.25413651692638" lon="18.117037093413742"><ele>45.0</ele><time>2026-04-04T16:12:00.996Z</time></trkpt><trkpt lat="40.25393723186942" lon="18.116949630227882"><ele>44.666666666666664</ele><time>2026-04-04T16:12:01.996Z</time></trkpt><trkpt lat="40.253734581351765" lon="18.116860927198957"><ele>44.33333333333333</ele><time>2026-04-04T16:12:02.996Z</time></trkpt><trkpt lat="40.25352933984908" lon="18.116773655467597"><ele>44.0</ele><time>2026-04-04T16:12:03.996Z</time></trkpt><trkpt lat="40.253330775317345" lon="18.11668603197608"><ele>44.0</ele><time>2026-04-04T16:12:04.997Z</time></trkpt><trkpt lat="40.253133853045185" lon="18.116591290393632"><ele>44.0</ele><time>2026-04-04T16:12:05.996Z</time></trkpt><trkpt lat="40.25293680618872" lon="18.11650353540074"><ele>44.0</ele><time>2026-04-04T16:12:06.996Z</time></trkpt><trkpt lat="40.25274011288479" lon="18.116403503690915"><ele>44.33333333333333</ele><time>2026-04-04T16:12:07.996Z</time></trkpt><trkpt lat="40.252542993215116" lon="18.11631859649585"><ele>44.666666666666664</ele><time>2026-04-04T16:12:08.996Z</time></trkpt><trkpt lat="40.25233651100077" lon="18.116215174714153"><ele>45.0</ele><time>2026-04-04T16:12:09.996Z</time></trkpt><trkpt lat="40.25209614387939" lon="18.11605346385233"><ele>45.0</ele><time>2026-04-04T16:12:10.996Z</time></trkpt><trkpt lat="40.25196499822425" lon="18.11605508976507"><ele>45.0</ele><time>2026-04-04T16:12:11.996Z</time></trkpt><trkpt lat="40.25176848437731" lon="18.115966418157004"><ele>45.0</ele><time>2026-04-04T16:12:12.996Z</time></trkpt><trkpt lat="40.25156802872719" lon="18.115877585411056"><ele>45.0</ele><time>2026-04-04T16:12:13.996Z</time></trkpt><trkpt lat="40.25136898066646" lon="18.115789897291062"><ele>45.0</ele><time>2026-04-04T16:12:14.996Z</time></trkpt><trkpt lat="40.2511720507939" lon="18.115702935815463"><ele>45.0</ele><time>2026-04-04T16:12:15.996Z</time></trkpt><trkpt lat="40.25097255696122" lon="18.11561217967968"><ele>45.333333333333336</ele><time>2026-04-04T16:12:16.996Z</time></trkpt><trkpt lat="40.25077058461223" lon="18.11552061073613"><ele>45.66666666666667</ele><time>2026-04-04T16:12:17.996Z</time></trkpt><trkpt lat="40.2505726356037" lon="18.11543024668821"><ele>46.0</ele><time>2026-04-04T16:12:18.996Z</time></trkpt><trkpt lat="40.25037549234771" lon="18.115343535462717"><ele>46.66666666666667</ele><time>2026-04-04T16:12:19.996Z</time></trkpt><trkpt lat="40.25017704356277" lon="18.115256905422974"><ele>47.333333333333336</ele><time>2026-04-04T16:12:20.996Z</time></trkpt><trkpt lat="40.249982192422564" lon="18.115171379263067"><ele>48.0</ele><time>2026-04-04T16:12:21.996Z</time></trkpt><trkpt lat="40.249786135140326" lon="18.115085984648584"><ele>48.0</ele><time>2026-04-04T16:12:22.996Z</time></trkpt><trkpt lat="40.24959168753569" lon="18.115000605800862"><ele>48.0</ele><time>2026-04-04T16:12:23.996Z</time></trkpt><trkpt lat="40.24939940948192" lon="18.114913264479533"><ele>48.0</ele><time>2026-04-04T16:12:24.996Z</time></trkpt><trkpt lat="40.249210957065884" lon="18.114831220906712"><ele>48.33333333333333</ele><time>2026-04-04T16:12:25.996Z</time></trkpt><trkpt lat="40.24902298933338" lon="18.114750342145687"><ele>48.666666666666664</ele><time>2026-04-04T16:12:26.996Z</time></trkpt><trkpt lat="40.24884068194607" lon="18.11466857002419"><ele>49.0</ele><time>2026-04-04T16:12:27.996Z</time></trkpt><trkpt lat="40.248663874754435" lon="18.114590647428354"><ele>50.33333333333333</ele><time>2026-04-04T16:12:28.996Z</time></trkpt><trkpt lat="40.24849025103724" lon="18.114513964574808"><ele>51.66666666666667</ele><time>2026-04-04T16:12:29.996Z</time></trkpt><trkpt lat="40.24831809289378" lon="18.114433786334565"><ele>53.0</ele><time>2026-04-04T16:12:30.996Z</time></trkpt><trkpt lat="40.248147553596446" lon="18.114352392414744"><ele>53.66666666666667</ele><time>2026-04-04T16:12:31.996Z</time></trkpt><trkpt lat="40.24797521011463" lon="18.114272252617408"><ele>54.33333333333333</ele><time>2026-04-04T16:12:32.996Z</time></trkpt><trkpt lat="40.24779837953177" lon="18.114195621672454"><ele>55.0</ele><time>2026-04-04T16:12:33.996Z</time></trkpt><trkpt lat="40.24761911596907" lon="18.11411730453934"><ele>54.666666666666664</ele><time>2026-04-04T16:12:34.996Z</time></trkpt><trkpt lat="40.247437443941486" lon="18.1140440227771"><ele>54.33333333333333</ele><time>2026-04-04T16:12:35.996Z</time></trkpt><trkpt lat="40.24725976921117" lon="18.11396515371724"><ele>54.0</ele><time>2026-04-04T16:12:36.996Z</time></trkpt><trkpt lat="40.24707754840055" lon="18.113876637680775"><ele>54.66666666666667</ele><time>2026-04-04T16:12:37.996Z</time></trkpt><trkpt lat="40.246894119511424" lon="18.113792219938805"><ele>55.333333333333336</ele><time>2026-04-04T16:12:38.996Z</time></trkpt><trkpt lat="40.24671230516951" lon="18.113709642868628"><ele>56.0</ele><time>2026-04-04T16:12:39.996Z</time></trkpt><trkpt lat="40.24654187968202" lon="18.11363330521037"><ele>56.0</ele><time>2026-04-04T16:12:40.996Z</time></trkpt><trkpt lat="40.246369944239945" lon="18.11355729500494"><ele>56.0</ele><time>2026-04-04T16:12:41.996Z</time></trkpt><trkpt lat="40.24619518916723" lon="18.11347789594304"><ele>56.0</ele><time>2026-04-04T16:12:42.996Z</time></trkpt><trkpt lat="40.246014410559226" lon="18.11339714967296"><ele>56.0</ele><time>2026-04-04T16:12:43.996Z</time></trkpt><trkpt lat="40.24582983833739" lon="18.113315943906333"><ele>56.0</ele><time>2026-04-04T16:12:44.996Z</time></trkpt><trkpt lat="40.24564792310765" lon="18.113234184742925"><ele>56.0</ele><time>2026-04-04T16:12:45.996Z</time></trkpt><trkpt lat="40.2454586003649" lon="18.11315156987984"><ele>56.66666666666667</ele><time>2026-04-04T16:12:46.996Z</time></trkpt><trkpt lat="40.24527186269012" lon="18.11306090151325"><ele>57.33333333333333</ele><time>2026-04-04T16:12:47.996Z</time></trkpt><trkpt lat="40.24507886073863" lon="18.112976689500172"><ele>58.0</ele><time>2026-04-04T16:12:48.996Z</time></trkpt><trkpt lat="40.24488572016663" lon="18.112889822271885"><ele>57.666666666666664</ele><time>2026-04-04T16:12:49.996Z</time></trkpt><trkpt lat="40.2446872008483" lon="18.112804893707978"><ele>57.33333333333333</ele><time>2026-04-04T16:12:50.996Z</time></trkpt><trkpt lat="40.24448402687647" lon="18.112715620316266"><ele>57.0</ele><time>2026-04-04T16:12:51.996Z</time></trkpt><trkpt lat="40.24427931552658" lon="18.112622997256832"><ele>57.0</ele><time>2026-04-04T16:12:52.996Z</time></trkpt><trkpt lat="40.24407311807586" lon="18.112530374009438"><ele>57.0</ele><time>2026-04-04T16:12:53.996Z</time></trkpt><trkpt lat="40.243869550755555" lon="18.112437060686187"><ele>57.0</ele><time>2026-04-04T16:12:54.996Z</time></trkpt><trkpt lat="40.24366325436261" lon="18.11234576184641"><ele>57.0</ele><time>2026-04-04T16:12:55.996Z</time></trkpt><trkpt lat="40.24345305240418" lon="18.112252696250707"><ele>57.0</ele><time>2026-04-04T16:12:56.996Z</time></trkpt><trkpt lat="40.24324373315742" lon="18.112155496752543"><ele>57.0</ele><time>2026-04-04T16:12:57.996Z</time></trkpt><trkpt lat="40.24303650427067" lon="18.11206954916868"><ele>56.66666666666667</ele><time>2026-04-04T16:12:58.996Z</time></trkpt><trkpt lat="40.24282701205186" lon="18.111978891774736"><ele>56.333333333333336</ele><time>2026-04-04T16:12:59.996Z</time></trkpt><trkpt lat="40.2426145999646" lon="18.111884543526134"><ele>56.0</ele><time>2026-04-04T16:13:00.996Z</time></trkpt><trkpt lat="40.242402724800364" lon="18.11179533895074"><ele>56.0</ele><time>2026-04-04T16:13:01.996Z</time></trkpt><trkpt lat="40.242191465340156" lon="18.11170112263231"><ele>56.0</ele><time>2026-04-04T16:13:02.996Z</time></trkpt><trkpt lat="40.24198037657956" lon="18.11161084664788"><ele>56.0</ele><time>2026-04-04T16:13:03.996Z</time></trkpt><trkpt lat="40.24176856099352" lon="18.11151690655877"><ele>57.0</ele><time>2026-04-04T16:13:04.996Z</time></trkpt><trkpt lat="40.24155367995633" lon="18.111418928710084"><ele>58.0</ele><time>2026-04-04T16:13:05.996Z</time></trkpt><trkpt lat="40.24133324463648" lon="18.111321586501038"><ele>58.0</ele><time>2026-04-04T16:13:06.996Z</time></trkpt><trkpt lat="40.241113311524835" lon="18.111221998588096"><ele>58.0</ele><time>2026-04-04T16:13:07.996Z</time></trkpt><trkpt lat="40.24089233646633" lon="18.111122528570764"><ele>58.0</ele><time>2026-04-04T16:13:08.996Z</time></trkpt><trkpt lat="40.24067356962855" lon="18.111023534014542"><ele>58.0</ele><time>2026-04-04T16:13:09.996Z</time></trkpt><trkpt lat="40.24045043455303" lon="18.110923109037316"><ele>56.5</ele><time>2026-04-04T16:13:10.996Z</time></trkpt><trkpt lat="40.2402277326305" lon="18.11082358655462"><ele>55.0</ele><time>2026-04-04T16:13:11.996Z</time></trkpt><trkpt lat="40.24000765262648" lon="18.11072420958022"><ele>54.5</ele><time>2026-04-04T16:13:12.996Z</time></trkpt><trkpt lat="40.23977882179719" lon="18.110625741526004"><ele>54.0</ele><time>2026-04-04T16:13:13.996Z</time></trkpt><trkpt lat="40.23955159189613" lon="18.11052626389351"><ele>54.0</ele><time>2026-04-04T16:13:14.996Z</time></trkpt><trkpt lat="40.239327994682974" lon="18.11043369566906"><ele>54.0</ele><time>2026-04-04T16:13:15.996Z</time></trkpt><trkpt lat="40.23910118404738" lon="18.11033357493502"><ele>54.0</ele><time>2026-04-04T16:13:16.996Z</time></trkpt><trkpt lat="40.23888322429053" lon="18.110232051411007"><ele>54.0</ele><time>2026-04-04T16:13:17.996Z</time></trkpt><trkpt lat="40.23866746606267" lon="18.11013301186144"><ele>54.0</ele><time>2026-04-04T16:13:18.996Z</time></trkpt><trkpt lat="40.23845502061297" lon="18.110038886977485"><ele>54.0</ele><time>2026-04-04T16:13:19.996Z</time></trkpt><trkpt lat="40.238243981453394" lon="18.10994879929861"><ele>54.0</ele><time>2026-04-04T16:13:20.996Z</time></trkpt><trkpt lat="40.23803554809887" lon="18.109856659022206"><ele>53.66666666666667</ele><time>2026-04-04T16:13:21.996Z</time></trkpt><trkpt lat="40.23782274412359" lon="18.109760528464477"><ele>53.333333333333336</ele><time>2026-04-04T16:13:22.996Z</time></trkpt><trkpt lat="40.23761304529227" lon="18.109666092707496"><ele>53.0</ele><time>2026-04-04T16:13:23.996Z</time></trkpt><trkpt lat="40.237403518981715" lon="18.109570506830032"><ele>52.66666666666667</ele><time>2026-04-04T16:13:24.996Z</time></trkpt><trkpt lat="40.237202593668734" lon="18.10948328092023"><ele>52.33333333333333</ele><time>2026-04-04T16:13:25.996Z</time></trkpt><trkpt lat="40.237009821741054" lon="18.10939868459114"><ele>52.0</ele><time>2026-04-04T16:13:26.996Z</time></trkpt><trkpt lat="40.23681267092599" lon="18.109300418248846"><ele>52.0</ele><time>2026-04-04T16:13:27.996Z</time></trkpt><trkpt lat="40.23660893062828" lon="18.109214844091838"><ele>52.0</ele><time>2026-04-04T16:13:28.996Z</time></trkpt><trkpt lat="40.23640106562104" lon="18.10913544322956"><ele>52.0</ele><time>2026-04-04T16:13:29.996Z</time></trkpt><trkpt lat="40.236184645085764" lon="18.109055144719825"><ele>52.0</ele><time>2026-04-04T16:13:30.996Z</time></trkpt><trkpt lat="40.23595744426731" lon="18.108959347800525"><ele>52.0</ele><time>2026-04-04T16:13:31.996Z</time></trkpt><trkpt lat="40.23572084226165" lon="18.108859076014557"><ele>52.5</ele><time>2026-04-04T16:13:32.996Z</time></trkpt><trkpt lat="40.23548707315835" lon="18.108753484555216"><ele>53.0</ele><time>2026-04-04T16:13:33.996Z</time></trkpt><trkpt lat="40.23524974996187" lon="18.108647917914144"><ele>53.0</ele><time>2026-04-04T16:13:34.996Z</time></trkpt><trkpt lat="40.23500913698059" lon="18.108544784031164"><ele>53.0</ele><time>2026-04-04T16:13:35.996Z</time></trkpt><trkpt lat="40.234772262726146" lon="18.108436668161183"><ele>52.0</ele><time>2026-04-04T16:13:36.996Z</time></trkpt><trkpt lat="40.2345321604731" lon="18.10832911187481"><ele>51.0</ele><time>2026-04-04T16:13:37.996Z</time></trkpt><trkpt lat="40.2342941383433" lon="18.10822401309365"><ele>51.0</ele><time>2026-04-04T16:13:38.996Z</time></trkpt><trkpt lat="40.23405707358909" lon="18.10811789953175"><ele>51.0</ele><time>2026-04-04T16:13:39.996Z</time></trkpt><trkpt lat="40.233817888198125" lon="18.108013653150927"><ele>50.0</ele><time>2026-04-04T16:13:40.996Z</time></trkpt><trkpt lat="40.233579055910745" lon="18.107904147134423"><ele>49.0</ele><time>2026-04-04T16:13:41.996Z</time></trkpt><trkpt lat="40.23334085684083" lon="18.107790587168573"><ele>49.5</ele><time>2026-04-04T16:13:42.996Z</time></trkpt><trkpt lat="40.23310432354235" lon="18.107677197318043"><ele>50.0</ele><time>2026-04-04T16:13:43.996Z</time></trkpt><trkpt lat="40.23286912811947" lon="18.10756584105567"><ele>50.0</ele><time>2026-04-04T16:13:44.996Z</time></trkpt><trkpt lat="40.232639222088345" lon="18.10745802548096"><ele>50.0</ele><time>2026-04-04T16:13:45.996Z</time></trkpt><trkpt lat="40.23240881281568" lon="18.107357883481285"><ele>50.0</ele><time>2026-04-04T16:13:46.996Z</time></trkpt><trkpt lat="40.23217190245319" lon="18.107253809979962"><ele>50.0</ele><time>2026-04-04T16:13:47.996Z</time></trkpt><trkpt lat="40.23193696150791" lon="18.107151868091435"><ele>50.0</ele><time>2026-04-04T16:13:48.996Z</time></trkpt><trkpt lat="40.23170383499488" lon="18.107041252412426"><ele>50.0</ele><time>2026-04-04T16:13:49.996Z</time></trkpt><trkpt lat="40.23147007696662" lon="18.106936776439444"><ele>50.0</ele><time>2026-04-04T16:13:50.996Z</time></trkpt><trkpt lat="40.23124488377213" lon="18.10683210042439"><ele>50.0</ele><time>2026-04-04T16:13:51.996Z</time></trkpt><trkpt lat="40.23100879121685" lon="18.1067362306413"><ele>50.0</ele><time>2026-04-04T16:13:52.996Z</time></trkpt><trkpt lat="40.230778982318306" lon="18.10662992618821"><ele>50.0</ele><time>2026-04-04T16:13:53.996Z</time></trkpt><trkpt lat="40.23054728659486" lon="18.10652552428007"><ele>48.0</ele><time>2026-04-04T16:13:54.996Z</time></trkpt><trkpt lat="40.230322925240955" lon="18.106421098125313"><ele>46.0</ele><time>2026-04-04T16:13:55.996Z</time></trkpt><trkpt lat="40.23009329270298" lon="18.106316632608927"><ele>46.0</ele><time>2026-04-04T16:13:56.996Z</time></trkpt><trkpt lat="40.22987181656374" lon="18.106218502355347"><ele>46.0</ele><time>2026-04-04T16:13:57.996Z</time></trkpt><trkpt lat="40.229655181748676" lon="18.106124881954038"><ele>45.66666666666667</ele><time>2026-04-04T16:13:58.996Z</time></trkpt><trkpt lat="40.22944112681732" lon="18.106027406490092"><ele>45.333333333333336</ele><time>2026-04-04T16:13:59.996Z</time></trkpt><trkpt lat="40.22923366912147" lon="18.105929833688315"><ele>45.0</ele><time>2026-04-04T16:14:00.996Z</time></trkpt><trkpt lat="40.22902658128874" lon="18.105832132676085"><ele>44.666666666666664</ele><time>2026-04-04T16:14:01.997Z</time></trkpt><trkpt lat="40.228818586201136" lon="18.105731171867742"><ele>44.33333333333333</ele><time>2026-04-04T16:14:02.997Z</time></trkpt><trkpt lat="40.22861258866123" lon="18.105643239401427"><ele>44.0</ele><time>2026-04-04T16:14:03.996Z</time></trkpt><trkpt lat="40.22839847047486" lon="18.105549092084257"><ele>44.0</ele><time>2026-04-04T16:14:04.996Z</time></trkpt><trkpt lat="40.22818302782719" lon="18.10545410340257"><ele>44.0</ele><time>2026-04-04T16:14:05.996Z</time></trkpt><trkpt lat="40.227968748151895" lon="18.10535679151509"><ele>45.33333333333333</ele><time>2026-04-04T16:14:06.997Z</time></trkpt><trkpt lat="40.227754483145155" lon="18.10525908931284"><ele>46.666666666666664</ele><time>2026-04-04T16:14:07.996Z</time></trkpt><trkpt lat="40.22754520210177" lon="18.105161419662917"><ele>48.0</ele><time>2026-04-04T16:14:08.996Z</time></trkpt><trkpt lat="40.227329639000814" lon="18.105058904426265"><ele>47.5</ele><time>2026-04-04T16:14:09.997Z</time></trkpt><trkpt lat="40.22711539198679" lon="18.104967379918683"><ele>47.0</ele><time>2026-04-04T16:14:10.996Z</time></trkpt><trkpt lat="40.22690285235132" lon="18.104870626533597"><ele>47.0</ele><time>2026-04-04T16:14:11.996Z</time></trkpt><trkpt lat="40.22669120951703" lon="18.10477353433786"><ele>47.0</ele><time>2026-04-04T16:14:12.997Z</time></trkpt><trkpt lat="40.2264850256965" lon="18.104679699912328"><ele>47.0</ele><time>2026-04-04T16:14:13.996Z</time></trkpt><trkpt lat="40.22626905654011" lon="18.10458805166036"><ele>46.666666666666664</ele><time>2026-04-04T16:14:14.996Z</time></trkpt><trkpt lat="40.226055866875924" lon="18.104492689601575"><ele>46.333333333333336</ele><time>2026-04-04T16:14:15.996Z</time></trkpt><trkpt lat="40.225846173037304" lon="18.104395147383897"><ele>46.0</ele><time>2026-04-04T16:14:16.996Z</time></trkpt><trkpt lat="40.225633509924236" lon="18.104307371443205"><ele>46.0</ele><time>2026-04-04T16:14:17.996Z</time></trkpt><trkpt lat="40.2254173111829" lon="18.104204556121626"><ele>46.0</ele><time>2026-04-04T16:14:18.996Z</time></trkpt><trkpt lat="40.225199366890116" lon="18.104106019202163"><ele>46.0</ele><time>2026-04-04T16:14:19.996Z</time></trkpt><trkpt lat="40.224987867280184" lon="18.104012708325374"><ele>46.0</ele><time>2026-04-04T16:14:20.996Z</time></trkpt><trkpt lat="40.224777428682536" lon="18.103919248167156"><ele>46.0</ele><time>2026-04-04T16:14:21.996Z</time></trkpt><trkpt lat="40.22456354143562" lon="18.103819513384728"><ele>46.0</ele><time>2026-04-04T16:14:22.996Z</time></trkpt><trkpt lat="40.22435378293102" lon="18.103723690999573"><ele>46.0</ele><time>2026-04-04T16:14:23.996Z</time></trkpt><trkpt lat="40.22414534446723" lon="18.103627795095473"><ele>46.0</ele><time>2026-04-04T16:14:24.996Z</time></trkpt><trkpt lat="40.22394025427137" lon="18.103536372465275"><ele>46.0</ele><time>2026-04-04T16:14:25.996Z</time></trkpt><trkpt lat="40.22373440590211" lon="18.103440791825353"><ele>46.0</ele><time>2026-04-04T16:14:26.996Z</time></trkpt><trkpt lat="40.22352776673902" lon="18.103348218387204"><ele>46.0</ele><time>2026-04-04T16:14:27.996Z</time></trkpt><trkpt lat="40.22332125885189" lon="18.10325714508331"><ele>45.0</ele><time>2026-04-04T16:14:28.996Z</time></trkpt><trkpt lat="40.22311414270182" lon="18.103163964355357"><ele>44.0</ele><time>2026-04-04T16:14:29.996Z</time></trkpt><trkpt lat="40.222904137326914" lon="18.103067433460975"><ele>43.0</ele><time>2026-04-04T16:14:30.996Z</time></trkpt><trkpt lat="40.222694792065205" lon="18.10297161421762"><ele>43.0</ele><time>2026-04-04T16:14:31.996Z</time></trkpt><trkpt lat="40.222490050422934" lon="18.102878171648833"><ele>43.0</ele><time>2026-04-04T16:14:32.996Z</time></trkpt><trkpt lat="40.22228150056666" lon="18.102789462944283"><ele>43.0</ele><time>2026-04-04T16:14:33.996Z</time></trkpt><trkpt lat="40.222071438235034" lon="18.102698765970903"><ele>43.0</ele><time>2026-04-04T16:14:34.996Z</time></trkpt><trkpt lat="40.22186625370737" lon="18.10260236194193"><ele>43.0</ele><time>2026-04-04T16:14:35.996Z</time></trkpt><trkpt lat="40.22166351488242" lon="18.102510815705685"><ele>43.0</ele><time>2026-04-04T16:14:36.996Z</time></trkpt><trkpt lat="40.22145969239789" lon="18.102411789146696"><ele>43.0</ele><time>2026-04-04T16:14:37.996Z</time></trkpt><trkpt lat="40.22125490153685" lon="18.102315924113984"><ele>43.0</ele><time>2026-04-04T16:14:38.996Z</time></trkpt><trkpt lat="40.221043064559964" lon="18.102223435093588"><ele>43.0</ele><time>2026-04-04T16:14:39.996Z</time></trkpt><trkpt lat="40.22083633286115" lon="18.102129503531167"><ele>43.333333333333336</ele><time>2026-04-04T16:14:40.996Z</time></trkpt><trkpt lat="40.22062734693205" lon="18.102031796773492"><ele>43.666666666666664</ele><time>2026-04-04T16:14:41.996Z</time></trkpt><trkpt lat="40.220420474818326" lon="18.101937724976395"><ele>44.0</ele><time>2026-04-04T16:14:42.996Z</time></trkpt><trkpt lat="40.220215697629314" lon="18.101840009515193"><ele>44.0</ele><time>2026-04-04T16:14:43.996Z</time></trkpt><trkpt lat="40.22001040448349" lon="18.10175023758208"><ele>44.0</ele><time>2026-04-04T16:14:44.996Z</time></trkpt><trkpt lat="40.219804812900705" lon="18.101663572955722"><ele>44.0</ele><time>2026-04-04T16:14:45.996Z</time></trkpt><trkpt lat="40.21959711176918" lon="18.101577323830657"><ele>44.33333333333333</ele><time>2026-04-04T16:14:46.996Z</time></trkpt><trkpt lat="40.21938924749449" lon="18.101477248931687"><ele>44.666666666666664</ele><time>2026-04-04T16:14:47.996Z</time></trkpt><trkpt lat="40.21918566136141" lon="18.101393653639576"><ele>45.0</ele><time>2026-04-04T16:14:48.996Z</time></trkpt><trkpt lat="40.21897791009629" lon="18.101295825159376"><ele>45.0</ele><time>2026-04-04T16:14:49.996Z</time></trkpt><trkpt lat="40.218771380794166" lon="18.10120113483242"><ele>45.0</ele><time>2026-04-04T16:14:50.996Z</time></trkpt><trkpt lat="40.2185664135596" lon="18.101106408104403"><ele>45.0</ele><time>2026-04-04T16:14:51.996Z</time></trkpt><trkpt lat="40.21835764963619" lon="18.101014265345995"><ele>44.666666666666664</ele><time>2026-04-04T16:14:52.996Z</time></trkpt><trkpt lat="40.21814884549826" lon="18.100917857769783"><ele>44.33333333333333</ele><time>2026-04-04T16:14:53.996Z</time></trkpt><trkpt lat="40.21794386380727" lon="18.10081305276671"><ele>44.0</ele><time>2026-04-04T16:14:54.996Z</time></trkpt><trkpt lat="40.21774104844232" lon="18.100719319981266"><ele>43.666666666666664</ele><time>2026-04-04T16:14:55.996Z</time></trkpt><trkpt lat="40.21754545195628" lon="18.100629757440235"><ele>43.333333333333336</ele><time>2026-04-04T16:14:56.996Z</time></trkpt><trkpt lat="40.217340528512" lon="18.100542899957283"><ele>43.0</ele><time>2026-04-04T16:14:57.996Z</time></trkpt><trkpt lat="40.21713338903753" lon="18.100453074045376"><ele>43.0</ele><time>2026-04-04T16:14:58.996Z</time></trkpt><trkpt lat="40.216928313508866" lon="18.100360049575634"><ele>43.0</ele><time>2026-04-04T16:14:59.996Z</time></trkpt><trkpt lat="40.21672417389598" lon="18.100264076181993"><ele>43.0</ele><time>2026-04-04T16:15:00.996Z</time></trkpt><trkpt lat="40.21651954201686" lon="18.10016743905931"><ele>43.333333333333336</ele><time>2026-04-04T16:15:01.996Z</time></trkpt><trkpt lat="40.216315935024014" lon="18.10007020331689"><ele>43.666666666666664</ele><time>2026-04-04T16:15:02.996Z</time></trkpt><trkpt lat="40.216111609288824" lon="18.099976956195334"><ele>44.0</ele><time>2026-04-04T16:15:03.996Z</time></trkpt><trkpt lat="40.215906857665935" lon="18.09988881112404"><ele>44.0</ele><time>2026-04-04T16:15:04.996Z</time></trkpt><trkpt lat="40.21569894986826" lon="18.099794851492994"><ele>44.0</ele><time>2026-04-04T16:15:05.996Z</time></trkpt><trkpt lat="40.21548986996641" lon="18.099700602608692"><ele>44.0</ele><time>2026-04-04T16:15:06.996Z</time></trkpt><trkpt lat="40.215284366339255" lon="18.099603262132614"><ele>43.666666666666664</ele><time>2026-04-04T16:15:07.996Z</time></trkpt><trkpt lat="40.21508176748503" lon="18.099512574645612"><ele>43.333333333333336</ele><time>2026-04-04T16:15:08.996Z</time></trkpt><trkpt lat="40.2148752371891" lon="18.099419861570368"><ele>43.0</ele><time>2026-04-04T16:15:09.996Z</time></trkpt><trkpt lat="40.21466914704933" lon="18.09932584602422"><ele>43.0</ele><time>2026-04-04T16:15:10.996Z</time></trkpt><trkpt lat="40.21446280958734" lon="18.09923130507636"><ele>43.0</ele><time>2026-04-04T16:15:11.996Z</time></trkpt><trkpt lat="40.214259257066445" lon="18.099138618182884"><ele>43.0</ele><time>2026-04-04T16:15:12.996Z</time></trkpt><trkpt lat="40.21405330815256" lon="18.099047053894342"><ele>43.333333333333336</ele><time>2026-04-04T16:15:13.996Z</time></trkpt><trkpt lat="40.213847321065245" lon="18.098954089408682"><ele>43.666666666666664</ele><time>2026-04-04T16:15:14.996Z</time></trkpt><trkpt lat="40.21364268521648" lon="18.09886347254142"><ele>44.0</ele><time>2026-04-04T16:15:15.996Z</time></trkpt><trkpt lat="40.21343907703547" lon="18.098770348658064"><ele>44.0</ele><time>2026-04-04T16:15:16.996Z</time></trkpt><trkpt lat="40.2132363133584" lon="18.098680828845033"><ele>44.0</ele><time>2026-04-04T16:15:17.996Z</time></trkpt><trkpt lat="40.21303198419361" lon="18.098593824267812"><ele>44.0</ele><time>2026-04-04T16:15:18.996Z</time></trkpt><trkpt lat="40.21281302400275" lon="18.098506372036354"><ele>45.0</ele><time>2026-04-04T16:15:19.996Z</time></trkpt><trkpt lat="40.21258444872439" lon="18.09841125842347"><ele>46.0</ele><time>2026-04-04T16:15:20.996Z</time></trkpt><trkpt lat="40.21235189853893" lon="18.098306600194114"><ele>46.0</ele><time>2026-04-04T16:15:21.996Z</time></trkpt><trkpt lat="40.21211482988888" lon="18.098199289816275"><ele>46.0</ele><time>2026-04-04T16:15:22.996Z</time></trkpt><trkpt lat="40.21187797876461" lon="18.098094512459372"><ele>46.0</ele><time>2026-04-04T16:15:23.996Z</time></trkpt><trkpt lat="40.21164491461718" lon="18.09798812920202"><ele>46.0</ele><time>2026-04-04T16:15:24.996Z</time></trkpt><trkpt lat="40.211415510410255" lon="18.09787693765855"><ele>45.5</ele><time>2026-04-04T16:15:25.996Z</time></trkpt><trkpt lat="40.21119113251355" lon="18.097766036193097"><ele>45.0</ele><time>2026-04-04T16:15:26.996Z</time></trkpt><trkpt lat="40.210968673087244" lon="18.097666092530538"><ele>45.0</ele><time>2026-04-04T16:15:27.996Z</time></trkpt><trkpt lat="40.2107474578744" lon="18.097567662085094"><ele>45.0</ele><time>2026-04-04T16:15:28.996Z</time></trkpt><trkpt lat="40.21052642479321" lon="18.0974734949437"><ele>47.5</ele><time>2026-04-04T16:15:29.996Z</time></trkpt><trkpt lat="40.21031006117828" lon="18.097374942110584"><ele>50.0</ele><time>2026-04-04T16:15:30.996Z</time></trkpt><trkpt lat="40.21009849187616" lon="18.09727898296795"><ele>50.0</ele><time>2026-04-04T16:15:31.996Z</time></trkpt><trkpt lat="40.20988990712721" lon="18.097184716498255"><ele>50.0</ele><time>2026-04-04T16:15:32.996Z</time></trkpt><trkpt lat="40.20968930275454" lon="18.097095310421953"><ele>50.0</ele><time>2026-04-04T16:15:33.996Z</time></trkpt><trkpt lat="40.209482284274955" lon="18.097001158305098"><ele>51.0</ele><time>2026-04-04T16:15:34.996Z</time></trkpt><trkpt lat="40.20927982103324" lon="18.096910795152624"><ele>52.0</ele><time>2026-04-04T16:15:35.996Z</time></trkpt><trkpt lat="40.20908058293438" lon="18.0968223175889"><ele>53.0</ele><time>2026-04-04T16:15:36.996Z</time></trkpt><trkpt lat="40.20887887824616" lon="18.096731940684744"><ele>53.66666666666667</ele><time>2026-04-04T16:15:37.996Z</time></trkpt><trkpt lat="40.208673163006054" lon="18.096638814100107"><ele>54.33333333333333</ele><time>2026-04-04T16:15:38.996Z</time></trkpt><trkpt lat="40.208465964625354" lon="18.09654574338558"><ele>55.0</ele><time>2026-04-04T16:15:39.996Z</time></trkpt><trkpt lat="40.20825973947346" lon="18.096453597321066"><ele>56.33333333333333</ele><time>2026-04-04T16:15:40.996Z</time></trkpt><trkpt lat="40.208055348012174" lon="18.096361241108816"><ele>57.66666666666667</ele><time>2026-04-04T16:15:41.996Z</time></trkpt><trkpt lat="40.207850048455086" lon="18.09627463836055"><ele>59.0</ele><time>2026-04-04T16:15:42.996Z</time></trkpt><trkpt lat="40.207646204637335" lon="18.09618196706643"><ele>59.0</ele><time>2026-04-04T16:15:43.996Z</time></trkpt><trkpt lat="40.2074432916115" lon="18.09608469621016"><ele>59.0</ele><time>2026-04-04T16:15:44.996Z</time></trkpt><trkpt lat="40.20723370833606" lon="18.095985595880848"><ele>59.0</ele><time>2026-04-04T16:15:45.996Z</time></trkpt><trkpt lat="40.2070250432204" lon="18.095893250521932"><ele>59.0</ele><time>2026-04-04T16:15:46.996Z</time></trkpt><trkpt lat="40.20681877092485" lon="18.095798399337284"><ele>59.0</ele><time>2026-04-04T16:15:47.996Z</time></trkpt><trkpt lat="40.20661015515715" lon="18.095711230706076"><ele>59.0</ele><time>2026-04-04T16:15:48.996Z</time></trkpt><trkpt lat="40.206404198697044" lon="18.09561807612628"><ele>59.0</ele><time>2026-04-04T16:15:49.996Z</time></trkpt><trkpt lat="40.20620219257073" lon="18.095525101644306"><ele>59.0</ele><time>2026-04-04T16:15:50.996Z</time></trkpt><trkpt lat="40.20599483794177" lon="18.095440454014568"><ele>59.0</ele><time>2026-04-04T16:15:51.996Z</time></trkpt><trkpt lat="40.205790094067446" lon="18.09535240307964"><ele>58.66666666666667</ele><time>2026-04-04T16:15:52.996Z</time></trkpt><trkpt lat="40.20558678645332" lon="18.095259439305316"><ele>58.33333333333333</ele><time>2026-04-04T16:15:53.996Z</time></trkpt><trkpt lat="40.20537841371818" lon="18.095166524726746"><ele>58.0</ele><time>2026-04-04T16:15:54.996Z</time></trkpt><trkpt lat="40.20516856548116" lon="18.095075159836078"><ele>58.0</ele><time>2026-04-04T16:15:55.996Z</time></trkpt><trkpt lat="40.20496099995136" lon="18.094984940605872"><ele>58.0</ele><time>2026-04-04T16:15:56.996Z</time></trkpt><trkpt lat="40.20475514010714" lon="18.094893138914404"><ele>58.0</ele><time>2026-04-04T16:15:57.996Z</time></trkpt><trkpt lat="40.204546707118986" lon="18.09480075007113"><ele>58.33333333333333</ele><time>2026-04-04T16:15:58.996Z</time></trkpt><trkpt lat="40.20433961401383" lon="18.09471160929697"><ele>58.66666666666667</ele><time>2026-04-04T16:15:59.996Z</time></trkpt><trkpt lat="40.20413264527232" lon="18.09461739832695"><ele>59.0</ele><time>2026-04-04T16:16:00.996Z</time></trkpt><trkpt lat="40.20392578260808" lon="18.09452059331631"><ele>59.0</ele><time>2026-04-04T16:16:01.996Z</time></trkpt><trkpt lat="40.20371982285109" lon="18.0944249894399"><ele>59.0</ele><time>2026-04-04T16:16:02.996Z</time></trkpt><trkpt lat="40.20351249384832" lon="18.09433516539399"><ele>59.0</ele><time>2026-04-04T16:16:03.996Z</time></trkpt><trkpt lat="40.203301511500634" lon="18.09424051306114"><ele>59.0</ele><time>2026-04-04T16:16:04.996Z</time></trkpt><trkpt lat="40.20308977477226" lon="18.094145364887954"><ele>59.0</ele><time>2026-04-04T16:16:05.996Z</time></trkpt><trkpt lat="40.202876396514355" lon="18.094057465788826"><ele>59.0</ele><time>2026-04-04T16:16:06.997Z</time></trkpt><trkpt lat="40.20266944239329" lon="18.093970823073192"><ele>59.0</ele><time>2026-04-04T16:16:07.996Z</time></trkpt><trkpt lat="40.20246309330926" lon="18.093882136731597"><ele>59.0</ele><time>2026-04-04T16:16:08.996Z</time></trkpt><trkpt lat="40.20225328317419" lon="18.09379391272297"><ele>59.0</ele><time>2026-04-04T16:16:09.997Z</time></trkpt><trkpt lat="40.20205031996711" lon="18.093697938531356"><ele>59.0</ele><time>2026-04-04T16:16:10.996Z</time></trkpt><trkpt lat="40.20184948464738" lon="18.093596852443785"><ele>59.0</ele><time>2026-04-04T16:16:11.996Z</time></trkpt><trkpt lat="40.20164369696174" lon="18.093504054567465"><ele>59.0</ele><time>2026-04-04T16:16:12.997Z</time></trkpt><trkpt lat="40.20144017556049" lon="18.093420061396856"><ele>59.0</ele><time>2026-04-04T16:16:13.996Z</time></trkpt><trkpt lat="40.20123459811526" lon="18.093332490607025"><ele>59.0</ele><time>2026-04-04T16:16:14.996Z</time></trkpt><trkpt lat="40.20102625701474" lon="18.093246217558452"><ele>59.0</ele><time>2026-04-04T16:16:15.997Z</time></trkpt><trkpt lat="40.20081946973697" lon="18.0931436041345"><ele>58.66666666666667</ele><time>2026-04-04T16:16:16.996Z</time></trkpt><trkpt lat="40.20061709471892" lon="18.09305075235582"><ele>58.33333333333333</ele><time>2026-04-04T16:16:17.996Z</time></trkpt><trkpt lat="40.20041030280615" lon="18.092956256704717"><ele>58.0</ele><time>2026-04-04T16:16:18.996Z</time></trkpt><trkpt lat="40.20020547359186" lon="18.09286888068191"><ele>58.0</ele><time>2026-04-04T16:16:19.997Z</time></trkpt><trkpt lat="40.2000020365837" lon="18.09277801982233"><ele>58.0</ele><time>2026-04-04T16:16:20.997Z</time></trkpt><trkpt lat="40.19979637597625" lon="18.09268447204435"><ele>58.0</ele><time>2026-04-04T16:16:21.996Z</time></trkpt><trkpt lat="40.19958741302908" lon="18.092597784329882"><ele>58.33333333333333</ele><time>2026-04-04T16:16:22.996Z</time></trkpt><trkpt lat="40.19938151121283" lon="18.092505459159437"><ele>58.66666666666667</ele><time>2026-04-04T16:16:23.996Z</time></trkpt><trkpt lat="40.199174866989814" lon="18.09240682930274"><ele>59.0</ele><time>2026-04-04T16:16:24.996Z</time></trkpt><trkpt lat="40.19896748973381" lon="18.092321832611514"><ele>58.0</ele><time>2026-04-04T16:16:25.996Z</time></trkpt><trkpt lat="40.19876337861735" lon="18.092227657515284"><ele>57.0</ele><time>2026-04-04T16:16:26.996Z</time></trkpt><trkpt lat="40.19855910246296" lon="18.092137472508412"><ele>56.0</ele><time>2026-04-04T16:16:27.996Z</time></trkpt><trkpt lat="40.19835232572175" lon="18.09204092914379"><ele>55.333333333333336</ele><time>2026-04-04T16:16:28.996Z</time></trkpt><trkpt lat="40.19814371581322" lon="18.09194498661455"><ele>54.66666666666667</ele><time>2026-04-04T16:16:29.996Z</time></trkpt><trkpt lat="40.19793892568585" lon="18.091864050541666"><ele>54.0</ele><time>2026-04-04T16:16:30.996Z</time></trkpt><trkpt lat="40.197725692932" lon="18.09177680175859"><ele>54.0</ele><time>2026-04-04T16:16:31.996Z</time></trkpt><trkpt lat="40.19751839526798" lon="18.09168190698098"><ele>54.0</ele><time>2026-04-04T16:16:32.996Z</time></trkpt><trkpt lat="40.19731443357856" lon="18.09159048124062"><ele>54.0</ele><time>2026-04-04T16:16:33.996Z</time></trkpt><trkpt lat="40.197113360432205" lon="18.09149830500695"><ele>53.66666666666667</ele><time>2026-04-04T16:16:34.996Z</time></trkpt><trkpt lat="40.196904450120684" lon="18.09140396438643"><ele>53.333333333333336</ele><time>2026-04-04T16:16:35.996Z</time></trkpt><trkpt lat="40.196694765439915" lon="18.09130935843975"><ele>53.0</ele><time>2026-04-04T16:16:36.996Z</time></trkpt><trkpt lat="40.19648996818086" lon="18.091222538891305"><ele>53.0</ele><time>2026-04-04T16:16:37.996Z</time></trkpt><trkpt lat="40.19628334377979" lon="18.09112805640633"><ele>53.0</ele><time>2026-04-04T16:16:38.996Z</time></trkpt><trkpt lat="40.19607552349308" lon="18.09103455770692"><ele>53.0</ele><time>2026-04-04T16:16:39.996Z</time></trkpt><trkpt lat="40.195868823995255" lon="18.090939738760046"><ele>52.66666666666667</ele><time>2026-04-04T16:16:40.996Z</time></trkpt><trkpt lat="40.19566312572453" lon="18.090848266373175"><ele>52.33333333333333</ele><time>2026-04-04T16:16:41.996Z</time></trkpt><trkpt lat="40.195456704025545" lon="18.090755617049485"><ele>52.0</ele><time>2026-04-04T16:16:42.996Z</time></trkpt><trkpt lat="40.19525187991169" lon="18.09066771342995"><ele>51.666666666666664</ele><time>2026-04-04T16:16:43.996Z</time></trkpt><trkpt lat="40.19504503331711" lon="18.090570452235887"><ele>51.33333333333333</ele><time>2026-04-04T16:16:44.996Z</time></trkpt><trkpt lat="40.194836890251814" lon="18.09047730553735"><ele>51.0</ele><time>2026-04-04T16:16:45.996Z</time></trkpt><trkpt lat="40.194631995149535" lon="18.090385953699094"><ele>51.0</ele><time>2026-04-04T16:16:46.996Z</time></trkpt><trkpt lat="40.19444011869708" lon="18.09030109773923"><ele>51.0</ele><time>2026-04-04T16:16:47.996Z</time></trkpt><trkpt lat="40.1942639017615" lon="18.090207080690618"><ele>51.0</ele><time>2026-04-04T16:16:48.996Z</time></trkpt><trkpt lat="40.19406934710787" lon="18.090127743495284"><ele>51.33333333333333</ele><time>2026-04-04T16:16:49.996Z</time></trkpt><trkpt lat="40.19386172128167" lon="18.090034132171652"><ele>51.666666666666664</ele><time>2026-04-04T16:16:50.996Z</time></trkpt><trkpt lat="40.193657877403965" lon="18.089950643430885"><ele>52.0</ele><time>2026-04-04T16:16:51.996Z</time></trkpt><trkpt lat="40.19346577809942" lon="18.08986832698476"><ele>52.0</ele><time>2026-04-04T16:16:52.996Z</time></trkpt><trkpt lat="40.19326800246998" lon="18.089774362286633"><ele>52.0</ele><time>2026-04-04T16:16:53.996Z</time></trkpt><trkpt lat="40.19307069759489" lon="18.089690709616946"><ele>52.0</ele><time>2026-04-04T16:16:54.996Z</time></trkpt><trkpt lat="40.1928775682488" lon="18.089606184145183"><ele>51.33333333333333</ele><time>2026-04-04T16:16:55.996Z</time></trkpt><trkpt lat="40.19268553468062" lon="18.089520326475984"><ele>50.66666666666667</ele><time>2026-04-04T16:16:56.996Z</time></trkpt><trkpt lat="40.19249233496416" lon="18.089432757315706"><ele>50.0</ele><time>2026-04-04T16:16:57.996Z</time></trkpt><trkpt lat="40.19229626593706" lon="18.089342181948517"><ele>50.0</ele><time>2026-04-04T16:16:58.996Z</time></trkpt><trkpt lat="40.1921005468159" lon="18.089259777958333"><ele>50.0</ele><time>2026-04-04T16:16:59.996Z</time></trkpt><trkpt lat="40.191903479416034" lon="18.08916886530515"><ele>50.0</ele><time>2026-04-04T16:17:00.996Z</time></trkpt><trkpt lat="40.19171050678138" lon="18.08907942474343"><ele>50.0</ele><time>2026-04-04T16:17:01.996Z</time></trkpt><trkpt lat="40.19151509729234" lon="18.088990125149287"><ele>50.0</ele><time>2026-04-04T16:17:02.996Z</time></trkpt><trkpt lat="40.19132181053694" lon="18.08890909768258"><ele>50.0</ele><time>2026-04-04T16:17:03.996Z</time></trkpt><trkpt lat="40.19113144600707" lon="18.08882037571713"><ele>49.66666666666667</ele><time>2026-04-04T16:17:04.996Z</time></trkpt><trkpt lat="40.19093308987228" lon="18.088735203736373"><ele>49.33333333333333</ele><time>2026-04-04T16:17:05.996Z</time></trkpt><trkpt lat="40.19073716898807" lon="18.088642203583042"><ele>49.0</ele><time>2026-04-04T16:17:06.996Z</time></trkpt><trkpt lat="40.190544141972595" lon="18.088553787452593"><ele>49.0</ele><time>2026-04-04T16:17:07.996Z</time></trkpt><trkpt lat="40.190349799996945" lon="18.088471342262572"><ele>49.0</ele><time>2026-04-04T16:17:08.996Z</time></trkpt><trkpt lat="40.19015649947533" lon="18.088385243844993"><ele>49.0</ele><time>2026-04-04T16:17:09.996Z</time></trkpt><trkpt lat="40.18996427431956" lon="18.0883013239091"><ele>48.666666666666664</ele><time>2026-04-04T16:17:10.996Z</time></trkpt><trkpt lat="40.18977720202102" lon="18.088218950699872"><ele>48.33333333333333</ele><time>2026-04-04T16:17:11.996Z</time></trkpt><trkpt lat="40.18958099252344" lon="18.088132763219615"><ele>48.0</ele><time>2026-04-04T16:17:12.996Z</time></trkpt><trkpt lat="40.18938708457495" lon="18.08804209374947"><ele>48.0</ele><time>2026-04-04T16:17:13.996Z</time></trkpt><trkpt lat="40.18919742056657" lon="18.08795679702991"><ele>48.0</ele><time>2026-04-04T16:17:14.996Z</time></trkpt><trkpt lat="40.18900605698163" lon="18.087869170583545"><ele>48.0</ele><time>2026-04-04T16:17:15.996Z</time></trkpt><trkpt lat="40.18881167566623" lon="18.087786090327345"><ele>48.33333333333333</ele><time>2026-04-04T16:17:16.996Z</time></trkpt><trkpt lat="40.18861517816439" lon="18.087704052218488"><ele>48.666666666666664</ele><time>2026-04-04T16:17:17.996Z</time></trkpt><trkpt lat="40.18842177992081" lon="18.087617851121273"><ele>49.0</ele><time>2026-04-04T16:17:18.996Z</time></trkpt><trkpt lat="40.18822444207664" lon="18.087544163794647"><ele>49.0</ele><time>2026-04-04T16:17:19.996Z</time></trkpt><trkpt lat="40.188024665125056" lon="18.087461261144384"><ele>49.0</ele><time>2026-04-04T16:17:20.996Z</time></trkpt><trkpt lat="40.18782449840079" lon="18.087378140161256"><ele>49.0</ele><time>2026-04-04T16:17:21.996Z</time></trkpt><trkpt lat="40.187628012338884" lon="18.08728764702916"><ele>48.666666666666664</ele><time>2026-04-04T16:17:22.996Z</time></trkpt><trkpt lat="40.1874322209319" lon="18.08719337397529"><ele>48.33333333333333</ele><time>2026-04-04T16:17:23.996Z</time></trkpt><trkpt lat="40.18723259959312" lon="18.087105540154944"><ele>48.0</ele><time>2026-04-04T16:17:24.996Z</time></trkpt><trkpt lat="40.18703003784761" lon="18.087017226786244"><ele>48.0</ele><time>2026-04-04T16:17:25.996Z</time></trkpt><trkpt lat="40.186833897528295" lon="18.086935956268224"><ele>48.0</ele><time>2026-04-04T16:17:26.996Z</time></trkpt><trkpt lat="40.1866382033893" lon="18.08685128315382"><ele>48.0</ele><time>2026-04-04T16:17:27.996Z</time></trkpt><trkpt lat="40.18644534527979" lon="18.086762309171768"><ele>48.33333333333333</ele><time>2026-04-04T16:17:28.996Z</time></trkpt><trkpt lat="40.18625419496107" lon="18.086676230475327"><ele>48.666666666666664</ele><time>2026-04-04T16:17:29.996Z</time></trkpt><trkpt lat="40.186064686017005" lon="18.086599488889046"><ele>49.0</ele><time>2026-04-04T16:17:30.996Z</time></trkpt><trkpt lat="40.185874851844005" lon="18.086514664318923"><ele>49.0</ele><time>2026-04-04T16:17:31.996Z</time></trkpt><trkpt lat="40.18568259697697" lon="18.086434493764354"><ele>49.0</ele><time>2026-04-04T16:17:32.996Z</time></trkpt><trkpt lat="40.18549625167435" lon="18.086354870174464"><ele>49.0</ele><time>2026-04-04T16:17:33.996Z</time></trkpt><trkpt lat="40.18530671073706" lon="18.08627507850501"><ele>48.666666666666664</ele><time>2026-04-04T16:17:34.996Z</time></trkpt><trkpt lat="40.18511342324535" lon="18.08619061139546"><ele>48.33333333333333</ele><time>2026-04-04T16:17:35.996Z</time></trkpt><trkpt lat="40.184915792662395" lon="18.08609793875719"><ele>48.0</ele><time>2026-04-04T16:17:36.996Z</time></trkpt><trkpt lat="40.18471793639672" lon="18.086012296907764"><ele>48.0</ele><time>2026-04-04T16:17:37.996Z</time></trkpt><trkpt lat="40.1845283381856" lon="18.08592825166449"><ele>48.0</ele><time>2026-04-04T16:17:38.996Z</time></trkpt><trkpt lat="40.18433826432681" lon="18.08584196825006"><ele>48.0</ele><time>2026-04-04T16:17:39.996Z</time></trkpt><trkpt lat="40.18414485314347" lon="18.08575630791469"><ele>47.666666666666664</ele><time>2026-04-04T16:17:40.996Z</time></trkpt><trkpt lat="40.18394916267046" lon="18.08566728588507"><ele>47.33333333333333</ele><time>2026-04-04T16:17:41.996Z</time></trkpt><trkpt lat="40.183756182466624" lon="18.085576314737132"><ele>47.0</ele><time>2026-04-04T16:17:42.996Z</time></trkpt><trkpt lat="40.18355934444578" lon="18.085485777268392"><ele>47.0</ele><time>2026-04-04T16:17:43.996Z</time></trkpt><trkpt lat="40.1833630014445" lon="18.085394264550136"><ele>47.0</ele><time>2026-04-04T16:17:44.996Z</time></trkpt><trkpt lat="40.183165297975286" lon="18.08530930704577"><ele>47.0</ele><time>2026-04-04T16:17:45.996Z</time></trkpt><trkpt lat="40.1829659582465" lon="18.085219139142204"><ele>47.33333333333333</ele><time>2026-04-04T16:17:46.996Z</time></trkpt><trkpt lat="40.182762100558136" lon="18.085128095052124"><ele>47.666666666666664</ele><time>2026-04-04T16:17:47.996Z</time></trkpt><trkpt lat="40.18255591578618" lon="18.085037407665723"><ele>48.0</ele><time>2026-04-04T16:17:48.996Z</time></trkpt><trkpt lat="40.18235012358346" lon="18.084947370730962"><ele>47.333333333333336</ele><time>2026-04-04T16:17:49.996Z</time></trkpt><trkpt lat="40.182146840978916" lon="18.084864812327865"><ele>46.66666666666667</ele><time>2026-04-04T16:17:50.996Z</time></trkpt><trkpt lat="40.181941067016965" lon="18.08476858208971"><ele>46.0</ele><time>2026-04-04T16:17:51.996Z</time></trkpt><trkpt lat="40.181736144534284" lon="18.08467458215229"><ele>46.0</ele><time>2026-04-04T16:17:52.996Z</time></trkpt><trkpt lat="40.18152651546122" lon="18.084583961925343"><ele>46.0</ele><time>2026-04-04T16:17:53.996Z</time></trkpt><trkpt lat="40.181319421305886" lon="18.08449434564864"><ele>46.0</ele><time>2026-04-04T16:17:54.996Z</time></trkpt><trkpt lat="40.18111171771871" lon="18.084407204707052"><ele>45.66666666666667</ele><time>2026-04-04T16:17:55.996Z</time></trkpt><trkpt lat="40.18090276613378" lon="18.084316174782753"><ele>45.333333333333336</ele><time>2026-04-04T16:17:56.996Z</time></trkpt><trkpt lat="40.18069397665676" lon="18.08422945390309"><ele>45.0</ele><time>2026-04-04T16:17:57.996Z</time></trkpt><trkpt lat="40.18048632448056" lon="18.08413633578433"><ele>44.0</ele><time>2026-04-04T16:17:58.996Z</time></trkpt><trkpt lat="40.18027917934058" lon="18.084043223177137"><ele>43.0</ele><time>2026-04-04T16:17:59.996Z</time></trkpt><trkpt lat="40.18006862865493" lon="18.083946096331285"><ele>42.0</ele><time>2026-04-04T16:18:00.996Z</time></trkpt><trkpt lat="40.179857578985796" lon="18.08385084300209"><ele>42.0</ele><time>2026-04-04T16:18:01.996Z</time></trkpt><trkpt lat="40.17964777248597" lon="18.083750395843175"><ele>42.0</ele><time>2026-04-04T16:18:02.996Z</time></trkpt><trkpt lat="40.17944179811762" lon="18.083653490393875"><ele>42.0</ele><time>2026-04-04T16:18:03.996Z</time></trkpt><trkpt lat="40.179233445536674" lon="18.08354763976416"><ele>42.0</ele><time>2026-04-04T16:18:04.996Z</time></trkpt><trkpt lat="40.17902910276395" lon="18.08343645919471"><ele>42.0</ele><time>2026-04-04T16:18:05.996Z</time></trkpt><trkpt lat="40.17882567630297" lon="18.08332161375864"><ele>42.0</ele><time>2026-04-04T16:18:06.996Z</time></trkpt><trkpt lat="40.17863221719047" lon="18.08319694734453"><ele>42.0</ele><time>2026-04-04T16:18:07.996Z</time></trkpt><trkpt lat="40.17843941268557" lon="18.08307295181617"><ele>42.0</ele><time>2026-04-04T16:18:08.996Z</time></trkpt><trkpt lat="40.17825477355294" lon="18.082951418291973"><ele>42.0</ele><time>2026-04-04T16:18:09.996Z</time></trkpt><trkpt lat="40.178078999764885" lon="18.0828319896753"><ele>42.333333333333336</ele><time>2026-04-04T16:18:10.996Z</time></trkpt><trkpt lat="40.17790855083623" lon="18.082704629593536"><ele>42.66666666666667</ele><time>2026-04-04T16:18:11.996Z</time></trkpt><trkpt lat="40.17773458938834" lon="18.082570441558037"><ele>43.0</ele><time>2026-04-04T16:18:12.996Z</time></trkpt><trkpt lat="40.17756384291138" lon="18.082430352353544"><ele>43.333333333333336</ele><time>2026-04-04T16:18:13.996Z</time></trkpt><trkpt lat="40.17738837838248" lon="18.082277329491017"><ele>43.666666666666664</ele><time>2026-04-04T16:18:14.996Z</time></trkpt><trkpt lat="40.17722267695516" lon="18.082134339756045"><ele>44.0</ele><time>2026-04-04T16:18:15.997Z</time></trkpt><trkpt lat="40.17704993432656" lon="18.08197345179823"><ele>44.0</ele><time>2026-04-04T16:18:16.996Z</time></trkpt><trkpt lat="40.176875508961324" lon="18.081792767463448"><ele>44.0</ele><time>2026-04-04T16:18:17.996Z</time></trkpt><trkpt lat="40.17670866179363" lon="18.081623208587633"><ele>44.0</ele><time>2026-04-04T16:18:18.997Z</time></trkpt><trkpt lat="40.17654266897424" lon="18.0814491156069"><ele>43.666666666666664</ele><time>2026-04-04T16:18:19.996Z</time></trkpt><trkpt lat="40.176378850684884" lon="18.081271981527998"><ele>43.333333333333336</ele><time>2026-04-04T16:18:20.996Z</time></trkpt><trkpt lat="40.176222342719896" lon="18.081089059137515"><ele>43.0</ele><time>2026-04-04T16:18:21.997Z</time></trkpt><trkpt lat="40.17606690173163" lon="18.08089541111849"><ele>42.66666666666667</ele><time>2026-04-04T16:18:22.997Z</time></trkpt><trkpt lat="40.17591229460611" lon="18.080700618084954"><ele>42.333333333333336</ele><time>2026-04-04T16:18:23.997Z</time></trkpt><trkpt lat="40.17575996205495" lon="18.080500155421515"><ele>42.0</ele><time>2026-04-04T16:18:24.997Z</time></trkpt><trkpt lat="40.17560331919327" lon="18.08029027803618"><ele>42.0</ele><time>2026-04-04T16:18:25.996Z</time></trkpt><trkpt lat="40.17546228133757" lon="18.080085166986432"><ele>42.0</ele><time>2026-04-04T16:18:26.996Z</time></trkpt><trkpt lat="40.17532790677304" lon="18.079881293395815"><ele>42.0</ele><time>2026-04-04T16:18:27.996Z</time></trkpt><trkpt lat="40.17519522496702" lon="18.07967097956009"><ele>41.666666666666664</ele><time>2026-04-04T16:18:28.996Z</time></trkpt><trkpt lat="40.17506657117126" lon="18.079465956609308"><ele>41.33333333333333</ele><time>2026-04-04T16:18:29.996Z</time></trkpt><trkpt lat="40.1749419871176" lon="18.079262944467168"><ele>41.0</ele><time>2026-04-04T16:18:30.996Z</time></trkpt><trkpt lat="40.17481892216762" lon="18.07906422360038"><ele>41.666666666666664</ele><time>2026-04-04T16:18:31.996Z</time></trkpt><trkpt lat="40.174696221195205" lon="18.078859600502543"><ele>42.333333333333336</ele><time>2026-04-04T16:18:32.996Z</time></trkpt><trkpt lat="40.17456677726387" lon="18.078654557615184"><ele>43.0</ele><time>2026-04-04T16:18:33.996Z</time></trkpt><trkpt lat="40.17444142457363" lon="18.07844697650765"><ele>43.66666666666667</ele><time>2026-04-04T16:18:34.996Z</time></trkpt><trkpt lat="40.174314995369386" lon="18.07823948610174"><ele>44.333333333333336</ele><time>2026-04-04T16:18:35.996Z</time></trkpt><trkpt lat="40.17418875920835" lon="18.078030923869402"><ele>45.0</ele><time>2026-04-04T16:18:36.996Z</time></trkpt><trkpt lat="40.17406479787328" lon="18.077827965876224"><ele>44.666666666666664</ele><time>2026-04-04T16:18:37.996Z</time></trkpt><trkpt lat="40.17393728877292" lon="18.07762772426297"><ele>44.33333333333333</ele><time>2026-04-04T16:18:38.996Z</time></trkpt><trkpt lat="40.173813920648335" lon="18.077423591037483"><ele>44.0</ele><time>2026-04-04T16:18:39.996Z</time></trkpt><trkpt lat="40.17368487381904" lon="18.077214472296493"><ele>43.666666666666664</ele><time>2026-04-04T16:18:40.996Z</time></trkpt><trkpt lat="40.17355698180752" lon="18.077007720707545"><ele>43.333333333333336</ele><time>2026-04-04T16:18:41.996Z</time></trkpt><trkpt lat="40.17342701502954" lon="18.076801823286555"><ele>43.0</ele><time>2026-04-04T16:18:42.996Z</time></trkpt><trkpt lat="40.173297231432215" lon="18.07659387119165"><ele>43.333333333333336</ele><time>2026-04-04T16:18:43.996Z</time></trkpt><trkpt lat="40.17316411012814" lon="18.076385797089184"><ele>43.666666666666664</ele><time>2026-04-04T16:18:44.996Z</time></trkpt><trkpt lat="40.1730311820706" lon="18.07618086211084"><ele>44.0</ele><time>2026-04-04T16:18:45.996Z</time></trkpt><trkpt lat="40.17289914999842" lon="18.075972257273655"><ele>44.0</ele><time>2026-04-04T16:18:46.996Z</time></trkpt><trkpt lat="40.172770009890016" lon="18.0757611539558"><ele>44.0</ele><time>2026-04-04T16:18:47.996Z</time></trkpt><trkpt lat="40.17264349256124" lon="18.075553684636883"><ele>44.0</ele><time>2026-04-04T16:18:48.996Z</time></trkpt><trkpt lat="40.17251134412149" lon="18.07534751502348"><ele>44.0</ele><time>2026-04-04T16:18:49.996Z</time></trkpt><trkpt lat="40.172383504906605" lon="18.07514181627026"><ele>44.0</ele><time>2026-04-04T16:18:50.996Z</time></trkpt><trkpt lat="40.17225618241448" lon="18.07493527574751"><ele>44.0</ele><time>2026-04-04T16:18:51.996Z</time></trkpt><trkpt lat="40.172123225943835" lon="18.074735837409488"><ele>43.33333333333333</ele><time>2026-04-04T16:18:52.996Z</time></trkpt><trkpt lat="40.171990155562106" lon="18.07452846740955"><ele>42.666666666666664</ele><time>2026-04-04T16:18:53.996Z</time></trkpt><trkpt lat="40.17186073894878" lon="18.074322448494517"><ele>42.0</ele><time>2026-04-04T16:18:54.996Z</time></trkpt><trkpt lat="40.17173881117198" lon="18.074118872684192"><ele>42.333333333333336</ele><time>2026-04-04T16:18:55.996Z</time></trkpt><trkpt lat="40.17161432393513" lon="18.07390962885641"><ele>42.66666666666667</ele><time>2026-04-04T16:18:56.996Z</time></trkpt><trkpt lat="40.17148502171743" lon="18.073703920532978"><ele>43.0</ele><time>2026-04-04T16:18:57.996Z</time></trkpt><trkpt lat="40.171354839595146" lon="18.073496466675035"><ele>43.333333333333336</ele><time>2026-04-04T16:18:58.996Z</time></trkpt><trkpt lat="40.17122550102202" lon="18.07328948657238"><ele>43.666666666666664</ele><time>2026-04-04T16:18:59.996Z</time></trkpt><trkpt lat="40.17109531897687" lon="18.073086121451606"><ele>44.0</ele><time>2026-04-04T16:19:00.996Z</time></trkpt><trkpt lat="40.170963805178566" lon="18.07288099888624"><ele>44.0</ele><time>2026-04-04T16:19:01.996Z</time></trkpt><trkpt lat="40.17083377391777" lon="18.07267551280639"><ele>44.0</ele><time>2026-04-04T16:19:02.996Z</time></trkpt><trkpt lat="40.170705860345485" lon="18.07246844886054"><ele>44.0</ele><time>2026-04-04T16:19:03.996Z</time></trkpt><trkpt lat="40.1705763639934" lon="18.072260844598294"><ele>44.33333333333333</ele><time>2026-04-04T16:19:04.996Z</time></trkpt><trkpt lat="40.1704467200001" lon="18.072053460767798"><ele>44.666666666666664</ele><time>2026-04-04T16:19:05.996Z</time></trkpt><trkpt lat="40.170318851866284" lon="18.071849199534707"><ele>45.0</ele><time>2026-04-04T16:19:06.996Z</time></trkpt><trkpt lat="40.1701879514879" lon="18.071644359957787"><ele>45.0</ele><time>2026-04-04T16:19:07.996Z</time></trkpt><trkpt lat="40.17005931803804" lon="18.07143695999568"><ele>45.0</ele><time>2026-04-04T16:19:08.996Z</time></trkpt><trkpt lat="40.169929394242" lon="18.071227574623265"><ele>45.0</ele><time>2026-04-04T16:19:09.996Z</time></trkpt><trkpt lat="40.16978983657445" lon="18.07100883586964"><ele>45.0</ele><time>2026-04-04T16:19:10.996Z</time></trkpt><trkpt lat="40.16964689941708" lon="18.070788080018808"><ele>45.0</ele><time>2026-04-04T16:19:11.996Z</time></trkpt><trkpt lat="40.16951504183639" lon="18.070574832174533"><ele>45.0</ele><time>2026-04-04T16:19:12.996Z</time></trkpt><trkpt lat="40.16938794368709" lon="18.070362168012515"><ele>44.666666666666664</ele><time>2026-04-04T16:19:13.996Z</time></trkpt><trkpt lat="40.16925853267669" lon="18.070153198780012"><ele>44.33333333333333</ele><time>2026-04-04T16:19:14.996Z</time></trkpt><trkpt lat="40.16912472483716" lon="18.069939669739547"><ele>44.0</ele><time>2026-04-04T16:19:15.996Z</time></trkpt><trkpt lat="40.168987786060235" lon="18.069724758232187"><ele>44.0</ele><time>2026-04-04T16:19:16.996Z</time></trkpt><trkpt lat="40.168847762392865" lon="18.06951122072921"><ele>44.0</ele><time>2026-04-04T16:19:17.996Z</time></trkpt><trkpt lat="40.168714504784774" lon="18.069297175969176"><ele>44.0</ele><time>2026-04-04T16:19:18.996Z</time></trkpt><trkpt lat="40.16857746075513" lon="18.069082294348433"><ele>44.0</ele><time>2026-04-04T16:19:19.996Z</time></trkpt><trkpt lat="40.168443536930184" lon="18.068866799010717"><ele>44.0</ele><time>2026-04-04T16:19:20.996Z</time></trkpt><trkpt lat="40.168311622858724" lon="18.068653138878734"><ele>44.0</ele><time>2026-04-04T16:19:21.996Z</time></trkpt><trkpt lat="40.168178054097254" lon="18.068440816947472"><ele>44.33333333333333</ele><time>2026-04-04T16:19:22.996Z</time></trkpt><trkpt lat="40.16804230119938" lon="18.06822715964747"><ele>44.666666666666664</ele><time>2026-04-04T16:19:23.996Z</time></trkpt><trkpt lat="40.16790862924693" lon="18.068014178600983"><ele>45.0</ele><time>2026-04-04T16:19:24.996Z</time></trkpt><trkpt lat="40.16777573716092" lon="18.067801507080254"><ele>45.0</ele><time>2026-04-04T16:19:25.996Z</time></trkpt><trkpt lat="40.16764078182456" lon="18.06759065854045"><ele>45.0</ele><time>2026-04-04T16:19:26.996Z</time></trkpt><trkpt lat="40.16750549069301" lon="18.0673814034521"><ele>45.0</ele><time>2026-04-04T16:19:27.996Z</time></trkpt><trkpt lat="40.16737140348784" lon="18.06717011741021"><ele>45.333333333333336</ele><time>2026-04-04T16:19:28.996Z</time></trkpt><trkpt lat="40.16723946027691" lon="18.066958731546276"><ele>45.66666666666667</ele><time>2026-04-04T16:19:29.996Z</time></trkpt><trkpt lat="40.167105946916514" lon="18.066746277533575"><ele>46.0</ele><time>2026-04-04T16:19:30.996Z</time></trkpt><trkpt lat="40.166972156763926" lon="18.06652939071134"><ele>46.0</ele><time>2026-04-04T16:19:31.996Z</time></trkpt><trkpt lat="40.16684080740144" lon="18.066316641970193"><ele>46.0</ele><time>2026-04-04T16:19:32.996Z</time></trkpt><trkpt lat="40.1667091920425" lon="18.06610493190411"><ele>46.0</ele><time>2026-04-04T16:19:33.996Z</time></trkpt><trkpt lat="40.166574565538816" lon="18.065893503812124"><ele>46.333333333333336</ele><time>2026-04-04T16:19:34.996Z</time></trkpt><trkpt lat="40.166442902590695" lon="18.065679215554912"><ele>46.666666666666664</ele><time>2026-04-04T16:19:35.996Z</time></trkpt><trkpt lat="40.166308849375746" lon="18.06546458264953"><ele>47.0</ele><time>2026-04-04T16:19:36.996Z</time></trkpt><trkpt lat="40.166172089907626" lon="18.065254408827197"><ele>47.0</ele><time>2026-04-04T16:19:37.996Z</time></trkpt><trkpt lat="40.16603827074059" lon="18.06504158319213"><ele>47.0</ele><time>2026-04-04T16:19:38.996Z</time></trkpt><trkpt lat="40.16590458822181" lon="18.064829299205286"><ele>47.0</ele><time>2026-04-04T16:19:39.996Z</time></trkpt><trkpt lat="40.16577042343938" lon="18.064616945781466"><ele>46.666666666666664</ele><time>2026-04-04T16:19:40.996Z</time></trkpt><trkpt lat="40.165635877796404" lon="18.064404553572185"><ele>46.333333333333336</ele><time>2026-04-04T16:19:41.996Z</time></trkpt><trkpt lat="40.16550234278768" lon="18.064194306106923"><ele>46.0</ele><time>2026-04-04T16:19:42.996Z</time></trkpt><trkpt lat="40.16536922424379" lon="18.063980169858247"><ele>46.0</ele><time>2026-04-04T16:19:43.996Z</time></trkpt><trkpt lat="40.16523189749147" lon="18.063769273245043"><ele>46.0</ele><time>2026-04-04T16:19:44.996Z</time></trkpt><trkpt lat="40.16509879908575" lon="18.063557854992652"><ele>46.0</ele><time>2026-04-04T16:19:45.996Z</time></trkpt><trkpt lat="40.16496548825446" lon="18.063344171899697"><ele>46.333333333333336</ele><time>2026-04-04T16:19:46.996Z</time></trkpt><trkpt lat="40.16483123307148" lon="18.063130548816602"><ele>46.666666666666664</ele><time>2026-04-04T16:19:47.996Z</time></trkpt><trkpt lat="40.16470198426024" lon="18.062923372152166"><ele>47.0</ele><time>2026-04-04T16:19:48.996Z</time></trkpt><trkpt lat="40.16458096679556" lon="18.0627190819986"><ele>47.0</ele><time>2026-04-04T16:19:49.996Z</time></trkpt><trkpt lat="40.16445091659973" lon="18.062511099377012"><ele>47.0</ele><time>2026-04-04T16:19:50.996Z</time></trkpt><trkpt lat="40.16431454457258" lon="18.06229715092013"><ele>47.0</ele><time>2026-04-04T16:19:51.996Z</time></trkpt><trkpt lat="40.164179773185424" lon="18.062085708574827"><ele>47.0</ele><time>2026-04-04T16:19:52.996Z</time></trkpt><trkpt lat="40.164045310856075" lon="18.061877738389764"><ele>47.0</ele><time>2026-04-04T16:19:53.996Z</time></trkpt><trkpt lat="40.16391015726948" lon="18.06166897436693"><ele>47.0</ele><time>2026-04-04T16:19:54.996Z</time></trkpt><trkpt lat="40.16378205336641" lon="18.06146358042805"><ele>47.666666666666664</ele><time>2026-04-04T16:19:55.996Z</time></trkpt><trkpt lat="40.16365570481717" lon="18.061257178401014"><ele>48.33333333333333</ele><time>2026-04-04T16:19:56.996Z</time></trkpt><trkpt lat="40.16352607462983" lon="18.061050404804526"><ele>49.0</ele><time>2026-04-04T16:19:57.996Z</time></trkpt><trkpt lat="40.16339604559313" lon="18.060838387500983"><ele>48.666666666666664</ele><time>2026-04-04T16:19:58.996Z</time></trkpt><trkpt lat="40.16326560307788" lon="18.06063115410284"><ele>48.33333333333333</ele><time>2026-04-04T16:19:59.996Z</time></trkpt><trkpt lat="40.16313555442039" lon="18.060419813914592"><ele>48.0</ele><time>2026-04-04T16:20:00.996Z</time></trkpt><trkpt lat="40.16300324816095" lon="18.060210978303925"><ele>48.0</ele><time>2026-04-04T16:20:01.996Z</time></trkpt><trkpt lat="40.162872503453286" lon="18.060003897883146"><ele>48.0</ele><time>2026-04-04T16:20:02.996Z</time></trkpt><trkpt lat="40.16273959953293" lon="18.05979683412847"><ele>48.0</ele><time>2026-04-04T16:20:03.996Z</time></trkpt><trkpt lat="40.162607297434626" lon="18.059593085060413"><ele>48.0</ele><time>2026-04-04T16:20:04.996Z</time></trkpt><trkpt lat="40.16247971472455" lon="18.05938507288552"><ele>48.0</ele><time>2026-04-04T16:20:05.995Z</time></trkpt><trkpt lat="40.162350316898134" lon="18.059172651349776"><ele>48.0</ele><time>2026-04-04T16:20:06.995Z</time></trkpt><trkpt lat="40.162218859905046" lon="18.058961895497863"><ele>47.333333333333336</ele><time>2026-04-04T16:20:07.995Z</time></trkpt><trkpt lat="40.162089278307214" lon="18.058753050917208"><ele>46.66666666666667</ele><time>2026-04-04T16:20:08.995Z</time></trkpt><trkpt lat="40.16195746250901" lon="18.058545063569138"><ele>46.0</ele><time>2026-04-04T16:20:09.995Z</time></trkpt><trkpt lat="40.16182430816477" lon="18.0583389320864"><ele>46.0</ele><time>2026-04-04T16:20:10.995Z</time></trkpt><trkpt lat="40.16169153101855" lon="18.05813368375969"><ele>46.0</ele><time>2026-04-04T16:20:11.995Z</time></trkpt><trkpt lat="40.16156166879651" lon="18.057922847553105"><ele>46.0</ele><time>2026-04-04T16:20:12.995Z</time></trkpt><trkpt lat="40.16143308235378" lon="18.057708583890523"><ele>46.0</ele><time>2026-04-04T16:20:13.995Z</time></trkpt><trkpt lat="40.16130337715196" lon="18.05750235476659"><ele>46.0</ele><time>2026-04-04T16:20:14.995Z</time></trkpt><trkpt lat="40.16117298899727" lon="18.057296863698166"><ele>46.0</ele><time>2026-04-04T16:20:15.995Z</time></trkpt><trkpt lat="40.16104182557221" lon="18.05708883285572"><ele>46.0</ele><time>2026-04-04T16:20:16.995Z</time></trkpt><trkpt lat="40.1609110879901" lon="18.056879609205332"><ele>46.0</ele><time>2026-04-04T16:20:17.995Z</time></trkpt><trkpt lat="40.16078074303512" lon="18.0566674710214"><ele>46.0</ele><time>2026-04-04T16:20:18.997Z</time></trkpt><trkpt lat="40.160650560876824" lon="18.056457301581474"><ele>46.333333333333336</ele><time>2026-04-04T16:20:19.997Z</time></trkpt><trkpt lat="40.16052130977828" lon="18.056246232513455"><ele>46.666666666666664</ele><time>2026-04-04T16:20:20.997Z</time></trkpt><trkpt lat="40.160391574791205" lon="18.056037516593516"><ele>47.0</ele><time>2026-04-04T16:20:21.996Z</time></trkpt><trkpt lat="40.16025719074932" lon="18.055831339801188"><ele>46.33333333333333</ele><time>2026-04-04T16:20:22.996Z</time></trkpt><trkpt lat="40.16012464332812" lon="18.055623703021443"><ele>45.666666666666664</ele><time>2026-04-04T16:20:23.996Z</time></trkpt><trkpt lat="40.15999493382612" lon="18.055414290210024"><ele>45.0</ele><time>2026-04-04T16:20:24.997Z</time></trkpt><trkpt lat="40.15986221915061" lon="18.055207076893655"><ele>45.666666666666664</ele><time>2026-04-04T16:20:25.996Z</time></trkpt><trkpt lat="40.15973531158504" lon="18.054999465660295"><ele>46.33333333333333</ele><time>2026-04-04T16:20:26.996Z</time></trkpt><trkpt lat="40.15960311273773" lon="18.054791939296095"><ele>47.0</ele><time>2026-04-04T16:20:27.997Z</time></trkpt><trkpt lat="40.159471171292466" lon="18.054584022478767"><ele>47.0</ele><time>2026-04-04T16:20:28.996Z</time></trkpt><trkpt lat="40.159338735627195" lon="18.054378406971978"><ele>47.0</ele><time>2026-04-04T16:20:29.996Z</time></trkpt><trkpt lat="40.15920101458748" lon="18.054179626734037"><ele>47.0</ele><time>2026-04-04T16:20:30.996Z</time></trkpt><trkpt lat="40.159059675454785" lon="18.053984831271258"><ele>47.33333333333333</ele><time>2026-04-04T16:20:31.997Z</time></trkpt><trkpt lat="40.15891612470538" lon="18.053791232354246"><ele>47.666666666666664</ele><time>2026-04-04T16:20:32.997Z</time></trkpt><trkpt lat="40.15876631369521" lon="18.053605875106932"><ele>48.0</ele><time>2026-04-04T16:20:33.997Z</time></trkpt><trkpt lat="40.158605922168825" lon="18.053429111436163"><ele>47.333333333333336</ele><time>2026-04-04T16:20:34.997Z</time></trkpt><trkpt lat="40.15844750924174" lon="18.0532594252842"><ele>46.66666666666667</ele><time>2026-04-04T16:20:35.997Z</time></trkpt><trkpt lat="40.15828386454149" lon="18.05309356413632"><ele>46.0</ele><time>2026-04-04T16:20:36.997Z</time></trkpt><trkpt lat="40.1581195952487" lon="18.05293049925365"><ele>46.0</ele><time>2026-04-04T16:20:37.997Z</time></trkpt><trkpt lat="40.157950770915164" lon="18.052770129703323"><ele>46.0</ele><time>2026-04-04T16:20:38.997Z</time></trkpt><trkpt lat="40.157784297539216" lon="18.052613541031832"><ele>46.0</ele><time>2026-04-04T16:20:39.997Z</time></trkpt><trkpt lat="40.15761729841539" lon="18.052463573163454"><ele>46.333333333333336</ele><time>2026-04-04T16:20:40.997Z</time></trkpt><trkpt lat="40.15744474422017" lon="18.05231891651806"><ele>46.666666666666664</ele><time>2026-04-04T16:20:41.997Z</time></trkpt><trkpt lat="40.15726929141773" lon="18.05217738657426"><ele>47.0</ele><time>2026-04-04T16:20:42.997Z</time></trkpt><trkpt lat="40.157087288493784" lon="18.052047028702425"><ele>47.0</ele><time>2026-04-04T16:20:43.997Z</time></trkpt><trkpt lat="40.156904012142654" lon="18.05191560871566"><ele>47.0</ele><time>2026-04-04T16:20:44.997Z</time></trkpt><trkpt lat="40.15671610700525" lon="18.051794457756316"><ele>47.0</ele><time>2026-04-04T16:20:45.997Z</time></trkpt><trkpt lat="40.15652393236056" lon="18.05166177155119"><ele>47.0</ele><time>2026-04-04T16:20:46.997Z</time></trkpt><trkpt lat="40.15632838392512" lon="18.051546478532824"><ele>47.0</ele><time>2026-04-04T16:20:47.997Z</time></trkpt><trkpt lat="40.15612825866571" lon="18.051430586728245"><ele>47.0</ele><time>2026-04-04T16:20:48.997Z</time></trkpt><trkpt lat="40.15592378642467" lon="18.05132656144446"><ele>47.0</ele><time>2026-04-04T16:20:49.997Z</time></trkpt><trkpt lat="40.15571968431889" lon="18.051229781911857"><ele>47.0</ele><time>2026-04-04T16:20:50.997Z</time></trkpt><trkpt lat="40.155511111753604" lon="18.05114215787663"><ele>47.0</ele><time>2026-04-04T16:20:51.997Z</time></trkpt><trkpt lat="40.15529992682667" lon="18.05106043339733"><ele>47.0</ele><time>2026-04-04T16:20:52.997Z</time></trkpt><trkpt lat="40.155087183920244" lon="18.05098328621253"><ele>47.0</ele><time>2026-04-04T16:20:53.997Z</time></trkpt><trkpt lat="40.15487236303655" lon="18.050917963756913"><ele>47.0</ele><time>2026-04-04T16:20:54.997Z</time></trkpt><trkpt lat="40.154657646770026" lon="18.050856947629352"><ele>47.0</ele><time>2026-04-04T16:20:55.997Z</time></trkpt><trkpt lat="40.154443573699446" lon="18.05079987767321"><ele>47.0</ele><time>2026-04-04T16:20:56.997Z</time></trkpt><trkpt lat="40.15422509813681" lon="18.05074829237462"><ele>47.0</ele><time>2026-04-04T16:20:57.997Z</time></trkpt><trkpt lat="40.15399952952064" lon="18.050699714001787"><ele>47.0</ele><time>2026-04-04T16:20:58.997Z</time></trkpt><trkpt lat="40.1537739953266" lon="18.05064277419398"><ele>47.0</ele><time>2026-04-04T16:20:59.997Z</time></trkpt><trkpt lat="40.15354771052609" lon="18.050594775954906"><ele>47.0</ele><time>2026-04-04T16:21:00.997Z</time></trkpt><trkpt lat="40.15332181962175" lon="18.050546645271076"><ele>47.0</ele><time>2026-04-04T16:21:01.997Z</time></trkpt><trkpt lat="40.1530961382497" lon="18.0504931884662"><ele>47.5</ele><time>2026-04-04T16:21:02.997Z</time></trkpt><trkpt lat="40.15286565259379" lon="18.05042979792813"><ele>48.0</ele><time>2026-04-04T16:21:03.997Z</time></trkpt><trkpt lat="40.15263744170281" lon="18.050370463994362"><ele>48.0</ele><time>2026-04-04T16:21:04.997Z</time></trkpt><trkpt lat="40.15241304045008" lon="18.050322313938548"><ele>48.0</ele><time>2026-04-04T16:21:05.997Z</time></trkpt><trkpt lat="40.15218790823684" lon="18.050265077407957"><ele>48.5</ele><time>2026-04-04T16:21:06.997Z</time></trkpt><trkpt lat="40.151961415963335" lon="18.05021294956525"><ele>49.0</ele><time>2026-04-04T16:21:07.997Z</time></trkpt><trkpt lat="40.151733819903434" lon="18.0501576751255"><ele>50.0</ele><time>2026-04-04T16:21:08.997Z</time></trkpt><trkpt lat="40.15151023609121" lon="18.050106521932847"><ele>51.0</ele><time>2026-04-04T16:21:09.997Z</time></trkpt><trkpt lat="40.15128713898761" lon="18.05006105524771"><ele>51.0</ele><time>2026-04-04T16:21:10.997Z</time></trkpt><trkpt lat="40.151063909463794" lon="18.050010382127812"><ele>51.0</ele><time>2026-04-04T16:21:11.997Z</time></trkpt><trkpt lat="40.15083769433596" lon="18.049955563654603"><ele>52.0</ele><time>2026-04-04T16:21:12.997Z</time></trkpt><trkpt lat="40.150612790919226" lon="18.049908728480222"><ele>53.0</ele><time>2026-04-04T16:21:13.997Z</time></trkpt><trkpt lat="40.15038591222786" lon="18.04985958120224"><ele>53.0</ele><time>2026-04-04T16:21:14.997Z</time></trkpt><trkpt lat="40.15015893785858" lon="18.04980318003515"><ele>53.0</ele><time>2026-04-04T16:21:15.997Z</time></trkpt><trkpt lat="40.149929550524625" lon="18.049745347843565"><ele>53.5</ele><time>2026-04-04T16:21:16.997Z</time></trkpt><trkpt lat="40.14970410399422" lon="18.049698824187065"><ele>54.0</ele><time>2026-04-04T16:21:17.997Z</time></trkpt><trkpt lat="40.14947939750745" lon="18.049654444713834"><ele>54.0</ele><time>2026-04-04T16:21:18.997Z</time></trkpt><trkpt lat="40.14925520752048" lon="18.049599409626037"><ele>54.0</ele><time>2026-04-04T16:21:19.997Z</time></trkpt><trkpt lat="40.14902427990018" lon="18.04954558498907"><ele>55.5</ele><time>2026-04-04T16:21:20.997Z</time></trkpt><trkpt lat="40.1487940832861" lon="18.04948212718312"><ele>57.0</ele><time>2026-04-04T16:21:21.997Z</time></trkpt><trkpt lat="40.148564821616446" lon="18.049419820418336"><ele>57.0</ele><time>2026-04-04T16:21:22.997Z</time></trkpt><trkpt lat="40.148334495438434" lon="18.049359676038005"><ele>57.0</ele><time>2026-04-04T16:21:23.997Z</time></trkpt><trkpt lat="40.14810557127062" lon="18.04930292270945"><ele>57.0</ele><time>2026-04-04T16:21:24.997Z</time></trkpt><trkpt lat="40.147878997336896" lon="18.049247305089843"><ele>57.0</ele><time>2026-04-04T16:21:25.997Z</time></trkpt><trkpt lat="40.14765234140523" lon="18.049206820346612"><ele>57.0</ele><time>2026-04-04T16:21:26.997Z</time></trkpt><trkpt lat="40.14742245345673" lon="18.049163618635966"><ele>57.0</ele><time>2026-04-04T16:21:27.997Z</time></trkpt><trkpt lat="40.14719141639472" lon="18.049125044446672"><ele>56.5</ele><time>2026-04-04T16:21:28.997Z</time></trkpt><trkpt lat="40.146961092918815" lon="18.049096099563577"><ele>56.0</ele><time>2026-04-04T16:21:29.997Z</time></trkpt><trkpt lat="40.146734334641636" lon="18.049073221026372"><ele>56.0</ele><time>2026-04-04T16:21:30.997Z</time></trkpt><trkpt lat="40.14650353744669" lon="18.049055707993773"><ele>56.0</ele><time>2026-04-04T16:21:31.997Z</time></trkpt><trkpt lat="40.14628474540288" lon="18.0490418009753"><ele>56.0</ele><time>2026-04-04T16:21:32.997Z</time></trkpt><trkpt lat="40.14605872342913" lon="18.04902784919313"><ele>56.0</ele><time>2026-04-04T16:21:33.997Z</time></trkpt><trkpt lat="40.14582888548351" lon="18.04901723629711"><ele>57.0</ele><time>2026-04-04T16:21:34.997Z</time></trkpt><trkpt lat="40.1455956931504" lon="18.049010585963238"><ele>58.0</ele><time>2026-04-04T16:21:35.997Z</time></trkpt><trkpt lat="40.14536252510806" lon="18.049011019517238"><ele>58.0</ele><time>2026-04-04T16:21:36.997Z</time></trkpt><trkpt lat="40.14512991288367" lon="18.04901108399573"><ele>58.0</ele><time>2026-04-04T16:21:37.997Z</time></trkpt><trkpt lat="40.144898817336276" lon="18.049018519343768"><ele>58.5</ele><time>2026-04-04T16:21:38.997Z</time></trkpt><trkpt lat="40.14466536318659" lon="18.049028532680733"><ele>59.0</ele><time>2026-04-04T16:21:39.997Z</time></trkpt><trkpt lat="40.1444314788701" lon="18.04904165934209"><ele>59.0</ele><time>2026-04-04T16:21:40.997Z</time></trkpt><trkpt lat="40.14420281213572" lon="18.04906057551321"><ele>59.0</ele><time>2026-04-04T16:21:41.997Z</time></trkpt><trkpt lat="40.14397223643683" lon="18.04908512568307"><ele>58.5</ele><time>2026-04-04T16:21:42.996Z</time></trkpt><trkpt lat="40.1437401469796" lon="18.04911351338142"><ele>58.0</ele><time>2026-04-04T16:21:43.996Z</time></trkpt><trkpt lat="40.14350886000582" lon="18.049144450496744"><ele>60.5</ele><time>2026-04-04T16:21:44.996Z</time></trkpt><trkpt lat="40.14328259336533" lon="18.04918284318087"><ele>63.0</ele><time>2026-04-04T16:21:45.996Z</time></trkpt><trkpt lat="40.14305604408271" lon="18.04922577671848"><ele>63.0</ele><time>2026-04-04T16:21:46.996Z</time></trkpt><trkpt lat="40.142831079492524" lon="18.049271191770632"><ele>63.0</ele><time>2026-04-04T16:21:47.996Z</time></trkpt><trkpt lat="40.14260793598844" lon="18.049327298400236"><ele>62.5</ele><time>2026-04-04T16:21:48.996Z</time></trkpt><trkpt lat="40.14238084415697" lon="18.049385024538864"><ele>62.0</ele><time>2026-04-04T16:21:49.996Z</time></trkpt><trkpt lat="40.14215492984919" lon="18.049441206663897"><ele>62.0</ele><time>2026-04-04T16:21:50.996Z</time></trkpt><trkpt lat="40.14193401051187" lon="18.049510179555547"><ele>62.0</ele><time>2026-04-04T16:21:51.996Z</time></trkpt><trkpt lat="40.14171196423097" lon="18.049576024755684"><ele>63.5</ele><time>2026-04-04T16:21:52.996Z</time></trkpt><trkpt lat="40.141488092319854" lon="18.049648849791623"><ele>65.0</ele><time>2026-04-04T16:21:53.996Z</time></trkpt><trkpt lat="40.141262158866596" lon="18.049718863440958"><ele>65.0</ele><time>2026-04-04T16:21:54.996Z</time></trkpt><trkpt lat="40.14103980337506" lon="18.049793652437433"><ele>65.0</ele><time>2026-04-04T16:21:55.996Z</time></trkpt><trkpt lat="40.14081183972824" lon="18.04986342007012"><ele>66.5</ele><time>2026-04-04T16:21:56.996Z</time></trkpt><trkpt lat="40.14058982037807" lon="18.049931583900484"><ele>68.0</ele><time>2026-04-04T16:21:57.996Z</time></trkpt><trkpt lat="40.14036793873743" lon="18.049997675763347"><ele>68.0</ele><time>2026-04-04T16:21:58.996Z</time></trkpt><trkpt lat="40.140143111501814" lon="18.050068841883427"><ele>68.0</ele><time>2026-04-04T16:21:59.996Z</time></trkpt><trkpt lat="40.13991844827812" lon="18.050137679410653"><ele>68.5</ele><time>2026-04-04T16:22:00.996Z</time></trkpt><trkpt lat="40.13969541979414" lon="18.050207301105573"><ele>69.0</ele><time>2026-04-04T16:22:01.996Z</time></trkpt><trkpt lat="40.139470902386044" lon="18.05027663923168"><ele>69.0</ele><time>2026-04-04T16:22:02.996Z</time></trkpt><trkpt lat="40.13924354221975" lon="18.050347236704734"><ele>69.0</ele><time>2026-04-04T16:22:03.996Z</time></trkpt><trkpt lat="40.13902260835958" lon="18.05042199390878"><ele>69.0</ele><time>2026-04-04T16:22:04.996Z</time></trkpt><trkpt lat="40.13880070309949" lon="18.050486631922503"><ele>69.0</ele><time>2026-04-04T16:22:05.996Z</time></trkpt><trkpt lat="40.13857560487745" lon="18.050553804981373"><ele>69.0</ele><time>2026-04-04T16:22:06.996Z</time></trkpt><trkpt lat="40.13835572946804" lon="18.05062673002252"><ele>69.0</ele><time>2026-04-04T16:22:07.996Z</time></trkpt><trkpt lat="40.138130756606174" lon="18.05069412278231"><ele>70.0</ele><time>2026-04-04T16:22:08.996Z</time></trkpt><trkpt lat="40.13790817220494" lon="18.05076551997278"><ele>71.0</ele><time>2026-04-04T16:22:09.996Z</time></trkpt><trkpt lat="40.137682656699674" lon="18.05083626154676"><ele>71.0</ele><time>2026-04-04T16:22:10.996Z</time></trkpt><trkpt lat="40.13746070407808" lon="18.050902623095887"><ele>71.0</ele><time>2026-04-04T16:22:11.996Z</time></trkpt><trkpt lat="40.13723366727668" lon="18.05096871082864"><ele>72.0</ele><time>2026-04-04T16:22:12.996Z</time></trkpt><trkpt lat="40.13701117283231" lon="18.05103027124887"><ele>73.0</ele><time>2026-04-04T16:22:13.996Z</time></trkpt><trkpt lat="40.1367857650756" lon="18.05109711279935"><ele>73.0</ele><time>2026-04-04T16:22:14.996Z</time></trkpt><trkpt lat="40.136564507393544" lon="18.051163988556706"><ele>73.0</ele><time>2026-04-04T16:22:15.996Z</time></trkpt><trkpt lat="40.13634248107941" lon="18.051237061385606"><ele>73.0</ele><time>2026-04-04T16:22:16.996Z</time></trkpt><trkpt lat="40.136118908725756" lon="18.051307771355436"><ele>73.0</ele><time>2026-04-04T16:22:17.996Z</time></trkpt><trkpt lat="40.13589880426621" lon="18.05137415120433"><ele>75.0</ele><time>2026-04-04T16:22:18.996Z</time></trkpt><trkpt lat="40.13567459918003" lon="18.051441987512028"><ele>77.0</ele><time>2026-04-04T16:22:19.996Z</time></trkpt><trkpt lat="40.13545155601303" lon="18.051511439809747"><ele>77.0</ele><time>2026-04-04T16:22:20.996Z</time></trkpt><trkpt lat="40.13522867280479" lon="18.051583165470134"><ele>77.0</ele><time>2026-04-04T16:22:21.996Z</time></trkpt><trkpt lat="40.1350019162395" lon="18.051652285901667"><ele>78.0</ele><time>2026-04-04T16:22:22.996Z</time></trkpt><trkpt lat="40.13477680368877" lon="18.051722557139172"><ele>79.0</ele><time>2026-04-04T16:22:23.996Z</time></trkpt><trkpt lat="40.13455339417869" lon="18.05179115088059"><ele>79.0</ele><time>2026-04-04T16:22:24.997Z</time></trkpt><trkpt lat="40.13432771965788" lon="18.05185894788724"><ele>79.0</ele><time>2026-04-04T16:22:25.997Z</time></trkpt><trkpt lat="40.13410732837562" lon="18.051928917848137"><ele>79.5</ele><time>2026-04-04T16:22:26.997Z</time></trkpt><trkpt lat="40.13388905914156" lon="18.051994697700696"><ele>80.0</ele><time>2026-04-04T16:22:27.997Z</time></trkpt><trkpt lat="40.13366446374011" lon="18.052066756895623"><ele>80.0</ele><time>2026-04-04T16:22:28.997Z</time></trkpt><trkpt lat="40.13343929945854" lon="18.052137923743874"><ele>80.0</ele><time>2026-04-04T16:22:29.997Z</time></trkpt><trkpt lat="40.13321575295421" lon="18.052212158363634"><ele>80.5</ele><time>2026-04-04T16:22:30.997Z</time></trkpt><trkpt lat="40.13299115851153" lon="18.052272139327656"><ele>81.0</ele><time>2026-04-04T16:22:31.996Z</time></trkpt><trkpt lat="40.13276904067428" lon="18.052355192183906"><ele>81.0</ele><time>2026-04-04T16:22:32.996Z</time></trkpt><trkpt lat="40.13254422222759" lon="18.052419189886653"><ele>81.0</ele><time>2026-04-04T16:22:33.997Z</time></trkpt><trkpt lat="40.132320280989624" lon="18.052477878123597"><ele>81.5</ele><time>2026-04-04T16:22:34.996Z</time></trkpt><trkpt lat="40.13209710981048" lon="18.05254628694786"><ele>82.0</ele><time>2026-04-04T16:22:35.996Z</time></trkpt><trkpt lat="40.131877175448736" lon="18.052618420498842"><ele>82.0</ele><time>2026-04-04T16:22:36.997Z</time></trkpt><trkpt lat="40.131654750573155" lon="18.052688324325928"><ele>82.0</ele><time>2026-04-04T16:22:37.996Z</time></trkpt><trkpt lat="40.131432852585924" lon="18.05275306795228"><ele>82.5</ele><time>2026-04-04T16:22:38.996Z</time></trkpt><trkpt lat="40.13120857845449" lon="18.05281926733021"><ele>83.0</ele><time>2026-04-04T16:22:39.996Z</time></trkpt><trkpt lat="40.13098549673434" lon="18.052878329093172"><ele>83.0</ele><time>2026-04-04T16:22:40.996Z</time></trkpt><trkpt lat="40.13076020060834" lon="18.0529371587259"><ele>83.0</ele><time>2026-04-04T16:22:41.996Z</time></trkpt><trkpt lat="40.13053409902876" lon="18.05299781322795"><ele>84.0</ele><time>2026-04-04T16:22:42.996Z</time></trkpt><trkpt lat="40.130307515180185" lon="18.05304436933171"><ele>85.0</ele><time>2026-04-04T16:22:43.996Z</time></trkpt><trkpt lat="40.13007913876514" lon="18.053072196603626"><ele>85.0</ele><time>2026-04-04T16:22:44.996Z</time></trkpt><trkpt lat="40.12985298615522" lon="18.053092585064604"><ele>85.0</ele><time>2026-04-04T16:22:45.996Z</time></trkpt><trkpt lat="40.12962689113692" lon="18.053118233421166"><ele>85.0</ele><time>2026-04-04T16:22:46.996Z</time></trkpt><trkpt lat="40.12939906193346" lon="18.05313789978529"><ele>85.0</ele><time>2026-04-04T16:22:47.996Z</time></trkpt><trkpt lat="40.12916565619095" lon="18.05314751936772"><ele>85.0</ele><time>2026-04-04T16:22:48.996Z</time></trkpt><trkpt lat="40.12893611854841" lon="18.053139110580705"><ele>85.0</ele><time>2026-04-04T16:22:49.996Z</time></trkpt><trkpt lat="40.12871128114887" lon="18.053123068437973"><ele>85.0</ele><time>2026-04-04T16:22:50.996Z</time></trkpt><trkpt lat="40.12848168257182" lon="18.053102646267494"><ele>85.0</ele><time>2026-04-04T16:22:51.996Z</time></trkpt><trkpt lat="40.12824144537584" lon="18.053080437479004"><ele>84.5</ele><time>2026-04-04T16:22:52.996Z</time></trkpt><trkpt lat="40.128012525417205" lon="18.05305203902447"><ele>84.0</ele><time>2026-04-04T16:22:53.996Z</time></trkpt><trkpt lat="40.12778915009174" lon="18.05301709296908"><ele>84.0</ele><time>2026-04-04T16:22:54.996Z</time></trkpt><trkpt lat="40.127562048377904" lon="18.052963570679054"><ele>84.0</ele><time>2026-04-04T16:22:55.996Z</time></trkpt><trkpt lat="40.127337714023476" lon="18.052914529786726"><ele>86.0</ele><time>2026-04-04T16:22:56.996Z</time></trkpt><trkpt lat="40.1271134518729" lon="18.052846427291495"><ele>88.0</ele><time>2026-04-04T16:22:57.996Z</time></trkpt><trkpt lat="40.12689489676979" lon="18.052772305592107"><ele>88.0</ele><time>2026-04-04T16:22:58.996Z</time></trkpt><trkpt lat="40.12667319251931" lon="18.052695671079192"><ele>88.0</ele><time>2026-04-04T16:22:59.996Z</time></trkpt><trkpt lat="40.12645557659326" lon="18.0526052492396"><ele>88.5</ele><time>2026-04-04T16:23:00.996Z</time></trkpt><trkpt lat="40.12623583349399" lon="18.052516331096417"><ele>89.0</ele><time>2026-04-04T16:23:01.996Z</time></trkpt><trkpt lat="40.12601885913168" lon="18.05241165353118"><ele>88.0</ele><time>2026-04-04T16:23:02.996Z</time></trkpt><trkpt lat="40.12580514069981" lon="18.05230339575179"><ele>87.0</ele><time>2026-04-04T16:23:03.996Z</time></trkpt><trkpt lat="40.125588398094095" lon="18.052178636331416"><ele>86.5</ele><time>2026-04-04T16:23:04.996Z</time></trkpt><trkpt lat="40.125381348577605" lon="18.052055710208403"><ele>86.0</ele><time>2026-04-04T16:23:05.996Z</time></trkpt><trkpt lat="40.12517334016897" lon="18.051935397208368"><ele>86.0</ele><time>2026-04-04T16:23:06.996Z</time></trkpt><trkpt lat="40.12496379471661" lon="18.05180227222286"><ele>86.0</ele><time>2026-04-04T16:23:07.996Z</time></trkpt><trkpt lat="40.1247612841299" lon="18.051659971660058"><ele>85.5</ele><time>2026-04-04T16:23:08.996Z</time></trkpt><trkpt lat="40.12456470543024" lon="18.051509140733188"><ele>85.0</ele><time>2026-04-04T16:23:09.996Z</time></trkpt><trkpt lat="40.124371044883794" lon="18.051353937158247"><ele>85.0</ele><time>2026-04-04T16:23:10.996Z</time></trkpt><trkpt lat="40.1241788830359" lon="18.051190916893127"><ele>85.0</ele><time>2026-04-04T16:23:11.996Z</time></trkpt><trkpt lat="40.12399046305263" lon="18.051025058666998"><ele>85.0</ele><time>2026-04-04T16:23:12.996Z</time></trkpt><trkpt lat="40.12380026216636" lon="18.050856233423403"><ele>85.0</ele><time>2026-04-04T16:23:13.996Z</time></trkpt><trkpt lat="40.12361021228469" lon="18.05068583795138"><ele>85.0</ele><time>2026-04-04T16:23:14.996Z</time></trkpt><trkpt lat="40.1234196545039" lon="18.050517759078026"><ele>85.0</ele><time>2026-04-04T16:23:15.996Z</time></trkpt><trkpt lat="40.12323093816023" lon="18.05034904671516"><ele>84.66666666666666</ele><time>2026-04-04T16:23:16.996Z</time></trkpt><trkpt lat="40.12304703665434" lon="18.05018609715952"><ele>84.33333333333333</ele><time>2026-04-04T16:23:17.996Z</time></trkpt><trkpt lat="40.1228690374128" lon="18.050035654755874"><ele>84.0</ele><time>2026-04-04T16:23:18.996Z</time></trkpt><trkpt lat="40.122690058544016" lon="18.04988312858505"><ele>84.0</ele><time>2026-04-04T16:23:19.996Z</time></trkpt><trkpt lat="40.12251556703683" lon="18.04973683455358"><ele>84.0</ele><time>2026-04-04T16:23:20.996Z</time></trkpt><trkpt lat="40.1223479626516" lon="18.04958719635374"><ele>84.0</ele><time>2026-04-04T16:23:21.996Z</time></trkpt><trkpt lat="40.122184438180035" lon="18.04943963080898"><ele>84.0</ele><time>2026-04-04T16:23:22.996Z</time></trkpt><trkpt lat="40.12202279774978" lon="18.04928981885129"><ele>84.0</ele><time>2026-04-04T16:23:23.996Z</time></trkpt><trkpt lat="40.12185756320419" lon="18.049134870259834"><ele>84.0</ele><time>2026-04-04T16:23:24.996Z</time></trkpt><trkpt lat="40.12170034867126" lon="18.04898618083276"><ele>83.33333333333333</ele><time>2026-04-04T16:23:25.996Z</time></trkpt><trkpt lat="40.12155446469996" lon="18.048841470164117"><ele>82.66666666666666</ele><time>2026-04-04T16:23:26.996Z</time></trkpt><trkpt lat="40.121414375478665" lon="18.04871426474097"><ele>82.0</ele><time>2026-04-04T16:23:27.996Z</time></trkpt><trkpt lat="40.121278717753896" lon="18.048593706318734"><ele>82.0</ele><time>2026-04-04T16:23:28.996Z</time></trkpt><trkpt lat="40.12115710437257" lon="18.048481651699372"><ele>82.0</ele><time>2026-04-04T16:23:29.996Z</time></trkpt><trkpt lat="40.12104365852276" lon="18.048355537124852"><ele>82.0</ele><time>2026-04-04T16:23:30.996Z</time></trkpt><trkpt lat="40.12094300632809" lon="18.048204995610632"><ele>81.66666666666666</ele><time>2026-04-04T16:23:31.996Z</time></trkpt><trkpt lat="40.120848980532365" lon="18.04800009344252"><ele>81.33333333333333</ele><time>2026-04-04T16:23:32.996Z</time></trkpt><trkpt lat="40.12075097239677" lon="18.047766410960936"><ele>81.0</ele><time>2026-04-04T16:23:33.996Z</time></trkpt><trkpt lat="40.12064640038793" lon="18.04751576470766"><ele>81.0</ele><time>2026-04-04T16:23:34.996Z</time></trkpt><trkpt lat="40.12054462434145" lon="18.047274682350775"><ele>81.0</ele><time>2026-04-04T16:23:35.996Z</time></trkpt><trkpt lat="40.120450701730036" lon="18.04706001008443"><ele>81.0</ele><time>2026-04-04T16:23:36.996Z</time></trkpt><trkpt lat="40.1203630756893" lon="18.046866632791332"><ele>81.0</ele><time>2026-04-04T16:23:37.996Z</time></trkpt><trkpt lat="40.12027934218309" lon="18.0466818988273"><ele>81.0</ele><time>2026-04-04T16:23:38.996Z</time></trkpt><trkpt lat="40.12018768945998" lon="18.046501671552228"><ele>81.0</ele><time>2026-04-04T16:23:39.996Z</time></trkpt><trkpt lat="40.120087599444474" lon="18.046347781381876"><ele>80.66666666666667</ele><time>2026-04-04T16:23:40.996Z</time></trkpt><trkpt lat="40.11998122892256" lon="18.046216669721012"><ele>80.33333333333334</ele><time>2026-04-04T16:23:41.996Z</time></trkpt><trkpt lat="40.11985520903818" lon="18.046103383469013"><ele>80.0</ele><time>2026-04-04T16:23:42.996Z</time></trkpt><trkpt lat="40.11971282050264" lon="18.046019606855662"><ele>80.0</ele><time>2026-04-04T16:23:43.996Z</time></trkpt><trkpt lat="40.11955528512611" lon="18.045970123370363"><ele>80.0</ele><time>2026-04-04T16:23:44.996Z</time></trkpt><trkpt lat="40.119386339850806" lon="18.045961979750764"><ele>80.0</ele><time>2026-04-04T16:23:45.996Z</time></trkpt><trkpt lat="40.1192167410941" lon="18.045983102293476"><ele>80.0</ele><time>2026-04-04T16:23:46.996Z</time></trkpt><trkpt lat="40.11904969690697" lon="18.0460317606441"><ele>80.0</ele><time>2026-04-04T16:23:47.996Z</time></trkpt><trkpt lat="40.11888211703215" lon="18.04611685483304"><ele>80.0</ele><time>2026-04-04T16:23:48.996Z</time></trkpt><trkpt lat="40.11871774049325" lon="18.046244396039008"><ele>80.0</ele><time>2026-04-04T16:23:49.996Z</time></trkpt><trkpt lat="40.11856034124121" lon="18.04638366955903"><ele>80.0</ele><time>2026-04-04T16:23:50.996Z</time></trkpt><trkpt lat="40.118395073444695" lon="18.0465266586503"><ele>80.0</ele><time>2026-04-04T16:23:51.996Z</time></trkpt><trkpt lat="40.11822561065102" lon="18.04666623026186"><ele>80.33333333333334</ele><time>2026-04-04T16:23:52.996Z</time></trkpt><trkpt lat="40.118052481233" lon="18.046803135464398"><ele>80.66666666666667</ele><time>2026-04-04T16:23:53.996Z</time></trkpt><trkpt lat="40.117884147726386" lon="18.046930037532437"><ele>81.0</ele><time>2026-04-04T16:23:54.996Z</time></trkpt><trkpt lat="40.117732919191425" lon="18.047046706261934"><ele>81.0</ele><time>2026-04-04T16:23:55.996Z</time></trkpt><trkpt lat="40.11759207469942" lon="18.04715694571758"><ele>81.0</ele><time>2026-04-04T16:23:56.996Z</time></trkpt><trkpt lat="40.117473947582226" lon="18.047258589062647"><ele>81.0</ele><time>2026-04-04T16:23:57.996Z</time></trkpt><trkpt lat="40.117381464893455" lon="18.047338487416308"><ele>81.0</ele><time>2026-04-04T16:23:58.996Z</time></trkpt><trkpt lat="40.11728806662377" lon="18.04741408935232"><ele>81.0</ele><time>2026-04-04T16:23:59.996Z</time></trkpt><trkpt lat="40.11715153366841" lon="18.04752738329354"><ele>81.0</ele><time>2026-04-04T16:24:00.996Z</time></trkpt><trkpt lat="40.116975425301845" lon="18.047673608819178"><ele>81.0</ele><time>2026-04-04T16:24:01.996Z</time></trkpt><trkpt lat="40.11675561546815" lon="18.0478193855601"><ele>80.5</ele><time>2026-04-04T16:24:02.996Z</time></trkpt><trkpt lat="40.11651985455656" lon="18.04797707458894"><ele>80.0</ele><time>2026-04-04T16:24:03.996Z</time></trkpt><trkpt lat="40.116274139532536" lon="18.04814817662362"><ele>80.0</ele><time>2026-04-04T16:24:04.996Z</time></trkpt><trkpt lat="40.11601523432372" lon="18.048338175118822"><ele>80.0</ele><time>2026-04-04T16:24:05.995Z</time></trkpt><trkpt lat="40.1157738501629" lon="18.048512905539734"><ele>80.0</ele><time>2026-04-04T16:24:06.995Z</time></trkpt><trkpt lat="40.11555419887277" lon="18.048681070685337"><ele>80.0</ele><time>2026-04-04T16:24:07.995Z</time></trkpt><trkpt lat="40.11533031748703" lon="18.04884953853677"><ele>80.0</ele><time>2026-04-04T16:24:08.995Z</time></trkpt><trkpt lat="40.115117177080435" lon="18.049005153790386"><ele>80.0</ele><time>2026-04-04T16:24:09.995Z</time></trkpt><trkpt lat="40.11493325358191" lon="18.049153500617827"><ele>80.66666666666667</ele><time>2026-04-04T16:24:10.995Z</time></trkpt><trkpt lat="40.11474351159271" lon="18.049298022627813"><ele>81.33333333333333</ele><time>2026-04-04T16:24:11.995Z</time></trkpt><trkpt lat="40.11454932096439" lon="18.04944328382927"><ele>82.0</ele><time>2026-04-04T16:24:12.995Z</time></trkpt><trkpt lat="40.114351122479455" lon="18.049597297044944"><ele>82.0</ele><time>2026-04-04T16:24:13.995Z</time></trkpt><trkpt lat="40.11415239544277" lon="18.04974906018031"><ele>82.0</ele><time>2026-04-04T16:24:14.995Z</time></trkpt><trkpt lat="40.11394934911796" lon="18.049906636217944"><ele>82.5</ele><time>2026-04-04T16:24:15.995Z</time></trkpt><trkpt lat="40.11374475798168" lon="18.050070596336052"><ele>83.0</ele><time>2026-04-04T16:24:16.995Z</time></trkpt><trkpt lat="40.113538242420475" lon="18.05023366213079"><ele>83.0</ele><time>2026-04-04T16:24:17.995Z</time></trkpt><trkpt lat="40.113334289352395" lon="18.0503960666641"><ele>83.0</ele><time>2026-04-04T16:24:18.995Z</time></trkpt><trkpt lat="40.11312549905505" lon="18.050559193322776"><ele>83.0</ele><time>2026-04-04T16:24:19.995Z</time></trkpt><trkpt lat="40.11291277481709" lon="18.050728885518584"><ele>83.0</ele><time>2026-04-04T16:24:20.995Z</time></trkpt><trkpt lat="40.112698473419236" lon="18.05089753300939"><ele>83.0</ele><time>2026-04-04T16:24:21.995Z</time></trkpt><trkpt lat="40.11250017423872" lon="18.051053526940503"><ele>83.0</ele><time>2026-04-04T16:24:22.995Z</time></trkpt><trkpt lat="40.112310836072275" lon="18.051198284102814"><ele>83.0</ele><time>2026-04-04T16:24:23.995Z</time></trkpt><trkpt lat="40.11213693245221" lon="18.05133548705905"><ele>83.0</ele><time>2026-04-04T16:24:24.995Z</time></trkpt><trkpt lat="40.11197189837563" lon="18.0514625553852"><ele>83.0</ele><time>2026-04-04T16:24:25.995Z</time></trkpt><trkpt lat="40.11180488302393" lon="18.051591869080674"><ele>83.0</ele><time>2026-04-04T16:24:26.995Z</time></trkpt><trkpt lat="40.11163454275798" lon="18.051720157320425"><ele>83.0</ele><time>2026-04-04T16:24:27.995Z</time></trkpt><trkpt lat="40.11146348065901" lon="18.051849510819675"><ele>83.0</ele><time>2026-04-04T16:24:28.995Z</time></trkpt><trkpt lat="40.11129872171802" lon="18.051973163571358"><ele>83.0</ele><time>2026-04-04T16:24:29.997Z</time></trkpt><trkpt lat="40.1111426743327" lon="18.052090404669"><ele>83.0</ele><time>2026-04-04T16:24:30.996Z</time></trkpt><trkpt lat="40.11098900153991" lon="18.05220027619668"><ele>83.0</ele><time>2026-04-04T16:24:31.996Z</time></trkpt><trkpt lat="40.1108376458235" lon="18.052308766707416"><ele>83.33333333333334</ele><time>2026-04-04T16:24:32.996Z</time></trkpt><trkpt lat="40.11070541824151" lon="18.052400529166682"><ele>83.66666666666667</ele><time>2026-04-04T16:24:33.997Z</time></trkpt><trkpt lat="40.11056531005054" lon="18.052507543240292"><ele>84.0</ele><time>2026-04-04T16:24:34.997Z</time></trkpt><trkpt lat="40.11042543213231" lon="18.05261999960215"><ele>84.0</ele><time>2026-04-04T16:24:35.997Z</time></trkpt><trkpt lat="40.11028478994518" lon="18.05273053547826"><ele>84.0</ele><time>2026-04-04T16:24:36.996Z</time></trkpt><trkpt lat="40.110142374064935" lon="18.05283880829042"><ele>84.0</ele><time>2026-04-04T16:24:37.996Z</time></trkpt><trkpt lat="40.10999909411837" lon="18.05294494794922"><ele>83.33333333333333</ele><time>2026-04-04T16:24:38.997Z</time></trkpt><trkpt lat="40.10985264090795" lon="18.053054905395346"><ele>82.66666666666666</ele><time>2026-04-04T16:24:39.996Z</time></trkpt><trkpt lat="40.1097064450956" lon="18.053171941094075"><ele>82.0</ele><time>2026-04-04T16:24:40.996Z</time></trkpt><trkpt lat="40.1095668167556" lon="18.053278358641602"><ele>82.33333333333333</ele><time>2026-04-04T16:24:41.997Z</time></trkpt><trkpt lat="40.10943221072096" lon="18.053372679195807"><ele>82.66666666666667</ele><time>2026-04-04T16:24:42.997Z</time></trkpt><trkpt lat="40.10929962111144" lon="18.053468458756043"><ele>83.0</ele><time>2026-04-04T16:24:43.997Z</time></trkpt><trkpt lat="40.10916076634305" lon="18.05357661138698"><ele>82.66666666666667</ele><time>2026-04-04T16:24:44.997Z</time></trkpt><trkpt lat="40.10902254646149" lon="18.05368003098384"><ele>82.33333333333333</ele><time>2026-04-04T16:24:45.997Z</time></trkpt><trkpt lat="40.10887681106091" lon="18.05378632694981"><ele>82.0</ele><time>2026-04-04T16:24:46.997Z</time></trkpt><trkpt lat="40.10873412868951" lon="18.05389438752572"><ele>82.0</ele><time>2026-04-04T16:24:47.997Z</time></trkpt><trkpt lat="40.10858579070552" lon="18.054011808197497"><ele>82.0</ele><time>2026-04-04T16:24:48.997Z</time></trkpt><trkpt lat="40.108433503274604" lon="18.054140466740275"><ele>82.0</ele><time>2026-04-04T16:24:49.997Z</time></trkpt><trkpt lat="40.1082713612746" lon="18.054263160834243"><ele>81.66666666666666</ele><time>2026-04-04T16:24:50.997Z</time></trkpt><trkpt lat="40.108106427602245" lon="18.054387811670587"><ele>81.33333333333333</ele><time>2026-04-04T16:24:51.997Z</time></trkpt><trkpt lat="40.10794442006398" lon="18.054515160529974"><ele>81.0</ele><time>2026-04-04T16:24:52.997Z</time></trkpt><trkpt lat="40.107783058448234" lon="18.054641190855737"><ele>81.0</ele><time>2026-04-04T16:24:53.997Z</time></trkpt><trkpt lat="40.10761212375711" lon="18.05477399927543"><ele>81.0</ele><time>2026-04-04T16:24:54.997Z</time></trkpt><trkpt lat="40.107446233475976" lon="18.054904889131258"><ele>81.0</ele><time>2026-04-04T16:24:55.997Z</time></trkpt><trkpt lat="40.10727857862364" lon="18.05503494184131"><ele>81.0</ele><time>2026-04-04T16:24:56.997Z</time></trkpt><trkpt lat="40.107117198429854" lon="18.055154947402457"><ele>81.0</ele><time>2026-04-04T16:24:57.997Z</time></trkpt><trkpt lat="40.10696722968277" lon="18.055271278311896"><ele>81.0</ele><time>2026-04-04T16:24:58.997Z</time></trkpt><trkpt lat="40.106814907263185" lon="18.05539844514182"><ele>81.0</ele><time>2026-04-04T16:24:59.997Z</time></trkpt><trkpt lat="40.10664969067824" lon="18.05551831597275"><ele>81.0</ele><time>2026-04-04T16:25:00.997Z</time></trkpt><trkpt lat="40.10648769494164" lon="18.055648593536098"><ele>81.0</ele><time>2026-04-04T16:25:01.997Z</time></trkpt><trkpt lat="40.10632380109366" lon="18.055775635297017"><ele>81.33333333333333</ele><time>2026-04-04T16:25:02.997Z</time></trkpt><trkpt lat="40.10616126767476" lon="18.05590887971965"><ele>81.66666666666666</ele><time>2026-04-04T16:25:03.997Z</time></trkpt><trkpt lat="40.106007808445455" lon="18.056042944165338"><ele>82.0</ele><time>2026-04-04T16:25:04.997Z</time></trkpt><trkpt lat="40.10584879009277" lon="18.056169006582742"><ele>80.66666666666666</ele><time>2026-04-04T16:25:05.997Z</time></trkpt><trkpt lat="40.10568799995117" lon="18.056288775672364"><ele>79.33333333333333</ele><time>2026-04-04T16:25:06.997Z</time></trkpt><trkpt lat="40.10553650078977" lon="18.05639267155915"><ele>78.0</ele><time>2026-04-04T16:25:07.997Z</time></trkpt><trkpt lat="40.10537865181371" lon="18.056517857946695"><ele>78.0</ele><time>2026-04-04T16:25:08.996Z</time></trkpt><trkpt lat="40.10523328261876" lon="18.05663313213875"><ele>78.0</ele><time>2026-04-04T16:25:09.996Z</time></trkpt><trkpt lat="40.10508513276689" lon="18.056749498515273"><ele>78.0</ele><time>2026-04-04T16:25:10.996Z</time></trkpt><trkpt lat="40.10493043515246" lon="18.056871283029395"><ele>77.0</ele><time>2026-04-04T16:25:11.996Z</time></trkpt><trkpt lat="40.10477213882199" lon="18.0569838092577"><ele>76.0</ele><time>2026-04-04T16:25:12.996Z</time></trkpt><trkpt lat="40.104615657753456" lon="18.057106789605633"><ele>75.0</ele><time>2026-04-04T16:25:13.996Z</time></trkpt><trkpt lat="40.10446788041185" lon="18.057217287259107"><ele>75.0</ele><time>2026-04-04T16:25:14.996Z</time></trkpt><trkpt lat="40.104318398128086" lon="18.057339765007747"><ele>75.0</ele><time>2026-04-04T16:25:15.996Z</time></trkpt><trkpt lat="40.10416268717561" lon="18.057457351815117"><ele>75.0</ele><time>2026-04-04T16:25:16.996Z</time></trkpt><trkpt lat="40.10400457335705" lon="18.05757326564673"><ele>75.66666666666667</ele><time>2026-04-04T16:25:17.996Z</time></trkpt><trkpt lat="40.103852169827285" lon="18.05770166472757"><ele>76.33333333333334</ele><time>2026-04-04T16:25:18.996Z</time></trkpt><trkpt lat="40.103709947902956" lon="18.05783154025661"><ele>77.0</ele><time>2026-04-04T16:25:19.996Z</time></trkpt><trkpt lat="40.10356883905689" lon="18.057940247050514"><ele>77.0</ele><time>2026-04-04T16:25:20.996Z</time></trkpt><trkpt lat="40.10343239054713" lon="18.058040563825656"><ele>77.0</ele><time>2026-04-04T16:25:21.996Z</time></trkpt><trkpt lat="40.103295577403564" lon="18.058137902313334"><ele>77.0</ele><time>2026-04-04T16:25:22.996Z</time></trkpt><trkpt lat="40.10316191902673" lon="18.05823986575031"><ele>77.75</ele><time>2026-04-04T16:25:23.996Z</time></trkpt><trkpt lat="40.103034278813496" lon="18.058331171412526"><ele>78.5</ele><time>2026-04-04T16:25:24.996Z</time></trkpt><trkpt lat="40.102912838813936" lon="18.058424125069433"><ele>79.25</ele><time>2026-04-04T16:25:25.996Z</time></trkpt><trkpt lat="40.10279842248769" lon="18.058500774464004"><ele>80.0</ele><time>2026-04-04T16:25:26.996Z</time></trkpt><trkpt lat="40.10269204640276" lon="18.058575753219486"><ele>80.0</ele><time>2026-04-04T16:25:27.996Z</time></trkpt><trkpt lat="40.10259810383893" lon="18.058647884006145"><ele>80.0</ele><time>2026-04-04T16:25:28.996Z</time></trkpt><trkpt lat="40.102523147688224" lon="18.058707555582007"><ele>80.0</ele><time>2026-04-04T16:25:29.996Z</time></trkpt><trkpt lat="40.10245955733585" lon="18.058744004268526"><ele>80.0</ele><time>2026-04-04T16:25:30.996Z</time></trkpt><trkpt lat="40.102350530746286" lon="18.058705783681265"><ele>80.0</ele><time>2026-04-04T16:25:32.996Z</time></trkpt><trkpt lat="40.10228976055795" lon="18.05863790978673"><ele>79.0</ele><time>2026-04-04T16:25:33.996Z</time></trkpt><trkpt lat="40.10220800562353" lon="18.058535579548366"><ele>78.0</ele><time>2026-04-04T16:25:34.996Z</time></trkpt><trkpt lat="40.10209806662282" lon="18.05841033047732"><ele>77.0</ele><time>2026-04-04T16:25:35.996Z</time></trkpt><trkpt lat="40.10197794418414" lon="18.058284213116853"><ele>76.0</ele><time>2026-04-04T16:25:36.996Z</time></trkpt><trkpt lat="40.10184399504484" lon="18.058149057028896"><ele>75.0</ele><time>2026-04-04T16:25:37.996Z</time></trkpt><trkpt lat="40.101697188833015" lon="18.05798566397545"><ele>74.0</ele><time>2026-04-04T16:25:38.996Z</time></trkpt><trkpt lat="40.10155757759148" lon="18.0578131359954"><ele>73.0</ele><time>2026-04-04T16:25:39.996Z</time></trkpt><trkpt lat="40.10141709833857" lon="18.057655020188623"><ele>72.66666666666666</ele><time>2026-04-04T16:25:40.996Z</time></trkpt><trkpt lat="40.101274277699275" lon="18.057506853624293"><ele>72.33333333333333</ele><time>2026-04-04T16:25:41.996Z</time></trkpt><trkpt lat="40.101125301271814" lon="18.05737007782814"><ele>72.0</ele><time>2026-04-04T16:25:42.996Z</time></trkpt><trkpt lat="40.10097519908764" lon="18.057254658488965"><ele>72.0</ele><time>2026-04-04T16:25:43.996Z</time></trkpt><trkpt lat="40.10082089633564" lon="18.057143331365044"><ele>72.0</ele><time>2026-04-04T16:25:44.996Z</time></trkpt><trkpt lat="40.10065793088737" lon="18.057039466723122"><ele>72.0</ele><time>2026-04-04T16:25:45.996Z</time></trkpt><trkpt lat="40.100498481152734" lon="18.05695563612882"><ele>71.0</ele><time>2026-04-04T16:25:46.996Z</time></trkpt><trkpt lat="40.10032940881296" lon="18.05689558833159"><ele>70.0</ele><time>2026-04-04T16:25:47.996Z</time></trkpt><trkpt lat="40.10015435235074" lon="18.056857362634183"><ele>69.0</ele><time>2026-04-04T16:25:48.996Z</time></trkpt><trkpt lat="40.099978437501484" lon="18.056826519843092"><ele>68.66666666666667</ele><time>2026-04-04T16:25:49.996Z</time></trkpt><trkpt lat="40.09980709814141" lon="18.05680505914959"><ele>68.33333333333334</ele><time>2026-04-04T16:25:50.996Z</time></trkpt><trkpt lat="40.0996414201666" lon="18.056803605934405"><ele>68.0</ele><time>2026-04-04T16:25:51.996Z</time></trkpt><trkpt lat="40.099472204185936" lon="18.056834868064833"><ele>68.0</ele><time>2026-04-04T16:25:52.996Z</time></trkpt><trkpt lat="40.099304702659936" lon="18.05689164541488"><ele>68.0</ele><time>2026-04-04T16:25:53.996Z</time></trkpt><trkpt lat="40.099135738829865" lon="18.056966321092816"><ele>68.0</ele><time>2026-04-04T16:25:54.996Z</time></trkpt><trkpt lat="40.09897083759541" lon="18.057066046186065"><ele>67.66666666666667</ele><time>2026-04-04T16:25:55.996Z</time></trkpt><trkpt lat="40.09881431815086" lon="18.057168734466707"><ele>67.33333333333333</ele><time>2026-04-04T16:25:56.996Z</time></trkpt><trkpt lat="40.098665013557344" lon="18.057267943059223"><ele>67.0</ele><time>2026-04-04T16:25:57.996Z</time></trkpt><trkpt lat="40.09851621314256" lon="18.057359226522212"><ele>67.0</ele><time>2026-04-04T16:25:58.996Z</time></trkpt><trkpt lat="40.09836544092494" lon="18.0574430088525"><ele>67.0</ele><time>2026-04-04T16:25:59.996Z</time></trkpt><trkpt lat="40.09822917571004" lon="18.057517333911075"><ele>67.0</ele><time>2026-04-04T16:26:00.996Z</time></trkpt><trkpt lat="40.098103143029164" lon="18.057590534478987"><ele>67.0</ele><time>2026-04-04T16:26:01.996Z</time></trkpt><trkpt lat="40.09799555500303" lon="18.057652516666685"><ele>67.2</ele><time>2026-04-04T16:26:02.996Z</time></trkpt><trkpt lat="40.09789615037206" lon="18.05771452825363"><ele>67.4</ele><time>2026-04-04T16:26:03.996Z</time></trkpt><trkpt lat="40.09780059401101" lon="18.05776592936437"><ele>67.6</ele><time>2026-04-04T16:26:04.996Z</time></trkpt><trkpt lat="40.097717854341965" lon="18.057808928013998"><ele>67.8</ele><time>2026-04-04T16:26:05.996Z</time></trkpt><trkpt lat="40.09764741050415" lon="18.057837015384195"><ele>68.0</ele><time>2026-04-04T16:26:06.996Z</time></trkpt><trkpt lat="40.09757121172002" lon="18.057853424008087"><ele>68.0</ele><time>2026-04-04T16:26:08.996Z</time></trkpt><trkpt lat="40.09748565894531" lon="18.057862009191176"><ele>68.0</ele><time>2026-04-04T16:26:11.996Z</time></trkpt><trkpt lat="40.09737138360376" lon="18.057902437709597"><ele>68.0</ele><time>2026-04-04T16:26:13.996Z</time></trkpt><trkpt lat="40.097273735898405" lon="18.057981636879944"><ele>68.0</ele><time>2026-04-04T16:26:15.996Z</time></trkpt><trkpt lat="40.09722756196571" lon="18.058046586315342"><ele>68.0</ele><time>2026-04-04T16:26:16.996Z</time></trkpt><trkpt lat="40.09718215051974" lon="18.058118885023976"><ele>67.83333333333334</ele><time>2026-04-04T16:26:17.996Z</time></trkpt><trkpt lat="40.09714008430113" lon="18.058191311691463"><ele>67.66666666666667</ele><time>2026-04-04T16:26:18.996Z</time></trkpt><trkpt lat="40.097077989459876" lon="18.0583343963911"><ele>67.5</ele><time>2026-04-04T16:26:20.996Z</time></trkpt><trkpt lat="40.09703951675903" lon="18.058413776380775"><ele>67.33333333333333</ele><time>2026-04-04T16:26:21.996Z</time></trkpt><trkpt lat="40.096992832165064" lon="18.05849780195006"><ele>67.16666666666666</ele><time>2026-04-04T16:26:22.996Z</time></trkpt><trkpt lat="40.096937328372285" lon="18.05858778997962"><ele>67.0</ele><time>2026-04-04T16:26:23.996Z</time></trkpt><trkpt lat="40.096880296664565" lon="18.058679237123194"><ele>67.0</ele><time>2026-04-04T16:26:24.996Z</time></trkpt><trkpt lat="40.09682440603077" lon="18.058790772844926"><ele>67.0</ele><time>2026-04-04T16:26:25.996Z</time></trkpt><trkpt lat="40.09676525332954" lon="18.058906849795548"><ele>67.0</ele><time>2026-04-04T16:26:26.996Z</time></trkpt><trkpt lat="40.09670086341631" lon="18.059013821999095"><ele>67.0</ele><time>2026-04-04T16:26:27.996Z</time></trkpt><trkpt lat="40.0966369585365" lon="18.059115918822854"><ele>67.0</ele><time>2026-04-04T16:26:28.996Z</time></trkpt><trkpt lat="40.09658094281986" lon="18.059215719472583"><ele>66.6</ele><time>2026-04-04T16:26:29.996Z</time></trkpt><trkpt lat="40.09652848933651" lon="18.05932131284471"><ele>66.2</ele><time>2026-04-04T16:26:30.996Z</time></trkpt><trkpt lat="40.096473379827344" lon="18.059424502880876"><ele>65.8</ele><time>2026-04-04T16:26:31.996Z</time></trkpt><trkpt lat="40.09642303151479" lon="18.05952186922024"><ele>65.4</ele><time>2026-04-04T16:26:32.996Z</time></trkpt><trkpt lat="40.096357938244495" lon="18.05961378864963"><ele>65.0</ele><time>2026-04-04T16:26:33.996Z</time></trkpt><trkpt lat="40.09628239368535" lon="18.059710978022732"><ele>65.0</ele><time>2026-04-04T16:26:34.996Z</time></trkpt><trkpt lat="40.09620633706709" lon="18.059806634853633"><ele>65.0</ele><time>2026-04-04T16:26:35.996Z</time></trkpt><trkpt lat="40.09613071481542" lon="18.05991445067841"><ele>65.0</ele><time>2026-04-04T16:26:36.996Z</time></trkpt><trkpt lat="40.0960508731253" lon="18.06002622620067"><ele>65.0</ele><time>2026-04-04T16:26:37.996Z</time></trkpt><trkpt lat="40.09596576107354" lon="18.06012760605439"><ele>65.0</ele><time>2026-04-04T16:26:38.996Z</time></trkpt><trkpt lat="40.09587835590432" lon="18.060217233111608"><ele>65.0</ele><time>2026-04-04T16:26:39.997Z</time></trkpt><trkpt lat="40.095783140242474" lon="18.060292652575725"><ele>65.0</ele><time>2026-04-04T16:26:40.997Z</time></trkpt><trkpt lat="40.0956821656211" lon="18.06037313634109"><ele>65.0</ele><time>2026-04-04T16:26:41.996Z</time></trkpt><trkpt lat="40.09557488447474" lon="18.060446628108348"><ele>64.75</ele><time>2026-04-04T16:26:42.997Z</time></trkpt><trkpt lat="40.0954597419821" lon="18.060513391031"><ele>64.5</ele><time>2026-04-04T16:26:43.997Z</time></trkpt><trkpt lat="40.09533872738245" lon="18.06057669108246"><ele>64.25</ele><time>2026-04-04T16:26:44.996Z</time></trkpt><trkpt lat="40.095217115214815" lon="18.060637240126344"><ele>64.0</ele><time>2026-04-04T16:26:45.996Z</time></trkpt><trkpt lat="40.095091702958186" lon="18.060687420236416"><ele>64.0</ele><time>2026-04-04T16:26:46.996Z</time></trkpt><trkpt lat="40.09497024840181" lon="18.060745255466117"><ele>64.0</ele><time>2026-04-04T16:26:47.996Z</time></trkpt><trkpt lat="40.094858770096835" lon="18.060782735557158"><ele>64.0</ele><time>2026-04-04T16:26:48.996Z</time></trkpt><trkpt lat="40.09473600116732" lon="18.060823931251374"><ele>64.0</ele><time>2026-04-04T16:26:49.996Z</time></trkpt><trkpt lat="40.094600989256705" lon="18.060850174806447"><ele>64.25</ele><time>2026-04-04T16:26:50.996Z</time></trkpt><trkpt lat="40.09446612911853" lon="18.060858050126118"><ele>64.5</ele><time>2026-04-04T16:26:51.996Z</time></trkpt><trkpt lat="40.09432831371905" lon="18.06084350667169"><ele>64.75</ele><time>2026-04-04T16:26:52.996Z</time></trkpt><trkpt lat="40.094191925423765" lon="18.06083552609746"><ele>65.0</ele><time>2026-04-04T16:26:53.996Z</time></trkpt><trkpt lat="40.09405430327344" lon="18.06079508565015"><ele>65.0</ele><time>2026-04-04T16:26:54.996Z</time></trkpt><trkpt lat="40.093925780632404" lon="18.06073990642601"><ele>65.0</ele><time>2026-04-04T16:26:55.996Z</time></trkpt><trkpt lat="40.09380445040245" lon="18.060676846366853"><ele>65.0</ele><time>2026-04-04T16:26:56.996Z</time></trkpt><trkpt lat="40.09368226579339" lon="18.060605802399504"><ele>65.0</ele><time>2026-04-04T16:26:57.996Z</time></trkpt><trkpt lat="40.093567380657866" lon="18.060528588458833"><ele>65.0</ele><time>2026-04-04T16:26:58.996Z</time></trkpt><trkpt lat="40.09345345146268" lon="18.06045612732974"><ele>65.0</ele><time>2026-04-04T16:26:59.996Z</time></trkpt><trkpt lat="40.09334446781977" lon="18.060394009476205"><ele>65.0</ele><time>2026-04-04T16:27:00.996Z</time></trkpt><trkpt lat="40.093229804005546" lon="18.060319991081496"><ele>65.0</ele><time>2026-04-04T16:27:01.996Z</time></trkpt><trkpt lat="40.09312468941122" lon="18.06024491025822"><ele>64.4</ele><time>2026-04-04T16:27:02.996Z</time></trkpt><trkpt lat="40.09302769992954" lon="18.06017166867546"><ele>63.8</ele><time>2026-04-04T16:27:03.996Z</time></trkpt><trkpt lat="40.092933511509145" lon="18.060096359764973"><ele>63.2</ele><time>2026-04-04T16:27:04.996Z</time></trkpt><trkpt lat="40.09284627783326" lon="18.06002676611381"><ele>62.6</ele><time>2026-04-04T16:27:05.996Z</time></trkpt><trkpt lat="40.092767472866235" lon="18.059964841366696"><ele>62.0</ele><time>2026-04-04T16:27:06.996Z</time></trkpt><trkpt lat="40.09269290246167" lon="18.059911964933256"><ele>61.833333333333336</ele><time>2026-04-04T16:27:07.996Z</time></trkpt><trkpt lat="40.09261270356535" lon="18.059867971640312"><ele>61.66666666666667</ele><time>2026-04-04T16:27:08.996Z</time></trkpt><trkpt lat="40.092530965116296" lon="18.059836040152597"><ele>61.5</ele><time>2026-04-04T16:27:09.996Z</time></trkpt><trkpt lat="40.0924373140454" lon="18.059812775817075"><ele>61.33333333333333</ele><time>2026-04-04T16:27:10.996Z</time></trkpt><trkpt lat="40.09235215164697" lon="18.05979987307162"><ele>61.166666666666664</ele><time>2026-04-04T16:27:11.996Z</time></trkpt><trkpt lat="40.092277200762524" lon="18.059791950090162"><ele>61.0</ele><time>2026-04-04T16:27:12.996Z</time></trkpt><trkpt lat="40.0922111219267" lon="18.05979251669434"><ele>60.8</ele><time>2026-04-04T16:27:13.996Z</time></trkpt><trkpt lat="40.092105082455646" lon="18.059812578315533"><ele>60.599999999999994</ele><time>2026-04-04T16:27:15.996Z</time></trkpt><trkpt lat="40.09201646550536" lon="18.059859964299918"><ele>60.4</ele><time>2026-04-04T16:27:17.996Z</time></trkpt><trkpt lat="40.09198055581259" lon="18.05994930790113"><ele>60.2</ele><time>2026-04-04T16:27:19.996Z</time></trkpt><trkpt lat="40.092026833858" lon="18.06006263218373"><ele>60.0</ele><time>2026-04-04T16:27:21.996Z</time></trkpt><trkpt lat="40.09208384951607" lon="18.06013856242151"><ele>59.75</ele><time>2026-04-04T16:27:22.996Z</time></trkpt><trkpt lat="40.0921411581845" lon="18.060244022428382"><ele>59.5</ele><time>2026-04-04T16:27:23.996Z</time></trkpt><trkpt lat="40.09220111967736" lon="18.060376818318975"><ele>59.25</ele><time>2026-04-04T16:27:24.996Z</time></trkpt><trkpt lat="40.09226832698648" lon="18.060515850231045"><ele>59.0</ele><time>2026-04-04T16:27:25.996Z</time></trkpt><trkpt lat="40.09233546973589" lon="18.060670328259075"><ele>59.0</ele><time>2026-04-04T16:27:26.996Z</time></trkpt><trkpt lat="40.09239721381828" lon="18.060807478999923"><ele>59.0</ele><time>2026-04-04T16:27:27.996Z</time></trkpt><trkpt lat="40.0924455750483" lon="18.060951361348142"><ele>59.0</ele><time>2026-04-04T16:27:28.996Z</time></trkpt><trkpt lat="40.09249177624795" lon="18.061081436448838"><ele>59.0</ele><time>2026-04-04T16:27:29.996Z</time></trkpt><trkpt lat="40.09253556923927" lon="18.06120501890506"><ele>59.333333333333336</ele><time>2026-04-04T16:27:30.996Z</time></trkpt><trkpt lat="40.09257334934936" lon="18.061311007607177"><ele>59.66666666666667</ele><time>2026-04-04T16:27:31.996Z</time></trkpt><trkpt lat="40.092599813387494" lon="18.061387226861363"><ele>60.0</ele><time>2026-04-04T16:27:32.996Z</time></trkpt><trkpt lat="40.09265030754363" lon="18.061484365502704"><ele>60.33333333333333</ele><time>2026-04-04T16:27:34.996Z</time></trkpt><trkpt lat="40.09269681766095" lon="18.06156963965959"><ele>60.666666666666664</ele><time>2026-04-04T16:27:36.996Z</time></trkpt><trkpt lat="40.09276570897735" lon="18.061706671178445"><ele>61.0</ele><time>2026-04-04T16:27:38.996Z</time></trkpt><trkpt lat="40.09281178760398" lon="18.0618167939794"><ele>61.199999999999996</ele><time>2026-04-04T16:27:39.996Z</time></trkpt><trkpt lat="40.09285028766201" lon="18.061938034565735"><ele>61.39999999999999</ele><time>2026-04-04T16:27:40.996Z</time></trkpt><trkpt lat="40.092883616493005" lon="18.06204658397787"><ele>61.6</ele><time>2026-04-04T16:27:41.996Z</time></trkpt><trkpt lat="40.09291180912899" lon="18.062140299032137"><ele>61.8</ele><time>2026-04-04T16:27:42.996Z</time></trkpt><trkpt lat="40.092938434853544" lon="18.062281783976413"><ele>62.0</ele><time>2026-04-04T16:27:44.996Z</time></trkpt><trkpt lat="40.09290271415714" lon="18.062438480832977"><ele>62.400000000000006</ele><time>2026-04-04T16:27:46.996Z</time></trkpt><trkpt lat="40.09285557025006" lon="18.06252943635039"><ele>62.800000000000004</ele><time>2026-04-04T16:27:47.996Z</time></trkpt><trkpt lat="40.09278297442135" lon="18.06263227853986"><ele>63.2</ele><time>2026-04-04T16:27:48.996Z</time></trkpt><trkpt lat="40.09270203208451" lon="18.062731925969466"><ele>63.6</ele><time>2026-04-04T16:27:49.996Z</time></trkpt><trkpt lat="40.09262027836008" lon="18.062826721534393"><ele>64.0</ele><time>2026-04-04T16:27:50.996Z</time></trkpt><trkpt lat="40.092536731228805" lon="18.062912547232433"><ele>64.0</ele><time>2026-04-04T16:27:51.996Z</time></trkpt><trkpt lat="40.09244831311517" lon="18.062974651200133"><ele>64.0</ele><time>2026-04-04T16:27:52.996Z</time></trkpt><trkpt lat="40.09235163297174" lon="18.063031218043474"><ele>64.0</ele><time>2026-04-04T16:27:53.996Z</time></trkpt><trkpt lat="40.09225801787815" lon="18.06306824215233"><ele>64.0</ele><time>2026-04-04T16:27:54.996Z</time></trkpt><trkpt lat="40.09216905346183" lon="18.063089807767934"><ele>64.0</ele><time>2026-04-04T16:27:55.996Z</time></trkpt><trkpt lat="40.09205747598047" lon="18.06310246419508"><ele>63.5</ele><time>2026-04-04T16:27:56.996Z</time></trkpt><trkpt lat="40.09192694526415" lon="18.063120957798645"><ele>63.0</ele><time>2026-04-04T16:27:57.996Z</time></trkpt><trkpt lat="40.09177963776402" lon="18.06315127524233"><ele>62.5</ele><time>2026-04-04T16:27:58.996Z</time></trkpt><trkpt lat="40.09163109994427" lon="18.0631882019598"><ele>62.0</ele><time>2026-04-04T16:27:59.996Z</time></trkpt><trkpt lat="40.09148978400008" lon="18.063223642183335"><ele>61.25</ele><time>2026-04-04T16:28:00.996Z</time></trkpt><trkpt lat="40.09135145941759" lon="18.06325368413574"><ele>60.5</ele><time>2026-04-04T16:28:01.996Z</time></trkpt><trkpt lat="40.091211211879376" lon="18.06328370609045"><ele>59.75</ele><time>2026-04-04T16:28:02.996Z</time></trkpt><trkpt lat="40.09107980435139" lon="18.063319234576166"><ele>59.0</ele><time>2026-04-04T16:28:03.996Z</time></trkpt><trkpt lat="40.090947816906095" lon="18.06336039698959"><ele>59.0</ele><time>2026-04-04T16:28:04.995Z</time></trkpt><trkpt lat="40.090811717931885" lon="18.063401573921507"><ele>59.0</ele><time>2026-04-04T16:28:05.995Z</time></trkpt><trkpt lat="40.09066751829025" lon="18.063442757841305"><ele>59.0</ele><time>2026-04-04T16:28:06.995Z</time></trkpt><trkpt lat="40.09051919611867" lon="18.06348400515949"><ele>59.0</ele><time>2026-04-04T16:28:07.995Z</time></trkpt><trkpt lat="40.09037152921124" lon="18.063530765237502"><ele>59.0</ele><time>2026-04-04T16:28:08.995Z</time></trkpt><trkpt lat="40.090234486700034" lon="18.0635726162692"><ele>59.0</ele><time>2026-04-04T16:28:09.995Z</time></trkpt><trkpt lat="40.090099182911885" lon="18.063614746736544"><ele>59.0</ele><time>2026-04-04T16:28:10.995Z</time></trkpt><trkpt lat="40.08996769292567" lon="18.063676202931426"><ele>59.0</ele><time>2026-04-04T16:28:11.995Z</time></trkpt><trkpt lat="40.08984049512248" lon="18.063750012794955"><ele>58.75</ele><time>2026-04-04T16:28:12.995Z</time></trkpt><trkpt lat="40.089713904070635" lon="18.063835842036045"><ele>58.5</ele><time>2026-04-04T16:28:13.995Z</time></trkpt><trkpt lat="40.089589714155515" lon="18.06393589441112"><ele>58.25</ele><time>2026-04-04T16:28:14.995Z</time></trkpt><trkpt lat="40.089475648414194" lon="18.064045820780557"><ele>58.0</ele><time>2026-04-04T16:28:15.995Z</time></trkpt><trkpt lat="40.08937088064543" lon="18.064163809824276"><ele>58.0</ele><time>2026-04-04T16:28:16.995Z</time></trkpt><trkpt lat="40.08926908860772" lon="18.064297631371712"><ele>58.0</ele><time>2026-04-04T16:28:17.995Z</time></trkpt><trkpt lat="40.08916922003147" lon="18.064427086080993"><ele>58.0</ele><time>2026-04-04T16:28:18.995Z</time></trkpt><trkpt lat="40.08908719769178" lon="18.06452306497265"><ele>58.0</ele><time>2026-04-04T16:28:19.995Z</time></trkpt><trkpt lat="40.089036827782635" lon="18.064594653214314"><ele>58.0</ele><time>2026-04-04T16:28:20.995Z</time></trkpt><trkpt lat="40.08900711010648" lon="18.06471687692646"><ele>58.0</ele><time>2026-04-04T16:28:22.995Z</time></trkpt><trkpt lat="40.08904855948085" lon="18.064876075151503"><ele>58.0</ele><time>2026-04-04T16:28:24.995Z</time></trkpt><trkpt lat="40.0890833886574" lon="18.064980850469883"><ele>58.0</ele><time>2026-04-04T16:28:25.995Z</time></trkpt><trkpt lat="40.08911904555842" lon="18.065092362618905"><ele>58.0</ele><time>2026-04-04T16:28:26.995Z</time></trkpt><trkpt lat="40.08915936664245" lon="18.06521326327247"><ele>58.0</ele><time>2026-04-04T16:28:27.995Z</time></trkpt><trkpt lat="40.089205286818505" lon="18.06534978097663"><ele>58.0</ele><time>2026-04-04T16:28:28.995Z</time></trkpt><trkpt lat="40.08925291815981" lon="18.065485935821414"><ele>58.0</ele><time>2026-04-04T16:28:29.995Z</time></trkpt><trkpt lat="40.08928130156426" lon="18.06560165837102"><ele>58.0</ele><time>2026-04-04T16:28:30.995Z</time></trkpt><trkpt lat="40.08931329386916" lon="18.06569467688444"><ele>58.0</ele><time>2026-04-04T16:28:31.995Z</time></trkpt><trkpt lat="40.089345603852394" lon="18.065770829728187"><ele>58.599999999999994</ele><time>2026-04-04T16:28:32.995Z</time></trkpt><trkpt lat="40.0893848873826" lon="18.065856154631653"><ele>59.199999999999996</ele><time>2026-04-04T16:28:34.995Z</time></trkpt><trkpt lat="40.08938069283009" lon="18.065952761688223"><ele>59.8</ele><time>2026-04-04T16:28:37.995Z</time></trkpt><trkpt lat="40.089258034092474" lon="18.066012268882922"><ele>60.4</ele><time>2026-04-04T16:28:39.995Z</time></trkpt><trkpt lat="40.08916100627847" lon="18.06606334232878"><ele>61.0</ele><time>2026-04-04T16:28:40.995Z</time></trkpt><trkpt lat="40.089047850565386" lon="18.066121360953147"><ele>61.0</ele><time>2026-04-04T16:28:41.997Z</time></trkpt><trkpt lat="40.08894107374524" lon="18.066193774751472"><ele>61.0</ele><time>2026-04-04T16:28:42.997Z</time></trkpt><trkpt lat="40.088830537185956" lon="18.066255551872324"><ele>61.0</ele><time>2026-04-04T16:28:43.997Z</time></trkpt><trkpt lat="40.08871652945583" lon="18.066305122553445"><ele>61.0</ele><time>2026-04-04T16:28:44.996Z</time></trkpt><trkpt lat="40.08860229891593" lon="18.066361022751437"><ele>61.0</ele><time>2026-04-04T16:28:45.996Z</time></trkpt><trkpt lat="40.08848453137224" lon="18.06639540594859"><ele>61.0</ele><time>2026-04-04T16:28:46.996Z</time></trkpt><trkpt lat="40.08836178466494" lon="18.06642797398113"><ele>61.0</ele><time>2026-04-04T16:28:47.996Z</time></trkpt><trkpt lat="40.088218584285904" lon="18.066440419233377"><ele>61.0</ele><time>2026-04-04T16:28:48.996Z</time></trkpt><trkpt lat="40.08807221286517" lon="18.066445591505783"><ele>60.33333333333333</ele><time>2026-04-04T16:28:49.996Z</time></trkpt><trkpt lat="40.087921434347265" lon="18.066449128436652"><ele>59.66666666666667</ele><time>2026-04-04T16:28:50.997Z</time></trkpt><trkpt lat="40.087766408730545" lon="18.0664598561938"><ele>59.0</ele><time>2026-04-04T16:28:51.996Z</time></trkpt><trkpt lat="40.08761111756255" lon="18.066464824373462"><ele>59.0</ele><time>2026-04-04T16:28:52.996Z</time></trkpt><trkpt lat="40.08745713937872" lon="18.066465160130885"><ele>59.0</ele><time>2026-04-04T16:28:53.997Z</time></trkpt><trkpt lat="40.087298857240384" lon="18.06646745020359"><ele>59.0</ele><time>2026-04-04T16:28:54.997Z</time></trkpt><trkpt lat="40.087139406660846" lon="18.066468562597517"><ele>59.333333333333336</ele><time>2026-04-04T16:28:55.997Z</time></trkpt><trkpt lat="40.08696966801372" lon="18.066472996139584"><ele>59.66666666666667</ele><time>2026-04-04T16:28:56.997Z</time></trkpt><trkpt lat="40.08681364014282" lon="18.066481902265778"><ele>60.0</ele><time>2026-04-04T16:28:57.997Z</time></trkpt><trkpt lat="40.086669675523176" lon="18.06648984046336"><ele>59.5</ele><time>2026-04-04T16:28:58.997Z</time></trkpt><trkpt lat="40.08654358357098" lon="18.066503661868385"><ele>59.0</ele><time>2026-04-04T16:28:59.997Z</time></trkpt><trkpt lat="40.08642194627674" lon="18.06651622028744"><ele>58.5</ele><time>2026-04-04T16:29:00.997Z</time></trkpt><trkpt lat="40.08630657456496" lon="18.06652244578477"><ele>58.0</ele><time>2026-04-04T16:29:01.997Z</time></trkpt><trkpt lat="40.08620150470334" lon="18.06653555883916"><ele>58.0</ele><time>2026-04-04T16:29:02.997Z</time></trkpt><trkpt lat="40.08609958639928" lon="18.066547315996054"><ele>58.0</ele><time>2026-04-04T16:29:03.997Z</time></trkpt><trkpt lat="40.086006812927195" lon="18.06655575103867"><ele>58.0</ele><time>2026-04-04T16:29:04.997Z</time></trkpt><trkpt lat="40.08592022976781" lon="18.06655701196528"><ele>58.0</ele><time>2026-04-04T16:29:05.996Z</time></trkpt><trkpt lat="40.085845547793134" lon="18.066554226388206"><ele>58.0</ele><time>2026-04-04T16:29:06.996Z</time></trkpt><trkpt lat="40.085739914447764" lon="18.06650052177224"><ele>57.99999999999999</ele><time>2026-04-04T16:29:08.996Z</time></trkpt><trkpt lat="40.08567971040683" lon="18.066458628792272"><ele>58.0</ele><time>2026-04-04T16:29:09.996Z</time></trkpt><trkpt lat="40.08560680469206" lon="18.066441840161175"><ele>58.0</ele><time>2026-04-04T16:29:10.996Z</time></trkpt><trkpt lat="40.08552576193952" lon="18.066459102181334"><ele>58.0</ele><time>2026-04-04T16:29:11.996Z</time></trkpt><trkpt lat="40.0854415871505" lon="18.066510110357132"><ele>57.99999999999999</ele><time>2026-04-04T16:29:12.996Z</time></trkpt><trkpt lat="40.085349812988966" lon="18.066568956526503"><ele>58.0</ele><time>2026-04-04T16:29:13.996Z</time></trkpt><trkpt lat="40.08526085877201" lon="18.066607803411923"><ele>58.25</ele><time>2026-04-04T16:29:14.996Z</time></trkpt><trkpt lat="40.08516045704989" lon="18.0666169608558"><ele>58.5</ele><time>2026-04-04T16:29:15.996Z</time></trkpt><trkpt lat="40.0850464540851" lon="18.066615737816328"><ele>58.75</ele><time>2026-04-04T16:29:16.996Z</time></trkpt><trkpt lat="40.08491920306164" lon="18.066613588033125"><ele>59.0</ele><time>2026-04-04T16:29:17.996Z</time></trkpt><trkpt lat="40.08478454453829" lon="18.066621351604965"><ele>59.25</ele><time>2026-04-04T16:29:18.996Z</time></trkpt><trkpt lat="40.084659342240144" lon="18.066639624323177"><ele>59.5</ele><time>2026-04-04T16:29:19.996Z</time></trkpt><trkpt lat="40.08453138868484" lon="18.066646679113852"><ele>59.75</ele><time>2026-04-04T16:29:20.996Z</time></trkpt><trkpt lat="40.084400136914766" lon="18.066655537464026"><ele>60.0</ele><time>2026-04-04T16:29:21.996Z</time></trkpt><trkpt lat="40.08426255736481" lon="18.06666769912494"><ele>60.0</ele><time>2026-04-04T16:29:22.996Z</time></trkpt><trkpt lat="40.084116258567136" lon="18.06668549214858"><ele>60.0</ele><time>2026-04-04T16:29:23.996Z</time></trkpt><trkpt lat="40.08397007075061" lon="18.066709710332923"><ele>60.0</ele><time>2026-04-04T16:29:24.996Z</time></trkpt><trkpt lat="40.08381552622107" lon="18.066736259278628"><ele>59.33333333333333</ele><time>2026-04-04T16:29:25.996Z</time></trkpt><trkpt lat="40.08365310176782" lon="18.066772026056206"><ele>58.666666666666664</ele><time>2026-04-04T16:29:26.996Z</time></trkpt><trkpt lat="40.083496794461134" lon="18.066833693536054"><ele>58.0</ele><time>2026-04-04T16:29:27.996Z</time></trkpt><trkpt lat="40.08334123681788" lon="18.06691223273773"><ele>58.0</ele><time>2026-04-04T16:29:28.996Z</time></trkpt><trkpt lat="40.08317980266576" lon="18.066992144308706"><ele>58.0</ele><time>2026-04-04T16:29:29.996Z</time></trkpt><trkpt lat="40.08301132799923" lon="18.067072318319056"><ele>58.0</ele><time>2026-04-04T16:29:30.996Z</time></trkpt><trkpt lat="40.08284560684226" lon="18.067177740511468"><ele>58.0</ele><time>2026-04-04T16:29:31.996Z</time></trkpt><trkpt lat="40.082705332422535" lon="18.067298521633393"><ele>58.0</ele><time>2026-04-04T16:29:32.996Z</time></trkpt><trkpt lat="40.08258475758743" lon="18.06743597554913"><ele>58.0</ele><time>2026-04-04T16:29:33.996Z</time></trkpt><trkpt lat="40.08247941446144" lon="18.067583985139564"><ele>59.0</ele><time>2026-04-04T16:29:34.996Z</time></trkpt><trkpt lat="40.08203676370887" lon="18.06718349781609"><ele>59.0</ele><time>2026-04-04T16:29:35.996Z</time></trkpt><trkpt lat="40.08187435131622" lon="18.067204282236798"><ele>59.0</ele><time>2026-04-04T16:29:36.996Z</time></trkpt><trkpt lat="40.08169996240249" lon="18.067192187377774"><ele>59.0</ele><time>2026-04-04T16:29:37.996Z</time></trkpt><trkpt lat="40.081520801154426" lon="18.067150131116037"><ele>58.333333333333336</ele><time>2026-04-04T16:29:38.996Z</time></trkpt><trkpt lat="40.08134737570516" lon="18.067099271303604"><ele>57.66666666666667</ele><time>2026-04-04T16:29:39.996Z</time></trkpt><trkpt lat="40.08117523971545" lon="18.06703240983543"><ele>57.0</ele><time>2026-04-04T16:29:40.996Z</time></trkpt><trkpt lat="40.080999589461804" lon="18.066955916384828"><ele>57.0</ele><time>2026-04-04T16:29:41.996Z</time></trkpt><trkpt lat="40.08082138376618" lon="18.066873835469735"><ele>57.0</ele><time>2026-04-04T16:29:42.996Z</time></trkpt><trkpt lat="40.08064258122172" lon="18.066785539430988"><ele>57.0</ele><time>2026-04-04T16:29:43.996Z</time></trkpt><trkpt lat="40.080453580009184" lon="18.066711682372166"><ele>57.0</ele><time>2026-04-04T16:29:44.996Z</time></trkpt><trkpt lat="40.08026164436327" lon="18.06664522970127"><ele>57.0</ele><time>2026-04-04T16:29:45.996Z</time></trkpt><trkpt lat="40.080065187154" lon="18.066581743258524"><ele>57.0</ele><time>2026-04-04T16:29:46.996Z</time></trkpt><trkpt lat="40.079866933416184" lon="18.066516977049513"><ele>56.5</ele><time>2026-04-04T16:29:47.996Z</time></trkpt><trkpt lat="40.079653741264025" lon="18.066441450441175"><ele>56.0</ele><time>2026-04-04T16:29:48.996Z</time></trkpt><trkpt lat="40.07942300278951" lon="18.066361897054577"><ele>56.0</ele><time>2026-04-04T16:29:49.996Z</time></trkpt><trkpt lat="40.07917887134733" lon="18.066282874767374"><ele>56.0</ele><time>2026-04-04T16:29:50.996Z</time></trkpt><trkpt lat="40.07893335765824" lon="18.06620574402035"><ele>57.0</ele><time>2026-04-04T16:29:51.996Z</time></trkpt><trkpt lat="40.078687100249645" lon="18.066122938331546"><ele>58.0</ele><time>2026-04-04T16:29:52.996Z</time></trkpt><trkpt lat="40.07844088288922" lon="18.066044995448422"><ele>58.0</ele><time>2026-04-04T16:29:53.996Z</time></trkpt><trkpt lat="40.07821452317524" lon="18.06597166201649"><ele>58.0</ele><time>2026-04-04T16:29:54.996Z</time></trkpt><trkpt lat="40.0779975031912" lon="18.06591169638496"><ele>58.0</ele><time>2026-04-04T16:29:55.996Z</time></trkpt><trkpt lat="40.07776598111572" lon="18.06587617174549"><ele>58.0</ele><time>2026-04-04T16:29:56.996Z</time></trkpt><trkpt lat="40.07751275139007" lon="18.065869555334107"><ele>57.5</ele><time>2026-04-04T16:29:57.996Z</time></trkpt><trkpt lat="40.077251479804985" lon="18.06588576611229"><ele>57.0</ele><time>2026-04-04T16:29:58.996Z</time></trkpt><trkpt lat="40.07701934058034" lon="18.06588422090271"><ele>57.0</ele><time>2026-04-04T16:29:59.996Z</time></trkpt><trkpt lat="40.07680653338055" lon="18.065873730699554"><ele>57.0</ele><time>2026-04-04T16:30:00.996Z</time></trkpt><trkpt lat="40.0765880903683" lon="18.065840988770354"><ele>57.0</ele><time>2026-04-04T16:30:01.996Z</time></trkpt><trkpt lat="40.07636328127426" lon="18.065782941776728"><ele>57.0</ele><time>2026-04-04T16:30:02.996Z</time></trkpt><trkpt lat="40.07612070335828" lon="18.065681359062257"><ele>57.0</ele><time>2026-04-04T16:30:03.996Z</time></trkpt><trkpt lat="40.07587870903251" lon="18.065548700377597"><ele>57.0</ele><time>2026-04-04T16:30:04.996Z</time></trkpt><trkpt lat="40.07563082758751" lon="18.065389670779727"><ele>57.0</ele><time>2026-04-04T16:30:05.996Z</time></trkpt><trkpt lat="40.07537695880167" lon="18.065250689333585"><ele>57.0</ele><time>2026-04-04T16:30:06.996Z</time></trkpt><trkpt lat="40.07514766843421" lon="18.065139942800872"><ele>57.0</ele><time>2026-04-04T16:30:07.996Z</time></trkpt><trkpt lat="40.07493866435383" lon="18.06502549005672"><ele>56.33333333333333</ele><time>2026-04-04T16:30:08.996Z</time></trkpt><trkpt lat="40.074738449754285" lon="18.06491425044702"><ele>55.666666666666664</ele><time>2026-04-04T16:30:09.996Z</time></trkpt><trkpt lat="40.07453143957272" lon="18.064799738432924"><ele>55.0</ele><time>2026-04-04T16:30:10.996Z</time></trkpt><trkpt lat="40.074320683058495" lon="18.06469011423166"><ele>55.0</ele><time>2026-04-04T16:30:11.996Z</time></trkpt><trkpt lat="40.07411476844253" lon="18.064579941424295"><ele>55.0</ele><time>2026-04-04T16:30:12.996Z</time></trkpt><trkpt lat="40.073904615012225" lon="18.06446809832975"><ele>55.0</ele><time>2026-04-04T16:30:13.996Z</time></trkpt><trkpt lat="40.07367853514392" lon="18.06434381511789"><ele>55.5</ele><time>2026-04-04T16:30:14.996Z</time></trkpt><trkpt lat="40.073439603101065" lon="18.064214654798572"><ele>56.0</ele><time>2026-04-04T16:30:15.996Z</time></trkpt><trkpt lat="40.07320158314777" lon="18.064093736789932"><ele>55.0</ele><time>2026-04-04T16:30:16.996Z</time></trkpt><trkpt lat="40.07297788080941" lon="18.063977326719858"><ele>54.0</ele><time>2026-04-04T16:30:17.996Z</time></trkpt><trkpt lat="40.072756950792424" lon="18.063863450944837"><ele>54.0</ele><time>2026-04-04T16:30:18.996Z</time></trkpt><trkpt lat="40.07253386526262" lon="18.063744028866225"><ele>54.0</ele><time>2026-04-04T16:30:19.996Z</time></trkpt><trkpt lat="40.07230709457939" lon="18.063625718676132"><ele>54.0</ele><time>2026-04-04T16:30:20.996Z</time></trkpt><trkpt lat="40.07208236733167" lon="18.063507610049545"><ele>54.0</ele><time>2026-04-04T16:30:21.996Z</time></trkpt><trkpt lat="40.07185450313321" lon="18.063385340282395"><ele>54.0</ele><time>2026-04-04T16:30:22.996Z</time></trkpt><trkpt lat="40.071632905981915" lon="18.063267893897592"><ele>54.0</ele><time>2026-04-04T16:30:23.996Z</time></trkpt><trkpt lat="40.07142458700547" lon="18.063155122884787"><ele>54.0</ele><time>2026-04-04T16:30:24.996Z</time></trkpt><trkpt lat="40.07123600829224" lon="18.063054261643078"><ele>54.0</ele><time>2026-04-04T16:30:25.996Z</time></trkpt><trkpt lat="40.07104969777514" lon="18.06297166015749"><ele>54.0</ele><time>2026-04-04T16:30:26.996Z</time></trkpt><trkpt lat="40.070858088258504" lon="18.062900386091375"><ele>54.5</ele><time>2026-04-04T16:30:27.996Z</time></trkpt><trkpt lat="40.07065240320132" lon="18.062832189864366"><ele>55.0</ele><time>2026-04-04T16:30:28.996Z</time></trkpt><trkpt lat="40.070416778492536" lon="18.062782657281414"><ele>55.0</ele><time>2026-04-04T16:30:29.996Z</time></trkpt><trkpt lat="40.070170874411914" lon="18.062738260716618"><ele>55.0</ele><time>2026-04-04T16:30:30.996Z</time></trkpt><trkpt lat="40.06994497912366" lon="18.062686380000624"><ele>55.33333333333333</ele><time>2026-04-04T16:30:31.996Z</time></trkpt><trkpt lat="40.06974544734001" lon="18.062636880521115"><ele>55.66666666666667</ele><time>2026-04-04T16:30:32.996Z</time></trkpt><trkpt lat="40.069553800080975" lon="18.06259812161508"><ele>56.0</ele><time>2026-04-04T16:30:33.996Z</time></trkpt><trkpt lat="40.069374903157" lon="18.062566853934456"><ele>56.0</ele><time>2026-04-04T16:30:34.996Z</time></trkpt><trkpt lat="40.06919981220228" lon="18.06252047047431"><ele>56.0</ele><time>2026-04-04T16:30:35.996Z</time></trkpt><trkpt lat="40.069040680153286" lon="18.062468009175287"><ele>56.0</ele><time>2026-04-04T16:30:36.996Z</time></trkpt><trkpt lat="40.068883895755995" lon="18.062413968137783"><ele>56.0</ele><time>2026-04-04T16:30:37.996Z</time></trkpt><trkpt lat="40.06872245922038" lon="18.062341969269955"><ele>56.0</ele><time>2026-04-04T16:30:38.996Z</time></trkpt><trkpt lat="40.068571030837795" lon="18.062267310789213"><ele>56.0</ele><time>2026-04-04T16:30:39.996Z</time></trkpt><trkpt lat="40.068424929073075" lon="18.062202416159995"><ele>56.0</ele><time>2026-04-04T16:30:40.996Z</time></trkpt><trkpt lat="40.06828756123129" lon="18.062136620164846"><ele>56.0</ele><time>2026-04-04T16:30:41.996Z</time></trkpt><trkpt lat="40.06816637825641" lon="18.062066993474716"><ele>56.0</ele><time>2026-04-04T16:30:42.996Z</time></trkpt><trkpt lat="40.068057335583426" lon="18.062006680338072"><ele>56.0</ele><time>2026-04-04T16:30:43.996Z</time></trkpt><trkpt lat="40.06796320891804" lon="18.061946579182408"><ele>56.00000000000001</ele><time>2026-04-04T16:30:44.996Z</time></trkpt><trkpt lat="40.067878885961555" lon="18.061883979441472"><ele>56.0</ele><time>2026-04-04T16:30:45.996Z</time></trkpt><trkpt lat="40.06780785967261" lon="18.06182429163128"><ele>56.0</ele><time>2026-04-04T16:30:46.996Z</time></trkpt><trkpt lat="40.067750363667564" lon="18.06176786150949"><ele>56.0</ele><time>2026-04-04T16:30:47.997Z</time></trkpt><trkpt lat="40.06769022362728" lon="18.06168753441629"><ele>56.00000000000001</ele><time>2026-04-04T16:30:49.996Z</time></trkpt><trkpt lat="40.067611242413214" lon="18.061603165029577"><ele>56.0</ele><time>2026-04-04T16:30:53.996Z</time></trkpt><trkpt lat="40.067573857034944" lon="18.06152522231402"><ele>56.00000000000001</ele><time>2026-04-04T16:30:54.996Z</time></trkpt><trkpt lat="40.06751993008075" lon="18.06144930478876"><ele>56.0</ele><time>2026-04-04T16:30:55.996Z</time></trkpt><trkpt lat="40.0674689835348" lon="18.061371830390176"><ele>56.0</ele><time>2026-04-04T16:30:56.997Z</time></trkpt><trkpt lat="40.06741697590474" lon="18.061292557780426"><ele>56.0</ele><time>2026-04-04T16:30:57.997Z</time></trkpt><trkpt lat="40.06736094445248" lon="18.061205607219534"><ele>56.00000000000001</ele><time>2026-04-04T16:30:58.997Z</time></trkpt><trkpt lat="40.0673156061075" lon="18.06112981369138"><ele>56.0</ele><time>2026-04-04T16:30:59.997Z</time></trkpt><trkpt lat="40.06726614793782" lon="18.061054497158732"><ele>56.199999999999996</ele><time>2026-04-04T16:31:00.996Z</time></trkpt><trkpt lat="40.067219494473655" lon="18.060983400569825"><ele>56.39999999999999</ele><time>2026-04-04T16:31:01.996Z</time></trkpt><trkpt lat="40.06716683809172" lon="18.060889505917874"><ele>56.6</ele><time>2026-04-04T16:31:02.996Z</time></trkpt><trkpt lat="40.06710416190077" lon="18.060798234535223"><ele>56.8</ele><time>2026-04-04T16:31:03.996Z</time></trkpt><trkpt lat="40.067030369397116" lon="18.060683600991744"><ele>57.0</ele><time>2026-04-04T16:31:04.996Z</time></trkpt><trkpt lat="40.06696313475985" lon="18.060568553012295"><ele>56.5</ele><time>2026-04-04T16:31:05.996Z</time></trkpt><trkpt lat="40.06688834365094" lon="18.06045506561391"><ele>56.0</ele><time>2026-04-04T16:31:06.996Z</time></trkpt><trkpt lat="40.06679702392969" lon="18.06031541149094"><ele>55.5</ele><time>2026-04-04T16:31:07.996Z</time></trkpt><trkpt lat="40.0666834058743" lon="18.060163582668324"><ele>55.0</ele><time>2026-04-04T16:31:08.996Z</time></trkpt><trkpt lat="40.06656966710687" lon="18.059996581260197"><ele>55.0</ele><time>2026-04-04T16:31:09.996Z</time></trkpt><trkpt lat="40.06646178762884" lon="18.059813644428036"><ele>55.0</ele><time>2026-04-04T16:31:10.996Z</time></trkpt><trkpt lat="40.066362217283285" lon="18.059635176463004"><ele>55.0</ele><time>2026-04-04T16:31:11.996Z</time></trkpt><trkpt lat="40.06628111214053" lon="18.05948736315682"><ele>54.99999999999999</ele><time>2026-04-04T16:31:12.996Z</time></trkpt><trkpt lat="40.066209125660635" lon="18.059376970722436"><ele>55.0</ele><time>2026-04-04T16:31:13.996Z</time></trkpt><trkpt lat="40.06615237612975" lon="18.059290439206983"><ele>55.0</ele><time>2026-04-04T16:31:14.996Z</time></trkpt><trkpt lat="40.0661014503247" lon="18.059213453431187"><ele>55.0</ele><time>2026-04-04T16:31:15.996Z</time></trkpt><trkpt lat="40.066053445874196" lon="18.059144276084766"><ele>54.99999999999999</ele><time>2026-04-04T16:31:16.996Z</time></trkpt><trkpt lat="40.06599526264998" lon="18.059073560125647"><ele>55.0</ele><time>2026-04-04T16:31:17.996Z</time></trkpt><trkpt lat="40.06594203736079" lon="18.05899531746474"><ele>54.0</ele><time>2026-04-04T16:31:18.996Z</time></trkpt><trkpt lat="40.065899341601735" lon="18.058921373774165"><ele>54.0</ele><time>2026-04-04T16:31:19.996Z</time></trkpt><trkpt lat="40.06583663684845" lon="18.058815651087052"><ele>54.0</ele><time>2026-04-04T16:31:21.996Z</time></trkpt></trkseg><trkseg><trkpt lat="40.065974504552365" lon="18.0589388270074"><ele>54.0</ele><time>2026-04-04T17:01:20.996Z</time></trkpt><trkpt lat="40.066010333427556" lon="18.0590193500519"><ele>54.0</ele><time>2026-04-04T17:01:21.996Z</time></trkpt><trkpt lat="40.06606032687914" lon="18.059126499941367"><ele>54.0</ele><time>2026-04-04T17:01:22.996Z</time></trkpt><trkpt lat="40.066120971208775" lon="18.059232921137845"><ele>54.0</ele><time>2026-04-04T17:01:23.996Z</time></trkpt><trkpt lat="40.06615741544154" lon="18.059334952530424"><ele>54.0</ele><time>2026-04-04T17:01:24.996Z</time></trkpt><trkpt lat="40.06620057699512" lon="18.059420479365397"><ele>54.0</ele><time>2026-04-04T17:01:25.996Z</time></trkpt><trkpt lat="40.06624140895834" lon="18.05949537162883"><ele>54.2</ele><time>2026-04-04T17:01:26.996Z</time></trkpt><trkpt lat="40.06628616235253" lon="18.05958225782884"><ele>54.400000000000006</ele><time>2026-04-04T17:01:27.996Z</time></trkpt><trkpt lat="40.06634006702611" lon="18.059682753660155"><ele>54.6</ele><time>2026-04-04T17:01:28.996Z</time></trkpt><trkpt lat="40.066397646949824" lon="18.059801296620893"><ele>54.8</ele><time>2026-04-04T17:01:29.996Z</time></trkpt><trkpt lat="40.066465211186426" lon="18.05991233032216"><ele>55.0</ele><time>2026-04-04T17:01:30.996Z</time></trkpt><trkpt lat="40.06652932077811" lon="18.06001369829272"><ele>55.0</ele><time>2026-04-04T17:01:31.996Z</time></trkpt><trkpt lat="40.066597022768065" lon="18.0601203818806"><ele>55.0</ele><time>2026-04-04T17:01:32.996Z</time></trkpt><trkpt lat="40.06666371220384" lon="18.06022691381417"><ele>55.0</ele><time>2026-04-04T17:01:33.996Z</time></trkpt><trkpt lat="40.06672703433257" lon="18.060337907026323"><ele>55.0</ele><time>2026-04-04T17:01:34.996Z</time></trkpt><trkpt lat="40.06679019975799" lon="18.06045623798874"><ele>55.0</ele><time>2026-04-04T17:01:35.996Z</time></trkpt><trkpt lat="40.06685534808806" lon="18.060562717487805"><ele>55.0</ele><time>2026-04-04T17:01:36.996Z</time></trkpt><trkpt lat="40.06691775954927" lon="18.06067799727222"><ele>55.0</ele><time>2026-04-04T17:01:37.996Z</time></trkpt><trkpt lat="40.06698264833015" lon="18.060784663483826"><ele>55.0</ele><time>2026-04-04T17:01:38.996Z</time></trkpt><trkpt lat="40.06703959863617" lon="18.06088201946066"><ele>55.0</ele><time>2026-04-04T17:01:39.996Z</time></trkpt><trkpt lat="40.06709746931954" lon="18.060975701723454"><ele>55.0</ele><time>2026-04-04T17:01:40.996Z</time></trkpt><trkpt lat="40.067148487494556" lon="18.0610649690063"><ele>55.4</ele><time>2026-04-04T17:01:41.996Z</time></trkpt><trkpt lat="40.06719358147116" lon="18.061137413180337"><ele>55.8</ele><time>2026-04-04T17:01:42.996Z</time></trkpt><trkpt lat="40.06726544070357" lon="18.061247408929354"><ele>56.2</ele><time>2026-04-04T17:01:44.996Z</time></trkpt><trkpt lat="40.06733234322083" lon="18.061362571260474"><ele>56.6</ele><time>2026-04-04T17:01:46.996Z</time></trkpt><trkpt lat="40.067367856281145" lon="18.061432998932755"><ele>57.0</ele><time>2026-04-04T17:01:47.996Z</time></trkpt><trkpt lat="40.067394907778656" lon="18.06159040855776"><ele>57.0</ele><time>2026-04-04T17:01:49.996Z</time></trkpt><trkpt lat="40.06738413767842" lon="18.061693107393925"><ele>57.0</ele><time>2026-04-04T17:01:50.996Z</time></trkpt><trkpt lat="40.067380197421414" lon="18.06181587006258"><ele>57.0</ele><time>2026-04-04T17:01:51.996Z</time></trkpt><trkpt lat="40.06738591679563" lon="18.06194058112066"><ele>57.0</ele><time>2026-04-04T17:01:52.996Z</time></trkpt><trkpt lat="40.067396292590686" lon="18.06205645407147"><ele>57.0</ele><time>2026-04-04T17:01:53.996Z</time></trkpt><trkpt lat="40.06739771848755" lon="18.062161116846234"><ele>57.0</ele><time>2026-04-04T17:01:54.996Z</time></trkpt><trkpt lat="40.067404592796805" lon="18.062266694261552"><ele>57.0</ele><time>2026-04-04T17:01:55.996Z</time></trkpt><trkpt lat="40.06740673406823" lon="18.062369376834948"><ele>57.0</ele><time>2026-04-04T17:01:56.996Z</time></trkpt><trkpt lat="40.06737821275704" lon="18.0624652062157"><ele>57.0</ele><time>2026-04-04T17:01:57.996Z</time></trkpt><trkpt lat="40.06735621529663" lon="18.062568782179774"><ele>57.0</ele><time>2026-04-04T17:02:00.996Z</time></trkpt><trkpt lat="40.06733667544235" lon="18.062675994411016"><ele>57.0</ele><time>2026-04-04T17:02:03.996Z</time></trkpt><trkpt lat="40.06732148926043" lon="18.062758597470054"><ele>57.0</ele><time>2026-04-04T17:02:05.996Z</time></trkpt><trkpt lat="40.06730398469899" lon="18.062846971058757"><ele>57.0</ele><time>2026-04-04T17:02:07.996Z</time></trkpt><trkpt lat="40.06727688623617" lon="18.06294976653876"><ele>57.0</ele><time>2026-04-04T17:02:09.996Z</time></trkpt><trkpt lat="40.067249066877736" lon="18.063040503479463"><ele>57.0</ele><time>2026-04-04T17:02:11.996Z</time></trkpt><trkpt lat="40.067227118789035" lon="18.063132386657536"><ele>57.0</ele><time>2026-04-04T17:02:13.996Z</time></trkpt><trkpt lat="40.06719799544159" lon="18.063231189748553"><ele>57.0</ele><time>2026-04-04T17:02:15.996Z</time></trkpt><trkpt lat="40.06716390205611" lon="18.063343440525163"><ele>57.0</ele><time>2026-04-04T17:02:17.996Z</time></trkpt><trkpt lat="40.06712369448991" lon="18.06351419329453"><ele>57.0</ele><time>2026-04-04T17:02:19.996Z</time></trkpt><trkpt lat="40.06709526431293" lon="18.06361793707105"><ele>57.0</ele><time>2026-04-04T17:02:20.997Z</time></trkpt><trkpt lat="40.06705821208761" lon="18.063734390641297"><ele>57.0</ele><time>2026-04-04T17:02:21.996Z</time></trkpt><trkpt lat="40.067022419947385" lon="18.063854327346792"><ele>57.0</ele><time>2026-04-04T17:02:22.996Z</time></trkpt><trkpt lat="40.06697848994449" lon="18.063978932550683"><ele>57.0</ele><time>2026-04-04T17:02:23.997Z</time></trkpt><trkpt lat="40.066921504547956" lon="18.064115294558494"><ele>57.25</ele><time>2026-04-04T17:02:24.997Z</time></trkpt><trkpt lat="40.06686148468774" lon="18.064267986382223"><ele>57.5</ele><time>2026-04-04T17:02:25.997Z</time></trkpt><trkpt lat="40.06679593706083" lon="18.064446068639512"><ele>57.75</ele><time>2026-04-04T17:02:26.997Z</time></trkpt><trkpt lat="40.06673056626403" lon="18.064639247321008"><ele>58.0</ele><time>2026-04-04T17:02:27.997Z</time></trkpt><trkpt lat="40.06668669539219" lon="18.06482607025479"><ele>58.5</ele><time>2026-04-04T17:02:28.997Z</time></trkpt><trkpt lat="40.06664883017598" lon="18.06501004213856"><ele>59.0</ele><time>2026-04-04T17:02:29.997Z</time></trkpt><trkpt lat="40.06661799300955" lon="18.06519274902157"><ele>59.5</ele><time>2026-04-04T17:02:30.997Z</time></trkpt><trkpt lat="40.066587388877565" lon="18.065375290906996"><ele>60.0</ele><time>2026-04-04T17:02:31.997Z</time></trkpt><trkpt lat="40.066557198690916" lon="18.065539652415882"><ele>60.25</ele><time>2026-04-04T17:02:32.997Z</time></trkpt><trkpt lat="40.06652984149763" lon="18.065701603821598"><ele>60.5</ele><time>2026-04-04T17:02:33.997Z</time></trkpt><trkpt lat="40.066496823175264" lon="18.0658661736235"><ele>60.75</ele><time>2026-04-04T17:02:34.997Z</time></trkpt><trkpt lat="40.06646261012806" lon="18.06602850452342"><ele>61.0</ele><time>2026-04-04T17:02:35.997Z</time></trkpt><trkpt lat="40.06643437035105" lon="18.066186403025576"><ele>61.0</ele><time>2026-04-04T17:02:36.997Z</time></trkpt><trkpt lat="40.06640342758069" lon="18.066334565814394"><ele>61.0</ele><time>2026-04-04T17:02:37.997Z</time></trkpt><trkpt lat="40.06637619148568" lon="18.066487580949758"><ele>61.0</ele><time>2026-04-04T17:02:38.997Z</time></trkpt><trkpt lat="40.06635374958111" lon="18.06662954429204"><ele>61.0</ele><time>2026-04-04T17:02:39.997Z</time></trkpt><trkpt lat="40.06632980898267" lon="18.066758438481084"><ele>61.666666666666664</ele><time>2026-04-04T17:02:40.997Z</time></trkpt><trkpt lat="40.0663061835714" lon="18.066874763741758"><ele>62.33333333333333</ele><time>2026-04-04T17:02:41.997Z</time></trkpt><trkpt lat="40.06629331784791" lon="18.066976629191515"><ele>63.0</ele><time>2026-04-04T17:02:42.997Z</time></trkpt><trkpt lat="40.066284503164106" lon="18.067067399530124"><ele>63.66666666666667</ele><time>2026-04-04T17:02:43.997Z</time></trkpt><trkpt lat="40.066273132975184" lon="18.067160185100654"><ele>64.33333333333334</ele><time>2026-04-04T17:02:44.997Z</time></trkpt><trkpt lat="40.06630130552622" lon="18.067282337886525"><ele>65.0</ele><time>2026-04-04T17:02:45.997Z</time></trkpt><trkpt lat="40.066343473263856" lon="18.06743195945097"><ele>65.0</ele><time>2026-04-04T17:02:46.997Z</time></trkpt><trkpt lat="40.06640661550949" lon="18.06758252569486"><ele>65.0</ele><time>2026-04-04T17:02:47.997Z</time></trkpt><trkpt lat="40.06649296411534" lon="18.06772622645611"><ele>65.0</ele><time>2026-04-04T17:02:48.996Z</time></trkpt><trkpt lat="40.066572655840986" lon="18.067878375575585"><ele>65.0</ele><time>2026-04-04T17:02:49.996Z</time></trkpt><trkpt lat="40.06665283658666" lon="18.068037192973488"><ele>65.0</ele><time>2026-04-04T17:02:50.996Z</time></trkpt><trkpt lat="40.06673467131866" lon="18.068207926550677"><ele>65.0</ele><time>2026-04-04T17:02:51.996Z</time></trkpt><trkpt lat="40.066819437349686" lon="18.06838054942328"><ele>65.0</ele><time>2026-04-04T17:02:52.996Z</time></trkpt><trkpt lat="40.06691288271168" lon="18.068561761104387"><ele>65.0</ele><time>2026-04-04T17:02:53.996Z</time></trkpt><trkpt lat="40.0670050749507" lon="18.068759110776284"><ele>65.0</ele><time>2026-04-04T17:02:54.996Z</time></trkpt><trkpt lat="40.067100564045084" lon="18.06895281625033"><ele>65.0</ele><time>2026-04-04T17:02:55.996Z</time></trkpt><trkpt lat="40.06719175453461" lon="18.069143352967465"><ele>65.33333333333334</ele><time>2026-04-04T17:02:56.996Z</time></trkpt><trkpt lat="40.06728908567715" lon="18.06933435641284"><ele>65.66666666666667</ele><time>2026-04-04T17:02:57.996Z</time></trkpt><trkpt lat="40.067378153029395" lon="18.06953921265748"><ele>66.0</ele><time>2026-04-04T17:02:58.996Z</time></trkpt><trkpt lat="40.067462598119974" lon="18.069746301978153"><ele>66.0</ele><time>2026-04-04T17:02:59.996Z</time></trkpt><trkpt lat="40.067545809471405" lon="18.069951951355385"><ele>66.0</ele><time>2026-04-04T17:03:00.996Z</time></trkpt><trkpt lat="40.06762278948575" lon="18.070161282227655"><ele>66.0</ele><time>2026-04-04T17:03:01.996Z</time></trkpt><trkpt lat="40.0676877570059" lon="18.070379946606202"><ele>66.0</ele><time>2026-04-04T17:03:02.996Z</time></trkpt><trkpt lat="40.06774767101135" lon="18.070608536474516"><ele>66.0</ele><time>2026-04-04T17:03:03.996Z</time></trkpt><trkpt lat="40.06781121271736" lon="18.070834048290365"><ele>66.0</ele><time>2026-04-04T17:03:04.996Z</time></trkpt><trkpt lat="40.06788635336415" lon="18.07105726277852"><ele>66.0</ele><time>2026-04-04T17:03:05.996Z</time></trkpt><trkpt lat="40.06796925630144" lon="18.07128924882423"><ele>66.0</ele><time>2026-04-04T17:03:06.996Z</time></trkpt><trkpt lat="40.06804804265014" lon="18.071519316204213"><ele>66.0</ele><time>2026-04-04T17:03:07.996Z</time></trkpt><trkpt lat="40.068130893849904" lon="18.071737874316884"><ele>65.66666666666667</ele><time>2026-04-04T17:03:08.996Z</time></trkpt><trkpt lat="40.06822061980931" lon="18.071976195630892"><ele>65.33333333333334</ele><time>2026-04-04T17:03:09.996Z</time></trkpt><trkpt lat="40.068308597994665" lon="18.07220289082435"><ele>65.0</ele><time>2026-04-04T17:03:10.996Z</time></trkpt><trkpt lat="40.06839911973138" lon="18.07242398199203"><ele>64.66666666666667</ele><time>2026-04-04T17:03:11.996Z</time></trkpt><trkpt lat="40.06848885048842" lon="18.07263096460124"><ele>64.33333333333333</ele><time>2026-04-04T17:03:12.996Z</time></trkpt><trkpt lat="40.06858472038209" lon="18.072827763178815"><ele>64.0</ele><time>2026-04-04T17:03:13.996Z</time></trkpt><trkpt lat="40.06868644907965" lon="18.073015280695504"><ele>64.0</ele><time>2026-04-04T17:03:14.996Z</time></trkpt><trkpt lat="40.06879527026548" lon="18.073196171704044"><ele>64.0</ele><time>2026-04-04T17:03:15.996Z</time></trkpt><trkpt lat="40.068896252626054" lon="18.073376014052375"><ele>64.0</ele><time>2026-04-04T17:03:16.996Z</time></trkpt><trkpt lat="40.068989908154926" lon="18.073567262457367"><ele>64.0</ele><time>2026-04-04T17:03:17.996Z</time></trkpt><trkpt lat="40.0690686229401" lon="18.073753668924933"><ele>64.0</ele><time>2026-04-04T17:03:18.996Z</time></trkpt><trkpt lat="40.06914083227159" lon="18.07395024682346"><ele>64.0</ele><time>2026-04-04T17:03:19.996Z</time></trkpt><trkpt lat="40.06920801113556" lon="18.074156799053704"><ele>64.0</ele><time>2026-04-04T17:03:20.996Z</time></trkpt><trkpt lat="40.06926404037491" lon="18.0743622541609"><ele>64.0</ele><time>2026-04-04T17:03:21.996Z</time></trkpt><trkpt lat="40.06931778274987" lon="18.074569702296543"><ele>64.0</ele><time>2026-04-04T17:03:22.996Z</time></trkpt><trkpt lat="40.0693685467343" lon="18.074764165650222"><ele>64.0</ele><time>2026-04-04T17:03:23.996Z</time></trkpt><trkpt lat="40.06940841990754" lon="18.074954783655155"><ele>64.0</ele><time>2026-04-04T17:03:24.996Z</time></trkpt><trkpt lat="40.06944001464237" lon="18.075149134759318"><ele>64.0</ele><time>2026-04-04T17:03:25.996Z</time></trkpt><trkpt lat="40.069445573593576" lon="18.075363595372373"><ele>64.0</ele><time>2026-04-04T17:03:26.996Z</time></trkpt><trkpt lat="40.069456136534065" lon="18.075577030134156"><ele>64.0</ele><time>2026-04-04T17:03:27.996Z</time></trkpt><trkpt lat="40.069471610605845" lon="18.075790327812335"><ele>64.0</ele><time>2026-04-04T17:03:28.996Z</time></trkpt><trkpt lat="40.069487393326746" lon="18.076011590146006"><ele>64.0</ele><time>2026-04-04T17:03:29.996Z</time></trkpt><trkpt lat="40.069510588527926" lon="18.076232244276216"><ele>64.0</ele><time>2026-04-04T17:03:30.996Z</time></trkpt><trkpt lat="40.06953951066652" lon="18.07644800532663"><ele>64.0</ele><time>2026-04-04T17:03:31.996Z</time></trkpt><trkpt lat="40.069570205672015" lon="18.076665806559824"><ele>64.0</ele><time>2026-04-04T17:03:32.996Z</time></trkpt><trkpt lat="40.06960188062219" lon="18.07688250102972"><ele>64.0</ele><time>2026-04-04T17:03:33.996Z</time></trkpt><trkpt lat="40.06963608909987" lon="18.07709733871418"><ele>64.0</ele><time>2026-04-04T17:03:34.996Z</time></trkpt><trkpt lat="40.06967013067519" lon="18.077313014165366"><ele>64.33333333333333</ele><time>2026-04-04T17:03:35.996Z</time></trkpt><trkpt lat="40.06970769716491" lon="18.077511780533197"><ele>64.66666666666667</ele><time>2026-04-04T17:03:36.996Z</time></trkpt><trkpt lat="40.0697474260613" lon="18.077702992978775"><ele>65.0</ele><time>2026-04-04T17:03:37.996Z</time></trkpt><trkpt lat="40.06979025317386" lon="18.077902596124957"><ele>65.0</ele><time>2026-04-04T17:03:38.996Z</time></trkpt><trkpt lat="40.06984253539034" lon="18.078101488127302"><ele>65.0</ele><time>2026-04-04T17:03:39.996Z</time></trkpt><trkpt lat="40.069917136642026" lon="18.078291566910515"><ele>65.0</ele><time>2026-04-04T17:03:40.996Z</time></trkpt><trkpt lat="40.069994278137266" lon="18.078475490560272"><ele>64.66666666666667</ele><time>2026-04-04T17:03:41.996Z</time></trkpt><trkpt lat="40.0700790618435" lon="18.078668266573036"><ele>64.33333333333333</ele><time>2026-04-04T17:03:42.996Z</time></trkpt><trkpt lat="40.070162863559254" lon="18.078866359483282"><ele>64.0</ele><time>2026-04-04T17:03:43.996Z</time></trkpt><trkpt lat="40.07024278869716" lon="18.07906592384872"><ele>64.0</ele><time>2026-04-04T17:03:44.996Z</time></trkpt><trkpt lat="40.07031791319155" lon="18.079259259152074"><ele>64.0</ele><time>2026-04-04T17:03:45.996Z</time></trkpt><trkpt lat="40.07038208052789" lon="18.07945397476723"><ele>64.0</ele><time>2026-04-04T17:03:46.996Z</time></trkpt><trkpt lat="40.07043964051933" lon="18.07964003866317"><ele>64.0</ele><time>2026-04-04T17:03:47.996Z</time></trkpt><trkpt lat="40.070488526602986" lon="18.07982729273326"><ele>64.0</ele><time>2026-04-04T17:03:48.996Z</time></trkpt><trkpt lat="40.07052393382665" lon="18.080031125868157"><ele>64.0</ele><time>2026-04-04T17:03:49.996Z</time></trkpt><trkpt lat="40.07054975907234" lon="18.080236450139164"><ele>64.33333333333333</ele><time>2026-04-04T17:03:50.996Z</time></trkpt><trkpt lat="40.07056538875141" lon="18.080447699107022"><ele>64.66666666666667</ele><time>2026-04-04T17:03:51.996Z</time></trkpt><trkpt lat="40.07056577641987" lon="18.080682447857008"><ele>65.0</ele><time>2026-04-04T17:03:52.996Z</time></trkpt><trkpt lat="40.0705531514264" lon="18.080916840489046"><ele>65.0</ele><time>2026-04-04T17:03:53.996Z</time></trkpt><trkpt lat="40.070540435696095" lon="18.081132262368627"><ele>65.0</ele><time>2026-04-04T17:03:54.996Z</time></trkpt><trkpt lat="40.07052903282503" lon="18.08134538282717"><ele>65.0</ele><time>2026-04-04T17:03:55.996Z</time></trkpt><trkpt lat="40.070520007027085" lon="18.08155815332052"><ele>65.0</ele><time>2026-04-04T17:03:56.996Z</time></trkpt><trkpt lat="40.07050617850391" lon="18.08176521426298"><ele>65.0</ele><time>2026-04-04T17:03:57.996Z</time></trkpt><trkpt lat="40.07049960424868" lon="18.081963593810926"><ele>65.0</ele><time>2026-04-04T17:03:58.996Z</time></trkpt><trkpt lat="40.070493102013714" lon="18.082159840066197"><ele>65.0</ele><time>2026-04-04T17:03:59.996Z</time></trkpt><trkpt lat="40.07048500430484" lon="18.082350501461953"><ele>65.0</ele><time>2026-04-04T17:04:00.996Z</time></trkpt><trkpt lat="40.070483602901774" lon="18.082543540201193"><ele>65.0</ele><time>2026-04-04T17:04:01.996Z</time></trkpt><trkpt lat="40.07049102498047" lon="18.08273998950647"><ele>65.0</ele><time>2026-04-04T17:04:02.996Z</time></trkpt><trkpt lat="40.070515118490164" lon="18.082936760095606"><ele>65.0</ele><time>2026-04-04T17:04:03.996Z</time></trkpt><trkpt lat="40.07055094657841" lon="18.083138822335307"><ele>65.0</ele><time>2026-04-04T17:04:04.996Z</time></trkpt><trkpt lat="40.07060015917407" lon="18.08334635874083"><ele>65.0</ele><time>2026-04-04T17:04:05.996Z</time></trkpt><trkpt lat="40.07066113464021" lon="18.083538648085838"><ele>65.0</ele><time>2026-04-04T17:04:06.996Z</time></trkpt><trkpt lat="40.0707389735195" lon="18.08372483363952"><ele>65.0</ele><time>2026-04-04T17:04:07.996Z</time></trkpt><trkpt lat="40.07081378244157" lon="18.08390384737912"><ele>65.0</ele><time>2026-04-04T17:04:08.996Z</time></trkpt><trkpt lat="40.07086367164082" lon="18.084120014991086"><ele>65.25</ele><time>2026-04-04T17:04:09.996Z</time></trkpt><trkpt lat="40.07093637783599" lon="18.08428947729856"><ele>65.5</ele><time>2026-04-04T17:04:10.996Z</time></trkpt><trkpt lat="40.07100727735801" lon="18.08445605940618"><ele>65.75</ele><time>2026-04-04T17:04:11.996Z</time></trkpt><trkpt lat="40.07107288096979" lon="18.084620166918526"><ele>66.0</ele><time>2026-04-04T17:04:12.996Z</time></trkpt><trkpt lat="40.07113807091218" lon="18.08479247913267"><ele>66.0</ele><time>2026-04-04T17:04:13.996Z</time></trkpt><trkpt lat="40.07120611600474" lon="18.08496575623222"><ele>66.0</ele><time>2026-04-04T17:04:14.996Z</time></trkpt><trkpt lat="40.07127156382705" lon="18.08514466786984"><ele>66.0</ele><time>2026-04-04T17:04:15.996Z</time></trkpt><trkpt lat="40.07133156116047" lon="18.085330713904472"><ele>66.0</ele><time>2026-04-04T17:04:16.996Z</time></trkpt><trkpt lat="40.071386659503965" lon="18.085527827593417"><ele>66.0</ele><time>2026-04-04T17:04:17.996Z</time></trkpt><trkpt lat="40.0714332125653" lon="18.08571608071603"><ele>66.0</ele><time>2026-04-04T17:04:18.996Z</time></trkpt><trkpt lat="40.071476749559174" lon="18.08590569560988"><ele>66.66666666666667</ele><time>2026-04-04T17:04:19.996Z</time></trkpt><trkpt lat="40.07151412597731" lon="18.086096175199824"><ele>67.33333333333334</ele><time>2026-04-04T17:04:20.996Z</time></trkpt><trkpt lat="40.071547108569355" lon="18.086292136911275"><ele>68.0</ele><time>2026-04-04T17:04:21.996Z</time></trkpt><trkpt lat="40.0715745345431" lon="18.086489568066376"><ele>68.0</ele><time>2026-04-04T17:04:22.996Z</time></trkpt><trkpt lat="40.0716004204407" lon="18.086689552408064"><ele>68.0</ele><time>2026-04-04T17:04:23.996Z</time></trkpt><trkpt lat="40.07162194893451" lon="18.086895645412174"><ele>68.0</ele><time>2026-04-04T17:04:24.996Z</time></trkpt><trkpt lat="40.07163662887732" lon="18.08710280769029"><ele>68.0</ele><time>2026-04-04T17:04:25.996Z</time></trkpt><trkpt lat="40.07164056070957" lon="18.087302692261744"><ele>68.0</ele><time>2026-04-04T17:04:26.997Z</time></trkpt><trkpt lat="40.0716413699363" lon="18.08749985660257"><ele>68.0</ele><time>2026-04-04T17:04:27.996Z</time></trkpt><trkpt lat="40.071640121290116" lon="18.087693031637823"><ele>68.0</ele><time>2026-04-04T17:04:28.996Z</time></trkpt><trkpt lat="40.071637471102804" lon="18.087873758229524"><ele>68.0</ele><time>2026-04-04T17:04:29.997Z</time></trkpt><trkpt lat="40.071641905544666" lon="18.0880583198907"><ele>68.0</ele><time>2026-04-04T17:04:30.996Z</time></trkpt><trkpt lat="40.07164633750073" lon="18.0882215259265"><ele>68.0</ele><time>2026-04-04T17:04:31.996Z</time></trkpt><trkpt lat="40.07164249238693" lon="18.088346224851158"><ele>67.8</ele><time>2026-04-04T17:04:32.997Z</time></trkpt><trkpt lat="40.07163873487303" lon="18.088482125347923"><ele>67.6</ele><time>2026-04-04T17:04:34.997Z</time></trkpt><trkpt lat="40.0716155833849" lon="18.08863769050963"><ele>67.4</ele><time>2026-04-04T17:04:36.997Z</time></trkpt><trkpt lat="40.07159428288776" lon="18.08873578228561"><ele>67.2</ele><time>2026-04-04T17:04:37.997Z</time></trkpt><trkpt lat="40.07154937030794" lon="18.088822736930044"><ele>67.0</ele><time>2026-04-04T17:04:38.997Z</time></trkpt><trkpt lat="40.071501712576605" lon="18.088918454310626"><ele>67.0</ele><time>2026-04-04T17:04:39.997Z</time></trkpt><trkpt lat="40.07146044038489" lon="18.089018110969125"><ele>67.0</ele><time>2026-04-04T17:04:40.997Z</time></trkpt><trkpt lat="40.071431871340614" lon="18.089120972131138"><ele>67.0</ele><time>2026-04-04T17:04:41.997Z</time></trkpt><trkpt lat="40.071373039874175" lon="18.0891888054915"><ele>67.0</ele><time>2026-04-04T17:04:42.997Z</time></trkpt><trkpt lat="40.07129579327409" lon="18.08926854691625"><ele>67.0</ele><time>2026-04-04T17:04:43.997Z</time></trkpt><trkpt lat="40.07120985475177" lon="18.089365403155636"><ele>66.75</ele><time>2026-04-04T17:04:44.997Z</time></trkpt><trkpt lat="40.07110498207824" lon="18.08946986580232"><ele>66.5</ele><time>2026-04-04T17:04:45.997Z</time></trkpt><trkpt lat="40.071005633225056" lon="18.08957631141138"><ele>66.25</ele><time>2026-04-04T17:04:46.997Z</time></trkpt><trkpt lat="40.070914059746706" lon="18.089675034918315"><ele>66.0</ele><time>2026-04-04T17:04:47.997Z</time></trkpt><trkpt lat="40.07082701079764" lon="18.08978669950378"><ele>66.0</ele><time>2026-04-04T17:04:48.997Z</time></trkpt><trkpt lat="40.07071968956405" lon="18.089915279111263"><ele>66.0</ele><time>2026-04-04T17:04:49.997Z</time></trkpt><trkpt lat="40.07060045024977" lon="18.09008306018751"><ele>66.0</ele><time>2026-04-04T17:04:50.997Z</time></trkpt><trkpt lat="40.07045022043794" lon="18.09023607675949"><ele>66.0</ele><time>2026-04-04T17:04:51.997Z</time></trkpt><trkpt lat="40.07029285611683" lon="18.090394357327696"><ele>66.0</ele><time>2026-04-04T17:04:52.997Z</time></trkpt><trkpt lat="40.07013030760583" lon="18.09055509107682"><ele>66.0</ele><time>2026-04-04T17:04:53.997Z</time></trkpt><trkpt lat="40.069966648623115" lon="18.090726165165275"><ele>65.66666666666667</ele><time>2026-04-04T17:04:54.997Z</time></trkpt><trkpt lat="40.06980272384872" lon="18.090892495200073"><ele>65.33333333333334</ele><time>2026-04-04T17:04:55.997Z</time></trkpt><trkpt lat="40.06964639019063" lon="18.091067221453972"><ele>65.0</ele><time>2026-04-04T17:04:56.997Z</time></trkpt><trkpt lat="40.069490242097686" lon="18.091231877754232"><ele>65.0</ele><time>2026-04-04T17:04:57.997Z</time></trkpt><trkpt lat="40.06933721060857" lon="18.091398223426427"><ele>65.0</ele><time>2026-04-04T17:04:58.997Z</time></trkpt><trkpt lat="40.06918314144153" lon="18.09156179682659"><ele>65.0</ele><time>2026-04-04T17:04:59.997Z</time></trkpt><trkpt lat="40.06903179402257" lon="18.09172171233302"><ele>65.0</ele><time>2026-04-04T17:05:00.997Z</time></trkpt><trkpt lat="40.06888231223828" lon="18.091890547939734"><ele>65.0</ele><time>2026-04-04T17:05:01.997Z</time></trkpt><trkpt lat="40.068735293576104" lon="18.09205046181245"><ele>65.0</ele><time>2026-04-04T17:05:02.997Z</time></trkpt><trkpt lat="40.0685858261315" lon="18.092206979361254"><ele>65.0</ele><time>2026-04-04T17:05:03.997Z</time></trkpt><trkpt lat="40.06843589017194" lon="18.0923667022476"><ele>65.0</ele><time>2026-04-04T17:05:04.997Z</time></trkpt><trkpt lat="40.06828046849266" lon="18.092530507752027"><ele>65.0</ele><time>2026-04-04T17:05:05.997Z</time></trkpt><trkpt lat="40.06812532715132" lon="18.092695503843085"><ele>64.33333333333334</ele><time>2026-04-04T17:05:06.997Z</time></trkpt><trkpt lat="40.06796423264639" lon="18.09286592473639"><ele>63.66666666666667</ele><time>2026-04-04T17:05:07.997Z</time></trkpt><trkpt lat="40.06781037511191" lon="18.093041759594907"><ele>63.0</ele><time>2026-04-04T17:05:08.997Z</time></trkpt><trkpt lat="40.06765563867591" lon="18.093211441400715"><ele>63.0</ele><time>2026-04-04T17:05:09.997Z</time></trkpt><trkpt lat="40.06750977929224" lon="18.093374059268104"><ele>63.0</ele><time>2026-04-04T17:05:10.997Z</time></trkpt><trkpt lat="40.06736693945745" lon="18.093545970527053"><ele>63.0</ele><time>2026-04-04T17:05:11.997Z</time></trkpt><trkpt lat="40.067233893497985" lon="18.093733204744407"><ele>62.33333333333333</ele><time>2026-04-04T17:05:12.997Z</time></trkpt><trkpt lat="40.067109735295475" lon="18.0939441437802"><ele>61.666666666666664</ele><time>2026-04-04T17:05:13.997Z</time></trkpt><trkpt lat="40.06700071239596" lon="18.09416371805349"><ele>61.0</ele><time>2026-04-04T17:05:14.997Z</time></trkpt><trkpt lat="40.06689389280219" lon="18.094381303075778"><ele>61.0</ele><time>2026-04-04T17:05:15.997Z</time></trkpt><trkpt lat="40.06678314284494" lon="18.094609874667917"><ele>61.0</ele><time>2026-04-04T17:05:16.997Z</time></trkpt><trkpt lat="40.06667219149018" lon="18.09483726932218"><ele>61.0</ele><time>2026-04-04T17:05:17.997Z</time></trkpt><trkpt lat="40.066562184285374" lon="18.09505926959361"><ele>60.666666666666664</ele><time>2026-04-04T17:05:18.997Z</time></trkpt><trkpt lat="40.06644991317112" lon="18.095284090892537"><ele>60.33333333333333</ele><time>2026-04-04T17:05:19.997Z</time></trkpt><trkpt lat="40.06633523339585" lon="18.095508850708985"><ele>60.0</ele><time>2026-04-04T17:05:20.997Z</time></trkpt><trkpt lat="40.06622381203801" lon="18.09573887649251"><ele>60.0</ele><time>2026-04-04T17:05:21.997Z</time></trkpt><trkpt lat="40.06611115301687" lon="18.09596632685597"><ele>60.0</ele><time>2026-04-04T17:05:22.997Z</time></trkpt><trkpt lat="40.066000158922904" lon="18.096189133154308"><ele>60.0</ele><time>2026-04-04T17:05:23.997Z</time></trkpt><trkpt lat="40.06588811669399" lon="18.09641283965978"><ele>60.0</ele><time>2026-04-04T17:05:24.997Z</time></trkpt><trkpt lat="40.0657842176841" lon="18.096631364469086"><ele>60.0</ele><time>2026-04-04T17:05:25.997Z</time></trkpt><trkpt lat="40.06567699604215" lon="18.096839717642098"><ele>60.0</ele><time>2026-04-04T17:05:26.997Z</time></trkpt><trkpt lat="40.06557227139592" lon="18.09704411675645"><ele>60.0</ele><time>2026-04-04T17:05:27.997Z</time></trkpt><trkpt lat="40.065464902200155" lon="18.097249389787677"><ele>60.0</ele><time>2026-04-04T17:05:28.997Z</time></trkpt><trkpt lat="40.065366119513065" lon="18.097460701188755"><ele>60.0</ele><time>2026-04-04T17:05:29.997Z</time></trkpt><trkpt lat="40.06528032092756" lon="18.097676410443082"><ele>60.0</ele><time>2026-04-04T17:05:30.997Z</time></trkpt><trkpt lat="40.06521270532622" lon="18.097905028633413"><ele>60.0</ele><time>2026-04-04T17:05:31.997Z</time></trkpt><trkpt lat="40.06516648724319" lon="18.098134888297285"><ele>60.0</ele><time>2026-04-04T17:05:32.997Z</time></trkpt><trkpt lat="40.06513686329144" lon="18.09834889843189"><ele>59.66666666666667</ele><time>2026-04-04T17:05:33.997Z</time></trkpt><trkpt lat="40.06512102829293" lon="18.09856170200098"><ele>59.333333333333336</ele><time>2026-04-04T17:05:34.997Z</time></trkpt><trkpt lat="40.06512562009893" lon="18.098774366433148"><ele>59.0</ele><time>2026-04-04T17:05:35.997Z</time></trkpt><trkpt lat="40.06515373235527" lon="18.0989840333776"><ele>59.0</ele><time>2026-04-04T17:05:36.997Z</time></trkpt><trkpt lat="40.06519216196517" lon="18.099178990726095"><ele>59.0</ele><time>2026-04-04T17:05:37.997Z</time></trkpt><trkpt lat="40.065246128606155" lon="18.099375382841348"><ele>59.0</ele><time>2026-04-04T17:05:38.997Z</time></trkpt><trkpt lat="40.065306830597095" lon="18.099570927888088"><ele>59.0</ele><time>2026-04-04T17:05:39.997Z</time></trkpt><trkpt lat="40.06537346162137" lon="18.099762625133874"><ele>59.0</ele><time>2026-04-04T17:05:40.997Z</time></trkpt><trkpt lat="40.065436498885795" lon="18.099961291198646"><ele>59.0</ele><time>2026-04-04T17:05:41.997Z</time></trkpt><trkpt lat="40.065496785002345" lon="18.10015651347236"><ele>59.0</ele><time>2026-04-04T17:05:42.997Z</time></trkpt><trkpt lat="40.065555872756235" lon="18.100344748814027"><ele>59.0</ele><time>2026-04-04T17:05:43.997Z</time></trkpt><trkpt lat="40.065616959575664" lon="18.100536031483323"><ele>59.0</ele><time>2026-04-04T17:05:44.997Z</time></trkpt><trkpt lat="40.06567897030461" lon="18.10072336945256"><ele>59.0</ele><time>2026-04-04T17:05:45.997Z</time></trkpt><trkpt lat="40.06573989046126" lon="18.10091802995532"><ele>59.0</ele><time>2026-04-04T17:05:46.997Z</time></trkpt><trkpt lat="40.06580492719635" lon="18.10111009572"><ele>59.0</ele><time>2026-04-04T17:05:47.997Z</time></trkpt><trkpt lat="40.065869346955" lon="18.10129896425402"><ele>59.66666666666667</ele><time>2026-04-04T17:05:48.997Z</time></trkpt><trkpt lat="40.06592970880717" lon="18.101500124994654"><ele>60.33333333333333</ele><time>2026-04-04T17:05:49.997Z</time></trkpt><trkpt lat="40.065991174489604" lon="18.10170053792284"><ele>61.0</ele><time>2026-04-04T17:05:50.997Z</time></trkpt><trkpt lat="40.066049440659945" lon="18.101897850483144"><ele>62.33333333333333</ele><time>2026-04-04T17:05:51.997Z</time></trkpt><trkpt lat="40.066108289230435" lon="18.10208500642168"><ele>63.66666666666667</ele><time>2026-04-04T17:05:52.997Z</time></trkpt><trkpt lat="40.06616937019703" lon="18.102269703036853"><ele>65.0</ele><time>2026-04-04T17:05:53.997Z</time></trkpt><trkpt lat="40.06622790085296" lon="18.102453791871607"><ele>66.0</ele><time>2026-04-04T17:05:54.997Z</time></trkpt><trkpt lat="40.066287092088075" lon="18.10264414114819"><ele>67.0</ele><time>2026-04-04T17:05:55.997Z</time></trkpt><trkpt lat="40.06634529848002" lon="18.10283314074237"><ele>68.0</ele><time>2026-04-04T17:05:56.997Z</time></trkpt><trkpt lat="40.06640170817695" lon="18.10302509776051"><ele>68.0</ele><time>2026-04-04T17:05:57.997Z</time></trkpt><trkpt lat="40.066458176000204" lon="18.10321432721837"><ele>68.0</ele><time>2026-04-04T17:05:58.997Z</time></trkpt><trkpt lat="40.06651680773881" lon="18.103406433851497"><ele>68.0</ele><time>2026-04-04T17:05:59.997Z</time></trkpt><trkpt lat="40.0665713875162" lon="18.103589245999036"><ele>68.25</ele><time>2026-04-04T17:06:00.997Z</time></trkpt><trkpt lat="40.066629160430914" lon="18.10377652270218"><ele>68.5</ele><time>2026-04-04T17:06:01.997Z</time></trkpt><trkpt lat="40.06668550013069" lon="18.10395533070377"><ele>68.75</ele><time>2026-04-04T17:06:02.997Z</time></trkpt><trkpt lat="40.066739374430874" lon="18.104125752220995"><ele>69.0</ele><time>2026-04-04T17:06:03.997Z</time></trkpt><trkpt lat="40.066795417211274" lon="18.104304434154766"><ele>69.25</ele><time>2026-04-04T17:06:04.997Z</time></trkpt><trkpt lat="40.06684981337421" lon="18.104472305926517"><ele>69.5</ele><time>2026-04-04T17:06:05.997Z</time></trkpt><trkpt lat="40.066898627963674" lon="18.1046395162551"><ele>69.75</ele><time>2026-04-04T17:06:06.997Z</time></trkpt><trkpt lat="40.06695146666703" lon="18.104800124832273"><ele>70.0</ele><time>2026-04-04T17:06:07.997Z</time></trkpt><trkpt lat="40.066994032498066" lon="18.104954543765782"><ele>70.5</ele><time>2026-04-04T17:06:08.997Z</time></trkpt><trkpt lat="40.067039275225426" lon="18.105096270171583"><ele>71.0</ele><time>2026-04-04T17:06:09.997Z</time></trkpt><trkpt lat="40.06708490082665" lon="18.105234977189205"><ele>71.5</ele><time>2026-04-04T17:06:10.997Z</time></trkpt><trkpt lat="40.06712752970868" lon="18.105380515614534"><ele>72.0</ele><time>2026-04-04T17:06:11.997Z</time></trkpt><trkpt lat="40.06716905327338" lon="18.10551227693935"><ele>72.0</ele><time>2026-04-04T17:06:12.997Z</time></trkpt><trkpt lat="40.06720899757217" lon="18.105635798901567"><ele>72.0</ele><time>2026-04-04T17:06:13.997Z</time></trkpt><trkpt lat="40.06723919224124" lon="18.105744023925244"><ele>72.0</ele><time>2026-04-04T17:06:14.997Z</time></trkpt><trkpt lat="40.06726216982909" lon="18.105841338585698"><ele>72.0</ele><time>2026-04-04T17:06:15.997Z</time></trkpt><trkpt lat="40.06727721014925" lon="18.10593787507216"><ele>72.0</ele><time>2026-04-04T17:06:16.997Z</time></trkpt><trkpt lat="40.067288835979355" lon="18.106030746622675"><ele>72.0</ele><time>2026-04-04T17:06:17.997Z</time></trkpt><trkpt lat="40.0672945173822" lon="18.106133134650676"><ele>72.0</ele><time>2026-04-04T17:06:18.997Z</time></trkpt><trkpt lat="40.06729676504518" lon="18.10623787569515"><ele>72.0</ele><time>2026-04-04T17:06:19.997Z</time></trkpt><trkpt lat="40.06729652034335" lon="18.106350122170475"><ele>72.0</ele><time>2026-04-04T17:06:20.997Z</time></trkpt><trkpt lat="40.0672804030182" lon="18.10647625648429"><ele>72.0</ele><time>2026-04-04T17:06:21.997Z</time></trkpt><trkpt lat="40.06725475569432" lon="18.106605519296732"><ele>72.0</ele><time>2026-04-04T17:06:22.997Z</time></trkpt><trkpt lat="40.06721492849901" lon="18.106736980860706"><ele>72.0</ele><time>2026-04-04T17:06:23.997Z</time></trkpt><trkpt lat="40.06716522940627" lon="18.106853464515254"><ele>72.0</ele><time>2026-04-04T17:06:24.997Z</time></trkpt><trkpt lat="40.06711686448612" lon="18.106954003484397"><ele>72.0</ele><time>2026-04-04T17:06:25.996Z</time></trkpt><trkpt lat="40.06706662541237" lon="18.107038121402518"><ele>72.0</ele><time>2026-04-04T17:06:26.996Z</time></trkpt><trkpt lat="40.06701558969403" lon="18.10712231547757"><ele>72.0</ele><time>2026-04-04T17:06:27.996Z</time></trkpt><trkpt lat="40.06694951165239" lon="18.10723873392521"><ele>72.0</ele><time>2026-04-04T17:06:28.996Z</time></trkpt><trkpt lat="40.06687392399005" lon="18.107385564506533"><ele>72.0</ele><time>2026-04-04T17:06:29.996Z</time></trkpt><trkpt lat="40.06679915676073" lon="18.107540231241803"><ele>72.0</ele><time>2026-04-04T17:06:30.996Z</time></trkpt><trkpt lat="40.066709807473835" lon="18.107693183099155"><ele>72.0</ele><time>2026-04-04T17:06:31.996Z</time></trkpt><trkpt lat="40.066616988158316" lon="18.107850110210777"><ele>71.66666666666667</ele><time>2026-04-04T17:06:32.997Z</time></trkpt><trkpt lat="40.06651122973354" lon="18.10799004998904"><ele>71.33333333333334</ele><time>2026-04-04T17:06:33.997Z</time></trkpt><trkpt lat="40.06637712553078" lon="18.108124959935687"><ele>71.0</ele><time>2026-04-04T17:06:34.997Z</time></trkpt><trkpt lat="40.066221036354094" lon="18.108246125776798"><ele>70.66666666666667</ele><time>2026-04-04T17:06:35.998Z</time></trkpt><trkpt lat="40.06604691639553" lon="18.108369715051772"><ele>70.33333333333333</ele><time>2026-04-04T17:06:36.997Z</time></trkpt><trkpt lat="40.06586244045917" lon="18.108510170204255"><ele>70.0</ele><time>2026-04-04T17:06:37.997Z</time></trkpt><trkpt lat="40.06568094779124" lon="18.1086410977317"><ele>70.0</ele><time>2026-04-04T17:06:38.997Z</time></trkpt><trkpt lat="40.06550372439863" lon="18.108758678025094"><ele>70.0</ele><time>2026-04-04T17:06:39.997Z</time></trkpt><trkpt lat="40.065348435985946" lon="18.108877180844914"><ele>70.0</ele><time>2026-04-04T17:06:40.997Z</time></trkpt><trkpt lat="40.06519471585644" lon="18.108977565378915"><ele>70.0</ele><time>2026-04-04T17:06:41.997Z</time></trkpt><trkpt lat="40.06502629771487" lon="18.10907488723846"><ele>70.0</ele><time>2026-04-04T17:06:42.997Z</time></trkpt><trkpt lat="40.06484021666894" lon="18.109147377006714"><ele>70.0</ele><time>2026-04-04T17:06:43.997Z</time></trkpt><trkpt lat="40.06464046250072" lon="18.10921216814309"><ele>69.0</ele><time>2026-04-04T17:06:44.997Z</time></trkpt><trkpt lat="40.064437243674654" lon="18.109295545838194"><ele>68.0</ele><time>2026-04-04T17:06:45.996Z</time></trkpt><trkpt lat="40.064227365457924" lon="18.109389436099722"><ele>67.0</ele><time>2026-04-04T17:06:46.996Z</time></trkpt><trkpt lat="40.064001473492276" lon="18.109476934620915"><ele>67.0</ele><time>2026-04-04T17:06:47.996Z</time></trkpt><trkpt lat="40.063776436163955" lon="18.109570398134235"><ele>67.0</ele><time>2026-04-04T17:06:48.996Z</time></trkpt><trkpt lat="40.06354844808972" lon="18.10966789974464"><ele>67.0</ele><time>2026-04-04T17:06:49.996Z</time></trkpt><trkpt lat="40.063320684467044" lon="18.1097719772272"><ele>67.0</ele><time>2026-04-04T17:06:50.996Z</time></trkpt><trkpt lat="40.063092159967866" lon="18.109872371574426"><ele>66.5</ele><time>2026-04-04T17:06:51.996Z</time></trkpt><trkpt lat="40.06287564813154" lon="18.10997002714191"><ele>66.0</ele><time>2026-04-04T17:06:52.996Z</time></trkpt><trkpt lat="40.06266346593999" lon="18.110056581426917"><ele>66.0</ele><time>2026-04-04T17:06:53.996Z</time></trkpt><trkpt lat="40.06245606738268" lon="18.110152298879054"><ele>66.0</ele><time>2026-04-04T17:06:54.996Z</time></trkpt><trkpt lat="40.0622490564281" lon="18.110261378695085"><ele>66.0</ele><time>2026-04-04T17:06:55.996Z</time></trkpt><trkpt lat="40.06204921550068" lon="18.110390353943515"><ele>65.66666666666667</ele><time>2026-04-04T17:06:56.996Z</time></trkpt><trkpt lat="40.06186587158128" lon="18.110531887899"><ele>65.33333333333334</ele><time>2026-04-04T17:06:57.996Z</time></trkpt><trkpt lat="40.06169054096288" lon="18.11069200742003"><ele>65.0</ele><time>2026-04-04T17:06:58.996Z</time></trkpt><trkpt lat="40.061523239927794" lon="18.110875280878936"><ele>64.33333333333334</ele><time>2026-04-04T17:06:59.996Z</time></trkpt><trkpt lat="40.061362237989115" lon="18.11106685037281"><ele>63.66666666666667</ele><time>2026-04-04T17:07:00.996Z</time></trkpt><trkpt lat="40.06120682239412" lon="18.11127461297814"><ele>63.0</ele><time>2026-04-04T17:07:01.996Z</time></trkpt><trkpt lat="40.061068850882876" lon="18.1114932738036"><ele>63.66666666666667</ele><time>2026-04-04T17:07:02.996Z</time></trkpt><trkpt lat="40.060939648147375" lon="18.11173017300682"><ele>64.33333333333334</ele><time>2026-04-04T17:07:03.996Z</time></trkpt><trkpt lat="40.06081883668822" lon="18.111980959256478"><ele>65.0</ele><time>2026-04-04T17:07:04.996Z</time></trkpt><trkpt lat="40.06070178834251" lon="18.112234319777357"><ele>65.0</ele><time>2026-04-04T17:07:05.996Z</time></trkpt><trkpt lat="40.0605860554523" lon="18.112491199690606"><ele>65.0</ele><time>2026-04-04T17:07:06.996Z</time></trkpt><trkpt lat="40.06047552692673" lon="18.112729213338472"><ele>65.0</ele><time>2026-04-04T17:07:07.996Z</time></trkpt><trkpt lat="40.0603832651131" lon="18.112956279369303"><ele>65.0</ele><time>2026-04-04T17:07:08.996Z</time></trkpt><trkpt lat="40.06028157628313" lon="18.11318060698465"><ele>65.0</ele><time>2026-04-04T17:07:09.996Z</time></trkpt><trkpt lat="40.060164216320196" lon="18.1133939109801"><ele>65.0</ele><time>2026-04-04T17:07:10.996Z</time></trkpt><trkpt lat="40.06003903580789" lon="18.11359232548785"><ele>65.66666666666667</ele><time>2026-04-04T17:07:11.996Z</time></trkpt><trkpt lat="40.05993928816558" lon="18.113773308148545"><ele>66.33333333333333</ele><time>2026-04-04T17:07:12.996Z</time></trkpt><trkpt lat="40.05984099838124" lon="18.113935778400826"><ele>67.0</ele><time>2026-04-04T17:07:13.996Z</time></trkpt><trkpt lat="40.05974686260559" lon="18.114097138865304"><ele>68.0</ele><time>2026-04-04T17:07:14.996Z</time></trkpt><trkpt lat="40.059461155521134" lon="18.11451460242056"><ele>69.0</ele><time>2026-04-04T17:07:15.996Z</time></trkpt><trkpt lat="40.05932212013657" lon="18.11475318099865"><ele>68.33333333333333</ele><time>2026-04-04T17:07:16.996Z</time></trkpt><trkpt lat="40.05919584127664" lon="18.114984180841436"><ele>67.66666666666666</ele><time>2026-04-04T17:07:17.996Z</time></trkpt><trkpt lat="40.0590822223295" lon="18.115199378697643"><ele>67.0</ele><time>2026-04-04T17:07:18.996Z</time></trkpt><trkpt lat="40.05897622785992" lon="18.115400788859052"><ele>66.66666666666666</ele><time>2026-04-04T17:07:19.996Z</time></trkpt><trkpt lat="40.05887217877098" lon="18.115580572199857"><ele>66.33333333333333</ele><time>2026-04-04T17:07:20.996Z</time></trkpt><trkpt lat="40.05875973533101" lon="18.115720643586705"><ele>66.0</ele><time>2026-04-04T17:07:21.996Z</time></trkpt><trkpt lat="40.058643036035654" lon="18.115829468754633"><ele>66.0</ele><time>2026-04-04T17:07:22.996Z</time></trkpt><trkpt lat="40.05851003483591" lon="18.115923736235153"><ele>66.0</ele><time>2026-04-04T17:07:23.996Z</time></trkpt><trkpt lat="40.058373974375264" lon="18.116010526161915"><ele>66.0</ele><time>2026-04-04T17:07:24.996Z</time></trkpt><trkpt lat="40.05824309524821" lon="18.116078016639545"><ele>66.0</ele><time>2026-04-04T17:07:25.996Z</time></trkpt><trkpt lat="40.05811921722076" lon="18.1161317020814"><ele>66.0</ele><time>2026-04-04T17:07:26.996Z</time></trkpt><trkpt lat="40.05799542713901" lon="18.116193932321615"><ele>66.0</ele><time>2026-04-04T17:07:27.996Z</time></trkpt><trkpt lat="40.05787654230466" lon="18.11625732196434"><ele>66.0</ele><time>2026-04-04T17:07:28.996Z</time></trkpt><trkpt lat="40.0577471977151" lon="18.116329858094282"><ele>66.0</ele><time>2026-04-04T17:07:29.996Z</time></trkpt><trkpt lat="40.05760620743226" lon="18.116409849863302"><ele>66.0</ele><time>2026-04-04T17:07:30.996Z</time></trkpt><trkpt lat="40.0574492741172" lon="18.116506308907343"><ele>66.0</ele><time>2026-04-04T17:07:31.996Z</time></trkpt><trkpt lat="40.057279235439836" lon="18.116617279839673"><ele>66.0</ele><time>2026-04-04T17:07:32.996Z</time></trkpt><trkpt lat="40.057086747777" lon="18.116740103267844"><ele>66.0</ele><time>2026-04-04T17:07:33.996Z</time></trkpt><trkpt lat="40.056874864621875" lon="18.116867412808997"><ele>66.0</ele><time>2026-04-04T17:07:34.996Z</time></trkpt><trkpt lat="40.056658184768" lon="18.116991765509667"><ele>65.5</ele><time>2026-04-04T17:07:35.996Z</time></trkpt><trkpt lat="40.05643246017748" lon="18.117109163342644"><ele>65.0</ele><time>2026-04-04T17:07:36.996Z</time></trkpt><trkpt lat="40.05622545641241" lon="18.11721915744199"><ele>65.0</ele><time>2026-04-04T17:07:37.996Z</time></trkpt><trkpt lat="40.0560409832321" lon="18.117327329495694"><ele>65.0</ele><time>2026-04-04T17:07:38.996Z</time></trkpt><trkpt lat="40.05587304915493" lon="18.117433568256775"><ele>65.0</ele><time>2026-04-04T17:07:39.996Z</time></trkpt><trkpt lat="40.05573586692965" lon="18.11755372019239"><ele>65.0</ele><time>2026-04-04T17:07:40.996Z</time></trkpt><trkpt lat="40.05560678278851" lon="18.117698430837088"><ele>65.0</ele><time>2026-04-04T17:07:41.996Z</time></trkpt><trkpt lat="40.05550354586577" lon="18.11787484082153"><ele>65.0</ele><time>2026-04-04T17:07:42.996Z</time></trkpt><trkpt lat="40.05541813855058" lon="18.11806830989016"><ele>65.33333333333334</ele><time>2026-04-04T17:07:43.996Z</time></trkpt><trkpt lat="40.05535056261185" lon="18.11826964745799"><ele>65.66666666666667</ele><time>2026-04-04T17:07:44.996Z</time></trkpt><trkpt lat="40.05530441208417" lon="18.11849033843493"><ele>66.0</ele><time>2026-04-04T17:07:45.996Z</time></trkpt><trkpt lat="40.05528014688385" lon="18.118716717416827"><ele>66.0</ele><time>2026-04-04T17:07:46.996Z</time></trkpt><trkpt lat="40.055284417506385" lon="18.11895616879639"><ele>66.0</ele><time>2026-04-04T17:07:47.996Z</time></trkpt><trkpt lat="40.055306575107764" lon="18.119197822631154"><ele>66.0</ele><time>2026-04-04T17:07:48.996Z</time></trkpt><trkpt lat="40.05533854808266" lon="18.119449128510354"><ele>66.33333333333333</ele><time>2026-04-04T17:07:49.996Z</time></trkpt><trkpt lat="40.05537448790516" lon="18.11969629593006"><ele>66.66666666666666</ele><time>2026-04-04T17:07:50.996Z</time></trkpt><trkpt lat="40.05540793174333" lon="18.119966055975663"><ele>67.0</ele><time>2026-04-04T17:07:51.996Z</time></trkpt><trkpt lat="40.055452093320746" lon="18.120226975554566"><ele>67.66666666666666</ele><time>2026-04-04T17:07:52.996Z</time></trkpt><trkpt lat="40.0555063727062" lon="18.120484818875262"><ele>68.33333333333333</ele><time>2026-04-04T17:07:53.996Z</time></trkpt><trkpt lat="40.0555633216906" lon="18.12072208192245"><ele>69.0</ele><time>2026-04-04T17:07:54.996Z</time></trkpt><trkpt lat="40.055615699363116" lon="18.120941888118356"><ele>69.0</ele><time>2026-04-04T17:07:55.996Z</time></trkpt><trkpt lat="40.055659013619376" lon="18.12114389356817"><ele>69.0</ele><time>2026-04-04T17:07:56.996Z</time></trkpt><trkpt lat="40.055694669296265" lon="18.121325385520294"><ele>69.0</ele><time>2026-04-04T17:07:57.996Z</time></trkpt><trkpt lat="40.05570524759246" lon="18.12151855527982"><ele>70.25</ele><time>2026-04-04T17:07:58.996Z</time></trkpt><trkpt lat="40.0556928607288" lon="18.121690453894704"><ele>71.5</ele><time>2026-04-04T17:07:59.996Z</time></trkpt><trkpt lat="40.05566047693287" lon="18.121866066600106"><ele>72.75</ele><time>2026-04-04T17:08:00.996Z</time></trkpt><trkpt lat="40.055590367441695" lon="18.122047322324857"><ele>74.0</ele><time>2026-04-04T17:08:01.996Z</time></trkpt><trkpt lat="40.05550726159724" lon="18.12223430819062"><ele>75.66666666666667</ele><time>2026-04-04T17:08:02.996Z</time></trkpt><trkpt lat="40.05539638675432" lon="18.122407925015768"><ele>77.33333333333333</ele><time>2026-04-04T17:08:03.996Z</time></trkpt><trkpt lat="40.055270746944096" lon="18.122573610712998"><ele>79.0</ele><time>2026-04-04T17:08:04.996Z</time></trkpt><trkpt lat="40.055143046434324" lon="18.122748839611162"><ele>79.0</ele><time>2026-04-04T17:08:05.996Z</time></trkpt><trkpt lat="40.05502168778263" lon="18.12291107083469"><ele>79.0</ele><time>2026-04-04T17:08:06.996Z</time></trkpt><trkpt lat="40.05491484318852" lon="18.12305368168877"><ele>79.0</ele><time>2026-04-04T17:08:07.996Z</time></trkpt><trkpt lat="40.054822348279465" lon="18.12318961196606"><ele>79.25</ele><time>2026-04-04T17:08:08.996Z</time></trkpt><trkpt lat="40.0547327118215" lon="18.123306589456984"><ele>79.5</ele><time>2026-04-04T17:08:09.996Z</time></trkpt><trkpt lat="40.05463763526454" lon="18.123423377693854"><ele>79.75</ele><time>2026-04-04T17:08:10.996Z</time></trkpt><trkpt lat="40.05452765360364" lon="18.123526061963737"><ele>80.0</ele><time>2026-04-04T17:08:11.996Z</time></trkpt><trkpt lat="40.05440204102647" lon="18.12360957630227"><ele>80.0</ele><time>2026-04-04T17:08:12.996Z</time></trkpt><trkpt lat="40.05427211249203" lon="18.12368324586229"><ele>80.0</ele><time>2026-04-04T17:08:13.996Z</time></trkpt><trkpt lat="40.05413338229397" lon="18.12375439255857"><ele>80.0</ele><time>2026-04-04T17:08:14.996Z</time></trkpt><trkpt lat="40.053999977912525" lon="18.12383159588219"><ele>80.0</ele><time>2026-04-04T17:08:15.996Z</time></trkpt><trkpt lat="40.05387690639037" lon="18.12391986746876"><ele>79.5</ele><time>2026-04-04T17:08:16.996Z</time></trkpt><trkpt lat="40.053739071031906" lon="18.123985089373935"><ele>79.0</ele><time>2026-04-04T17:08:17.996Z</time></trkpt><trkpt lat="40.053596087473785" lon="18.124052134379326"><ele>78.5</ele><time>2026-04-04T17:08:18.996Z</time></trkpt><trkpt lat="40.05346242602937" lon="18.124114992499752"><ele>78.0</ele><time>2026-04-04T17:08:19.996Z</time></trkpt><trkpt lat="40.05333733695467" lon="18.124179447613603"><ele>78.0</ele><time>2026-04-04T17:08:20.996Z</time></trkpt><trkpt lat="40.05321836357233" lon="18.12424836666748"><ele>78.0</ele><time>2026-04-04T17:08:21.996Z</time></trkpt><trkpt lat="40.05310422499593" lon="18.124315841556204"><ele>78.0</ele><time>2026-04-04T17:08:22.996Z</time></trkpt><trkpt lat="40.05299147647774" lon="18.124371551007158"><ele>78.0</ele><time>2026-04-04T17:08:23.996Z</time></trkpt><trkpt lat="40.05288804453078" lon="18.124424775181666"><ele>78.0</ele><time>2026-04-04T17:08:24.996Z</time></trkpt><trkpt lat="40.05278778016229" lon="18.124465520404236"><ele>78.0</ele><time>2026-04-04T17:08:25.996Z</time></trkpt><trkpt lat="40.05268989665618" lon="18.12451408127134"><ele>78.0</ele><time>2026-04-04T17:08:26.996Z</time></trkpt><trkpt lat="40.052595579973065" lon="18.124555692162325"><ele>78.0</ele><time>2026-04-04T17:08:27.996Z</time></trkpt><trkpt lat="40.052512426833" lon="18.12459476303627"><ele>78.0</ele><time>2026-04-04T17:08:28.996Z</time></trkpt><trkpt lat="40.052433932697625" lon="18.124631765591435"><ele>78.14285714285715</ele><time>2026-04-04T17:08:29.996Z</time></trkpt><trkpt lat="40.05236299345931" lon="18.124666259493047"><ele>78.28571428571428</ele><time>2026-04-04T17:08:30.996Z</time></trkpt><trkpt lat="40.05229309262774" lon="18.124700758375468"><ele>78.42857142857143</ele><time>2026-04-04T17:08:31.996Z</time></trkpt><trkpt lat="40.05223018179215" lon="18.12474164271355"><ele>78.57142857142858</ele><time>2026-04-04T17:08:32.996Z</time></trkpt><trkpt lat="40.05217043099196" lon="18.12477944946545"><ele>78.71428571428572</ele><time>2026-04-04T17:08:33.996Z</time></trkpt><trkpt lat="40.05210270363369" lon="18.124809634873856"><ele>78.85714285714286</ele><time>2026-04-04T17:08:34.996Z</time></trkpt><trkpt lat="40.052032451670726" lon="18.12485826808576"><ele>79.0</ele><time>2026-04-04T17:08:35.996Z</time></trkpt><trkpt lat="40.051965371917916" lon="18.124896742975636"><ele>79.0</ele><time>2026-04-04T17:08:36.996Z</time></trkpt><trkpt lat="40.05190357686875" lon="18.124925289041528"><ele>79.0</ele><time>2026-04-04T17:08:37.996Z</time></trkpt><trkpt lat="40.05179204856657" lon="18.12498367535049"><ele>79.0</ele><time>2026-04-04T17:08:39.997Z</time></trkpt><trkpt lat="40.05173459518625" lon="18.12502024300678"><ele>79.0</ele><time>2026-04-04T17:08:40.997Z</time></trkpt><trkpt lat="40.05167276972112" lon="18.125066263087007"><ele>79.0</ele><time>2026-04-04T17:08:41.998Z</time></trkpt><trkpt lat="40.05161306714368" lon="18.12511567161977"><ele>79.0</ele><time>2026-04-04T17:08:42.997Z</time></trkpt><trkpt lat="40.051548057634896" lon="18.12516133349037"><ele>78.4</ele><time>2026-04-04T17:08:43.997Z</time></trkpt><trkpt lat="40.051460547859065" lon="18.12519307750374"><ele>77.80000000000001</ele><time>2026-04-04T17:08:44.997Z</time></trkpt><trkpt lat="40.05137834626623" lon="18.12521910808271"><ele>77.19999999999999</ele><time>2026-04-04T17:08:45.997Z</time></trkpt><trkpt lat="40.051309886401356" lon="18.125247969955467"><ele>76.6</ele><time>2026-04-04T17:08:46.997Z</time></trkpt><trkpt lat="40.05120053536077" lon="18.125305336586706"><ele>76.0</ele><time>2026-04-04T17:08:48.997Z</time></trkpt><trkpt lat="40.05111901064742" lon="18.12534405337197"><ele>76.0</ele><time>2026-04-04T17:08:50.997Z</time></trkpt><trkpt lat="40.05108171507086" lon="18.125420471164375"><ele>76.0</ele><time>2026-04-04T17:08:52.997Z</time></trkpt><trkpt lat="40.05107624901696" lon="18.125537179461475"><ele>76.0</ele><time>2026-04-04T17:08:54.997Z</time></trkpt><trkpt lat="40.05111167255638" lon="18.125708188186465"><ele>76.0</ele><time>2026-04-04T17:08:56.997Z</time></trkpt><trkpt lat="40.05113211403329" lon="18.1258194896381"><ele>76.0</ele><time>2026-04-04T17:08:57.997Z</time></trkpt><trkpt lat="40.05115108066456" lon="18.125935115661548"><ele>76.83333333333333</ele><time>2026-04-04T17:08:58.997Z</time></trkpt><trkpt lat="40.05116950515695" lon="18.12603814095659"><ele>77.66666666666666</ele><time>2026-04-04T17:08:59.997Z</time></trkpt><trkpt lat="40.051186035497" lon="18.126144222274732"><ele>78.5</ele><time>2026-04-04T17:09:00.997Z</time></trkpt><trkpt lat="40.05119904238344" lon="18.126231658157987"><ele>79.33333333333333</ele><time>2026-04-04T17:09:01.997Z</time></trkpt><trkpt lat="40.051213307357116" lon="18.12632912853798"><ele>80.16666666666667</ele><time>2026-04-04T17:09:02.997Z</time></trkpt><trkpt lat="40.05123598526629" lon="18.12648797950789"><ele>81.0</ele><time>2026-04-04T17:09:04.997Z</time></trkpt><trkpt lat="40.05124837588641" lon="18.126574654110332"><ele>81.8</ele><time>2026-04-04T17:09:05.997Z</time></trkpt><trkpt lat="40.05126184422085" lon="18.12666911719334"><ele>82.6</ele><time>2026-04-04T17:09:06.997Z</time></trkpt><trkpt lat="40.05127802034527" lon="18.12677683750508"><ele>83.4</ele><time>2026-04-04T17:09:07.997Z</time></trkpt><trkpt lat="40.05128923836661" lon="18.12690765657733"><ele>84.2</ele><time>2026-04-04T17:09:08.997Z</time></trkpt><trkpt lat="40.051297402412594" lon="18.127045619094087"><ele>85.0</ele><time>2026-04-04T17:09:09.997Z</time></trkpt><trkpt lat="40.051279681448094" lon="18.127157223850357"><ele>85.0</ele><time>2026-04-04T17:09:10.997Z</time></trkpt><trkpt lat="40.05125925076971" lon="18.127258059082337"><ele>85.0</ele><time>2026-04-04T17:09:11.997Z</time></trkpt><trkpt lat="40.05124174620491" lon="18.127360441945857"><ele>85.0</ele><time>2026-04-04T17:09:12.997Z</time></trkpt><trkpt lat="40.051211536783335" lon="18.12744694045888"><ele>85.0</ele><time>2026-04-04T17:09:13.997Z</time></trkpt><trkpt lat="40.05118304954402" lon="18.127539636110882"><ele>85.0</ele><time>2026-04-04T17:09:14.997Z</time></trkpt><trkpt lat="40.05115487577849" lon="18.127644555802565"><ele>85.0</ele><time>2026-04-04T17:09:15.997Z</time></trkpt><trkpt lat="40.051138017696495" lon="18.127776484991664"><ele>86.33333333333333</ele><time>2026-04-04T17:09:16.997Z</time></trkpt><trkpt lat="40.051125571378215" lon="18.12788966147052"><ele>87.66666666666666</ele><time>2026-04-04T17:09:17.997Z</time></trkpt><trkpt lat="40.051116519050105" lon="18.12799790114056"><ele>89.0</ele><time>2026-04-04T17:09:18.997Z</time></trkpt><trkpt lat="40.05111174293561" lon="18.128099975577207"><ele>90.33333333333333</ele><time>2026-04-04T17:09:19.997Z</time></trkpt><trkpt lat="40.05110514939851" lon="18.128195759020954"><ele>91.66666666666667</ele><time>2026-04-04T17:09:20.997Z</time></trkpt><trkpt lat="40.05109949698201" lon="18.12828217100461"><ele>93.0</ele><time>2026-04-04T17:09:21.997Z</time></trkpt><trkpt lat="40.05108127503097" lon="18.12839557632654"><ele>92.5</ele><time>2026-04-04T17:09:23.997Z</time></trkpt><trkpt lat="40.05097856750882" lon="18.12844084364589"><ele>92.0</ele><time>2026-04-04T17:09:25.997Z</time></trkpt><trkpt lat="40.05090818446047" lon="18.128472148680704"><ele>91.5</ele><time>2026-04-04T17:09:26.997Z</time></trkpt><trkpt lat="40.05083160165205" lon="18.12850049107517"><ele>91.0</ele><time>2026-04-04T17:09:27.997Z</time></trkpt><trkpt lat="40.050760588639996" lon="18.128549189354615"><ele>90.5</ele><time>2026-04-04T17:09:28.997Z</time></trkpt><trkpt lat="40.05068479625631" lon="18.128591612344838"><ele>90.0</ele><time>2026-04-04T17:09:29.997Z</time></trkpt><trkpt lat="40.05061198536242" lon="18.12863354304141"><ele>90.0</ele><time>2026-04-04T17:09:30.997Z</time></trkpt><trkpt lat="40.05054670257562" lon="18.128674400748338"><ele>90.0</ele><time>2026-04-04T17:09:31.997Z</time></trkpt><trkpt lat="40.05048655135507" lon="18.12871298503994"><ele>90.0</ele><time>2026-04-04T17:09:32.997Z</time></trkpt><trkpt lat="40.05042647564755" lon="18.12874615733327"><ele>90.0</ele><time>2026-04-04T17:09:33.997Z</time></trkpt><trkpt lat="40.050341720937695" lon="18.128851135007793"><ele>90.0</ele><time>2026-04-04T17:09:35.997Z</time></trkpt><trkpt lat="40.05027989427337" lon="18.128963237481337"><ele>90.0</ele><time>2026-04-04T17:09:37.997Z</time></trkpt><trkpt lat="40.0503241023835" lon="18.129058360947138"><ele>91.4</ele><time>2026-04-04T17:09:38.997Z</time></trkpt><trkpt lat="40.05035939829921" lon="18.129136317904436"><ele>92.8</ele><time>2026-04-04T17:09:39.997Z</time></trkpt><trkpt lat="40.050421832207526" lon="18.129191474565918"><ele>94.19999999999999</ele><time>2026-04-04T17:09:40.997Z</time></trkpt><trkpt lat="40.05050181616767" lon="18.1292245531842"><ele>95.6</ele><time>2026-04-04T17:09:41.997Z</time></trkpt><trkpt lat="40.05061031413944" lon="18.129247627467688"><ele>97.0</ele><time>2026-04-04T17:09:42.997Z</time></trkpt><trkpt lat="40.05074631854471" lon="18.12925119110577"><ele>98.5</ele><time>2026-04-04T17:09:43.997Z</time></trkpt><trkpt lat="40.05088321693158" lon="18.129249174095804"><ele>100.0</ele><time>2026-04-04T17:09:44.997Z</time></trkpt><trkpt lat="40.05099294081594" lon="18.12925744948233"><ele>101.5</ele><time>2026-04-04T17:09:45.997Z</time></trkpt><trkpt lat="40.05108232807878" lon="18.129236178601534"><ele>103.0</ele><time>2026-04-04T17:09:46.997Z</time></trkpt><trkpt lat="40.05122435364772" lon="18.129210760337727"><ele>103.0</ele><time>2026-04-04T17:09:48.996Z</time></trkpt><trkpt lat="40.05130777261036" lon="18.12928616097627"><ele>103.0</ele><time>2026-04-04T17:09:49.996Z</time></trkpt><trkpt lat="40.05135629370795" lon="18.129395928528186"><ele>103.0</ele><time>2026-04-04T17:09:50.996Z</time></trkpt><trkpt lat="40.051365088416674" lon="18.129567603197124"><ele>103.0</ele><time>2026-04-04T17:09:51.996Z</time></trkpt><trkpt lat="40.05137773387662" lon="18.129713502172713"><ele>103.0</ele><time>2026-04-04T17:09:52.996Z</time></trkpt><trkpt lat="40.05136951587028" lon="18.129849089752568"><ele>104.60000000000001</ele><time>2026-04-04T17:09:53.996Z</time></trkpt><trkpt lat="40.05133860987359" lon="18.129989958541174"><ele>106.2</ele><time>2026-04-04T17:09:54.996Z</time></trkpt><trkpt lat="40.05126458219452" lon="18.1300888536385"><ele>107.8</ele><time>2026-04-04T17:09:55.996Z</time></trkpt><trkpt lat="40.05116696546996" lon="18.130168824207512"><ele>109.4</ele><time>2026-04-04T17:09:56.996Z</time></trkpt><trkpt lat="40.05107753271372" lon="18.130213690507922"><ele>111.0</ele><time>2026-04-04T17:09:57.996Z</time></trkpt><trkpt lat="40.05098569647893" lon="18.130236152739403"><ele>111.0</ele><time>2026-04-04T17:09:58.996Z</time></trkpt><trkpt lat="40.05088545872421" lon="18.130257948160228"><ele>111.0</ele><time>2026-04-04T17:09:59.996Z</time></trkpt><trkpt lat="40.050772942026235" lon="18.130314408433577"><ele>111.0</ele><time>2026-04-04T17:10:00.996Z</time></trkpt><trkpt lat="40.05066229851748" lon="18.13039006910132"><ele>111.0</ele><time>2026-04-04T17:10:01.996Z</time></trkpt><trkpt lat="40.05052776704099" lon="18.130443631655936"><ele>110.0</ele><time>2026-04-04T17:10:02.996Z</time></trkpt><trkpt lat="40.05040121654113" lon="18.13048624212254"><ele>109.0</ele><time>2026-04-04T17:10:03.996Z</time></trkpt><trkpt lat="40.05027427901877" lon="18.1305096602729"><ele>108.0</ele><time>2026-04-04T17:10:04.996Z</time></trkpt><trkpt lat="40.05019066330103" lon="18.13057515013615"><ele>107.0</ele><time>2026-04-04T17:10:05.996Z</time></trkpt><trkpt lat="40.05014454011695" lon="18.130692934750076"><ele>108.5</ele><time>2026-04-04T17:10:06.996Z</time></trkpt><trkpt lat="40.050060548841195" lon="18.13090244583314"><ele>110.0</ele><time>2026-04-04T17:10:08.996Z</time></trkpt><trkpt lat="40.05004046489517" lon="18.13102689558228"><ele>111.5</ele><time>2026-04-04T17:10:09.996Z</time></trkpt><trkpt lat="40.0500416979317" lon="18.131158773566888"><ele>113.0</ele><time>2026-04-04T17:10:10.996Z</time></trkpt><trkpt lat="40.050067761928545" lon="18.131292969227044"><ele>113.0</ele><time>2026-04-04T17:10:11.996Z</time></trkpt><trkpt lat="40.05010758606158" lon="18.131400149180383"><ele>113.00000000000001</ele><time>2026-04-04T17:10:12.996Z</time></trkpt><trkpt lat="40.05014238703625" lon="18.13149501818074"><ele>113.00000000000001</ele><time>2026-04-04T17:10:13.996Z</time></trkpt><trkpt lat="40.050149105538736" lon="18.131580151705364"><ele>113.0</ele><time>2026-04-04T17:10:14.996Z</time></trkpt><trkpt lat="40.050128171584106" lon="18.131757332788265"><ele>113.0</ele><time>2026-04-04T17:10:16.996Z</time></trkpt><trkpt lat="40.05012157894537" lon="18.131901818130437"><ele>114.2</ele><time>2026-04-04T17:10:17.996Z</time></trkpt><trkpt lat="40.050131137104394" lon="18.132041503724665"><ele>115.4</ele><time>2026-04-04T17:10:18.996Z</time></trkpt><trkpt lat="40.05015022228579" lon="18.132171441770137"><ele>116.60000000000001</ele><time>2026-04-04T17:10:19.996Z</time></trkpt><trkpt lat="40.050139467276864" lon="18.132324070798845"><ele>117.80000000000001</ele><time>2026-04-04T17:10:20.996Z</time></trkpt><trkpt lat="40.05009271057908" lon="18.13246712871131"><ele>119.0</ele><time>2026-04-04T17:10:21.996Z</time></trkpt><trkpt lat="40.04999977497021" lon="18.132583723903956"><ele>118.4</ele><time>2026-04-04T17:10:22.996Z</time></trkpt><trkpt lat="40.0499549633798" lon="18.132703794385645"><ele>117.80000000000001</ele><time>2026-04-04T17:10:23.996Z</time></trkpt><trkpt lat="40.04995750727643" lon="18.132837287502493"><ele>117.19999999999999</ele><time>2026-04-04T17:10:24.996Z</time></trkpt><trkpt lat="40.049941074824545" lon="18.13295868883072"><ele>116.6</ele><time>2026-04-04T17:10:25.996Z</time></trkpt><trkpt lat="40.04992103707105" lon="18.13305786588497"><ele>116.0</ele><time>2026-04-04T17:10:26.996Z</time></trkpt><trkpt lat="40.04984770228806" lon="18.133145322592434"><ele>117.0</ele><time>2026-04-04T17:10:27.996Z</time></trkpt><trkpt lat="40.04980230473577" lon="18.133255732442958"><ele>118.0</ele><time>2026-04-04T17:10:28.996Z</time></trkpt><trkpt lat="40.04978530603314" lon="18.133381855194813"><ele>119.0</ele><time>2026-04-04T17:10:29.996Z</time></trkpt><trkpt lat="40.04975222983689" lon="18.133507224072503"><ele>120.0</ele><time>2026-04-04T17:10:30.996Z</time></trkpt><trkpt lat="40.04972224920329" lon="18.133638225215826"><ele>121.0</ele><time>2026-04-04T17:10:31.996Z</time></trkpt><trkpt lat="40.0496776636946" lon="18.133755932547242"><ele>121.0</ele><time>2026-04-04T17:10:32.996Z</time></trkpt><trkpt lat="40.049644870655726" lon="18.13389603803191"><ele>121.0</ele><time>2026-04-04T17:10:33.996Z</time></trkpt><trkpt lat="40.04960970028905" lon="18.134033491384727"><ele>121.0</ele><time>2026-04-04T17:10:34.996Z</time></trkpt><trkpt lat="40.0495800318722" lon="18.13414987357446"><ele>121.0</ele><time>2026-04-04T17:10:35.996Z</time></trkpt><trkpt lat="40.04955701689266" lon="18.134261131056142"><ele>121.0</ele><time>2026-04-04T17:10:36.996Z</time></trkpt><trkpt lat="40.049541900324485" lon="18.13435506241625"><ele>121.75</ele><time>2026-04-04T17:10:37.996Z</time></trkpt><trkpt lat="40.04953314227844" lon="18.134442822471662"><ele>122.5</ele><time>2026-04-04T17:10:38.996Z</time></trkpt><trkpt lat="40.04949046816796" lon="18.13463408034765"><ele>123.25</ele><time>2026-04-04T17:10:40.996Z</time></trkpt><trkpt lat="40.0494561829137" lon="18.13478402383538"><ele>124.0</ele><time>2026-04-04T17:10:41.996Z</time></trkpt><trkpt lat="40.04942009592563" lon="18.134944274358137"><ele>124.80000000000001</ele><time>2026-04-04T17:10:42.996Z</time></trkpt><trkpt lat="40.049367511204316" lon="18.13509906723797"><ele>125.60000000000001</ele><time>2026-04-04T17:10:43.996Z</time></trkpt><trkpt lat="40.04932507798117" lon="18.135227170182322"><ele>126.4</ele><time>2026-04-04T17:10:44.997Z</time></trkpt><trkpt lat="40.049297448310405" lon="18.135337825875666"><ele>127.2</ele><time>2026-04-04T17:10:45.997Z</time></trkpt><trkpt lat="40.04926728194516" lon="18.13545228583521"><ele>128.0</ele><time>2026-04-04T17:10:46.997Z</time></trkpt><trkpt lat="40.0492506632538" lon="18.135559395963774"><ele>128.0</ele><time>2026-04-04T17:10:47.997Z</time></trkpt><trkpt lat="40.04923053547255" lon="18.135658067370972"><ele>128.0</ele><time>2026-04-04T17:10:48.997Z</time></trkpt><trkpt lat="40.049220981011985" lon="18.1357734006798"><ele>128.0</ele><time>2026-04-04T17:10:49.997Z</time></trkpt><trkpt lat="40.04921172819845" lon="18.135905964109693"><ele>128.0</ele><time>2026-04-04T17:10:50.997Z</time></trkpt><trkpt lat="40.049247851177725" lon="18.13606880082521"><ele>128.0</ele><time>2026-04-04T17:10:51.997Z</time></trkpt><trkpt lat="40.049264300429776" lon="18.13619690514476"><ele>127.80000000000001</ele><time>2026-04-04T17:10:52.997Z</time></trkpt><trkpt lat="40.04924869466114" lon="18.136305956241536"><ele>127.60000000000001</ele><time>2026-04-04T17:10:53.998Z</time></trkpt><trkpt lat="40.049217238872586" lon="18.136423891495326"><ele>127.39999999999999</ele><time>2026-04-04T17:10:54.997Z</time></trkpt><trkpt lat="40.04917598185693" lon="18.13655855286018"><ele>127.19999999999999</ele><time>2026-04-04T17:10:55.997Z</time></trkpt><trkpt lat="40.04911205915663" lon="18.136668334637562"><ele>127.0</ele><time>2026-04-04T17:10:56.997Z</time></trkpt><trkpt lat="40.04902763964628" lon="18.136759250297068"><ele>127.0</ele><time>2026-04-04T17:10:57.998Z</time></trkpt><trkpt lat="40.04890585030451" lon="18.13683531088714"><ele>127.0</ele><time>2026-04-04T17:10:58.998Z</time></trkpt><trkpt lat="40.04882757446039" lon="18.13687088898496"><ele>127.0</ele><time>2026-04-04T17:10:59.998Z</time></trkpt><trkpt lat="40.04874408153818" lon="18.136923131297237"><ele>127.0</ele><time>2026-04-04T17:11:00.998Z</time></trkpt><trkpt lat="40.048566940216865" lon="18.137312449271285"><ele>127.33333333333334</ele><time>2026-04-04T17:11:01.998Z</time></trkpt><trkpt lat="40.04847843136962" lon="18.13748898707037"><ele>127.66666666666666</ele><time>2026-04-04T17:11:02.998Z</time></trkpt><trkpt lat="40.04839333531938" lon="18.13767949171972"><ele>128.0</ele><time>2026-04-04T17:11:03.998Z</time></trkpt><trkpt lat="40.048309684479605" lon="18.137878524396985"><ele>128.66666666666666</ele><time>2026-04-04T17:11:04.998Z</time></trkpt><trkpt lat="40.04822125115612" lon="18.138079946826757"><ele>129.33333333333334</ele><time>2026-04-04T17:11:05.998Z</time></trkpt><trkpt lat="40.0481343730976" lon="18.138278035161466"><ele>130.0</ele><time>2026-04-04T17:11:06.998Z</time></trkpt><trkpt lat="40.048056437331894" lon="18.138458498069195"><ele>130.66666666666669</ele><time>2026-04-04T17:11:07.998Z</time></trkpt><trkpt lat="40.04798059892663" lon="18.13862631588193"><ele>131.33333333333334</ele><time>2026-04-04T17:11:08.998Z</time></trkpt><trkpt lat="40.0479033660989" lon="18.138800341585164"><ele>132.0</ele><time>2026-04-04T17:11:09.998Z</time></trkpt><trkpt lat="40.04782414223334" lon="18.138974767115613"><ele>132.66666666666666</ele><time>2026-04-04T17:11:10.998Z</time></trkpt><trkpt lat="40.04774357590253" lon="18.13915581571494"><ele>133.33333333333331</ele><time>2026-04-04T17:11:11.998Z</time></trkpt><trkpt lat="40.047660283610846" lon="18.13934915773822"><ele>134.0</ele><time>2026-04-04T17:11:12.998Z</time></trkpt><trkpt lat="40.04757094275899" lon="18.139534740678958"><ele>134.0</ele><time>2026-04-04T17:11:13.998Z</time></trkpt><trkpt lat="40.047483918207675" lon="18.139729637061414"><ele>134.0</ele><time>2026-04-04T17:11:14.998Z</time></trkpt><trkpt lat="40.04739550621141" lon="18.139929811892863"><ele>134.0</ele><time>2026-04-04T17:11:15.998Z</time></trkpt><trkpt lat="40.0473091246964" lon="18.14013248092497"><ele>134.33333333333331</ele><time>2026-04-04T17:11:16.998Z</time></trkpt><trkpt lat="40.04721680608633" lon="18.14032884431875"><ele>134.66666666666666</ele><time>2026-04-04T17:11:17.998Z</time></trkpt><trkpt lat="40.047134706232164" lon="18.140506825891283"><ele>135.0</ele><time>2026-04-04T17:11:18.998Z</time></trkpt><trkpt lat="40.04705508340327" lon="18.14068476218389"><ele>135.75</ele><time>2026-04-04T17:11:19.998Z</time></trkpt><trkpt lat="40.04698062788571" lon="18.140844351356982"><ele>136.5</ele><time>2026-04-04T17:11:20.998Z</time></trkpt><trkpt lat="40.04691111967022" lon="18.140988609814208"><ele>137.25</ele><time>2026-04-04T17:11:21.998Z</time></trkpt><trkpt lat="40.04684059204701" lon="18.14112138572528"><ele>138.0</ele><time>2026-04-04T17:11:22.998Z</time></trkpt><trkpt lat="40.04677286130279" lon="18.141240812492423"><ele>138.0</ele><time>2026-04-04T17:11:23.998Z</time></trkpt><trkpt lat="40.04670472663794" lon="18.141338651036826"><ele>138.0</ele><time>2026-04-04T17:11:24.998Z</time></trkpt><trkpt lat="40.04663605480521" lon="18.141413554054623"><ele>138.0</ele><time>2026-04-04T17:11:25.997Z</time></trkpt><trkpt lat="40.046534384125046" lon="18.141423670119657"><ele>138.0</ele><time>2026-04-04T17:11:27.997Z</time></trkpt><trkpt lat="40.0464764681438" lon="18.14153075261725"><ele>138.0</ele><time>2026-04-04T17:11:33.997Z</time></trkpt><trkpt lat="40.04645534443612" lon="18.141630184051042"><ele>138.0</ele><time>2026-04-04T17:11:34.997Z</time></trkpt><trkpt lat="40.046475851959514" lon="18.14172654862566"><ele>138.0</ele><time>2026-04-04T17:11:35.997Z</time></trkpt><trkpt lat="40.04652785141954" lon="18.14184688059184"><ele>138.0</ele><time>2026-04-04T17:11:36.997Z</time></trkpt><trkpt lat="40.04659783303067" lon="18.141966459576047"><ele>138.0</ele><time>2026-04-04T17:11:37.997Z</time></trkpt><trkpt lat="40.04667076051572" lon="18.14211053155423"><ele>138.0</ele><time>2026-04-04T17:11:38.997Z</time></trkpt><trkpt lat="40.04678514645369" lon="18.142292062498452"><ele>138.33333333333334</ele><time>2026-04-04T17:11:39.997Z</time></trkpt><trkpt lat="40.04689723773638" lon="18.142475655009136"><ele>138.66666666666669</ele><time>2026-04-04T17:11:40.997Z</time></trkpt><trkpt lat="40.04702601845135" lon="18.14264656479291"><ele>139.0</ele><time>2026-04-04T17:11:41.997Z</time></trkpt><trkpt lat="40.04714918318174" lon="18.14280575607334"><ele>139.0</ele><time>2026-04-04T17:11:42.997Z</time></trkpt><trkpt lat="40.047280278119175" lon="18.14296744106247"><ele>139.0</ele><time>2026-04-04T17:11:43.997Z</time></trkpt><trkpt lat="40.0474130624563" lon="18.143145898954682"><ele>139.0</ele><time>2026-04-04T17:11:44.997Z</time></trkpt><trkpt lat="40.04753255068007" lon="18.143330161111585"><ele>140.33333333333334</ele><time>2026-04-04T17:11:45.997Z</time></trkpt><trkpt lat="40.04764155697506" lon="18.143531683069064"><ele>141.66666666666666</ele><time>2026-04-04T17:11:46.997Z</time></trkpt><trkpt lat="40.04771464309546" lon="18.143702157588834"><ele>143.0</ele><time>2026-04-04T17:11:47.997Z</time></trkpt><trkpt lat="40.04777890268832" lon="18.14382997180383"><ele>143.0</ele><time>2026-04-04T17:11:48.997Z</time></trkpt><trkpt lat="40.04783949200615" lon="18.14394401996088"><ele>143.0</ele><time>2026-04-04T17:11:49.997Z</time></trkpt><trkpt lat="40.04789542532137" lon="18.14405562880887"><ele>143.0</ele><time>2026-04-04T17:11:50.997Z</time></trkpt><trkpt lat="40.047956803355596" lon="18.14416009098032"><ele>143.0</ele><time>2026-04-04T17:11:51.997Z</time></trkpt><trkpt lat="40.048015358450165" lon="18.144246670140646"><ele>143.0</ele><time>2026-04-04T17:11:52.997Z</time></trkpt><trkpt lat="40.04805632899707" lon="18.144366687079202"><ele>143.8</ele><time>2026-04-04T17:11:54.997Z</time></trkpt><trkpt lat="40.04806985898943" lon="18.1444689199018"><ele>144.60000000000002</ele><time>2026-04-04T17:12:03.997Z</time></trkpt><trkpt lat="40.04811094240586" lon="18.14461867869579"><ele>145.39999999999998</ele><time>2026-04-04T17:12:05.997Z</time></trkpt><trkpt lat="40.0481200415558" lon="18.144758060963138"><ele>146.2</ele><time>2026-04-04T17:12:07.997Z</time></trkpt><trkpt lat="40.048110639467716" lon="18.144844472171325"><ele>147.0</ele><time>2026-04-04T17:12:08.997Z</time></trkpt><trkpt lat="40.04808914711122" lon="18.144943216527043"><ele>147.4</ele><time>2026-04-04T17:12:09.997Z</time></trkpt><trkpt lat="40.04805844308418" lon="18.145038783038288"><ele>147.79999999999998</ele><time>2026-04-04T17:12:10.997Z</time></trkpt><trkpt lat="40.048014805563014" lon="18.145129934146325"><ele>148.2</ele><time>2026-04-04T17:12:11.997Z</time></trkpt><trkpt lat="40.04796098704557" lon="18.145216087854962"><ele>148.6</ele><time>2026-04-04T17:12:12.997Z</time></trkpt><trkpt lat="40.04788703464754" lon="18.14531519510223"><ele>149.0</ele><time>2026-04-04T17:12:13.997Z</time></trkpt><trkpt lat="40.04780049714781" lon="18.145436285767882"><ele>149.0</ele><time>2026-04-04T17:12:14.997Z</time></trkpt><trkpt lat="40.04768469557286" lon="18.14556479294668"><ele>149.0</ele><time>2026-04-04T17:12:15.997Z</time></trkpt><trkpt lat="40.0475536368613" lon="18.145723274417833"><ele>149.0</ele><time>2026-04-04T17:12:16.997Z</time></trkpt><trkpt lat="40.04741668534342" lon="18.14587672109746"><ele>148.66666666666666</ele><time>2026-04-04T17:12:17.997Z</time></trkpt><trkpt lat="40.047283658474576" lon="18.146026635209562"><ele>148.33333333333334</ele><time>2026-04-04T17:12:18.997Z</time></trkpt><trkpt lat="40.047145000108976" lon="18.14617709252687"><ele>148.0</ele><time>2026-04-04T17:12:19.997Z</time></trkpt><trkpt lat="40.046989529809515" lon="18.146356892656822"><ele>150.0</ele><time>2026-04-04T17:12:20.997Z</time></trkpt><trkpt lat="40.04680574338144" lon="18.146546835414906"><ele>152.0</ele><time>2026-04-04T17:12:21.997Z</time></trkpt><trkpt lat="40.04661478903444" lon="18.14674864060334"><ele>152.0</ele><time>2026-04-04T17:12:22.997Z</time></trkpt><trkpt lat="40.04643683457513" lon="18.146935940825607"><ele>152.0</ele><time>2026-04-04T17:12:23.997Z</time></trkpt><trkpt lat="40.04628137744187" lon="18.147104073862337"><ele>152.0</ele><time>2026-04-04T17:12:24.997Z</time></trkpt><trkpt lat="40.04614284473971" lon="18.147272668655603"><ele>152.66666666666666</ele><time>2026-04-04T17:12:25.997Z</time></trkpt><trkpt lat="40.04601227970522" lon="18.147413416346154"><ele>153.33333333333334</ele><time>2026-04-04T17:12:26.997Z</time></trkpt><trkpt lat="40.04589364803414" lon="18.14753254664794"><ele>154.0</ele><time>2026-04-04T17:12:27.997Z</time></trkpt><trkpt lat="40.04579228436268" lon="18.14765096255247"><ele>154.0</ele><time>2026-04-04T17:12:28.997Z</time></trkpt><trkpt lat="40.04568180214967" lon="18.147770197452484"><ele>154.0</ele><time>2026-04-04T17:12:29.997Z</time></trkpt><trkpt lat="40.04556758275431" lon="18.147891367763396"><ele>154.0</ele><time>2026-04-04T17:12:30.997Z</time></trkpt><trkpt lat="40.045453469589035" lon="18.14801779603224"><ele>154.0</ele><time>2026-04-04T17:12:31.997Z</time></trkpt><trkpt lat="40.045334158479484" lon="18.14814112064944"><ele>155.33333333333334</ele><time>2026-04-04T17:12:32.997Z</time></trkpt><trkpt lat="40.04521361994212" lon="18.148270579881864"><ele>156.66666666666666</ele><time>2026-04-04T17:12:33.997Z</time></trkpt><trkpt lat="40.045093889832536" lon="18.14840200038462"><ele>158.0</ele><time>2026-04-04T17:12:34.997Z</time></trkpt><trkpt lat="40.04497841014468" lon="18.148522940403563"><ele>157.5</ele><time>2026-04-04T17:12:35.997Z</time></trkpt><trkpt lat="40.0448669763282" lon="18.148644080645873"><ele>157.0</ele><time>2026-04-04T17:12:36.997Z</time></trkpt><trkpt lat="40.04475431109829" lon="18.14876573101176"><ele>156.5</ele><time>2026-04-04T17:12:37.997Z</time></trkpt><trkpt lat="40.04464663317404" lon="18.14888665520008"><ele>156.0</ele><time>2026-04-04T17:12:38.997Z</time></trkpt><trkpt lat="40.044532221000075" lon="18.14900992985262"><ele>156.66666666666666</ele><time>2026-04-04T17:12:39.997Z</time></trkpt><trkpt lat="40.044416283467875" lon="18.149131496669003"><ele>157.33333333333331</ele><time>2026-04-04T17:12:40.997Z</time></trkpt><trkpt lat="40.04430343811025" lon="18.14925717148735"><ele>158.0</ele><time>2026-04-04T17:12:41.997Z</time></trkpt><trkpt lat="40.04418219573532" lon="18.1493929651308"><ele>158.0</ele><time>2026-04-04T17:12:42.997Z</time></trkpt><trkpt lat="40.04404437250356" lon="18.14953448055473"><ele>158.0</ele><time>2026-04-04T17:12:43.997Z</time></trkpt><trkpt lat="40.04390538551093" lon="18.14968528664768"><ele>158.0</ele><time>2026-04-04T17:12:44.997Z</time></trkpt><trkpt lat="40.04375042382642" lon="18.149854992588836"><ele>158.0</ele><time>2026-04-04T17:12:45.997Z</time></trkpt><trkpt lat="40.04359509422449" lon="18.150021542774596"><ele>158.0</ele><time>2026-04-04T17:12:46.997Z</time></trkpt><trkpt lat="40.043430276541216" lon="18.150182423009472"><ele>158.0</ele><time>2026-04-04T17:12:47.997Z</time></trkpt><trkpt lat="40.04325659030799" lon="18.150343077669728"><ele>157.66666666666666</ele><time>2026-04-04T17:12:48.997Z</time></trkpt><trkpt lat="40.04308406424352" lon="18.15050990853319"><ele>157.33333333333334</ele><time>2026-04-04T17:12:49.997Z</time></trkpt><trkpt lat="40.042922385542305" lon="18.150667595548658"><ele>157.0</ele><time>2026-04-04T17:12:50.997Z</time></trkpt><trkpt lat="40.042767660174505" lon="18.150806022077145"><ele>157.0</ele><time>2026-04-04T17:12:51.997Z</time></trkpt><trkpt lat="40.04263484496959" lon="18.150928345288033"><ele>157.0</ele><time>2026-04-04T17:12:52.997Z</time></trkpt><trkpt lat="40.04252664595068" lon="18.151033509977694"><ele>157.0</ele><time>2026-04-04T17:12:53.997Z</time></trkpt><trkpt lat="40.04242739785867" lon="18.151142262603614"><ele>157.0</ele><time>2026-04-04T17:12:54.996Z</time></trkpt><trkpt lat="40.042327981090594" lon="18.15124316907028"><ele>157.0</ele><time>2026-04-04T17:12:55.996Z</time></trkpt><trkpt lat="40.04222345977403" lon="18.15135122470648"><ele>157.0</ele><time>2026-04-04T17:12:56.997Z</time></trkpt><trkpt lat="40.0421148472856" lon="18.151447883417468"><ele>157.0</ele><time>2026-04-04T17:12:57.997Z</time></trkpt><trkpt lat="40.04200338393396" lon="18.151556622457512"><ele>157.0</ele><time>2026-04-04T17:12:58.997Z</time></trkpt><trkpt lat="40.041890300307706" lon="18.151661233949913"><ele>157.0</ele><time>2026-04-04T17:12:59.997Z</time></trkpt><trkpt lat="40.041776082254344" lon="18.15177264368324"><ele>157.0</ele><time>2026-04-04T17:13:00.997Z</time></trkpt><trkpt lat="40.041660261847746" lon="18.15188033952069"><ele>157.0</ele><time>2026-04-04T17:13:01.997Z</time></trkpt><trkpt lat="40.041548905385895" lon="18.151989678101177"><ele>157.0</ele><time>2026-04-04T17:13:02.997Z</time></trkpt><trkpt lat="40.04143689272373" lon="18.152097557776454"><ele>157.0</ele><time>2026-04-04T17:13:03.997Z</time></trkpt><trkpt lat="40.041329977556124" lon="18.152200497805598"><ele>157.0</ele><time>2026-04-04T17:13:04.997Z</time></trkpt><trkpt lat="40.04122654930279" lon="18.152302841214947"><ele>157.0</ele><time>2026-04-04T17:13:05.997Z</time></trkpt><trkpt lat="40.04112602016044" lon="18.152401464707424"><ele>157.0</ele><time>2026-04-04T17:13:06.997Z</time></trkpt><trkpt lat="40.0410313677796" lon="18.152496713040897"><ele>156.6</ele><time>2026-04-04T17:13:07.997Z</time></trkpt><trkpt lat="40.040942270742036" lon="18.152587696913947"><ele>156.2</ele><time>2026-04-04T17:13:08.997Z</time></trkpt><trkpt lat="40.04085528221422" lon="18.152674891629502"><ele>155.8</ele><time>2026-04-04T17:13:09.997Z</time></trkpt><trkpt lat="40.040769383203504" lon="18.1527616009299"><ele>155.4</ele><time>2026-04-04T17:13:10.997Z</time></trkpt><trkpt lat="40.040676187356986" lon="18.152853288202827"><ele>155.0</ele><time>2026-04-04T17:13:11.997Z</time></trkpt><trkpt lat="40.04058352218511" lon="18.152944418268113"><ele>155.0</ele><time>2026-04-04T17:13:12.997Z</time></trkpt><trkpt lat="40.04048925613968" lon="18.15303277373301"><ele>155.0</ele><time>2026-04-04T17:13:13.997Z</time></trkpt><trkpt lat="40.04038634798407" lon="18.153134965044114"><ele>155.0</ele><time>2026-04-04T17:13:14.997Z</time></trkpt><trkpt lat="40.04026753028351" lon="18.153258970618413"><ele>155.0</ele><time>2026-04-04T17:13:15.997Z</time></trkpt><trkpt lat="40.040147742304214" lon="18.153387662852516"><ele>154.8</ele><time>2026-04-04T17:13:16.997Z</time></trkpt><trkpt lat="40.04004402019664" lon="18.153478765227046"><ele>154.6</ele><time>2026-04-04T17:13:17.997Z</time></trkpt><trkpt lat="40.03995768866468" lon="18.153548559074856"><ele>154.4</ele><time>2026-04-04T17:13:18.997Z</time></trkpt><trkpt lat="40.0398835195299" lon="18.153593392527764"><ele>154.2</ele><time>2026-04-04T17:13:19.997Z</time></trkpt><trkpt lat="40.03979041047201" lon="18.153640006201286"><ele>154.0</ele><time>2026-04-04T17:13:21.997Z</time></trkpt><trkpt lat="40.03971485175524" lon="18.153669542768977"><ele>153.66666666666669</ele><time>2026-04-04T17:13:23.997Z</time></trkpt><trkpt lat="40.039650084640414" lon="18.15368227445434"><ele>153.33333333333334</ele><time>2026-04-04T17:13:25.997Z</time></trkpt><trkpt lat="40.03955622647539" lon="18.153682074694945"><ele>153.0</ele><time>2026-04-04T17:13:27.997Z</time></trkpt><trkpt lat="40.03949133780338" lon="18.153684582458332"><ele>152.66666666666666</ele><time>2026-04-04T17:13:28.997Z</time></trkpt><trkpt lat="40.03938920087483" lon="18.153766029196486"><ele>152.33333333333331</ele><time>2026-04-04T17:13:30.997Z</time></trkpt><trkpt lat="40.039357461421346" lon="18.15384110977214"><ele>152.0</ele><time>2026-04-04T17:13:31.997Z</time></trkpt><trkpt lat="40.03932922466258" lon="18.15395320446736"><ele>152.2</ele><time>2026-04-04T17:13:32.997Z</time></trkpt><trkpt lat="40.03929775443745" lon="18.15406840134736"><ele>152.39999999999998</ele><time>2026-04-04T17:13:33.997Z</time></trkpt><trkpt lat="40.039245983196736" lon="18.154187508809535"><ele>152.60000000000002</ele><time>2026-04-04T17:13:34.997Z</time></trkpt><trkpt lat="40.03916237403245" lon="18.154299128716755"><ele>152.8</ele><time>2026-04-04T17:13:35.997Z</time></trkpt><trkpt lat="40.039066041772855" lon="18.154410645419922"><ele>153.0</ele><time>2026-04-04T17:13:36.997Z</time></trkpt><trkpt lat="40.03895716198641" lon="18.15452012901631"><ele>153.0</ele><time>2026-04-04T17:13:37.997Z</time></trkpt><trkpt lat="40.03884719150806" lon="18.154633980007056"><ele>153.0</ele><time>2026-04-04T17:13:38.997Z</time></trkpt><trkpt lat="40.03872097344224" lon="18.154753284805317"><ele>153.0</ele><time>2026-04-04T17:13:39.997Z</time></trkpt><trkpt lat="40.03858707421384" lon="18.15488574759134"><ele>152.66666666666666</ele><time>2026-04-04T17:13:40.997Z</time></trkpt><trkpt lat="40.03844127202185" lon="18.15503622306372"><ele>152.33333333333331</ele><time>2026-04-04T17:13:41.997Z</time></trkpt><trkpt lat="40.038278211350146" lon="18.155192434081915"><ele>152.0</ele><time>2026-04-04T17:13:42.997Z</time></trkpt><trkpt lat="40.03810430018878" lon="18.155351506383866"><ele>151.66666666666666</ele><time>2026-04-04T17:13:43.997Z</time></trkpt><trkpt lat="40.03792856472186" lon="18.155513535227367"><ele>151.33333333333334</ele><time>2026-04-04T17:13:44.997Z</time></trkpt><trkpt lat="40.03774870370745" lon="18.15567640003624"><ele>151.0</ele><time>2026-04-04T17:13:45.997Z</time></trkpt><trkpt lat="40.03757973348518" lon="18.15584519743015"><ele>149.0</ele><time>2026-04-04T17:13:46.997Z</time></trkpt><trkpt lat="40.03741889904674" lon="18.15599931464007"><ele>147.0</ele><time>2026-04-04T17:13:47.997Z</time></trkpt><trkpt lat="40.03726268229259" lon="18.15614132576577"><ele>145.0</ele><time>2026-04-04T17:13:48.997Z</time></trkpt><trkpt lat="40.03709739667822" lon="18.156278577090557"><ele>145.0</ele><time>2026-04-04T17:13:49.997Z</time></trkpt><trkpt lat="40.03693883307178" lon="18.156419298131567"><ele>145.0</ele><time>2026-04-04T17:13:50.997Z</time></trkpt><trkpt lat="40.036797344748" lon="18.15658306920984"><ele>145.0</ele><time>2026-04-04T17:13:51.997Z</time></trkpt><trkpt lat="40.03664324648116" lon="18.15674308307174"><ele>144.33333333333334</ele><time>2026-04-04T17:13:52.997Z</time></trkpt><trkpt lat="40.03648469952146" lon="18.156904585714305"><ele>143.66666666666666</ele><time>2026-04-04T17:13:53.997Z</time></trkpt><trkpt lat="40.03631886598714" lon="18.157064404101078"><ele>143.0</ele><time>2026-04-04T17:13:54.997Z</time></trkpt><trkpt lat="40.03615268852886" lon="18.15722518885213"><ele>143.33333333333331</ele><time>2026-04-04T17:13:55.997Z</time></trkpt><trkpt lat="40.035981490303016" lon="18.15739020363573"><ele>143.66666666666666</ele><time>2026-04-04T17:13:56.997Z</time></trkpt><trkpt lat="40.03581193803783" lon="18.15755271412495"><ele>144.0</ele><time>2026-04-04T17:13:57.997Z</time></trkpt><trkpt lat="40.03564133345102" lon="18.15771651527877"><ele>144.0</ele><time>2026-04-04T17:13:58.997Z</time></trkpt><trkpt lat="40.03547183772827" lon="18.157883785550723"><ele>144.0</ele><time>2026-04-04T17:13:59.997Z</time></trkpt><trkpt lat="40.03529801830469" lon="18.158051331458946"><ele>144.0</ele><time>2026-04-04T17:14:00.997Z</time></trkpt><trkpt lat="40.03512483443156" lon="18.1582205454295"><ele>143.33333333333334</ele><time>2026-04-04T17:14:01.997Z</time></trkpt><trkpt lat="40.034947068337125" lon="18.15838976753263"><ele>142.66666666666669</ele><time>2026-04-04T17:14:02.997Z</time></trkpt><trkpt lat="40.03476563247568" lon="18.15855804121938"><ele>142.0</ele><time>2026-04-04T17:14:03.997Z</time></trkpt><trkpt lat="40.03458197426712" lon="18.158727998322185"><ele>142.0</ele><time>2026-04-04T17:14:04.997Z</time></trkpt><trkpt lat="40.03439973325891" lon="18.158906376012823"><ele>142.0</ele><time>2026-04-04T17:14:05.997Z</time></trkpt><trkpt lat="40.03420905210972" lon="18.15908522962548"><ele>142.0</ele><time>2026-04-04T17:14:06.997Z</time></trkpt><trkpt lat="40.034014165897396" lon="18.159262555520367"><ele>142.0</ele><time>2026-04-04T17:14:07.997Z</time></trkpt><trkpt lat="40.033826566837675" lon="18.159446171943415"><ele>142.0</ele><time>2026-04-04T17:14:08.997Z</time></trkpt><trkpt lat="40.03364267915685" lon="18.15963857889423"><ele>142.0</ele><time>2026-04-04T17:14:09.997Z</time></trkpt><trkpt lat="40.03345999848227" lon="18.15983761085109"><ele>143.5</ele><time>2026-04-04T17:14:10.997Z</time></trkpt><trkpt lat="40.03326787285931" lon="18.160033043182338"><ele>145.0</ele><time>2026-04-04T17:14:11.997Z</time></trkpt><trkpt lat="40.03306921584883" lon="18.16022438778823"><ele>145.0</ele><time>2026-04-04T17:14:12.997Z</time></trkpt><trkpt lat="40.03287331712535" lon="18.160421872965163"><ele>145.0</ele><time>2026-04-04T17:14:13.997Z</time></trkpt><trkpt lat="40.03268166164266" lon="18.16062504158577"><ele>144.5</ele><time>2026-04-04T17:14:14.997Z</time></trkpt><trkpt lat="40.03249099037093" lon="18.160834931352195"><ele>144.0</ele><time>2026-04-04T17:14:15.997Z</time></trkpt><trkpt lat="40.032313030302255" lon="18.16104937469254"><ele>144.0</ele><time>2026-04-04T17:14:16.997Z</time></trkpt><trkpt lat="40.03212528535064" lon="18.16125695812293"><ele>144.0</ele><time>2026-04-04T17:14:17.997Z</time></trkpt><trkpt lat="40.03194300541324" lon="18.161474357060197"><ele>144.0</ele><time>2026-04-04T17:14:18.997Z</time></trkpt><trkpt lat="40.031775070267386" lon="18.16168784913376"><ele>144.0</ele><time>2026-04-04T17:14:19.997Z</time></trkpt><trkpt lat="40.031618739727776" lon="18.161885644962524"><ele>144.0</ele><time>2026-04-04T17:14:20.997Z</time></trkpt><trkpt lat="40.03148455302695" lon="18.16204669071018"><ele>144.0</ele><time>2026-04-04T17:14:21.997Z</time></trkpt><trkpt lat="40.03134624499668" lon="18.162205139099505"><ele>144.0</ele><time>2026-04-04T17:14:22.997Z</time></trkpt><trkpt lat="40.031205318001085" lon="18.162349273329628"><ele>144.33333333333334</ele><time>2026-04-04T17:14:23.997Z</time></trkpt><trkpt lat="40.031068902547695" lon="18.162487835547196"><ele>144.66666666666669</ele><time>2026-04-04T17:14:24.997Z</time></trkpt><trkpt lat="40.03095628378194" lon="18.162628889639887"><ele>145.0</ele><time>2026-04-04T17:14:25.997Z</time></trkpt><trkpt lat="40.03086120564017" lon="18.162751484112363"><ele>144.8</ele><time>2026-04-04T17:14:26.997Z</time></trkpt><trkpt lat="40.03076614982734" lon="18.162845502642636"><ele>144.6</ele><time>2026-04-04T17:14:27.997Z</time></trkpt><trkpt lat="40.03067425280991" lon="18.16292369927998"><ele>144.4</ele><time>2026-04-04T17:14:28.997Z</time></trkpt><trkpt lat="40.03059333936681" lon="18.16297340411182"><ele>144.2</ele><time>2026-04-04T17:14:29.997Z</time></trkpt><trkpt lat="40.03050902382982" lon="18.162991814690173"><ele>144.0</ele><time>2026-04-04T17:14:30.997Z</time></trkpt><trkpt lat="40.03041729969825" lon="18.16300369835314"><ele>144.0</ele><time>2026-04-04T17:14:31.997Z</time></trkpt><trkpt lat="40.0303274950109" lon="18.16304827620051"><ele>144.0</ele><time>2026-04-04T17:14:32.997Z</time></trkpt><trkpt lat="40.03022744269225" lon="18.163091841775074"><ele>144.0</ele><time>2026-04-04T17:14:33.997Z</time></trkpt><trkpt lat="40.03019623770021" lon="18.16323567943325"><ele>144.0</ele><time>2026-04-04T17:14:34.996Z</time></trkpt><trkpt lat="40.03015966218306" lon="18.16337758817624"><ele>144.0</ele><time>2026-04-04T17:14:35.996Z</time></trkpt><trkpt lat="40.03010505180346" lon="18.16354111616565"><ele>144.33333333333334</ele><time>2026-04-04T17:14:36.996Z</time></trkpt><trkpt lat="40.030001963019934" lon="18.163700717247508"><ele>144.66666666666669</ele><time>2026-04-04T17:14:37.996Z</time></trkpt><trkpt lat="40.02986036047395" lon="18.163872729414297"><ele>145.0</ele><time>2026-04-04T17:14:38.996Z</time></trkpt><trkpt lat="40.02969954519879" lon="18.16405562734246"><ele>146.0</ele><time>2026-04-04T17:14:39.996Z</time></trkpt><trkpt lat="40.02952700694656" lon="18.164247145365806"><ele>147.0</ele><time>2026-04-04T17:14:40.996Z</time></trkpt><trkpt lat="40.02933710957251" lon="18.164456084405202"><ele>146.5</ele><time>2026-04-04T17:14:41.996Z</time></trkpt><trkpt lat="40.02913985779631" lon="18.16468417632017"><ele>146.0</ele><time>2026-04-04T17:14:42.996Z</time></trkpt><trkpt lat="40.02893289359671" lon="18.164917156299083"><ele>146.0</ele><time>2026-04-04T17:14:43.996Z</time></trkpt><trkpt lat="40.028721928770786" lon="18.165153704282133"><ele>146.0</ele><time>2026-04-04T17:14:44.996Z</time></trkpt><trkpt lat="40.02851489406837" lon="18.16539032348144"><ele>146.0</ele><time>2026-04-04T17:14:45.996Z</time></trkpt><trkpt lat="40.02832989402266" lon="18.16560178664961"><ele>146.0</ele><time>2026-04-04T17:14:46.996Z</time></trkpt><trkpt lat="40.028155110235225" lon="18.16580211037552"><ele>145.66666666666666</ele><time>2026-04-04T17:14:47.996Z</time></trkpt><trkpt lat="40.02799798366542" lon="18.165991952181315"><ele>145.33333333333334</ele><time>2026-04-04T17:14:48.996Z</time></trkpt><trkpt lat="40.02785053678624" lon="18.166155576721156"><ele>145.0</ele><time>2026-04-04T17:14:49.996Z</time></trkpt><trkpt lat="40.02771843943148" lon="18.166296507722024"><ele>145.0</ele><time>2026-04-04T17:14:50.996Z</time></trkpt><trkpt lat="40.027609357055425" lon="18.166419730506238"><ele>145.0</ele><time>2026-04-04T17:14:51.996Z</time></trkpt><trkpt lat="40.02751563197418" lon="18.16653051654458"><ele>145.0</ele><time>2026-04-04T17:14:52.996Z</time></trkpt><trkpt lat="40.02741885529641" lon="18.16661805546617"><ele>145.0</ele><time>2026-04-04T17:14:53.996Z</time></trkpt><trkpt lat="40.02732513469996" lon="18.166673371814962"><ele>145.25</ele><time>2026-04-04T17:14:54.996Z</time></trkpt><trkpt lat="40.027236792420005" lon="18.166712473870685"><ele>145.5</ele><time>2026-04-04T17:14:55.996Z</time></trkpt><trkpt lat="40.02717609539314" lon="18.166774872785876"><ele>145.75</ele><time>2026-04-04T17:14:56.998Z</time></trkpt><trkpt lat="40.0270987775308" lon="18.166907466774553"><ele>146.0</ele><time>2026-04-04T17:14:57.997Z</time></trkpt><trkpt lat="40.02700900030538" lon="18.16706744458826"><ele>146.0</ele><time>2026-04-04T17:14:58.997Z</time></trkpt><trkpt lat="40.026879165704955" lon="18.16723590092052"><ele>146.0</ele><time>2026-04-04T17:14:59.997Z</time></trkpt><trkpt lat="40.02672463877104" lon="18.167409309639535"><ele>146.0</ele><time>2026-04-04T17:15:00.997Z</time></trkpt><trkpt lat="40.026559427395476" lon="18.16759477627952"><ele>146.0</ele><time>2026-04-04T17:15:01.997Z</time></trkpt><trkpt lat="40.026386080865684" lon="18.167788439181226"><ele>146.0</ele><time>2026-04-04T17:15:02.997Z</time></trkpt><trkpt lat="40.02621167107829" lon="18.167991096138167"><ele>146.0</ele><time>2026-04-04T17:15:03.996Z</time></trkpt><trkpt lat="40.02603230075107" lon="18.16819623618447"><ele>146.0</ele><time>2026-04-04T17:15:04.996Z</time></trkpt><trkpt lat="40.025857917504396" lon="18.16839664343257"><ele>146.0</ele><time>2026-04-04T17:15:05.997Z</time></trkpt><trkpt lat="40.02570649677764" lon="18.168578040855866"><ele>146.0</ele><time>2026-04-04T17:15:06.997Z</time></trkpt><trkpt lat="40.02555602298993" lon="18.168746544581886"><ele>146.0</ele><time>2026-04-04T17:15:07.997Z</time></trkpt><trkpt lat="40.02538404382132" lon="18.1689445787825"><ele>147.5</ele><time>2026-04-04T17:15:08.997Z</time></trkpt><trkpt lat="40.0252000233756" lon="18.16914696397992"><ele>149.0</ele><time>2026-04-04T17:15:09.996Z</time></trkpt><trkpt lat="40.024992017162866" lon="18.16934754195716"><ele>147.33333333333331</ele><time>2026-04-04T17:15:10.996Z</time></trkpt><trkpt lat="40.024732666187305" lon="18.1695532696041"><ele>145.66666666666666</ele><time>2026-04-04T17:15:11.996Z</time></trkpt><trkpt lat="40.02472374287948" lon="18.169690313304915"><ele>144.0</ele><time>2026-04-04T17:15:12.996Z</time></trkpt><trkpt lat="40.02457705679412" lon="18.169851098199686"><ele>145.66666666666666</ele><time>2026-04-04T17:15:13.996Z</time></trkpt><trkpt lat="40.024438741492055" lon="18.17000478026656"><ele>147.33333333333331</ele><time>2026-04-04T17:15:14.996Z</time></trkpt><trkpt lat="40.02431497787332" lon="18.1701479244006"><ele>149.0</ele><time>2026-04-04T17:15:15.996Z</time></trkpt><trkpt lat="40.0242004066625" lon="18.17027700221604"><ele>149.66666666666666</ele><time>2026-04-04T17:15:16.996Z</time></trkpt><trkpt lat="40.024077701400785" lon="18.17041833729879"><ele>150.33333333333334</ele><time>2026-04-04T17:15:17.996Z</time></trkpt><trkpt lat="40.023937360033756" lon="18.17057547986286"><ele>151.0</ele><time>2026-04-04T17:15:18.996Z</time></trkpt><trkpt lat="40.023776634292325" lon="18.170755763055794"><ele>151.0</ele><time>2026-04-04T17:15:19.996Z</time></trkpt><trkpt lat="40.02360462348697" lon="18.170949447987596"><ele>151.0</ele><time>2026-04-04T17:15:20.996Z</time></trkpt><trkpt lat="40.023422897664034" lon="18.171156759523992"><ele>151.0</ele><time>2026-04-04T17:15:21.996Z</time></trkpt><trkpt lat="40.02324489991983" lon="18.17136308393206"><ele>151.0</ele><time>2026-04-04T17:15:22.996Z</time></trkpt><trkpt lat="40.02308577009251" lon="18.1715444023578"><ele>151.0</ele><time>2026-04-04T17:15:23.996Z</time></trkpt><trkpt lat="40.022946917962" lon="18.17170150346933"><ele>151.0</ele><time>2026-04-04T17:15:24.996Z</time></trkpt><trkpt lat="40.022818126242" lon="18.171847246244766"><ele>151.0</ele><time>2026-04-04T17:15:25.996Z</time></trkpt><trkpt lat="40.022693420141806" lon="18.17198969040226"><ele>151.0</ele><time>2026-04-04T17:15:26.996Z</time></trkpt><trkpt lat="40.02258088789132" lon="18.172122075521294"><ele>151.0</ele><time>2026-04-04T17:15:27.996Z</time></trkpt><trkpt lat="40.02246649578024" lon="18.17225026059478"><ele>151.0</ele><time>2026-04-04T17:15:28.996Z</time></trkpt><trkpt lat="40.02235456459996" lon="18.172382397807883"><ele>151.0</ele><time>2026-04-04T17:15:29.996Z</time></trkpt><trkpt lat="40.022243076090625" lon="18.172510288167423"><ele>151.0</ele><time>2026-04-04T17:15:30.996Z</time></trkpt><trkpt lat="40.02213785922963" lon="18.17263011647802"><ele>151.0</ele><time>2026-04-04T17:15:31.996Z</time></trkpt><trkpt lat="40.0220363162924" lon="18.17274735467766"><ele>151.0</ele><time>2026-04-04T17:15:32.996Z</time></trkpt><trkpt lat="40.02193847199635" lon="18.17285979699567"><ele>151.0</ele><time>2026-04-04T17:15:33.996Z</time></trkpt><trkpt lat="40.02184388176628" lon="18.172963225057458"><ele>151.0</ele><time>2026-04-04T17:15:34.996Z</time></trkpt><trkpt lat="40.02175473774732" lon="18.17306315405209"><ele>151.0</ele><time>2026-04-04T17:15:35.996Z</time></trkpt><trkpt lat="40.02167389234324" lon="18.173159485338918"><ele>151.0</ele><time>2026-04-04T17:15:36.996Z</time></trkpt><trkpt lat="40.02157467690297" lon="18.173282688568094"><ele>151.0</ele><time>2026-04-04T17:15:37.996Z</time></trkpt><trkpt lat="40.021467196823664" lon="18.173418494464745"><ele>151.66666666666669</ele><time>2026-04-04T17:15:38.996Z</time></trkpt><trkpt lat="40.02134934684092" lon="18.17356043643949"><ele>152.33333333333334</ele><time>2026-04-04T17:15:39.996Z</time></trkpt><trkpt lat="40.02121887505957" lon="18.17371232382381"><ele>153.0</ele><time>2026-04-04T17:15:40.996Z</time></trkpt><trkpt lat="40.02107130558117" lon="18.173861906367982"><ele>153.0</ele><time>2026-04-04T17:15:41.996Z</time></trkpt><trkpt lat="40.02091946807248" lon="18.174024777218754"><ele>153.0</ele><time>2026-04-04T17:15:42.996Z</time></trkpt><trkpt lat="40.020748844901476" lon="18.174197515016232"><ele>153.0</ele><time>2026-04-04T17:15:43.996Z</time></trkpt><trkpt lat="40.02057680781096" lon="18.17438218234698"><ele>151.5</ele><time>2026-04-04T17:15:44.996Z</time></trkpt><trkpt lat="40.0204022152559" lon="18.174570146980553"><ele>150.0</ele><time>2026-04-04T17:15:45.996Z</time></trkpt><trkpt lat="40.02021874120923" lon="18.174753487624066"><ele>149.66666666666666</ele><time>2026-04-04T17:15:46.996Z</time></trkpt><trkpt lat="40.02003894318823" lon="18.17493332327555"><ele>149.33333333333331</ele><time>2026-04-04T17:15:47.996Z</time></trkpt><trkpt lat="40.01986450766524" lon="18.175093631513352"><ele>149.0</ele><time>2026-04-04T17:15:48.996Z</time></trkpt><trkpt lat="40.01969791476418" lon="18.175238064758627"><ele>148.66666666666666</ele><time>2026-04-04T17:15:49.996Z</time></trkpt><trkpt lat="40.019540031992975" lon="18.175369258733333"><ele>148.33333333333334</ele><time>2026-04-04T17:15:50.996Z</time></trkpt><trkpt lat="40.019388863211006" lon="18.175491830776533"><ele>148.0</ele><time>2026-04-04T17:15:51.996Z</time></trkpt><trkpt lat="40.019245549769956" lon="18.1755972506064"><ele>148.0</ele><time>2026-04-04T17:15:52.996Z</time></trkpt><trkpt lat="40.019125763775676" lon="18.17569283123899"><ele>148.0</ele><time>2026-04-04T17:15:53.996Z</time></trkpt><trkpt lat="40.01901123162968" lon="18.17577286917236"><ele>148.0</ele><time>2026-04-04T17:15:54.996Z</time></trkpt><trkpt lat="40.01889803862923" lon="18.17584877105506"><ele>148.0</ele><time>2026-04-04T17:15:55.996Z</time></trkpt><trkpt lat="40.018795460213866" lon="18.175921248676904"><ele>148.0</ele><time>2026-04-04T17:15:56.996Z</time></trkpt><trkpt lat="40.018690998794746" lon="18.17600179053665"><ele>148.0</ele><time>2026-04-04T17:15:57.996Z</time></trkpt><trkpt lat="40.018571681724964" lon="18.176088818263562"><ele>148.0</ele><time>2026-04-04T17:15:58.996Z</time></trkpt><trkpt lat="40.018429537599324" lon="18.17618465723781"><ele>148.0</ele><time>2026-04-04T17:15:59.996Z</time></trkpt><trkpt lat="40.01827165569438" lon="18.176300389808343"><ele>148.33333333333334</ele><time>2026-04-04T17:16:00.996Z</time></trkpt><trkpt lat="40.018085988445485" lon="18.176437372321267"><ele>148.66666666666666</ele><time>2026-04-04T17:16:01.996Z</time></trkpt><trkpt lat="40.01789385132418" lon="18.176575898832468"><ele>149.0</ele><time>2026-04-04T17:16:02.996Z</time></trkpt><trkpt lat="40.01770308562841" lon="18.176715243547726"><ele>148.66666666666666</ele><time>2026-04-04T17:16:03.996Z</time></trkpt><trkpt lat="40.01750884599737" lon="18.176862552441552"><ele>148.33333333333334</ele><time>2026-04-04T17:16:04.996Z</time></trkpt><trkpt lat="40.01731256702132" lon="18.177001231081725"><ele>148.0</ele><time>2026-04-04T17:16:05.996Z</time></trkpt><trkpt lat="40.017116819902085" lon="18.17714417414517"><ele>148.0</ele><time>2026-04-04T17:16:06.996Z</time></trkpt><trkpt lat="40.01692029047607" lon="18.177285822004848"><ele>148.0</ele><time>2026-04-04T17:16:07.996Z</time></trkpt><trkpt lat="40.01672505195738" lon="18.177428463274577"><ele>148.0</ele><time>2026-04-04T17:16:08.996Z</time></trkpt><trkpt lat="40.0165303288226" lon="18.17757135189957"><ele>146.33333333333334</ele><time>2026-04-04T17:16:09.996Z</time></trkpt><trkpt lat="40.016338062513846" lon="18.17770883296033"><ele>144.66666666666666</ele><time>2026-04-04T17:16:10.996Z</time></trkpt><trkpt lat="40.01615570763009" lon="18.177834102152126"><ele>143.0</ele><time>2026-04-04T17:16:11.996Z</time></trkpt><trkpt lat="40.015980793250435" lon="18.177963809584206"><ele>142.66666666666666</ele><time>2026-04-04T17:16:12.996Z</time></trkpt><trkpt lat="40.01580621519128" lon="18.178099184525248"><ele>142.33333333333334</ele><time>2026-04-04T17:16:13.996Z</time></trkpt><trkpt lat="40.015627373396036" lon="18.17823528476158"><ele>142.0</ele><time>2026-04-04T17:16:14.996Z</time></trkpt><trkpt lat="40.01544438231259" lon="18.17836668969244"><ele>142.0</ele><time>2026-04-04T17:16:15.996Z</time></trkpt><trkpt lat="40.01525702748917" lon="18.17850443797063"><ele>142.0</ele><time>2026-04-04T17:16:16.996Z</time></trkpt><trkpt lat="40.01506694287308" lon="18.17864573001281"><ele>142.0</ele><time>2026-04-04T17:16:17.996Z</time></trkpt><trkpt lat="40.01487708280272" lon="18.178791147190037"><ele>140.5</ele><time>2026-04-04T17:16:18.996Z</time></trkpt><trkpt lat="40.0146851099216" lon="18.17894043292918"><ele>139.0</ele><time>2026-04-04T17:16:19.996Z</time></trkpt><trkpt lat="40.014487967373334" lon="18.17909577781448"><ele>139.0</ele><time>2026-04-04T17:16:20.996Z</time></trkpt><trkpt lat="40.01430438554695" lon="18.179243712558094"><ele>139.0</ele><time>2026-04-04T17:16:21.996Z</time></trkpt><trkpt lat="40.014132664855325" lon="18.179379649771914"><ele>139.0</ele><time>2026-04-04T17:16:22.996Z</time></trkpt><trkpt lat="40.01396876627409" lon="18.179507949808013"><ele>139.25</ele><time>2026-04-04T17:16:23.996Z</time></trkpt><trkpt lat="40.01383123611341" lon="18.179614683314274"><ele>139.5</ele><time>2026-04-04T17:16:24.996Z</time></trkpt><trkpt lat="40.013718663569875" lon="18.17970225391145"><ele>139.75</ele><time>2026-04-04T17:16:25.996Z</time></trkpt><trkpt lat="40.0136252582909" lon="18.179771012396063"><ele>140.0</ele><time>2026-04-04T17:16:26.996Z</time></trkpt><trkpt lat="40.0135508729882" lon="18.17980788354135"><ele>140.0</ele><time>2026-04-04T17:16:27.996Z</time></trkpt><trkpt lat="40.01348741897858" lon="18.179818071222492"><ele>140.0</ele><time>2026-04-04T17:16:28.996Z</time></trkpt><trkpt lat="40.01339244323403" lon="18.17976584396332"><ele>140.0</ele><time>2026-04-04T17:16:30.996Z</time></trkpt><trkpt lat="40.013317107978324" lon="18.179630089549022"><ele>140.0</ele><time>2026-04-04T17:16:32.996Z</time></trkpt><trkpt lat="40.01327444188444" lon="18.179498659596398"><ele>140.0</ele><time>2026-04-04T17:16:33.996Z</time></trkpt><trkpt lat="40.01322548565228" lon="18.179361124400064"><ele>140.33333333333331</ele><time>2026-04-04T17:16:34.996Z</time></trkpt><trkpt lat="40.013164851943095" lon="18.179145886014716"><ele>140.66666666666666</ele><time>2026-04-04T17:16:35.996Z</time></trkpt><trkpt lat="40.013102918903826" lon="18.178937480962855"><ele>141.0</ele><time>2026-04-04T17:16:36.996Z</time></trkpt><trkpt lat="40.013031857149485" lon="18.178705131547147"><ele>141.33333333333334</ele><time>2026-04-04T17:16:37.996Z</time></trkpt><trkpt lat="40.01296704504768" lon="18.1784747433422"><ele>141.66666666666669</ele><time>2026-04-04T17:16:38.996Z</time></trkpt><trkpt lat="40.01289471451811" lon="18.178242242653997"><ele>142.0</ele><time>2026-04-04T17:16:39.996Z</time></trkpt><trkpt lat="40.01283246525649" lon="18.178048795632247"><ele>142.25</ele><time>2026-04-04T17:16:40.996Z</time></trkpt><trkpt lat="40.01278261982641" lon="18.17789253620462"><ele>142.5</ele><time>2026-04-04T17:16:41.996Z</time></trkpt><trkpt lat="40.01273548549311" lon="18.177741407904648"><ele>142.75</ele><time>2026-04-04T17:16:42.996Z</time></trkpt><trkpt lat="40.01269392805785" lon="18.177607547681625"><ele>143.0</ele><time>2026-04-04T17:16:43.996Z</time></trkpt><trkpt lat="40.012658625292254" lon="18.17749324073579"><ele>143.0</ele><time>2026-04-04T17:16:44.996Z</time></trkpt><trkpt lat="40.01263149564148" lon="18.17739939910155"><ele>143.0</ele><time>2026-04-04T17:16:45.996Z</time></trkpt><trkpt lat="40.01258600934834" lon="18.177283780944087"><ele>143.0</ele><time>2026-04-04T17:16:47.996Z</time></trkpt><trkpt lat="40.01249454092516" lon="18.1772787917296"><ele>143.0</ele><time>2026-04-04T17:16:50.996Z</time></trkpt><trkpt lat="40.012432405300615" lon="18.177313431716897"><ele>143.0</ele><time>2026-04-04T17:16:51.996Z</time></trkpt><trkpt lat="40.01235986831024" lon="18.177347450130007"><ele>143.0</ele><time>2026-04-04T17:16:52.996Z</time></trkpt><trkpt lat="40.012287650984504" lon="18.1773649662394"><ele>143.16666666666666</ele><time>2026-04-04T17:16:53.996Z</time></trkpt><trkpt lat="40.01222394700562" lon="18.177377967846795"><ele>143.33333333333331</ele><time>2026-04-04T17:16:54.996Z</time></trkpt><trkpt lat="40.012131825115674" lon="18.17742728147262"><ele>143.5</ele><time>2026-04-04T17:16:56.996Z</time></trkpt><trkpt lat="40.01209084539142" lon="18.177498560605258"><ele>143.66666666666666</ele><time>2026-04-04T17:16:58.996Z</time></trkpt><trkpt lat="40.012111709245985" lon="18.17758125483441"><ele>143.83333333333334</ele><time>2026-04-04T17:17:00.996Z</time></trkpt><trkpt lat="40.01215382595921" lon="18.17767982329992"><ele>144.0</ele><time>2026-04-04T17:17:03.996Z</time></trkpt><trkpt lat="40.01216733565433" lon="18.177768469852666"><ele>144.0</ele><time>2026-04-04T17:17:07.997Z</time></trkpt></trkseg></trk></gpx>